<?xml version='1.0' encoding='UTF-8'?><gpx version="1.1" creator="JPX - https://github.com/jenetics/jpx" xmlns="http://www.topografix.com/GPX/1/1"><trk><trkseg><trkpt lat="42.78179016501105" lon="11.116302507970053"><ele>14.000000000000002</ele><time>2026-04-29T17:36:17.005Z</time></trkpt><trkpt lat="42.78172844090682" lon="11.116334005842836"><ele>14.0</ele><time>2026-04-29T17:36:19.005Z</time></trkpt><trkpt lat="42.781648183723775" lon="11.116322849580927"><ele>14.0</ele><time>2026-04-29T17:36:21.005Z</time></trkpt><trkpt lat="42.78160839332104" lon="11.11621668870836"><ele>14.0</ele><time>2026-04-29T17:36:23.005Z</time></trkpt><trkpt lat="42.78161477366379" lon="11.11609631408574"><ele>14.000000000000002</ele><time>2026-04-29T17:36:25.005Z</time></trkpt><trkpt lat="42.781602065208006" lon="11.11601044888615"><ele>14.0</ele><time>2026-04-29T17:36:27.005Z</time></trkpt><trkpt lat="42.78156320100192" lon="11.115880070045456"><ele>14.000000000000002</ele><time>2026-04-29T17:36:29.005Z</time></trkpt><trkpt lat="42.78156349010237" lon="11.115756044036633"><ele>14.0</ele><time>2026-04-29T17:36:31.005Z</time></trkpt><trkpt lat="42.781554608589595" lon="11.11566593985757"><ele>14.0</ele><time>2026-04-29T17:36:32.005Z</time></trkpt><trkpt lat="42.7815350147011" lon="11.115556316755802"><ele>14.0</ele><time>2026-04-29T17:36:33.005Z</time></trkpt><trkpt lat="42.78152338505567" lon="11.115434768622851"><ele>14.000000000000002</ele><time>2026-04-29T17:36:34.005Z</time></trkpt><trkpt lat="42.7815088928407" lon="11.115306783393024"><ele>14.0</ele><time>2026-04-29T17:36:35.005Z</time></trkpt><trkpt lat="42.78150219584756" lon="11.115181138915172"><ele>14.0</ele><time>2026-04-29T17:36:36.005Z</time></trkpt><trkpt lat="42.781484518458676" lon="11.115033881677345"><ele>13.999999999999998</ele><time>2026-04-29T17:36:38.006Z</time></trkpt><trkpt lat="42.78145455914806" lon="11.114908868211646"><ele>13.999999999999998</ele><time>2026-04-29T17:36:42.006Z</time></trkpt><trkpt lat="42.781342026956224" lon="11.114892623022772"><ele>14.0</ele><time>2026-04-29T17:36:44.006Z</time></trkpt><trkpt lat="42.781266897661794" lon="11.114915938639284"><ele>14.0</ele><time>2026-04-29T17:36:45.006Z</time></trkpt><trkpt lat="42.7811852539326" lon="11.11493302432083"><ele>14.0</ele><time>2026-04-29T17:36:46.006Z</time></trkpt><trkpt lat="42.781097726110524" lon="11.114944231210174"><ele>13.999999999999998</ele><time>2026-04-29T17:36:47.006Z</time></trkpt><trkpt lat="42.78099595016003" lon="11.11496331873686"><ele>13.999999999999998</ele><time>2026-04-29T17:36:48.006Z</time></trkpt><trkpt lat="42.78089225814104" lon="11.114989386814848"><ele>14.0</ele><time>2026-04-29T17:36:49.006Z</time></trkpt><trkpt lat="42.78078888318616" lon="11.115014644862326"><ele>14.0</ele><time>2026-04-29T17:36:50.006Z</time></trkpt><trkpt lat="42.78068630908537" lon="11.115037043300886"><ele>13.25</ele><time>2026-04-29T17:36:51.006Z</time></trkpt><trkpt lat="42.78057428209644" lon="11.115058880217928"><ele>12.5</ele><time>2026-04-29T17:36:52.006Z</time></trkpt><trkpt lat="42.7804596134257" lon="11.115077692366903"><ele>11.75</ele><time>2026-04-29T17:36:53.006Z</time></trkpt><trkpt lat="42.78034558896532" lon="11.115091435144281"><ele>11.0</ele><time>2026-04-29T17:36:54.006Z</time></trkpt><trkpt lat="42.78022472313903" lon="11.115103782515874"><ele>11.5</ele><time>2026-04-29T17:36:55.006Z</time></trkpt><trkpt lat="42.78009880146622" lon="11.115121428015469"><ele>12.0</ele><time>2026-04-29T17:36:56.006Z</time></trkpt><trkpt lat="42.77996518298713" lon="11.115142082222585"><ele>12.5</ele><time>2026-04-29T17:36:57.006Z</time></trkpt><trkpt lat="42.77983093238026" lon="11.115167370641924"><ele>13.0</ele><time>2026-04-29T17:36:58.006Z</time></trkpt><trkpt lat="42.779692564567185" lon="11.115197012387624"><ele>13.0</ele><time>2026-04-29T17:36:59.006Z</time></trkpt><trkpt lat="42.7795474793449" lon="11.115231163880113"><ele>13.0</ele><time>2026-04-29T17:37:00.006Z</time></trkpt><trkpt lat="42.77940790649909" lon="11.11526327627719"><ele>13.0</ele><time>2026-04-29T17:37:01.006Z</time></trkpt><trkpt lat="42.779268609503575" lon="11.115296795757114"><ele>13.0</ele><time>2026-04-29T17:37:02.006Z</time></trkpt><trkpt lat="42.779133895314544" lon="11.115345012707238"><ele>13.5</ele><time>2026-04-29T17:37:03.006Z</time></trkpt><trkpt lat="42.7790083933311" lon="11.11539252400672"><ele>14.0</ele><time>2026-04-29T17:37:04.006Z</time></trkpt><trkpt lat="42.778903854908705" lon="11.115467438835443"><ele>14.5</ele><time>2026-04-29T17:37:05.006Z</time></trkpt><trkpt lat="42.77880414161785" lon="11.115544259705144"><ele>15.0</ele><time>2026-04-29T17:37:06.006Z</time></trkpt><trkpt lat="42.77870393296295" lon="11.115607229513703"><ele>15.0</ele><time>2026-04-29T17:37:07.006Z</time></trkpt><trkpt lat="42.77862443557493" lon="11.115732454606157"><ele>15.0</ele><time>2026-04-29T17:37:08.006Z</time></trkpt><trkpt lat="42.77855008663094" lon="11.115845986225024"><ele>15.0</ele><time>2026-04-29T17:37:09.006Z</time></trkpt><trkpt lat="42.778486063627945" lon="11.11595541481403"><ele>15.0</ele><time>2026-04-29T17:37:10.006Z</time></trkpt><trkpt lat="42.77844262791401" lon="11.116080308556946"><ele>15.0</ele><time>2026-04-29T17:37:11.006Z</time></trkpt><trkpt lat="42.778371148446986" lon="11.11616013764464"><ele>14.333333333333334</ele><time>2026-04-29T17:37:12.006Z</time></trkpt><trkpt lat="42.7783187749832" lon="11.116252736156463"><ele>13.666666666666666</ele><time>2026-04-29T17:37:13.006Z</time></trkpt><trkpt lat="42.77826003837234" lon="11.116324049841174"><ele>13.0</ele><time>2026-04-29T17:37:14.006Z</time></trkpt><trkpt lat="42.77818152552898" lon="11.116365305892089"><ele>12.333333333333332</ele><time>2026-04-29T17:37:15.006Z</time></trkpt><trkpt lat="42.77812639379277" lon="11.116421754541037"><ele>11.666666666666666</ele><time>2026-04-29T17:37:16.006Z</time></trkpt><trkpt lat="42.77807612647068" lon="11.11648675530679"><ele>11.0</ele><time>2026-04-29T17:37:17.006Z</time></trkpt><trkpt lat="42.777995110501756" lon="11.116617160482374"><ele>11.0</ele><time>2026-04-29T17:37:19.006Z</time></trkpt><trkpt lat="42.77785491781029" lon="11.116542258013544"><ele>11.0</ele><time>2026-04-29T17:37:20.006Z</time></trkpt><trkpt lat="42.777766768353416" lon="11.116503982694026"><ele>11.0</ele><time>2026-04-29T17:37:21.006Z</time></trkpt><trkpt lat="42.7776817456175" lon="11.116450796730529"><ele>11.0</ele><time>2026-04-29T17:37:22.006Z</time></trkpt><trkpt lat="42.777592832838245" lon="11.116405567361769"><ele>11.0</ele><time>2026-04-29T17:37:23.006Z</time></trkpt><trkpt lat="42.77749838263476" lon="11.116362219538434"><ele>11.600000000000001</ele><time>2026-04-29T17:37:24.006Z</time></trkpt><trkpt lat="42.77740394803303" lon="11.116308968247932"><ele>12.2</ele><time>2026-04-29T17:37:25.006Z</time></trkpt><trkpt lat="42.77730028221107" lon="11.116258828064783"><ele>12.799999999999999</ele><time>2026-04-29T17:37:26.006Z</time></trkpt><trkpt lat="42.77720519062927" lon="11.116199882444986"><ele>13.399999999999999</ele><time>2026-04-29T17:37:27.006Z</time></trkpt><trkpt lat="42.77711460463259" lon="11.116157376523306"><ele>14.0</ele><time>2026-04-29T17:37:28.006Z</time></trkpt><trkpt lat="42.77702822712621" lon="11.1161088101515"><ele>14.000000000000002</ele><time>2026-04-29T17:37:29.006Z</time></trkpt><trkpt lat="42.7769447114936" lon="11.11606026752173"><ele>14.0</ele><time>2026-04-29T17:37:30.006Z</time></trkpt><trkpt lat="42.776860759634914" lon="11.116012811744843"><ele>14.0</ele><time>2026-04-29T17:37:31.006Z</time></trkpt><trkpt lat="42.77678631953547" lon="11.115972776758467"><ele>14.0</ele><time>2026-04-29T17:37:32.006Z</time></trkpt><trkpt lat="42.77672200910579" lon="11.115921933209517"><ele>14.000000000000002</ele><time>2026-04-29T17:37:33.006Z</time></trkpt><trkpt lat="42.77662319957529" lon="11.115878633312976"><ele>14.0</ele><time>2026-04-29T17:37:35.006Z</time></trkpt><trkpt lat="42.776561345042126" lon="11.115845646001446"><ele>14.0</ele><time>2026-04-29T17:37:38.006Z</time></trkpt><trkpt lat="42.77649834081688" lon="11.115770993151834"><ele>14.0</ele><time>2026-04-29T17:37:43.006Z</time></trkpt><trkpt lat="42.77642534844714" lon="11.115611669183478"><ele>14.0</ele><time>2026-04-29T17:37:46.006Z</time></trkpt><trkpt lat="42.77656016021014" lon="11.11549409438562"><ele>14.0</ele><time>2026-04-29T17:37:47.006Z</time></trkpt><trkpt lat="42.7766157671088" lon="11.115433007664565"><ele>13.833333333333334</ele><time>2026-04-29T17:37:48.006Z</time></trkpt><trkpt lat="42.77668293648018" lon="11.115362661020312"><ele>13.666666666666668</ele><time>2026-04-29T17:37:49.006Z</time></trkpt><trkpt lat="42.77674450809342" lon="11.115300034398336"><ele>13.5</ele><time>2026-04-29T17:37:50.006Z</time></trkpt><trkpt lat="42.776808168559185" lon="11.115237387493906"><ele>13.333333333333332</ele><time>2026-04-29T17:37:51.006Z</time></trkpt><trkpt lat="42.77687077082966" lon="11.115172706027609"><ele>13.166666666666666</ele><time>2026-04-29T17:37:52.006Z</time></trkpt><trkpt lat="42.77692166439211" lon="11.1151126845355"><ele>13.0</ele><time>2026-04-29T17:37:53.006Z</time></trkpt><trkpt lat="42.77697536036722" lon="11.115049679619899"><ele>13.0</ele><time>2026-04-29T17:37:54.006Z</time></trkpt><trkpt lat="42.777034557635346" lon="11.114986536609429"><ele>13.0</ele><time>2026-04-29T17:37:55.006Z</time></trkpt><trkpt lat="42.777082056933104" lon="11.114914874423034"><ele>13.0</ele><time>2026-04-29T17:37:56.006Z</time></trkpt><trkpt lat="42.77718971665292" lon="11.115106175794825"><ele>13.0</ele><time>2026-04-29T17:37:59.006Z</time></trkpt><trkpt lat="42.7772417236547" lon="11.115170757467602"><ele>13.0</ele><time>2026-04-29T17:38:00.006Z</time></trkpt><trkpt lat="42.77731726809763" lon="11.115222668218394"><ele>12.999999999999998</ele><time>2026-04-29T17:38:02.007Z</time></trkpt><trkpt lat="42.777394644356924" lon="11.11507495662315"><ele>13.0</ele><time>2026-04-29T17:38:07.007Z</time></trkpt><trkpt lat="42.77746438457508" lon="11.115011653971282"><ele>13.0</ele><time>2026-04-29T17:38:09.007Z</time></trkpt><trkpt lat="42.77751494057926" lon="11.114924499564564"><ele>13.0</ele><time>2026-04-29T17:38:11.007Z</time></trkpt><trkpt lat="42.77756593361819" lon="11.114868294729051"><ele>12.999999999999998</ele><time>2026-04-29T17:38:14.007Z</time></trkpt><trkpt lat="42.777630082385784" lon="11.11479356874487"><ele>13.0</ele><time>2026-04-29T17:38:45.007Z</time></trkpt><trkpt lat="42.77768017159201" lon="11.114737560643714"><ele>12.999999999999998</ele><time>2026-04-29T17:38:46.007Z</time></trkpt><trkpt lat="42.77773412074036" lon="11.114684296304361"><ele>13.0</ele><time>2026-04-29T17:38:47.007Z</time></trkpt><trkpt lat="42.77774536464092" lon="11.114485637505304"><ele>13.0</ele><time>2026-04-29T17:38:50.007Z</time></trkpt><trkpt lat="42.7776916569118" lon="11.114402891701811"><ele>13.0</ele><time>2026-04-29T17:38:53.007Z</time></trkpt><trkpt lat="42.77764662182327" lon="11.114331882637702"><ele>12.999999999999998</ele><time>2026-04-29T17:38:55.007Z</time></trkpt><trkpt lat="42.77758901157885" lon="11.114253361812075"><ele>13.0</ele><time>2026-04-29T17:39:07.007Z</time></trkpt><trkpt lat="42.777493786425396" lon="11.11434927375932"><ele>12.666666666666666</ele><time>2026-04-29T17:39:08.007Z</time></trkpt><trkpt lat="42.777437129514496" lon="11.114432626483248"><ele>12.333333333333332</ele><time>2026-04-29T17:39:11.007Z</time></trkpt><trkpt lat="42.777388493214815" lon="11.114492217396988"><ele>12.0</ele><time>2026-04-29T17:39:14.007Z</time></trkpt><trkpt lat="42.77731982284339" lon="11.114547920801746"><ele>11.666666666666666</ele><time>2026-04-29T17:40:03.008Z</time></trkpt><trkpt lat="42.77721920973735" lon="11.11465243528616"><ele>11.333333333333332</ele><time>2026-04-29T17:40:05.008Z</time></trkpt><trkpt lat="42.77715608837476" lon="11.114723616281086"><ele>11.0</ele><time>2026-04-29T17:40:06.008Z</time></trkpt><trkpt lat="42.77708179438543" lon="11.114814081800384"><ele>11.0</ele><time>2026-04-29T17:40:07.008Z</time></trkpt><trkpt lat="42.777000865726926" lon="11.114909602342278"><ele>11.0</ele><time>2026-04-29T17:40:08.008Z</time></trkpt><trkpt lat="42.77691412404631" lon="11.115012645396833"><ele>11.0</ele><time>2026-04-29T17:40:09.008Z</time></trkpt><trkpt lat="42.77683081783171" lon="11.115110584734072"><ele>11.0</ele><time>2026-04-29T17:40:10.008Z</time></trkpt><trkpt lat="42.77675200336821" lon="11.115198904952743"><ele>11.0</ele><time>2026-04-29T17:40:11.008Z</time></trkpt><trkpt lat="42.77668508534745" lon="11.115280013831775"><ele>11.0</ele><time>2026-04-29T17:40:12.008Z</time></trkpt><trkpt lat="42.77662168800933" lon="11.115352264671593"><ele>11.0</ele><time>2026-04-29T17:40:13.008Z</time></trkpt><trkpt lat="42.77655826064525" lon="11.115409602971555"><ele>11.0</ele><time>2026-04-29T17:40:14.008Z</time></trkpt><trkpt lat="42.77650361029695" lon="11.115457225653909"><ele>11.0</ele><time>2026-04-29T17:40:15.008Z</time></trkpt><trkpt lat="42.7764278931141" lon="11.115549815961261"><ele>11.0</ele><time>2026-04-29T17:40:17.008Z</time></trkpt><trkpt lat="42.77636876624659" lon="11.11563384798905"><ele>11.0</ele><time>2026-04-29T17:40:19.008Z</time></trkpt><trkpt lat="42.776321112577726" lon="11.115693565056901"><ele>11.5</ele><time>2026-04-29T17:40:20.008Z</time></trkpt><trkpt lat="42.7762689854432" lon="11.115757304268755"><ele>12.0</ele><time>2026-04-29T17:40:21.008Z</time></trkpt><trkpt lat="42.77625204263858" lon="11.115840465894426"><ele>12.5</ele><time>2026-04-29T17:40:22.008Z</time></trkpt><trkpt lat="42.77628385855879" lon="11.115938004752417"><ele>13.0</ele><time>2026-04-29T17:40:23.008Z</time></trkpt><trkpt lat="42.77635871468182" lon="11.116000301220366"><ele>13.500000000000002</ele><time>2026-04-29T17:40:24.008Z</time></trkpt><trkpt lat="42.776464722531585" lon="11.115971315858967"><ele>14.0</ele><time>2026-04-29T17:40:25.008Z</time></trkpt><trkpt lat="42.776553409543084" lon="11.115984089998658"><ele>14.0</ele><time>2026-04-29T17:40:26.008Z</time></trkpt><trkpt lat="42.77665153394024" lon="11.116039121532577"><ele>14.0</ele><time>2026-04-29T17:40:27.008Z</time></trkpt><trkpt lat="42.77675377971057" lon="11.116099462012812"><ele>14.0</ele><time>2026-04-29T17:40:28.008Z</time></trkpt><trkpt lat="42.7768691754363" lon="11.116170817031394"><ele>14.0</ele><time>2026-04-29T17:40:29.008Z</time></trkpt><trkpt lat="42.77700152033952" lon="11.116255117123014"><ele>14.0</ele><time>2026-04-29T17:40:30.008Z</time></trkpt><trkpt lat="42.777155703637476" lon="11.116340854359784"><ele>14.0</ele><time>2026-04-29T17:40:31.008Z</time></trkpt><trkpt lat="42.77732133941271" lon="11.116414071066558"><ele>14.0</ele><time>2026-04-29T17:40:32.008Z</time></trkpt><trkpt lat="42.77748176872213" lon="11.116485678551628"><ele>14.0</ele><time>2026-04-29T17:40:33.008Z</time></trkpt><trkpt lat="42.77763220138758" lon="11.116561038382454"><ele>14.0</ele><time>2026-04-29T17:40:34.008Z</time></trkpt><trkpt lat="42.77775819684953" lon="11.116635267631716"><ele>14.0</ele><time>2026-04-29T17:40:35.008Z</time></trkpt><trkpt lat="42.77785270367107" lon="11.116698381273102"><ele>14.0</ele><time>2026-04-29T17:40:36.008Z</time></trkpt><trkpt lat="42.777920823732195" lon="11.116761595993447"><ele>13.2</ele><time>2026-04-29T17:40:37.008Z</time></trkpt><trkpt lat="42.77798180816264" lon="11.116783169703528"><ele>12.399999999999999</ele><time>2026-04-29T17:40:38.008Z</time></trkpt><trkpt lat="42.778007618639435" lon="11.116931264011601"><ele>11.6</ele><time>2026-04-29T17:40:39.008Z</time></trkpt><trkpt lat="42.77802819915975" lon="11.117018540239842"><ele>10.8</ele><time>2026-04-29T17:40:40.008Z</time></trkpt><trkpt lat="42.77808055701674" lon="11.117158925498977"><ele>10.0</ele><time>2026-04-29T17:40:42.008Z</time></trkpt><trkpt lat="42.77791548451508" lon="11.117361651458733"><ele>10.25</ele><time>2026-04-29T17:40:43.008Z</time></trkpt><trkpt lat="42.77785690931867" lon="11.117498103793741"><ele>10.5</ele><time>2026-04-29T17:40:44.008Z</time></trkpt><trkpt lat="42.7777711928733" lon="11.11766650904156"><ele>10.75</ele><time>2026-04-29T17:40:45.008Z</time></trkpt><trkpt lat="42.777658468746374" lon="11.117850770756696"><ele>11.0</ele><time>2026-04-29T17:40:46.008Z</time></trkpt><trkpt lat="42.77755034308893" lon="11.11804300319347"><ele>12.333333333333332</ele><time>2026-04-29T17:40:47.008Z</time></trkpt><trkpt lat="42.77745080915083" lon="11.11822059290295"><ele>13.666666666666666</ele><time>2026-04-29T17:40:48.009Z</time></trkpt><trkpt lat="42.77735642721055" lon="11.118393842282403"><ele>15.0</ele><time>2026-04-29T17:40:49.009Z</time></trkpt><trkpt lat="42.777268903110134" lon="11.118577124763126"><ele>15.0</ele><time>2026-04-29T17:40:50.009Z</time></trkpt><trkpt lat="42.777171733314226" lon="11.118750085574575"><ele>15.0</ele><time>2026-04-29T17:40:51.009Z</time></trkpt><trkpt lat="42.77707558754381" lon="11.11894327233877"><ele>15.0</ele><time>2026-04-29T17:40:52.009Z</time></trkpt><trkpt lat="42.77698071351718" lon="11.119147311314439"><ele>15.333333333333332</ele><time>2026-04-29T17:40:53.009Z</time></trkpt><trkpt lat="42.77689197747753" lon="11.119368036122"><ele>15.666666666666666</ele><time>2026-04-29T17:40:54.009Z</time></trkpt><trkpt lat="42.77679261351774" lon="11.119574322626962"><ele>16.0</ele><time>2026-04-29T17:40:55.009Z</time></trkpt><trkpt lat="42.77669034438744" lon="11.119784266426128"><ele>15.0</ele><time>2026-04-29T17:40:56.009Z</time></trkpt><trkpt lat="42.7765757129089" lon="11.11999022440588"><ele>14.0</ele><time>2026-04-29T17:40:57.009Z</time></trkpt><trkpt lat="42.776484140407284" lon="11.120196167523485"><ele>13.0</ele><time>2026-04-29T17:40:58.009Z</time></trkpt><trkpt lat="42.77639167562634" lon="11.12039472876505"><ele>13.0</ele><time>2026-04-29T17:40:59.009Z</time></trkpt><trkpt lat="42.7763084983894" lon="11.12058060594098"><ele>13.0</ele><time>2026-04-29T17:41:00.009Z</time></trkpt><trkpt lat="42.776234822835896" lon="11.120749207601435"><ele>13.0</ele><time>2026-04-29T17:41:01.009Z</time></trkpt><trkpt lat="42.77614332660001" lon="11.120895585056859"><ele>13.0</ele><time>2026-04-29T17:41:02.009Z</time></trkpt><trkpt lat="42.77605183342355" lon="11.121063334720251"><ele>13.666666666666666</ele><time>2026-04-29T17:41:03.009Z</time></trkpt><trkpt lat="42.77595970844083" lon="11.121252626556059"><ele>14.333333333333332</ele><time>2026-04-29T17:41:04.009Z</time></trkpt><trkpt lat="42.77587172556625" lon="11.121455620464886"><ele>15.0</ele><time>2026-04-29T17:41:05.009Z</time></trkpt><trkpt lat="42.77578641706009" lon="11.121624888129938"><ele>15.0</ele><time>2026-04-29T17:41:06.009Z</time></trkpt><trkpt lat="42.77571477933905" lon="11.121773952529486"><ele>15.0</ele><time>2026-04-29T17:41:07.009Z</time></trkpt><trkpt lat="42.77565772550636" lon="11.121894632368656"><ele>15.0</ele><time>2026-04-29T17:41:08.009Z</time></trkpt><trkpt lat="42.77562211843716" lon="11.121974289544589"><ele>15.0</ele><time>2026-04-29T17:41:09.009Z</time></trkpt><trkpt lat="42.77556148012631" lon="11.122026591507332"><ele>15.0</ele><time>2026-04-29T17:41:12.009Z</time></trkpt><trkpt lat="42.7754933707895" lon="11.122082199923437"><ele>15.0</ele><time>2026-04-29T17:41:14.009Z</time></trkpt><trkpt lat="42.77544408239771" lon="11.1221399872786"><ele>15.0</ele><time>2026-04-29T17:41:15.009Z</time></trkpt><trkpt lat="42.775405986547696" lon="11.122222457117118"><ele>15.0</ele><time>2026-04-29T17:41:16.009Z</time></trkpt><trkpt lat="42.77543283561577" lon="11.122388285706279"><ele>15.0</ele><time>2026-04-29T17:41:18.009Z</time></trkpt><trkpt lat="42.77549223474742" lon="11.122443167067274"><ele>15.0</ele><time>2026-04-29T17:41:19.009Z</time></trkpt><trkpt lat="42.77557917718361" lon="11.122457328781474"><ele>15.0</ele><time>2026-04-29T17:41:20.009Z</time></trkpt><trkpt lat="42.775667155746284" lon="11.12247647847992"><ele>15.2</ele><time>2026-04-29T17:41:21.009Z</time></trkpt><trkpt lat="42.77577604086223" lon="11.122504764752627"><ele>15.4</ele><time>2026-04-29T17:41:22.009Z</time></trkpt><trkpt lat="42.77586470606338" lon="11.122551772766286"><ele>15.600000000000001</ele><time>2026-04-29T17:41:23.009Z</time></trkpt><trkpt lat="42.77593749172774" lon="11.1226061697256"><ele>15.8</ele><time>2026-04-29T17:41:24.009Z</time></trkpt><trkpt lat="42.7760126374585" lon="11.122669260360448"><ele>16.0</ele><time>2026-04-29T17:41:25.009Z</time></trkpt><trkpt lat="42.77605552854588" lon="11.122767225199164"><ele>16.0</ele><time>2026-04-29T17:41:26.009Z</time></trkpt><trkpt lat="42.77610298723591" lon="11.122862330353506"><ele>16.0</ele><time>2026-04-29T17:41:27.009Z</time></trkpt><trkpt lat="42.77612303962042" lon="11.122959978030998"><ele>16.0</ele><time>2026-04-29T17:41:28.009Z</time></trkpt><trkpt lat="42.77612881746659" lon="11.12306056721465"><ele>16.0</ele><time>2026-04-29T17:41:29.009Z</time></trkpt><trkpt lat="42.77598331587593" lon="11.123174748189117"><ele>16.0</ele><time>2026-04-29T17:41:30.009Z</time></trkpt><trkpt lat="42.775947263299145" lon="11.12328685743385"><ele>15.600000000000001</ele><time>2026-04-29T17:41:31.009Z</time></trkpt><trkpt lat="42.77592419173872" lon="11.123421324257402"><ele>15.200000000000001</ele><time>2026-04-29T17:41:32.009Z</time></trkpt><trkpt lat="42.7759040994045" lon="11.123559566170144"><ele>14.799999999999999</ele><time>2026-04-29T17:41:33.009Z</time></trkpt><trkpt lat="42.775865282226086" lon="11.123693230917667"><ele>14.399999999999999</ele><time>2026-04-29T17:41:34.009Z</time></trkpt><trkpt lat="42.77584961581302" lon="11.123839174944589"><ele>14.0</ele><time>2026-04-29T17:41:35.009Z</time></trkpt><trkpt lat="42.775829757449934" lon="11.123982417172066"><ele>13.75</ele><time>2026-04-29T17:41:36.009Z</time></trkpt><trkpt lat="42.77580161029761" lon="11.12413682356644"><ele>13.5</ele><time>2026-04-29T17:41:37.009Z</time></trkpt><trkpt lat="42.77577375002807" lon="11.124294804559131"><ele>13.25</ele><time>2026-04-29T17:41:38.009Z</time></trkpt><trkpt lat="42.77574297558559" lon="11.1244647904942"><ele>13.0</ele><time>2026-04-29T17:41:39.009Z</time></trkpt><trkpt lat="42.775713324499144" lon="11.124633132111013"><ele>13.0</ele><time>2026-04-29T17:41:40.009Z</time></trkpt><trkpt lat="42.775686829907315" lon="11.124792794475697"><ele>13.0</ele><time>2026-04-29T17:41:41.009Z</time></trkpt><trkpt lat="42.77566148665737" lon="11.124955117218828"><ele>13.0</ele><time>2026-04-29T17:41:42.009Z</time></trkpt><trkpt lat="42.77563471875887" lon="11.12511448430892"><ele>13.0</ele><time>2026-04-29T17:41:43.009Z</time></trkpt><trkpt lat="42.775590454389466" lon="11.125278871674102"><ele>13.0</ele><time>2026-04-29T17:41:44.009Z</time></trkpt><trkpt lat="42.77556072415342" lon="11.125440172667544"><ele>13.0</ele><time>2026-04-29T17:41:45.009Z</time></trkpt><trkpt lat="42.77553367424371" lon="11.125616427469529"><ele>13.0</ele><time>2026-04-29T17:41:46.009Z</time></trkpt><trkpt lat="42.77550906515625" lon="11.125799876814936"><ele>13.0</ele><time>2026-04-29T17:41:47.009Z</time></trkpt><trkpt lat="42.77548658244988" lon="11.125995560779474"><ele>13.0</ele><time>2026-04-29T17:41:48.009Z</time></trkpt><trkpt lat="42.77543965285606" lon="11.126212151213629"><ele>13.0</ele><time>2026-04-29T17:41:49.009Z</time></trkpt><trkpt lat="42.77539937315202" lon="11.126452571950816"><ele>13.0</ele><time>2026-04-29T17:41:50.009Z</time></trkpt><trkpt lat="42.775357339881644" lon="11.126706579424585"><ele>12.666666666666666</ele><time>2026-04-29T17:41:51.009Z</time></trkpt><trkpt lat="42.775312356017515" lon="11.126969216639006"><ele>12.333333333333332</ele><time>2026-04-29T17:41:52.009Z</time></trkpt><trkpt lat="42.7752613606241" lon="11.127237894011385"><ele>12.0</ele><time>2026-04-29T17:41:53.009Z</time></trkpt><trkpt lat="42.77520900944039" lon="11.127504108121657"><ele>12.0</ele><time>2026-04-29T17:41:54.009Z</time></trkpt><trkpt lat="42.775162560284826" lon="11.127782534909462"><ele>12.0</ele><time>2026-04-29T17:41:55.009Z</time></trkpt><trkpt lat="42.77511795062203" lon="11.128050669048724"><ele>12.0</ele><time>2026-04-29T17:41:56.009Z</time></trkpt><trkpt lat="42.775082484538615" lon="11.128299579856074"><ele>12.25</ele><time>2026-04-29T17:41:57.009Z</time></trkpt><trkpt lat="42.775048495065455" lon="11.128516953528495"><ele>12.5</ele><time>2026-04-29T17:41:58.009Z</time></trkpt><trkpt lat="42.77501844012316" lon="11.128699552939736"><ele>12.75</ele><time>2026-04-29T17:41:59.009Z</time></trkpt><trkpt lat="42.774992184705894" lon="11.128852536880308"><ele>13.0</ele><time>2026-04-29T17:42:00.009Z</time></trkpt><trkpt lat="42.77496737331431" lon="11.128979595189525"><ele>12.999999999999998</ele><time>2026-04-29T17:42:01.009Z</time></trkpt><trkpt lat="42.774948448067" lon="11.129071078365394"><ele>13.0</ele><time>2026-04-29T17:42:02.009Z</time></trkpt><trkpt lat="42.774931614256396" lon="11.129177052730181"><ele>13.0</ele><time>2026-04-29T17:42:04.009Z</time></trkpt><trkpt lat="42.77492093080379" lon="11.129321137913278"><ele>13.0</ele><time>2026-04-29T17:42:08.009Z</time></trkpt><trkpt lat="42.774903658267284" lon="11.129432598692151"><ele>12.999999999999998</ele><time>2026-04-29T17:42:09.009Z</time></trkpt><trkpt lat="42.77488100527611" lon="11.129568634078693"><ele>13.0</ele><time>2026-04-29T17:42:10.01Z</time></trkpt><trkpt lat="42.774853376441705" lon="11.129723634918648"><ele>13.333333333333332</ele><time>2026-04-29T17:42:11.01Z</time></trkpt><trkpt lat="42.77482155163816" lon="11.129903844098383"><ele>13.666666666666668</ele><time>2026-04-29T17:42:12.01Z</time></trkpt><trkpt lat="42.77478670794713" lon="11.130108549050503"><ele>14.0</ele><time>2026-04-29T17:42:13.01Z</time></trkpt><trkpt lat="42.774748702681215" lon="11.130328217193034"><ele>14.0</ele><time>2026-04-29T17:42:14.01Z</time></trkpt><trkpt lat="42.774710405766655" lon="11.13056454933007"><ele>14.0</ele><time>2026-04-29T17:42:15.01Z</time></trkpt><trkpt lat="42.77466761221524" lon="11.130814921897295"><ele>14.0</ele><time>2026-04-29T17:42:16.01Z</time></trkpt><trkpt lat="42.77462254616846" lon="11.131082339386053"><ele>14.0</ele><time>2026-04-29T17:42:17.01Z</time></trkpt><trkpt lat="42.774575838334336" lon="11.131355399820718"><ele>14.0</ele><time>2026-04-29T17:42:18.01Z</time></trkpt><trkpt lat="42.77452687705631" lon="11.131640905064327"><ele>14.0</ele><time>2026-04-29T17:42:19.01Z</time></trkpt><trkpt lat="42.77447627888277" lon="11.131944386773714"><ele>14.0</ele><time>2026-04-29T17:42:20.01Z</time></trkpt><trkpt lat="42.77442306765122" lon="11.132248579954336"><ele>14.0</ele><time>2026-04-29T17:42:21.01Z</time></trkpt><trkpt lat="42.774370383506714" lon="11.13255943858164"><ele>14.0</ele><time>2026-04-29T17:42:22.01Z</time></trkpt><trkpt lat="42.77431639568087" lon="11.132880080736607"><ele>14.0</ele><time>2026-04-29T17:42:23.01Z</time></trkpt><trkpt lat="42.774260159433986" lon="11.133208288529572"><ele>14.0</ele><time>2026-04-29T17:42:24.01Z</time></trkpt><trkpt lat="42.77420182834635" lon="11.133543704958317"><ele>14.0</ele><time>2026-04-29T17:42:25.01Z</time></trkpt><trkpt lat="42.77414373272995" lon="11.133881965377675"><ele>14.0</ele><time>2026-04-29T17:42:26.01Z</time></trkpt><trkpt lat="42.77408440706278" lon="11.134224196705993"><ele>14.0</ele><time>2026-04-29T17:42:27.01Z</time></trkpt><trkpt lat="42.77402427064719" lon="11.134573299267347"><ele>14.0</ele><time>2026-04-29T17:42:28.01Z</time></trkpt><trkpt lat="42.773963292008695" lon="11.134923847799689"><ele>14.0</ele><time>2026-04-29T17:42:29.01Z</time></trkpt><trkpt lat="42.773902253608526" lon="11.13527604570773"><ele>14.0</ele><time>2026-04-29T17:42:30.01Z</time></trkpt><trkpt lat="42.7738420305684" lon="11.13563169489296"><ele>14.0</ele><time>2026-04-29T17:42:31.01Z</time></trkpt><trkpt lat="42.77378268945745" lon="11.135981842779964"><ele>14.0</ele><time>2026-04-29T17:42:32.01Z</time></trkpt><trkpt lat="42.77372172728397" lon="11.136330036605337"><ele>14.0</ele><time>2026-04-29T17:42:33.01Z</time></trkpt><trkpt lat="42.7736629570794" lon="11.136675420535752"><ele>14.0</ele><time>2026-04-29T17:42:34.01Z</time></trkpt><trkpt lat="42.77360537787212" lon="11.137025431525252"><ele>14.0</ele><time>2026-04-29T17:42:35.01Z</time></trkpt><trkpt lat="42.77353422298484" lon="11.137362172052379"><ele>14.0</ele><time>2026-04-29T17:42:36.01Z</time></trkpt><trkpt lat="42.77347941180955" lon="11.137686539300264"><ele>14.0</ele><time>2026-04-29T17:42:37.01Z</time></trkpt><trkpt lat="42.77344359237359" lon="11.137991553873464"><ele>14.333333333333334</ele><time>2026-04-29T17:42:38.01Z</time></trkpt><trkpt lat="42.77339449558065" lon="11.138268788404229"><ele>14.666666666666668</ele><time>2026-04-29T17:42:39.01Z</time></trkpt><trkpt lat="42.77334881230809" lon="11.138532253619237"><ele>15.0</ele><time>2026-04-29T17:42:40.01Z</time></trkpt><trkpt lat="42.77330715506981" lon="11.13877547523767"><ele>15.0</ele><time>2026-04-29T17:42:41.01Z</time></trkpt><trkpt lat="42.77326696826333" lon="11.139000234386364"><ele>15.0</ele><time>2026-04-29T17:42:42.01Z</time></trkpt><trkpt lat="42.77323410616017" lon="11.139199843778487"><ele>15.0</ele><time>2026-04-29T17:42:43.01Z</time></trkpt><trkpt lat="42.773193531730925" lon="11.139365186195993"><ele>15.0</ele><time>2026-04-29T17:42:44.01Z</time></trkpt><trkpt lat="42.77317530689139" lon="11.139506660321508"><ele>14.833333333333334</ele><time>2026-04-29T17:42:45.01Z</time></trkpt><trkpt lat="42.77315838972701" lon="11.139622456429267"><ele>14.666666666666668</ele><time>2026-04-29T17:42:46.01Z</time></trkpt><trkpt lat="42.773143392343876" lon="11.139714378009396"><ele>14.5</ele><time>2026-04-29T17:42:47.01Z</time></trkpt><trkpt lat="42.77307532663512" lon="11.139822784838971"><ele>14.333333333333334</ele><time>2026-04-29T17:42:49.01Z</time></trkpt><trkpt lat="42.773012232134704" lon="11.139836878414435"><ele>14.166666666666668</ele><time>2026-04-29T17:42:50.01Z</time></trkpt><trkpt lat="42.77293792223986" lon="11.139820326936313"><ele>14.0</ele><time>2026-04-29T17:42:51.01Z</time></trkpt><trkpt lat="42.77285541028206" lon="11.139785949240258"><ele>14.0</ele><time>2026-04-29T17:42:52.01Z</time></trkpt><trkpt lat="42.772756457721776" lon="11.13974889103979"><ele>14.0</ele><time>2026-04-29T17:42:53.01Z</time></trkpt><trkpt lat="42.77264574852239" lon="11.139700887916456"><ele>14.0</ele><time>2026-04-29T17:42:54.01Z</time></trkpt><trkpt lat="42.77251372459776" lon="11.139657869261137"><ele>14.0</ele><time>2026-04-29T17:42:55.01Z</time></trkpt><trkpt lat="42.77236593871874" lon="11.139609714752739"><ele>14.0</ele><time>2026-04-29T17:42:56.01Z</time></trkpt><trkpt lat="42.77220023093864" lon="11.139556313879787"><ele>14.0</ele><time>2026-04-29T17:42:57.01Z</time></trkpt><trkpt lat="42.77201637754012" lon="11.139517470693567"><ele>14.0</ele><time>2026-04-29T17:42:58.01Z</time></trkpt><trkpt lat="42.771824985090035" lon="11.139440832702537"><ele>14.0</ele><time>2026-04-29T17:42:59.01Z</time></trkpt><trkpt lat="42.77163658424685" lon="11.13936688903527"><ele>14.0</ele><time>2026-04-29T17:43:00.01Z</time></trkpt><trkpt lat="42.771446056261965" lon="11.139299075802715"><ele>14.0</ele><time>2026-04-29T17:43:01.01Z</time></trkpt><trkpt lat="42.77125175151561" lon="11.139233872205745"><ele>14.0</ele><time>2026-04-29T17:43:02.01Z</time></trkpt><trkpt lat="42.77106671471829" lon="11.139174143997385"><ele>14.0</ele><time>2026-04-29T17:43:03.01Z</time></trkpt><trkpt lat="42.77090143619389" lon="11.139119927174459"><ele>14.0</ele><time>2026-04-29T17:43:04.01Z</time></trkpt><trkpt lat="42.7707466373466" lon="11.1390700111549"><ele>14.0</ele><time>2026-04-29T17:43:05.01Z</time></trkpt><trkpt lat="42.77061530138981" lon="11.139022598423146"><ele>13.999999999999998</ele><time>2026-04-29T17:43:06.01Z</time></trkpt><trkpt lat="42.77049901395554" lon="11.138984873329862"><ele>13.999999999999998</ele><time>2026-04-29T17:43:07.01Z</time></trkpt><trkpt lat="42.770404854573066" lon="11.138972892269791"><ele>14.0</ele><time>2026-04-29T17:43:08.01Z</time></trkpt><trkpt lat="42.77033308512867" lon="11.13900135850043"><ele>14.0</ele><time>2026-04-29T17:43:09.01Z</time></trkpt><trkpt lat="42.770279782932526" lon="11.139086569059947"><ele>13.799999999999999</ele><time>2026-04-29T17:43:10.01Z</time></trkpt><trkpt lat="42.77024985666519" lon="11.139204272727524"><ele>13.599999999999998</ele><time>2026-04-29T17:43:11.01Z</time></trkpt><trkpt lat="42.77022277719691" lon="11.139341585022194"><ele>13.4</ele><time>2026-04-29T17:43:12.01Z</time></trkpt><trkpt lat="42.77019676032286" lon="11.139482633816943"><ele>13.2</ele><time>2026-04-29T17:43:13.01Z</time></trkpt><trkpt lat="42.77016624769001" lon="11.13962809110717"><ele>13.0</ele><time>2026-04-29T17:43:14.01Z</time></trkpt><trkpt lat="42.770137279541075" lon="11.139771207452172"><ele>13.600000000000001</ele><time>2026-04-29T17:43:15.01Z</time></trkpt><trkpt lat="42.77010673170703" lon="11.1398968834633"><ele>14.200000000000001</ele><time>2026-04-29T17:43:16.01Z</time></trkpt><trkpt lat="42.77007653507405" lon="11.140015239459606"><ele>14.8</ele><time>2026-04-29T17:43:17.01Z</time></trkpt><trkpt lat="42.770048140273005" lon="11.140139014960825"><ele>15.4</ele><time>2026-04-29T17:43:18.01Z</time></trkpt><trkpt lat="42.77002074899472" lon="11.140266190488362"><ele>16.0</ele><time>2026-04-29T17:43:19.01Z</time></trkpt><trkpt lat="42.76999327271155" lon="11.140392679482094"><ele>15.999999999999998</ele><time>2026-04-29T17:43:20.01Z</time></trkpt><trkpt lat="42.76996686359068" lon="11.140517712770789"><ele>16.0</ele><time>2026-04-29T17:43:21.01Z</time></trkpt><trkpt lat="42.76994502734806" lon="11.14064189566109"><ele>16.0</ele><time>2026-04-29T17:43:22.01Z</time></trkpt><trkpt lat="42.7699311892329" lon="11.140763153974593"><ele>16.0</ele><time>2026-04-29T17:43:23.01Z</time></trkpt><trkpt lat="42.7699079312783" lon="11.140875638398622"><ele>15.999999999999998</ele><time>2026-04-29T17:43:24.01Z</time></trkpt><trkpt lat="42.76991198502898" lon="11.140980080004365"><ele>16.0</ele><time>2026-04-29T17:43:25.01Z</time></trkpt><trkpt lat="42.769896334269774" lon="11.141070131165602"><ele>15.999999999999998</ele><time>2026-04-29T17:43:26.01Z</time></trkpt><trkpt lat="42.76987453190817" lon="11.141165915544292"><ele>16.0</ele><time>2026-04-29T17:43:27.01Z</time></trkpt><trkpt lat="42.76984552102401" lon="11.141272698609432"><ele>16.0</ele><time>2026-04-29T17:43:28.01Z</time></trkpt><trkpt lat="42.76980801136073" lon="11.141379593175953"><ele>16.0</ele><time>2026-04-29T17:43:29.01Z</time></trkpt><trkpt lat="42.769749310818185" lon="11.141479508833475"><ele>15.999999999999998</ele><time>2026-04-29T17:43:30.01Z</time></trkpt><trkpt lat="42.76967379099025" lon="11.141566669943703"><ele>16.0</ele><time>2026-04-29T17:43:31.01Z</time></trkpt><trkpt lat="42.76958559933533" lon="11.141638637686903"><ele>15.8</ele><time>2026-04-29T17:43:32.01Z</time></trkpt><trkpt lat="42.76949159917009" lon="11.141702659762307"><ele>15.600000000000001</ele><time>2026-04-29T17:43:33.011Z</time></trkpt><trkpt lat="42.769392191503265" lon="11.14176696328844"><ele>15.4</ele><time>2026-04-29T17:43:34.011Z</time></trkpt><trkpt lat="42.76929761537718" lon="11.141826702148297"><ele>15.2</ele><time>2026-04-29T17:43:35.011Z</time></trkpt><trkpt lat="42.76920079499409" lon="11.14188994149794"><ele>15.0</ele><time>2026-04-29T17:43:36.011Z</time></trkpt><trkpt lat="42.7691036082869" lon="11.141958377696696"><ele>15.0</ele><time>2026-04-29T17:43:37.011Z</time></trkpt><trkpt lat="42.769002397014205" lon="11.142024196353487"><ele>15.0</ele><time>2026-04-29T17:43:38.011Z</time></trkpt><trkpt lat="42.76890865689874" lon="11.14208938871901"><ele>15.0</ele><time>2026-04-29T17:43:39.011Z</time></trkpt><trkpt lat="42.76881134094973" lon="11.142158470748013"><ele>15.0</ele><time>2026-04-29T17:43:40.011Z</time></trkpt><trkpt lat="42.76871571674194" lon="11.14222180546764"><ele>15.0</ele><time>2026-04-29T17:43:41.011Z</time></trkpt><trkpt lat="42.768620612141994" lon="11.142286096121394"><ele>14.833333333333334</ele><time>2026-04-29T17:43:42.011Z</time></trkpt><trkpt lat="42.7685247784335" lon="11.1423485645405"><ele>14.666666666666668</ele><time>2026-04-29T17:43:43.011Z</time></trkpt><trkpt lat="42.768434173748986" lon="11.142413990543346"><ele>14.5</ele><time>2026-04-29T17:43:44.011Z</time></trkpt><trkpt lat="42.76835039585008" lon="11.142471512011575"><ele>14.333333333333334</ele><time>2026-04-29T17:43:45.011Z</time></trkpt><trkpt lat="42.768279430898325" lon="11.14252209574982"><ele>14.166666666666668</ele><time>2026-04-29T17:43:46.011Z</time></trkpt><trkpt lat="42.768218692800524" lon="11.142557606943111"><ele>14.0</ele><time>2026-04-29T17:43:47.011Z</time></trkpt><trkpt lat="42.76812265034083" lon="11.14260114144621"><ele>14.000000000000002</ele><time>2026-04-29T17:43:49.011Z</time></trkpt><trkpt lat="42.76805419026751" lon="11.1426231940331"><ele>14.0</ele><time>2026-04-29T17:43:51.011Z</time></trkpt><trkpt lat="42.7679670080218" lon="11.142613597745868"><ele>14.0</ele><time>2026-04-29T17:43:53.011Z</time></trkpt><trkpt lat="42.76790251232394" lon="11.142575082033606"><ele>14.0</ele><time>2026-04-29T17:43:54.011Z</time></trkpt><trkpt lat="42.767858281184466" lon="11.142448594244215"><ele>14.000000000000002</ele><time>2026-04-29T17:43:55.011Z</time></trkpt><trkpt lat="42.767797220059045" lon="11.142314289739241"><ele>14.0</ele><time>2026-04-29T17:43:56.011Z</time></trkpt><trkpt lat="42.767710958194755" lon="11.142159801570056"><ele>13.0</ele><time>2026-04-29T17:43:57.011Z</time></trkpt><trkpt lat="42.76761367080071" lon="11.142002888291053"><ele>12.0</ele><time>2026-04-29T17:43:58.011Z</time></trkpt><trkpt lat="42.76749703151187" lon="11.141834266519112"><ele>11.0</ele><time>2026-04-29T17:43:59.011Z</time></trkpt><trkpt lat="42.767375435368756" lon="11.141659556508694"><ele>11.0</ele><time>2026-04-29T17:44:00.011Z</time></trkpt><trkpt lat="42.767242723218395" lon="11.141470361108905"><ele>11.0</ele><time>2026-04-29T17:44:01.011Z</time></trkpt><trkpt lat="42.76710056972779" lon="11.14127384852319"><ele>11.0</ele><time>2026-04-29T17:44:02.011Z</time></trkpt><trkpt lat="42.76693071736114" lon="11.14110266224623"><ele>10.5</ele><time>2026-04-29T17:44:03.011Z</time></trkpt><trkpt lat="42.76678327185312" lon="11.140871819895128"><ele>10.0</ele><time>2026-04-29T17:44:04.011Z</time></trkpt><trkpt lat="42.76660542173971" lon="11.14068345325478"><ele>10.0</ele><time>2026-04-29T17:44:05.011Z</time></trkpt><trkpt lat="42.76641134399777" lon="11.140510481005876"><ele>10.0</ele><time>2026-04-29T17:44:06.011Z</time></trkpt><trkpt lat="42.7662027096551" lon="11.140355338455786"><ele>10.0</ele><time>2026-04-29T17:44:07.011Z</time></trkpt><trkpt lat="42.76598350744847" lon="11.140207138340697"><ele>10.0</ele><time>2026-04-29T17:44:08.011Z</time></trkpt><trkpt lat="42.765758271667536" lon="11.140054001965634"><ele>10.0</ele><time>2026-04-29T17:44:09.011Z</time></trkpt><trkpt lat="42.765529058402" lon="11.139905941263516"><ele>10.0</ele><time>2026-04-29T17:44:10.011Z</time></trkpt><trkpt lat="42.7653036093108" lon="11.139756385972376"><ele>10.0</ele><time>2026-04-29T17:44:11.011Z</time></trkpt><trkpt lat="42.7650848342701" lon="11.139605100900665"><ele>10.0</ele><time>2026-04-29T17:44:12.011Z</time></trkpt><trkpt lat="42.764873032909584" lon="11.139455855185117"><ele>10.0</ele><time>2026-04-29T17:44:13.011Z</time></trkpt><trkpt lat="42.76467540141305" lon="11.139315157717224"><ele>10.0</ele><time>2026-04-29T17:44:14.011Z</time></trkpt><trkpt lat="42.764488402506956" lon="11.139191756783088"><ele>10.0</ele><time>2026-04-29T17:44:15.011Z</time></trkpt><trkpt lat="42.76431594581533" lon="11.13907496588332"><ele>9.333333333333334</ele><time>2026-04-29T17:44:16.011Z</time></trkpt><trkpt lat="42.76416054399945" lon="11.138964035350522"><ele>8.666666666666666</ele><time>2026-04-29T17:44:17.011Z</time></trkpt><trkpt lat="42.76401349106748" lon="11.138864348029923"><ele>8.0</ele><time>2026-04-29T17:44:18.011Z</time></trkpt><trkpt lat="42.76387319347397" lon="11.138765341552054"><ele>8.0</ele><time>2026-04-29T17:44:19.011Z</time></trkpt><trkpt lat="42.76374523372449" lon="11.138660757358416"><ele>8.0</ele><time>2026-04-29T17:44:20.011Z</time></trkpt><trkpt lat="42.76363626854292" lon="11.138541162123602"><ele>8.0</ele><time>2026-04-29T17:44:21.011Z</time></trkpt><trkpt lat="42.76354313083809" lon="11.13840101891895"><ele>8.0</ele><time>2026-04-29T17:44:22.011Z</time></trkpt><trkpt lat="42.76346352175569" lon="11.138241245596241"><ele>8.5</ele><time>2026-04-29T17:44:23.011Z</time></trkpt><trkpt lat="42.76339669374499" lon="11.13807190241367"><ele>9.0</ele><time>2026-04-29T17:44:24.011Z</time></trkpt><trkpt lat="42.763340271612535" lon="11.13788787261631"><ele>9.5</ele><time>2026-04-29T17:44:25.011Z</time></trkpt><trkpt lat="42.76330023008066" lon="11.13769694009862"><ele>10.0</ele><time>2026-04-29T17:44:26.011Z</time></trkpt><trkpt lat="42.7632722716943" lon="11.13749470322407"><ele>10.0</ele><time>2026-04-29T17:44:27.011Z</time></trkpt><trkpt lat="42.763238686705954" lon="11.137293160267006"><ele>10.0</ele><time>2026-04-29T17:44:28.011Z</time></trkpt><trkpt lat="42.76319941411341" lon="11.137102364958299"><ele>10.0</ele><time>2026-04-29T17:44:29.011Z</time></trkpt><trkpt lat="42.76316805074122" lon="11.136916486261157"><ele>10.0</ele><time>2026-04-29T17:44:30.011Z</time></trkpt><trkpt lat="42.76313505491172" lon="11.13674110893601"><ele>10.0</ele><time>2026-04-29T17:44:31.011Z</time></trkpt><trkpt lat="42.763108068396974" lon="11.136572413888612"><ele>10.0</ele><time>2026-04-29T17:44:32.011Z</time></trkpt><trkpt lat="42.76307387264763" lon="11.136384109551996"><ele>10.0</ele><time>2026-04-29T17:44:33.011Z</time></trkpt><trkpt lat="42.763032823739344" lon="11.136186405590196"><ele>10.0</ele><time>2026-04-29T17:44:34.011Z</time></trkpt><trkpt lat="42.7629940421394" lon="11.135987379300172"><ele>9.75</ele><time>2026-04-29T17:44:35.011Z</time></trkpt><trkpt lat="42.762961547399755" lon="11.13578978766493"><ele>9.5</ele><time>2026-04-29T17:44:36.011Z</time></trkpt><trkpt lat="42.7629328412079" lon="11.135589284042757"><ele>9.25</ele><time>2026-04-29T17:44:37.011Z</time></trkpt><trkpt lat="42.76291365846761" lon="11.135402113153162"><ele>9.0</ele><time>2026-04-29T17:44:38.011Z</time></trkpt><trkpt lat="42.76290033863636" lon="11.135240482925076"><ele>9.5</ele><time>2026-04-29T17:44:39.011Z</time></trkpt><trkpt lat="42.76288653547423" lon="11.135079131589295"><ele>10.0</ele><time>2026-04-29T17:44:40.011Z</time></trkpt><trkpt lat="42.76287740882584" lon="11.134904479776091"><ele>10.5</ele><time>2026-04-29T17:44:41.011Z</time></trkpt><trkpt lat="42.76286034276147" lon="11.134722241324276"><ele>11.0</ele><time>2026-04-29T17:44:42.011Z</time></trkpt><trkpt lat="42.76284909708599" lon="11.134546455529426"><ele>11.0</ele><time>2026-04-29T17:44:43.011Z</time></trkpt><trkpt lat="42.7628343197643" lon="11.13438374519316"><ele>11.0</ele><time>2026-04-29T17:44:44.011Z</time></trkpt><trkpt lat="42.7628224960857" lon="11.134225476445419"><ele>11.0</ele><time>2026-04-29T17:44:45.011Z</time></trkpt><trkpt lat="42.76281188245195" lon="11.134076646064859"><ele>11.0</ele><time>2026-04-29T17:44:46.011Z</time></trkpt><trkpt lat="42.762804868299014" lon="11.133931878749937"><ele>10.8</ele><time>2026-04-29T17:44:47.011Z</time></trkpt><trkpt lat="42.762793825212725" lon="11.13379777542804"><ele>10.600000000000001</ele><time>2026-04-29T17:44:48.011Z</time></trkpt><trkpt lat="42.76278886514662" lon="11.133669919910862"><ele>10.4</ele><time>2026-04-29T17:44:49.011Z</time></trkpt><trkpt lat="42.76277991148588" lon="11.133539122047544"><ele>10.2</ele><time>2026-04-29T17:44:50.011Z</time></trkpt><trkpt lat="42.76277261060355" lon="11.13340502270473"><ele>10.0</ele><time>2026-04-29T17:44:51.011Z</time></trkpt><trkpt lat="42.76276920683155" lon="11.13328156506123"><ele>10.0</ele><time>2026-04-29T17:44:52.011Z</time></trkpt><trkpt lat="42.762784618981364" lon="11.133174951178727"><ele>10.0</ele><time>2026-04-29T17:44:53.011Z</time></trkpt><trkpt lat="42.76281492986455" lon="11.133096606346456"><ele>10.0</ele><time>2026-04-29T17:44:54.011Z</time></trkpt><trkpt lat="42.76289887381759" lon="11.132978288757808"><ele>10.0</ele><time>2026-04-29T17:44:56.012Z</time></trkpt><trkpt lat="42.76293444060967" lon="11.132849522670444"><ele>10.0</ele><time>2026-04-29T17:44:58.012Z</time></trkpt><trkpt lat="42.762886017412285" lon="11.132743373229644"><ele>10.0</ele><time>2026-04-29T17:45:00.012Z</time></trkpt><trkpt lat="42.76280403806601" lon="11.132720933998918"><ele>10.0</ele><time>2026-04-29T17:45:02.012Z</time></trkpt><trkpt lat="42.762729964011434" lon="11.132769667192049"><ele>10.0</ele><time>2026-04-29T17:45:04.012Z</time></trkpt><trkpt lat="42.762615221716814" lon="11.132831975062986"><ele>10.0</ele><time>2026-04-29T17:45:06.012Z</time></trkpt><trkpt lat="42.76253742672243" lon="11.132849999827332"><ele>10.0</ele><time>2026-04-29T17:45:07.012Z</time></trkpt><trkpt lat="42.762471207530865" lon="11.132863979949725"><ele>10.0</ele><time>2026-04-29T17:45:08.012Z</time></trkpt><trkpt lat="42.76237808707237" lon="11.13292594714855"><ele>10.2</ele><time>2026-04-29T17:45:10.012Z</time></trkpt><trkpt lat="42.7623516073483" lon="11.133040079632678"><ele>10.4</ele><time>2026-04-29T17:45:12.012Z</time></trkpt><trkpt lat="42.76238847552972" lon="11.133138762834124"><ele>10.600000000000001</ele><time>2026-04-29T17:45:15.012Z</time></trkpt><trkpt lat="42.762330424496014" lon="11.132954575820966"><ele>10.8</ele><time>2026-04-29T17:47:41.013Z</time></trkpt><trkpt lat="42.76235466354058" lon="11.133099798232633"><ele>11.0</ele><time>2026-04-29T17:47:43.014Z</time></trkpt><trkpt lat="42.762417717085384" lon="11.133035538625382"><ele>11.0</ele><time>2026-04-29T17:49:11.015Z</time></trkpt><trkpt lat="42.76249036640566" lon="11.133037656378232"><ele>11.0</ele><time>2026-04-29T17:49:13.015Z</time></trkpt><trkpt lat="42.762382740893784" lon="11.13296618012557"><ele>11.0</ele><time>2026-04-29T17:49:14.015Z</time></trkpt><trkpt lat="42.76238475608043" lon="11.133107423435257"><ele>11.0</ele><time>2026-04-29T17:49:17.015Z</time></trkpt><trkpt lat="42.76239780857045" lon="11.133201642263543"><ele>11.0</ele><time>2026-04-29T17:49:18.015Z</time></trkpt><trkpt lat="42.76241201477391" lon="11.13330418911454"><ele>11.0</ele><time>2026-04-29T17:49:19.015Z</time></trkpt><trkpt lat="42.76242709915213" lon="11.133413075045505"><ele>10.666666666666666</ele><time>2026-04-29T17:49:20.015Z</time></trkpt><trkpt lat="42.76244394432496" lon="11.13353467142835"><ele>10.333333333333334</ele><time>2026-04-29T17:49:21.015Z</time></trkpt><trkpt lat="42.76273029158964" lon="11.133595677501205"><ele>10.0</ele><time>2026-04-29T17:49:22.015Z</time></trkpt><trkpt lat="42.7627418314743" lon="11.133736050564806"><ele>10.0</ele><time>2026-04-29T17:49:23.015Z</time></trkpt><trkpt lat="42.7627525062337" lon="11.133884848666739"><ele>10.0</ele><time>2026-04-29T17:49:24.015Z</time></trkpt><trkpt lat="42.762764887351636" lon="11.13403532274061"><ele>10.0</ele><time>2026-04-29T17:49:25.029Z</time></trkpt><trkpt lat="42.762780472547504" lon="11.134189721323542"><ele>10.0</ele><time>2026-04-29T17:49:26.029Z</time></trkpt><trkpt lat="42.76279084603441" lon="11.134345998034814"><ele>10.25</ele><time>2026-04-29T17:49:27.029Z</time></trkpt><trkpt lat="42.76280189771581" lon="11.134501579980252"><ele>10.5</ele><time>2026-04-29T17:49:28.029Z</time></trkpt><trkpt lat="42.7628151205225" lon="11.134651746876552"><ele>10.75</ele><time>2026-04-29T17:49:29.029Z</time></trkpt><trkpt lat="42.76282740852028" lon="11.134809408506099"><ele>11.0</ele><time>2026-04-29T17:49:30.029Z</time></trkpt><trkpt lat="42.76283824772338" lon="11.134971599726837"><ele>11.0</ele><time>2026-04-29T17:49:31.029Z</time></trkpt><trkpt lat="42.76285194979245" lon="11.13513845791503"><ele>11.0</ele><time>2026-04-29T17:49:32.029Z</time></trkpt><trkpt lat="42.76286632036594" lon="11.135299279480424"><ele>11.0</ele><time>2026-04-29T17:49:33.029Z</time></trkpt><trkpt lat="42.762882850461594" lon="11.135452052876209"><ele>11.0</ele><time>2026-04-29T17:49:34.029Z</time></trkpt><trkpt lat="42.76289985379414" lon="11.135603585210431"><ele>10.5</ele><time>2026-04-29T17:49:35.029Z</time></trkpt><trkpt lat="42.76292019735633" lon="11.13576474906929"><ele>10.0</ele><time>2026-04-29T17:49:36.03Z</time></trkpt><trkpt lat="42.7629492236611" lon="11.13592877374244"><ele>9.5</ele><time>2026-04-29T17:49:37.03Z</time></trkpt><trkpt lat="42.76298116524406" lon="11.136104022271997"><ele>9.0</ele><time>2026-04-29T17:49:38.03Z</time></trkpt><trkpt lat="42.763015169606994" lon="11.136286074168588"><ele>9.0</ele><time>2026-04-29T17:49:39.03Z</time></trkpt><trkpt lat="42.76305218603418" lon="11.136473168755375"><ele>9.0</ele><time>2026-04-29T17:49:40.03Z</time></trkpt><trkpt lat="42.763087526955275" lon="11.136661198188733"><ele>9.0</ele><time>2026-04-29T17:49:41.03Z</time></trkpt><trkpt lat="42.7631208587678" lon="11.1368471098694"><ele>9.0</ele><time>2026-04-29T17:49:42.03Z</time></trkpt><trkpt lat="42.76315575274817" lon="11.13704457070499"><ele>9.333333333333334</ele><time>2026-04-29T17:49:43.03Z</time></trkpt><trkpt lat="42.76319468164268" lon="11.137247771936657"><ele>9.666666666666668</ele><time>2026-04-29T17:49:44.03Z</time></trkpt><trkpt lat="42.7632352040766" lon="11.137455767351625"><ele>10.0</ele><time>2026-04-29T17:49:45.03Z</time></trkpt><trkpt lat="42.76325787866452" lon="11.137675666347146"><ele>10.0</ele><time>2026-04-29T17:49:46.03Z</time></trkpt><trkpt lat="42.76330090387974" lon="11.137876337853541"><ele>10.0</ele><time>2026-04-29T17:49:47.03Z</time></trkpt><trkpt lat="42.763342204299676" lon="11.138066757330028"><ele>10.0</ele><time>2026-04-29T17:49:48.03Z</time></trkpt><trkpt lat="42.7633932736781" lon="11.138246224858424"><ele>10.0</ele><time>2026-04-29T17:49:49.03Z</time></trkpt><trkpt lat="42.763465576533825" lon="11.138414624622117"><ele>9.333333333333334</ele><time>2026-04-29T17:49:50.03Z</time></trkpt><trkpt lat="42.763558312474416" lon="11.138570349361169"><ele>8.666666666666666</ele><time>2026-04-29T17:49:51.03Z</time></trkpt><trkpt lat="42.763673125185846" lon="11.13871479549224"><ele>8.0</ele><time>2026-04-29T17:49:52.03Z</time></trkpt><trkpt lat="42.76380399997224" lon="11.138842261454469"><ele>8.0</ele><time>2026-04-29T17:49:53.03Z</time></trkpt><trkpt lat="42.763952163715444" lon="11.138950356553126"><ele>8.0</ele><time>2026-04-29T17:49:54.03Z</time></trkpt><trkpt lat="42.76411650413599" lon="11.139044714008715"><ele>8.0</ele><time>2026-04-29T17:49:55.03Z</time></trkpt><trkpt lat="42.76428455975623" lon="11.139140312468811"><ele>8.666666666666666</ele><time>2026-04-29T17:49:56.03Z</time></trkpt><trkpt lat="42.764456288693026" lon="11.139245333855156"><ele>9.333333333333334</ele><time>2026-04-29T17:49:57.03Z</time></trkpt><trkpt lat="42.7646292866691" lon="11.139364061863787"><ele>10.0</ele><time>2026-04-29T17:49:58.03Z</time></trkpt><trkpt lat="42.76480159970526" lon="11.139481033978052"><ele>10.0</ele><time>2026-04-29T17:49:59.03Z</time></trkpt><trkpt lat="42.76497542831388" lon="11.139599129325308"><ele>10.0</ele><time>2026-04-29T17:50:00.03Z</time></trkpt><trkpt lat="42.76514527445544" lon="11.139712515813395"><ele>10.0</ele><time>2026-04-29T17:50:01.03Z</time></trkpt><trkpt lat="42.765303980361054" lon="11.139817549368919"><ele>10.0</ele><time>2026-04-29T17:50:02.03Z</time></trkpt><trkpt lat="42.76545722867751" lon="11.13992136699994"><ele>10.0</ele><time>2026-04-29T17:50:03.03Z</time></trkpt><trkpt lat="42.765597208047026" lon="11.14001710817204"><ele>10.0</ele><time>2026-04-29T17:50:04.03Z</time></trkpt><trkpt lat="42.76573649760141" lon="11.140110720865453"><ele>10.0</ele><time>2026-04-29T17:50:05.03Z</time></trkpt><trkpt lat="42.76587418459594" lon="11.140200292948105"><ele>10.0</ele><time>2026-04-29T17:50:06.03Z</time></trkpt><trkpt lat="42.76600708447067" lon="11.140290696085733"><ele>10.0</ele><time>2026-04-29T17:50:07.03Z</time></trkpt><trkpt lat="42.766136709359124" lon="11.140379909741032"><ele>10.0</ele><time>2026-04-29T17:50:08.03Z</time></trkpt><trkpt lat="42.76626268807968" lon="11.14047061193902"><ele>10.0</ele><time>2026-04-29T17:50:09.03Z</time></trkpt><trkpt lat="42.76638530572962" lon="11.140565246798507"><ele>10.0</ele><time>2026-04-29T17:50:10.03Z</time></trkpt><trkpt lat="42.76650871043801" lon="11.140670182136574"><ele>10.0</ele><time>2026-04-29T17:50:11.03Z</time></trkpt><trkpt lat="42.76663633207581" lon="11.140790134425227"><ele>10.0</ele><time>2026-04-29T17:50:12.032Z</time></trkpt><trkpt lat="42.76675988449623" lon="11.14092801391855"><ele>10.333333333333334</ele><time>2026-04-29T17:50:13.031Z</time></trkpt><trkpt lat="42.766877095285196" lon="11.141080356592177"><ele>10.666666666666666</ele><time>2026-04-29T17:50:14.031Z</time></trkpt><trkpt lat="42.76698779352314" lon="11.141246440771367"><ele>11.0</ele><time>2026-04-29T17:50:15.031Z</time></trkpt><trkpt lat="42.76708639014416" lon="11.141423538515392"><ele>11.0</ele><time>2026-04-29T17:50:16.031Z</time></trkpt><trkpt lat="42.76717275530013" lon="11.141608861768606"><ele>11.0</ele><time>2026-04-29T17:50:17.031Z</time></trkpt><trkpt lat="42.76724909489874" lon="11.141804424154431"><ele>11.0</ele><time>2026-04-29T17:50:18.032Z</time></trkpt><trkpt lat="42.76731255558783" lon="11.14200801935835"><ele>11.0</ele><time>2026-04-29T17:50:19.031Z</time></trkpt><trkpt lat="42.76736613615152" lon="11.142216101363832"><ele>11.0</ele><time>2026-04-29T17:50:20.031Z</time></trkpt><trkpt lat="42.76740452027582" lon="11.142428605285016"><ele>11.0</ele><time>2026-04-29T17:50:21.031Z</time></trkpt><trkpt lat="42.76743283484215" lon="11.142640507477148"><ele>10.666666666666666</ele><time>2026-04-29T17:50:22.032Z</time></trkpt><trkpt lat="42.767448936639454" lon="11.142859217928015"><ele>10.333333333333334</ele><time>2026-04-29T17:50:23.032Z</time></trkpt><trkpt lat="42.767452987383734" lon="11.143065547447563"><ele>10.0</ele><time>2026-04-29T17:50:24.032Z</time></trkpt><trkpt lat="42.7674491207155" lon="11.143262219385575"><ele>11.5</ele><time>2026-04-29T17:50:25.032Z</time></trkpt><trkpt lat="42.76743944834415" lon="11.143461326594984"><ele>13.0</ele><time>2026-04-29T17:50:26.032Z</time></trkpt><trkpt lat="42.76742882773843" lon="11.14365650041238"><ele>14.5</ele><time>2026-04-29T17:50:27.032Z</time></trkpt><trkpt lat="42.76741335998768" lon="11.14383779979427"><ele>16.0</ele><time>2026-04-29T17:50:28.032Z</time></trkpt><trkpt lat="42.767395807768835" lon="11.144018036366932"><ele>15.4</ele><time>2026-04-29T17:50:29.032Z</time></trkpt><trkpt lat="42.76737547247451" lon="11.144177652107619"><ele>14.8</ele><time>2026-04-29T17:50:30.032Z</time></trkpt><trkpt lat="42.76735353169781" lon="11.144329265608901"><ele>14.200000000000001</ele><time>2026-04-29T17:50:31.032Z</time></trkpt><trkpt lat="42.76733464027624" lon="11.144472942609458"><ele>13.600000000000001</ele><time>2026-04-29T17:50:32.032Z</time></trkpt><trkpt lat="42.76731769866568" lon="11.144608460104571"><ele>13.0</ele><time>2026-04-29T17:50:33.032Z</time></trkpt><trkpt lat="42.76730568058395" lon="11.14474140460249"><ele>12.999999999999998</ele><time>2026-04-29T17:50:34.032Z</time></trkpt><trkpt lat="42.76731389081263" lon="11.1448677531872"><ele>13.0</ele><time>2026-04-29T17:50:35.032Z</time></trkpt><trkpt lat="42.76734992289073" lon="11.144977211639707"><ele>13.0</ele><time>2026-04-29T17:50:36.032Z</time></trkpt><trkpt lat="42.76740946726791" lon="11.145048256832954"><ele>13.0</ele><time>2026-04-29T17:50:37.032Z</time></trkpt><trkpt lat="42.767482242745665" lon="11.145078535092367"><ele>12.999999999999998</ele><time>2026-04-29T17:50:38.032Z</time></trkpt><trkpt lat="42.76755090868808" lon="11.145088525106077"><ele>13.0</ele><time>2026-04-29T17:50:39.032Z</time></trkpt><trkpt lat="42.76761629888529" lon="11.145074120272806"><ele>13.0</ele><time>2026-04-29T17:50:40.032Z</time></trkpt><trkpt lat="42.76767673391741" lon="11.145029217035615"><ele>13.0</ele><time>2026-04-29T17:50:41.032Z</time></trkpt><trkpt lat="42.76773024579269" lon="11.144960997318956"><ele>13.0</ele><time>2026-04-29T17:50:42.032Z</time></trkpt><trkpt lat="42.767769908666075" lon="11.144877101354162"><ele>13.0</ele><time>2026-04-29T17:50:43.032Z</time></trkpt><trkpt lat="42.767809788266675" lon="11.144791661879491"><ele>13.0</ele><time>2026-04-29T17:50:44.032Z</time></trkpt><trkpt lat="42.767868580937474" lon="11.144730927150974"><ele>13.0</ele><time>2026-04-29T17:50:45.032Z</time></trkpt><trkpt lat="42.76794966587756" lon="11.144703418562445"><ele>13.0</ele><time>2026-04-29T17:50:46.032Z</time></trkpt><trkpt lat="42.76804526735605" lon="11.144702688467596"><ele>13.0</ele><time>2026-04-29T17:50:47.032Z</time></trkpt><trkpt lat="42.76814507854262" lon="11.144734444461932"><ele>13.0</ele><time>2026-04-29T17:50:48.032Z</time></trkpt><trkpt lat="42.768244837079166" lon="11.144768457800598"><ele>13.0</ele><time>2026-04-29T17:50:49.032Z</time></trkpt><trkpt lat="42.76833693407897" lon="11.144882595704255"><ele>13.0</ele><time>2026-04-29T17:50:50.032Z</time></trkpt><trkpt lat="42.76844092088802" lon="11.144961406619183"><ele>13.0</ele><time>2026-04-29T17:50:51.032Z</time></trkpt><trkpt lat="42.768553357262185" lon="11.145036859987272"><ele>13.0</ele><time>2026-04-29T17:50:52.032Z</time></trkpt><trkpt lat="42.76867685104104" lon="11.1451127427415"><ele>13.0</ele><time>2026-04-29T17:50:53.032Z</time></trkpt><trkpt lat="42.76880581093287" lon="11.145187211516683"><ele>13.0</ele><time>2026-04-29T17:50:54.032Z</time></trkpt><trkpt lat="42.76894351431558" lon="11.145250041580251"><ele>13.0</ele><time>2026-04-29T17:50:55.032Z</time></trkpt><trkpt lat="42.769081857554525" lon="11.145301461360798"><ele>13.0</ele><time>2026-04-29T17:50:56.032Z</time></trkpt><trkpt lat="42.76922815578855" lon="11.145350441224927"><ele>13.0</ele><time>2026-04-29T17:50:57.032Z</time></trkpt><trkpt lat="42.769373109868944" lon="11.145397617677638"><ele>13.0</ele><time>2026-04-29T17:50:58.032Z</time></trkpt><trkpt lat="42.769504954835085" lon="11.145439716808417"><ele>13.0</ele><time>2026-04-29T17:50:59.032Z</time></trkpt><trkpt lat="42.76963544556415" lon="11.145480344256358"><ele>13.75</ele><time>2026-04-29T17:51:00.032Z</time></trkpt><trkpt lat="42.76977081756603" lon="11.145526763611878"><ele>14.5</ele><time>2026-04-29T17:51:01.032Z</time></trkpt><trkpt lat="42.7699159474499" lon="11.145577877060195"><ele>15.25</ele><time>2026-04-29T17:51:02.033Z</time></trkpt><trkpt lat="42.77006688335568" lon="11.14563654160915"><ele>16.0</ele><time>2026-04-29T17:51:03.033Z</time></trkpt><trkpt lat="42.77021868166349" lon="11.145701180819971"><ele>16.0</ele><time>2026-04-29T17:51:04.033Z</time></trkpt><trkpt lat="42.770378171058766" lon="11.14576530340785"><ele>16.0</ele><time>2026-04-29T17:51:05.033Z</time></trkpt><trkpt lat="42.770542642034485" lon="11.145824095061853"><ele>16.0</ele><time>2026-04-29T17:51:06.033Z</time></trkpt><trkpt lat="42.770712491872544" lon="11.145878808397061"><ele>16.0</ele><time>2026-04-29T17:51:07.033Z</time></trkpt><trkpt lat="42.77086400047851" lon="11.14592935035104"><ele>16.0</ele><time>2026-04-29T17:51:08.033Z</time></trkpt><trkpt lat="42.77100226275457" lon="11.145977400585467"><ele>16.0</ele><time>2026-04-29T17:51:09.033Z</time></trkpt><trkpt lat="42.771134649817114" lon="11.146019302456693"><ele>16.0</ele><time>2026-04-29T17:51:10.033Z</time></trkpt><trkpt lat="42.771260369739515" lon="11.146057236209508"><ele>15.75</ele><time>2026-04-29T17:51:11.033Z</time></trkpt><trkpt lat="42.77138162657307" lon="11.146097707297141"><ele>15.5</ele><time>2026-04-29T17:51:12.033Z</time></trkpt><trkpt lat="42.77150624052979" lon="11.146139448194754"><ele>15.25</ele><time>2026-04-29T17:51:13.033Z</time></trkpt><trkpt lat="42.771638579508945" lon="11.146175565835238"><ele>15.0</ele><time>2026-04-29T17:51:14.033Z</time></trkpt><trkpt lat="42.77177814474086" lon="11.146189926019217"><ele>14.5</ele><time>2026-04-29T17:51:15.033Z</time></trkpt><trkpt lat="42.77192431359445" lon="11.146169246231274"><ele>14.0</ele><time>2026-04-29T17:51:16.033Z</time></trkpt><trkpt lat="42.77206633314812" lon="11.146113974265074"><ele>13.5</ele><time>2026-04-29T17:51:17.033Z</time></trkpt><trkpt lat="42.77220208098343" lon="11.146032896694448"><ele>13.0</ele><time>2026-04-29T17:51:18.033Z</time></trkpt><trkpt lat="42.77232384297351" lon="11.145913787442769"><ele>13.0</ele><time>2026-04-29T17:51:19.033Z</time></trkpt><trkpt lat="42.772400609258305" lon="11.14572909319898"><ele>13.0</ele><time>2026-04-29T17:51:20.033Z</time></trkpt><trkpt lat="42.77250401902232" lon="11.145561516993723"><ele>13.0</ele><time>2026-04-29T17:51:21.033Z</time></trkpt><trkpt lat="42.77259017148407" lon="11.145371432502666"><ele>14.0</ele><time>2026-04-29T17:51:22.033Z</time></trkpt><trkpt lat="42.77268142113161" lon="11.145182998369076"><ele>15.0</ele><time>2026-04-29T17:51:23.033Z</time></trkpt><trkpt lat="42.77277552218849" lon="11.145000783829701"><ele>16.0</ele><time>2026-04-29T17:51:24.033Z</time></trkpt><trkpt lat="42.77286696454605" lon="11.144824706432955"><ele>17.0</ele><time>2026-04-29T17:51:25.034Z</time></trkpt><trkpt lat="42.77296085942571" lon="11.14465410368324"><ele>18.0</ele><time>2026-04-29T17:51:26.034Z</time></trkpt><trkpt lat="42.77306265821257" lon="11.14450123781646"><ele>19.0</ele><time>2026-04-29T17:51:27.034Z</time></trkpt><trkpt lat="42.773177987482825" lon="11.144372098753017"><ele>19.0</ele><time>2026-04-29T17:51:28.034Z</time></trkpt><trkpt lat="42.773306714407" lon="11.144263246601765"><ele>19.0</ele><time>2026-04-29T17:51:29.034Z</time></trkpt><trkpt lat="42.773452352645" lon="11.144186250961527"><ele>19.0</ele><time>2026-04-29T17:51:30.034Z</time></trkpt><trkpt lat="42.77360947800842" lon="11.14414815118282"><ele>19.0</ele><time>2026-04-29T17:51:31.034Z</time></trkpt><trkpt lat="42.77376993962976" lon="11.144146569346299"><ele>19.0</ele><time>2026-04-29T17:51:32.034Z</time></trkpt><trkpt lat="42.77393478335277" lon="11.144160482873469"><ele>19.0</ele><time>2026-04-29T17:51:33.034Z</time></trkpt><trkpt lat="42.774100641849095" lon="11.14417934965737"><ele>19.0</ele><time>2026-04-29T17:51:34.034Z</time></trkpt><trkpt lat="42.77426278058011" lon="11.144186813610126"><ele>19.0</ele><time>2026-04-29T17:51:35.034Z</time></trkpt><trkpt lat="42.77443315121378" lon="11.144193676623935"><ele>19.0</ele><time>2026-04-29T17:51:36.034Z</time></trkpt><trkpt lat="42.77460645658566" lon="11.144202855709773"><ele>18.666666666666664</ele><time>2026-04-29T17:51:37.034Z</time></trkpt><trkpt lat="42.774785857393375" lon="11.144209759723834"><ele>18.333333333333332</ele><time>2026-04-29T17:51:38.034Z</time></trkpt><trkpt lat="42.77497412697889" lon="11.144217616069072"><ele>18.0</ele><time>2026-04-29T17:51:39.034Z</time></trkpt><trkpt lat="42.7751719093189" lon="11.14423131678652"><ele>17.666666666666668</ele><time>2026-04-29T17:51:40.034Z</time></trkpt><trkpt lat="42.77537146432178" lon="11.144246489594073"><ele>17.333333333333336</ele><time>2026-04-29T17:51:41.034Z</time></trkpt><trkpt lat="42.775570468807636" lon="11.144259426335147"><ele>17.0</ele><time>2026-04-29T17:51:42.034Z</time></trkpt><trkpt lat="42.77577470208576" lon="11.144273845304895"><ele>17.0</ele><time>2026-04-29T17:51:43.034Z</time></trkpt><trkpt lat="42.77598164864513" lon="11.144289418970914"><ele>17.0</ele><time>2026-04-29T17:51:44.034Z</time></trkpt><trkpt lat="42.77619635262138" lon="11.144303634895266"><ele>17.0</ele><time>2026-04-29T17:51:45.034Z</time></trkpt><trkpt lat="42.776419867948086" lon="11.144316586706067"><ele>16.5</ele><time>2026-04-29T17:51:46.034Z</time></trkpt><trkpt lat="42.77665051200071" lon="11.144329675900616"><ele>16.0</ele><time>2026-04-29T17:51:47.034Z</time></trkpt><trkpt lat="42.776881417450745" lon="11.144340772648496"><ele>15.0</ele><time>2026-04-29T17:51:48.034Z</time></trkpt><trkpt lat="42.777117457740935" lon="11.144348915899197"><ele>14.0</ele><time>2026-04-29T17:51:49.034Z</time></trkpt><trkpt lat="42.77735968222085" lon="11.144358036528098"><ele>14.0</ele><time>2026-04-29T17:51:50.034Z</time></trkpt><trkpt lat="42.77760226143824" lon="11.144375335751299"><ele>14.0</ele><time>2026-04-29T17:51:51.034Z</time></trkpt><trkpt lat="42.7778493594182" lon="11.144393453601966"><ele>13.0</ele><time>2026-04-29T17:51:52.034Z</time></trkpt><trkpt lat="42.77810124039761" lon="11.144412570493884"><ele>12.0</ele><time>2026-04-29T17:51:53.034Z</time></trkpt><trkpt lat="42.77835898509043" lon="11.144432604806523"><ele>12.0</ele><time>2026-04-29T17:51:54.034Z</time></trkpt><trkpt lat="42.77861699915909" lon="11.144451748711282"><ele>12.0</ele><time>2026-04-29T17:51:55.034Z</time></trkpt><trkpt lat="42.77887902001091" lon="11.14447079735876"><ele>12.0</ele><time>2026-04-29T17:51:56.034Z</time></trkpt><trkpt lat="42.779144418630224" lon="11.144491005178923"><ele>12.0</ele><time>2026-04-29T17:51:57.034Z</time></trkpt><trkpt lat="42.77941029251993" lon="11.144510957951026"><ele>11.0</ele><time>2026-04-29T17:51:58.034Z</time></trkpt><trkpt lat="42.77967687034621" lon="11.144531063989612"><ele>10.0</ele><time>2026-04-29T17:51:59.034Z</time></trkpt><trkpt lat="42.77994267978077" lon="11.144549523722093"><ele>11.5</ele><time>2026-04-29T17:52:00.034Z</time></trkpt><trkpt lat="42.780206427638696" lon="11.144570123739287"><ele>13.0</ele><time>2026-04-29T17:52:01.034Z</time></trkpt><trkpt lat="42.78046779856846" lon="11.144591390277"><ele>13.0</ele><time>2026-04-29T17:52:02.034Z</time></trkpt><trkpt lat="42.78073133718019" lon="11.144611684366097"><ele>13.0</ele><time>2026-04-29T17:52:03.034Z</time></trkpt><trkpt lat="42.7809946987635" lon="11.144633186921611"><ele>13.5</ele><time>2026-04-29T17:52:04.034Z</time></trkpt><trkpt lat="42.781259244175935" lon="11.144655790012983"><ele>14.0</ele><time>2026-04-29T17:52:05.034Z</time></trkpt><trkpt lat="42.78152050479552" lon="11.14467750993991"><ele>14.0</ele><time>2026-04-29T17:52:06.034Z</time></trkpt><trkpt lat="42.78178258511759" lon="11.144699809631732"><ele>14.0</ele><time>2026-04-29T17:52:07.034Z</time></trkpt><trkpt lat="42.78204302976846" lon="11.14471886703071"><ele>15.5</ele><time>2026-04-29T17:52:08.034Z</time></trkpt><trkpt lat="42.78230377905838" lon="11.144735132373524"><ele>17.0</ele><time>2026-04-29T17:52:09.034Z</time></trkpt><trkpt lat="42.78256665789729" lon="11.144748127466752"><ele>18.0</ele><time>2026-04-29T17:52:10.034Z</time></trkpt><trkpt lat="42.78283004448181" lon="11.14474960406222"><ele>19.0</ele><time>2026-04-29T17:52:11.034Z</time></trkpt><trkpt lat="42.783092758724734" lon="11.144743687558861"><ele>19.0</ele><time>2026-04-29T17:52:12.034Z</time></trkpt><trkpt lat="42.78335343813318" lon="11.144730381284171"><ele>19.0</ele><time>2026-04-29T17:52:13.034Z</time></trkpt><trkpt lat="42.7836165461736" lon="11.144704166037107"><ele>17.0</ele><time>2026-04-29T17:52:14.034Z</time></trkpt><trkpt lat="42.783876084850625" lon="11.144663774674825"><ele>15.0</ele><time>2026-04-29T17:52:15.034Z</time></trkpt><trkpt lat="42.78413743191384" lon="11.144614585970993"><ele>14.0</ele><time>2026-04-29T17:52:16.034Z</time></trkpt><trkpt lat="42.78439749932459" lon="11.144551043182698"><ele>13.0</ele><time>2026-04-29T17:52:17.034Z</time></trkpt><trkpt lat="42.78466445222763" lon="11.144469433222403"><ele>13.0</ele><time>2026-04-29T17:52:18.036Z</time></trkpt><trkpt lat="42.78493804303808" lon="11.144369819011022"><ele>13.0</ele><time>2026-04-29T17:52:19.035Z</time></trkpt><trkpt lat="42.78521289934626" lon="11.144247539975577"><ele>13.0</ele><time>2026-04-29T17:52:20.035Z</time></trkpt><trkpt lat="42.785489212518264" lon="11.144108465581008"><ele>13.0</ele><time>2026-04-29T17:52:21.036Z</time></trkpt><trkpt lat="42.78577073424229" lon="11.143950922388546"><ele>13.0</ele><time>2026-04-29T17:52:22.036Z</time></trkpt><trkpt lat="42.78604212475335" lon="11.143785080760008"><ele>13.0</ele><time>2026-04-29T17:52:23.036Z</time></trkpt><trkpt lat="42.78630927638682" lon="11.14360987486925"><ele>13.0</ele><time>2026-04-29T17:52:24.036Z</time></trkpt><trkpt lat="42.78657235699863" lon="11.143421036526531"><ele>13.0</ele><time>2026-04-29T17:52:25.035Z</time></trkpt><trkpt lat="42.78683506104751" lon="11.143213824500787"><ele>13.0</ele><time>2026-04-29T17:52:26.035Z</time></trkpt><trkpt lat="42.7870935047884" lon="11.142991269613669"><ele>13.0</ele><time>2026-04-29T17:52:27.036Z</time></trkpt><trkpt lat="42.787339793222294" lon="11.142751478978242"><ele>13.0</ele><time>2026-04-29T17:52:28.036Z</time></trkpt><trkpt lat="42.78757460261599" lon="11.142497490507596"><ele>13.0</ele><time>2026-04-29T17:52:29.036Z</time></trkpt><trkpt lat="42.78780133942592" lon="11.142226994147538"><ele>14.0</ele><time>2026-04-29T17:52:30.035Z</time></trkpt><trkpt lat="42.78801914978225" lon="11.14194514669192"><ele>15.0</ele><time>2026-04-29T17:52:31.035Z</time></trkpt><trkpt lat="42.78822915890204" lon="11.141657308046854"><ele>15.5</ele><time>2026-04-29T17:52:32.035Z</time></trkpt><trkpt lat="42.78843761882152" lon="11.141357510595162"><ele>16.0</ele><time>2026-04-29T17:52:33.035Z</time></trkpt><trkpt lat="42.78864612769307" lon="11.141056798297209"><ele>15.5</ele><time>2026-04-29T17:52:34.035Z</time></trkpt><trkpt lat="42.78885187936492" lon="11.140756793910395"><ele>15.0</ele><time>2026-04-29T17:52:35.035Z</time></trkpt><trkpt lat="42.789058195717175" lon="11.140454211764673"><ele>15.0</ele><time>2026-04-29T17:52:36.036Z</time></trkpt><trkpt lat="42.78926319061625" lon="11.140150234606978"><ele>15.0</ele><time>2026-04-29T17:52:37.036Z</time></trkpt><trkpt lat="42.78946705709237" lon="11.139845346636037"><ele>14.5</ele><time>2026-04-29T17:52:38.036Z</time></trkpt><trkpt lat="42.78967212125125" lon="11.139538863806099"><ele>14.0</ele><time>2026-04-29T17:52:39.036Z</time></trkpt><trkpt lat="42.78987855203308" lon="11.139232679892094"><ele>14.0</ele><time>2026-04-29T17:52:40.036Z</time></trkpt><trkpt lat="42.790083441492" lon="11.138927247057994"><ele>14.0</ele><time>2026-04-29T17:52:41.036Z</time></trkpt><trkpt lat="42.79028819460585" lon="11.138616824745059"><ele>14.0</ele><time>2026-04-29T17:52:42.036Z</time></trkpt><trkpt lat="42.79049158483422" lon="11.138309722922646"><ele>14.0</ele><time>2026-04-29T17:52:43.036Z</time></trkpt><trkpt lat="42.79069505500035" lon="11.13800284737011"><ele>13.5</ele><time>2026-04-29T17:52:44.036Z</time></trkpt><trkpt lat="42.790898441316486" lon="11.137694731012575"><ele>13.0</ele><time>2026-04-29T17:52:45.036Z</time></trkpt><trkpt lat="42.791101402054146" lon="11.13738943972913"><ele>13.0</ele><time>2026-04-29T17:52:46.036Z</time></trkpt><trkpt lat="42.79130643440916" lon="11.137087327442556"><ele>13.0</ele><time>2026-04-29T17:52:47.036Z</time></trkpt><trkpt lat="42.79151101733057" lon="11.136783941486765"><ele>12.5</ele><time>2026-04-29T17:52:48.036Z</time></trkpt><trkpt lat="42.791714380646624" lon="11.136479095405543"><ele>12.0</ele><time>2026-04-29T17:52:49.036Z</time></trkpt><trkpt lat="42.791917811335786" lon="11.13617535873702"><ele>13.0</ele><time>2026-04-29T17:52:50.036Z</time></trkpt><trkpt lat="42.79212369576041" lon="11.135870717330695"><ele>14.0</ele><time>2026-04-29T17:52:51.036Z</time></trkpt><trkpt lat="42.79232875646287" lon="11.135568276686515"><ele>14.0</ele><time>2026-04-29T17:52:52.036Z</time></trkpt><trkpt lat="42.79252779344103" lon="11.135276246489404"><ele>14.0</ele><time>2026-04-29T17:52:53.036Z</time></trkpt><trkpt lat="42.79272172963123" lon="11.134992750277608"><ele>14.0</ele><time>2026-04-29T17:52:54.036Z</time></trkpt><trkpt lat="42.792914153739865" lon="11.134719156809988"><ele>14.0</ele><time>2026-04-29T17:52:55.036Z</time></trkpt><trkpt lat="42.79310676917715" lon="11.134448159533695"><ele>14.0</ele><time>2026-04-29T17:52:56.036Z</time></trkpt><trkpt lat="42.793297384430865" lon="11.13418243953346"><ele>14.0</ele><time>2026-04-29T17:52:57.036Z</time></trkpt><trkpt lat="42.79348737297144" lon="11.13391859710934"><ele>14.0</ele><time>2026-04-29T17:52:58.036Z</time></trkpt><trkpt lat="42.793670946416185" lon="11.133653045440186"><ele>14.0</ele><time>2026-04-29T17:52:59.036Z</time></trkpt><trkpt lat="42.793850505844" lon="11.13338477836454"><ele>14.5</ele><time>2026-04-29T17:53:00.036Z</time></trkpt><trkpt lat="42.79403299671641" lon="11.133113358970727"><ele>15.0</ele><time>2026-04-29T17:53:01.036Z</time></trkpt><trkpt lat="42.794214546596855" lon="11.132844801517868"><ele>14.5</ele><time>2026-04-29T17:53:02.036Z</time></trkpt><trkpt lat="42.79439660205367" lon="11.13257644057644"><ele>14.0</ele><time>2026-04-29T17:53:03.036Z</time></trkpt><trkpt lat="42.794576888636406" lon="11.13230870664611"><ele>15.0</ele><time>2026-04-29T17:53:04.036Z</time></trkpt><trkpt lat="42.79475511393616" lon="11.132037182625403"><ele>16.0</ele><time>2026-04-29T17:53:05.036Z</time></trkpt><trkpt lat="42.79492958580824" lon="11.1317638171921"><ele>16.0</ele><time>2026-04-29T17:53:06.036Z</time></trkpt><trkpt lat="42.79509972081908" lon="11.131486405096881"><ele>16.0</ele><time>2026-04-29T17:53:07.036Z</time></trkpt><trkpt lat="42.79526365147939" lon="11.131206794659972"><ele>15.5</ele><time>2026-04-29T17:53:08.036Z</time></trkpt><trkpt lat="42.79542066802411" lon="11.130916803929354"><ele>15.0</ele><time>2026-04-29T17:53:09.036Z</time></trkpt><trkpt lat="42.79557188213753" lon="11.130621055978388"><ele>14.5</ele><time>2026-04-29T17:53:10.036Z</time></trkpt><trkpt lat="42.79571711352395" lon="11.1303140577"><ele>14.0</ele><time>2026-04-29T17:53:11.036Z</time></trkpt><trkpt lat="42.7958532227619" lon="11.130000985748522"><ele>13.5</ele><time>2026-04-29T17:53:12.036Z</time></trkpt><trkpt lat="42.79598702411416" lon="11.129681063107228"><ele>13.0</ele><time>2026-04-29T17:53:13.036Z</time></trkpt><trkpt lat="42.79611696919948" lon="11.129351003140776"><ele>13.5</ele><time>2026-04-29T17:53:14.036Z</time></trkpt><trkpt lat="42.79624002232135" lon="11.12901210728482"><ele>14.0</ele><time>2026-04-29T17:53:15.036Z</time></trkpt><trkpt lat="42.79635474091562" lon="11.128663689942755"><ele>14.0</ele><time>2026-04-29T17:53:16.036Z</time></trkpt><trkpt lat="42.79646467644615" lon="11.128310648128979"><ele>14.0</ele><time>2026-04-29T17:53:17.036Z</time></trkpt><trkpt lat="42.796564811070354" lon="11.12795223557768"><ele>14.0</ele><time>2026-04-29T17:53:18.036Z</time></trkpt><trkpt lat="42.79665570441484" lon="11.127587404557389"><ele>14.0</ele><time>2026-04-29T17:53:19.036Z</time></trkpt><trkpt lat="42.79674101169712" lon="11.127219130954376"><ele>14.5</ele><time>2026-04-29T17:53:20.036Z</time></trkpt><trkpt lat="42.79681668640116" lon="11.126848897381437"><ele>15.0</ele><time>2026-04-29T17:53:21.036Z</time></trkpt><trkpt lat="42.79688189699391" lon="11.126473632755843"><ele>14.0</ele><time>2026-04-29T17:53:22.036Z</time></trkpt><trkpt lat="42.796937698443045" lon="11.126095571511168"><ele>13.0</ele><time>2026-04-29T17:53:23.036Z</time></trkpt><trkpt lat="42.796990754452565" lon="11.125712171836307"><ele>13.0</ele><time>2026-04-29T17:53:24.036Z</time></trkpt><trkpt lat="42.79703398266622" lon="11.125325246855468"><ele>13.0</ele><time>2026-04-29T17:53:25.036Z</time></trkpt><trkpt lat="42.797065503142974" lon="11.12494033232672"><ele>12.5</ele><time>2026-04-29T17:53:26.036Z</time></trkpt><trkpt lat="42.79708615691674" lon="11.1245519488466"><ele>12.0</ele><time>2026-04-29T17:53:27.036Z</time></trkpt><trkpt lat="42.79709516004114" lon="11.124162409331824"><ele>11.5</ele><time>2026-04-29T17:53:28.036Z</time></trkpt><trkpt lat="42.79709017989574" lon="11.123774034614618"><ele>11.0</ele><time>2026-04-29T17:53:29.036Z</time></trkpt><trkpt lat="42.7970761218724" lon="11.123384947903947"><ele>11.0</ele><time>2026-04-29T17:53:30.036Z</time></trkpt><trkpt lat="42.797063880930324" lon="11.12299667966942"><ele>11.0</ele><time>2026-04-29T17:53:31.036Z</time></trkpt><trkpt lat="42.79704529329692" lon="11.122609720572845"><ele>11.0</ele><time>2026-04-29T17:53:32.036Z</time></trkpt><trkpt lat="42.79701435140892" lon="11.122226504383942"><ele>11.0</ele><time>2026-04-29T17:53:33.036Z</time></trkpt><trkpt lat="42.79697921924939" lon="11.121841194546887"><ele>11.5</ele><time>2026-04-29T17:53:34.036Z</time></trkpt><trkpt lat="42.796944511201254" lon="11.121458631229482"><ele>12.0</ele><time>2026-04-29T17:53:35.036Z</time></trkpt><trkpt lat="42.79690836146781" lon="11.121075480659224"><ele>12.0</ele><time>2026-04-29T17:53:36.036Z</time></trkpt><trkpt lat="42.79687247649005" lon="11.120696677763249"><ele>12.0</ele><time>2026-04-29T17:53:37.036Z</time></trkpt><trkpt lat="42.79683285185046" lon="11.120318948650848"><ele>12.0</ele><time>2026-04-29T17:53:38.036Z</time></trkpt><trkpt lat="42.796793172965806" lon="11.119937861057304"><ele>12.0</ele><time>2026-04-29T17:53:39.036Z</time></trkpt><trkpt lat="42.79675939597671" lon="11.119557969694638"><ele>12.0</ele><time>2026-04-29T17:53:40.036Z</time></trkpt><trkpt lat="42.796729748450666" lon="11.11917676037744"><ele>12.0</ele><time>2026-04-29T17:53:41.036Z</time></trkpt><trkpt lat="42.79670305882178" lon="11.11879119400489"><ele>12.0</ele><time>2026-04-29T17:53:42.036Z</time></trkpt><trkpt lat="42.79667437323924" lon="11.118407463188166"><ele>12.0</ele><time>2026-04-29T17:53:43.036Z</time></trkpt><trkpt lat="42.79664181745393" lon="11.118026396058838"><ele>11.5</ele><time>2026-04-29T17:53:44.036Z</time></trkpt><trkpt lat="42.796603757142954" lon="11.117646495975725"><ele>11.0</ele><time>2026-04-29T17:53:45.036Z</time></trkpt><trkpt lat="42.796567315434245" lon="11.117257914127485"><ele>10.5</ele><time>2026-04-29T17:53:46.036Z</time></trkpt><trkpt lat="42.796529037105465" lon="11.116876047915166"><ele>10.0</ele><time>2026-04-29T17:53:47.036Z</time></trkpt><trkpt lat="42.79648980681271" lon="11.116493506025746"><ele>10.5</ele><time>2026-04-29T17:53:48.036Z</time></trkpt><trkpt lat="42.79644917933875" lon="11.116112144502617"><ele>11.0</ele><time>2026-04-29T17:53:49.036Z</time></trkpt><trkpt lat="42.79641057629012" lon="11.115729629870032"><ele>11.0</ele><time>2026-04-29T17:53:50.036Z</time></trkpt><trkpt lat="42.796370217822044" lon="11.11534574642443"><ele>11.0</ele><time>2026-04-29T17:53:51.036Z</time></trkpt><trkpt lat="42.79633169463042" lon="11.114969516869241"><ele>10.5</ele><time>2026-04-29T17:53:52.036Z</time></trkpt><trkpt lat="42.79629476834791" lon="11.114604748273745"><ele>10.0</ele><time>2026-04-29T17:53:53.036Z</time></trkpt><trkpt lat="42.79625750343127" lon="11.114245386762207"><ele>9.5</ele><time>2026-04-29T17:53:54.036Z</time></trkpt><trkpt lat="42.796221759214454" lon="11.113885648499068"><ele>9.0</ele><time>2026-04-29T17:53:55.036Z</time></trkpt><trkpt lat="42.79618758536476" lon="11.11352833024387"><ele>10.0</ele><time>2026-04-29T17:53:56.036Z</time></trkpt><trkpt lat="42.79615282921953" lon="11.11316665421006"><ele>11.0</ele><time>2026-04-29T17:53:57.036Z</time></trkpt><trkpt lat="42.796115866956185" lon="11.112802783231901"><ele>11.0</ele><time>2026-04-29T17:53:58.036Z</time></trkpt><trkpt lat="42.796079253572124" lon="11.112440468959814"><ele>11.0</ele><time>2026-04-29T17:53:59.037Z</time></trkpt><trkpt lat="42.79604171428891" lon="11.112072774062074"><ele>11.0</ele><time>2026-04-29T17:54:00.037Z</time></trkpt><trkpt lat="42.796003933847146" lon="11.11170400358873"><ele>11.0</ele><time>2026-04-29T17:54:01.037Z</time></trkpt><trkpt lat="42.79596953962029" lon="11.11133939156422"><ele>11.0</ele><time>2026-04-29T17:54:02.037Z</time></trkpt><trkpt lat="42.79593458399313" lon="11.11096901089926"><ele>11.0</ele><time>2026-04-29T17:54:03.037Z</time></trkpt><trkpt lat="42.795894286543366" lon="11.110602871084277"><ele>11.0</ele><time>2026-04-29T17:54:04.037Z</time></trkpt><trkpt lat="42.79585502481004" lon="11.110232871615498"><ele>11.0</ele><time>2026-04-29T17:54:05.037Z</time></trkpt><trkpt lat="42.79581494264072" lon="11.109862610618327"><ele>10.0</ele><time>2026-04-29T17:54:06.037Z</time></trkpt><trkpt lat="42.79577877833789" lon="11.10949278757212"><ele>9.0</ele><time>2026-04-29T17:54:07.037Z</time></trkpt><trkpt lat="42.79574692917161" lon="11.1091179855676"><ele>9.5</ele><time>2026-04-29T17:54:08.037Z</time></trkpt><trkpt lat="42.79572343545396" lon="11.108739486051682"><ele>10.0</ele><time>2026-04-29T17:54:09.037Z</time></trkpt><trkpt lat="42.79570884138728" lon="11.108362042957264"><ele>10.5</ele><time>2026-04-29T17:54:10.037Z</time></trkpt><trkpt lat="42.79571089693039" lon="11.107987117769063"><ele>11.0</ele><time>2026-04-29T17:54:11.037Z</time></trkpt><trkpt lat="42.795725351344366" lon="11.107612942764904"><ele>10.0</ele><time>2026-04-29T17:54:12.037Z</time></trkpt><trkpt lat="42.795751663452236" lon="11.107239159687358"><ele>9.0</ele><time>2026-04-29T17:54:13.037Z</time></trkpt><trkpt lat="42.79579500206117" lon="11.106864296448746"><ele>8.0</ele><time>2026-04-29T17:54:14.037Z</time></trkpt><trkpt lat="42.79584866165409" lon="11.10649368091995"><ele>7.0</ele><time>2026-04-29T17:54:15.037Z</time></trkpt><trkpt lat="42.7959117174752" lon="11.106128300704947"><ele>7.0</ele><time>2026-04-29T17:54:16.037Z</time></trkpt><trkpt lat="42.79598723352337" lon="11.105769218080113"><ele>7.0</ele><time>2026-04-29T17:54:17.037Z</time></trkpt><trkpt lat="42.7960680079271" lon="11.10541586814087"><ele>8.5</ele><time>2026-04-29T17:54:18.037Z</time></trkpt><trkpt lat="42.796166767348566" lon="11.105071033077492"><ele>10.0</ele><time>2026-04-29T17:54:19.037Z</time></trkpt><trkpt lat="42.79627630828173" lon="11.10473189740707"><ele>10.0</ele><time>2026-04-29T17:54:20.037Z</time></trkpt><trkpt lat="42.7964020878516" lon="11.10439939723915"><ele>10.0</ele><time>2026-04-29T17:54:21.037Z</time></trkpt><trkpt lat="42.7965352998981" lon="11.104074224746753"><ele>10.0</ele><time>2026-04-29T17:54:22.037Z</time></trkpt><trkpt lat="42.796679971161744" lon="11.103756838837313"><ele>10.0</ele><time>2026-04-29T17:54:23.037Z</time></trkpt><trkpt lat="42.7968281497646" lon="11.103438518184584"><ele>11.0</ele><time>2026-04-29T17:54:24.039Z</time></trkpt><trkpt lat="42.796990030982755" lon="11.10313375258167"><ele>12.0</ele><time>2026-04-29T17:54:25.039Z</time></trkpt><trkpt lat="42.79715864635727" lon="11.102837177751963"><ele>12.0</ele><time>2026-04-29T17:54:26.039Z</time></trkpt><trkpt lat="42.79733492515639" lon="11.102540963833487"><ele>12.0</ele><time>2026-04-29T17:54:27.039Z</time></trkpt><trkpt lat="42.797516020589306" lon="11.102250167975813"><ele>11.0</ele><time>2026-04-29T17:54:28.038Z</time></trkpt><trkpt lat="42.797697315712405" lon="11.101952167456837"><ele>10.0</ele><time>2026-04-29T17:54:29.038Z</time></trkpt><trkpt lat="42.79788531079054" lon="11.101658685146981"><ele>10.0</ele><time>2026-04-29T17:54:30.039Z</time></trkpt><trkpt lat="42.798070962703484" lon="11.10135963835145"><ele>10.0</ele><time>2026-04-29T17:54:31.038Z</time></trkpt><trkpt lat="42.79825798115274" lon="11.101059458666999"><ele>10.0</ele><time>2026-04-29T17:54:32.038Z</time></trkpt><trkpt lat="42.79844456338921" lon="11.100760610796232"><ele>10.0</ele><time>2026-04-29T17:54:33.039Z</time></trkpt><trkpt lat="42.79863177022988" lon="11.100458977517972"><ele>8.5</ele><time>2026-04-29T17:54:34.039Z</time></trkpt><trkpt lat="42.79882209141647" lon="11.100154367929601"><ele>7.0</ele><time>2026-04-29T17:54:35.039Z</time></trkpt><trkpt lat="42.79901459652939" lon="11.099850417351357"><ele>7.0</ele><time>2026-04-29T17:54:36.039Z</time></trkpt><trkpt lat="42.79920280611325" lon="11.099544901326947"><ele>7.0</ele><time>2026-04-29T17:54:37.039Z</time></trkpt><trkpt lat="42.799393317186656" lon="11.099237596240483"><ele>6.5</ele><time>2026-04-29T17:54:38.039Z</time></trkpt><trkpt lat="42.799584094964565" lon="11.098928479758978"><ele>6.0</ele><time>2026-04-29T17:54:39.039Z</time></trkpt><trkpt lat="42.79977494234334" lon="11.098621354154659"><ele>6.0</ele><time>2026-04-29T17:54:40.039Z</time></trkpt><trkpt lat="42.799964576447266" lon="11.098318816669074"><ele>6.0</ele><time>2026-04-29T17:54:41.039Z</time></trkpt><trkpt lat="42.80015418036279" lon="11.098018100613933"><ele>6.5</ele><time>2026-04-29T17:54:42.039Z</time></trkpt><trkpt lat="42.80034047753488" lon="11.097720873790324"><ele>7.0</ele><time>2026-04-29T17:54:43.039Z</time></trkpt><trkpt lat="42.80052288753075" lon="11.097429877634989"><ele>7.5</ele><time>2026-04-29T17:54:44.039Z</time></trkpt><trkpt lat="42.80070564885925" lon="11.097140855788695"><ele>8.0</ele><time>2026-04-29T17:54:45.039Z</time></trkpt><trkpt lat="42.80088891318007" lon="11.09685970228934"><ele>8.0</ele><time>2026-04-29T17:54:46.039Z</time></trkpt><trkpt lat="42.80107914114146" lon="11.096585531649367"><ele>8.0</ele><time>2026-04-29T17:54:47.039Z</time></trkpt><trkpt lat="42.80127470260268" lon="11.096324428100889"><ele>8.0</ele><time>2026-04-29T17:54:48.039Z</time></trkpt><trkpt lat="42.80147848724844" lon="11.096075190487685"><ele>8.0</ele><time>2026-04-29T17:54:49.039Z</time></trkpt><trkpt lat="42.80169066412349" lon="11.095836077119495"><ele>7.0</ele><time>2026-04-29T17:54:50.039Z</time></trkpt><trkpt lat="42.8019110760024" lon="11.095609734039506"><ele>6.0</ele><time>2026-04-29T17:54:51.039Z</time></trkpt><trkpt lat="42.80213867079339" lon="11.095397514537302"><ele>6.0</ele><time>2026-04-29T17:54:52.039Z</time></trkpt><trkpt lat="42.802372211897676" lon="11.095198619180097"><ele>6.0</ele><time>2026-04-29T17:54:53.039Z</time></trkpt><trkpt lat="42.80261313778427" lon="11.095014270430976"><ele>6.0</ele><time>2026-04-29T17:54:54.039Z</time></trkpt><trkpt lat="42.80285855442169" lon="11.094844489719677"><ele>6.0</ele><time>2026-04-29T17:54:55.039Z</time></trkpt><trkpt lat="42.80311062703131" lon="11.094681891365845"><ele>6.0</ele><time>2026-04-29T17:54:56.039Z</time></trkpt><trkpt lat="42.80336420707699" lon="11.094540111346738"><ele>6.0</ele><time>2026-04-29T17:54:57.039Z</time></trkpt><trkpt lat="42.80362444653174" lon="11.094415038755633"><ele>6.0</ele><time>2026-04-29T17:54:58.039Z</time></trkpt><trkpt lat="42.80388844568817" lon="11.09430463236291"><ele>6.0</ele><time>2026-04-29T17:54:59.039Z</time></trkpt><trkpt lat="42.804153732395434" lon="11.09420614881506"><ele>6.0</ele><time>2026-04-29T17:55:00.039Z</time></trkpt><trkpt lat="42.80442062249241" lon="11.094109093329514"><ele>6.0</ele><time>2026-04-29T17:55:01.039Z</time></trkpt><trkpt lat="42.804687192635335" lon="11.09401305949869"><ele>6.0</ele><time>2026-04-29T17:55:02.039Z</time></trkpt><trkpt lat="42.80495386007757" lon="11.093918448888557"><ele>6.0</ele><time>2026-04-29T17:55:03.039Z</time></trkpt><trkpt lat="42.80521933115892" lon="11.093819057180937"><ele>6.5</ele><time>2026-04-29T17:55:04.039Z</time></trkpt><trkpt lat="42.80548328288539" lon="11.093722581229937"><ele>7.0</ele><time>2026-04-29T17:55:05.039Z</time></trkpt><trkpt lat="42.805749693968" lon="11.093622741164728"><ele>6.5</ele><time>2026-04-29T17:55:06.039Z</time></trkpt><trkpt lat="42.80601524326208" lon="11.093525080780829"><ele>6.0</ele><time>2026-04-29T17:55:07.039Z</time></trkpt><trkpt lat="42.80628411568909" lon="11.093426126615528"><ele>6.0</ele><time>2026-04-29T17:55:08.039Z</time></trkpt><trkpt lat="42.80655179493575" lon="11.093328179022397"><ele>6.0</ele><time>2026-04-29T17:55:09.039Z</time></trkpt><trkpt lat="42.806817460462135" lon="11.093232127556561"><ele>6.0</ele><time>2026-04-29T17:55:10.039Z</time></trkpt><trkpt lat="42.807083598946434" lon="11.093135341637987"><ele>6.0</ele><time>2026-04-29T17:55:11.039Z</time></trkpt><trkpt lat="42.807350278381556" lon="11.093044986044953"><ele>6.0</ele><time>2026-04-29T17:55:12.039Z</time></trkpt><trkpt lat="42.80761555241771" lon="11.092946105322273"><ele>6.0</ele><time>2026-04-29T17:55:13.039Z</time></trkpt><trkpt lat="42.807879926658764" lon="11.092847749349097"><ele>7.0</ele><time>2026-04-29T17:55:14.039Z</time></trkpt><trkpt lat="42.80814386263039" lon="11.092748927376674"><ele>8.0</ele><time>2026-04-29T17:55:15.039Z</time></trkpt><trkpt lat="42.80840679295226" lon="11.092649691734826"><ele>8.0</ele><time>2026-04-29T17:55:16.039Z</time></trkpt><trkpt lat="42.80866900341988" lon="11.092553560547874"><ele>8.0</ele><time>2026-04-29T17:55:17.039Z</time></trkpt><trkpt lat="42.80892950317668" lon="11.092454555165682"><ele>8.0</ele><time>2026-04-29T17:55:18.039Z</time></trkpt><trkpt lat="42.80919111664208" lon="11.092344139984464"><ele>8.0</ele><time>2026-04-29T17:55:19.039Z</time></trkpt><trkpt lat="42.80945888557745" lon="11.092252548710784"><ele>7.5</ele><time>2026-04-29T17:55:20.039Z</time></trkpt><trkpt lat="42.809730846862784" lon="11.092157995726339"><ele>7.0</ele><time>2026-04-29T17:55:21.039Z</time></trkpt><trkpt lat="42.81000647019145" lon="11.092059227618025"><ele>7.0</ele><time>2026-04-29T17:55:22.039Z</time></trkpt><trkpt lat="42.810280764778256" lon="11.09195854723293"><ele>7.0</ele><time>2026-04-29T17:55:23.039Z</time></trkpt><trkpt lat="42.81055309842154" lon="11.091856879654339"><ele>7.0</ele><time>2026-04-29T17:55:24.039Z</time></trkpt><trkpt lat="42.81082598655117" lon="11.091754286867857"><ele>7.0</ele><time>2026-04-29T17:55:25.039Z</time></trkpt><trkpt lat="42.81110014570075" lon="11.091654563590481"><ele>6.5</ele><time>2026-04-29T17:55:26.039Z</time></trkpt><trkpt lat="42.8113756235219" lon="11.091554218370698"><ele>6.0</ele><time>2026-04-29T17:55:27.039Z</time></trkpt><trkpt lat="42.81165074843687" lon="11.091453191753383"><ele>5.5</ele><time>2026-04-29T17:55:28.039Z</time></trkpt><trkpt lat="42.81191991892758" lon="11.091352382896421"><ele>5.0</ele><time>2026-04-29T17:55:29.039Z</time></trkpt><trkpt lat="42.81218869699531" lon="11.091253080201101"><ele>5.0</ele><time>2026-04-29T17:55:30.039Z</time></trkpt><trkpt lat="42.812459031297124" lon="11.091154073495137"><ele>5.0</ele><time>2026-04-29T17:55:31.039Z</time></trkpt><trkpt lat="42.8127280065019" lon="11.091056009475771"><ele>6.0</ele><time>2026-04-29T17:55:32.039Z</time></trkpt><trkpt lat="42.81299700944256" lon="11.090956439164966"><ele>7.0</ele><time>2026-04-29T17:55:33.039Z</time></trkpt><trkpt lat="42.81326953903555" lon="11.090857381058736"><ele>7.0</ele><time>2026-04-29T17:55:34.039Z</time></trkpt><trkpt lat="42.81353972426267" lon="11.090758560717191"><ele>7.0</ele><time>2026-04-29T17:55:35.039Z</time></trkpt><trkpt lat="42.813810211453784" lon="11.090658401332183"><ele>7.0</ele><time>2026-04-29T17:55:36.04Z</time></trkpt><trkpt lat="42.81408187973328" lon="11.090557939476703"><ele>7.0</ele><time>2026-04-29T17:55:37.04Z</time></trkpt><trkpt lat="42.814352844905315" lon="11.090455680932127"><ele>7.0</ele><time>2026-04-29T17:55:38.04Z</time></trkpt><trkpt lat="42.81462735391881" lon="11.090358374240072"><ele>7.0</ele><time>2026-04-29T17:55:39.04Z</time></trkpt><trkpt lat="42.81490148143459" lon="11.090256867057638"><ele>7.5</ele><time>2026-04-29T17:55:40.04Z</time></trkpt><trkpt lat="42.81517532534309" lon="11.090157775942197"><ele>8.0</ele><time>2026-04-29T17:55:41.04Z</time></trkpt><trkpt lat="42.815449902383186" lon="11.090061408087132"><ele>8.0</ele><time>2026-04-29T17:55:42.04Z</time></trkpt><trkpt lat="42.8157248341714" lon="11.089962972479178"><ele>8.0</ele><time>2026-04-29T17:55:43.04Z</time></trkpt><trkpt lat="42.81599912872621" lon="11.089863587861267"><ele>7.5</ele><time>2026-04-29T17:55:44.04Z</time></trkpt><trkpt lat="42.816272141513046" lon="11.089760929006044"><ele>7.0</ele><time>2026-04-29T17:55:45.04Z</time></trkpt><trkpt lat="42.81654139831906" lon="11.089651957884946"><ele>7.0</ele><time>2026-04-29T17:55:46.04Z</time></trkpt><trkpt lat="42.81681802070699" lon="11.089551031162433"><ele>7.0</ele><time>2026-04-29T17:55:47.04Z</time></trkpt><trkpt lat="42.81708749928089" lon="11.089446458481657"><ele>7.0</ele><time>2026-04-29T17:55:48.04Z</time></trkpt><trkpt lat="42.81735729793611" lon="11.08934476749407"><ele>7.0</ele><time>2026-04-29T17:55:49.04Z</time></trkpt><trkpt lat="42.817630124505556" lon="11.089243692805239"><ele>7.0</ele><time>2026-04-29T17:55:50.04Z</time></trkpt><trkpt lat="42.81790382334409" lon="11.089143042280286"><ele>7.0</ele><time>2026-04-29T17:55:51.04Z</time></trkpt><trkpt lat="42.818177361299355" lon="11.089045708531593"><ele>7.0</ele><time>2026-04-29T17:55:52.04Z</time></trkpt><trkpt lat="42.81845299468151" lon="11.088949173555342"><ele>7.0</ele><time>2026-04-29T17:55:53.04Z</time></trkpt><trkpt lat="42.81872589158043" lon="11.088849194649162"><ele>6.5</ele><time>2026-04-29T17:55:54.04Z</time></trkpt><trkpt lat="42.81899875445043" lon="11.088747744770027"><ele>6.0</ele><time>2026-04-29T17:55:55.04Z</time></trkpt><trkpt lat="42.81927132357067" lon="11.088644870984"><ele>6.5</ele><time>2026-04-29T17:55:56.04Z</time></trkpt><trkpt lat="42.81954422288672" lon="11.088544026697004"><ele>7.0</ele><time>2026-04-29T17:55:57.04Z</time></trkpt><trkpt lat="42.819819594194215" lon="11.088444628974404"><ele>7.0</ele><time>2026-04-29T17:55:58.04Z</time></trkpt><trkpt lat="42.82009242467571" lon="11.088345391533"><ele>7.0</ele><time>2026-04-29T17:55:59.04Z</time></trkpt><trkpt lat="42.82036030804829" lon="11.088238491892744"><ele>7.5</ele><time>2026-04-29T17:56:00.04Z</time></trkpt><trkpt lat="42.82063172565132" lon="11.088140321831599"><ele>8.0</ele><time>2026-04-29T17:56:01.04Z</time></trkpt><trkpt lat="42.82090798678761" lon="11.088042988044176"><ele>7.5</ele><time>2026-04-29T17:56:02.04Z</time></trkpt><trkpt lat="42.82117926605752" lon="11.087945384773873"><ele>7.0</ele><time>2026-04-29T17:56:03.04Z</time></trkpt><trkpt lat="42.82145141154607" lon="11.087850970808299"><ele>7.0</ele><time>2026-04-29T17:56:04.04Z</time></trkpt><trkpt lat="42.821727281328954" lon="11.0877622731312"><ele>7.0</ele><time>2026-04-29T17:56:05.04Z</time></trkpt><trkpt lat="42.822001485838996" lon="11.087675934207772"><ele>6.5</ele><time>2026-04-29T17:56:06.04Z</time></trkpt><trkpt lat="42.82227855437193" lon="11.087590782941163"><ele>6.0</ele><time>2026-04-29T17:56:07.04Z</time></trkpt><trkpt lat="42.82255483483716" lon="11.087507426726704"><ele>5.5</ele><time>2026-04-29T17:56:08.04Z</time></trkpt><trkpt lat="42.82283422880782" lon="11.087424162747526"><ele>5.0</ele><time>2026-04-29T17:56:09.04Z</time></trkpt><trkpt lat="42.82311021455581" lon="11.087336632512958"><ele>5.0</ele><time>2026-04-29T17:56:10.04Z</time></trkpt><trkpt lat="42.82338395687684" lon="11.087249754468605"><ele>5.0</ele><time>2026-04-29T17:56:11.04Z</time></trkpt><trkpt lat="42.82365792857063" lon="11.087162928569027"><ele>5.0</ele><time>2026-04-29T17:56:12.04Z</time></trkpt><trkpt lat="42.8239312997886" lon="11.087076055882884"><ele>5.0</ele><time>2026-04-29T17:56:13.04Z</time></trkpt><trkpt lat="42.824205231641315" lon="11.086989103077878"><ele>4.5</ele><time>2026-04-29T17:56:14.04Z</time></trkpt><trkpt lat="42.824480367887645" lon="11.08690478396411"><ele>4.0</ele><time>2026-04-29T17:56:15.04Z</time></trkpt><trkpt lat="42.82475373550896" lon="11.086817932200514"><ele>4.0</ele><time>2026-04-29T17:56:16.04Z</time></trkpt><trkpt lat="42.82502808974873" lon="11.086729336293457"><ele>4.0</ele><time>2026-04-29T17:56:17.04Z</time></trkpt><trkpt lat="42.82530179029105" lon="11.086636704909086"><ele>4.0</ele><time>2026-04-29T17:56:18.04Z</time></trkpt><trkpt lat="42.82557765386868" lon="11.086548589030238"><ele>4.0</ele><time>2026-04-29T17:56:19.04Z</time></trkpt><trkpt lat="42.82585641141556" lon="11.086459843738444"><ele>4.0</ele><time>2026-04-29T17:56:20.04Z</time></trkpt><trkpt lat="42.82613618089322" lon="11.086367253230513"><ele>4.0</ele><time>2026-04-29T17:56:21.04Z</time></trkpt><trkpt lat="42.82642288229537" lon="11.086277343063719"><ele>4.0</ele><time>2026-04-29T17:56:22.04Z</time></trkpt><trkpt lat="42.82670812750028" lon="11.086183504152721"><ele>4.0</ele><time>2026-04-29T17:56:23.04Z</time></trkpt><trkpt lat="42.826993001128066" lon="11.086088406686898"><ele>4.0</ele><time>2026-04-29T17:56:24.04Z</time></trkpt><trkpt lat="42.82728017624312" lon="11.085988964426495"><ele>4.0</ele><time>2026-04-29T17:56:25.04Z</time></trkpt><trkpt lat="42.82756717071499" lon="11.08588639695344"><ele>4.5</ele><time>2026-04-29T17:56:26.04Z</time></trkpt><trkpt lat="42.82785470769697" lon="11.085785307760464"><ele>5.0</ele><time>2026-04-29T17:56:27.04Z</time></trkpt><trkpt lat="42.8281403425047" lon="11.085681001650205"><ele>5.0</ele><time>2026-04-29T17:56:28.04Z</time></trkpt><trkpt lat="42.82842857022848" lon="11.085578801482447"><ele>5.0</ele><time>2026-04-29T17:56:29.04Z</time></trkpt><trkpt lat="42.82871702088823" lon="11.085474099304186"><ele>5.0</ele><time>2026-04-29T17:56:30.041Z</time></trkpt><trkpt lat="42.82900488000091" lon="11.085371934533702"><ele>5.0</ele><time>2026-04-29T17:56:31.041Z</time></trkpt><trkpt lat="42.82929222484156" lon="11.085270429945986"><ele>5.0</ele><time>2026-04-29T17:56:32.041Z</time></trkpt><trkpt lat="42.82957714594219" lon="11.085168102031414"><ele>5.0</ele><time>2026-04-29T17:56:33.042Z</time></trkpt><trkpt lat="42.82986288948461" lon="11.085063310062951"><ele>4.5</ele><time>2026-04-29T17:56:34.042Z</time></trkpt><trkpt lat="42.83015065372556" lon="11.08495705146171"><ele>4.0</ele><time>2026-04-29T17:56:35.042Z</time></trkpt><trkpt lat="42.830434750847026" lon="11.084848166497155"><ele>4.0</ele><time>2026-04-29T17:56:36.042Z</time></trkpt><trkpt lat="42.83071901139863" lon="11.084742440890782"><ele>4.0</ele><time>2026-04-29T17:56:37.042Z</time></trkpt><trkpt lat="42.83100350132844" lon="11.0846372735145"><ele>4.5</ele><time>2026-04-29T17:56:38.042Z</time></trkpt><trkpt lat="42.83128867821428" lon="11.084532486547303"><ele>5.0</ele><time>2026-04-29T17:56:39.042Z</time></trkpt><trkpt lat="42.831572460613025" lon="11.084430730576637"><ele>7.0</ele><time>2026-04-29T17:56:40.042Z</time></trkpt><trkpt lat="42.831855501872724" lon="11.084329290814562"><ele>9.0</ele><time>2026-04-29T17:56:41.042Z</time></trkpt><trkpt lat="42.832135622164316" lon="11.084227340623519"><ele>9.0</ele><time>2026-04-29T17:56:42.042Z</time></trkpt><trkpt lat="42.83241451860995" lon="11.084125021829161"><ele>9.0</ele><time>2026-04-29T17:56:43.042Z</time></trkpt><trkpt lat="42.83269216278122" lon="11.084022547897272"><ele>8.5</ele><time>2026-04-29T17:56:44.042Z</time></trkpt><trkpt lat="42.83297194082889" lon="11.083918035121222"><ele>8.0</ele><time>2026-04-29T17:56:45.042Z</time></trkpt><trkpt lat="42.83325187425284" lon="11.083814106160911"><ele>8.0</ele><time>2026-04-29T17:56:46.042Z</time></trkpt><trkpt lat="42.83353004460102" lon="11.083708361497482"><ele>8.0</ele><time>2026-04-29T17:56:47.042Z</time></trkpt><trkpt lat="42.83380866767209" lon="11.08360756299083"><ele>8.0</ele><time>2026-04-29T17:56:48.042Z</time></trkpt><trkpt lat="42.83408503796364" lon="11.08350225537087"><ele>8.0</ele><time>2026-04-29T17:56:49.042Z</time></trkpt><trkpt lat="42.83436252588486" lon="11.08339746417897"><ele>7.0</ele><time>2026-04-29T17:56:50.042Z</time></trkpt><trkpt lat="42.834641239606626" lon="11.083294781408053"><ele>6.0</ele><time>2026-04-29T17:56:51.042Z</time></trkpt><trkpt lat="42.834917054558865" lon="11.083190594387142"><ele>5.0</ele><time>2026-04-29T17:56:52.042Z</time></trkpt><trkpt lat="42.835190833652085" lon="11.083085891014594"><ele>4.0</ele><time>2026-04-29T17:56:53.042Z</time></trkpt><trkpt lat="42.83546851289539" lon="11.082980865995665"><ele>4.0</ele><time>2026-04-29T17:56:54.042Z</time></trkpt><trkpt lat="42.83574434328566" lon="11.08287847581907"><ele>4.0</ele><time>2026-04-29T17:56:55.042Z</time></trkpt><trkpt lat="42.83602286921706" lon="11.0827773966569"><ele>5.0</ele><time>2026-04-29T17:56:56.042Z</time></trkpt><trkpt lat="42.83629873143826" lon="11.08267489619218"><ele>6.0</ele><time>2026-04-29T17:56:57.042Z</time></trkpt><trkpt lat="42.83657690417091" lon="11.082573577366047"><ele>6.5</ele><time>2026-04-29T17:56:58.042Z</time></trkpt><trkpt lat="42.83685260032541" lon="11.08247451574997"><ele>7.0</ele><time>2026-04-29T17:56:59.042Z</time></trkpt><trkpt lat="42.83713066276543" lon="11.082370960267458"><ele>7.0</ele><time>2026-04-29T17:57:00.043Z</time></trkpt><trkpt lat="42.837407812858466" lon="11.082268546835692"><ele>7.0</ele><time>2026-04-29T17:57:01.043Z</time></trkpt><trkpt lat="42.83768526132536" lon="11.082162382183839"><ele>7.5</ele><time>2026-04-29T17:57:02.043Z</time></trkpt><trkpt lat="42.83796208312413" lon="11.082053831194568"><ele>8.0</ele><time>2026-04-29T17:57:03.043Z</time></trkpt><trkpt lat="42.83823486385538" lon="11.081938303867105"><ele>9.0</ele><time>2026-04-29T17:57:04.043Z</time></trkpt><trkpt lat="42.83851281796157" lon="11.081836288943741"><ele>10.0</ele><time>2026-04-29T17:57:05.043Z</time></trkpt><trkpt lat="42.83878980996454" lon="11.081726929673978"><ele>10.0</ele><time>2026-04-29T17:57:06.043Z</time></trkpt><trkpt lat="42.8390656554987" lon="11.081618109043026"><ele>10.0</ele><time>2026-04-29T17:57:07.043Z</time></trkpt><trkpt lat="42.83934233117254" lon="11.081507281724777"><ele>8.0</ele><time>2026-04-29T17:57:08.043Z</time></trkpt><trkpt lat="42.83962233041928" lon="11.081403723806943"><ele>6.0</ele><time>2026-04-29T17:57:09.043Z</time></trkpt><trkpt lat="42.839899831214474" lon="11.081293981848663"><ele>7.0</ele><time>2026-04-29T17:57:10.043Z</time></trkpt><trkpt lat="42.840181458909285" lon="11.08118760202073"><ele>8.0</ele><time>2026-04-29T17:57:11.043Z</time></trkpt><trkpt lat="42.84046185389846" lon="11.081079164510225"><ele>8.0</ele><time>2026-04-29T17:57:12.043Z</time></trkpt><trkpt lat="42.840746237504106" lon="11.080969890556183"><ele>8.0</ele><time>2026-04-29T17:57:13.043Z</time></trkpt><trkpt lat="42.84103163419364" lon="11.08085854729311"><ele>6.0</ele><time>2026-04-29T17:57:14.043Z</time></trkpt><trkpt lat="42.84131735512566" lon="11.080745075505169"><ele>4.0</ele><time>2026-04-29T17:57:15.043Z</time></trkpt><trkpt lat="42.841601795459226" lon="11.080632468087162"><ele>3.5</ele><time>2026-04-29T17:57:16.043Z</time></trkpt><trkpt lat="42.84189150228928" lon="11.08051982316271"><ele>3.0</ele><time>2026-04-29T17:57:17.043Z</time></trkpt><trkpt lat="42.84217724954999" lon="11.08040696109417"><ele>3.0</ele><time>2026-04-29T17:57:18.043Z</time></trkpt><trkpt lat="42.84246408188211" lon="11.080297592101745"><ele>3.0</ele><time>2026-04-29T17:57:19.043Z</time></trkpt><trkpt lat="42.84274990730014" lon="11.080189182303709"><ele>4.0</ele><time>2026-04-29T17:57:20.043Z</time></trkpt><trkpt lat="42.84303785479179" lon="11.080082324090029"><ele>5.0</ele><time>2026-04-29T17:57:21.043Z</time></trkpt><trkpt lat="42.84332161514826" lon="11.079972784497599"><ele>4.5</ele><time>2026-04-29T17:57:22.043Z</time></trkpt><trkpt lat="42.84360591480326" lon="11.079860286857615"><ele>4.0</ele><time>2026-04-29T17:57:23.043Z</time></trkpt><trkpt lat="42.84388618693435" lon="11.079745604344252"><ele>4.0</ele><time>2026-04-29T17:57:24.043Z</time></trkpt><trkpt lat="42.84416858574092" lon="11.07963431404264"><ele>4.0</ele><time>2026-04-29T17:57:25.043Z</time></trkpt><trkpt lat="42.84445368147703" lon="11.079524846483736"><ele>3.5</ele><time>2026-04-29T17:57:26.043Z</time></trkpt><trkpt lat="42.84473722615151" lon="11.079417315319025"><ele>3.0</ele><time>2026-04-29T17:57:27.043Z</time></trkpt><trkpt lat="42.8450237247979" lon="11.079312479796139"><ele>3.5</ele><time>2026-04-29T17:57:28.043Z</time></trkpt><trkpt lat="42.84530917694908" lon="11.079210932314815"><ele>4.0</ele><time>2026-04-29T17:57:29.043Z</time></trkpt><trkpt lat="42.8455938276467" lon="11.07911049845941"><ele>3.5</ele><time>2026-04-29T17:57:30.043Z</time></trkpt><trkpt lat="42.8458762885755" lon="11.079008072341313"><ele>3.0</ele><time>2026-04-29T17:57:31.043Z</time></trkpt><trkpt lat="42.84616045775665" lon="11.078908320356854"><ele>2.5</ele><time>2026-04-29T17:57:32.043Z</time></trkpt><trkpt lat="42.846439730474195" lon="11.078805640488266"><ele>2.0</ele><time>2026-04-29T17:57:33.043Z</time></trkpt><trkpt lat="42.846723902736805" lon="11.07870188435481"><ele>2.5</ele><time>2026-04-29T17:57:34.043Z</time></trkpt><trkpt lat="42.84701276735044" lon="11.0785989731799"><ele>3.0</ele><time>2026-04-29T17:57:35.043Z</time></trkpt><trkpt lat="42.84730132051867" lon="11.078495408891795"><ele>3.0</ele><time>2026-04-29T17:57:36.043Z</time></trkpt><trkpt lat="42.84758693226067" lon="11.078386607632876"><ele>3.0</ele><time>2026-04-29T17:57:37.043Z</time></trkpt><trkpt lat="42.84787321502467" lon="11.078284940580714"><ele>3.0</ele><time>2026-04-29T17:57:38.043Z</time></trkpt><trkpt lat="42.84815883225986" lon="11.078182468419513"><ele>3.0</ele><time>2026-04-29T17:57:39.043Z</time></trkpt><trkpt lat="42.84844510541897" lon="11.078088286484235"><ele>2.0</ele><time>2026-04-29T17:57:40.043Z</time></trkpt><trkpt lat="42.84872824716463" lon="11.077995650598279"><ele>1.0</ele><time>2026-04-29T17:57:41.043Z</time></trkpt><trkpt lat="42.849013831236604" lon="11.077908221431283"><ele>1.0</ele><time>2026-04-29T17:57:42.043Z</time></trkpt><trkpt lat="42.84929891011032" lon="11.077819190760437"><ele>1.0</ele><time>2026-04-29T17:57:43.043Z</time></trkpt><trkpt lat="42.84958308904057" lon="11.077728726306821"><ele>1.0</ele><time>2026-04-29T17:57:44.043Z</time></trkpt><trkpt lat="42.84986442011988" lon="11.077630470728336"><ele>1.0</ele><time>2026-04-29T17:57:45.043Z</time></trkpt><trkpt lat="42.850143794006975" lon="11.07752962219596"><ele>1.0</ele><time>2026-04-29T17:57:46.043Z</time></trkpt><trkpt lat="42.85042565459248" lon="11.07742630857394"><ele>1.0</ele><time>2026-04-29T17:57:47.043Z</time></trkpt><trkpt lat="42.8507066578605" lon="11.077323674617611"><ele>1.5</ele><time>2026-04-29T17:57:48.043Z</time></trkpt><trkpt lat="42.85098812692126" lon="11.077222585919971"><ele>2.0</ele><time>2026-04-29T17:57:49.043Z</time></trkpt><trkpt lat="42.85126964158687" lon="11.077121136403887"><ele>2.0</ele><time>2026-04-29T17:57:50.043Z</time></trkpt><trkpt lat="42.85155181969618" lon="11.077019521411634"><ele>2.0</ele><time>2026-04-29T17:57:51.043Z</time></trkpt><trkpt lat="42.851832817882425" lon="11.076921469619942"><ele>3.0</ele><time>2026-04-29T17:57:52.043Z</time></trkpt><trkpt lat="42.852116053769066" lon="11.076822781617956"><ele>4.0</ele><time>2026-04-29T17:57:53.043Z</time></trkpt><trkpt lat="42.8523994768178" lon="11.076723057991176"><ele>4.0</ele><time>2026-04-29T17:57:54.043Z</time></trkpt><trkpt lat="42.85267960610671" lon="11.076625595158333"><ele>4.0</ele><time>2026-04-29T17:57:55.043Z</time></trkpt><trkpt lat="42.85296240035626" lon="11.076523939978577"><ele>3.5</ele><time>2026-04-29T17:57:56.043Z</time></trkpt><trkpt lat="42.85324405336698" lon="11.076422241943053"><ele>3.0</ele><time>2026-04-29T17:57:57.043Z</time></trkpt><trkpt lat="42.85352628181143" lon="11.076322413553054"><ele>3.0</ele><time>2026-04-29T17:57:58.043Z</time></trkpt><trkpt lat="42.85380446344853" lon="11.076225530092866"><ele>3.0</ele><time>2026-04-29T17:57:59.043Z</time></trkpt><trkpt lat="42.854081823861975" lon="11.076132498070764"><ele>3.5</ele><time>2026-04-29T17:58:00.043Z</time></trkpt><trkpt lat="42.854357953269805" lon="11.076036352316054"><ele>4.0</ele><time>2026-04-29T17:58:01.043Z</time></trkpt><trkpt lat="42.854631137827525" lon="11.075944030339073"><ele>4.0</ele><time>2026-04-29T17:58:02.043Z</time></trkpt><trkpt lat="42.854907943989346" lon="11.075857818792361"><ele>4.0</ele><time>2026-04-29T17:58:03.043Z</time></trkpt><trkpt lat="42.85518589732845" lon="11.07578015452917"><ele>4.5</ele><time>2026-04-29T17:58:04.043Z</time></trkpt><trkpt lat="42.85546477257713" lon="11.075705541886512"><ele>5.0</ele><time>2026-04-29T17:58:05.043Z</time></trkpt><trkpt lat="42.855746173390585" lon="11.075634992691326"><ele>6.0</ele><time>2026-04-29T17:58:06.043Z</time></trkpt><trkpt lat="42.85602367981014" lon="11.075570127833894"><ele>7.0</ele><time>2026-04-29T17:58:07.043Z</time></trkpt><trkpt lat="42.8563066371704" lon="11.075512804533867"><ele>7.0</ele><time>2026-04-29T17:58:08.043Z</time></trkpt><trkpt lat="42.8565869047139" lon="11.075460116523729"><ele>7.0</ele><time>2026-04-29T17:58:09.043Z</time></trkpt><trkpt lat="42.856871055715466" lon="11.075416003585557"><ele>8.0</ele><time>2026-04-29T17:58:10.043Z</time></trkpt><trkpt lat="42.85715590171915" lon="11.075379571341088"><ele>9.0</ele><time>2026-04-29T17:58:11.043Z</time></trkpt><trkpt lat="42.85744031783254" lon="11.075345114102655"><ele>9.5</ele><time>2026-04-29T17:58:12.043Z</time></trkpt><trkpt lat="42.85772536146073" lon="11.075316015035035"><ele>10.0</ele><time>2026-04-29T17:58:13.043Z</time></trkpt><trkpt lat="42.85801307775885" lon="11.075293650145415"><ele>10.0</ele><time>2026-04-29T17:58:14.043Z</time></trkpt><trkpt lat="42.85830050457086" lon="11.075277805521338"><ele>10.0</ele><time>2026-04-29T17:58:15.043Z</time></trkpt><trkpt lat="42.858586105000406" lon="11.075268081714992"><ele>11.5</ele><time>2026-04-29T17:58:16.043Z</time></trkpt><trkpt lat="42.858872704182666" lon="11.075265868057258"><ele>13.0</ele><time>2026-04-29T17:58:17.043Z</time></trkpt><trkpt lat="42.859159356295734" lon="11.075271846827428"><ele>13.5</ele><time>2026-04-29T17:58:18.043Z</time></trkpt><trkpt lat="42.8594480089485" lon="11.075282973008637"><ele>14.0</ele><time>2026-04-29T17:58:19.043Z</time></trkpt><trkpt lat="42.859738031503376" lon="11.07529670381638"><ele>14.0</ele><time>2026-04-29T17:58:20.043Z</time></trkpt><trkpt lat="42.86002829271714" lon="11.075313648946253"><ele>14.0</ele><time>2026-04-29T17:58:21.043Z</time></trkpt><trkpt lat="42.86031904106087" lon="11.075332275102033"><ele>14.5</ele><time>2026-04-29T17:58:22.044Z</time></trkpt><trkpt lat="42.86061077071667" lon="11.07535105529088"><ele>15.0</ele><time>2026-04-29T17:58:23.044Z</time></trkpt><trkpt lat="42.86090419791572" lon="11.075372691695918"><ele>16.0</ele><time>2026-04-29T17:58:24.044Z</time></trkpt><trkpt lat="42.86119217926115" lon="11.075396108246826"><ele>17.0</ele><time>2026-04-29T17:58:25.044Z</time></trkpt><trkpt lat="42.86148343575054" lon="11.075418111677973"><ele>17.0</ele><time>2026-04-29T17:58:26.044Z</time></trkpt><trkpt lat="42.86177446460979" lon="11.075438933671908"><ele>17.0</ele><time>2026-04-29T17:58:27.044Z</time></trkpt><trkpt lat="42.862062462440754" lon="11.075460271861107"><ele>17.5</ele><time>2026-04-29T17:58:28.044Z</time></trkpt><trkpt lat="42.862354350057345" lon="11.075484278092453"><ele>18.0</ele><time>2026-04-29T17:58:29.044Z</time></trkpt><trkpt lat="42.86263972934618" lon="11.075503063154901"><ele>17.0</ele><time>2026-04-29T17:58:30.044Z</time></trkpt><trkpt lat="42.86292285690562" lon="11.075526566377011"><ele>16.0</ele><time>2026-04-29T17:58:31.044Z</time></trkpt><trkpt lat="42.8632073544613" lon="11.075552409355328"><ele>16.5</ele><time>2026-04-29T17:58:32.044Z</time></trkpt><trkpt lat="42.86349162485101" lon="11.075578777427605"><ele>17.0</ele><time>2026-04-29T17:58:33.044Z</time></trkpt><trkpt lat="42.8637759608604" lon="11.075614021630285"><ele>17.0</ele><time>2026-04-29T17:58:34.044Z</time></trkpt><trkpt lat="42.864059276190275" lon="11.075656878783311"><ele>17.0</ele><time>2026-04-29T17:58:35.044Z</time></trkpt><trkpt lat="42.86434535545415" lon="11.07570521530297"><ele>16.5</ele><time>2026-04-29T17:58:36.045Z</time></trkpt><trkpt lat="42.86463028832716" lon="11.075757888231498"><ele>16.0</ele><time>2026-04-29T17:58:37.045Z</time></trkpt><trkpt lat="42.864916789133304" lon="11.07581520191728"><ele>16.5</ele><time>2026-04-29T17:58:38.045Z</time></trkpt><trkpt lat="42.8651979961941" lon="11.075880468658998"><ele>17.0</ele><time>2026-04-29T17:58:39.045Z</time></trkpt><trkpt lat="42.86547823643187" lon="11.075953556727196"><ele>17.0</ele><time>2026-04-29T17:58:40.045Z</time></trkpt><trkpt lat="42.8657557777217" lon="11.076028201739435"><ele>17.0</ele><time>2026-04-29T17:58:41.045Z</time></trkpt><trkpt lat="42.86603384110548" lon="11.076100968687342"><ele>16.5</ele><time>2026-04-29T17:58:42.046Z</time></trkpt><trkpt lat="42.86631380403192" lon="11.076174810963161"><ele>16.0</ele><time>2026-04-29T17:58:43.045Z</time></trkpt><trkpt lat="42.866589262989756" lon="11.07624453407037"><ele>17.0</ele><time>2026-04-29T17:58:44.045Z</time></trkpt><trkpt lat="42.866865966777056" lon="11.076315102721544"><ele>18.0</ele><time>2026-04-29T17:58:45.045Z</time></trkpt><trkpt lat="42.867143586328" lon="11.076382613925139"><ele>18.0</ele><time>2026-04-29T17:58:46.045Z</time></trkpt><trkpt lat="42.867419383716474" lon="11.076443276384325"><ele>18.0</ele><time>2026-04-29T17:58:47.045Z</time></trkpt><trkpt lat="42.867697657321905" lon="11.076502270476018"><ele>19.0</ele><time>2026-04-29T17:58:48.045Z</time></trkpt><trkpt lat="42.867972868937805" lon="11.076558909566781"><ele>20.0</ele><time>2026-04-29T17:58:49.045Z</time></trkpt><trkpt lat="42.86823483979103" lon="11.076615370564467"><ele>21.5</ele><time>2026-04-29T17:58:50.045Z</time></trkpt><trkpt lat="42.86849112036333" lon="11.076671826697131"><ele>23.0</ele><time>2026-04-29T17:58:51.045Z</time></trkpt><trkpt lat="42.86874837911935" lon="11.076723492587245"><ele>23.0</ele><time>2026-04-29T17:58:52.045Z</time></trkpt><trkpt lat="42.86900636985635" lon="11.076771260688652"><ele>23.0</ele><time>2026-04-29T17:58:53.045Z</time></trkpt><trkpt lat="42.86926803672497" lon="11.076821767008813"><ele>22.0</ele><time>2026-04-29T17:58:54.045Z</time></trkpt><trkpt lat="42.869531086925704" lon="11.07686782441507"><ele>21.0</ele><time>2026-04-29T17:58:55.045Z</time></trkpt><trkpt lat="42.869798222715694" lon="11.076917594801406"><ele>21.0</ele><time>2026-04-29T17:58:56.045Z</time></trkpt><trkpt lat="42.870066825871355" lon="11.07696878251603"><ele>21.0</ele><time>2026-04-29T17:58:57.045Z</time></trkpt><trkpt lat="42.870337308397914" lon="11.077017931617192"><ele>21.0</ele><time>2026-04-29T17:58:58.045Z</time></trkpt><trkpt lat="42.870604030323996" lon="11.077070418873593"><ele>21.0</ele><time>2026-04-29T17:58:59.045Z</time></trkpt><trkpt lat="42.870872327088264" lon="11.077122911652246"><ele>19.0</ele><time>2026-04-29T17:59:00.045Z</time></trkpt><trkpt lat="42.8711388049484" lon="11.077175903804209"><ele>17.0</ele><time>2026-04-29T17:59:01.045Z</time></trkpt><trkpt lat="42.87139993629352" lon="11.077226104322548"><ele>17.0</ele><time>2026-04-29T17:59:02.045Z</time></trkpt><trkpt lat="42.87166301093313" lon="11.07727719555364"><ele>17.0</ele><time>2026-04-29T17:59:03.045Z</time></trkpt><trkpt lat="42.871921105502814" lon="11.077328287299881"><ele>18.5</ele><time>2026-04-29T17:59:04.045Z</time></trkpt><trkpt lat="42.87217595041077" lon="11.077378006354285"><ele>20.0</ele><time>2026-04-29T17:59:05.045Z</time></trkpt><trkpt lat="42.8724340443723" lon="11.077427677800937"><ele>21.0</ele><time>2026-04-29T17:59:06.045Z</time></trkpt><trkpt lat="42.8726881429109" lon="11.077475756422368"><ele>22.0</ele><time>2026-04-29T17:59:07.045Z</time></trkpt><trkpt lat="42.87293879535737" lon="11.077526035985326"><ele>22.0</ele><time>2026-04-29T17:59:08.045Z</time></trkpt><trkpt lat="42.8731846052716" lon="11.07757594288285"><ele>22.0</ele><time>2026-04-29T17:59:09.045Z</time></trkpt><trkpt lat="42.8734336775704" lon="11.077621851988408"><ele>22.0</ele><time>2026-04-29T17:59:10.045Z</time></trkpt><trkpt lat="42.87368256265868" lon="11.077668517370915"><ele>22.0</ele><time>2026-04-29T17:59:11.045Z</time></trkpt><trkpt lat="42.87393290236948" lon="11.07771770114901"><ele>22.0</ele><time>2026-04-29T17:59:12.045Z</time></trkpt><trkpt lat="42.874179964239175" lon="11.077764415139788"><ele>22.0</ele><time>2026-04-29T17:59:13.045Z</time></trkpt><trkpt lat="42.87442666648096" lon="11.077809201483419"><ele>22.5</ele><time>2026-04-29T17:59:14.045Z</time></trkpt><trkpt lat="42.87467694449115" lon="11.077854437364449"><ele>23.0</ele><time>2026-04-29T17:59:15.045Z</time></trkpt><trkpt lat="42.87492755175896" lon="11.077895127458167"><ele>24.5</ele><time>2026-04-29T17:59:16.045Z</time></trkpt><trkpt lat="42.8751745182107" lon="11.077942972954617"><ele>26.0</ele><time>2026-04-29T17:59:17.045Z</time></trkpt><trkpt lat="42.875425770080646" lon="11.077980375113757"><ele>26.0</ele><time>2026-04-29T17:59:18.045Z</time></trkpt><trkpt lat="42.875678893154806" lon="11.078014043262643"><ele>26.0</ele><time>2026-04-29T17:59:19.045Z</time></trkpt><trkpt lat="42.875931354552534" lon="11.078046852656062"><ele>25.5</ele><time>2026-04-29T17:59:20.045Z</time></trkpt><trkpt lat="42.87618589044595" lon="11.078072011382266"><ele>25.0</ele><time>2026-04-29T17:59:21.045Z</time></trkpt><trkpt lat="42.876444607067235" lon="11.078092086699533"><ele>25.0</ele><time>2026-04-29T17:59:22.045Z</time></trkpt><trkpt lat="42.876705347862966" lon="11.07810237655606"><ele>25.0</ele><time>2026-04-29T17:59:23.045Z</time></trkpt><trkpt lat="42.87696868947449" lon="11.078099700449036"><ele>25.0</ele><time>2026-04-29T17:59:24.045Z</time></trkpt><trkpt lat="42.87723017413492" lon="11.078089134292131"><ele>25.0</ele><time>2026-04-29T17:59:25.045Z</time></trkpt><trkpt lat="42.87749171125267" lon="11.07807461372617"><ele>24.5</ele><time>2026-04-29T17:59:26.045Z</time></trkpt><trkpt lat="42.87773986401172" lon="11.078054574607775"><ele>24.0</ele><time>2026-04-29T17:59:27.045Z</time></trkpt><trkpt lat="42.877972589247946" lon="11.078028192304684"><ele>24.0</ele><time>2026-04-29T17:59:28.045Z</time></trkpt><trkpt lat="42.87820024035891" lon="11.077992150071207"><ele>24.0</ele><time>2026-04-29T17:59:29.045Z</time></trkpt><trkpt lat="42.87841983027564" lon="11.077955787151376"><ele>24.333333333333336</ele><time>2026-04-29T17:59:30.045Z</time></trkpt><trkpt lat="42.87863945490308" lon="11.07791344456905"><ele>24.666666666666668</ele><time>2026-04-29T17:59:31.045Z</time></trkpt><trkpt lat="42.878861381612204" lon="11.07786626206244"><ele>25.0</ele><time>2026-04-29T17:59:32.045Z</time></trkpt><trkpt lat="42.879084192659946" lon="11.07780818114872"><ele>24.666666666666668</ele><time>2026-04-29T17:59:33.045Z</time></trkpt><trkpt lat="42.87929497673492" lon="11.077748775606596"><ele>24.333333333333336</ele><time>2026-04-29T17:59:34.045Z</time></trkpt><trkpt lat="42.87949312366042" lon="11.077686321136316"><ele>24.0</ele><time>2026-04-29T17:59:35.045Z</time></trkpt><trkpt lat="42.87968494127323" lon="11.0776248984184"><ele>24.0</ele><time>2026-04-29T17:59:36.045Z</time></trkpt><trkpt lat="42.87986669342316" lon="11.077562263740077"><ele>24.0</ele><time>2026-04-29T17:59:37.045Z</time></trkpt><trkpt lat="42.88003432056187" lon="11.077496268671057"><ele>24.0</ele><time>2026-04-29T17:59:38.045Z</time></trkpt><trkpt lat="42.880199746850884" lon="11.077431611005341"><ele>23.333333333333332</ele><time>2026-04-29T17:59:39.045Z</time></trkpt><trkpt lat="42.88036152796403" lon="11.07736364212301"><ele>22.666666666666664</ele><time>2026-04-29T17:59:40.045Z</time></trkpt><trkpt lat="42.880524026203965" lon="11.07729692285067"><ele>22.0</ele><time>2026-04-29T17:59:41.045Z</time></trkpt><trkpt lat="42.880683672475435" lon="11.077227558367046"><ele>22.0</ele><time>2026-04-29T17:59:42.045Z</time></trkpt><trkpt lat="42.88084434996661" lon="11.077153823228564"><ele>22.0</ele><time>2026-04-29T17:59:43.045Z</time></trkpt><trkpt lat="42.881005795631935" lon="11.077070727986316"><ele>22.0</ele><time>2026-04-29T17:59:44.045Z</time></trkpt><trkpt lat="42.88117099995539" lon="11.076982588839504"><ele>22.333333333333332</ele><time>2026-04-29T17:59:45.045Z</time></trkpt><trkpt lat="42.88134089520158" lon="11.076889511842888"><ele>22.666666666666668</ele><time>2026-04-29T17:59:46.045Z</time></trkpt><trkpt lat="42.88151135378879" lon="11.076791224733167"><ele>23.0</ele><time>2026-04-29T17:59:47.045Z</time></trkpt><trkpt lat="42.88167553060997" lon="11.076693855177496"><ele>22.666666666666668</ele><time>2026-04-29T17:59:48.045Z</time></trkpt><trkpt lat="42.88183364761907" lon="11.07659493712383"><ele>22.333333333333332</ele><time>2026-04-29T17:59:49.045Z</time></trkpt><trkpt lat="42.881990090939055" lon="11.076492899974793"><ele>22.0</ele><time>2026-04-29T17:59:50.045Z</time></trkpt><trkpt lat="42.882145040519845" lon="11.076389650651123"><ele>22.0</ele><time>2026-04-29T17:59:51.046Z</time></trkpt><trkpt lat="42.88229825495044" lon="11.076282353113552"><ele>22.0</ele><time>2026-04-29T17:59:52.046Z</time></trkpt><trkpt lat="42.8824497682905" lon="11.076171745412454"><ele>22.0</ele><time>2026-04-29T17:59:53.046Z</time></trkpt><trkpt lat="42.88260040164039" lon="11.076057812236643"><ele>21.666666666666664</ele><time>2026-04-29T17:59:54.046Z</time></trkpt><trkpt lat="42.882750219444006" lon="11.075939636030157"><ele>21.333333333333332</ele><time>2026-04-29T17:59:55.046Z</time></trkpt><trkpt lat="42.88290282484069" lon="11.075819374588422"><ele>21.0</ele><time>2026-04-29T17:59:56.046Z</time></trkpt><trkpt lat="42.88305029403135" lon="11.07569849894217"><ele>21.0</ele><time>2026-04-29T17:59:57.046Z</time></trkpt><trkpt lat="42.88319812637151" lon="11.075572827360544"><ele>21.0</ele><time>2026-04-29T17:59:58.046Z</time></trkpt><trkpt lat="42.883345319876625" lon="11.075441951479863"><ele>21.0</ele><time>2026-04-29T17:59:59.046Z</time></trkpt><trkpt lat="42.88349066715034" lon="11.075307035851294"><ele>20.333333333333332</ele><time>2026-04-29T18:00:00.046Z</time></trkpt><trkpt lat="42.883633341138506" lon="11.075172998925552"><ele>19.666666666666664</ele><time>2026-04-29T18:00:01.046Z</time></trkpt><trkpt lat="42.88378164613852" lon="11.075026514011862"><ele>19.0</ele><time>2026-04-29T18:00:02.046Z</time></trkpt><trkpt lat="42.88393454630852" lon="11.074867634749218"><ele>19.0</ele><time>2026-04-29T18:00:03.046Z</time></trkpt><trkpt lat="42.8840913354204" lon="11.074703706977902"><ele>19.0</ele><time>2026-04-29T18:00:04.046Z</time></trkpt><trkpt lat="42.88425363379225" lon="11.074532219425418"><ele>19.0</ele><time>2026-04-29T18:00:05.046Z</time></trkpt><trkpt lat="42.88441764964954" lon="11.074355143357483"><ele>18.666666666666664</ele><time>2026-04-29T18:00:06.046Z</time></trkpt><trkpt lat="42.8845836985535" lon="11.074171165156667"><ele>18.333333333333332</ele><time>2026-04-29T18:00:07.046Z</time></trkpt><trkpt lat="42.884750167100286" lon="11.073990317934745"><ele>18.0</ele><time>2026-04-29T18:00:08.046Z</time></trkpt><trkpt lat="42.88491218070855" lon="11.073807053807284"><ele>18.0</ele><time>2026-04-29T18:00:09.046Z</time></trkpt><trkpt lat="42.885076253180635" lon="11.073622996593148"><ele>18.0</ele><time>2026-04-29T18:00:10.046Z</time></trkpt><trkpt lat="42.88524000834811" lon="11.073441299136222"><ele>18.0</ele><time>2026-04-29T18:00:11.046Z</time></trkpt><trkpt lat="42.88540096386709" lon="11.07325554290991"><ele>18.0</ele><time>2026-04-29T18:00:12.046Z</time></trkpt><trkpt lat="42.8855636393783" lon="11.07306831615359"><ele>18.0</ele><time>2026-04-29T18:00:13.046Z</time></trkpt><trkpt lat="42.88572499185154" lon="11.072882516674886"><ele>18.0</ele><time>2026-04-29T18:00:14.046Z</time></trkpt><trkpt lat="42.88588885120303" lon="11.072699516550598"><ele>18.0</ele><time>2026-04-29T18:00:15.046Z</time></trkpt><trkpt lat="42.88605453017977" lon="11.072518294651752"><ele>18.0</ele><time>2026-04-29T18:00:16.046Z</time></trkpt><trkpt lat="42.88621934010049" lon="11.072335256105744"><ele>18.0</ele><time>2026-04-29T18:00:17.046Z</time></trkpt><trkpt lat="42.88638237876697" lon="11.072150648010266"><ele>18.0</ele><time>2026-04-29T18:00:18.046Z</time></trkpt><trkpt lat="42.88654568486818" lon="11.071966111970317"><ele>18.0</ele><time>2026-04-29T18:00:19.046Z</time></trkpt><trkpt lat="42.886707964381614" lon="11.071783161289698"><ele>18.0</ele><time>2026-04-29T18:00:20.046Z</time></trkpt><trkpt lat="42.88687034934031" lon="11.071599336931005"><ele>17.333333333333332</ele><time>2026-04-29T18:00:21.046Z</time></trkpt><trkpt lat="42.8870365358614" lon="11.071412974847554"><ele>16.666666666666664</ele><time>2026-04-29T18:00:22.046Z</time></trkpt><trkpt lat="42.88720203245634" lon="11.071230220613051"><ele>16.0</ele><time>2026-04-29T18:00:23.046Z</time></trkpt><trkpt lat="42.88736663851586" lon="11.071049662538565"><ele>16.0</ele><time>2026-04-29T18:00:24.046Z</time></trkpt><trkpt lat="42.887524198697506" lon="11.07087546015597"><ele>16.0</ele><time>2026-04-29T18:00:25.046Z</time></trkpt><trkpt lat="42.88767497357018" lon="11.070705495297773"><ele>16.0</ele><time>2026-04-29T18:00:26.046Z</time></trkpt><trkpt lat="42.88782502498087" lon="11.07054110292383"><ele>16.333333333333332</ele><time>2026-04-29T18:00:27.046Z</time></trkpt><trkpt lat="42.887971081178826" lon="11.070376561546997"><ele>16.666666666666668</ele><time>2026-04-29T18:00:28.046Z</time></trkpt><trkpt lat="42.88811314226986" lon="11.070216048705646"><ele>17.0</ele><time>2026-04-29T18:00:29.046Z</time></trkpt><trkpt lat="42.88825618897895" lon="11.070060083236283"><ele>17.0</ele><time>2026-04-29T18:00:30.046Z</time></trkpt><trkpt lat="42.88839626072744" lon="11.069902456875079"><ele>17.0</ele><time>2026-04-29T18:00:31.046Z</time></trkpt><trkpt lat="42.888536765106736" lon="11.069742361724552"><ele>17.0</ele><time>2026-04-29T18:00:32.046Z</time></trkpt><trkpt lat="42.88867866126252" lon="11.069580981363305"><ele>17.0</ele><time>2026-04-29T18:00:33.046Z</time></trkpt><trkpt lat="42.88882534115359" lon="11.069416864169204"><ele>17.0</ele><time>2026-04-29T18:00:34.046Z</time></trkpt><trkpt lat="42.888978031998185" lon="11.069249339828161"><ele>17.0</ele><time>2026-04-29T18:00:35.046Z</time></trkpt><trkpt lat="42.8891330435051" lon="11.069080176480114"><ele>16.666666666666668</ele><time>2026-04-29T18:00:36.046Z</time></trkpt><trkpt lat="42.88929159820992" lon="11.06890549143336"><ele>16.333333333333332</ele><time>2026-04-29T18:00:37.046Z</time></trkpt><trkpt lat="42.88944319355086" lon="11.068736413450972"><ele>16.0</ele><time>2026-04-29T18:00:38.046Z</time></trkpt><trkpt lat="42.88958946954477" lon="11.068570838325254"><ele>16.0</ele><time>2026-04-29T18:00:39.046Z</time></trkpt><trkpt lat="42.889735132441" lon="11.068406517983245"><ele>16.0</ele><time>2026-04-29T18:00:40.046Z</time></trkpt><trkpt lat="42.889878920265524" lon="11.068245478601902"><ele>16.0</ele><time>2026-04-29T18:00:41.046Z</time></trkpt><trkpt lat="42.89002204929097" lon="11.068085660372644"><ele>16.0</ele><time>2026-04-29T18:00:42.048Z</time></trkpt><trkpt lat="42.89016293392796" lon="11.067925623780983"><ele>16.0</ele><time>2026-04-29T18:00:43.048Z</time></trkpt><trkpt lat="42.890302228191814" lon="11.06776540841709"><ele>16.0</ele><time>2026-04-29T18:00:44.048Z</time></trkpt><trkpt lat="42.890442445273194" lon="11.06760401181708"><ele>16.0</ele><time>2026-04-29T18:00:45.049Z</time></trkpt><trkpt lat="42.89058372641515" lon="11.067438788043196"><ele>16.0</ele><time>2026-04-29T18:00:46.049Z</time></trkpt><trkpt lat="42.8907267558203" lon="11.067272630633665"><ele>16.0</ele><time>2026-04-29T18:00:47.049Z</time></trkpt><trkpt lat="42.89086791236985" lon="11.06710131228875"><ele>15.666666666666666</ele><time>2026-04-29T18:00:48.048Z</time></trkpt><trkpt lat="42.891008583450336" lon="11.066921385334949"><ele>15.333333333333332</ele><time>2026-04-29T18:00:49.049Z</time></trkpt><trkpt lat="42.89114861164877" lon="11.066732509069244"><ele>15.0</ele><time>2026-04-29T18:00:50.049Z</time></trkpt><trkpt lat="42.89128848552323" lon="11.066537074689405"><ele>15.0</ele><time>2026-04-29T18:00:51.049Z</time></trkpt><trkpt lat="42.89142632741535" lon="11.06633457243997"><ele>15.0</ele><time>2026-04-29T18:00:52.048Z</time></trkpt><trkpt lat="42.891564976591276" lon="11.066126750263994"><ele>15.0</ele><time>2026-04-29T18:00:53.048Z</time></trkpt><trkpt lat="42.89170097164083" lon="11.065912760692035"><ele>15.0</ele><time>2026-04-29T18:00:54.048Z</time></trkpt><trkpt lat="42.89183896825784" lon="11.065692752366896"><ele>15.0</ele><time>2026-04-29T18:00:55.048Z</time></trkpt><trkpt lat="42.891973095528286" lon="11.065467828978472"><ele>15.0</ele><time>2026-04-29T18:00:56.048Z</time></trkpt><trkpt lat="42.89210058862538" lon="11.065239740195446"><ele>15.0</ele><time>2026-04-29T18:00:57.048Z</time></trkpt><trkpt lat="42.89222481875069" lon="11.065009266974975"><ele>15.0</ele><time>2026-04-29T18:00:58.048Z</time></trkpt><trkpt lat="42.89234530836102" lon="11.064779995691024"><ele>15.0</ele><time>2026-04-29T18:00:59.048Z</time></trkpt><trkpt lat="42.89245745480463" lon="11.064551573453462"><ele>15.0</ele><time>2026-04-29T18:01:00.048Z</time></trkpt><trkpt lat="42.89256848607923" lon="11.064325159824708"><ele>15.0</ele><time>2026-04-29T18:01:01.048Z</time></trkpt><trkpt lat="42.89266947768275" lon="11.064098078570213"><ele>15.0</ele><time>2026-04-29T18:01:02.048Z</time></trkpt><trkpt lat="42.89277003000542" lon="11.063866845618449"><ele>15.0</ele><time>2026-04-29T18:01:03.048Z</time></trkpt><trkpt lat="42.89286821068142" lon="11.063633976999835"><ele>15.0</ele><time>2026-04-29T18:01:04.048Z</time></trkpt><trkpt lat="42.89296268467441" lon="11.063400523703564"><ele>15.0</ele><time>2026-04-29T18:01:05.048Z</time></trkpt><trkpt lat="42.89305819035851" lon="11.063163722225148"><ele>15.333333333333332</ele><time>2026-04-29T18:01:06.048Z</time></trkpt><trkpt lat="42.89315409803044" lon="11.062926935282063"><ele>15.666666666666666</ele><time>2026-04-29T18:01:07.048Z</time></trkpt><trkpt lat="42.8932456570927" lon="11.062690357905463"><ele>16.0</ele><time>2026-04-29T18:01:08.048Z</time></trkpt><trkpt lat="42.89334127085594" lon="11.062453305662089"><ele>15.666666666666666</ele><time>2026-04-29T18:01:09.048Z</time></trkpt><trkpt lat="42.893435791001025" lon="11.062213273608908"><ele>15.333333333333332</ele><time>2026-04-29T18:01:10.048Z</time></trkpt><trkpt lat="42.89352880328254" lon="11.061976720105301"><ele>15.0</ele><time>2026-04-29T18:01:11.049Z</time></trkpt><trkpt lat="42.8936202058833" lon="11.061747936209441"><ele>15.333333333333332</ele><time>2026-04-29T18:01:12.049Z</time></trkpt><trkpt lat="42.89371074394176" lon="11.061522205319552"><ele>15.666666666666666</ele><time>2026-04-29T18:01:13.049Z</time></trkpt><trkpt lat="42.89380115880446" lon="11.061300600404143"><ele>16.0</ele><time>2026-04-29T18:01:14.049Z</time></trkpt><trkpt lat="42.893890967862696" lon="11.061075628034999"><ele>16.0</ele><time>2026-04-29T18:01:15.049Z</time></trkpt><trkpt lat="42.893978695601334" lon="11.060852728425868"><ele>16.0</ele><time>2026-04-29T18:01:16.049Z</time></trkpt><trkpt lat="42.89406441750145" lon="11.060631686396459"><ele>16.0</ele><time>2026-04-29T18:01:17.049Z</time></trkpt><trkpt lat="42.89414821140387" lon="11.060418679731427"><ele>15.333333333333332</ele><time>2026-04-29T18:01:18.049Z</time></trkpt><trkpt lat="42.894230788965395" lon="11.060208720124397"><ele>14.666666666666668</ele><time>2026-04-29T18:01:19.049Z</time></trkpt><trkpt lat="42.89431249059722" lon="11.060008493686675"><ele>14.0</ele><time>2026-04-29T18:01:20.049Z</time></trkpt><trkpt lat="42.89439396675648" lon="11.059805461655719"><ele>14.0</ele><time>2026-04-29T18:01:21.049Z</time></trkpt><trkpt lat="42.89447504830117" lon="11.059600475437607"><ele>14.0</ele><time>2026-04-29T18:01:22.049Z</time></trkpt><trkpt lat="42.89455381932139" lon="11.05939731902544"><ele>14.0</ele><time>2026-04-29T18:01:23.049Z</time></trkpt><trkpt lat="42.89463674351223" lon="11.059183550993103"><ele>13.666666666666668</ele><time>2026-04-29T18:01:24.049Z</time></trkpt><trkpt lat="42.89471930722017" lon="11.058973225818269"><ele>13.333333333333332</ele><time>2026-04-29T18:01:25.049Z</time></trkpt><trkpt lat="42.89480444848224" lon="11.058761613134868"><ele>13.0</ele><time>2026-04-29T18:01:26.049Z</time></trkpt><trkpt lat="42.89489125967579" lon="11.058545282782802"><ele>13.0</ele><time>2026-04-29T18:01:27.049Z</time></trkpt><trkpt lat="42.894978363041325" lon="11.0583290555995"><ele>13.0</ele><time>2026-04-29T18:01:28.049Z</time></trkpt><trkpt lat="42.89506600259309" lon="11.058109070997745"><ele>13.0</ele><time>2026-04-29T18:01:29.049Z</time></trkpt><trkpt lat="42.895153789454525" lon="11.057888537695447"><ele>13.0</ele><time>2026-04-29T18:01:30.049Z</time></trkpt><trkpt lat="42.895242230296475" lon="11.05766691399787"><ele>13.0</ele><time>2026-04-29T18:01:31.049Z</time></trkpt><trkpt lat="42.89532997106936" lon="11.057446260118088"><ele>13.0</ele><time>2026-04-29T18:01:32.049Z</time></trkpt><trkpt lat="42.89542192171722" lon="11.057218330349862"><ele>13.333333333333332</ele><time>2026-04-29T18:01:33.049Z</time></trkpt><trkpt lat="42.895511246755966" lon="11.05698892021271"><ele>13.666666666666668</ele><time>2026-04-29T18:01:34.049Z</time></trkpt><trkpt lat="42.89559977219966" lon="11.056759653097636"><ele>14.0</ele><time>2026-04-29T18:01:35.049Z</time></trkpt><trkpt lat="42.89569114882061" lon="11.05652748311084"><ele>14.0</ele><time>2026-04-29T18:01:36.049Z</time></trkpt><trkpt lat="42.89578347263464" lon="11.056297219694631"><ele>14.0</ele><time>2026-04-29T18:01:37.049Z</time></trkpt><trkpt lat="42.89587665771491" lon="11.05606578065233"><ele>14.0</ele><time>2026-04-29T18:01:38.049Z</time></trkpt><trkpt lat="42.89596808582396" lon="11.055832624885687"><ele>14.666666666666668</ele><time>2026-04-29T18:01:39.049Z</time></trkpt><trkpt lat="42.896059461764075" lon="11.055598464783484"><ele>15.333333333333332</ele><time>2026-04-29T18:01:40.049Z</time></trkpt><trkpt lat="42.89615002322286" lon="11.055366293552225"><ele>16.0</ele><time>2026-04-29T18:01:41.049Z</time></trkpt><trkpt lat="42.89624085331817" lon="11.0551397169227"><ele>16.0</ele><time>2026-04-29T18:01:42.049Z</time></trkpt><trkpt lat="42.89632913801067" lon="11.054918071306533"><ele>16.0</ele><time>2026-04-29T18:01:43.049Z</time></trkpt><trkpt lat="42.89641800027806" lon="11.054698577303395"><ele>16.0</ele><time>2026-04-29T18:01:44.049Z</time></trkpt><trkpt lat="42.89650613310922" lon="11.054476350228585"><ele>16.0</ele><time>2026-04-29T18:01:45.049Z</time></trkpt><trkpt lat="42.896593109909865" lon="11.054255245100949"><ele>16.0</ele><time>2026-04-29T18:01:46.049Z</time></trkpt><trkpt lat="42.89668155336693" lon="11.05402774276617"><ele>16.0</ele><time>2026-04-29T18:01:47.049Z</time></trkpt><trkpt lat="42.896768528068726" lon="11.053802633734321"><ele>15.666666666666666</ele><time>2026-04-29T18:01:48.049Z</time></trkpt><trkpt lat="42.89685994144704" lon="11.05357618545026"><ele>15.333333333333332</ele><time>2026-04-29T18:01:49.049Z</time></trkpt><trkpt lat="42.89695298979314" lon="11.053347257037403"><ele>15.0</ele><time>2026-04-29T18:01:50.049Z</time></trkpt><trkpt lat="42.89704449290596" lon="11.053118747567893"><ele>14.666666666666668</ele><time>2026-04-29T18:01:51.049Z</time></trkpt><trkpt lat="42.89713598017211" lon="11.052886087661173"><ele>14.333333333333334</ele><time>2026-04-29T18:01:52.049Z</time></trkpt><trkpt lat="42.89723011642239" lon="11.052652017508093"><ele>14.0</ele><time>2026-04-29T18:01:53.049Z</time></trkpt><trkpt lat="42.89732181388229" lon="11.052417313043723"><ele>14.0</ele><time>2026-04-29T18:01:54.049Z</time></trkpt><trkpt lat="42.897413628440496" lon="11.052184448724455"><ele>14.0</ele><time>2026-04-29T18:01:55.049Z</time></trkpt><trkpt lat="42.89750543531858" lon="11.051950217737676"><ele>14.0</ele><time>2026-04-29T18:01:56.049Z</time></trkpt><trkpt lat="42.89759842715871" lon="11.051712275103347"><ele>14.666666666666668</ele><time>2026-04-29T18:01:57.049Z</time></trkpt><trkpt lat="42.8976918697314" lon="11.051473305037849"><ele>15.333333333333332</ele><time>2026-04-29T18:01:58.049Z</time></trkpt><trkpt lat="42.89778744347824" lon="11.051232659547344"><ele>16.0</ele><time>2026-04-29T18:01:59.049Z</time></trkpt><trkpt lat="42.89788302503838" lon="11.050992641739835"><ele>16.0</ele><time>2026-04-29T18:02:00.049Z</time></trkpt><trkpt lat="42.897979068542185" lon="11.050757972762272"><ele>16.0</ele><time>2026-04-29T18:02:01.049Z</time></trkpt><trkpt lat="42.89807177950282" lon="11.05052811622678"><ele>16.0</ele><time>2026-04-29T18:02:02.049Z</time></trkpt><trkpt lat="42.898169575455334" lon="11.050296666971496"><ele>16.0</ele><time>2026-04-29T18:02:03.049Z</time></trkpt><trkpt lat="42.89826699981977" lon="11.050063407880048"><ele>16.0</ele><time>2026-04-29T18:02:04.049Z</time></trkpt><trkpt lat="42.89836915911676" lon="11.049833932017469"><ele>16.0</ele><time>2026-04-29T18:02:05.049Z</time></trkpt><trkpt lat="42.898474839412714" lon="11.049605214741142"><ele>16.0</ele><time>2026-04-29T18:02:06.049Z</time></trkpt><trkpt lat="42.89858307765316" lon="11.04937904971634"><ele>16.0</ele><time>2026-04-29T18:02:07.049Z</time></trkpt><trkpt lat="42.898690355080284" lon="11.04915116331915"><ele>16.0</ele><time>2026-04-29T18:02:08.049Z</time></trkpt><trkpt lat="42.898807576907735" lon="11.048923305382148"><ele>15.333333333333332</ele><time>2026-04-29T18:02:09.049Z</time></trkpt><trkpt lat="42.89892941394391" lon="11.04869974553744"><ele>14.666666666666668</ele><time>2026-04-29T18:02:10.049Z</time></trkpt><trkpt lat="42.89905216099" lon="11.048480245881464"><ele>14.0</ele><time>2026-04-29T18:02:11.049Z</time></trkpt><trkpt lat="42.89917562801376" lon="11.048266842753787"><ele>15.0</ele><time>2026-04-29T18:02:12.049Z</time></trkpt><trkpt lat="42.89930019109779" lon="11.04806154243839"><ele>16.0</ele><time>2026-04-29T18:02:13.049Z</time></trkpt><trkpt lat="42.89942467493763" lon="11.047857310630297"><ele>17.0</ele><time>2026-04-29T18:02:14.049Z</time></trkpt><trkpt lat="42.899550330794014" lon="11.047657463296895"><ele>17.0</ele><time>2026-04-29T18:02:15.049Z</time></trkpt><trkpt lat="42.8996715250799" lon="11.047475020682844"><ele>17.0</ele><time>2026-04-29T18:02:16.049Z</time></trkpt><trkpt lat="42.89978922972092" lon="11.047311002823871"><ele>17.0</ele><time>2026-04-29T18:02:17.049Z</time></trkpt><trkpt lat="42.89990051394279" lon="11.047151219962169"><ele>16.666666666666668</ele><time>2026-04-29T18:02:18.049Z</time></trkpt><trkpt lat="42.90000512497846" lon="11.046998492551676"><ele>16.333333333333332</ele><time>2026-04-29T18:02:19.049Z</time></trkpt><trkpt lat="42.90010670079656" lon="11.046832519424504"><ele>16.0</ele><time>2026-04-29T18:02:20.049Z</time></trkpt><trkpt lat="42.90021826411476" lon="11.04666566187215"><ele>16.0</ele><time>2026-04-29T18:02:21.049Z</time></trkpt><trkpt lat="42.90033766609934" lon="11.046501172533402"><ele>16.0</ele><time>2026-04-29T18:02:22.049Z</time></trkpt><trkpt lat="42.90045927212819" lon="11.046327657349192"><ele>16.0</ele><time>2026-04-29T18:02:23.049Z</time></trkpt><trkpt lat="42.90058433953766" lon="11.046150114771663"><ele>16.0</ele><time>2026-04-29T18:02:24.049Z</time></trkpt><trkpt lat="42.900711537886494" lon="11.045965830893998"><ele>16.0</ele><time>2026-04-29T18:02:25.049Z</time></trkpt><trkpt lat="42.90084090848977" lon="11.045780242742865"><ele>16.0</ele><time>2026-04-29T18:02:26.049Z</time></trkpt><trkpt lat="42.90097173571548" lon="11.045590743489454"><ele>17.333333333333332</ele><time>2026-04-29T18:02:27.049Z</time></trkpt><trkpt lat="42.901102475156506" lon="11.045396734148262"><ele>18.666666666666668</ele><time>2026-04-29T18:02:28.049Z</time></trkpt><trkpt lat="42.90123226014741" lon="11.045204863005138"><ele>20.0</ele><time>2026-04-29T18:02:29.049Z</time></trkpt><trkpt lat="42.90136412167789" lon="11.045007537615488"><ele>19.333333333333336</ele><time>2026-04-29T18:02:30.049Z</time></trkpt><trkpt lat="42.901499503721894" lon="11.04480282322226"><ele>18.666666666666668</ele><time>2026-04-29T18:02:31.049Z</time></trkpt><trkpt lat="42.90164364509101" lon="11.044583740902949"><ele>18.0</ele><time>2026-04-29T18:02:32.049Z</time></trkpt><trkpt lat="42.90178923431881" lon="11.044355856869206"><ele>17.5</ele><time>2026-04-29T18:02:33.05Z</time></trkpt><trkpt lat="42.90193803710331" lon="11.044119152817375"><ele>17.0</ele><time>2026-04-29T18:02:34.05Z</time></trkpt><trkpt lat="42.90208730444831" lon="11.04386886283149"><ele>17.0</ele><time>2026-04-29T18:02:35.05Z</time></trkpt><trkpt lat="42.90223964564526" lon="11.043612631258528"><ele>17.0</ele><time>2026-04-29T18:02:36.05Z</time></trkpt><trkpt lat="42.90239018563606" lon="11.04334806778801"><ele>17.0</ele><time>2026-04-29T18:02:37.05Z</time></trkpt><trkpt lat="42.90253888044067" lon="11.043074174333318"><ele>17.0</ele><time>2026-04-29T18:02:38.05Z</time></trkpt><trkpt lat="42.90268626912124" lon="11.042790582024255"><ele>17.0</ele><time>2026-04-29T18:02:39.05Z</time></trkpt><trkpt lat="42.90283317958912" lon="11.042501238641002"><ele>17.0</ele><time>2026-04-29T18:02:40.05Z</time></trkpt><trkpt lat="42.90297748490687" lon="11.042202537557664"><ele>16.0</ele><time>2026-04-29T18:02:41.05Z</time></trkpt><trkpt lat="42.90311611299432" lon="11.041898645942306"><ele>15.0</ele><time>2026-04-29T18:02:42.05Z</time></trkpt><trkpt lat="42.9032495872388" lon="11.041590743996146"><ele>15.0</ele><time>2026-04-29T18:02:43.05Z</time></trkpt><trkpt lat="42.90337735318692" lon="11.041279425525973"><ele>15.0</ele><time>2026-04-29T18:02:44.05Z</time></trkpt><trkpt lat="42.90350276740191" lon="11.040965109063336"><ele>15.0</ele><time>2026-04-29T18:02:45.05Z</time></trkpt><trkpt lat="42.90362124328409" lon="11.040643003091468"><ele>15.0</ele><time>2026-04-29T18:02:46.05Z</time></trkpt><trkpt lat="42.90374015702421" lon="11.040314963578652"><ele>15.0</ele><time>2026-04-29T18:02:47.05Z</time></trkpt><trkpt lat="42.903855953890314" lon="11.03998229786616"><ele>15.0</ele><time>2026-04-29T18:02:48.051Z</time></trkpt><trkpt lat="42.903966473218794" lon="11.03964440031019"><ele>15.5</ele><time>2026-04-29T18:02:49.051Z</time></trkpt><trkpt lat="42.90407706077659" lon="11.03930663527498"><ele>16.0</ele><time>2026-04-29T18:02:50.051Z</time></trkpt><trkpt lat="42.90418287501731" lon="11.038962960827636"><ele>16.0</ele><time>2026-04-29T18:02:51.052Z</time></trkpt><trkpt lat="42.904283651245386" lon="11.038618194028226"><ele>16.0</ele><time>2026-04-29T18:02:52.051Z</time></trkpt><trkpt lat="42.90438329900769" lon="11.038267552690762"><ele>15.5</ele><time>2026-04-29T18:02:53.051Z</time></trkpt><trkpt lat="42.904483958239396" lon="11.037919066380882"><ele>15.0</ele><time>2026-04-29T18:02:54.051Z</time></trkpt><trkpt lat="42.904583754871815" lon="11.037566704311075"><ele>15.5</ele><time>2026-04-29T18:02:55.051Z</time></trkpt><trkpt lat="42.904684995846566" lon="11.037213802644024"><ele>16.0</ele><time>2026-04-29T18:02:56.051Z</time></trkpt><trkpt lat="42.90478891688568" lon="11.036861529087462"><ele>16.5</ele><time>2026-04-29T18:02:57.051Z</time></trkpt><trkpt lat="42.90489347638979" lon="11.036502953431885"><ele>17.0</ele><time>2026-04-29T18:02:58.051Z</time></trkpt><trkpt lat="42.90499649517274" lon="11.036144682065661"><ele>16.5</ele><time>2026-04-29T18:02:59.051Z</time></trkpt><trkpt lat="42.905103124439904" lon="11.0357790259166"><ele>16.0</ele><time>2026-04-29T18:03:00.051Z</time></trkpt><trkpt lat="42.90520988774886" lon="11.0354170421244"><ele>16.0</ele><time>2026-04-29T18:03:01.052Z</time></trkpt><trkpt lat="42.90532077087167" lon="11.035054037525827"><ele>16.0</ele><time>2026-04-29T18:03:02.052Z</time></trkpt><trkpt lat="42.90543814447178" lon="11.034689725252498"><ele>15.5</ele><time>2026-04-29T18:03:03.052Z</time></trkpt><trkpt lat="42.90555915129327" lon="11.034329048286937"><ele>15.0</ele><time>2026-04-29T18:03:04.052Z</time></trkpt><trkpt lat="42.90568534321341" lon="11.033969269636517"><ele>15.5</ele><time>2026-04-29T18:03:05.052Z</time></trkpt><trkpt lat="42.905815016106025" lon="11.033612829226822"><ele>16.0</ele><time>2026-04-29T18:03:06.052Z</time></trkpt><trkpt lat="42.905947185011044" lon="11.033254619620255"><ele>16.0</ele><time>2026-04-29T18:03:07.052Z</time></trkpt><trkpt lat="42.90608144790674" lon="11.032895208719491"><ele>16.0</ele><time>2026-04-29T18:03:08.052Z</time></trkpt><trkpt lat="42.906213540631185" lon="11.03253839024217"><ele>17.0</ele><time>2026-04-29T18:03:09.052Z</time></trkpt><trkpt lat="42.90634516903341" lon="11.03217979544183"><ele>18.0</ele><time>2026-04-29T18:03:10.052Z</time></trkpt><trkpt lat="42.90647775427708" lon="11.031829660422359"><ele>18.0</ele><time>2026-04-29T18:03:11.052Z</time></trkpt><trkpt lat="42.90661164890473" lon="11.031481428363687"><ele>18.0</ele><time>2026-04-29T18:03:12.052Z</time></trkpt><trkpt lat="42.906745148636" lon="11.031136179741264"><ele>17.5</ele><time>2026-04-29T18:03:13.052Z</time></trkpt><trkpt lat="42.90687994938019" lon="11.030786214548758"><ele>17.0</ele><time>2026-04-29T18:03:14.052Z</time></trkpt><trkpt lat="42.90701169715283" lon="11.030447053282682"><ele>17.0</ele><time>2026-04-29T18:03:15.052Z</time></trkpt><trkpt lat="42.90714036042216" lon="11.030105606813947"><ele>17.0</ele><time>2026-04-29T18:03:16.052Z</time></trkpt><trkpt lat="42.907268841275005" lon="11.029767445071942"><ele>17.0</ele><time>2026-04-29T18:03:17.052Z</time></trkpt><trkpt lat="42.90739687988962" lon="11.029428349951035"><ele>17.0</ele><time>2026-04-29T18:03:18.052Z</time></trkpt><trkpt lat="42.907524779121765" lon="11.029086655115856"><ele>17.0</ele><time>2026-04-29T18:03:19.052Z</time></trkpt><trkpt lat="42.90765159252597" lon="11.028750266030087"><ele>17.0</ele><time>2026-04-29T18:03:20.052Z</time></trkpt><trkpt lat="42.90777552982109" lon="11.02841045445529"><ele>17.5</ele><time>2026-04-29T18:03:21.052Z</time></trkpt><trkpt lat="42.90789673428702" lon="11.028077076468527"><ele>18.0</ele><time>2026-04-29T18:03:22.052Z</time></trkpt><trkpt lat="42.90802131683512" lon="11.02774687805097"><ele>18.0</ele><time>2026-04-29T18:03:23.052Z</time></trkpt><trkpt lat="42.90814714197169" lon="11.027412447030635"><ele>18.0</ele><time>2026-04-29T18:03:24.052Z</time></trkpt><trkpt lat="42.9082704529475" lon="11.02708640722361"><ele>18.0</ele><time>2026-04-29T18:03:25.052Z</time></trkpt><trkpt lat="42.90839298738604" lon="11.026761718281445"><ele>18.0</ele><time>2026-04-29T18:03:26.052Z</time></trkpt><trkpt lat="42.90851767008018" lon="11.026436149399606"><ele>17.5</ele><time>2026-04-29T18:03:27.052Z</time></trkpt><trkpt lat="42.908641541132525" lon="11.026108422828381"><ele>17.0</ele><time>2026-04-29T18:03:28.052Z</time></trkpt><trkpt lat="42.908763900032234" lon="11.02578369434857"><ele>17.0</ele><time>2026-04-29T18:03:29.052Z</time></trkpt><trkpt lat="42.90888513734719" lon="11.025456499981736"><ele>17.0</ele><time>2026-04-29T18:03:30.052Z</time></trkpt><trkpt lat="42.90900636620294" lon="11.025131738349916"><ele>16.0</ele><time>2026-04-29T18:03:31.052Z</time></trkpt><trkpt lat="42.909130507720135" lon="11.02480398292256"><ele>15.0</ele><time>2026-04-29T18:03:32.052Z</time></trkpt><trkpt lat="42.909254144801466" lon="11.024473972777994"><ele>16.0</ele><time>2026-04-29T18:03:33.052Z</time></trkpt><trkpt lat="42.90937903181801" lon="11.024141602789912"><ele>17.0</ele><time>2026-04-29T18:03:34.052Z</time></trkpt><trkpt lat="42.90950486775217" lon="11.023802841986058"><ele>17.0</ele><time>2026-04-29T18:03:35.052Z</time></trkpt><trkpt lat="42.90963159319255" lon="11.023463830834629"><ele>17.0</ele><time>2026-04-29T18:03:36.052Z</time></trkpt><trkpt lat="42.909759648700565" lon="11.02312675121043"><ele>17.5</ele><time>2026-04-29T18:03:37.052Z</time></trkpt><trkpt lat="42.90988859045965" lon="11.02278352439602"><ele>18.0</ele><time>2026-04-29T18:03:38.052Z</time></trkpt><trkpt lat="42.910016636068775" lon="11.022440290745346"><ele>18.5</ele><time>2026-04-29T18:03:39.052Z</time></trkpt><trkpt lat="42.910145163247385" lon="11.02209684792529"><ele>19.0</ele><time>2026-04-29T18:03:40.052Z</time></trkpt><trkpt lat="42.91027552670983" lon="11.021751885223614"><ele>19.0</ele><time>2026-04-29T18:03:41.052Z</time></trkpt><trkpt lat="42.9104023606379" lon="11.021408692029102"><ele>19.0</ele><time>2026-04-29T18:03:42.052Z</time></trkpt><trkpt lat="42.9105308369343" lon="11.021066596345127"><ele>19.5</ele><time>2026-04-29T18:03:43.052Z</time></trkpt><trkpt lat="42.91065941522892" lon="11.020722750071915"><ele>20.0</ele><time>2026-04-29T18:03:44.052Z</time></trkpt><trkpt lat="42.910784337725815" lon="11.02038759351884"><ele>19.0</ele><time>2026-04-29T18:03:45.052Z</time></trkpt><trkpt lat="42.91091376261999" lon="11.020041892300902"><ele>18.0</ele><time>2026-04-29T18:03:46.052Z</time></trkpt><trkpt lat="42.91103980813833" lon="11.019703333130485"><ele>18.0</ele><time>2026-04-29T18:03:47.052Z</time></trkpt><trkpt lat="42.91117135978403" lon="11.019365281565994"><ele>18.0</ele><time>2026-04-29T18:03:48.052Z</time></trkpt><trkpt lat="42.91130443988452" lon="11.019024998686353"><ele>18.0</ele><time>2026-04-29T18:03:49.052Z</time></trkpt><trkpt lat="42.911442655471966" lon="11.01869040488629"><ele>18.0</ele><time>2026-04-29T18:03:50.052Z</time></trkpt><trkpt lat="42.911586436923734" lon="11.018355905488976"><ele>17.5</ele><time>2026-04-29T18:03:51.052Z</time></trkpt><trkpt lat="42.91173676533245" lon="11.018030268751081"><ele>17.0</ele><time>2026-04-29T18:03:52.052Z</time></trkpt><trkpt lat="42.91189342274731" lon="11.017706836908499"><ele>19.5</ele><time>2026-04-29T18:03:53.052Z</time></trkpt><trkpt lat="42.91205736271571" lon="11.017383639907532"><ele>22.0</ele><time>2026-04-29T18:03:54.052Z</time></trkpt><trkpt lat="42.91223180702471" lon="11.017071923597028"><ele>22.0</ele><time>2026-04-29T18:03:55.052Z</time></trkpt><trkpt lat="42.91241141448296" lon="11.0167661054199"><ele>22.0</ele><time>2026-04-29T18:03:56.052Z</time></trkpt><trkpt lat="42.91260114772359" lon="11.016470873004877"><ele>24.0</ele><time>2026-04-29T18:03:57.052Z</time></trkpt><trkpt lat="42.91279639497964" lon="11.016184597055581"><ele>26.0</ele><time>2026-04-29T18:03:58.052Z</time></trkpt><trkpt lat="42.91299849123875" lon="11.015903897070046"><ele>23.5</ele><time>2026-04-29T18:03:59.052Z</time></trkpt><trkpt lat="42.91320951793382" lon="11.015636785658725"><ele>21.0</ele><time>2026-04-29T18:04:00.052Z</time></trkpt><trkpt lat="42.913428438175046" lon="11.01537182655496"><ele>21.0</ele><time>2026-04-29T18:04:01.052Z</time></trkpt><trkpt lat="42.91365140187463" lon="11.01512792240666"><ele>21.0</ele><time>2026-04-29T18:04:02.052Z</time></trkpt><trkpt lat="42.91388003671717" lon="11.014888724034234"><ele>20.0</ele><time>2026-04-29T18:04:03.052Z</time></trkpt><trkpt lat="42.91411055902835" lon="11.014658618244784"><ele>19.0</ele><time>2026-04-29T18:04:04.052Z</time></trkpt><trkpt lat="42.91433808206941" lon="11.01443126284695"><ele>19.0</ele><time>2026-04-29T18:04:05.052Z</time></trkpt><trkpt lat="42.91456474695275" lon="11.01420882896555"><ele>19.0</ele><time>2026-04-29T18:04:06.052Z</time></trkpt><trkpt lat="42.914788424622856" lon="11.013984702523182"><ele>18.5</ele><time>2026-04-29T18:04:07.052Z</time></trkpt><trkpt lat="42.91501201006295" lon="11.013759545455482"><ele>18.0</ele><time>2026-04-29T18:04:08.053Z</time></trkpt><trkpt lat="42.915230725030554" lon="11.013537766392773"><ele>19.0</ele><time>2026-04-29T18:04:09.053Z</time></trkpt><trkpt lat="42.91544714623304" lon="11.013316240774536"><ele>20.0</ele><time>2026-04-29T18:04:10.053Z</time></trkpt><trkpt lat="42.91566364182957" lon="11.013094454825199"><ele>20.0</ele><time>2026-04-29T18:04:11.053Z</time></trkpt><trkpt lat="42.91587705066964" lon="11.012865693573948"><ele>20.0</ele><time>2026-04-29T18:04:12.053Z</time></trkpt><trkpt lat="42.91608222972308" lon="11.012630622119245"><ele>20.0</ele><time>2026-04-29T18:04:13.053Z</time></trkpt><trkpt lat="42.91628532424461" lon="11.012389749815267"><ele>20.0</ele><time>2026-04-29T18:04:14.053Z</time></trkpt><trkpt lat="42.91648227483027" lon="11.012142868128992"><ele>20.0</ele><time>2026-04-29T18:04:15.053Z</time></trkpt><trkpt lat="42.916675115835915" lon="11.011891365524495"><ele>20.0</ele><time>2026-04-29T18:04:16.053Z</time></trkpt><trkpt lat="42.91686396421502" lon="11.011631687345144"><ele>20.0</ele><time>2026-04-29T18:04:17.053Z</time></trkpt><trkpt lat="42.91704265429084" lon="11.011364838667397"><ele>20.0</ele><time>2026-04-29T18:04:18.053Z</time></trkpt><trkpt lat="42.91721646643487" lon="11.011090694693843"><ele>19.0</ele><time>2026-04-29T18:04:19.053Z</time></trkpt><trkpt lat="42.917384927382486" lon="11.010805660469869"><ele>18.0</ele><time>2026-04-29T18:04:20.053Z</time></trkpt><trkpt lat="42.917545443677" lon="11.010516075168418"><ele>18.0</ele><time>2026-04-29T18:04:21.053Z</time></trkpt><trkpt lat="42.91769668542612" lon="11.010216667399446"><ele>18.0</ele><time>2026-04-29T18:04:22.053Z</time></trkpt><trkpt lat="42.9178416473439" lon="11.009915168272673"><ele>18.0</ele><time>2026-04-29T18:04:23.053Z</time></trkpt><trkpt lat="42.91797675619397" lon="11.009603427574268"><ele>18.0</ele><time>2026-04-29T18:04:24.053Z</time></trkpt><trkpt lat="42.918117942323576" lon="11.00929346254591"><ele>18.5</ele><time>2026-04-29T18:04:25.053Z</time></trkpt><trkpt lat="42.91825238717142" lon="11.00897803148358"><ele>19.0</ele><time>2026-04-29T18:04:26.053Z</time></trkpt><trkpt lat="42.918376838835975" lon="11.008657711882739"><ele>18.5</ele><time>2026-04-29T18:04:27.053Z</time></trkpt><trkpt lat="42.91850004784807" lon="11.008339792681133"><ele>18.0</ele><time>2026-04-29T18:04:28.053Z</time></trkpt><trkpt lat="42.91862177340579" lon="11.008015790454548"><ele>18.0</ele><time>2026-04-29T18:04:29.053Z</time></trkpt><trkpt lat="42.91874193359895" lon="11.007693530688995"><ele>18.0</ele><time>2026-04-29T18:04:30.053Z</time></trkpt><trkpt lat="42.91886292902484" lon="11.007370430540792"><ele>17.5</ele><time>2026-04-29T18:04:31.053Z</time></trkpt><trkpt lat="42.91898405732141" lon="11.007045466367952"><ele>17.0</ele><time>2026-04-29T18:04:32.053Z</time></trkpt><trkpt lat="42.91910542609014" lon="11.006722190054587"><ele>19.0</ele><time>2026-04-29T18:04:33.053Z</time></trkpt><trkpt lat="42.919229816561476" lon="11.006393609780313"><ele>21.0</ele><time>2026-04-29T18:04:34.053Z</time></trkpt><trkpt lat="42.9193518165778" lon="11.006067259330122"><ele>25.0</ele><time>2026-04-29T18:04:35.053Z</time></trkpt><trkpt lat="42.91947208330914" lon="11.005737163672624"><ele>29.0</ele><time>2026-04-29T18:04:36.053Z</time></trkpt><trkpt lat="42.91959635110047" lon="11.005406090185103"><ele>29.0</ele><time>2026-04-29T18:04:37.053Z</time></trkpt><trkpt lat="42.91971831083666" lon="11.005074268199518"><ele>29.0</ele><time>2026-04-29T18:04:38.053Z</time></trkpt><trkpt lat="42.9198435391604" lon="11.004741676440059"><ele>27.0</ele><time>2026-04-29T18:04:39.053Z</time></trkpt><trkpt lat="42.9199687512721" lon="11.004406961607858"><ele>25.0</ele><time>2026-04-29T18:04:40.053Z</time></trkpt><trkpt lat="42.920091756100426" lon="11.004070056249713"><ele>24.5</ele><time>2026-04-29T18:04:41.053Z</time></trkpt><trkpt lat="42.9202185299057" lon="11.00373088049406"><ele>24.0</ele><time>2026-04-29T18:04:42.053Z</time></trkpt><trkpt lat="42.92034470932892" lon="11.003392273827975"><ele>23.0</ele><time>2026-04-29T18:04:43.053Z</time></trkpt><trkpt lat="42.920468337833995" lon="11.003053734752045"><ele>22.0</ele><time>2026-04-29T18:04:44.053Z</time></trkpt><trkpt lat="42.92059555479717" lon="11.002715472285875"><ele>22.0</ele><time>2026-04-29T18:04:45.053Z</time></trkpt><trkpt lat="42.92072674769483" lon="11.002375218418154"><ele>22.0</ele><time>2026-04-29T18:04:46.053Z</time></trkpt><trkpt lat="42.920855239968944" lon="11.00203330286009"><ele>23.0</ele><time>2026-04-29T18:04:47.053Z</time></trkpt><trkpt lat="42.9209837060873" lon="11.001688559253063"><ele>24.0</ele><time>2026-04-29T18:04:48.053Z</time></trkpt><trkpt lat="42.92111151838309" lon="11.001346463079441"><ele>24.5</ele><time>2026-04-29T18:04:49.053Z</time></trkpt><trkpt lat="42.92123769988063" lon="11.001007687635179"><ele>25.0</ele><time>2026-04-29T18:04:50.053Z</time></trkpt><trkpt lat="42.92136206465764" lon="11.000664080086054"><ele>25.0</ele><time>2026-04-29T18:04:51.053Z</time></trkpt><trkpt lat="42.92148803383888" lon="11.000322186243901"><ele>25.0</ele><time>2026-04-29T18:04:52.053Z</time></trkpt><trkpt lat="42.921612521151275" lon="10.999981754956094"><ele>25.5</ele><time>2026-04-29T18:04:53.053Z</time></trkpt><trkpt lat="42.92174128104565" lon="10.999639097070624"><ele>26.0</ele><time>2026-04-29T18:04:54.054Z</time></trkpt><trkpt lat="42.92186418334444" lon="10.99929103346697"><ele>25.0</ele><time>2026-04-29T18:04:55.054Z</time></trkpt><trkpt lat="42.92197750819198" lon="10.998944501013586"><ele>24.0</ele><time>2026-04-29T18:04:56.054Z</time></trkpt><trkpt lat="42.92208920953414" lon="10.998593513071954"><ele>24.5</ele><time>2026-04-29T18:04:57.055Z</time></trkpt><trkpt lat="42.92219346983064" lon="10.998234934087092"><ele>25.0</ele><time>2026-04-29T18:04:58.055Z</time></trkpt><trkpt lat="42.922298841809386" lon="10.99788091624955"><ele>25.0</ele><time>2026-04-29T18:04:59.055Z</time></trkpt><trkpt lat="42.92240193548461" lon="10.997528191112366"><ele>25.0</ele><time>2026-04-29T18:05:00.055Z</time></trkpt><trkpt lat="42.922493661363035" lon="10.997162678891554"><ele>25.5</ele><time>2026-04-29T18:05:01.054Z</time></trkpt><trkpt lat="42.92256435703155" lon="10.9967965609248"><ele>26.0</ele><time>2026-04-29T18:05:02.054Z</time></trkpt><trkpt lat="42.922632976799314" lon="10.996422487075906"><ele>25.0</ele><time>2026-04-29T18:05:03.055Z</time></trkpt><trkpt lat="42.92269792243958" lon="10.996050486407173"><ele>24.0</ele><time>2026-04-29T18:05:04.055Z</time></trkpt><trkpt lat="42.922751564397494" lon="10.995675862490392"><ele>24.0</ele><time>2026-04-29T18:05:05.055Z</time></trkpt><trkpt lat="42.92279953027991" lon="10.995295705011662"><ele>24.0</ele><time>2026-04-29T18:05:06.055Z</time></trkpt><trkpt lat="42.92283863235767" lon="10.99491607575351"><ele>24.0</ele><time>2026-04-29T18:05:07.055Z</time></trkpt><trkpt lat="42.92286915192056" lon="10.994536238816284"><ele>24.0</ele><time>2026-04-29T18:05:08.055Z</time></trkpt><trkpt lat="42.92288866855584" lon="10.994156952108359"><ele>24.0</ele><time>2026-04-29T18:05:09.055Z</time></trkpt><trkpt lat="42.92290314322067" lon="10.993774925611302"><ele>24.0</ele><time>2026-04-29T18:05:10.055Z</time></trkpt><trkpt lat="42.922909243432784" lon="10.993391673019884"><ele>23.5</ele><time>2026-04-29T18:05:11.055Z</time></trkpt><trkpt lat="42.9229036986926" lon="10.993007103703384"><ele>23.0</ele><time>2026-04-29T18:05:12.055Z</time></trkpt><trkpt lat="42.922891703994345" lon="10.992623341049445"><ele>23.0</ele><time>2026-04-29T18:05:13.055Z</time></trkpt><trkpt lat="42.922871600526804" lon="10.992239873635558"><ele>23.0</ele><time>2026-04-29T18:05:14.055Z</time></trkpt><trkpt lat="42.9228372167547" lon="10.991861315144519"><ele>24.0</ele><time>2026-04-29T18:05:15.055Z</time></trkpt><trkpt lat="42.92280383168505" lon="10.99147797059467"><ele>25.0</ele><time>2026-04-29T18:05:16.055Z</time></trkpt><trkpt lat="42.9227644791129" lon="10.991101639008782"><ele>26.0</ele><time>2026-04-29T18:05:17.055Z</time></trkpt><trkpt lat="42.922718774747125" lon="10.990720865391355"><ele>27.0</ele><time>2026-04-29T18:05:18.055Z</time></trkpt><trkpt lat="42.922671769913485" lon="10.990342287988362"><ele>28.0</ele><time>2026-04-29T18:05:19.055Z</time></trkpt><trkpt lat="42.92262060530172" lon="10.98996892071082"><ele>29.0</ele><time>2026-04-29T18:05:20.055Z</time></trkpt><trkpt lat="42.92256705052178" lon="10.989592917611036"><ele>27.5</ele><time>2026-04-29T18:05:21.055Z</time></trkpt><trkpt lat="42.92251073224541" lon="10.989218546612882"><ele>26.0</ele><time>2026-04-29T18:05:22.055Z</time></trkpt><trkpt lat="42.922455739989346" lon="10.988840962024849"><ele>26.0</ele><time>2026-04-29T18:05:23.055Z</time></trkpt><trkpt lat="42.92239540799081" lon="10.98846472254792"><ele>26.0</ele><time>2026-04-29T18:05:24.055Z</time></trkpt><trkpt lat="42.92233868165948" lon="10.988088873687696"><ele>26.0</ele><time>2026-04-29T18:05:25.055Z</time></trkpt><trkpt lat="42.92228035185834" lon="10.987712113614853"><ele>26.0</ele><time>2026-04-29T18:05:26.055Z</time></trkpt><trkpt lat="42.92222351386703" lon="10.987336255801914"><ele>26.5</ele><time>2026-04-29T18:05:27.055Z</time></trkpt><trkpt lat="42.922163987378944" lon="10.986960839394087"><ele>27.0</ele><time>2026-04-29T18:05:28.055Z</time></trkpt><trkpt lat="42.92210535030771" lon="10.986581541714495"><ele>27.5</ele><time>2026-04-29T18:05:29.055Z</time></trkpt><trkpt lat="42.922049390173605" lon="10.986206072244961"><ele>28.0</ele><time>2026-04-29T18:05:30.055Z</time></trkpt><trkpt lat="42.92199290116988" lon="10.985826956248435"><ele>28.0</ele><time>2026-04-29T18:05:31.055Z</time></trkpt><trkpt lat="42.92193562215048" lon="10.985448810656264"><ele>28.0</ele><time>2026-04-29T18:05:32.055Z</time></trkpt><trkpt lat="42.92187835315882" lon="10.985069578598946"><ele>29.0</ele><time>2026-04-29T18:05:33.055Z</time></trkpt><trkpt lat="42.921820029551284" lon="10.984690854940137"><ele>30.0</ele><time>2026-04-29T18:05:34.055Z</time></trkpt><trkpt lat="42.92176244190536" lon="10.984316916791839"><ele>29.0</ele><time>2026-04-29T18:05:35.055Z</time></trkpt><trkpt lat="42.92170345018454" lon="10.98394736597137"><ele>28.0</ele><time>2026-04-29T18:05:36.055Z</time></trkpt><trkpt lat="42.92164813732174" lon="10.98357946402654"><ele>28.0</ele><time>2026-04-29T18:05:37.055Z</time></trkpt><trkpt lat="42.921592128679265" lon="10.983210590163594"><ele>28.0</ele><time>2026-04-29T18:05:38.055Z</time></trkpt><trkpt lat="42.92153705501746" lon="10.982842869872542"><ele>28.5</ele><time>2026-04-29T18:05:39.055Z</time></trkpt><trkpt lat="42.92148037324575" lon="10.982474474437243"><ele>29.0</ele><time>2026-04-29T18:05:40.055Z</time></trkpt><trkpt lat="42.921423650940014" lon="10.982107820294761"><ele>29.0</ele><time>2026-04-29T18:05:41.055Z</time></trkpt><trkpt lat="42.92136539164011" lon="10.981740671968327"><ele>29.0</ele><time>2026-04-29T18:05:42.055Z</time></trkpt><trkpt lat="42.921308115971826" lon="10.981370482361767"><ele>29.5</ele><time>2026-04-29T18:05:43.055Z</time></trkpt><trkpt lat="42.921249064600524" lon="10.980998133918327"><ele>30.0</ele><time>2026-04-29T18:05:44.055Z</time></trkpt><trkpt lat="42.92118989095226" lon="10.980626061041608"><ele>30.5</ele><time>2026-04-29T18:05:45.055Z</time></trkpt><trkpt lat="42.92113147752261" lon="10.98025217971779"><ele>31.0</ele><time>2026-04-29T18:05:46.055Z</time></trkpt><trkpt lat="42.921073525258194" lon="10.979881254891984"><ele>32.0</ele><time>2026-04-29T18:05:47.055Z</time></trkpt><trkpt lat="42.921019632151385" lon="10.9795062542387"><ele>33.0</ele><time>2026-04-29T18:05:48.055Z</time></trkpt><trkpt lat="42.920966460352936" lon="10.979129986327429"><ele>34.0</ele><time>2026-04-29T18:05:49.055Z</time></trkpt><trkpt lat="42.9209137680938" lon="10.978752562885129"><ele>35.0</ele><time>2026-04-29T18:05:50.055Z</time></trkpt><trkpt lat="42.92086253256662" lon="10.978378197661293"><ele>34.0</ele><time>2026-04-29T18:05:51.055Z</time></trkpt><trkpt lat="42.92081221660334" lon="10.97800100171217"><ele>33.0</ele><time>2026-04-29T18:05:52.055Z</time></trkpt><trkpt lat="42.920761054122835" lon="10.977624570643172"><ele>34.0</ele><time>2026-04-29T18:05:53.056Z</time></trkpt><trkpt lat="42.920715848025544" lon="10.977244610877976"><ele>35.0</ele><time>2026-04-29T18:05:54.056Z</time></trkpt><trkpt lat="42.92067449829895" lon="10.976866401405381"><ele>35.5</ele><time>2026-04-29T18:05:55.056Z</time></trkpt><trkpt lat="42.92063246028678" lon="10.976491506785164"><ele>36.0</ele><time>2026-04-29T18:05:56.056Z</time></trkpt><trkpt lat="42.92059645079355" lon="10.976113230710679"><ele>36.5</ele><time>2026-04-29T18:05:57.056Z</time></trkpt><trkpt lat="42.92056013456396" lon="10.975740181601605"><ele>37.0</ele><time>2026-04-29T18:05:58.056Z</time></trkpt><trkpt lat="42.920527948853056" lon="10.975362125995087"><ele>37.5</ele><time>2026-04-29T18:05:59.056Z</time></trkpt><trkpt lat="42.920495059112014" lon="10.974985923662448"><ele>38.0</ele><time>2026-04-29T18:06:00.056Z</time></trkpt><trkpt lat="42.920460478808074" lon="10.974610714320397"><ele>38.0</ele><time>2026-04-29T18:06:01.056Z</time></trkpt><trkpt lat="42.92042750929557" lon="10.974234450949604"><ele>38.0</ele><time>2026-04-29T18:06:02.056Z</time></trkpt><trkpt lat="42.92038952446396" lon="10.97385659690731"><ele>38.5</ele><time>2026-04-29T18:06:03.056Z</time></trkpt><trkpt lat="42.920348217563934" lon="10.97348127193062"><ele>39.0</ele><time>2026-04-29T18:06:04.056Z</time></trkpt><trkpt lat="42.92030459816645" lon="10.973071109130533"><ele>39.5</ele><time>2026-04-29T18:06:05.056Z</time></trkpt><trkpt lat="42.920260104480334" lon="10.972637384263159"><ele>40.0</ele><time>2026-04-29T18:06:06.056Z</time></trkpt><trkpt lat="42.92021239073614" lon="10.972170456654561"><ele>40.5</ele><time>2026-04-29T18:06:07.056Z</time></trkpt><trkpt lat="42.92017138914" lon="10.971713336062658"><ele>41.0</ele><time>2026-04-29T18:06:08.056Z</time></trkpt><trkpt lat="42.92013809919256" lon="10.971268502818333"><ele>40.5</ele><time>2026-04-29T18:06:09.056Z</time></trkpt><trkpt lat="42.92011863627358" lon="10.970841031101351"><ele>40.0</ele><time>2026-04-29T18:06:10.056Z</time></trkpt><trkpt lat="42.92010180356789" lon="10.97042546143541"><ele>41.0</ele><time>2026-04-29T18:06:11.056Z</time></trkpt><trkpt lat="42.920077111653434" lon="10.970021123851769"><ele>42.0</ele><time>2026-04-29T18:06:12.056Z</time></trkpt><trkpt lat="42.920044742289726" lon="10.969618661908338"><ele>38.5</ele><time>2026-04-29T18:06:13.056Z</time></trkpt><trkpt lat="42.92000757010634" lon="10.96921396751676"><ele>35.0</ele><time>2026-04-29T18:06:14.056Z</time></trkpt><trkpt lat="42.91997035738448" lon="10.9687952009218"><ele>35.0</ele><time>2026-04-29T18:06:15.056Z</time></trkpt><trkpt lat="42.91993172179312" lon="10.968371071642917"><ele>35.0</ele><time>2026-04-29T18:06:16.056Z</time></trkpt><trkpt lat="42.9198988715702" lon="10.967935418747564"><ele>35.0</ele><time>2026-04-29T18:06:17.056Z</time></trkpt><trkpt lat="42.91986976843417" lon="10.967495672466253"><ele>35.0</ele><time>2026-04-29T18:06:18.056Z</time></trkpt><trkpt lat="42.919845161571935" lon="10.967056508212536"><ele>35.0</ele><time>2026-04-29T18:06:19.056Z</time></trkpt><trkpt lat="42.91982813398026" lon="10.96661667828698"><ele>35.0</ele><time>2026-04-29T18:06:20.056Z</time></trkpt><trkpt lat="42.919817336706615" lon="10.966176624644579"><ele>34.5</ele><time>2026-04-29T18:06:21.056Z</time></trkpt><trkpt lat="42.91981044762324" lon="10.96573917445662"><ele>34.0</ele><time>2026-04-29T18:06:22.056Z</time></trkpt><trkpt lat="42.91980953554042" lon="10.965302073777565"><ele>34.5</ele><time>2026-04-29T18:06:23.056Z</time></trkpt><trkpt lat="42.91981752664388" lon="10.964862732624184"><ele>35.0</ele><time>2026-04-29T18:06:24.056Z</time></trkpt><trkpt lat="42.9198306413023" lon="10.96442233028431"><ele>35.5</ele><time>2026-04-29T18:06:25.056Z</time></trkpt><trkpt lat="42.9198584663909" lon="10.963983162649962"><ele>36.0</ele><time>2026-04-29T18:06:26.056Z</time></trkpt><trkpt lat="42.91989922290765" lon="10.963546643614496"><ele>36.5</ele><time>2026-04-29T18:06:27.056Z</time></trkpt><trkpt lat="42.919946208177095" lon="10.963114527089264"><ele>37.0</ele><time>2026-04-29T18:06:28.056Z</time></trkpt><trkpt lat="42.920008837959976" lon="10.962681759644822"><ele>36.5</ele><time>2026-04-29T18:06:29.056Z</time></trkpt><trkpt lat="42.920076849664305" lon="10.962251684557032"><ele>36.0</ele><time>2026-04-29T18:06:30.056Z</time></trkpt><trkpt lat="42.920155105778726" lon="10.961827222689458"><ele>36.0</ele><time>2026-04-29T18:06:31.056Z</time></trkpt><trkpt lat="42.92023802150619" lon="10.961404054637747"><ele>36.0</ele><time>2026-04-29T18:06:32.056Z</time></trkpt><trkpt lat="42.92033133026726" lon="10.960988099762456"><ele>36.5</ele><time>2026-04-29T18:06:33.056Z</time></trkpt><trkpt lat="42.920432091554666" lon="10.96057502294704"><ele>37.0</ele><time>2026-04-29T18:06:34.056Z</time></trkpt><trkpt lat="42.92054135635602" lon="10.960169526398232"><ele>37.5</ele><time>2026-04-29T18:06:35.056Z</time></trkpt><trkpt lat="42.92066235850667" lon="10.959774826972073"><ele>38.0</ele><time>2026-04-29T18:06:36.056Z</time></trkpt><trkpt lat="42.92078845664787" lon="10.95938341828709"><ele>38.5</ele><time>2026-04-29T18:06:37.056Z</time></trkpt><trkpt lat="42.920922659713774" lon="10.9590009948688"><ele>39.0</ele><time>2026-04-29T18:06:38.056Z</time></trkpt><trkpt lat="42.921064791351846" lon="10.958624823320484"><ele>40.0</ele><time>2026-04-29T18:06:39.056Z</time></trkpt><trkpt lat="42.921212678910905" lon="10.958254776379725"><ele>41.0</ele><time>2026-04-29T18:06:40.056Z</time></trkpt><trkpt lat="42.921367341681645" lon="10.957896443870412"><ele>41.0</ele><time>2026-04-29T18:06:41.056Z</time></trkpt><trkpt lat="42.92152764034195" lon="10.95754398501507"><ele>41.0</ele><time>2026-04-29T18:06:42.056Z</time></trkpt><trkpt lat="42.921693785477444" lon="10.957214964159443"><ele>43.5</ele><time>2026-04-29T18:06:43.056Z</time></trkpt><trkpt lat="42.921863432769825" lon="10.956900013901695"><ele>46.0</ele><time>2026-04-29T18:06:44.056Z</time></trkpt><trkpt lat="42.922032595667595" lon="10.956595458662845"><ele>46.5</ele><time>2026-04-29T18:06:45.056Z</time></trkpt><trkpt lat="42.922206346791" lon="10.9562980728014"><ele>47.0</ele><time>2026-04-29T18:06:46.056Z</time></trkpt><trkpt lat="42.9223848856433" lon="10.95600676532833"><ele>54.0</ele><time>2026-04-29T18:06:47.056Z</time></trkpt><trkpt lat="42.922566173594596" lon="10.95572364257249"><ele>61.0</ele><time>2026-04-29T18:06:48.056Z</time></trkpt><trkpt lat="42.92275683663606" lon="10.955447724313455"><ele>61.0</ele><time>2026-04-29T18:06:49.056Z</time></trkpt><trkpt lat="42.92295205797584" lon="10.955178042825302"><ele>61.0</ele><time>2026-04-29T18:06:50.056Z</time></trkpt><trkpt lat="42.92315075748192" lon="10.954916368241902"><ele>61.0</ele><time>2026-04-29T18:06:51.056Z</time></trkpt><trkpt lat="42.92335452182242" lon="10.954663602246749"><ele>61.0</ele><time>2026-04-29T18:06:52.056Z</time></trkpt><trkpt lat="42.92356194227495" lon="10.954414998035922"><ele>55.5</ele><time>2026-04-29T18:06:53.056Z</time></trkpt><trkpt lat="42.92377166870005" lon="10.954170658082274"><ele>50.0</ele><time>2026-04-29T18:06:54.056Z</time></trkpt><trkpt lat="42.923983545283555" lon="10.953930173962132"><ele>50.0</ele><time>2026-04-29T18:06:55.056Z</time></trkpt><trkpt lat="42.924194581158105" lon="10.953691605162033"><ele>50.0</ele><time>2026-04-29T18:06:56.056Z</time></trkpt><trkpt lat="42.92440816555645" lon="10.953456599666474"><ele>49.0</ele><time>2026-04-29T18:06:57.056Z</time></trkpt><trkpt lat="42.92462465530167" lon="10.953229688062601"><ele>48.0</ele><time>2026-04-29T18:06:58.056Z</time></trkpt><trkpt lat="42.92484295873277" lon="10.95300626649811"><ele>55.0</ele><time>2026-04-29T18:06:59.056Z</time></trkpt><trkpt lat="42.9250646079946" lon="10.952781782001784"><ele>62.0</ele><time>2026-04-29T18:07:00.057Z</time></trkpt><trkpt lat="42.92529050585659" lon="10.952559173467604"><ele>59.5</ele><time>2026-04-29T18:07:01.058Z</time></trkpt><trkpt lat="42.925514828605785" lon="10.95233541913046"><ele>57.0</ele><time>2026-04-29T18:07:02.058Z</time></trkpt><trkpt lat="42.92574538603115" lon="10.952114471986652"><ele>57.5</ele><time>2026-04-29T18:07:03.058Z</time></trkpt><trkpt lat="42.92597706939069" lon="10.951889047179531"><ele>58.0</ele><time>2026-04-29T18:07:04.057Z</time></trkpt><trkpt lat="42.92621193121762" lon="10.951662818689226"><ele>58.0</ele><time>2026-04-29T18:07:05.057Z</time></trkpt><trkpt lat="42.92644352340412" lon="10.951432888074022"><ele>58.0</ele><time>2026-04-29T18:07:06.057Z</time></trkpt><trkpt lat="42.92667438251861" lon="10.951201440201398"><ele>57.5</ele><time>2026-04-29T18:07:07.057Z</time></trkpt><trkpt lat="42.92689744763505" lon="10.950974561511122"><ele>57.0</ele><time>2026-04-29T18:07:08.057Z</time></trkpt><trkpt lat="42.92711876362212" lon="10.950755108065405"><ele>57.0</ele><time>2026-04-29T18:07:09.058Z</time></trkpt><trkpt lat="42.927337153410726" lon="10.95053622029626"><ele>57.0</ele><time>2026-04-29T18:07:10.058Z</time></trkpt><trkpt lat="42.92756009969696" lon="10.950318269026626"><ele>58.0</ele><time>2026-04-29T18:07:11.058Z</time></trkpt><trkpt lat="42.927784030500874" lon="10.950104343012597"><ele>59.0</ele><time>2026-04-29T18:07:12.057Z</time></trkpt><trkpt lat="42.9280124297444" lon="10.949892532477726"><ele>55.5</ele><time>2026-04-29T18:07:13.058Z</time></trkpt><trkpt lat="42.928246540550674" lon="10.949681037254516"><ele>52.0</ele><time>2026-04-29T18:07:14.058Z</time></trkpt><trkpt lat="42.92848686862857" lon="10.949472472159568"><ele>52.0</ele><time>2026-04-29T18:07:15.058Z</time></trkpt><trkpt lat="42.9287273856496" lon="10.949265842569238"><ele>52.0</ele><time>2026-04-29T18:07:16.058Z</time></trkpt><trkpt lat="42.92897187534849" lon="10.949076089401608"><ele>52.0</ele><time>2026-04-29T18:07:17.058Z</time></trkpt><trkpt lat="42.929220617323416" lon="10.948894160004864"><ele>52.0</ele><time>2026-04-29T18:07:18.058Z</time></trkpt><trkpt lat="42.92947297935862" lon="10.94872066997106"><ele>52.0</ele><time>2026-04-29T18:07:19.058Z</time></trkpt><trkpt lat="42.929725119093845" lon="10.948555799046574"><ele>52.0</ele><time>2026-04-29T18:07:20.058Z</time></trkpt><trkpt lat="42.92998098806103" lon="10.948394744527198"><ele>51.5</ele><time>2026-04-29T18:07:21.058Z</time></trkpt><trkpt lat="42.930236437866256" lon="10.948242106081416"><ele>51.0</ele><time>2026-04-29T18:07:22.058Z</time></trkpt><trkpt lat="42.9304968069108" lon="10.948092326099653"><ele>51.0</ele><time>2026-04-29T18:07:23.058Z</time></trkpt><trkpt lat="42.93075401690791" lon="10.947949946119016"><ele>51.0</ele><time>2026-04-29T18:07:24.058Z</time></trkpt><trkpt lat="42.93101248799709" lon="10.94781116951514"><ele>52.5</ele><time>2026-04-29T18:07:25.058Z</time></trkpt><trkpt lat="42.931276081885954" lon="10.947681218740108"><ele>54.0</ele><time>2026-04-29T18:07:26.058Z</time></trkpt><trkpt lat="42.931538571018464" lon="10.947552467389087"><ele>54.5</ele><time>2026-04-29T18:07:27.058Z</time></trkpt><trkpt lat="42.93180826201336" lon="10.94742423640783"><ele>55.0</ele><time>2026-04-29T18:07:28.058Z</time></trkpt><trkpt lat="42.93207707179561" lon="10.947298747248023"><ele>55.0</ele><time>2026-04-29T18:07:29.058Z</time></trkpt><trkpt lat="42.93234820387444" lon="10.94717198068007"><ele>55.0</ele><time>2026-04-29T18:07:30.058Z</time></trkpt><trkpt lat="42.932622298694646" lon="10.947040583164814"><ele>56.5</ele><time>2026-04-29T18:07:31.058Z</time></trkpt><trkpt lat="42.93289617581685" lon="10.946905565665459"><ele>58.0</ele><time>2026-04-29T18:07:32.058Z</time></trkpt><trkpt lat="42.93317340796829" lon="10.946769923134786"><ele>58.0</ele><time>2026-04-29T18:07:33.058Z</time></trkpt><trkpt lat="42.93345027544326" lon="10.94663451829176"><ele>58.0</ele><time>2026-04-29T18:07:34.058Z</time></trkpt><trkpt lat="42.93372770605466" lon="10.946500208431095"><ele>58.0</ele><time>2026-04-29T18:07:35.058Z</time></trkpt><trkpt lat="42.93400710543523" lon="10.946366425076926"><ele>58.0</ele><time>2026-04-29T18:07:36.058Z</time></trkpt><trkpt lat="42.934289160053844" lon="10.946233406308242"><ele>58.5</ele><time>2026-04-29T18:07:37.058Z</time></trkpt><trkpt lat="42.93456684050182" lon="10.946101551325963"><ele>59.0</ele><time>2026-04-29T18:07:38.058Z</time></trkpt><trkpt lat="42.934845192119184" lon="10.945968411787616"><ele>60.0</ele><time>2026-04-29T18:07:39.058Z</time></trkpt><trkpt lat="42.935124528474695" lon="10.945834211935754"><ele>61.0</ele><time>2026-04-29T18:07:40.058Z</time></trkpt><trkpt lat="42.935398595638596" lon="10.945707412624088"><ele>61.0</ele><time>2026-04-29T18:07:41.058Z</time></trkpt><trkpt lat="42.93567446059411" lon="10.945587352363088"><ele>61.0</ele><time>2026-04-29T18:07:42.058Z</time></trkpt><trkpt lat="42.935950629100105" lon="10.945468373652671"><ele>64.5</ele><time>2026-04-29T18:07:43.058Z</time></trkpt><trkpt lat="42.93622802352604" lon="10.945350415329191"><ele>68.0</ele><time>2026-04-29T18:07:44.058Z</time></trkpt><trkpt lat="42.93650423113261" lon="10.94523271898999"><ele>66.5</ele><time>2026-04-29T18:07:45.058Z</time></trkpt><trkpt lat="42.9367796116925" lon="10.945111195413409"><ele>65.0</ele><time>2026-04-29T18:07:46.058Z</time></trkpt><trkpt lat="42.93705340910149" lon="10.944991113169596"><ele>65.0</ele><time>2026-04-29T18:07:47.058Z</time></trkpt><trkpt lat="42.937328813933256" lon="10.944875888356817"><ele>65.0</ele><time>2026-04-29T18:07:48.058Z</time></trkpt><trkpt lat="42.93760287412789" lon="10.94475973141353"><ele>65.0</ele><time>2026-04-29T18:07:49.058Z</time></trkpt><trkpt lat="42.937876997009134" lon="10.94465208879339"><ele>65.0</ele><time>2026-04-29T18:07:50.058Z</time></trkpt><trkpt lat="42.938151757207955" lon="10.944548210452794"><ele>70.0</ele><time>2026-04-29T18:07:51.058Z</time></trkpt><trkpt lat="42.93842746894666" lon="10.9444443065157"><ele>75.0</ele><time>2026-04-29T18:07:52.058Z</time></trkpt><trkpt lat="42.93870427991552" lon="10.944341852773048"><ele>75.0</ele><time>2026-04-29T18:07:53.058Z</time></trkpt><trkpt lat="42.938976046325365" lon="10.944240450300756"><ele>75.0</ele><time>2026-04-29T18:07:54.058Z</time></trkpt><trkpt lat="42.93925208049614" lon="10.944140686644168"><ele>75.0</ele><time>2026-04-29T18:07:55.058Z</time></trkpt><trkpt lat="42.93952857121521" lon="10.944041354013631"><ele>75.0</ele><time>2026-04-29T18:07:56.058Z</time></trkpt><trkpt lat="42.93980561701159" lon="10.943943543384904"><ele>76.0</ele><time>2026-04-29T18:07:57.058Z</time></trkpt><trkpt lat="42.940083992915994" lon="10.943844757160686"><ele>77.0</ele><time>2026-04-29T18:07:58.058Z</time></trkpt><trkpt lat="42.94036328028803" lon="10.943745097629739"><ele>77.0</ele><time>2026-04-29T18:07:59.058Z</time></trkpt><trkpt lat="42.94064178685089" lon="10.943646768538075"><ele>77.0</ele><time>2026-04-29T18:08:00.058Z</time></trkpt><trkpt lat="42.94092095467383" lon="10.943546724416105"><ele>76.5</ele><time>2026-04-29T18:08:01.058Z</time></trkpt><trkpt lat="42.94120020732409" lon="10.943444001345378"><ele>76.0</ele><time>2026-04-29T18:08:02.058Z</time></trkpt><trkpt lat="42.94147668274609" lon="10.943334436714872"><ele>72.0</ele><time>2026-04-29T18:08:03.058Z</time></trkpt><trkpt lat="42.94175210257259" lon="10.943212357239013"><ele>68.0</ele><time>2026-04-29T18:08:04.058Z</time></trkpt><trkpt lat="42.94202856568716" lon="10.943089017551928"><ele>68.0</ele><time>2026-04-29T18:08:05.058Z</time></trkpt><trkpt lat="42.942303878846715" lon="10.942953092694305"><ele>68.0</ele><time>2026-04-29T18:08:06.058Z</time></trkpt><trkpt lat="42.94257817832147" lon="10.942818000337946"><ele>68.0</ele><time>2026-04-29T18:08:07.058Z</time></trkpt><trkpt lat="42.94284900819267" lon="10.942676117048675"><ele>68.0</ele><time>2026-04-29T18:08:08.058Z</time></trkpt><trkpt lat="42.94311924941767" lon="10.942531560276697"><ele>69.0</ele><time>2026-04-29T18:08:09.058Z</time></trkpt><trkpt lat="42.94338264352634" lon="10.942368600546464"><ele>70.0</ele><time>2026-04-29T18:08:10.058Z</time></trkpt><trkpt lat="42.94364116438833" lon="10.942194455591682"><ele>70.0</ele><time>2026-04-29T18:08:11.058Z</time></trkpt><trkpt lat="42.94389527109128" lon="10.942012442104895"><ele>70.0</ele><time>2026-04-29T18:08:12.058Z</time></trkpt><trkpt lat="42.94414064642406" lon="10.941819366020368"><ele>70.5</ele><time>2026-04-29T18:08:13.058Z</time></trkpt><trkpt lat="42.944379344675255" lon="10.94161788444861"><ele>71.0</ele><time>2026-04-29T18:08:14.058Z</time></trkpt><trkpt lat="42.9446168619801" lon="10.941407253708496"><ele>71.0</ele><time>2026-04-29T18:08:15.058Z</time></trkpt><trkpt lat="42.944847295203296" lon="10.941185767238974"><ele>71.0</ele><time>2026-04-29T18:08:16.058Z</time></trkpt><trkpt lat="42.94506833023975" lon="10.940961402844739"><ele>73.5</ele><time>2026-04-29T18:08:17.058Z</time></trkpt><trkpt lat="42.94528795824657" lon="10.940726558776415"><ele>76.0</ele><time>2026-04-29T18:08:18.058Z</time></trkpt><trkpt lat="42.945499564670115" lon="10.940479241277222"><ele>76.0</ele><time>2026-04-29T18:08:19.058Z</time></trkpt><trkpt lat="42.94570787550417" lon="10.940222543578944"><ele>76.0</ele><time>2026-04-29T18:08:20.058Z</time></trkpt><trkpt lat="42.945909139080634" lon="10.939950364275111"><ele>74.0</ele><time>2026-04-29T18:08:21.058Z</time></trkpt><trkpt lat="42.94610403763929" lon="10.93967473696128"><ele>72.0</ele><time>2026-04-29T18:08:22.058Z</time></trkpt><trkpt lat="42.946292239224654" lon="10.939389747302238"><ele>71.5</ele><time>2026-04-29T18:08:23.059Z</time></trkpt><trkpt lat="42.94647711835831" lon="10.939095022997408"><ele>71.0</ele><time>2026-04-29T18:08:24.059Z</time></trkpt><trkpt lat="42.94665635621673" lon="10.938793954749116"><ele>71.5</ele><time>2026-04-29T18:08:25.059Z</time></trkpt><trkpt lat="42.94682821874279" lon="10.938483030666559"><ele>72.0</ele><time>2026-04-29T18:08:26.059Z</time></trkpt><trkpt lat="42.94699606387094" lon="10.938166283989105"><ele>73.5</ele><time>2026-04-29T18:08:27.059Z</time></trkpt><trkpt lat="42.94715771905704" lon="10.937840854025675"><ele>75.0</ele><time>2026-04-29T18:08:28.059Z</time></trkpt><trkpt lat="42.94731380492215" lon="10.937511137273663"><ele>77.0</ele><time>2026-04-29T18:08:29.059Z</time></trkpt><trkpt lat="42.94746637638141" lon="10.937181325456063"><ele>79.0</ele><time>2026-04-29T18:08:30.059Z</time></trkpt><trkpt lat="42.94761796263351" lon="10.936843927506228"><ele>82.5</ele><time>2026-04-29T18:08:31.059Z</time></trkpt><trkpt lat="42.947763333789176" lon="10.93650311362884"><ele>86.0</ele><time>2026-04-29T18:08:32.059Z</time></trkpt><trkpt lat="42.94790374116311" lon="10.936157669706285"><ele>83.5</ele><time>2026-04-29T18:08:33.059Z</time></trkpt><trkpt lat="42.94804321969373" lon="10.935818285893477"><ele>81.0</ele><time>2026-04-29T18:08:34.059Z</time></trkpt><trkpt lat="42.9481757340968" lon="10.93548585892157"><ele>81.0</ele><time>2026-04-29T18:08:35.059Z</time></trkpt><trkpt lat="42.94830866933983" lon="10.93515682220685"><ele>81.0</ele><time>2026-04-29T18:08:36.059Z</time></trkpt><trkpt lat="42.94844058733079" lon="10.934831445096698"><ele>81.5</ele><time>2026-04-29T18:08:37.059Z</time></trkpt><trkpt lat="42.94857354654226" lon="10.934504259340082"><ele>82.0</ele><time>2026-04-29T18:08:38.059Z</time></trkpt><trkpt lat="42.94870513427023" lon="10.93418548929449"><ele>79.5</ele><time>2026-04-29T18:08:39.059Z</time></trkpt><trkpt lat="42.9488349670377" lon="10.933864402809801"><ele>77.0</ele><time>2026-04-29T18:08:40.059Z</time></trkpt><trkpt lat="42.948961603331156" lon="10.933545832293227"><ele>76.5</ele><time>2026-04-29T18:08:41.059Z</time></trkpt><trkpt lat="42.949086443164525" lon="10.933227631502987"><ele>76.0</ele><time>2026-04-29T18:08:42.059Z</time></trkpt><trkpt lat="42.94920800928214" lon="10.932906995392381"><ele>80.0</ele><time>2026-04-29T18:08:43.059Z</time></trkpt><trkpt lat="42.94932092522381" lon="10.932583006588414"><ele>84.0</ele><time>2026-04-29T18:08:44.059Z</time></trkpt><trkpt lat="42.949431904067914" lon="10.932255348337177"><ele>84.0</ele><time>2026-04-29T18:08:45.059Z</time></trkpt><trkpt lat="42.949539220605466" lon="10.931927086156792"><ele>84.0</ele><time>2026-04-29T18:08:46.059Z</time></trkpt><trkpt lat="42.9496451416854" lon="10.93159718580694"><ele>84.0</ele><time>2026-04-29T18:08:47.059Z</time></trkpt><trkpt lat="42.94974242630476" lon="10.931262074460214"><ele>84.0</ele><time>2026-04-29T18:08:48.059Z</time></trkpt><trkpt lat="42.949833382791006" lon="10.93091908384816"><ele>83.0</ele><time>2026-04-29T18:08:49.059Z</time></trkpt><trkpt lat="42.94991905273815" lon="10.930559397796243"><ele>82.0</ele><time>2026-04-29T18:08:50.059Z</time></trkpt><trkpt lat="42.95000009029213" lon="10.930196502290633"><ele>80.0</ele><time>2026-04-29T18:08:51.059Z</time></trkpt><trkpt lat="42.95007858629873" lon="10.929824607582276"><ele>78.0</ele><time>2026-04-29T18:08:52.059Z</time></trkpt><trkpt lat="42.950148739966416" lon="10.929449900445125"><ele>78.0</ele><time>2026-04-29T18:08:53.059Z</time></trkpt><trkpt lat="42.950209660034105" lon="10.929070122635842"><ele>78.0</ele><time>2026-04-29T18:08:54.059Z</time></trkpt><trkpt lat="42.95026287588205" lon="10.928684302942"><ele>81.5</ele><time>2026-04-29T18:08:55.059Z</time></trkpt><trkpt lat="42.950312223039035" lon="10.928301537297992"><ele>85.0</ele><time>2026-04-29T18:08:56.059Z</time></trkpt><trkpt lat="42.950353024427216" lon="10.927908724164503"><ele>84.5</ele><time>2026-04-29T18:08:57.059Z</time></trkpt><trkpt lat="42.95038971829391" lon="10.927515200186743"><ele>84.0</ele><time>2026-04-29T18:08:58.059Z</time></trkpt><trkpt lat="42.95042173604958" lon="10.927115566508638"><ele>82.0</ele><time>2026-04-29T18:08:59.059Z</time></trkpt><trkpt lat="42.9504502429401" lon="10.926720171026055"><ele>80.0</ele><time>2026-04-29T18:09:00.059Z</time></trkpt><trkpt lat="42.95047294464404" lon="10.926325924670294"><ele>80.0</ele><time>2026-04-29T18:09:01.059Z</time></trkpt><trkpt lat="42.950495753673565" lon="10.925932343690233"><ele>80.0</ele><time>2026-04-29T18:09:02.059Z</time></trkpt><trkpt lat="42.950518453615864" lon="10.925542287887971"><ele>80.5</ele><time>2026-04-29T18:09:03.059Z</time></trkpt><trkpt lat="42.95054076611507" lon="10.925151581960348"><ele>81.0</ele><time>2026-04-29T18:09:04.059Z</time></trkpt><trkpt lat="42.95056539784018" lon="10.924757030049992"><ele>81.0</ele><time>2026-04-29T18:09:05.059Z</time></trkpt><trkpt lat="42.95059218889239" lon="10.924360182621838"><ele>81.0</ele><time>2026-04-29T18:09:06.061Z</time></trkpt><trkpt lat="42.950613838541464" lon="10.923964556846084"><ele>80.0</ele><time>2026-04-29T18:09:07.061Z</time></trkpt><trkpt lat="42.950636626507176" lon="10.923565609265106"><ele>79.0</ele><time>2026-04-29T18:09:08.061Z</time></trkpt><trkpt lat="42.950658424790035" lon="10.923173025219914"><ele>79.0</ele><time>2026-04-29T18:09:09.06Z</time></trkpt><trkpt lat="42.95067972744447" lon="10.922775637659274"><ele>79.0</ele><time>2026-04-29T18:09:10.061Z</time></trkpt><trkpt lat="42.95070086559676" lon="10.922375634036142"><ele>79.0</ele><time>2026-04-29T18:09:11.061Z</time></trkpt><trkpt lat="42.95072616943841" lon="10.921978250447923"><ele>79.0</ele><time>2026-04-29T18:09:12.061Z</time></trkpt><trkpt lat="42.95075160442444" lon="10.921583236420046"><ele>76.5</ele><time>2026-04-29T18:09:13.061Z</time></trkpt><trkpt lat="42.95077554351752" lon="10.921185129975303"><ele>74.0</ele><time>2026-04-29T18:09:14.061Z</time></trkpt><trkpt lat="42.95079594200848" lon="10.920783423461552"><ele>71.0</ele><time>2026-04-29T18:09:15.061Z</time></trkpt><trkpt lat="42.95081952895122" lon="10.920381932283723"><ele>68.0</ele><time>2026-04-29T18:09:16.061Z</time></trkpt><trkpt lat="42.95084190321634" lon="10.919980057726669"><ele>67.0</ele><time>2026-04-29T18:09:17.061Z</time></trkpt><trkpt lat="42.95086413505089" lon="10.919579715999687"><ele>66.0</ele><time>2026-04-29T18:09:18.06Z</time></trkpt><trkpt lat="42.95088587327824" lon="10.91917432844837"><ele>68.5</ele><time>2026-04-29T18:09:19.061Z</time></trkpt><trkpt lat="42.95091154113718" lon="10.918769014217974"><ele>71.0</ele><time>2026-04-29T18:09:20.061Z</time></trkpt><trkpt lat="42.950934781081976" lon="10.918368272162425"><ele>71.0</ele><time>2026-04-29T18:09:21.061Z</time></trkpt><trkpt lat="42.95095740948888" lon="10.917966945793971"><ele>71.0</ele><time>2026-04-29T18:09:22.061Z</time></trkpt><trkpt lat="42.95097620209868" lon="10.91756686723378"><ele>69.5</ele><time>2026-04-29T18:09:23.061Z</time></trkpt><trkpt lat="42.95100603239403" lon="10.91717016392197"><ele>68.0</ele><time>2026-04-29T18:09:24.061Z</time></trkpt><trkpt lat="42.951031323144626" lon="10.916769648285888"><ele>68.0</ele><time>2026-04-29T18:09:25.061Z</time></trkpt><trkpt lat="42.95105563166363" lon="10.916373049093295"><ele>68.0</ele><time>2026-04-29T18:09:26.061Z</time></trkpt><trkpt lat="42.95107622947624" lon="10.915980673812435"><ele>66.5</ele><time>2026-04-29T18:09:27.061Z</time></trkpt><trkpt lat="42.95109408423106" lon="10.91558824902699"><ele>65.0</ele><time>2026-04-29T18:09:28.061Z</time></trkpt><trkpt lat="42.95111377101018" lon="10.91519481014071"><ele>64.5</ele><time>2026-04-29T18:09:29.061Z</time></trkpt><trkpt lat="42.951126746535024" lon="10.914807114968461"><ele>64.0</ele><time>2026-04-29T18:09:30.061Z</time></trkpt><trkpt lat="42.95114428040833" lon="10.914410360819009"><ele>64.0</ele><time>2026-04-29T18:09:31.061Z</time></trkpt><trkpt lat="42.951154956274024" lon="10.914021678037916"><ele>64.0</ele><time>2026-04-29T18:09:32.061Z</time></trkpt><trkpt lat="42.951163013091204" lon="10.913631821189252"><ele>63.5</ele><time>2026-04-29T18:09:33.061Z</time></trkpt><trkpt lat="42.95116646322804" lon="10.913236473029933"><ele>63.0</ele><time>2026-04-29T18:09:34.061Z</time></trkpt><trkpt lat="42.95117064542503" lon="10.912845303749197"><ele>62.5</ele><time>2026-04-29T18:09:35.061Z</time></trkpt><trkpt lat="42.95117513694064" lon="10.912456711342243"><ele>62.0</ele><time>2026-04-29T18:09:36.061Z</time></trkpt><trkpt lat="42.95117339387232" lon="10.912068734755056"><ele>61.0</ele><time>2026-04-29T18:09:37.061Z</time></trkpt><trkpt lat="42.95117161423337" lon="10.911682692518854"><ele>60.0</ele><time>2026-04-29T18:09:38.061Z</time></trkpt><trkpt lat="42.95117011894741" lon="10.91129696468609"><ele>60.0</ele><time>2026-04-29T18:09:39.061Z</time></trkpt><trkpt lat="42.95116489683522" lon="10.910914847015162"><ele>60.0</ele><time>2026-04-29T18:09:40.061Z</time></trkpt><trkpt lat="42.95115503072541" lon="10.910531951022822"><ele>60.0</ele><time>2026-04-29T18:09:41.061Z</time></trkpt><trkpt lat="42.95114870934054" lon="10.910144376632143"><ele>60.0</ele><time>2026-04-29T18:09:42.061Z</time></trkpt><trkpt lat="42.95113952915591" lon="10.90975960163609"><ele>59.0</ele><time>2026-04-29T18:09:43.061Z</time></trkpt><trkpt lat="42.95112641468674" lon="10.909378246133539"><ele>58.0</ele><time>2026-04-29T18:09:44.061Z</time></trkpt><trkpt lat="42.951114259011035" lon="10.908995230822466"><ele>57.5</ele><time>2026-04-29T18:09:45.061Z</time></trkpt><trkpt lat="42.9510990653377" lon="10.908616841975734"><ele>57.0</ele><time>2026-04-29T18:09:46.061Z</time></trkpt><trkpt lat="42.95108723204109" lon="10.90823205074047"><ele>56.5</ele><time>2026-04-29T18:09:47.061Z</time></trkpt><trkpt lat="42.95107318699015" lon="10.907850137646687"><ele>56.0</ele><time>2026-04-29T18:09:48.061Z</time></trkpt><trkpt lat="42.95106107959165" lon="10.907468893075187"><ele>55.0</ele><time>2026-04-29T18:09:49.061Z</time></trkpt><trkpt lat="42.95105145365251" lon="10.907085675555662"><ele>54.0</ele><time>2026-04-29T18:09:50.061Z</time></trkpt><trkpt lat="42.951039120417484" lon="10.906700627958053"><ele>54.0</ele><time>2026-04-29T18:09:51.061Z</time></trkpt><trkpt lat="42.95102727346673" lon="10.90631950187541"><ele>54.0</ele><time>2026-04-29T18:09:52.061Z</time></trkpt><trkpt lat="42.95101448643682" lon="10.905937481083578"><ele>54.5</ele><time>2026-04-29T18:09:53.061Z</time></trkpt><trkpt lat="42.951002066503484" lon="10.905553788879935"><ele>55.0</ele><time>2026-04-29T18:09:54.061Z</time></trkpt><trkpt lat="42.95098820878402" lon="10.905168136262162"><ele>54.5</ele><time>2026-04-29T18:09:55.061Z</time></trkpt><trkpt lat="42.95097576004706" lon="10.904785555239423"><ele>54.0</ele><time>2026-04-29T18:09:56.061Z</time></trkpt><trkpt lat="42.95096267342477" lon="10.904402715180044"><ele>53.0</ele><time>2026-04-29T18:09:57.061Z</time></trkpt><trkpt lat="42.950947219515406" lon="10.904017435099354"><ele>52.0</ele><time>2026-04-29T18:09:58.061Z</time></trkpt><trkpt lat="42.9509331422331" lon="10.90363189822398"><ele>51.5</ele><time>2026-04-29T18:09:59.061Z</time></trkpt><trkpt lat="42.950918597352505" lon="10.903248736504029"><ele>51.0</ele><time>2026-04-29T18:10:00.061Z</time></trkpt><trkpt lat="42.950905892619275" lon="10.902866492852128"><ele>50.5</ele><time>2026-04-29T18:10:01.061Z</time></trkpt><trkpt lat="42.95089261010351" lon="10.902480906490375"><ele>50.0</ele><time>2026-04-29T18:10:02.061Z</time></trkpt><trkpt lat="42.95087938996063" lon="10.902097336172561"><ele>48.5</ele><time>2026-04-29T18:10:03.061Z</time></trkpt><trkpt lat="42.95086490337987" lon="10.901715021055242"><ele>47.0</ele><time>2026-04-29T18:10:04.061Z</time></trkpt><trkpt lat="42.95085343602921" lon="10.90133558622952"><ele>47.0</ele><time>2026-04-29T18:10:05.061Z</time></trkpt><trkpt lat="42.95084163424867" lon="10.90095329857459"><ele>47.0</ele><time>2026-04-29T18:10:06.061Z</time></trkpt><trkpt lat="42.95083000319661" lon="10.9005695172477"><ele>47.5</ele><time>2026-04-29T18:10:07.061Z</time></trkpt><trkpt lat="42.95081805552858" lon="10.900189084169348"><ele>48.0</ele><time>2026-04-29T18:10:08.061Z</time></trkpt><trkpt lat="42.95080498784881" lon="10.899806158611552"><ele>48.0</ele><time>2026-04-29T18:10:09.061Z</time></trkpt><trkpt lat="42.95079241889287" lon="10.89942505492098"><ele>48.0</ele><time>2026-04-29T18:10:10.061Z</time></trkpt><trkpt lat="42.95077771049215" lon="10.899044650361121"><ele>46.5</ele><time>2026-04-29T18:10:11.061Z</time></trkpt><trkpt lat="42.950763717077685" lon="10.898664547954741"><ele>45.0</ele><time>2026-04-29T18:10:12.062Z</time></trkpt><trkpt lat="42.95074939139903" lon="10.898284369990812"><ele>45.0</ele><time>2026-04-29T18:10:13.062Z</time></trkpt><trkpt lat="42.950740000878305" lon="10.897903017675262"><ele>45.0</ele><time>2026-04-29T18:10:14.062Z</time></trkpt><trkpt lat="42.950728088944956" lon="10.897514633165633"><ele>45.0</ele><time>2026-04-29T18:10:15.062Z</time></trkpt><trkpt lat="42.95071619973615" lon="10.897129125410258"><ele>45.0</ele><time>2026-04-29T18:10:16.062Z</time></trkpt><trkpt lat="42.95070246179618" lon="10.896739479328126"><ele>44.5</ele><time>2026-04-29T18:10:17.062Z</time></trkpt><trkpt lat="42.95069057183328" lon="10.896342182940971"><ele>44.0</ele><time>2026-04-29T18:10:18.062Z</time></trkpt><trkpt lat="42.95067395098753" lon="10.895951464819051"><ele>43.5</ele><time>2026-04-29T18:10:19.062Z</time></trkpt><trkpt lat="42.95065725346021" lon="10.895553301654118"><ele>43.0</ele><time>2026-04-29T18:10:20.062Z</time></trkpt><trkpt lat="42.950645548278615" lon="10.895155109734025"><ele>43.0</ele><time>2026-04-29T18:10:21.062Z</time></trkpt><trkpt lat="42.950633753646294" lon="10.894759415824137"><ele>43.0</ele><time>2026-04-29T18:10:22.062Z</time></trkpt><trkpt lat="42.95062266439245" lon="10.894372186182833"><ele>41.5</ele><time>2026-04-29T18:10:23.062Z</time></trkpt><trkpt lat="42.95061174898066" lon="10.893981697785778"><ele>40.0</ele><time>2026-04-29T18:10:24.062Z</time></trkpt><trkpt lat="42.950600160787374" lon="10.89358610558829"><ele>39.0</ele><time>2026-04-29T18:10:25.062Z</time></trkpt><trkpt lat="42.95058675796832" lon="10.893192752738837"><ele>38.0</ele><time>2026-04-29T18:10:26.062Z</time></trkpt><trkpt lat="42.950574198677785" lon="10.892798646205497"><ele>38.5</ele><time>2026-04-29T18:10:27.062Z</time></trkpt><trkpt lat="42.95056047686903" lon="10.892406784610017"><ele>39.0</ele><time>2026-04-29T18:10:28.062Z</time></trkpt><trkpt lat="42.95054783740449" lon="10.892014838498257"><ele>39.5</ele><time>2026-04-29T18:10:29.062Z</time></trkpt><trkpt lat="42.95053375109185" lon="10.891621607019793"><ele>40.0</ele><time>2026-04-29T18:10:30.062Z</time></trkpt><trkpt lat="42.950518343330586" lon="10.891231466719551"><ele>40.0</ele><time>2026-04-29T18:10:31.062Z</time></trkpt><trkpt lat="42.95050186357588" lon="10.890845488810125"><ele>40.0</ele><time>2026-04-29T18:10:32.062Z</time></trkpt><trkpt lat="42.950487076295644" lon="10.89045896730245"><ele>40.5</ele><time>2026-04-29T18:10:33.062Z</time></trkpt><trkpt lat="42.950475955453435" lon="10.890077051104912"><ele>41.0</ele><time>2026-04-29T18:10:34.062Z</time></trkpt><trkpt lat="42.95046721561309" lon="10.889694929348776"><ele>41.0</ele><time>2026-04-29T18:10:35.062Z</time></trkpt><trkpt lat="42.95045333466655" lon="10.889309329851152"><ele>41.0</ele><time>2026-04-29T18:10:36.062Z</time></trkpt><trkpt lat="42.9504417296922" lon="10.888926166022872"><ele>41.0</ele><time>2026-04-29T18:10:37.062Z</time></trkpt><trkpt lat="42.95042690487381" lon="10.888539339449878"><ele>41.0</ele><time>2026-04-29T18:10:38.062Z</time></trkpt><trkpt lat="42.95041556075177" lon="10.888146825891113"><ele>42.0</ele><time>2026-04-29T18:10:39.062Z</time></trkpt><trkpt lat="42.95040425348645" lon="10.8877520122641"><ele>43.0</ele><time>2026-04-29T18:10:40.062Z</time></trkpt><trkpt lat="42.95039069034578" lon="10.887358043425678"><ele>44.0</ele><time>2026-04-29T18:10:41.062Z</time></trkpt><trkpt lat="42.95037902994875" lon="10.88696496669837"><ele>45.0</ele><time>2026-04-29T18:10:42.062Z</time></trkpt><trkpt lat="42.950364781614326" lon="10.886569089351617"><ele>46.0</ele><time>2026-04-29T18:10:43.062Z</time></trkpt><trkpt lat="42.950350339023764" lon="10.8861767078586"><ele>47.0</ele><time>2026-04-29T18:10:44.062Z</time></trkpt><trkpt lat="42.95033641830081" lon="10.885782885061685"><ele>45.0</ele><time>2026-04-29T18:10:45.062Z</time></trkpt><trkpt lat="42.95032553551159" lon="10.885392286025166"><ele>43.0</ele><time>2026-04-29T18:10:46.062Z</time></trkpt><trkpt lat="42.95031825044052" lon="10.885000140564198"><ele>41.5</ele><time>2026-04-29T18:10:47.062Z</time></trkpt><trkpt lat="42.950318073824064" lon="10.884607774433308"><ele>40.0</ele><time>2026-04-29T18:10:48.062Z</time></trkpt><trkpt lat="42.95033539692949" lon="10.884215660647511"><ele>39.5</ele><time>2026-04-29T18:10:49.062Z</time></trkpt><trkpt lat="42.95035911904356" lon="10.883824676982865"><ele>39.0</ele><time>2026-04-29T18:10:50.062Z</time></trkpt><trkpt lat="42.95039768358577" lon="10.883434904483536"><ele>39.0</ele><time>2026-04-29T18:10:51.062Z</time></trkpt><trkpt lat="42.95044174998916" lon="10.883048932777971"><ele>39.0</ele><time>2026-04-29T18:10:52.062Z</time></trkpt><trkpt lat="42.95050400200462" lon="10.88266229012636"><ele>40.0</ele><time>2026-04-29T18:10:53.062Z</time></trkpt><trkpt lat="42.95057681640359" lon="10.882280369702766"><ele>41.0</ele><time>2026-04-29T18:10:54.062Z</time></trkpt><trkpt lat="42.9506535915114" lon="10.881902550091942"><ele>41.5</ele><time>2026-04-29T18:10:55.062Z</time></trkpt><trkpt lat="42.95074034502156" lon="10.881523343662872"><ele>42.0</ele><time>2026-04-29T18:10:56.062Z</time></trkpt><trkpt lat="42.95083534813267" lon="10.881156987618738"><ele>43.5</ele><time>2026-04-29T18:10:57.062Z</time></trkpt><trkpt lat="42.95094048269861" lon="10.88079452802282"><ele>45.0</ele><time>2026-04-29T18:10:58.062Z</time></trkpt><trkpt lat="42.951050945836336" lon="10.880434849307823"><ele>43.5</ele><time>2026-04-29T18:10:59.062Z</time></trkpt><trkpt lat="42.95116086461948" lon="10.88007694805893"><ele>42.0</ele><time>2026-04-29T18:11:00.062Z</time></trkpt><trkpt lat="42.95126291908115" lon="10.879715264924794"><ele>42.0</ele><time>2026-04-29T18:11:01.062Z</time></trkpt><trkpt lat="42.95137240971746" lon="10.879365229064538"><ele>42.0</ele><time>2026-04-29T18:11:02.062Z</time></trkpt><trkpt lat="42.951474080988966" lon="10.879014510349428"><ele>40.0</ele><time>2026-04-29T18:11:03.062Z</time></trkpt><trkpt lat="42.95157931198118" lon="10.878664539306216"><ele>38.0</ele><time>2026-04-29T18:11:04.062Z</time></trkpt><trkpt lat="42.951683303121435" lon="10.878310058342874"><ele>38.5</ele><time>2026-04-29T18:11:05.062Z</time></trkpt><trkpt lat="42.951786502899886" lon="10.87795500329884"><ele>39.0</ele><time>2026-04-29T18:11:06.062Z</time></trkpt><trkpt lat="42.95189007694806" lon="10.877599926956323"><ele>37.5</ele><time>2026-04-29T18:11:07.062Z</time></trkpt><trkpt lat="42.951996231190684" lon="10.87724844634987"><ele>36.0</ele><time>2026-04-29T18:11:08.062Z</time></trkpt><trkpt lat="42.952100409373266" lon="10.876897165953638"><ele>35.0</ele><time>2026-04-29T18:11:09.062Z</time></trkpt><trkpt lat="42.952207807794736" lon="10.87655005475343"><ele>34.0</ele><time>2026-04-29T18:11:10.062Z</time></trkpt><trkpt lat="42.95231294059792" lon="10.876201674303926"><ele>34.0</ele><time>2026-04-29T18:11:11.064Z</time></trkpt><trkpt lat="42.95241538183875" lon="10.875856304178331"><ele>34.0</ele><time>2026-04-29T18:11:12.063Z</time></trkpt><trkpt lat="42.95251987011268" lon="10.875510691161436"><ele>37.0</ele><time>2026-04-29T18:11:13.063Z</time></trkpt><trkpt lat="42.95262357250276" lon="10.875163793119025"><ele>40.0</ele><time>2026-04-29T18:11:14.064Z</time></trkpt><trkpt lat="42.952723388852306" lon="10.87481892075335"><ele>40.5</ele><time>2026-04-29T18:11:15.064Z</time></trkpt><trkpt lat="42.952825968852416" lon="10.874478177869976"><ele>41.0</ele><time>2026-04-29T18:11:16.064Z</time></trkpt><trkpt lat="42.95292455826838" lon="10.874132797808397"><ele>42.5</ele><time>2026-04-29T18:11:17.064Z</time></trkpt><trkpt lat="42.95302612483375" lon="10.873788843669494"><ele>44.0</ele><time>2026-04-29T18:11:18.064Z</time></trkpt><trkpt lat="42.953129089614855" lon="10.873445540038157"><ele>44.5</ele><time>2026-04-29T18:11:19.064Z</time></trkpt><trkpt lat="42.953231148655675" lon="10.873099098397821"><ele>45.0</ele><time>2026-04-29T18:11:20.064Z</time></trkpt><trkpt lat="42.95333030887391" lon="10.872755921125467"><ele>45.0</ele><time>2026-04-29T18:11:21.064Z</time></trkpt><trkpt lat="42.953432073305436" lon="10.872410652797305"><ele>45.0</ele><time>2026-04-29T18:11:22.064Z</time></trkpt><trkpt lat="42.95353192379058" lon="10.872064667738245"><ele>42.0</ele><time>2026-04-29T18:11:23.064Z</time></trkpt><trkpt lat="42.953634107205744" lon="10.871718918646481"><ele>39.0</ele><time>2026-04-29T18:11:24.064Z</time></trkpt><trkpt lat="42.953738969153996" lon="10.871371943458266"><ele>39.0</ele><time>2026-04-29T18:11:25.064Z</time></trkpt><trkpt lat="42.95384063901837" lon="10.871022367873888"><ele>39.0</ele><time>2026-04-29T18:11:26.064Z</time></trkpt><trkpt lat="42.95394315187804" lon="10.870674496713734"><ele>38.5</ele><time>2026-04-29T18:11:27.064Z</time></trkpt><trkpt lat="42.95404599011713" lon="10.87032305735038"><ele>38.0</ele><time>2026-04-29T18:11:28.064Z</time></trkpt><trkpt lat="42.95414568132349" lon="10.869978064477966"><ele>41.5</ele><time>2026-04-29T18:11:29.064Z</time></trkpt><trkpt lat="42.95425357642756" lon="10.869622774487759"><ele>45.0</ele><time>2026-04-29T18:11:30.064Z</time></trkpt><trkpt lat="42.95436068613066" lon="10.86927609442143"><ele>47.5</ele><time>2026-04-29T18:11:31.064Z</time></trkpt><trkpt lat="42.954468729911376" lon="10.86892329957593"><ele>50.0</ele><time>2026-04-29T18:11:32.064Z</time></trkpt><trkpt lat="42.954574815907286" lon="10.868569036200117"><ele>52.0</ele><time>2026-04-29T18:11:33.064Z</time></trkpt><trkpt lat="42.95468042652206" lon="10.86821698840466"><ele>54.0</ele><time>2026-04-29T18:11:34.064Z</time></trkpt><trkpt lat="42.95478053384172" lon="10.867861977866102"><ele>52.0</ele><time>2026-04-29T18:11:35.064Z</time></trkpt><trkpt lat="42.95488645737558" lon="10.867502367039028"><ele>50.0</ele><time>2026-04-29T18:11:36.064Z</time></trkpt><trkpt lat="42.9549940629229" lon="10.867140647287089"><ele>49.0</ele><time>2026-04-29T18:11:37.064Z</time></trkpt><trkpt lat="42.95510482267105" lon="10.866779200411523"><ele>48.0</ele><time>2026-04-29T18:11:38.064Z</time></trkpt><trkpt lat="42.95521219098395" lon="10.86642249207825"><ele>48.0</ele><time>2026-04-29T18:11:39.064Z</time></trkpt><trkpt lat="42.95532380683085" lon="10.866062112956225"><ele>48.0</ele><time>2026-04-29T18:11:40.064Z</time></trkpt><trkpt lat="42.955437231379776" lon="10.865705210292534"><ele>46.0</ele><time>2026-04-29T18:11:41.064Z</time></trkpt><trkpt lat="42.955560011130395" lon="10.865347871107335"><ele>44.0</ele><time>2026-04-29T18:11:42.064Z</time></trkpt><trkpt lat="42.95568625248974" lon="10.864995904755256"><ele>42.5</ele><time>2026-04-29T18:11:43.064Z</time></trkpt><trkpt lat="42.955817486217505" lon="10.864648648483511"><ele>41.0</ele><time>2026-04-29T18:11:44.064Z</time></trkpt><trkpt lat="42.95595201565222" lon="10.864304707056837"><ele>39.0</ele><time>2026-04-29T18:11:45.064Z</time></trkpt><trkpt lat="42.956091302578116" lon="10.863965895151155"><ele>37.0</ele><time>2026-04-29T18:11:46.065Z</time></trkpt><trkpt lat="42.95623050051325" lon="10.86362632755382"><ele>36.0</ele><time>2026-04-29T18:11:47.065Z</time></trkpt><trkpt lat="42.956377021009054" lon="10.863294803806003"><ele>35.0</ele><time>2026-04-29T18:11:48.065Z</time></trkpt><trkpt lat="42.95652434460775" lon="10.862963317662171"><ele>35.0</ele><time>2026-04-29T18:11:49.065Z</time></trkpt><trkpt lat="42.95667646332311" lon="10.862637645602831"><ele>35.0</ele><time>2026-04-29T18:11:50.065Z</time></trkpt><trkpt lat="42.95683651496482" lon="10.86231444788914"><ele>35.5</ele><time>2026-04-29T18:11:51.065Z</time></trkpt><trkpt lat="42.957000845581604" lon="10.861995069988241"><ele>36.0</ele><time>2026-04-29T18:11:52.065Z</time></trkpt><trkpt lat="42.95717028357205" lon="10.861684417080069"><ele>36.0</ele><time>2026-04-29T18:11:53.065Z</time></trkpt><trkpt lat="42.95734470452264" lon="10.861375226792747"><ele>36.0</ele><time>2026-04-29T18:11:54.065Z</time></trkpt><trkpt lat="42.957520289594335" lon="10.861068802046146"><ele>36.5</ele><time>2026-04-29T18:11:55.065Z</time></trkpt><trkpt lat="42.95770098286684" lon="10.86076665060283"><ele>37.0</ele><time>2026-04-29T18:11:56.065Z</time></trkpt><trkpt lat="42.95788459774589" lon="10.860468869782697"><ele>37.0</ele><time>2026-04-29T18:11:57.065Z</time></trkpt><trkpt lat="42.958071548480525" lon="10.860170211974983"><ele>37.0</ele><time>2026-04-29T18:11:58.065Z</time></trkpt><trkpt lat="42.9582660550564" lon="10.859877190444749"><ele>38.5</ele><time>2026-04-29T18:11:59.065Z</time></trkpt><trkpt lat="42.958463783466456" lon="10.859585141623706"><ele>40.0</ele><time>2026-04-29T18:12:00.065Z</time></trkpt><trkpt lat="42.958667229792574" lon="10.859297702022205"><ele>39.5</ele><time>2026-04-29T18:12:01.065Z</time></trkpt><trkpt lat="42.95887863161418" lon="10.85901818030693"><ele>39.0</ele><time>2026-04-29T18:12:02.065Z</time></trkpt><trkpt lat="42.959093077668044" lon="10.858738897597203"><ele>40.5</ele><time>2026-04-29T18:12:03.065Z</time></trkpt><trkpt lat="42.95931048416429" lon="10.858466420965504"><ele>42.0</ele><time>2026-04-29T18:12:04.065Z</time></trkpt><trkpt lat="42.95952739905109" lon="10.85819792858392"><ele>42.0</ele><time>2026-04-29T18:12:05.065Z</time></trkpt><trkpt lat="42.95974576887546" lon="10.857925853275402"><ele>42.0</ele><time>2026-04-29T18:12:06.065Z</time></trkpt><trkpt lat="42.95996828765186" lon="10.857657983001447"><ele>40.0</ele><time>2026-04-29T18:12:07.065Z</time></trkpt><trkpt lat="42.96018790671255" lon="10.85738345403198"><ele>38.0</ele><time>2026-04-29T18:12:08.065Z</time></trkpt><trkpt lat="42.960407129222475" lon="10.857108929354451"><ele>38.0</ele><time>2026-04-29T18:12:09.065Z</time></trkpt><trkpt lat="42.96062027660029" lon="10.856838275804343"><ele>38.0</ele><time>2026-04-29T18:12:10.065Z</time></trkpt><trkpt lat="42.960831718651896" lon="10.85656386245791"><ele>39.0</ele><time>2026-04-29T18:12:11.065Z</time></trkpt><trkpt lat="42.96104856098488" lon="10.856293924462708"><ele>40.0</ele><time>2026-04-29T18:12:12.065Z</time></trkpt><trkpt lat="42.96126484578737" lon="10.856027136930251"><ele>39.0</ele><time>2026-04-29T18:12:13.065Z</time></trkpt><trkpt lat="42.96148108252812" lon="10.855758431995856"><ele>38.0</ele><time>2026-04-29T18:12:14.065Z</time></trkpt><trkpt lat="42.96169228709562" lon="10.855491007193788"><ele>39.0</ele><time>2026-04-29T18:12:15.065Z</time></trkpt><trkpt lat="42.96190188820371" lon="10.855222601895338"><ele>40.0</ele><time>2026-04-29T18:12:16.065Z</time></trkpt><trkpt lat="42.96210493590456" lon="10.854946260816323"><ele>40.0</ele><time>2026-04-29T18:12:17.065Z</time></trkpt><trkpt lat="42.962296204662934" lon="10.854660352653335"><ele>40.0</ele><time>2026-04-29T18:12:18.065Z</time></trkpt><trkpt lat="42.9624695428191" lon="10.854358143868723"><ele>39.5</ele><time>2026-04-29T18:12:19.065Z</time></trkpt><trkpt lat="42.96263735374421" lon="10.854045417371312"><ele>39.0</ele><time>2026-04-29T18:12:20.065Z</time></trkpt><trkpt lat="42.962794877685255" lon="10.85372514045853"><ele>41.0</ele><time>2026-04-29T18:12:21.065Z</time></trkpt><trkpt lat="42.96294415497759" lon="10.853398958199008"><ele>43.0</ele><time>2026-04-29T18:12:22.065Z</time></trkpt><trkpt lat="42.9630820083291" lon="10.85306423770376"><ele>43.0</ele><time>2026-04-29T18:12:23.065Z</time></trkpt><trkpt lat="42.963212109478086" lon="10.852722777010529"><ele>43.0</ele><time>2026-04-29T18:12:24.065Z</time></trkpt><trkpt lat="42.96332563197487" lon="10.852372635818025"><ele>45.0</ele><time>2026-04-29T18:12:25.065Z</time></trkpt><trkpt lat="42.96343070072868" lon="10.852013594216347"><ele>47.0</ele><time>2026-04-29T18:12:26.065Z</time></trkpt><trkpt lat="42.963525867419186" lon="10.851647508592375"><ele>47.0</ele><time>2026-04-29T18:12:27.065Z</time></trkpt><trkpt lat="42.96361045828191" lon="10.851277112462224"><ele>47.0</ele><time>2026-04-29T18:12:28.065Z</time></trkpt><trkpt lat="42.96368265863676" lon="10.850902788313595"><ele>47.5</ele><time>2026-04-29T18:12:29.065Z</time></trkpt><trkpt lat="42.96374175618055" lon="10.850525809847099"><ele>48.0</ele><time>2026-04-29T18:12:30.065Z</time></trkpt><trkpt lat="42.96379165940092" lon="10.850140556537818"><ele>48.5</ele><time>2026-04-29T18:12:31.065Z</time></trkpt><trkpt lat="42.963820965940684" lon="10.849749522839874"><ele>49.0</ele><time>2026-04-29T18:12:32.065Z</time></trkpt><trkpt lat="42.96384931743428" lon="10.849359742300843"><ele>48.5</ele><time>2026-04-29T18:12:33.065Z</time></trkpt><trkpt lat="42.963855280457366" lon="10.848967735594938"><ele>48.0</ele><time>2026-04-29T18:12:34.065Z</time></trkpt><trkpt lat="42.963861201578915" lon="10.848583702968387"><ele>45.5</ele><time>2026-04-29T18:12:35.065Z</time></trkpt><trkpt lat="42.96384529584302" lon="10.848181635176909"><ele>43.0</ele><time>2026-04-29T18:12:36.065Z</time></trkpt><trkpt lat="42.96381505942556" lon="10.847781603990956"><ele>42.0</ele><time>2026-04-29T18:12:37.065Z</time></trkpt><trkpt lat="42.96376946626444" lon="10.847385697972703"><ele>41.0</ele><time>2026-04-29T18:12:38.065Z</time></trkpt><trkpt lat="42.96372063727991" lon="10.846984583172738"><ele>40.5</ele><time>2026-04-29T18:12:39.065Z</time></trkpt><trkpt lat="42.96365762612226" lon="10.846603991867047"><ele>40.0</ele><time>2026-04-29T18:12:40.065Z</time></trkpt><trkpt lat="42.96359185727977" lon="10.846213204911379"><ele>39.5</ele><time>2026-04-29T18:12:41.065Z</time></trkpt><trkpt lat="42.96352608911959" lon="10.845820930914051"><ele>39.0</ele><time>2026-04-29T18:12:42.065Z</time></trkpt><trkpt lat="42.963463638933035" lon="10.845423768178778"><ele>39.0</ele><time>2026-04-29T18:12:43.065Z</time></trkpt><trkpt lat="42.963404778129245" lon="10.84502764205357"><ele>39.0</ele><time>2026-04-29T18:12:44.065Z</time></trkpt><trkpt lat="42.96334491653922" lon="10.844632553450426"><ele>38.5</ele><time>2026-04-29T18:12:45.065Z</time></trkpt><trkpt lat="42.96328389635561" lon="10.844233681546902"><ele>38.0</ele><time>2026-04-29T18:12:46.065Z</time></trkpt><trkpt lat="42.963223672306356" lon="10.843835372881196"><ele>39.0</ele><time>2026-04-29T18:12:47.065Z</time></trkpt><trkpt lat="42.963161346713974" lon="10.843439528567224"><ele>40.0</ele><time>2026-04-29T18:12:48.065Z</time></trkpt><trkpt lat="42.963098857858185" lon="10.843045091161216"><ele>40.0</ele><time>2026-04-29T18:12:49.065Z</time></trkpt><trkpt lat="42.96303957832347" lon="10.842659140779201"><ele>40.0</ele><time>2026-04-29T18:12:50.065Z</time></trkpt><trkpt lat="42.962978468951746" lon="10.842278697015992"><ele>40.0</ele><time>2026-04-29T18:12:51.065Z</time></trkpt><trkpt lat="42.962915259696686" lon="10.841889961290718"><ele>40.0</ele><time>2026-04-29T18:12:52.065Z</time></trkpt><trkpt lat="42.96285277465231" lon="10.841503274152435"><ele>40.0</ele><time>2026-04-29T18:12:53.065Z</time></trkpt><trkpt lat="42.9627853577712" lon="10.841114172133812"><ele>40.0</ele><time>2026-04-29T18:12:54.065Z</time></trkpt><trkpt lat="42.962718448065836" lon="10.84072520869242"><ele>41.0</ele><time>2026-04-29T18:12:55.065Z</time></trkpt><trkpt lat="42.96264427768774" lon="10.840335155191642"><ele>42.0</ele><time>2026-04-29T18:12:56.065Z</time></trkpt><trkpt lat="42.962568026926675" lon="10.839945596472267"><ele>41.0</ele><time>2026-04-29T18:12:57.065Z</time></trkpt><trkpt lat="42.96248351881262" lon="10.839555238333155"><ele>40.0</ele><time>2026-04-29T18:12:58.065Z</time></trkpt><trkpt lat="42.962397217482305" lon="10.839168694504734"><ele>40.0</ele><time>2026-04-29T18:12:59.065Z</time></trkpt><trkpt lat="42.96230820677098" lon="10.838780889374211"><ele>40.0</ele><time>2026-04-29T18:13:00.065Z</time></trkpt><trkpt lat="42.962212892637275" lon="10.838392399252845"><ele>39.0</ele><time>2026-04-29T18:13:01.065Z</time></trkpt><trkpt lat="42.96211533033806" lon="10.838005994786775"><ele>38.0</ele><time>2026-04-29T18:13:02.065Z</time></trkpt><trkpt lat="42.96201687849008" lon="10.837619982859009"><ele>36.0</ele><time>2026-04-29T18:13:03.065Z</time></trkpt><trkpt lat="42.9619198708151" lon="10.837233793927266"><ele>34.0</ele><time>2026-04-29T18:13:04.065Z</time></trkpt><trkpt lat="42.961829639785876" lon="10.83684641317142"><ele>33.0</ele><time>2026-04-29T18:13:05.065Z</time></trkpt><trkpt lat="42.96174283806442" lon="10.836457461420071"><ele>32.0</ele><time>2026-04-29T18:13:06.065Z</time></trkpt><trkpt lat="42.9616614922844" lon="10.836076391096407"><ele>30.5</ele><time>2026-04-29T18:13:07.065Z</time></trkpt><trkpt lat="42.96157605651385" lon="10.83569831774497"><ele>29.0</ele><time>2026-04-29T18:13:08.065Z</time></trkpt><trkpt lat="42.96148992635846" lon="10.835323839610174"><ele>29.5</ele><time>2026-04-29T18:13:09.066Z</time></trkpt><trkpt lat="42.9614029193001" lon="10.834954322317035"><ele>30.0</ele><time>2026-04-29T18:13:10.066Z</time></trkpt><trkpt lat="42.96131241550489" lon="10.834593833406542"><ele>30.5</ele><time>2026-04-29T18:13:11.066Z</time></trkpt><trkpt lat="42.96122707298168" lon="10.834230291043717"><ele>31.0</ele><time>2026-04-29T18:13:12.066Z</time></trkpt><trkpt lat="42.961139996792106" lon="10.83386936765458"><ele>31.0</ele><time>2026-04-29T18:13:13.066Z</time></trkpt><trkpt lat="42.961058982595596" lon="10.833506681834338"><ele>31.0</ele><time>2026-04-29T18:13:14.066Z</time></trkpt><trkpt lat="42.96097407474334" lon="10.83314257290332"><ele>29.0</ele><time>2026-04-29T18:13:15.066Z</time></trkpt><trkpt lat="42.960884213851855" lon="10.832780011999048"><ele>27.0</ele><time>2026-04-29T18:13:16.066Z</time></trkpt><trkpt lat="42.960797698839855" lon="10.83241979716644"><ele>25.5</ele><time>2026-04-29T18:13:17.067Z</time></trkpt><trkpt lat="42.96070981838838" lon="10.832058454250141"><ele>24.0</ele><time>2026-04-29T18:13:18.066Z</time></trkpt><trkpt lat="42.960622465555254" lon="10.831693926053319"><ele>23.5</ele><time>2026-04-29T18:13:19.066Z</time></trkpt><trkpt lat="42.96053483967122" lon="10.831328139080929"><ele>23.0</ele><time>2026-04-29T18:13:20.067Z</time></trkpt><trkpt lat="42.960446505035364" lon="10.830961446932662"><ele>22.0</ele><time>2026-04-29T18:13:21.067Z</time></trkpt><trkpt lat="42.96035626567006" lon="10.830593425944189"><ele>21.0</ele><time>2026-04-29T18:13:22.067Z</time></trkpt><trkpt lat="42.960266694400815" lon="10.830232848968274"><ele>20.5</ele><time>2026-04-29T18:13:23.067Z</time></trkpt><trkpt lat="42.96017782184297" lon="10.829864313606523"><ele>20.0</ele><time>2026-04-29T18:13:24.067Z</time></trkpt><trkpt lat="42.960086712259105" lon="10.829492808271208"><ele>21.0</ele><time>2026-04-29T18:13:25.067Z</time></trkpt><trkpt lat="42.95999671053953" lon="10.829120646065185"><ele>22.0</ele><time>2026-04-29T18:13:26.067Z</time></trkpt><trkpt lat="42.95990723159934" lon="10.828746358954323"><ele>22.5</ele><time>2026-04-29T18:13:27.067Z</time></trkpt><trkpt lat="42.95981535098674" lon="10.8283741019796"><ele>23.0</ele><time>2026-04-29T18:13:28.067Z</time></trkpt><trkpt lat="42.959725621142674" lon="10.82800175433439"><ele>23.5</ele><time>2026-04-29T18:13:29.067Z</time></trkpt><trkpt lat="42.95964057008565" lon="10.827625164158045"><ele>24.0</ele><time>2026-04-29T18:13:30.067Z</time></trkpt><trkpt lat="42.959561131263264" lon="10.82724954632719"><ele>24.0</ele><time>2026-04-29T18:13:31.067Z</time></trkpt><trkpt lat="42.95948450995826" lon="10.826871625856494"><ele>24.0</ele><time>2026-04-29T18:13:32.067Z</time></trkpt><trkpt lat="42.95941474907424" lon="10.826488965773455"><ele>23.5</ele><time>2026-04-29T18:13:33.067Z</time></trkpt><trkpt lat="42.95934816412754" lon="10.826109222642463"><ele>23.0</ele><time>2026-04-29T18:13:34.067Z</time></trkpt><trkpt lat="42.95928684117485" lon="10.825730080454903"><ele>22.0</ele><time>2026-04-29T18:13:35.067Z</time></trkpt><trkpt lat="42.95923190520558" lon="10.825348808108224"><ele>21.0</ele><time>2026-04-29T18:13:36.068Z</time></trkpt><trkpt lat="42.959182891838836" lon="10.824969189586938"><ele>21.0</ele><time>2026-04-29T18:13:37.068Z</time></trkpt><trkpt lat="42.959131327627325" lon="10.824586844785285"><ele>21.0</ele><time>2026-04-29T18:13:38.068Z</time></trkpt><trkpt lat="42.95908439399281" lon="10.824204390797203"><ele>21.0</ele><time>2026-04-29T18:13:39.068Z</time></trkpt><trkpt lat="42.95904547322078" lon="10.823818000819612"><ele>21.0</ele><time>2026-04-29T18:13:40.068Z</time></trkpt><trkpt lat="42.9590140132385" lon="10.823431303265183"><ele>21.0</ele><time>2026-04-29T18:13:41.068Z</time></trkpt><trkpt lat="42.958990791392544" lon="10.82304057399665"><ele>21.0</ele><time>2026-04-29T18:13:42.068Z</time></trkpt><trkpt lat="42.95897142486475" lon="10.82265041455657"><ele>21.0</ele><time>2026-04-29T18:13:43.068Z</time></trkpt><trkpt lat="42.95895658637455" lon="10.822255734181772"><ele>21.0</ele><time>2026-04-29T18:13:44.068Z</time></trkpt><trkpt lat="42.95894648407722" lon="10.821864398999516"><ele>21.5</ele><time>2026-04-29T18:13:45.068Z</time></trkpt><trkpt lat="42.958939386230476" lon="10.821472030538066"><ele>22.0</ele><time>2026-04-29T18:13:46.068Z</time></trkpt><trkpt lat="42.958934387047044" lon="10.821076578240472"><ele>22.0</ele><time>2026-04-29T18:13:47.068Z</time></trkpt><trkpt lat="42.958936397358016" lon="10.820678257570195"><ele>22.0</ele><time>2026-04-29T18:13:48.068Z</time></trkpt><trkpt lat="42.95894236035226" lon="10.820282835187003"><ele>21.0</ele><time>2026-04-29T18:13:49.068Z</time></trkpt><trkpt lat="42.958953676617206" lon="10.819886585694922"><ele>20.0</ele><time>2026-04-29T18:13:50.068Z</time></trkpt><trkpt lat="42.958973348919734" lon="10.819490181848373"><ele>20.0</ele><time>2026-04-29T18:13:51.068Z</time></trkpt><trkpt lat="42.95899438299629" lon="10.819091951090991"><ele>20.0</ele><time>2026-04-29T18:13:52.068Z</time></trkpt><trkpt lat="42.95901642535003" lon="10.81869406813474"><ele>19.5</ele><time>2026-04-29T18:13:53.068Z</time></trkpt><trkpt lat="42.95903836593211" lon="10.818296791829452"><ele>19.0</ele><time>2026-04-29T18:13:54.068Z</time></trkpt><trkpt lat="42.959059423602554" lon="10.817900712448123"><ele>19.5</ele><time>2026-04-29T18:13:55.068Z</time></trkpt><trkpt lat="42.95908007941058" lon="10.817503773073069"><ele>20.0</ele><time>2026-04-29T18:13:56.068Z</time></trkpt><trkpt lat="42.959098993783" lon="10.817105900390352"><ele>19.5</ele><time>2026-04-29T18:13:57.068Z</time></trkpt><trkpt lat="42.95911562816779" lon="10.816712968113201"><ele>19.0</ele><time>2026-04-29T18:13:58.068Z</time></trkpt><trkpt lat="42.959130138637" lon="10.81631971920333"><ele>19.0</ele><time>2026-04-29T18:13:59.068Z</time></trkpt><trkpt lat="42.95915240511309" lon="10.815921460360572"><ele>19.0</ele><time>2026-04-29T18:14:00.068Z</time></trkpt><trkpt lat="42.95917748520118" lon="10.815529279648883"><ele>20.0</ele><time>2026-04-29T18:14:01.068Z</time></trkpt><trkpt lat="42.959203964688264" lon="10.815138987227447"><ele>21.0</ele><time>2026-04-29T18:14:02.068Z</time></trkpt><trkpt lat="42.959233522967345" lon="10.814750241316206"><ele>21.0</ele><time>2026-04-29T18:14:03.068Z</time></trkpt><trkpt lat="42.9592652566195" lon="10.814367435149101"><ele>21.0</ele><time>2026-04-29T18:14:04.068Z</time></trkpt><trkpt lat="42.95929664188392" lon="10.813990537916482"><ele>21.0</ele><time>2026-04-29T18:14:05.068Z</time></trkpt><trkpt lat="42.95933145842811" lon="10.813616867742398"><ele>21.0</ele><time>2026-04-29T18:14:06.068Z</time></trkpt><trkpt lat="42.95936729515721" lon="10.813243699570506"><ele>21.0</ele><time>2026-04-29T18:14:07.068Z</time></trkpt><trkpt lat="42.95940129171041" lon="10.81287237003069"><ele>21.0</ele><time>2026-04-29T18:14:08.068Z</time></trkpt><trkpt lat="42.95943610198397" lon="10.8124972340313"><ele>21.0</ele><time>2026-04-29T18:14:09.068Z</time></trkpt><trkpt lat="42.95946822465962" lon="10.812122131083715"><ele>21.0</ele><time>2026-04-29T18:14:10.068Z</time></trkpt><trkpt lat="42.959501027456255" lon="10.811746452595811"><ele>21.0</ele><time>2026-04-29T18:14:11.068Z</time></trkpt><trkpt lat="42.959533407568976" lon="10.811369421858224"><ele>21.0</ele><time>2026-04-29T18:14:12.068Z</time></trkpt><trkpt lat="42.95956618090174" lon="10.810994491163434"><ele>21.5</ele><time>2026-04-29T18:14:13.068Z</time></trkpt><trkpt lat="42.959599282064616" lon="10.8106162050516"><ele>22.0</ele><time>2026-04-29T18:14:14.068Z</time></trkpt><trkpt lat="42.95962959460358" lon="10.810236408694003"><ele>21.5</ele><time>2026-04-29T18:14:15.068Z</time></trkpt><trkpt lat="42.959652892395084" lon="10.809854820768022"><ele>21.0</ele><time>2026-04-29T18:14:16.068Z</time></trkpt><trkpt lat="42.959663354699416" lon="10.809470605269844"><ele>20.5</ele><time>2026-04-29T18:14:17.068Z</time></trkpt><trkpt lat="42.95966693080214" lon="10.809092545018554"><ele>20.0</ele><time>2026-04-29T18:14:18.068Z</time></trkpt><trkpt lat="42.95966389863785" lon="10.80871005906667"><ele>19.5</ele><time>2026-04-29T18:14:19.068Z</time></trkpt><trkpt lat="42.95965357762073" lon="10.808326648868483"><ele>19.0</ele><time>2026-04-29T18:14:20.068Z</time></trkpt><trkpt lat="42.959640120819124" lon="10.807940359055765"><ele>19.5</ele><time>2026-04-29T18:14:21.068Z</time></trkpt><trkpt lat="42.959618751307715" lon="10.807556540589887"><ele>20.0</ele><time>2026-04-29T18:14:22.068Z</time></trkpt><trkpt lat="42.95958941365839" lon="10.80717530134221"><ele>19.0</ele><time>2026-04-29T18:14:23.068Z</time></trkpt><trkpt lat="42.95955579886569" lon="10.806791843141962"><ele>18.0</ele><time>2026-04-29T18:14:24.068Z</time></trkpt><trkpt lat="42.95951431247946" lon="10.806407576205112"><ele>18.0</ele><time>2026-04-29T18:14:25.068Z</time></trkpt><trkpt lat="42.959466149752586" lon="10.806022182914957"><ele>18.0</ele><time>2026-04-29T18:14:26.068Z</time></trkpt><trkpt lat="42.959413324699796" lon="10.805635837489294"><ele>17.5</ele><time>2026-04-29T18:14:27.068Z</time></trkpt><trkpt lat="42.9593571349876" lon="10.805251772419998"><ele>17.0</ele><time>2026-04-29T18:14:28.068Z</time></trkpt><trkpt lat="42.95929451211682" lon="10.804867317463096"><ele>18.0</ele><time>2026-04-29T18:14:29.068Z</time></trkpt><trkpt lat="42.95923173465316" lon="10.804483155142536"><ele>19.0</ele><time>2026-04-29T18:14:30.068Z</time></trkpt><trkpt lat="42.9591652704496" lon="10.804094534248208"><ele>19.0</ele><time>2026-04-29T18:14:31.068Z</time></trkpt><trkpt lat="42.959101668863156" lon="10.803707587955108"><ele>19.0</ele><time>2026-04-29T18:14:32.068Z</time></trkpt><trkpt lat="42.959038150415445" lon="10.803319074046149"><ele>19.0</ele><time>2026-04-29T18:14:33.068Z</time></trkpt><trkpt lat="42.95897572969901" lon="10.802933453012592"><ele>19.0</ele><time>2026-04-29T18:14:34.068Z</time></trkpt><trkpt lat="42.958912104365254" lon="10.802545907497619"><ele>19.0</ele><time>2026-04-29T18:14:35.068Z</time></trkpt><trkpt lat="42.95884791746422" lon="10.802159124567158"><ele>19.0</ele><time>2026-04-29T18:14:36.068Z</time></trkpt><trkpt lat="42.958783239178125" lon="10.801775211456873"><ele>19.0</ele><time>2026-04-29T18:14:37.068Z</time></trkpt><trkpt lat="42.958718917950705" lon="10.801391053263572"><ele>19.0</ele><time>2026-04-29T18:14:38.068Z</time></trkpt><trkpt lat="42.958657020855824" lon="10.801005376317"><ele>19.0</ele><time>2026-04-29T18:14:39.068Z</time></trkpt><trkpt lat="42.958594392337396" lon="10.800622264926309"><ele>19.0</ele><time>2026-04-29T18:14:40.068Z</time></trkpt><trkpt lat="42.958532669652385" lon="10.80024228513496"><ele>19.5</ele><time>2026-04-29T18:14:41.068Z</time></trkpt><trkpt lat="42.95846722121964" lon="10.799859441073997"><ele>20.0</ele><time>2026-04-29T18:14:42.068Z</time></trkpt><trkpt lat="42.95840228157598" lon="10.799480040675487"><ele>20.0</ele><time>2026-04-29T18:14:43.068Z</time></trkpt><trkpt lat="42.95833726110214" lon="10.799096095782264"><ele>20.0</ele><time>2026-04-29T18:14:44.068Z</time></trkpt><trkpt lat="42.958272637702834" lon="10.798716578837508"><ele>21.0</ele><time>2026-04-29T18:14:45.068Z</time></trkpt><trkpt lat="42.958209735802626" lon="10.798334826307705"><ele>22.0</ele><time>2026-04-29T18:14:46.068Z</time></trkpt><trkpt lat="42.95814710423187" lon="10.797956527356044"><ele>23.5</ele><time>2026-04-29T18:14:47.068Z</time></trkpt><trkpt lat="42.958084460392" lon="10.797591661537188"><ele>25.0</ele><time>2026-04-29T18:14:48.068Z</time></trkpt><trkpt lat="42.958020695409395" lon="10.797229244266704"><ele>25.0</ele><time>2026-04-29T18:14:49.068Z</time></trkpt><trkpt lat="42.95796008712684" lon="10.796865066562338"><ele>25.0</ele><time>2026-04-29T18:14:50.068Z</time></trkpt><trkpt lat="42.957899716951125" lon="10.796504671028073"><ele>26.0</ele><time>2026-04-29T18:14:51.068Z</time></trkpt><trkpt lat="42.95784077838126" lon="10.796142199359089"><ele>27.0</ele><time>2026-04-29T18:14:52.068Z</time></trkpt><trkpt lat="42.957783535430245" lon="10.795782814677018"><ele>28.5</ele><time>2026-04-29T18:14:53.068Z</time></trkpt><trkpt lat="42.95772121510742" lon="10.795417103042253"><ele>30.0</ele><time>2026-04-29T18:14:54.068Z</time></trkpt><trkpt lat="42.957661800807024" lon="10.795055708818543"><ele>31.0</ele><time>2026-04-29T18:14:55.068Z</time></trkpt><trkpt lat="42.957597008983285" lon="10.794693655467894"><ele>32.0</ele><time>2026-04-29T18:14:56.068Z</time></trkpt><trkpt lat="42.95753693510035" lon="10.7943239024271"><ele>32.0</ele><time>2026-04-29T18:14:57.068Z</time></trkpt><trkpt lat="42.95747553833927" lon="10.793953217412163"><ele>32.0</ele><time>2026-04-29T18:14:58.069Z</time></trkpt><trkpt lat="42.95741589958442" lon="10.793585169608747"><ele>32.5</ele><time>2026-04-29T18:14:59.069Z</time></trkpt><trkpt lat="42.95735058377432" lon="10.793213293957354"><ele>33.0</ele><time>2026-04-29T18:15:00.069Z</time></trkpt><trkpt lat="42.9572901805386" lon="10.792838972361867"><ele>33.5</ele><time>2026-04-29T18:15:01.069Z</time></trkpt><trkpt lat="42.95723046578138" lon="10.792468295288872"><ele>34.0</ele><time>2026-04-29T18:15:02.069Z</time></trkpt><trkpt lat="42.95716737949592" lon="10.79209863789801"><ele>34.5</ele><time>2026-04-29T18:15:03.069Z</time></trkpt><trkpt lat="42.957103232898284" lon="10.791728363367454"><ele>35.0</ele><time>2026-04-29T18:15:04.069Z</time></trkpt><trkpt lat="42.95703638214695" lon="10.791356723370795"><ele>35.5</ele><time>2026-04-29T18:15:05.069Z</time></trkpt><trkpt lat="42.95696456466129" lon="10.790988067312956"><ele>36.0</ele><time>2026-04-29T18:15:06.069Z</time></trkpt><trkpt lat="42.956890589855085" lon="10.790618454167772"><ele>36.0</ele><time>2026-04-29T18:15:07.069Z</time></trkpt><trkpt lat="42.95680896087675" lon="10.790252768616659"><ele>36.0</ele><time>2026-04-29T18:15:08.069Z</time></trkpt><trkpt lat="42.956722025033216" lon="10.789892829113414"><ele>37.0</ele><time>2026-04-29T18:15:09.069Z</time></trkpt><trkpt lat="42.95662538230439" lon="10.789531865047456"><ele>38.0</ele><time>2026-04-29T18:15:10.069Z</time></trkpt><trkpt lat="42.956519217094886" lon="10.789174498873667"><ele>38.5</ele><time>2026-04-29T18:15:11.069Z</time></trkpt><trkpt lat="42.95640752738543" lon="10.788821843681632"><ele>39.0</ele><time>2026-04-29T18:15:12.069Z</time></trkpt><trkpt lat="42.956289614702584" lon="10.788466956054203"><ele>39.0</ele><time>2026-04-29T18:15:13.069Z</time></trkpt><trkpt lat="42.95616625807951" lon="10.788110637655922"><ele>39.0</ele><time>2026-04-29T18:15:14.069Z</time></trkpt><trkpt lat="42.95603547833526" lon="10.787757470607874"><ele>37.5</ele><time>2026-04-29T18:15:15.069Z</time></trkpt><trkpt lat="42.955896347167794" lon="10.787403803080323"><ele>36.0</ele><time>2026-04-29T18:15:16.069Z</time></trkpt><trkpt lat="42.955755469141366" lon="10.787055758706908"><ele>36.5</ele><time>2026-04-29T18:15:17.069Z</time></trkpt><trkpt lat="42.95560901230505" lon="10.786707113721798"><ele>37.0</ele><time>2026-04-29T18:15:18.069Z</time></trkpt><trkpt lat="42.955459117467505" lon="10.78635307067536"><ele>37.5</ele><time>2026-04-29T18:15:19.069Z</time></trkpt><trkpt lat="42.95530601829639" lon="10.786007402100317"><ele>38.0</ele><time>2026-04-29T18:15:20.069Z</time></trkpt><trkpt lat="42.95515257604761" lon="10.785651671981341"><ele>37.0</ele><time>2026-04-29T18:15:21.069Z</time></trkpt><trkpt lat="42.95499729914592" lon="10.785306107714813"><ele>36.0</ele><time>2026-04-29T18:15:22.07Z</time></trkpt><trkpt lat="42.95483836244854" lon="10.784954327406044"><ele>35.5</ele><time>2026-04-29T18:15:23.07Z</time></trkpt><trkpt lat="42.95468301948339" lon="10.784603210453623"><ele>35.0</ele><time>2026-04-29T18:15:24.07Z</time></trkpt><trkpt lat="42.9545275739005" lon="10.784251659767987"><ele>36.5</ele><time>2026-04-29T18:15:25.07Z</time></trkpt><trkpt lat="42.95437461080934" lon="10.783903841003454"><ele>38.0</ele><time>2026-04-29T18:15:26.069Z</time></trkpt><trkpt lat="42.954219925154355" lon="10.783553125923579"><ele>38.0</ele><time>2026-04-29T18:15:27.069Z</time></trkpt><trkpt lat="42.9540641173487" lon="10.78320431944098"><ele>38.0</ele><time>2026-04-29T18:15:28.07Z</time></trkpt><trkpt lat="42.95391220812443" lon="10.78285940762025"><ele>39.0</ele><time>2026-04-29T18:15:29.069Z</time></trkpt><trkpt lat="42.95376115200093" lon="10.782512657453124"><ele>40.0</ele><time>2026-04-29T18:15:30.069Z</time></trkpt><trkpt lat="42.953609433733824" lon="10.782166429466471"><ele>40.0</ele><time>2026-04-29T18:15:31.07Z</time></trkpt><trkpt lat="42.95345797059172" lon="10.781820246296235"><ele>40.0</ele><time>2026-04-29T18:15:32.07Z</time></trkpt><trkpt lat="42.95330819406204" lon="10.78147720619793"><ele>39.5</ele><time>2026-04-29T18:15:33.07Z</time></trkpt><trkpt lat="42.953157898520665" lon="10.781133116999401"><ele>39.0</ele><time>2026-04-29T18:15:34.07Z</time></trkpt><trkpt lat="42.95300793129869" lon="10.780791898105734"><ele>39.0</ele><time>2026-04-29T18:15:35.07Z</time></trkpt><trkpt lat="42.95285819273339" lon="10.780452088470835"><ele>39.0</ele><time>2026-04-29T18:15:36.07Z</time></trkpt><trkpt lat="42.952707107620846" lon="10.780111492097097"><ele>39.5</ele><time>2026-04-29T18:15:37.07Z</time></trkpt><trkpt lat="42.95255607720203" lon="10.779778712772554"><ele>40.0</ele><time>2026-04-29T18:15:38.07Z</time></trkpt><trkpt lat="42.95240672715061" lon="10.779440475431088"><ele>40.5</ele><time>2026-04-29T18:15:39.07Z</time></trkpt><trkpt lat="42.952259990161835" lon="10.779098398935071"><ele>41.0</ele><time>2026-04-29T18:15:40.07Z</time></trkpt><trkpt lat="42.95211258732145" lon="10.77875990740435"><ele>42.5</ele><time>2026-04-29T18:15:41.07Z</time></trkpt><trkpt lat="42.95196367669747" lon="10.778426524853048"><ele>44.0</ele><time>2026-04-29T18:15:42.07Z</time></trkpt><trkpt lat="42.95181490591717" lon="10.778093280699606"><ele>44.5</ele><time>2026-04-29T18:15:43.07Z</time></trkpt><trkpt lat="42.95166531437545" lon="10.77776082154743"><ele>45.0</ele><time>2026-04-29T18:15:44.07Z</time></trkpt><trkpt lat="42.95151811253772" lon="10.777426864023516"><ele>46.5</ele><time>2026-04-29T18:15:45.07Z</time></trkpt><trkpt lat="42.951373497158905" lon="10.777102817832832"><ele>48.0</ele><time>2026-04-29T18:15:46.07Z</time></trkpt><trkpt lat="42.95123011267389" lon="10.776777568570736"><ele>48.5</ele><time>2026-04-29T18:15:47.07Z</time></trkpt><trkpt lat="42.95108721749428" lon="10.776452521021474"><ele>49.0</ele><time>2026-04-29T18:15:48.07Z</time></trkpt><trkpt lat="42.95094598571435" lon="10.776132570194891"><ele>49.0</ele><time>2026-04-29T18:15:49.07Z</time></trkpt><trkpt lat="42.950804438071636" lon="10.775811617508564"><ele>49.0</ele><time>2026-04-29T18:15:50.07Z</time></trkpt><trkpt lat="42.95066219958504" lon="10.775481500454802"><ele>53.0</ele><time>2026-04-29T18:15:51.07Z</time></trkpt><trkpt lat="42.950519239415996" lon="10.775153196390205"><ele>57.0</ele><time>2026-04-29T18:15:52.07Z</time></trkpt><trkpt lat="42.95037859353628" lon="10.77481742345748"><ele>57.0</ele><time>2026-04-29T18:15:53.07Z</time></trkpt><trkpt lat="42.95023704319564" lon="10.77447988165952"><ele>57.0</ele><time>2026-04-29T18:15:54.07Z</time></trkpt><trkpt lat="42.9501015401467" lon="10.774138374344203"><ele>56.0</ele><time>2026-04-29T18:15:55.07Z</time></trkpt><trkpt lat="42.94996758162708" lon="10.773788210867703"><ele>55.0</ele><time>2026-04-29T18:15:56.07Z</time></trkpt><trkpt lat="42.94983607061474" lon="10.773431344049767"><ele>55.0</ele><time>2026-04-29T18:15:57.07Z</time></trkpt><trkpt lat="42.94971315485643" lon="10.773067172874114"><ele>55.0</ele><time>2026-04-29T18:15:58.07Z</time></trkpt><trkpt lat="42.94959707596857" lon="10.772693624109037"><ele>56.5</ele><time>2026-04-29T18:15:59.07Z</time></trkpt><trkpt lat="42.9494871577377" lon="10.772317576996246"><ele>58.0</ele><time>2026-04-29T18:16:00.07Z</time></trkpt><trkpt lat="42.9493825036162" lon="10.771938966072279"><ele>59.0</ele><time>2026-04-29T18:16:01.07Z</time></trkpt><trkpt lat="42.94928244898547" lon="10.771563085677357"><ele>60.0</ele><time>2026-04-29T18:16:02.07Z</time></trkpt><trkpt lat="42.94918727065825" lon="10.771191287549744"><ele>58.5</ele><time>2026-04-29T18:16:03.07Z</time></trkpt><trkpt lat="42.949101190825786" lon="10.770820601854998"><ele>57.0</ele><time>2026-04-29T18:16:04.07Z</time></trkpt><trkpt lat="42.949020566441696" lon="10.77044767997789"><ele>58.5</ele><time>2026-04-29T18:16:05.07Z</time></trkpt><trkpt lat="42.94894453296931" lon="10.770072077384036"><ele>60.0</ele><time>2026-04-29T18:16:06.07Z</time></trkpt><trkpt lat="42.948871402392676" lon="10.769697181854392"><ele>62.0</ele><time>2026-04-29T18:16:07.07Z</time></trkpt><trkpt lat="42.94880420224181" lon="10.769319054535117"><ele>64.0</ele><time>2026-04-29T18:16:08.07Z</time></trkpt><trkpt lat="42.94874747134948" lon="10.768942465938679"><ele>64.0</ele><time>2026-04-29T18:16:09.07Z</time></trkpt><trkpt lat="42.948702891207894" lon="10.768564220889788"><ele>64.0</ele><time>2026-04-29T18:16:10.07Z</time></trkpt><trkpt lat="42.9486636361829" lon="10.76818112998499"><ele>67.0</ele><time>2026-04-29T18:16:11.07Z</time></trkpt><trkpt lat="42.948627428807846" lon="10.767800515040097"><ele>70.0</ele><time>2026-04-29T18:16:12.07Z</time></trkpt><trkpt lat="42.94859386757963" lon="10.767420188209535"><ele>73.5</ele><time>2026-04-29T18:16:13.07Z</time></trkpt><trkpt lat="42.94856391670611" lon="10.767041163996426"><ele>77.0</ele><time>2026-04-29T18:16:14.07Z</time></trkpt><trkpt lat="42.948532514102595" lon="10.766664506142673"><ele>80.0</ele><time>2026-04-29T18:16:15.07Z</time></trkpt><trkpt lat="42.94850029248109" lon="10.766287589111828"><ele>83.0</ele><time>2026-04-29T18:16:16.07Z</time></trkpt><trkpt lat="42.948469438056804" lon="10.765908962090302"><ele>84.0</ele><time>2026-04-29T18:16:17.071Z</time></trkpt><trkpt lat="42.948438890957405" lon="10.765534904320361"><ele>85.0</ele><time>2026-04-29T18:16:18.071Z</time></trkpt><trkpt lat="42.94841093828107" lon="10.76515864786511"><ele>82.0</ele><time>2026-04-29T18:16:19.071Z</time></trkpt><trkpt lat="42.94837879737028" lon="10.764783626782567"><ele>79.0</ele><time>2026-04-29T18:16:20.071Z</time></trkpt><trkpt lat="42.94835222260345" lon="10.764417144630816"><ele>72.5</ele><time>2026-04-29T18:16:21.071Z</time></trkpt><trkpt lat="42.94834718632065" lon="10.764062289094522"><ele>66.0</ele><time>2026-04-29T18:16:22.071Z</time></trkpt><trkpt lat="42.948314533916694" lon="10.763684206122107"><ele>65.0</ele><time>2026-04-29T18:16:23.071Z</time></trkpt><trkpt lat="42.94829557565908" lon="10.76331378093812"><ele>64.0</ele><time>2026-04-29T18:16:24.071Z</time></trkpt><trkpt lat="42.948270935946454" lon="10.762938649376098"><ele>67.5</ele><time>2026-04-29T18:16:25.071Z</time></trkpt><trkpt lat="42.94824691773432" lon="10.76256554702793"><ele>71.0</ele><time>2026-04-29T18:16:26.071Z</time></trkpt><trkpt lat="42.94822019813146" lon="10.762189158066617"><ele>74.0</ele><time>2026-04-29T18:16:27.071Z</time></trkpt><trkpt lat="42.94819247443989" lon="10.761813209069295"><ele>77.0</ele><time>2026-04-29T18:16:28.071Z</time></trkpt><trkpt lat="42.94816496982563" lon="10.761434604924261"><ele>77.0</ele><time>2026-04-29T18:16:29.071Z</time></trkpt><trkpt lat="42.94813401616129" lon="10.761055048354846"><ele>77.0</ele><time>2026-04-29T18:16:30.071Z</time></trkpt><trkpt lat="42.94810464500253" lon="10.760674274594237"><ele>76.0</ele><time>2026-04-29T18:16:31.071Z</time></trkpt><trkpt lat="42.94807908058402" lon="10.760292171896989"><ele>75.0</ele><time>2026-04-29T18:16:32.071Z</time></trkpt><trkpt lat="42.94805248055942" lon="10.759911406511272"><ele>70.0</ele><time>2026-04-29T18:16:33.071Z</time></trkpt><trkpt lat="42.948021482749354" lon="10.759524625669851"><ele>65.0</ele><time>2026-04-29T18:16:34.071Z</time></trkpt><trkpt lat="42.947991645830236" lon="10.759139675685578"><ele>63.0</ele><time>2026-04-29T18:16:35.071Z</time></trkpt><trkpt lat="42.94795631462239" lon="10.758751566699958"><ele>61.0</ele><time>2026-04-29T18:16:36.071Z</time></trkpt><trkpt lat="42.94791432804784" lon="10.758364989028944"><ele>61.0</ele><time>2026-04-29T18:16:37.071Z</time></trkpt><trkpt lat="42.94786586787169" lon="10.7579804483636"><ele>61.0</ele><time>2026-04-29T18:16:38.071Z</time></trkpt><trkpt lat="42.947812366144575" lon="10.757594111993479"><ele>65.5</ele><time>2026-04-29T18:16:39.071Z</time></trkpt><trkpt lat="42.94775153305659" lon="10.75720598588953"><ele>70.0</ele><time>2026-04-29T18:16:40.071Z</time></trkpt><trkpt lat="42.947687268068584" lon="10.756827646416214"><ele>75.5</ele><time>2026-04-29T18:16:41.071Z</time></trkpt><trkpt lat="42.947623181605856" lon="10.756442398867712"><ele>81.0</ele><time>2026-04-29T18:16:42.071Z</time></trkpt><trkpt lat="42.94755991143941" lon="10.756058968504785"><ele>93.5</ele><time>2026-04-29T18:16:43.071Z</time></trkpt><trkpt lat="42.9474592681266" lon="10.755694300290001"><ele>106.0</ele><time>2026-04-29T18:16:44.071Z</time></trkpt><trkpt lat="42.94736414307013" lon="10.75533293434181"><ele>111.5</ele><time>2026-04-29T18:16:45.071Z</time></trkpt><trkpt lat="42.947261996916126" lon="10.754976618447728"><ele>117.0</ele><time>2026-04-29T18:16:46.071Z</time></trkpt><trkpt lat="42.94713958131051" lon="10.754578298399489"><ele>117.0</ele><time>2026-04-29T18:16:47.214Z</time></trkpt><trkpt lat="42.947027290925455" lon="10.754240119952929"><ele>117.0</ele><time>2026-04-29T18:16:48.21Z</time></trkpt><trkpt lat="42.9469067380769" lon="10.7538936906237"><ele>117.0</ele><time>2026-04-29T18:16:49.21Z</time></trkpt><trkpt lat="42.94678311934443" lon="10.75354935731328"><ele>117.0</ele><time>2026-04-29T18:16:50.213Z</time></trkpt><trkpt lat="42.945761002222795" lon="10.751165450390037"><ele>81.0</ele><time>2026-04-29T18:16:53.826Z</time></trkpt><trkpt lat="42.94559540838071" lon="10.750646645114838"><ele>45.0</ele><time>2026-04-29T18:16:58.071Z</time></trkpt><trkpt lat="42.945461655953146" lon="10.750307058119926"><ele>40.0</ele><time>2026-04-29T18:16:59.071Z</time></trkpt><trkpt lat="42.94530608880205" lon="10.749863198898755"><ele>35.0</ele><time>2026-04-29T18:17:00.071Z</time></trkpt><trkpt lat="42.94515046969482" lon="10.749515794975311"><ele>33.0</ele><time>2026-04-29T18:17:01.071Z</time></trkpt><trkpt lat="42.94501160295948" lon="10.749186298986649"><ele>31.0</ele><time>2026-04-29T18:17:02.071Z</time></trkpt><trkpt lat="42.94487786829011" lon="10.748865989168475"><ele>35.0</ele><time>2026-04-29T18:17:03.071Z</time></trkpt><trkpt lat="42.944746915037584" lon="10.748539433712029"><ele>39.0</ele><time>2026-04-29T18:17:04.071Z</time></trkpt><trkpt lat="42.94461658221685" lon="10.74821444467955"><ele>39.0</ele><time>2026-04-29T18:17:05.071Z</time></trkpt><trkpt lat="42.944486035690716" lon="10.747886534033759"><ele>39.0</ele><time>2026-04-29T18:17:06.071Z</time></trkpt><trkpt lat="42.94435543109922" lon="10.747552340786347"><ele>41.0</ele><time>2026-04-29T18:17:07.071Z</time></trkpt><trkpt lat="42.94422080284826" lon="10.74722010013102"><ele>43.0</ele><time>2026-04-29T18:17:08.071Z</time></trkpt><trkpt lat="42.944085458309274" lon="10.746888620123977"><ele>45.5</ele><time>2026-04-29T18:17:09.071Z</time></trkpt><trkpt lat="42.94395539636152" lon="10.746555582258374"><ele>48.0</ele><time>2026-04-29T18:17:10.071Z</time></trkpt><trkpt lat="42.94382309464665" lon="10.746213750318"><ele>57.0</ele><time>2026-04-29T18:17:11.071Z</time></trkpt><trkpt lat="42.943689983904285" lon="10.745874054789459"><ele>66.0</ele><time>2026-04-29T18:17:12.071Z</time></trkpt><trkpt lat="42.94355676294639" lon="10.745537434368865"><ele>75.0</ele><time>2026-04-29T18:17:13.071Z</time></trkpt><trkpt lat="42.94342376115751" lon="10.745199059524628"><ele>84.0</ele><time>2026-04-29T18:17:14.071Z</time></trkpt><trkpt lat="42.94328886404185" lon="10.744864414332637"><ele>84.5</ele><time>2026-04-29T18:17:15.071Z</time></trkpt><trkpt lat="42.94315348072967" lon="10.744529068043846"><ele>85.0</ele><time>2026-04-29T18:17:16.071Z</time></trkpt><trkpt lat="42.943009629998336" lon="10.744212644019255"><ele>90.5</ele><time>2026-04-29T18:17:17.071Z</time></trkpt><trkpt lat="42.942873383678986" lon="10.74388220470741"><ele>96.0</ele><time>2026-04-29T18:17:18.071Z</time></trkpt><trkpt lat="42.942766163756644" lon="10.743523251587918"><ele>97.0</ele><time>2026-04-29T18:17:19.071Z</time></trkpt><trkpt lat="42.9426764545489" lon="10.743167099691728"><ele>98.0</ele><time>2026-04-29T18:17:20.071Z</time></trkpt><trkpt lat="42.94258788740064" lon="10.742760509676925"><ele>93.5</ele><time>2026-04-29T18:17:21.214Z</time></trkpt><trkpt lat="42.94252014059031" lon="10.74240615042555"><ele>89.0</ele><time>2026-04-29T18:17:22.214Z</time></trkpt><trkpt lat="42.94245620929155" lon="10.740059967310176"><ele>74.0</ele><time>2026-04-29T18:17:28.071Z</time></trkpt><trkpt lat="42.94244835241863" lon="10.73967813081599"><ele>59.0</ele><time>2026-04-29T18:17:29.071Z</time></trkpt><trkpt lat="42.94246355558344" lon="10.739291852379287"><ele>59.0</ele><time>2026-04-29T18:17:30.071Z</time></trkpt><trkpt lat="42.942493093545245" lon="10.738919413795696"><ele>59.0</ele><time>2026-04-29T18:17:31.071Z</time></trkpt><trkpt lat="42.942538099529195" lon="10.738546106869626"><ele>62.0</ele><time>2026-04-29T18:17:32.071Z</time></trkpt><trkpt lat="42.942588961321064" lon="10.738183161307171"><ele>65.0</ele><time>2026-04-29T18:17:33.071Z</time></trkpt><trkpt lat="42.94265040757743" lon="10.737816340182384"><ele>58.5</ele><time>2026-04-29T18:17:34.073Z</time></trkpt><trkpt lat="42.94272242855387" lon="10.737461413479062"><ele>52.0</ele><time>2026-04-29T18:17:35.074Z</time></trkpt><trkpt lat="42.94279271452174" lon="10.737106084217507"><ele>52.0</ele><time>2026-04-29T18:17:36.074Z</time></trkpt><trkpt lat="42.94287454743939" lon="10.7367556587483"><ele>52.0</ele><time>2026-04-29T18:17:37.074Z</time></trkpt><trkpt lat="42.94296873780123" lon="10.736408541097827"><ele>52.0</ele><time>2026-04-29T18:17:38.073Z</time></trkpt><trkpt lat="42.9430765554065" lon="10.736076983631225"><ele>52.0</ele><time>2026-04-29T18:17:39.073Z</time></trkpt><trkpt lat="42.94319367302398" lon="10.735738104137969"><ele>52.5</ele><time>2026-04-29T18:17:40.074Z</time></trkpt><trkpt lat="42.94332501485529" lon="10.73540618130344"><ele>53.0</ele><time>2026-04-29T18:17:41.073Z</time></trkpt><trkpt lat="42.94346392401732" lon="10.735083956500883"><ele>61.5</ele><time>2026-04-29T18:17:42.073Z</time></trkpt><trkpt lat="42.9436154099113" lon="10.734764481534262"><ele>70.0</ele><time>2026-04-29T18:17:43.073Z</time></trkpt><trkpt lat="42.94376935793506" lon="10.73444583318103"><ele>65.0</ele><time>2026-04-29T18:17:44.073Z</time></trkpt><trkpt lat="42.9439109701902" lon="10.73413494852729"><ele>60.0</ele><time>2026-04-29T18:17:45.073Z</time></trkpt><trkpt lat="42.94407297590611" lon="10.73381836606216"><ele>60.5</ele><time>2026-04-29T18:17:46.073Z</time></trkpt><trkpt lat="42.94426187869836" lon="10.733541958746565"><ele>61.0</ele><time>2026-04-29T18:17:47.074Z</time></trkpt><trkpt lat="42.944448228132416" lon="10.73325089731136"><ele>61.0</ele><time>2026-04-29T18:17:48.074Z</time></trkpt><trkpt lat="42.94463214257027" lon="10.732956835564934"><ele>61.0</ele><time>2026-04-29T18:17:49.074Z</time></trkpt><trkpt lat="42.944814164657394" lon="10.732661036471765"><ele>62.5</ele><time>2026-04-29T18:17:50.074Z</time></trkpt><trkpt lat="42.944996920702614" lon="10.732364529000426"><ele>64.0</ele><time>2026-04-29T18:17:51.074Z</time></trkpt><trkpt lat="42.945176109350186" lon="10.732064892563304"><ele>56.5</ele><time>2026-04-29T18:17:52.074Z</time></trkpt><trkpt lat="42.94536039534612" lon="10.731765640012455"><ele>49.0</ele><time>2026-04-29T18:17:53.074Z</time></trkpt><trkpt lat="42.94554676131962" lon="10.731462453541962"><ele>49.0</ele><time>2026-04-29T18:17:54.074Z</time></trkpt><trkpt lat="42.94572532258237" lon="10.731152156015247"><ele>49.0</ele><time>2026-04-29T18:17:55.074Z</time></trkpt><trkpt lat="42.945905652009415" lon="10.73084326022494"><ele>49.0</ele><time>2026-04-29T18:17:56.074Z</time></trkpt><trkpt lat="42.9460856758772" lon="10.730533214890647"><ele>49.0</ele><time>2026-04-29T18:17:57.074Z</time></trkpt><trkpt lat="42.94625799348825" lon="10.73021595310018"><ele>48.5</ele><time>2026-04-29T18:17:58.074Z</time></trkpt><trkpt lat="42.94642536444907" lon="10.729891912717283"><ele>48.0</ele><time>2026-04-29T18:17:59.074Z</time></trkpt><trkpt lat="42.94658736423084" lon="10.729565098863004"><ele>49.0</ele><time>2026-04-29T18:18:00.074Z</time></trkpt><trkpt lat="42.94674440292124" lon="10.729233048254567"><ele>50.0</ele><time>2026-04-29T18:18:01.074Z</time></trkpt><trkpt lat="42.94688912980814" lon="10.728890442541838"><ele>46.0</ele><time>2026-04-29T18:18:02.074Z</time></trkpt><trkpt lat="42.947025005909566" lon="10.728538280691184"><ele>42.0</ele><time>2026-04-29T18:18:03.074Z</time></trkpt><trkpt lat="42.94714330206826" lon="10.728179092603801"><ele>42.0</ele><time>2026-04-29T18:18:04.074Z</time></trkpt><trkpt lat="42.94725568421118" lon="10.727811464023395"><ele>42.0</ele><time>2026-04-29T18:18:05.074Z</time></trkpt><trkpt lat="42.94736237200622" lon="10.727439803532816"><ele>39.0</ele><time>2026-04-29T18:18:06.074Z</time></trkpt><trkpt lat="42.9474575162802" lon="10.727063554041504"><ele>36.0</ele><time>2026-04-29T18:18:07.074Z</time></trkpt><trkpt lat="42.94754234351611" lon="10.726682500549705"><ele>36.5</ele><time>2026-04-29T18:18:08.074Z</time></trkpt><trkpt lat="42.947614585049095" lon="10.726300498597375"><ele>37.0</ele><time>2026-04-29T18:18:09.074Z</time></trkpt><trkpt lat="42.947669336419686" lon="10.725913050757674"><ele>36.0</ele><time>2026-04-29T18:18:10.074Z</time></trkpt><trkpt lat="42.94771475035777" lon="10.725528036295971"><ele>35.0</ele><time>2026-04-29T18:18:11.074Z</time></trkpt><trkpt lat="42.947745612529744" lon="10.725139271489988"><ele>35.0</ele><time>2026-04-29T18:18:12.074Z</time></trkpt><trkpt lat="42.947765825509194" lon="10.724747670300902"><ele>35.0</ele><time>2026-04-29T18:18:13.074Z</time></trkpt><trkpt lat="42.947770839708106" lon="10.724352179466402"><ele>38.0</ele><time>2026-04-29T18:18:14.074Z</time></trkpt><trkpt lat="42.94776661675704" lon="10.723953537648903"><ele>41.0</ele><time>2026-04-29T18:18:15.074Z</time></trkpt><trkpt lat="42.94775067138212" lon="10.723548361823653"><ele>44.0</ele><time>2026-04-29T18:18:16.074Z</time></trkpt><trkpt lat="42.94773741800401" lon="10.723141841604882"><ele>47.0</ele><time>2026-04-29T18:18:17.074Z</time></trkpt><trkpt lat="42.94772439663219" lon="10.722737765694307"><ele>47.0</ele><time>2026-04-29T18:18:18.074Z</time></trkpt><trkpt lat="42.947713282050124" lon="10.722328444637474"><ele>47.0</ele><time>2026-04-29T18:18:19.074Z</time></trkpt><trkpt lat="42.94766008178523" lon="10.721891119310953"><ele>45.5</ele><time>2026-04-29T18:18:20.074Z</time></trkpt><trkpt lat="42.947598946705995" lon="10.721442869752423"><ele>44.0</ele><time>2026-04-29T18:18:21.074Z</time></trkpt><trkpt lat="42.94754065676679" lon="10.721007034928977"><ele>38.5</ele><time>2026-04-29T18:18:22.074Z</time></trkpt><trkpt lat="42.94749592863958" lon="10.720576884532399"><ele>33.0</ele><time>2026-04-29T18:18:23.074Z</time></trkpt><trkpt lat="42.947454203225305" lon="10.720150246442683"><ele>33.0</ele><time>2026-04-29T18:18:24.074Z</time></trkpt><trkpt lat="42.94741135226193" lon="10.719725399507976"><ele>33.0</ele><time>2026-04-29T18:18:25.074Z</time></trkpt><trkpt lat="42.94736906717823" lon="10.7193047540067"><ele>31.0</ele><time>2026-04-29T18:18:26.074Z</time></trkpt><trkpt lat="42.947332304776104" lon="10.718884199536102"><ele>29.0</ele><time>2026-04-29T18:18:27.074Z</time></trkpt><trkpt lat="42.9472970452313" lon="10.718463163778388"><ele>27.0</ele><time>2026-04-29T18:18:28.074Z</time></trkpt><trkpt lat="42.94726276064007" lon="10.71803895564563"><ele>25.0</ele><time>2026-04-29T18:18:29.074Z</time></trkpt><trkpt lat="42.94722824307193" lon="10.717618473509738"><ele>25.0</ele><time>2026-04-29T18:18:30.074Z</time></trkpt><trkpt lat="42.94719190851733" lon="10.717201501085297"><ele>25.0</ele><time>2026-04-29T18:18:31.074Z</time></trkpt><trkpt lat="42.947154111645865" lon="10.716788643718061"><ele>23.5</ele><time>2026-04-29T18:18:32.074Z</time></trkpt><trkpt lat="42.94711459144806" lon="10.716383973325867"><ele>22.0</ele><time>2026-04-29T18:18:33.074Z</time></trkpt><trkpt lat="42.94707639078507" lon="10.715985559211099"><ele>22.0</ele><time>2026-04-29T18:18:34.074Z</time></trkpt><trkpt lat="42.94703530897907" lon="10.715582285168914"><ele>22.0</ele><time>2026-04-29T18:18:35.074Z</time></trkpt><trkpt lat="42.946994378522284" lon="10.715177331015942"><ele>21.5</ele><time>2026-04-29T18:18:36.074Z</time></trkpt><trkpt lat="42.94695501446582" lon="10.714777596408995"><ele>21.0</ele><time>2026-04-29T18:18:37.074Z</time></trkpt><trkpt lat="42.946917577731675" lon="10.714376657168462"><ele>19.5</ele><time>2026-04-29T18:18:38.074Z</time></trkpt><trkpt lat="42.94687997847035" lon="10.713974037165434"><ele>18.0</ele><time>2026-04-29T18:18:39.074Z</time></trkpt><trkpt lat="42.94683729589235" lon="10.71357107628308"><ele>17.0</ele><time>2026-04-29T18:18:40.074Z</time></trkpt><trkpt lat="42.94679566195198" lon="10.713167950242779"><ele>16.0</ele><time>2026-04-29T18:18:41.074Z</time></trkpt><trkpt lat="42.946756747681576" lon="10.712776926203"><ele>15.0</ele><time>2026-04-29T18:18:42.074Z</time></trkpt><trkpt lat="42.94672471224353" lon="10.712397746457647"><ele>14.0</ele><time>2026-04-29T18:18:43.074Z</time></trkpt><trkpt lat="42.94668733980347" lon="10.712022093309393"><ele>12.5</ele><time>2026-04-29T18:18:44.074Z</time></trkpt><trkpt lat="42.94664801895949" lon="10.71165092797162"><ele>11.0</ele><time>2026-04-29T18:18:45.074Z</time></trkpt><trkpt lat="42.94661321553015" lon="10.711284153639076"><ele>10.5</ele><time>2026-04-29T18:18:46.074Z</time></trkpt><trkpt lat="42.94657618239357" lon="10.71091916601829"><ele>10.0</ele><time>2026-04-29T18:18:47.074Z</time></trkpt><trkpt lat="42.946540548664515" lon="10.710555431638724"><ele>10.0</ele><time>2026-04-29T18:18:48.074Z</time></trkpt><trkpt lat="42.946504708296025" lon="10.710189993115032"><ele>10.0</ele><time>2026-04-29T18:18:49.074Z</time></trkpt><trkpt lat="42.9464679224173" lon="10.709820109021184"><ele>10.0</ele><time>2026-04-29T18:18:50.074Z</time></trkpt><trkpt lat="42.94643330653566" lon="10.709451731767546"><ele>10.0</ele><time>2026-04-29T18:18:51.074Z</time></trkpt><trkpt lat="42.946397027292925" lon="10.709078449072654"><ele>9.0</ele><time>2026-04-29T18:18:52.074Z</time></trkpt><trkpt lat="42.946364934014966" lon="10.708704251398801"><ele>8.0</ele><time>2026-04-29T18:18:53.074Z</time></trkpt><trkpt lat="42.94633898322858" lon="10.708324850294403"><ele>8.0</ele><time>2026-04-29T18:18:54.074Z</time></trkpt><trkpt lat="42.94631683663554" lon="10.707942610271768"><ele>8.0</ele><time>2026-04-29T18:18:55.074Z</time></trkpt><trkpt lat="42.94630276693186" lon="10.707557457316021"><ele>8.0</ele><time>2026-04-29T18:18:56.074Z</time></trkpt><trkpt lat="42.9462857952772" lon="10.707170897551507"><ele>8.0</ele><time>2026-04-29T18:18:57.074Z</time></trkpt><trkpt lat="42.94627809345966" lon="10.70678296258473"><ele>7.5</ele><time>2026-04-29T18:18:58.074Z</time></trkpt><trkpt lat="42.946283510114796" lon="10.706393638969866"><ele>7.0</ele><time>2026-04-29T18:18:59.075Z</time></trkpt><trkpt lat="42.946298495259086" lon="10.706003924161418"><ele>7.0</ele><time>2026-04-29T18:19:00.075Z</time></trkpt><trkpt lat="42.94631870326374" lon="10.705613383240653"><ele>7.0</ele><time>2026-04-29T18:19:01.075Z</time></trkpt><trkpt lat="42.94634736579771" lon="10.705224835024419"><ele>7.0</ele><time>2026-04-29T18:19:02.075Z</time></trkpt><trkpt lat="42.94639242083317" lon="10.704841947019379"><ele>7.0</ele><time>2026-04-29T18:19:03.075Z</time></trkpt><trkpt lat="42.94645082981733" lon="10.704464726668474"><ele>6.0</ele><time>2026-04-29T18:19:04.075Z</time></trkpt><trkpt lat="42.9465244214634" lon="10.704090978774135"><ele>5.0</ele><time>2026-04-29T18:19:05.075Z</time></trkpt><trkpt lat="42.946611689238054" lon="10.703726654957057"><ele>5.5</ele><time>2026-04-29T18:19:06.075Z</time></trkpt><trkpt lat="42.946707181226245" lon="10.703370468682103"><ele>6.0</ele><time>2026-04-29T18:19:07.075Z</time></trkpt><trkpt lat="42.94680888649536" lon="10.703016429155143"><ele>6.5</ele><time>2026-04-29T18:19:08.075Z</time></trkpt><trkpt lat="42.946918067594396" lon="10.702668883819909"><ele>7.0</ele><time>2026-04-29T18:19:09.075Z</time></trkpt><trkpt lat="42.94703459922318" lon="10.70232963339441"><ele>7.0</ele><time>2026-04-29T18:19:10.075Z</time></trkpt><trkpt lat="42.94715795925281" lon="10.701999264120436"><ele>7.0</ele><time>2026-04-29T18:19:11.075Z</time></trkpt><trkpt lat="42.94728933822191" lon="10.701679327198661"><ele>6.0</ele><time>2026-04-29T18:19:12.075Z</time></trkpt><trkpt lat="42.947428609714336" lon="10.701367696210394"><ele>5.0</ele><time>2026-04-29T18:19:13.075Z</time></trkpt><trkpt lat="42.94757824883724" lon="10.701062850838639"><ele>5.0</ele><time>2026-04-29T18:19:14.075Z</time></trkpt><trkpt lat="42.947730691671055" lon="10.70076438473124"><ele>5.0</ele><time>2026-04-29T18:19:15.075Z</time></trkpt><trkpt lat="42.9478910832456" lon="10.700469632134842"><ele>4.5</ele><time>2026-04-29T18:19:16.075Z</time></trkpt><trkpt lat="42.94805974102028" lon="10.700178964565652"><ele>4.0</ele><time>2026-04-29T18:19:17.075Z</time></trkpt><trkpt lat="42.94823230167885" lon="10.699888423098335"><ele>4.0</ele><time>2026-04-29T18:19:18.075Z</time></trkpt><trkpt lat="42.94840841523961" lon="10.69959699293075"><ele>4.0</ele><time>2026-04-29T18:19:19.075Z</time></trkpt><trkpt lat="42.94858867214224" lon="10.699309249799155"><ele>3.5</ele><time>2026-04-29T18:19:20.075Z</time></trkpt><trkpt lat="42.94877209633022" lon="10.699020566794976"><ele>3.0</ele><time>2026-04-29T18:19:21.075Z</time></trkpt><trkpt lat="42.94895516955127" lon="10.698727349928497"><ele>2.5</ele><time>2026-04-29T18:19:22.075Z</time></trkpt><trkpt lat="42.949134920255936" lon="10.698432218792668"><ele>2.0</ele><time>2026-04-29T18:19:23.075Z</time></trkpt><trkpt lat="42.949322011698385" lon="10.698135899460276"><ele>3.0</ele><time>2026-04-29T18:19:24.073Z</time></trkpt><trkpt lat="42.949506147638644" lon="10.697837631686392"><ele>4.0</ele><time>2026-04-29T18:19:25.072Z</time></trkpt><trkpt lat="42.94969426828084" lon="10.697532271666377"><ele>4.5</ele><time>2026-04-29T18:19:26.07Z</time></trkpt><trkpt lat="42.949881830727186" lon="10.697233843491508"><ele>5.0</ele><time>2026-04-29T18:19:27.069Z</time></trkpt><trkpt lat="42.95007929909425" lon="10.696937730500498"><ele>4.5</ele><time>2026-04-29T18:19:28.068Z</time></trkpt><trkpt lat="42.950263784451835" lon="10.696633315769208"><ele>4.0</ele><time>2026-04-29T18:19:29.066Z</time></trkpt><trkpt lat="42.95045163672833" lon="10.696331221014018"><ele>3.5</ele><time>2026-04-29T18:19:30.065Z</time></trkpt><trkpt lat="42.95063984747096" lon="10.696032208150296"><ele>3.0</ele><time>2026-04-29T18:19:31.064Z</time></trkpt><trkpt lat="42.95082738987241" lon="10.695734046850154"><ele>4.0</ele><time>2026-04-29T18:19:32.063Z</time></trkpt><trkpt lat="42.95101274419473" lon="10.695438473842305"><ele>5.0</ele><time>2026-04-29T18:19:33.062Z</time></trkpt><trkpt lat="42.95119404490911" lon="10.695143829591599"><ele>5.5</ele><time>2026-04-29T18:19:34.061Z</time></trkpt><trkpt lat="42.95137217112385" lon="10.694854438028175"><ele>6.0</ele><time>2026-04-29T18:19:35.06Z</time></trkpt><trkpt lat="42.95155157683198" lon="10.694565331136126"><ele>5.5</ele><time>2026-04-29T18:19:36.059Z</time></trkpt><trkpt lat="42.951727443387945" lon="10.694280028467459"><ele>5.0</ele><time>2026-04-29T18:19:37.059Z</time></trkpt><trkpt lat="42.95190514287893" lon="10.693995829730957"><ele>5.0</ele><time>2026-04-29T18:19:38.058Z</time></trkpt><trkpt lat="42.95208579485863" lon="10.693710933119318"><ele>5.0</ele><time>2026-04-29T18:19:39.057Z</time></trkpt><trkpt lat="42.95226708343163" lon="10.693424131729747"><ele>5.5</ele><time>2026-04-29T18:19:40.058Z</time></trkpt><trkpt lat="42.9524487963262" lon="10.693136836094693"><ele>6.0</ele><time>2026-04-29T18:19:41.057Z</time></trkpt><trkpt lat="42.95263070120713" lon="10.692850056308172"><ele>6.5</ele><time>2026-04-29T18:19:42.057Z</time></trkpt><trkpt lat="42.952810855372576" lon="10.692561393936467"><ele>7.0</ele><time>2026-04-29T18:19:43.057Z</time></trkpt><trkpt lat="42.95299055818902" lon="10.6922705239871"><ele>7.0</ele><time>2026-04-29T18:19:44.055Z</time></trkpt><trkpt lat="42.95317043117962" lon="10.691977767542307"><ele>7.0</ele><time>2026-04-29T18:19:45.055Z</time></trkpt><trkpt lat="42.95334920333323" lon="10.691686339810335"><ele>7.0</ele><time>2026-04-29T18:19:46.055Z</time></trkpt><trkpt lat="42.95353133520457" lon="10.691393765070163"><ele>7.0</ele><time>2026-04-29T18:19:47.055Z</time></trkpt><trkpt lat="42.9537118641557" lon="10.691103845631366"><ele>7.5</ele><time>2026-04-29T18:19:48.054Z</time></trkpt><trkpt lat="42.95389378351487" lon="10.690812522383514"><ele>8.0</ele><time>2026-04-29T18:19:49.055Z</time></trkpt><trkpt lat="42.95407641014808" lon="10.69051991874492"><ele>9.0</ele><time>2026-04-29T18:19:50.054Z</time></trkpt><trkpt lat="42.954259297761226" lon="10.690227038654275"><ele>10.0</ele><time>2026-04-29T18:19:51.054Z</time></trkpt><trkpt lat="42.95444628404215" lon="10.689932169215918"><ele>10.0</ele><time>2026-04-29T18:19:52.054Z</time></trkpt><trkpt lat="42.954634455432185" lon="10.689635873748518"><ele>10.0</ele><time>2026-04-29T18:19:53.053Z</time></trkpt><trkpt lat="42.95482115959546" lon="10.689337481151245"><ele>10.0</ele><time>2026-04-29T18:19:54.053Z</time></trkpt><trkpt lat="42.95500753536306" lon="10.68903905707887"><ele>10.0</ele><time>2026-04-29T18:19:55.052Z</time></trkpt><trkpt lat="42.95519355910147" lon="10.68874046816871"><ele>9.5</ele><time>2026-04-29T18:19:56.052Z</time></trkpt><trkpt lat="42.955382728113854" lon="10.688440185138719"><ele>9.0</ele><time>2026-04-29T18:19:57.052Z</time></trkpt><trkpt lat="42.955570444342925" lon="10.688139431205439"><ele>9.0</ele><time>2026-04-29T18:19:58.052Z</time></trkpt><trkpt lat="42.955757660307825" lon="10.687841141612644"><ele>9.0</ele><time>2026-04-29T18:19:59.051Z</time></trkpt><trkpt lat="42.955945569091064" lon="10.68753878577853"><ele>9.5</ele><time>2026-04-29T18:20:00.051Z</time></trkpt><trkpt lat="42.95613413465502" lon="10.68723472718317"><ele>10.0</ele><time>2026-04-29T18:20:01.051Z</time></trkpt><trkpt lat="42.95632251972393" lon="10.686931152634394"><ele>10.5</ele><time>2026-04-29T18:20:02.051Z</time></trkpt><trkpt lat="42.956512620060955" lon="10.686628765935533"><ele>11.0</ele><time>2026-04-29T18:20:03.051Z</time></trkpt><trkpt lat="42.956701739084785" lon="10.686326405941879"><ele>10.5</ele><time>2026-04-29T18:20:04.051Z</time></trkpt><trkpt lat="42.95689103084527" lon="10.686024122660097"><ele>10.0</ele><time>2026-04-29T18:20:05.051Z</time></trkpt><trkpt lat="42.95707987154744" lon="10.685721516207952"><ele>10.0</ele><time>2026-04-29T18:20:06.05Z</time></trkpt><trkpt lat="42.95726912226409" lon="10.685415853441466"><ele>10.0</ele><time>2026-04-29T18:20:07.05Z</time></trkpt><trkpt lat="42.95745894180101" lon="10.685110367269548"><ele>10.0</ele><time>2026-04-29T18:20:08.05Z</time></trkpt><trkpt lat="42.95764782049168" lon="10.684804271086765"><ele>10.0</ele><time>2026-04-29T18:20:09.05Z</time></trkpt><trkpt lat="42.95783806662248" lon="10.684500548253148"><ele>10.0</ele><time>2026-04-29T18:20:10.05Z</time></trkpt><trkpt lat="42.958031635465304" lon="10.68419747103839"><ele>10.0</ele><time>2026-04-29T18:20:11.05Z</time></trkpt><trkpt lat="42.95822227078128" lon="10.683895167450327"><ele>9.5</ele><time>2026-04-29T18:20:12.05Z</time></trkpt><trkpt lat="42.95841243148317" lon="10.683591612670954"><ele>9.0</ele><time>2026-04-29T18:20:13.05Z</time></trkpt><trkpt lat="42.95860026701263" lon="10.683288261966789"><ele>9.0</ele><time>2026-04-29T18:20:14.05Z</time></trkpt><trkpt lat="42.958788263019756" lon="10.68298382255175"><ele>9.0</ele><time>2026-04-29T18:20:15.05Z</time></trkpt><trkpt lat="42.95897596741018" lon="10.68268035529071"><ele>9.0</ele><time>2026-04-29T18:20:16.05Z</time></trkpt><trkpt lat="42.95916316673" lon="10.682377595793323"><ele>9.0</ele><time>2026-04-29T18:20:17.05Z</time></trkpt><trkpt lat="42.95935166080178" lon="10.682075934669395"><ele>8.5</ele><time>2026-04-29T18:20:18.05Z</time></trkpt><trkpt lat="42.95954059421717" lon="10.681774168038155"><ele>8.0</ele><time>2026-04-29T18:20:19.05Z</time></trkpt><trkpt lat="42.959728774683285" lon="10.681473018790268"><ele>8.0</ele><time>2026-04-29T18:20:20.049Z</time></trkpt><trkpt lat="42.959921558773935" lon="10.681170137655426"><ele>8.0</ele><time>2026-04-29T18:20:21.049Z</time></trkpt><trkpt lat="42.96010830471888" lon="10.680869338467918"><ele>7.5</ele><time>2026-04-29T18:20:22.049Z</time></trkpt><trkpt lat="42.96029451987279" lon="10.680571410310417"><ele>7.0</ele><time>2026-04-29T18:20:23.049Z</time></trkpt><trkpt lat="42.96047946273079" lon="10.680276082219459"><ele>7.0</ele><time>2026-04-29T18:20:24.049Z</time></trkpt><trkpt lat="42.96066378829723" lon="10.67997915357497"><ele>7.0</ele><time>2026-04-29T18:20:25.049Z</time></trkpt><trkpt lat="42.960847246451706" lon="10.679683980929047"><ele>6.0</ele><time>2026-04-29T18:20:26.049Z</time></trkpt><trkpt lat="42.96102984288006" lon="10.679388466892675"><ele>5.0</ele><time>2026-04-29T18:20:27.049Z</time></trkpt><trkpt lat="42.96121319134445" lon="10.679094138621734"><ele>5.0</ele><time>2026-04-29T18:20:28.049Z</time></trkpt><trkpt lat="42.961391996806945" lon="10.678800808195993"><ele>5.0</ele><time>2026-04-29T18:20:29.049Z</time></trkpt><trkpt lat="42.96157465037068" lon="10.678509684031292"><ele>5.0</ele><time>2026-04-29T18:20:30.049Z</time></trkpt><trkpt lat="42.961756778656195" lon="10.678218732865801"><ele>5.0</ele><time>2026-04-29T18:20:31.049Z</time></trkpt><trkpt lat="42.96193926295927" lon="10.677924430991249"><ele>5.0</ele><time>2026-04-29T18:20:32.049Z</time></trkpt><trkpt lat="42.962123721246634" lon="10.677629128497566"><ele>5.0</ele><time>2026-04-29T18:20:33.049Z</time></trkpt><trkpt lat="42.96230956355353" lon="10.67733217767682"><ele>5.0</ele><time>2026-04-29T18:20:34.049Z</time></trkpt><trkpt lat="42.962495905090165" lon="10.67703583879509"><ele>5.0</ele><time>2026-04-29T18:20:35.049Z</time></trkpt><trkpt lat="42.962683154141935" lon="10.67673852198078"><ele>5.5</ele><time>2026-04-29T18:20:36.049Z</time></trkpt><trkpt lat="42.96287193668005" lon="10.676439266024726"><ele>6.0</ele><time>2026-04-29T18:20:37.049Z</time></trkpt><trkpt lat="42.963063268988364" lon="10.676139956092031"><ele>5.5</ele><time>2026-04-29T18:20:38.049Z</time></trkpt><trkpt lat="42.96325763634578" lon="10.675843714248177"><ele>5.0</ele><time>2026-04-29T18:20:39.049Z</time></trkpt><trkpt lat="42.963454387157846" lon="10.675553615423793"><ele>4.0</ele><time>2026-04-29T18:20:40.049Z</time></trkpt><trkpt lat="42.963658993679594" lon="10.675268018547118"><ele>3.0</ele><time>2026-04-29T18:20:41.049Z</time></trkpt><trkpt lat="42.96386181105916" lon="10.674986625606172"><ele>3.0</ele><time>2026-04-29T18:20:42.049Z</time></trkpt><trkpt lat="42.964067361925075" lon="10.674710267821698"><ele>3.0</ele><time>2026-04-29T18:20:43.049Z</time></trkpt><trkpt lat="42.964274082794" lon="10.67443738860444"><ele>3.5</ele><time>2026-04-29T18:20:44.049Z</time></trkpt><trkpt lat="42.96448345688693" lon="10.674170161064495"><ele>4.0</ele><time>2026-04-29T18:20:45.049Z</time></trkpt><trkpt lat="42.96469468618292" lon="10.673905796309581"><ele>4.0</ele><time>2026-04-29T18:20:46.049Z</time></trkpt><trkpt lat="42.96491182864117" lon="10.67365156924441"><ele>4.0</ele><time>2026-04-29T18:20:47.049Z</time></trkpt><trkpt lat="42.96513224930757" lon="10.673399077425154"><ele>4.5</ele><time>2026-04-29T18:20:48.049Z</time></trkpt><trkpt lat="42.96535480087844" lon="10.673151818259768"><ele>5.0</ele><time>2026-04-29T18:20:49.049Z</time></trkpt><trkpt lat="42.965578345764854" lon="10.672908759752637"><ele>5.5</ele><time>2026-04-29T18:20:50.049Z</time></trkpt><trkpt lat="42.9658044500128" lon="10.6726649502682"><ele>6.0</ele><time>2026-04-29T18:20:51.049Z</time></trkpt><trkpt lat="42.966030131439" lon="10.672430457501942"><ele>6.0</ele><time>2026-04-29T18:20:52.049Z</time></trkpt><trkpt lat="42.96625368363686" lon="10.672199836815405"><ele>6.0</ele><time>2026-04-29T18:20:53.049Z</time></trkpt><trkpt lat="42.9664770123601" lon="10.671971507664185"><ele>6.5</ele><time>2026-04-29T18:20:54.049Z</time></trkpt><trkpt lat="42.96669976688416" lon="10.671743846664404"><ele>7.0</ele><time>2026-04-29T18:20:55.049Z</time></trkpt><trkpt lat="42.96691837936439" lon="10.671518285412871"><ele>7.0</ele><time>2026-04-29T18:20:56.049Z</time></trkpt><trkpt lat="42.96713721078229" lon="10.67129393620435"><ele>7.0</ele><time>2026-04-29T18:20:57.049Z</time></trkpt><trkpt lat="42.96735356057167" lon="10.671066445824607"><ele>6.0</ele><time>2026-04-29T18:20:58.049Z</time></trkpt><trkpt lat="42.96757015118512" lon="10.6708375457361"><ele>5.0</ele><time>2026-04-29T18:20:59.049Z</time></trkpt><trkpt lat="42.96778900367335" lon="10.670605212617108"><ele>5.0</ele><time>2026-04-29T18:21:00.049Z</time></trkpt><trkpt lat="42.96801045310264" lon="10.670375977200681"><ele>5.0</ele><time>2026-04-29T18:21:01.049Z</time></trkpt><trkpt lat="42.968232759283985" lon="10.67014798545767"><ele>7.0</ele><time>2026-04-29T18:21:02.049Z</time></trkpt><trkpt lat="42.96845584404033" lon="10.669918542031679"><ele>9.0</ele><time>2026-04-29T18:21:03.049Z</time></trkpt><trkpt lat="42.968680502196314" lon="10.6696877064861"><ele>9.0</ele><time>2026-04-29T18:21:04.049Z</time></trkpt><trkpt lat="42.96890417864583" lon="10.669455696687313"><ele>9.0</ele><time>2026-04-29T18:21:05.049Z</time></trkpt><trkpt lat="42.96912560939651" lon="10.66921857138339"><ele>9.0</ele><time>2026-04-29T18:21:06.049Z</time></trkpt><trkpt lat="42.96934531153142" lon="10.668977174531943"><ele>9.0</ele><time>2026-04-29T18:21:07.049Z</time></trkpt><trkpt lat="42.96956314307667" lon="10.668728374057489"><ele>9.5</ele><time>2026-04-29T18:21:08.049Z</time></trkpt><trkpt lat="42.96977831748002" lon="10.668473448835627"><ele>10.0</ele><time>2026-04-29T18:21:09.049Z</time></trkpt><trkpt lat="42.9699925137331" lon="10.668214286110786"><ele>10.0</ele><time>2026-04-29T18:21:10.049Z</time></trkpt><trkpt lat="42.970202987375714" lon="10.66795168059994"><ele>10.0</ele><time>2026-04-29T18:21:11.049Z</time></trkpt><trkpt lat="42.970410868509134" lon="10.66767898686348"><ele>10.0</ele><time>2026-04-29T18:21:12.049Z</time></trkpt><trkpt lat="42.97061419793792" lon="10.66739355778307"><ele>10.0</ele><time>2026-04-29T18:21:13.049Z</time></trkpt><trkpt lat="42.97080940361525" lon="10.667099719151283"><ele>10.0</ele><time>2026-04-29T18:21:14.049Z</time></trkpt><trkpt lat="42.97099928674236" lon="10.666799970492333"><ele>10.0</ele><time>2026-04-29T18:21:15.049Z</time></trkpt><trkpt lat="42.97118402098119" lon="10.666493962683527"><ele>10.0</ele><time>2026-04-29T18:21:16.049Z</time></trkpt><trkpt lat="42.97136726715331" lon="10.666179125146488"><ele>10.0</ele><time>2026-04-29T18:21:17.049Z</time></trkpt><trkpt lat="42.97154384553949" lon="10.665860268591775"><ele>9.0</ele><time>2026-04-29T18:21:18.049Z</time></trkpt><trkpt lat="42.97171052715845" lon="10.665538405266963"><ele>8.0</ele><time>2026-04-29T18:21:19.049Z</time></trkpt><trkpt lat="42.97187035980334" lon="10.665211933401569"><ele>8.0</ele><time>2026-04-29T18:21:20.049Z</time></trkpt><trkpt lat="42.97202242871849" lon="10.66488003659094"><ele>8.0</ele><time>2026-04-29T18:21:21.049Z</time></trkpt><trkpt lat="42.972168500290444" lon="10.664542487159713"><ele>8.5</ele><time>2026-04-29T18:21:22.049Z</time></trkpt><trkpt lat="42.97230586004984" lon="10.664200135546952"><ele>9.0</ele><time>2026-04-29T18:21:23.049Z</time></trkpt><trkpt lat="42.972436941837856" lon="10.663855506433618"><ele>8.0</ele><time>2026-04-29T18:21:24.049Z</time></trkpt><trkpt lat="42.97256564954925" lon="10.663510826536598"><ele>7.0</ele><time>2026-04-29T18:21:25.049Z</time></trkpt><trkpt lat="42.972690940618094" lon="10.663159324420656"><ele>7.0</ele><time>2026-04-29T18:21:26.049Z</time></trkpt><trkpt lat="42.972813395685606" lon="10.662810183370034"><ele>7.0</ele><time>2026-04-29T18:21:27.049Z</time></trkpt><trkpt lat="42.97293571076772" lon="10.662458216351304"><ele>7.0</ele><time>2026-04-29T18:21:28.049Z</time></trkpt><trkpt lat="42.97305690125203" lon="10.6621122893847"><ele>7.0</ele><time>2026-04-29T18:21:29.049Z</time></trkpt><trkpt lat="42.97317878791401" lon="10.661762651571992"><ele>7.0</ele><time>2026-04-29T18:21:30.049Z</time></trkpt><trkpt lat="42.97329818035086" lon="10.661411582956449"><ele>7.0</ele><time>2026-04-29T18:21:31.049Z</time></trkpt><trkpt lat="42.97341835207684" lon="10.661060151673874"><ele>7.0</ele><time>2026-04-29T18:21:32.049Z</time></trkpt><trkpt lat="42.97353972234458" lon="10.660709902721312"><ele>7.0</ele><time>2026-04-29T18:21:33.049Z</time></trkpt><trkpt lat="42.97366026878329" lon="10.66036292381318"><ele>7.0</ele><time>2026-04-29T18:21:34.049Z</time></trkpt><trkpt lat="42.973781308018964" lon="10.660017719950046"><ele>7.0</ele><time>2026-04-29T18:21:35.049Z</time></trkpt><trkpt lat="42.97390157123058" lon="10.659675755093986"><ele>6.0</ele><time>2026-04-29T18:21:36.049Z</time></trkpt><trkpt lat="42.974024005408815" lon="10.659332974389514"><ele>5.0</ele><time>2026-04-29T18:21:37.049Z</time></trkpt><trkpt lat="42.97414737073064" lon="10.658990813918686"><ele>5.5</ele><time>2026-04-29T18:21:38.049Z</time></trkpt><trkpt lat="42.974271141653766" lon="10.658650615341465"><ele>6.0</ele><time>2026-04-29T18:21:39.049Z</time></trkpt><trkpt lat="42.97439662563175" lon="10.658311265515346"><ele>5.0</ele><time>2026-04-29T18:21:40.049Z</time></trkpt><trkpt lat="42.9745288072596" lon="10.657970492170904"><ele>4.0</ele><time>2026-04-29T18:21:41.049Z</time></trkpt><trkpt lat="42.974664483881405" lon="10.657633668059914"><ele>4.0</ele><time>2026-04-29T18:21:42.049Z</time></trkpt><trkpt lat="42.974806864474246" lon="10.657299768489157"><ele>4.0</ele><time>2026-04-29T18:21:43.049Z</time></trkpt><trkpt lat="42.974950663388384" lon="10.656967302297826"><ele>5.0</ele><time>2026-04-29T18:21:44.049Z</time></trkpt><trkpt lat="42.97509983385457" lon="10.656637053672489"><ele>6.0</ele><time>2026-04-29T18:21:45.049Z</time></trkpt><trkpt lat="42.97525224806845" lon="10.656307221283914"><ele>6.5</ele><time>2026-04-29T18:21:46.05Z</time></trkpt><trkpt lat="42.975412557270566" lon="10.655985149187966"><ele>7.0</ele><time>2026-04-29T18:21:47.051Z</time></trkpt><trkpt lat="42.975574114694936" lon="10.65566439328336"><ele>7.0</ele><time>2026-04-29T18:21:48.051Z</time></trkpt><trkpt lat="42.97574122736915" lon="10.655344451978664"><ele>7.0</ele><time>2026-04-29T18:21:49.051Z</time></trkpt><trkpt lat="42.97590882469634" lon="10.655028078071581"><ele>7.0</ele><time>2026-04-29T18:21:50.051Z</time></trkpt><trkpt lat="42.97608173096016" lon="10.654714892842726"><ele>7.0</ele><time>2026-04-29T18:21:51.051Z</time></trkpt><trkpt lat="42.976253022580494" lon="10.65440448783069"><ele>7.0</ele><time>2026-04-29T18:21:52.05Z</time></trkpt><trkpt lat="42.97643304012359" lon="10.65410144341349"><ele>7.0</ele><time>2026-04-29T18:21:53.051Z</time></trkpt><trkpt lat="42.97661872981554" lon="10.653801664486604"><ele>6.5</ele><time>2026-04-29T18:21:54.051Z</time></trkpt><trkpt lat="42.97680117369191" lon="10.653503300265433"><ele>6.0</ele><time>2026-04-29T18:21:55.051Z</time></trkpt><trkpt lat="42.97698528301914" lon="10.653203091165114"><ele>6.0</ele><time>2026-04-29T18:21:56.051Z</time></trkpt><trkpt lat="42.977170810079954" lon="10.652902321188865"><ele>6.0</ele><time>2026-04-29T18:21:57.051Z</time></trkpt><trkpt lat="42.977356749705685" lon="10.652602410047276"><ele>6.0</ele><time>2026-04-29T18:21:58.051Z</time></trkpt><trkpt lat="42.97754044711458" lon="10.65230543233915"><ele>6.0</ele><time>2026-04-29T18:21:59.05Z</time></trkpt><trkpt lat="42.97772895275579" lon="10.652005417341002"><ele>6.0</ele><time>2026-04-29T18:22:00.05Z</time></trkpt><trkpt lat="42.97791674301171" lon="10.651705944447976"><ele>6.0</ele><time>2026-04-29T18:22:01.05Z</time></trkpt><trkpt lat="42.97810329361127" lon="10.651403943320009"><ele>6.0</ele><time>2026-04-29T18:22:02.05Z</time></trkpt><trkpt lat="42.978290190158" lon="10.651103535253094"><ele>6.0</ele><time>2026-04-29T18:22:03.05Z</time></trkpt><trkpt lat="42.97847909135062" lon="10.650805798623734"><ele>5.5</ele><time>2026-04-29T18:22:04.05Z</time></trkpt><trkpt lat="42.978667967235154" lon="10.650507367409782"><ele>5.0</ele><time>2026-04-29T18:22:05.05Z</time></trkpt><trkpt lat="42.978854507738276" lon="10.650206543763314"><ele>5.0</ele><time>2026-04-29T18:22:06.05Z</time></trkpt><trkpt lat="42.97904120888571" lon="10.649902362862665"><ele>5.0</ele><time>2026-04-29T18:22:07.05Z</time></trkpt><trkpt lat="42.97922659699975" lon="10.649603210066767"><ele>5.5</ele><time>2026-04-29T18:22:08.05Z</time></trkpt><trkpt lat="42.979413679408154" lon="10.649295601203796"><ele>6.0</ele><time>2026-04-29T18:22:09.05Z</time></trkpt><trkpt lat="42.97959944812355" lon="10.64899987418984"><ele>6.0</ele><time>2026-04-29T18:22:10.05Z</time></trkpt><trkpt lat="42.97978665182926" lon="10.648702009781912"><ele>6.0</ele><time>2026-04-29T18:22:11.05Z</time></trkpt><trkpt lat="42.979971265181945" lon="10.648400418484126"><ele>6.0</ele><time>2026-04-29T18:22:12.05Z</time></trkpt><trkpt lat="42.980158862975976" lon="10.648100851327408"><ele>6.0</ele><time>2026-04-29T18:22:13.05Z</time></trkpt><trkpt lat="42.98034541286753" lon="10.647801654314447"><ele>6.0</ele><time>2026-04-29T18:22:14.05Z</time></trkpt><trkpt lat="42.98053053180195" lon="10.64750284748714"><ele>6.0</ele><time>2026-04-29T18:22:15.05Z</time></trkpt><trkpt lat="42.98071683670008" lon="10.647206162903402"><ele>6.0</ele><time>2026-04-29T18:22:16.05Z</time></trkpt><trkpt lat="42.980903400265" lon="10.64690996746743"><ele>6.0</ele><time>2026-04-29T18:22:17.05Z</time></trkpt><trkpt lat="42.981087614142645" lon="10.646611556170313"><ele>6.0</ele><time>2026-04-29T18:22:18.05Z</time></trkpt><trkpt lat="42.98126842605035" lon="10.646316396363494"><ele>6.0</ele><time>2026-04-29T18:22:19.05Z</time></trkpt><trkpt lat="42.98144842497246" lon="10.646025334263435"><ele>5.5</ele><time>2026-04-29T18:22:20.05Z</time></trkpt><trkpt lat="42.981625406759306" lon="10.645737858306381"><ele>5.0</ele><time>2026-04-29T18:22:21.05Z</time></trkpt><trkpt lat="42.9817946888264" lon="10.645451886567038"><ele>5.0</ele><time>2026-04-29T18:22:22.05Z</time></trkpt><trkpt lat="42.98196287756794" lon="10.64516789861844"><ele>5.0</ele><time>2026-04-29T18:22:23.05Z</time></trkpt><trkpt lat="42.982136242434684" lon="10.644886604313403"><ele>5.0</ele><time>2026-04-29T18:22:24.05Z</time></trkpt><trkpt lat="42.98230487391194" lon="10.644602455803334"><ele>5.0</ele><time>2026-04-29T18:22:25.05Z</time></trkpt><trkpt lat="42.9824785703517" lon="10.644319748224666"><ele>5.0</ele><time>2026-04-29T18:22:26.05Z</time></trkpt><trkpt lat="42.98265015377437" lon="10.64403688797293"><ele>5.0</ele><time>2026-04-29T18:22:27.05Z</time></trkpt><trkpt lat="42.98282216988425" lon="10.643754741611613"><ele>5.5</ele><time>2026-04-29T18:22:28.05Z</time></trkpt><trkpt lat="42.982994836304364" lon="10.643475907696017"><ele>6.0</ele><time>2026-04-29T18:22:29.05Z</time></trkpt><trkpt lat="42.9831691317364" lon="10.643198165381806"><ele>6.0</ele><time>2026-04-29T18:22:30.05Z</time></trkpt><trkpt lat="42.98334437376794" lon="10.642916971810186"><ele>6.0</ele><time>2026-04-29T18:22:31.05Z</time></trkpt><trkpt lat="42.9835207630697" lon="10.642636379434366"><ele>5.5</ele><time>2026-04-29T18:22:32.05Z</time></trkpt><trkpt lat="42.98369484661281" lon="10.642357810837492"><ele>5.0</ele><time>2026-04-29T18:22:33.05Z</time></trkpt><trkpt lat="42.98386763688486" lon="10.642079509669905"><ele>5.0</ele><time>2026-04-29T18:22:34.05Z</time></trkpt><trkpt lat="42.98404043633406" lon="10.641802839736627"><ele>5.0</ele><time>2026-04-29T18:22:35.05Z</time></trkpt><trkpt lat="42.984213516829584" lon="10.64152260718508"><ele>5.0</ele><time>2026-04-29T18:22:36.05Z</time></trkpt><trkpt lat="42.98438915427534" lon="10.641246228906509"><ele>5.0</ele><time>2026-04-29T18:22:37.05Z</time></trkpt><trkpt lat="42.98456587369323" lon="10.640963206223805"><ele>5.0</ele><time>2026-04-29T18:22:38.05Z</time></trkpt><trkpt lat="42.984745184922446" lon="10.64068340856877"><ele>5.0</ele><time>2026-04-29T18:22:39.05Z</time></trkpt><trkpt lat="42.98492561876991" lon="10.640396596407857"><ele>5.0</ele><time>2026-04-29T18:22:40.05Z</time></trkpt><trkpt lat="42.985108607845255" lon="10.640106504800942"><ele>5.0</ele><time>2026-04-29T18:22:41.05Z</time></trkpt><trkpt lat="42.985293961897426" lon="10.639812094379888"><ele>5.0</ele><time>2026-04-29T18:22:42.05Z</time></trkpt><trkpt lat="42.98547951366004" lon="10.63951636273968"><ele>5.0</ele><time>2026-04-29T18:22:43.05Z</time></trkpt><trkpt lat="42.985663947105536" lon="10.639214245946913"><ele>5.5</ele><time>2026-04-29T18:22:44.05Z</time></trkpt><trkpt lat="42.98585340009197" lon="10.638909604105626"><ele>6.0</ele><time>2026-04-29T18:22:45.05Z</time></trkpt><trkpt lat="42.98604397250963" lon="10.638603188037756"><ele>6.0</ele><time>2026-04-29T18:22:46.05Z</time></trkpt><trkpt lat="42.98623312074137" lon="10.638295658589758"><ele>6.0</ele><time>2026-04-29T18:22:47.05Z</time></trkpt><trkpt lat="42.98642573980837" lon="10.637985425759402"><ele>5.5</ele><time>2026-04-29T18:22:48.05Z</time></trkpt><trkpt lat="42.98661635348111" lon="10.637675766519433"><ele>5.0</ele><time>2026-04-29T18:22:49.05Z</time></trkpt><trkpt lat="42.98680646622643" lon="10.637364757400416"><ele>5.0</ele><time>2026-04-29T18:22:50.05Z</time></trkpt><trkpt lat="42.98699890067297" lon="10.637053696360816"><ele>5.0</ele><time>2026-04-29T18:22:51.05Z</time></trkpt><trkpt lat="42.98719185937185" lon="10.636749366500315"><ele>5.5</ele><time>2026-04-29T18:22:52.05Z</time></trkpt><trkpt lat="42.98738486038039" lon="10.636439433816683"><ele>6.0</ele><time>2026-04-29T18:22:53.05Z</time></trkpt><trkpt lat="42.987576327988705" lon="10.636127973427659"><ele>6.5</ele><time>2026-04-29T18:22:54.05Z</time></trkpt><trkpt lat="42.98776599266276" lon="10.63581840791082"><ele>7.0</ele><time>2026-04-29T18:22:55.05Z</time></trkpt><trkpt lat="42.987953540407155" lon="10.635511642407362"><ele>7.0</ele><time>2026-04-29T18:22:56.05Z</time></trkpt><trkpt lat="42.988143022675814" lon="10.635204917937825"><ele>7.0</ele><time>2026-04-29T18:22:57.05Z</time></trkpt><trkpt lat="42.98833239692833" lon="10.634902336310777"><ele>6.5</ele><time>2026-04-29T18:22:58.05Z</time></trkpt><trkpt lat="42.988522911107125" lon="10.634599098661726"><ele>6.0</ele><time>2026-04-29T18:22:59.05Z</time></trkpt><trkpt lat="42.988713405538434" lon="10.634296769221695"><ele>6.0</ele><time>2026-04-29T18:23:00.05Z</time></trkpt><trkpt lat="42.9889047997276" lon="10.633999220109297"><ele>6.0</ele><time>2026-04-29T18:23:01.05Z</time></trkpt><trkpt lat="42.98909941055052" lon="10.633703437513741"><ele>5.5</ele><time>2026-04-29T18:23:02.05Z</time></trkpt><trkpt lat="42.989288070927216" lon="10.633404666010955"><ele>5.0</ele><time>2026-04-29T18:23:03.05Z</time></trkpt><trkpt lat="42.98947261640955" lon="10.633101634318027"><ele>5.5</ele><time>2026-04-29T18:23:04.05Z</time></trkpt><trkpt lat="42.98965935888691" lon="10.632799737084232"><ele>6.0</ele><time>2026-04-29T18:23:05.05Z</time></trkpt><trkpt lat="42.98984712905395" lon="10.6324987053823"><ele>5.5</ele><time>2026-04-29T18:23:06.05Z</time></trkpt><trkpt lat="42.9900318894127" lon="10.632201557990308"><ele>5.0</ele><time>2026-04-29T18:23:07.05Z</time></trkpt><trkpt lat="42.99021987899939" lon="10.631908102380875"><ele>5.0</ele><time>2026-04-29T18:23:08.05Z</time></trkpt><trkpt lat="42.990404766238456" lon="10.631610941109063"><ele>5.0</ele><time>2026-04-29T18:23:09.05Z</time></trkpt><trkpt lat="42.99058427591523" lon="10.63132241468209"><ele>5.0</ele><time>2026-04-29T18:23:10.05Z</time></trkpt><trkpt lat="42.99076570329582" lon="10.63103849489824"><ele>5.0</ele><time>2026-04-29T18:23:11.05Z</time></trkpt><trkpt lat="42.99094359314541" lon="10.630757741847258"><ele>5.5</ele><time>2026-04-29T18:23:12.05Z</time></trkpt><trkpt lat="42.99111853248804" lon="10.63047595461"><ele>6.0</ele><time>2026-04-29T18:23:13.05Z</time></trkpt><trkpt lat="42.99129104353378" lon="10.630180101878935"><ele>6.0</ele><time>2026-04-29T18:23:14.05Z</time></trkpt><trkpt lat="42.9914664651845" lon="10.629878762009518"><ele>6.0</ele><time>2026-04-29T18:23:15.05Z</time></trkpt><trkpt lat="42.9916482797973" lon="10.629575699344372"><ele>6.0</ele><time>2026-04-29T18:23:16.05Z</time></trkpt><trkpt lat="42.99183470305916" lon="10.629272455578251"><ele>6.0</ele><time>2026-04-29T18:23:17.05Z</time></trkpt><trkpt lat="42.992025184921964" lon="10.628968824379179"><ele>6.0</ele><time>2026-04-29T18:23:18.05Z</time></trkpt><trkpt lat="42.9922147011509" lon="10.628661783022078"><ele>6.0</ele><time>2026-04-29T18:23:19.05Z</time></trkpt><trkpt lat="42.99240649555308" lon="10.628348635771296"><ele>6.0</ele><time>2026-04-29T18:23:20.05Z</time></trkpt><trkpt lat="42.992599062676625" lon="10.628039669945405"><ele>6.0</ele><time>2026-04-29T18:23:21.05Z</time></trkpt><trkpt lat="42.99279317303367" lon="10.627728781160611"><ele>6.0</ele><time>2026-04-29T18:23:22.05Z</time></trkpt><trkpt lat="42.992989211556306" lon="10.627413447487907"><ele>6.0</ele><time>2026-04-29T18:23:23.05Z</time></trkpt><trkpt lat="42.9931843892399" lon="10.627098885107381"><ele>6.0</ele><time>2026-04-29T18:23:24.05Z</time></trkpt><trkpt lat="42.99338054094591" lon="10.626782677834768"><ele>6.0</ele><time>2026-04-29T18:23:25.05Z</time></trkpt><trkpt lat="42.99357804701347" lon="10.62646475024234"><ele>6.0</ele><time>2026-04-29T18:23:26.05Z</time></trkpt><trkpt lat="42.99377477656058" lon="10.626144198176481"><ele>6.0</ele><time>2026-04-29T18:23:27.05Z</time></trkpt><trkpt lat="42.9939731871928" lon="10.625823419152908"><ele>6.0</ele><time>2026-04-29T18:23:28.05Z</time></trkpt><trkpt lat="42.99417039423348" lon="10.625503339826574"><ele>6.0</ele><time>2026-04-29T18:23:29.05Z</time></trkpt><trkpt lat="42.99436758363686" lon="10.6251816337076"><ele>6.5</ele><time>2026-04-29T18:23:30.05Z</time></trkpt><trkpt lat="42.99456819725195" lon="10.624861852221668"><ele>7.0</ele><time>2026-04-29T18:23:31.05Z</time></trkpt><trkpt lat="42.99476995807822" lon="10.624548751204367"><ele>7.0</ele><time>2026-04-29T18:23:32.05Z</time></trkpt><trkpt lat="42.99497599582573" lon="10.624239267619465"><ele>7.0</ele><time>2026-04-29T18:23:33.05Z</time></trkpt><trkpt lat="42.99518994996653" lon="10.623940381175924"><ele>7.0</ele><time>2026-04-29T18:23:34.05Z</time></trkpt><trkpt lat="42.99539848986751" lon="10.623639493156514"><ele>7.0</ele><time>2026-04-29T18:23:35.05Z</time></trkpt><trkpt lat="42.99560352599693" lon="10.623335598568863"><ele>7.0</ele><time>2026-04-29T18:23:36.05Z</time></trkpt><trkpt lat="42.995803418082524" lon="10.623031636588216"><ele>7.0</ele><time>2026-04-29T18:23:37.05Z</time></trkpt><trkpt lat="42.99600253551951" lon="10.62272858720801"><ele>7.0</ele><time>2026-04-29T18:23:38.05Z</time></trkpt><trkpt lat="42.99619665354909" lon="10.62242666065295"><ele>7.0</ele><time>2026-04-29T18:23:39.05Z</time></trkpt><trkpt lat="42.99639246080771" lon="10.622126907592207"><ele>6.5</ele><time>2026-04-29T18:23:40.05Z</time></trkpt><trkpt lat="42.99658812270747" lon="10.621829618776227"><ele>6.0</ele><time>2026-04-29T18:23:41.05Z</time></trkpt><trkpt lat="42.99677922677081" lon="10.621530193696838"><ele>6.5</ele><time>2026-04-29T18:23:42.05Z</time></trkpt><trkpt lat="42.99696801884666" lon="10.621232072010066"><ele>7.0</ele><time>2026-04-29T18:23:43.05Z</time></trkpt><trkpt lat="42.99715639874342" lon="10.6209338726012"><ele>7.0</ele><time>2026-04-29T18:23:44.05Z</time></trkpt><trkpt lat="42.99734173187556" lon="10.620637109229559"><ele>7.0</ele><time>2026-04-29T18:23:45.05Z</time></trkpt><trkpt lat="42.99752477858635" lon="10.62034306948927"><ele>6.5</ele><time>2026-04-29T18:23:46.05Z</time></trkpt><trkpt lat="42.997709585514116" lon="10.620051973654608"><ele>6.0</ele><time>2026-04-29T18:23:47.05Z</time></trkpt><trkpt lat="42.997894017492506" lon="10.619762664964698"><ele>6.5</ele><time>2026-04-29T18:23:48.05Z</time></trkpt><trkpt lat="42.99807882929181" lon="10.61947403522428"><ele>7.0</ele><time>2026-04-29T18:23:49.05Z</time></trkpt><trkpt lat="42.998260084911735" lon="10.619186346192219"><ele>7.0</ele><time>2026-04-29T18:23:50.05Z</time></trkpt><trkpt lat="42.9984394280349" lon="10.618897161807668"><ele>7.0</ele><time>2026-04-29T18:23:51.05Z</time></trkpt><trkpt lat="42.998617154007086" lon="10.618605159754226"><ele>8.0</ele><time>2026-04-29T18:23:52.053Z</time></trkpt><trkpt lat="42.99879299374788" lon="10.618311710247735"><ele>9.0</ele><time>2026-04-29T18:23:53.052Z</time></trkpt><trkpt lat="42.99896712242306" lon="10.618018070922973"><ele>9.0</ele><time>2026-04-29T18:23:54.052Z</time></trkpt><trkpt lat="42.99914183340197" lon="10.617721857590192"><ele>9.0</ele><time>2026-04-29T18:23:55.052Z</time></trkpt><trkpt lat="42.99931535939874" lon="10.617423103164764"><ele>7.5</ele><time>2026-04-29T18:23:56.053Z</time></trkpt><trkpt lat="42.999488526357645" lon="10.617122627105392"><ele>6.0</ele><time>2026-04-29T18:23:57.053Z</time></trkpt><trkpt lat="42.9996615965559" lon="10.616815981766017"><ele>6.0</ele><time>2026-04-29T18:23:58.052Z</time></trkpt><trkpt lat="42.99983472446639" lon="10.616508390550795"><ele>6.0</ele><time>2026-04-29T18:23:59.053Z</time></trkpt><trkpt lat="43.00000949892341" lon="10.616199867540526"><ele>7.0</ele><time>2026-04-29T18:24:00.053Z</time></trkpt><trkpt lat="43.000183954269744" lon="10.615891732505284"><ele>8.0</ele><time>2026-04-29T18:24:01.052Z</time></trkpt><trkpt lat="43.000359418158574" lon="10.615582412409847"><ele>7.5</ele><time>2026-04-29T18:24:02.052Z</time></trkpt><trkpt lat="43.00053644564917" lon="10.615272107926838"><ele>7.0</ele><time>2026-04-29T18:24:03.052Z</time></trkpt><trkpt lat="43.0007138209391" lon="10.614957776418326"><ele>6.5</ele><time>2026-04-29T18:24:04.052Z</time></trkpt><trkpt lat="43.00089282328752" lon="10.614643538779934"><ele>6.0</ele><time>2026-04-29T18:24:05.053Z</time></trkpt><trkpt lat="43.0010707885343" lon="10.614328939602757"><ele>6.0</ele><time>2026-04-29T18:24:06.053Z</time></trkpt><trkpt lat="43.001248330492025" lon="10.614013226485685"><ele>6.0</ele><time>2026-04-29T18:24:07.053Z</time></trkpt><trkpt lat="43.00142359454471" lon="10.613698079067982"><ele>6.0</ele><time>2026-04-29T18:24:08.053Z</time></trkpt><trkpt lat="43.00159909771871" lon="10.613381627085642"><ele>6.0</ele><time>2026-04-29T18:24:09.053Z</time></trkpt><trkpt lat="43.001777448375805" lon="10.613066802460942"><ele>6.0</ele><time>2026-04-29T18:24:10.053Z</time></trkpt><trkpt lat="43.00195212920491" lon="10.612756202592772"><ele>6.0</ele><time>2026-04-29T18:24:11.053Z</time></trkpt><trkpt lat="43.00212706711495" lon="10.612445914521825"><ele>6.0</ele><time>2026-04-29T18:24:12.053Z</time></trkpt><trkpt lat="43.00230057299761" lon="10.612137338693245"><ele>6.0</ele><time>2026-04-29T18:24:13.053Z</time></trkpt><trkpt lat="43.002473669971536" lon="10.611829436841377"><ele>6.0</ele><time>2026-04-29T18:24:14.053Z</time></trkpt><trkpt lat="43.002643472802916" lon="10.611527721499215"><ele>6.0</ele><time>2026-04-29T18:24:15.053Z</time></trkpt><trkpt lat="43.002811470488616" lon="10.611230267634058"><ele>6.0</ele><time>2026-04-29T18:24:16.053Z</time></trkpt><trkpt lat="43.00297999604072" lon="10.610930476479812"><ele>6.0</ele><time>2026-04-29T18:24:17.053Z</time></trkpt><trkpt lat="43.00314986688586" lon="10.610629828225656"><ele>6.0</ele><time>2026-04-29T18:24:18.053Z</time></trkpt><trkpt lat="43.003320258490156" lon="10.61032589906167"><ele>6.0</ele><time>2026-04-29T18:24:19.053Z</time></trkpt><trkpt lat="43.003492028960785" lon="10.61002178295249"><ele>6.5</ele><time>2026-04-29T18:24:20.053Z</time></trkpt><trkpt lat="43.00366458311743" lon="10.60971879760668"><ele>7.0</ele><time>2026-04-29T18:24:21.053Z</time></trkpt><trkpt lat="43.003837356235856" lon="10.609412509431408"><ele>7.0</ele><time>2026-04-29T18:24:22.053Z</time></trkpt><trkpt lat="43.00400879212285" lon="10.60910823066381"><ele>7.0</ele><time>2026-04-29T18:24:23.053Z</time></trkpt><trkpt lat="43.004181925929394" lon="10.608803480285571"><ele>7.5</ele><time>2026-04-29T18:24:24.053Z</time></trkpt><trkpt lat="43.00435649853234" lon="10.608499721982797"><ele>8.0</ele><time>2026-04-29T18:24:25.053Z</time></trkpt><trkpt lat="43.00453225762178" lon="10.608196755228352"><ele>8.0</ele><time>2026-04-29T18:24:26.053Z</time></trkpt><trkpt lat="43.00471052691311" lon="10.607893132170965"><ele>8.0</ele><time>2026-04-29T18:24:27.053Z</time></trkpt><trkpt lat="43.00488934061722" lon="10.607587566329942"><ele>8.0</ele><time>2026-04-29T18:24:28.053Z</time></trkpt><trkpt lat="43.0050707402526" lon="10.607285854795668"><ele>8.0</ele><time>2026-04-29T18:24:29.053Z</time></trkpt><trkpt lat="43.005257369569286" lon="10.606986321246383"><ele>8.0</ele><time>2026-04-29T18:24:30.053Z</time></trkpt><trkpt lat="43.00544875455571" lon="10.606691469732104"><ele>8.0</ele><time>2026-04-29T18:24:31.053Z</time></trkpt><trkpt lat="43.00564432305942" lon="10.606396559709319"><ele>7.5</ele><time>2026-04-29T18:24:32.053Z</time></trkpt><trkpt lat="43.005844012637375" lon="10.606103075550864"><ele>7.0</ele><time>2026-04-29T18:24:33.053Z</time></trkpt><trkpt lat="43.006046988613434" lon="10.60581132008955"><ele>7.0</ele><time>2026-04-29T18:24:34.053Z</time></trkpt><trkpt lat="43.00625703280513" lon="10.605523191527038"><ele>7.0</ele><time>2026-04-29T18:24:35.053Z</time></trkpt><trkpt lat="43.00646849579842" lon="10.605239849734055"><ele>7.0</ele><time>2026-04-29T18:24:36.053Z</time></trkpt><trkpt lat="43.006689946678996" lon="10.604965901220504"><ele>7.0</ele><time>2026-04-29T18:24:37.053Z</time></trkpt><trkpt lat="43.00691110663021" lon="10.604695809038043"><ele>7.0</ele><time>2026-04-29T18:24:38.053Z</time></trkpt><trkpt lat="43.00713545797259" lon="10.604432978357343"><ele>7.0</ele><time>2026-04-29T18:24:39.053Z</time></trkpt><trkpt lat="43.00736061555872" lon="10.604173358515576"><ele>6.5</ele><time>2026-04-29T18:24:40.053Z</time></trkpt><trkpt lat="43.00758783830901" lon="10.60392461531687"><ele>6.0</ele><time>2026-04-29T18:24:41.053Z</time></trkpt><trkpt lat="43.007819343877756" lon="10.603678346114966"><ele>6.5</ele><time>2026-04-29T18:24:42.053Z</time></trkpt><trkpt lat="43.00805201277221" lon="10.603436404268587"><ele>7.0</ele><time>2026-04-29T18:24:43.053Z</time></trkpt><trkpt lat="43.008280636898185" lon="10.603191591041732"><ele>7.0</ele><time>2026-04-29T18:24:44.053Z</time></trkpt><trkpt lat="43.00850689440896" lon="10.602945134465015"><ele>7.0</ele><time>2026-04-29T18:24:45.053Z</time></trkpt><trkpt lat="43.00873395983547" lon="10.602699932894504"><ele>7.0</ele><time>2026-04-29T18:24:46.053Z</time></trkpt><trkpt lat="43.00896087758835" lon="10.602452547252941"><ele>7.0</ele><time>2026-04-29T18:24:47.053Z</time></trkpt><trkpt lat="43.00918806153744" lon="10.602209539627331"><ele>6.5</ele><time>2026-04-29T18:24:48.053Z</time></trkpt><trkpt lat="43.009413384850774" lon="10.601964271939297"><ele>6.0</ele><time>2026-04-29T18:24:49.053Z</time></trkpt><trkpt lat="43.00963886901499" lon="10.601718674997509"><ele>6.0</ele><time>2026-04-29T18:24:50.053Z</time></trkpt><trkpt lat="43.009863855782214" lon="10.601473918329116"><ele>6.0</ele><time>2026-04-29T18:24:51.053Z</time></trkpt><trkpt lat="43.01008944273515" lon="10.601228025628973"><ele>8.0</ele><time>2026-04-29T18:24:52.053Z</time></trkpt><trkpt lat="43.01031202761889" lon="10.60098286643005"><ele>10.0</ele><time>2026-04-29T18:24:53.053Z</time></trkpt><trkpt lat="43.01053528190568" lon="10.60073884075406"><ele>10.0</ele><time>2026-04-29T18:24:54.053Z</time></trkpt><trkpt lat="43.01075656166403" lon="10.600497111366048"><ele>10.0</ele><time>2026-04-29T18:24:55.053Z</time></trkpt><trkpt lat="43.01098072530767" lon="10.600254070112559"><ele>10.5</ele><time>2026-04-29T18:24:56.053Z</time></trkpt><trkpt lat="43.01120412670435" lon="10.60001341078701"><ele>11.0</ele><time>2026-04-29T18:24:57.053Z</time></trkpt><trkpt lat="43.01142771633499" lon="10.59977330777219"><ele>11.0</ele><time>2026-04-29T18:24:58.053Z</time></trkpt><trkpt lat="43.011650086242554" lon="10.599529966815775"><ele>11.0</ele><time>2026-04-29T18:24:59.053Z</time></trkpt><trkpt lat="43.01187414454642" lon="10.599285522930249"><ele>11.5</ele><time>2026-04-29T18:25:00.053Z</time></trkpt><trkpt lat="43.012099368009544" lon="10.599037911858977"><ele>12.0</ele><time>2026-04-29T18:25:01.053Z</time></trkpt><trkpt lat="43.012322054833" lon="10.598787313947314"><ele>10.5</ele><time>2026-04-29T18:25:02.053Z</time></trkpt><trkpt lat="43.01254209104659" lon="10.598535074128826"><ele>9.0</ele><time>2026-04-29T18:25:03.053Z</time></trkpt><trkpt lat="43.01276204953974" lon="10.598275980234844"><ele>9.0</ele><time>2026-04-29T18:25:04.053Z</time></trkpt><trkpt lat="43.012981537064924" lon="10.598011615958942"><ele>9.0</ele><time>2026-04-29T18:25:05.053Z</time></trkpt><trkpt lat="43.01320079111158" lon="10.59774358199424"><ele>9.5</ele><time>2026-04-29T18:25:06.053Z</time></trkpt><trkpt lat="43.01341560360326" lon="10.597473870065084"><ele>10.0</ele><time>2026-04-29T18:25:07.053Z</time></trkpt><trkpt lat="43.01363406765893" lon="10.597197914459692"><ele>10.0</ele><time>2026-04-29T18:25:08.053Z</time></trkpt><trkpt lat="43.013851345260214" lon="10.596921908744172"><ele>10.0</ele><time>2026-04-29T18:25:09.053Z</time></trkpt><trkpt lat="43.01406630833425" lon="10.596645351086163"><ele>10.5</ele><time>2026-04-29T18:25:10.053Z</time></trkpt><trkpt lat="43.014274805424726" lon="10.596365332047677"><ele>11.0</ele><time>2026-04-29T18:25:11.053Z</time></trkpt><trkpt lat="43.01447641795191" lon="10.596079879239268"><ele>9.5</ele><time>2026-04-29T18:25:12.053Z</time></trkpt><trkpt lat="43.014668740851285" lon="10.595786033833829"><ele>8.0</ele><time>2026-04-29T18:25:13.053Z</time></trkpt><trkpt lat="43.014859774491185" lon="10.595490607881452"><ele>8.5</ele><time>2026-04-29T18:25:14.053Z</time></trkpt><trkpt lat="43.015052228708946" lon="10.595202981110667"><ele>9.0</ele><time>2026-04-29T18:25:15.053Z</time></trkpt><trkpt lat="43.01524578515244" lon="10.594918096637768"><ele>9.0</ele><time>2026-04-29T18:25:16.053Z</time></trkpt><trkpt lat="43.015437783525215" lon="10.594639177517285"><ele>9.0</ele><time>2026-04-29T18:25:17.053Z</time></trkpt><trkpt lat="43.01563097233344" lon="10.594359372168084"><ele>9.0</ele><time>2026-04-29T18:25:18.053Z</time></trkpt><trkpt lat="43.01582497840443" lon="10.594080815951795"><ele>9.0</ele><time>2026-04-29T18:25:19.053Z</time></trkpt><trkpt lat="43.01602495966578" lon="10.59380157199222"><ele>8.0</ele><time>2026-04-29T18:25:20.053Z</time></trkpt><trkpt lat="43.01622076331595" lon="10.593514147860516"><ele>7.0</ele><time>2026-04-29T18:25:21.053Z</time></trkpt><trkpt lat="43.01641973389577" lon="10.593228813229612"><ele>7.0</ele><time>2026-04-29T18:25:22.053Z</time></trkpt><trkpt lat="43.016616789570755" lon="10.592940276577657"><ele>7.0</ele><time>2026-04-29T18:25:23.053Z</time></trkpt><trkpt lat="43.01681340376441" lon="10.592649963685824"><ele>6.0</ele><time>2026-04-29T18:25:24.053Z</time></trkpt><trkpt lat="43.01701037356527" lon="10.592361517920432"><ele>5.0</ele><time>2026-04-29T18:25:25.053Z</time></trkpt><trkpt lat="43.01721097716459" lon="10.592073087485188"><ele>5.5</ele><time>2026-04-29T18:25:26.053Z</time></trkpt><trkpt lat="43.01740837549297" lon="10.591783752077783"><ele>6.0</ele><time>2026-04-29T18:25:27.053Z</time></trkpt><trkpt lat="43.01760617383509" lon="10.591497087675256"><ele>6.0</ele><time>2026-04-29T18:25:28.053Z</time></trkpt><trkpt lat="43.01780533778894" lon="10.591209803546736"><ele>6.0</ele><time>2026-04-29T18:25:29.053Z</time></trkpt><trkpt lat="43.01800283352018" lon="10.590920539100926"><ele>6.0</ele><time>2026-04-29T18:25:30.053Z</time></trkpt><trkpt lat="43.01819918162494" lon="10.590632073551904"><ele>6.0</ele><time>2026-04-29T18:25:31.053Z</time></trkpt><trkpt lat="43.01839722438119" lon="10.590345014032323"><ele>6.0</ele><time>2026-04-29T18:25:32.053Z</time></trkpt><trkpt lat="43.01859602017972" lon="10.590059734216387"><ele>6.0</ele><time>2026-04-29T18:25:33.053Z</time></trkpt><trkpt lat="43.01879299088509" lon="10.589772939819863"><ele>5.0</ele><time>2026-04-29T18:25:34.053Z</time></trkpt><trkpt lat="43.018986290145264" lon="10.589483290812012"><ele>4.0</ele><time>2026-04-29T18:25:35.053Z</time></trkpt><trkpt lat="43.019178903803486" lon="10.589190342300004"><ele>3.5</ele><time>2026-04-29T18:25:36.053Z</time></trkpt><trkpt lat="43.019367107152156" lon="10.58889471175373"><ele>3.0</ele><time>2026-04-29T18:25:37.053Z</time></trkpt><trkpt lat="43.01955261295199" lon="10.588595573699513"><ele>4.5</ele><time>2026-04-29T18:25:38.053Z</time></trkpt><trkpt lat="43.01973200666995" lon="10.588296909549571"><ele>6.0</ele><time>2026-04-29T18:25:39.053Z</time></trkpt><trkpt lat="43.01991216934413" lon="10.58799707876315"><ele>5.0</ele><time>2026-04-29T18:25:40.053Z</time></trkpt><trkpt lat="43.02009070920816" lon="10.587694179401216"><ele>4.0</ele><time>2026-04-29T18:25:41.053Z</time></trkpt><trkpt lat="43.02026678414241" lon="10.587390497590858"><ele>4.0</ele><time>2026-04-29T18:25:42.053Z</time></trkpt><trkpt lat="43.02043829794148" lon="10.587085604632373"><ele>4.0</ele><time>2026-04-29T18:25:43.053Z</time></trkpt><trkpt lat="43.020609319353746" lon="10.586779333997008"><ele>4.5</ele><time>2026-04-29T18:25:44.053Z</time></trkpt><trkpt lat="43.02077885559071" lon="10.58646912430576"><ele>5.0</ele><time>2026-04-29T18:25:45.053Z</time></trkpt><trkpt lat="43.020943496105915" lon="10.586155491530333"><ele>5.0</ele><time>2026-04-29T18:25:46.053Z</time></trkpt><trkpt lat="43.02110594566916" lon="10.585839754333296"><ele>5.0</ele><time>2026-04-29T18:25:47.053Z</time></trkpt><trkpt lat="43.02126414351698" lon="10.58552259577481"><ele>5.5</ele><time>2026-04-29T18:25:48.053Z</time></trkpt><trkpt lat="43.021422912658224" lon="10.585204850402093"><ele>6.0</ele><time>2026-04-29T18:25:49.053Z</time></trkpt><trkpt lat="43.021580492390896" lon="10.58488535691608"><ele>6.0</ele><time>2026-04-29T18:25:50.053Z</time></trkpt><trkpt lat="43.02173719545618" lon="10.584566568374619"><ele>6.0</ele><time>2026-04-29T18:25:51.053Z</time></trkpt><trkpt lat="43.02189133406642" lon="10.584242318437422"><ele>6.5</ele><time>2026-04-29T18:25:52.053Z</time></trkpt><trkpt lat="43.02205067688593" lon="10.583926241507413"><ele>7.0</ele><time>2026-04-29T18:25:53.053Z</time></trkpt><trkpt lat="43.02220722480971" lon="10.583609337588207"><ele>5.5</ele><time>2026-04-29T18:25:54.053Z</time></trkpt><trkpt lat="43.02236240527935" lon="10.58329222515504"><ele>4.0</ele><time>2026-04-29T18:25:55.053Z</time></trkpt><trkpt lat="43.022516601980705" lon="10.58297480868769"><ele>4.5</ele><time>2026-04-29T18:25:56.053Z</time></trkpt><trkpt lat="43.022670127555855" lon="10.582659157886182"><ele>5.0</ele><time>2026-04-29T18:25:57.053Z</time></trkpt><trkpt lat="43.02282361650667" lon="10.582344556594121"><ele>5.0</ele><time>2026-04-29T18:25:58.054Z</time></trkpt><trkpt lat="43.02297545611617" lon="10.582030487885362"><ele>5.0</ele><time>2026-04-29T18:25:59.054Z</time></trkpt><trkpt lat="43.02312921187495" lon="10.581720390266467"><ele>5.0</ele><time>2026-04-29T18:26:00.054Z</time></trkpt><trkpt lat="43.02328293926665" lon="10.581410154785765"><ele>5.0</ele><time>2026-04-29T18:26:01.055Z</time></trkpt><trkpt lat="43.02343627901054" lon="10.581097205036436"><ele>6.0</ele><time>2026-04-29T18:26:02.054Z</time></trkpt><trkpt lat="43.02359166399852" lon="10.580786716977233"><ele>7.0</ele><time>2026-04-29T18:26:03.054Z</time></trkpt><trkpt lat="43.02374755916268" lon="10.580473963025423"><ele>7.0</ele><time>2026-04-29T18:26:04.054Z</time></trkpt><trkpt lat="43.023901114171956" lon="10.580161985001972"><ele>7.0</ele><time>2026-04-29T18:26:05.054Z</time></trkpt><trkpt lat="43.024053094681555" lon="10.579848578018261"><ele>8.0</ele><time>2026-04-29T18:26:06.054Z</time></trkpt><trkpt lat="43.02420360498965" lon="10.579533945702835"><ele>9.0</ele><time>2026-04-29T18:26:07.054Z</time></trkpt><trkpt lat="43.02435608347872" lon="10.579217731331276"><ele>9.0</ele><time>2026-04-29T18:26:08.054Z</time></trkpt><trkpt lat="43.0245118511577" lon="10.578904696048738"><ele>9.0</ele><time>2026-04-29T18:26:09.054Z</time></trkpt><trkpt lat="43.02466954070351" lon="10.578592145708072"><ele>9.0</ele><time>2026-04-29T18:26:10.054Z</time></trkpt><trkpt lat="43.02482629087038" lon="10.57827809956813"><ele>9.0</ele><time>2026-04-29T18:26:11.054Z</time></trkpt><trkpt lat="43.02498349263194" lon="10.577962865787683"><ele>9.5</ele><time>2026-04-29T18:26:12.054Z</time></trkpt><trkpt lat="43.02514220295876" lon="10.577647720836802"><ele>10.0</ele><time>2026-04-29T18:26:13.054Z</time></trkpt><trkpt lat="43.025299271276396" lon="10.577334360387537"><ele>10.0</ele><time>2026-04-29T18:26:14.054Z</time></trkpt><trkpt lat="43.025460469074574" lon="10.577017187207694"><ele>10.0</ele><time>2026-04-29T18:26:15.054Z</time></trkpt><trkpt lat="43.02562027623967" lon="10.576703276154841"><ele>10.0</ele><time>2026-04-29T18:26:16.054Z</time></trkpt><trkpt lat="43.025784673774055" lon="10.57639137651829"><ele>10.0</ele><time>2026-04-29T18:26:17.054Z</time></trkpt><trkpt lat="43.025948563464205" lon="10.576078667081811"><ele>9.5</ele><time>2026-04-29T18:26:18.054Z</time></trkpt><trkpt lat="43.02612341539857" lon="10.575760597536597"><ele>9.0</ele><time>2026-04-29T18:26:19.054Z</time></trkpt><trkpt lat="43.02629329736443" lon="10.575453228878876"><ele>9.0</ele><time>2026-04-29T18:26:20.054Z</time></trkpt><trkpt lat="43.02646961659448" lon="10.57514521144494"><ele>9.0</ele><time>2026-04-29T18:26:21.054Z</time></trkpt><trkpt lat="43.02664977071465" lon="10.57483769736441"><ele>9.0</ele><time>2026-04-29T18:26:22.054Z</time></trkpt><trkpt lat="43.02683155367681" lon="10.57453298378533"><ele>9.0</ele><time>2026-04-29T18:26:23.054Z</time></trkpt><trkpt lat="43.02701767727163" lon="10.574231484408783"><ele>9.0</ele><time>2026-04-29T18:26:24.054Z</time></trkpt><trkpt lat="43.027208018714276" lon="10.573933999438617"><ele>9.0</ele><time>2026-04-29T18:26:25.054Z</time></trkpt><trkpt lat="43.027400205944026" lon="10.573639334046323"><ele>9.0</ele><time>2026-04-29T18:26:26.054Z</time></trkpt><trkpt lat="43.027595307628815" lon="10.573353498486064"><ele>9.0</ele><time>2026-04-29T18:26:27.054Z</time></trkpt><trkpt lat="43.02779815323809" lon="10.5730770448096"><ele>8.5</ele><time>2026-04-29T18:26:28.054Z</time></trkpt><trkpt lat="43.02800404941419" lon="10.572808941642059"><ele>8.0</ele><time>2026-04-29T18:26:29.054Z</time></trkpt><trkpt lat="43.02821357803609" lon="10.572547778705388"><ele>7.5</ele><time>2026-04-29T18:26:30.054Z</time></trkpt><trkpt lat="43.02843026176976" lon="10.572292173296699"><ele>7.0</ele><time>2026-04-29T18:26:31.054Z</time></trkpt><trkpt lat="43.0286492294676" lon="10.572041492740608"><ele>7.5</ele><time>2026-04-29T18:26:32.054Z</time></trkpt><trkpt lat="43.02887207379162" lon="10.571796468668053"><ele>8.0</ele><time>2026-04-29T18:26:33.054Z</time></trkpt><trkpt lat="43.029096834160065" lon="10.571559649209217"><ele>7.5</ele><time>2026-04-29T18:26:34.054Z</time></trkpt><trkpt lat="43.02932780993782" lon="10.571328417777268"><ele>7.0</ele><time>2026-04-29T18:26:35.054Z</time></trkpt><trkpt lat="43.02956160170174" lon="10.571102759638698"><ele>7.0</ele><time>2026-04-29T18:26:36.054Z</time></trkpt><trkpt lat="43.02979986545682" lon="10.57088270713685"><ele>7.0</ele><time>2026-04-29T18:26:37.054Z</time></trkpt><trkpt lat="43.03004003564808" lon="10.570669372825055"><ele>7.5</ele><time>2026-04-29T18:26:38.054Z</time></trkpt><trkpt lat="43.03028520812422" lon="10.570462839712176"><ele>8.0</ele><time>2026-04-29T18:26:39.054Z</time></trkpt><trkpt lat="43.03052948138956" lon="10.57026414559851"><ele>8.0</ele><time>2026-04-29T18:26:40.054Z</time></trkpt><trkpt lat="43.030781930818655" lon="10.570073938639995"><ele>8.0</ele><time>2026-04-29T18:26:41.054Z</time></trkpt><trkpt lat="43.03103691058677" lon="10.569889713460777"><ele>8.5</ele><time>2026-04-29T18:26:42.054Z</time></trkpt><trkpt lat="43.03129466154268" lon="10.56971610246263"><ele>9.0</ele><time>2026-04-29T18:26:43.054Z</time></trkpt><trkpt lat="43.03155399270798" lon="10.569552179978794"><ele>9.0</ele><time>2026-04-29T18:26:44.054Z</time></trkpt><trkpt lat="43.03182054127243" lon="10.56939579257553"><ele>9.0</ele><time>2026-04-29T18:26:45.054Z</time></trkpt><trkpt lat="43.032085208133395" lon="10.569244884597527"><ele>9.0</ele><time>2026-04-29T18:26:46.054Z</time></trkpt><trkpt lat="43.03235267106822" lon="10.569099854253151"><ele>9.0</ele><time>2026-04-29T18:26:47.054Z</time></trkpt><trkpt lat="43.03262012404654" lon="10.568959743775517"><ele>9.0</ele><time>2026-04-29T18:26:48.054Z</time></trkpt><trkpt lat="43.032889688782326" lon="10.568830724185625"><ele>9.0</ele><time>2026-04-29T18:26:49.054Z</time></trkpt><trkpt lat="43.033163386527434" lon="10.568708537586835"><ele>9.0</ele><time>2026-04-29T18:26:50.054Z</time></trkpt><trkpt lat="43.03343748501542" lon="10.568593088584139"><ele>9.0</ele><time>2026-04-29T18:26:51.054Z</time></trkpt><trkpt lat="43.03371308350755" lon="10.568488599220812"><ele>9.0</ele><time>2026-04-29T18:26:52.054Z</time></trkpt><trkpt lat="43.033991401212226" lon="10.568392974345112"><ele>9.0</ele><time>2026-04-29T18:26:53.054Z</time></trkpt><trkpt lat="43.0342710849905" lon="10.568304376507065"><ele>9.0</ele><time>2026-04-29T18:26:54.054Z</time></trkpt><trkpt lat="43.034550799515245" lon="10.568220927868062"><ele>9.0</ele><time>2026-04-29T18:26:55.054Z</time></trkpt><trkpt lat="43.03483354215423" lon="10.568142774730365"><ele>10.0</ele><time>2026-04-29T18:26:56.054Z</time></trkpt><trkpt lat="43.03511644870556" lon="10.568068391145786"><ele>11.0</ele><time>2026-04-29T18:26:57.054Z</time></trkpt><trkpt lat="43.0354017001527" lon="10.56800556316107"><ele>11.0</ele><time>2026-04-29T18:26:58.054Z</time></trkpt><trkpt lat="43.03568136800552" lon="10.567957673895224"><ele>11.0</ele><time>2026-04-29T18:26:59.054Z</time></trkpt><trkpt lat="43.035968197082454" lon="10.567910950691862"><ele>10.5</ele><time>2026-04-29T18:27:00.054Z</time></trkpt><trkpt lat="43.036252819332866" lon="10.567861665096792"><ele>10.0</ele><time>2026-04-29T18:27:01.055Z</time></trkpt><trkpt lat="43.0365394326902" lon="10.567821457888936"><ele>9.5</ele><time>2026-04-29T18:27:02.055Z</time></trkpt><trkpt lat="43.036822775073745" lon="10.567788245960003"><ele>9.0</ele><time>2026-04-29T18:27:03.055Z</time></trkpt><trkpt lat="43.037110727820284" lon="10.5677615683786"><ele>9.0</ele><time>2026-04-29T18:27:04.055Z</time></trkpt><trkpt lat="43.03739693173608" lon="10.567740253774925"><ele>9.0</ele><time>2026-04-29T18:27:05.055Z</time></trkpt><trkpt lat="43.03768342771231" lon="10.567711159186166"><ele>9.5</ele><time>2026-04-29T18:27:06.055Z</time></trkpt><trkpt lat="43.03796874386681" lon="10.56768930293467"><ele>10.0</ele><time>2026-04-29T18:27:07.055Z</time></trkpt><trkpt lat="43.038256006468366" lon="10.567673433363945"><ele>11.0</ele><time>2026-04-29T18:27:08.055Z</time></trkpt><trkpt lat="43.03854238157644" lon="10.567654664665845"><ele>12.0</ele><time>2026-04-29T18:27:09.055Z</time></trkpt><trkpt lat="43.03883078836028" lon="10.567637902661671"><ele>12.0</ele><time>2026-04-29T18:27:10.055Z</time></trkpt><trkpt lat="43.03911690899068" lon="10.567623075120355"><ele>12.0</ele><time>2026-04-29T18:27:11.055Z</time></trkpt><trkpt lat="43.03940637445968" lon="10.567604892508795"><ele>12.5</ele><time>2026-04-29T18:27:12.055Z</time></trkpt><trkpt lat="43.039695695289815" lon="10.567586748278488"><ele>13.0</ele><time>2026-04-29T18:27:13.055Z</time></trkpt><trkpt lat="43.03998079455307" lon="10.567568843015602"><ele>13.0</ele><time>2026-04-29T18:27:14.055Z</time></trkpt><trkpt lat="43.040267957108355" lon="10.567553326678887"><ele>13.0</ele><time>2026-04-29T18:27:15.055Z</time></trkpt><trkpt lat="43.04055558766895" lon="10.567539209356228"><ele>12.5</ele><time>2026-04-29T18:27:16.055Z</time></trkpt><trkpt lat="43.04084202948588" lon="10.567526539482074"><ele>12.0</ele><time>2026-04-29T18:27:17.055Z</time></trkpt><trkpt lat="43.04112898457187" lon="10.567513610638867"><ele>12.0</ele><time>2026-04-29T18:27:18.055Z</time></trkpt><trkpt lat="43.04141761059576" lon="10.567504623437841"><ele>12.0</ele><time>2026-04-29T18:27:19.055Z</time></trkpt><trkpt lat="43.041707434682266" lon="10.567498591060946"><ele>12.0</ele><time>2026-04-29T18:27:20.055Z</time></trkpt><trkpt lat="43.04199527382819" lon="10.567495862995736"><ele>12.0</ele><time>2026-04-29T18:27:21.055Z</time></trkpt><trkpt lat="43.04228017732024" lon="10.567492747753828"><ele>11.5</ele><time>2026-04-29T18:27:22.055Z</time></trkpt><trkpt lat="43.04256313386586" lon="10.567489170543263"><ele>11.0</ele><time>2026-04-29T18:27:23.055Z</time></trkpt><trkpt lat="43.0428523924541" lon="10.567498593010974"><ele>11.0</ele><time>2026-04-29T18:27:24.055Z</time></trkpt><trkpt lat="43.04313695615486" lon="10.567504732784313"><ele>11.0</ele><time>2026-04-29T18:27:25.055Z</time></trkpt><trkpt lat="43.043423534898395" lon="10.567513740485056"><ele>11.5</ele><time>2026-04-29T18:27:26.055Z</time></trkpt><trkpt lat="43.04370918599926" lon="10.567525533214795"><ele>12.0</ele><time>2026-04-29T18:27:27.055Z</time></trkpt><trkpt lat="43.043995554996144" lon="10.567537124612771"><ele>13.0</ele><time>2026-04-29T18:27:28.055Z</time></trkpt><trkpt lat="43.0442807727168" lon="10.56755248732367"><ele>14.0</ele><time>2026-04-29T18:27:29.055Z</time></trkpt><trkpt lat="43.04456642027833" lon="10.567572486210572"><ele>14.0</ele><time>2026-04-29T18:27:30.055Z</time></trkpt><trkpt lat="43.044852125074556" lon="10.567593985433927"><ele>14.0</ele><time>2026-04-29T18:27:31.055Z</time></trkpt><trkpt lat="43.04513794227035" lon="10.567618703483861"><ele>13.5</ele><time>2026-04-29T18:27:32.055Z</time></trkpt><trkpt lat="43.04542412314349" lon="10.56764522106219"><ele>13.0</ele><time>2026-04-29T18:27:33.055Z</time></trkpt><trkpt lat="43.04570973798174" lon="10.56767264020998"><ele>14.0</ele><time>2026-04-29T18:27:34.055Z</time></trkpt><trkpt lat="43.045993446572616" lon="10.567701064171716"><ele>15.0</ele><time>2026-04-29T18:27:35.055Z</time></trkpt><trkpt lat="43.04627649362938" lon="10.567731012349194"><ele>15.0</ele><time>2026-04-29T18:27:36.055Z</time></trkpt><trkpt lat="43.0465649756219" lon="10.567768592790125"><ele>15.0</ele><time>2026-04-29T18:27:37.055Z</time></trkpt><trkpt lat="43.04685067881949" lon="10.567807059571539"><ele>15.5</ele><time>2026-04-29T18:27:38.055Z</time></trkpt><trkpt lat="43.04713394455992" lon="10.567845186928437"><ele>16.0</ele><time>2026-04-29T18:27:39.055Z</time></trkpt><trkpt lat="43.047418625933204" lon="10.567879009673398"><ele>17.0</ele><time>2026-04-29T18:27:40.055Z</time></trkpt><trkpt lat="43.04770248882123" lon="10.567914720350652"><ele>18.0</ele><time>2026-04-29T18:27:41.055Z</time></trkpt><trkpt lat="43.047986653858615" lon="10.567949513866173"><ele>18.0</ele><time>2026-04-29T18:27:42.055Z</time></trkpt><trkpt lat="43.048270465429944" lon="10.567976612868017"><ele>18.0</ele><time>2026-04-29T18:27:43.055Z</time></trkpt><trkpt lat="43.04855711813955" lon="10.568012078061733"><ele>19.5</ele><time>2026-04-29T18:27:44.055Z</time></trkpt><trkpt lat="43.048842702081615" lon="10.568049349265149"><ele>21.0</ele><time>2026-04-29T18:27:45.055Z</time></trkpt><trkpt lat="43.0491297936037" lon="10.568087814661956"><ele>23.0</ele><time>2026-04-29T18:27:46.055Z</time></trkpt><trkpt lat="43.04941708423717" lon="10.5681237714814"><ele>25.0</ele><time>2026-04-29T18:27:47.055Z</time></trkpt><trkpt lat="43.04970541720212" lon="10.568155634888088"><ele>26.0</ele><time>2026-04-29T18:27:48.055Z</time></trkpt><trkpt lat="43.04999331307863" lon="10.568187451967237"><ele>27.0</ele><time>2026-04-29T18:27:49.055Z</time></trkpt><trkpt lat="43.05027926879954" lon="10.568211821328124"><ele>27.0</ele><time>2026-04-29T18:27:50.055Z</time></trkpt><trkpt lat="43.05056861200995" lon="10.568230091435511"><ele>27.0</ele><time>2026-04-29T18:27:51.055Z</time></trkpt><trkpt lat="43.050853513390344" lon="10.568233823961124"><ele>28.0</ele><time>2026-04-29T18:27:52.055Z</time></trkpt><trkpt lat="43.051138937617345" lon="10.568223106057824"><ele>29.0</ele><time>2026-04-29T18:27:53.055Z</time></trkpt><trkpt lat="43.051424382913254" lon="10.568197157476211"><ele>29.0</ele><time>2026-04-29T18:27:54.055Z</time></trkpt><trkpt lat="43.0517103118085" lon="10.56816699991259"><ele>29.0</ele><time>2026-04-29T18:27:55.055Z</time></trkpt><trkpt lat="43.05199803482914" lon="10.568128947225636"><ele>29.0</ele><time>2026-04-29T18:27:56.055Z</time></trkpt><trkpt lat="43.05228017443576" lon="10.56807494800405"><ele>29.0</ele><time>2026-04-29T18:27:57.055Z</time></trkpt><trkpt lat="43.05256086363749" lon="10.568010304654647"><ele>30.0</ele><time>2026-04-29T18:27:58.055Z</time></trkpt><trkpt lat="43.05284318467569" lon="10.567933452780347"><ele>31.0</ele><time>2026-04-29T18:27:59.055Z</time></trkpt><trkpt lat="43.05312546148671" lon="10.567846379479805"><ele>31.5</ele><time>2026-04-29T18:28:00.055Z</time></trkpt><trkpt lat="43.05340284792272" lon="10.56774210836742"><ele>32.0</ele><time>2026-04-29T18:28:01.055Z</time></trkpt><trkpt lat="43.05367544643057" lon="10.567624102965167"><ele>32.0</ele><time>2026-04-29T18:28:02.055Z</time></trkpt><trkpt lat="43.05394839753251" lon="10.567496117951325"><ele>32.0</ele><time>2026-04-29T18:28:03.055Z</time></trkpt><trkpt lat="43.05421816623595" lon="10.567354776917343"><ele>34.0</ele><time>2026-04-29T18:28:04.056Z</time></trkpt><trkpt lat="43.0544839497238" lon="10.567202632111542"><ele>36.0</ele><time>2026-04-29T18:28:05.056Z</time></trkpt><trkpt lat="43.054748251616864" lon="10.567041755219112"><ele>37.5</ele><time>2026-04-29T18:28:06.056Z</time></trkpt><trkpt lat="43.05501152618339" lon="10.56687298146473"><ele>39.0</ele><time>2026-04-29T18:28:07.057Z</time></trkpt><trkpt lat="43.055267279879246" lon="10.566694236172923"><ele>39.0</ele><time>2026-04-29T18:28:08.056Z</time></trkpt><trkpt lat="43.055524454884676" lon="10.566507186175"><ele>39.0</ele><time>2026-04-29T18:28:09.056Z</time></trkpt><trkpt lat="43.05577771270255" lon="10.566317143218827"><ele>38.0</ele><time>2026-04-29T18:28:10.056Z</time></trkpt><trkpt lat="43.056032282734655" lon="10.56612430468886"><ele>37.0</ele><time>2026-04-29T18:28:11.056Z</time></trkpt><trkpt lat="43.056287878114155" lon="10.56593490345152"><ele>37.0</ele><time>2026-04-29T18:28:12.056Z</time></trkpt><trkpt lat="43.05653976654156" lon="10.565743526110438"><ele>37.0</ele><time>2026-04-29T18:28:13.056Z</time></trkpt><trkpt lat="43.056792027726274" lon="10.565555045897199"><ele>37.0</ele><time>2026-04-29T18:28:14.056Z</time></trkpt><trkpt lat="43.05704492250346" lon="10.565367261937112"><ele>37.0</ele><time>2026-04-29T18:28:15.056Z</time></trkpt><trkpt lat="43.05729862739338" lon="10.565179799279859"><ele>36.0</ele><time>2026-04-29T18:28:16.056Z</time></trkpt><trkpt lat="43.05755356895582" lon="10.564992946047651"><ele>35.0</ele><time>2026-04-29T18:28:17.056Z</time></trkpt><trkpt lat="43.05780622888012" lon="10.56480461219715"><ele>35.0</ele><time>2026-04-29T18:28:18.056Z</time></trkpt><trkpt lat="43.058059785764485" lon="10.564613258935442"><ele>35.0</ele><time>2026-04-29T18:28:19.056Z</time></trkpt><trkpt lat="43.05831179629616" lon="10.56442180526695"><ele>34.5</ele><time>2026-04-29T18:28:20.056Z</time></trkpt><trkpt lat="43.05856315892946" lon="10.56423093000114"><ele>34.0</ele><time>2026-04-29T18:28:21.056Z</time></trkpt><trkpt lat="43.05881322041356" lon="10.564038909938589"><ele>34.0</ele><time>2026-04-29T18:28:22.056Z</time></trkpt><trkpt lat="43.05906603778846" lon="10.563848712410381"><ele>34.0</ele><time>2026-04-29T18:28:23.056Z</time></trkpt><trkpt lat="43.05931858804558" lon="10.563660051416486"><ele>34.0</ele><time>2026-04-29T18:28:24.056Z</time></trkpt><trkpt lat="43.05957192521148" lon="10.563475832141846"><ele>34.0</ele><time>2026-04-29T18:28:25.056Z</time></trkpt><trkpt lat="43.059827776846525" lon="10.563293284762088"><ele>33.5</ele><time>2026-04-29T18:28:26.056Z</time></trkpt><trkpt lat="43.060082727088854" lon="10.563116751814578"><ele>33.0</ele><time>2026-04-29T18:28:27.056Z</time></trkpt><trkpt lat="43.06034394855889" lon="10.562951686363352"><ele>33.0</ele><time>2026-04-29T18:28:28.056Z</time></trkpt><trkpt lat="43.06060541323851" lon="10.56279110142405"><ele>33.0</ele><time>2026-04-29T18:28:29.056Z</time></trkpt><trkpt lat="43.06086778404376" lon="10.562638190048464"><ele>33.0</ele><time>2026-04-29T18:28:30.056Z</time></trkpt><trkpt lat="43.06113443838958" lon="10.562486658925183"><ele>33.0</ele><time>2026-04-29T18:28:31.056Z</time></trkpt><trkpt lat="43.061398079572136" lon="10.562348455922413"><ele>31.5</ele><time>2026-04-29T18:28:32.056Z</time></trkpt><trkpt lat="43.0616707319547" lon="10.562221475968885"><ele>30.0</ele><time>2026-04-29T18:28:33.056Z</time></trkpt><trkpt lat="43.06194117614978" lon="10.562100303063675"><ele>28.5</ele><time>2026-04-29T18:28:34.056Z</time></trkpt><trkpt lat="43.0622150288341" lon="10.561983431203709"><ele>27.0</ele><time>2026-04-29T18:28:35.056Z</time></trkpt><trkpt lat="43.06248915017426" lon="10.561875678048677"><ele>27.0</ele><time>2026-04-29T18:28:36.056Z</time></trkpt><trkpt lat="43.06276519653836" lon="10.56177713227763"><ele>27.0</ele><time>2026-04-29T18:28:37.056Z</time></trkpt><trkpt lat="43.06304327031491" lon="10.561687592687777"><ele>27.5</ele><time>2026-04-29T18:28:38.056Z</time></trkpt><trkpt lat="43.06332266203748" lon="10.561609203944675"><ele>28.0</ele><time>2026-04-29T18:28:39.056Z</time></trkpt><trkpt lat="43.063603563350654" lon="10.561535393786489"><ele>28.0</ele><time>2026-04-29T18:28:40.056Z</time></trkpt><trkpt lat="43.06388345243776" lon="10.56146642436944"><ele>28.0</ele><time>2026-04-29T18:28:41.056Z</time></trkpt><trkpt lat="43.064163052434026" lon="10.561400889211896"><ele>28.5</ele><time>2026-04-29T18:28:42.056Z</time></trkpt><trkpt lat="43.06444247478303" lon="10.561335663352931"><ele>29.0</ele><time>2026-04-29T18:28:43.056Z</time></trkpt><trkpt lat="43.06472355246485" lon="10.561271731800712"><ele>29.0</ele><time>2026-04-29T18:28:44.056Z</time></trkpt><trkpt lat="43.0650079040679" lon="10.561218375576722"><ele>29.0</ele><time>2026-04-29T18:28:45.056Z</time></trkpt><trkpt lat="43.065289749712" lon="10.561163356317078"><ele>28.5</ele><time>2026-04-29T18:28:46.057Z</time></trkpt><trkpt lat="43.065573888451055" lon="10.56110438363474"><ele>28.0</ele><time>2026-04-29T18:28:47.057Z</time></trkpt><trkpt lat="43.065856891822975" lon="10.561048515408102"><ele>28.0</ele><time>2026-04-29T18:28:48.057Z</time></trkpt><trkpt lat="43.06613813007486" lon="10.56099176923234"><ele>28.0</ele><time>2026-04-29T18:28:49.057Z</time></trkpt><trkpt lat="43.06642279092561" lon="10.56093899488719"><ele>30.0</ele><time>2026-04-29T18:28:50.057Z</time></trkpt><trkpt lat="43.06670880841326" lon="10.56087908367899"><ele>32.0</ele><time>2026-04-29T18:28:51.057Z</time></trkpt><trkpt lat="43.06699328315608" lon="10.560825354843464"><ele>32.0</ele><time>2026-04-29T18:28:52.057Z</time></trkpt><trkpt lat="43.06728058652079" lon="10.560767992949229"><ele>32.0</ele><time>2026-04-29T18:28:53.057Z</time></trkpt><trkpt lat="43.067564260027034" lon="10.560714082993796"><ele>32.5</ele><time>2026-04-29T18:28:54.057Z</time></trkpt><trkpt lat="43.06784881040464" lon="10.560654407736674"><ele>33.0</ele><time>2026-04-29T18:28:55.057Z</time></trkpt><trkpt lat="43.06813335545735" lon="10.560594905797673"><ele>32.5</ele><time>2026-04-29T18:28:56.057Z</time></trkpt><trkpt lat="43.06841733496547" lon="10.560540866283322"><ele>32.0</ele><time>2026-04-29T18:28:57.057Z</time></trkpt><trkpt lat="43.06869794530087" lon="10.56048701793285"><ele>32.0</ele><time>2026-04-29T18:28:58.057Z</time></trkpt><trkpt lat="43.06897723502003" lon="10.56042844172424"><ele>32.0</ele><time>2026-04-29T18:28:59.057Z</time></trkpt><trkpt lat="43.0692562085417" lon="10.560370567746446"><ele>33.5</ele><time>2026-04-29T18:29:00.057Z</time></trkpt><trkpt lat="43.06953579955676" lon="10.560314576303009"><ele>35.0</ele><time>2026-04-29T18:29:01.057Z</time></trkpt><trkpt lat="43.06981319938318" lon="10.560256069857266"><ele>35.5</ele><time>2026-04-29T18:29:02.057Z</time></trkpt><trkpt lat="43.07009261233487" lon="10.560201128249918"><ele>36.0</ele><time>2026-04-29T18:29:03.057Z</time></trkpt><trkpt lat="43.07037085402159" lon="10.560146374193522"><ele>36.0</ele><time>2026-04-29T18:29:04.057Z</time></trkpt><trkpt lat="43.070650727060304" lon="10.560090812984539"><ele>36.0</ele><time>2026-04-29T18:29:05.057Z</time></trkpt><trkpt lat="43.07092983496386" lon="10.560033477291702"><ele>36.5</ele><time>2026-04-29T18:29:06.057Z</time></trkpt><trkpt lat="43.07121007953765" lon="10.559977290840537"><ele>37.0</ele><time>2026-04-29T18:29:07.057Z</time></trkpt><trkpt lat="43.071492285930375" lon="10.559921279375056"><ele>37.0</ele><time>2026-04-29T18:29:08.057Z</time></trkpt><trkpt lat="43.07177216086463" lon="10.559862793731963"><ele>37.0</ele><time>2026-04-29T18:29:09.057Z</time></trkpt><trkpt lat="43.07205444385235" lon="10.55980593228984"><ele>37.0</ele><time>2026-04-29T18:29:10.057Z</time></trkpt><trkpt lat="43.07233722125684" lon="10.559747056821735"><ele>37.0</ele><time>2026-04-29T18:29:11.057Z</time></trkpt><trkpt lat="43.072616904528104" lon="10.559689807230743"><ele>38.5</ele><time>2026-04-29T18:29:12.057Z</time></trkpt><trkpt lat="43.072900494277036" lon="10.55963350588208"><ele>40.0</ele><time>2026-04-29T18:29:13.057Z</time></trkpt><trkpt lat="43.07318353475352" lon="10.559575853932792"><ele>39.5</ele><time>2026-04-29T18:29:14.057Z</time></trkpt><trkpt lat="43.0734670700039" lon="10.559517490631473"><ele>39.0</ele><time>2026-04-29T18:29:15.057Z</time></trkpt><trkpt lat="43.07374967693961" lon="10.559459391916397"><ele>39.0</ele><time>2026-04-29T18:29:16.057Z</time></trkpt><trkpt lat="43.07403203784028" lon="10.559399201977557"><ele>39.0</ele><time>2026-04-29T18:29:17.057Z</time></trkpt><trkpt lat="43.07431581048201" lon="10.559339731454461"><ele>39.0</ele><time>2026-04-29T18:29:18.057Z</time></trkpt><trkpt lat="43.0746011824316" lon="10.559284386941636"><ele>39.0</ele><time>2026-04-29T18:29:19.057Z</time></trkpt><trkpt lat="43.074884601403184" lon="10.559228131408876"><ele>40.0</ele><time>2026-04-29T18:29:20.057Z</time></trkpt><trkpt lat="43.07517008077936" lon="10.559170204620386"><ele>41.0</ele><time>2026-04-29T18:29:21.057Z</time></trkpt><trkpt lat="43.075453721337944" lon="10.559112104289035"><ele>41.0</ele><time>2026-04-29T18:29:22.057Z</time></trkpt><trkpt lat="43.07573605876516" lon="10.559056663708066"><ele>41.0</ele><time>2026-04-29T18:29:23.057Z</time></trkpt><trkpt lat="43.076020486901115" lon="10.559001639333097"><ele>40.5</ele><time>2026-04-29T18:29:24.057Z</time></trkpt><trkpt lat="43.07630261474618" lon="10.558940479716922"><ele>40.0</ele><time>2026-04-29T18:29:25.057Z</time></trkpt><trkpt lat="43.07658466176365" lon="10.558884615643688"><ele>40.0</ele><time>2026-04-29T18:29:26.057Z</time></trkpt><trkpt lat="43.0768646016683" lon="10.558828744727538"><ele>40.0</ele><time>2026-04-29T18:29:27.057Z</time></trkpt><trkpt lat="43.077140071867085" lon="10.558768162053253"><ele>40.0</ele><time>2026-04-29T18:29:28.057Z</time></trkpt><trkpt lat="43.07741410352382" lon="10.558710242708166"><ele>40.0</ele><time>2026-04-29T18:29:29.057Z</time></trkpt><trkpt lat="43.077686021112285" lon="10.558652635994946"><ele>38.5</ele><time>2026-04-29T18:29:30.057Z</time></trkpt><trkpt lat="43.07795863264065" lon="10.558593369657975"><ele>37.0</ele><time>2026-04-29T18:29:31.057Z</time></trkpt><trkpt lat="43.07823015383546" lon="10.558534996371348"><ele>38.5</ele><time>2026-04-29T18:29:32.057Z</time></trkpt><trkpt lat="43.07849968774064" lon="10.558470959484744"><ele>40.0</ele><time>2026-04-29T18:29:33.057Z</time></trkpt><trkpt lat="43.07876562621874" lon="10.558399204082972"><ele>40.0</ele><time>2026-04-29T18:29:34.057Z</time></trkpt><trkpt lat="43.0790320919999" lon="10.558323340471068"><ele>40.0</ele><time>2026-04-29T18:29:35.057Z</time></trkpt><trkpt lat="43.079296441763965" lon="10.558242458675188"><ele>38.5</ele><time>2026-04-29T18:29:36.057Z</time></trkpt><trkpt lat="43.07956559227241" lon="10.558159928856348"><ele>37.0</ele><time>2026-04-29T18:29:37.057Z</time></trkpt><trkpt lat="43.0798330340697" lon="10.55806781631021"><ele>37.5</ele><time>2026-04-29T18:29:38.057Z</time></trkpt><trkpt lat="43.08009701032301" lon="10.557974962272025"><ele>38.0</ele><time>2026-04-29T18:29:39.057Z</time></trkpt><trkpt lat="43.08036403527414" lon="10.557884225689925"><ele>37.5</ele><time>2026-04-29T18:29:40.057Z</time></trkpt><trkpt lat="43.080631079730786" lon="10.557789314493535"><ele>37.0</ele><time>2026-04-29T18:29:41.057Z</time></trkpt><trkpt lat="43.08090169028882" lon="10.557689517793774"><ele>37.0</ele><time>2026-04-29T18:29:42.057Z</time></trkpt><trkpt lat="43.08116896812748" lon="10.557585119359436"><ele>37.0</ele><time>2026-04-29T18:29:43.057Z</time></trkpt><trkpt lat="43.08143494637775" lon="10.557480743494857"><ele>36.5</ele><time>2026-04-29T18:29:44.057Z</time></trkpt><trkpt lat="43.081697524085726" lon="10.557362540040367"><ele>36.0</ele><time>2026-04-29T18:29:45.057Z</time></trkpt><trkpt lat="43.0819601291831" lon="10.557240762553983"><ele>36.0</ele><time>2026-04-29T18:29:46.057Z</time></trkpt><trkpt lat="43.082226765381854" lon="10.557117011967735"><ele>36.0</ele><time>2026-04-29T18:29:47.057Z</time></trkpt><trkpt lat="43.08249119081408" lon="10.556988172078107"><ele>35.5</ele><time>2026-04-29T18:29:48.057Z</time></trkpt><trkpt lat="43.08275974066559" lon="10.556860115783385"><ele>35.0</ele><time>2026-04-29T18:29:49.057Z</time></trkpt><trkpt lat="43.08302256579805" lon="10.556726655799224"><ele>34.5</ele><time>2026-04-29T18:29:50.057Z</time></trkpt><trkpt lat="43.08328494982739" lon="10.556586992346045"><ele>34.0</ele><time>2026-04-29T18:29:51.057Z</time></trkpt><trkpt lat="43.08354690033807" lon="10.556442382969578"><ele>34.0</ele><time>2026-04-29T18:29:52.057Z</time></trkpt><trkpt lat="43.08381010258377" lon="10.556298427858838"><ele>34.0</ele><time>2026-04-29T18:29:53.057Z</time></trkpt><trkpt lat="43.084077737647796" lon="10.556152572434538"><ele>33.5</ele><time>2026-04-29T18:29:54.057Z</time></trkpt><trkpt lat="43.08435026643765" lon="10.55600496579599"><ele>33.0</ele><time>2026-04-29T18:29:55.057Z</time></trkpt><trkpt lat="43.08489003264091" lon="10.555705589880294"><ele>33.0</ele><time>2026-04-29T18:29:57.057Z</time></trkpt><trkpt lat="43.085164607188766" lon="10.555557424244622"><ele>33.0</ele><time>2026-04-29T18:29:58.057Z</time></trkpt><trkpt lat="43.085440340059606" lon="10.55540608650649"><ele>31.5</ele><time>2026-04-29T18:29:59.057Z</time></trkpt><trkpt lat="43.08571604367054" lon="10.555253930803037"><ele>30.0</ele><time>2026-04-29T18:30:00.057Z</time></trkpt><trkpt lat="43.08599305915559" lon="10.555104709934271"><ele>30.0</ele><time>2026-04-29T18:30:01.057Z</time></trkpt><trkpt lat="43.08627057885908" lon="10.554954297213303"><ele>30.0</ele><time>2026-04-29T18:30:02.057Z</time></trkpt><trkpt lat="43.08655017540866" lon="10.554803682778642"><ele>29.5</ele><time>2026-04-29T18:30:03.057Z</time></trkpt><trkpt lat="43.08682706527726" lon="10.554651301651242"><ele>29.0</ele><time>2026-04-29T18:30:04.057Z</time></trkpt><trkpt lat="43.08710583979266" lon="10.55450146445167"><ele>28.5</ele><time>2026-04-29T18:30:05.057Z</time></trkpt><trkpt lat="43.08738390013723" lon="10.554347533907697"><ele>28.0</ele><time>2026-04-29T18:30:06.057Z</time></trkpt><trkpt lat="43.08766292999675" lon="10.554191423659066"><ele>28.0</ele><time>2026-04-29T18:30:07.057Z</time></trkpt><trkpt lat="43.087943268040995" lon="10.554039352608257"><ele>28.0</ele><time>2026-04-29T18:30:08.057Z</time></trkpt><trkpt lat="43.088222857041494" lon="10.553884527585529"><ele>27.5</ele><time>2026-04-29T18:30:09.057Z</time></trkpt><trkpt lat="43.08850476309426" lon="10.55373078802097"><ele>27.0</ele><time>2026-04-29T18:30:10.058Z</time></trkpt><trkpt lat="43.08878762932889" lon="10.553578621805086"><ele>26.5</ele><time>2026-04-29T18:30:11.058Z</time></trkpt><trkpt lat="43.0890687781418" lon="10.553426569184401"><ele>26.0</ele><time>2026-04-29T18:30:12.058Z</time></trkpt><trkpt lat="43.089348194847446" lon="10.553274354533992"><ele>25.5</ele><time>2026-04-29T18:30:13.058Z</time></trkpt><trkpt lat="43.08962874336822" lon="10.553124067030051"><ele>25.0</ele><time>2026-04-29T18:30:14.058Z</time></trkpt><trkpt lat="43.08990456312562" lon="10.552973927010338"><ele>24.5</ele><time>2026-04-29T18:30:15.058Z</time></trkpt><trkpt lat="43.09018084542979" lon="10.552824640116988"><ele>24.0</ele><time>2026-04-29T18:30:16.058Z</time></trkpt><trkpt lat="43.09045289556607" lon="10.552674261728072"><ele>24.0</ele><time>2026-04-29T18:30:17.058Z</time></trkpt><trkpt lat="43.0907240140905" lon="10.552524551656132"><ele>24.0</ele><time>2026-04-29T18:30:18.058Z</time></trkpt><trkpt lat="43.090995525560714" lon="10.552379694140258"><ele>25.0</ele><time>2026-04-29T18:30:19.057Z</time></trkpt><trkpt lat="43.09126241653524" lon="10.552233867877886"><ele>26.0</ele><time>2026-04-29T18:30:20.058Z</time></trkpt><trkpt lat="43.09152704175234" lon="10.552090509429338"><ele>25.0</ele><time>2026-04-29T18:30:21.058Z</time></trkpt><trkpt lat="43.09178820536344" lon="10.551951659009402"><ele>24.0</ele><time>2026-04-29T18:30:22.058Z</time></trkpt><trkpt lat="43.09204962419974" lon="10.551810547804358"><ele>24.0</ele><time>2026-04-29T18:30:23.058Z</time></trkpt><trkpt lat="43.09230990425822" lon="10.551669320602445"><ele>24.0</ele><time>2026-04-29T18:30:24.058Z</time></trkpt><trkpt lat="43.09256638165525" lon="10.5515272077939"><ele>23.0</ele><time>2026-04-29T18:30:25.058Z</time></trkpt><trkpt lat="43.092820124520166" lon="10.551382649864795"><ele>22.0</ele><time>2026-04-29T18:30:26.058Z</time></trkpt><trkpt lat="43.09307829510964" lon="10.551241764542596"><ele>22.0</ele><time>2026-04-29T18:30:27.058Z</time></trkpt><trkpt lat="43.09333509754902" lon="10.551100032536352"><ele>22.0</ele><time>2026-04-29T18:30:28.058Z</time></trkpt><trkpt lat="43.09359034028682" lon="10.550961307961705"><ele>22.0</ele><time>2026-04-29T18:30:29.058Z</time></trkpt><trkpt lat="43.09384296491785" lon="10.550821949342756"><ele>22.0</ele><time>2026-04-29T18:30:30.058Z</time></trkpt><trkpt lat="43.09409936945855" lon="10.550684491608841"><ele>21.5</ele><time>2026-04-29T18:30:31.058Z</time></trkpt><trkpt lat="43.09435520696328" lon="10.550541994413903"><ele>21.0</ele><time>2026-04-29T18:30:32.058Z</time></trkpt><trkpt lat="43.094615868477966" lon="10.550403185207722"><ele>21.0</ele><time>2026-04-29T18:30:33.058Z</time></trkpt><trkpt lat="43.09487780312987" lon="10.550262676759646"><ele>21.0</ele><time>2026-04-29T18:30:34.058Z</time></trkpt><trkpt lat="43.095136997230576" lon="10.550119179572423"><ele>21.0</ele><time>2026-04-29T18:30:35.058Z</time></trkpt><trkpt lat="43.09539606146076" lon="10.549979318455891"><ele>21.0</ele><time>2026-04-29T18:30:36.058Z</time></trkpt><trkpt lat="43.095654585667425" lon="10.549844390297801"><ele>22.5</ele><time>2026-04-29T18:30:37.058Z</time></trkpt><trkpt lat="43.095914775363795" lon="10.54971654784699"><ele>24.0</ele><time>2026-04-29T18:30:38.058Z</time></trkpt><trkpt lat="43.09617824011931" lon="10.549596940755992"><ele>23.0</ele><time>2026-04-29T18:30:39.058Z</time></trkpt><trkpt lat="43.09644047170122" lon="10.549478792326056"><ele>22.0</ele><time>2026-04-29T18:30:40.058Z</time></trkpt><trkpt lat="43.096707431190815" lon="10.549365765691133"><ele>24.5</ele><time>2026-04-29T18:30:41.058Z</time></trkpt><trkpt lat="43.09697582411344" lon="10.549257715072802"><ele>27.0</ele><time>2026-04-29T18:30:42.058Z</time></trkpt><trkpt lat="43.09724037294177" lon="10.549150938792407"><ele>30.5</ele><time>2026-04-29T18:30:43.058Z</time></trkpt><trkpt lat="43.09750418028642" lon="10.549043367714683"><ele>34.0</ele><time>2026-04-29T18:30:44.058Z</time></trkpt><trkpt lat="43.09777006273697" lon="10.548944947302095"><ele>34.0</ele><time>2026-04-29T18:30:45.058Z</time></trkpt><trkpt lat="43.098044747344446" lon="10.548844744238034"><ele>34.0</ele><time>2026-04-29T18:30:46.058Z</time></trkpt><trkpt lat="43.09831252463674" lon="10.548742802485572"><ele>35.5</ele><time>2026-04-29T18:30:47.058Z</time></trkpt><trkpt lat="43.098581360859065" lon="10.5486514756357"><ele>37.0</ele><time>2026-04-29T18:30:48.058Z</time></trkpt><trkpt lat="43.098853287966804" lon="10.548561070775436"><ele>40.0</ele><time>2026-04-29T18:30:49.058Z</time></trkpt><trkpt lat="43.099124754409935" lon="10.548467216858471"><ele>43.0</ele><time>2026-04-29T18:30:50.058Z</time></trkpt><trkpt lat="43.09939314455535" lon="10.548369890414392"><ele>43.0</ele><time>2026-04-29T18:30:51.058Z</time></trkpt><trkpt lat="43.09966622476054" lon="10.548272892712324"><ele>43.0</ele><time>2026-04-29T18:30:52.058Z</time></trkpt><trkpt lat="43.09993990773271" lon="10.548173551024094"><ele>48.0</ele><time>2026-04-29T18:30:53.058Z</time></trkpt><trkpt lat="43.10021984289058" lon="10.548076952810115"><ele>53.0</ele><time>2026-04-29T18:30:54.058Z</time></trkpt><trkpt lat="43.10041542611087" lon="10.54796568183029"><ele>55.0</ele><time>2026-04-29T18:30:55.058Z</time></trkpt><trkpt lat="43.10071362157595" lon="10.547854959514673"><ele>57.0</ele><time>2026-04-29T18:30:56.2Z</time></trkpt><trkpt lat="43.105749557852626" lon="10.546589209802766"><ele>40.5</ele><time>2026-04-29T18:31:12.058Z</time></trkpt><trkpt lat="43.105940809662236" lon="10.54650256511428"><ele>24.0</ele><time>2026-04-29T18:31:13.058Z</time></trkpt><trkpt lat="43.10628918755752" lon="10.546459799208094"><ele>24.0</ele><time>2026-04-29T18:31:14.058Z</time></trkpt><trkpt lat="43.106570091759565" lon="10.546420220167091"><ele>24.0</ele><time>2026-04-29T18:31:15.058Z</time></trkpt><trkpt lat="43.10684268980946" lon="10.546335568345924"><ele>20.5</ele><time>2026-04-29T18:31:16.058Z</time></trkpt><trkpt lat="43.10712157099454" lon="10.546259248539165"><ele>17.0</ele><time>2026-04-29T18:31:17.058Z</time></trkpt><trkpt lat="43.1073966790121" lon="10.546178483636773"><ele>16.5</ele><time>2026-04-29T18:31:18.058Z</time></trkpt><trkpt lat="43.10766991890183" lon="10.546096748445475"><ele>16.0</ele><time>2026-04-29T18:31:19.058Z</time></trkpt><trkpt lat="43.10794727923691" lon="10.546014077763184"><ele>16.0</ele><time>2026-04-29T18:31:20.058Z</time></trkpt><trkpt lat="43.10822726704478" lon="10.545936035939967"><ele>16.0</ele><time>2026-04-29T18:31:21.058Z</time></trkpt><trkpt lat="43.10850860597366" lon="10.545859929226607"><ele>15.0</ele><time>2026-04-29T18:31:22.058Z</time></trkpt><trkpt lat="43.10878978606548" lon="10.545783794465992"><ele>14.0</ele><time>2026-04-29T18:31:23.058Z</time></trkpt><trkpt lat="43.10907112328273" lon="10.545710217578852"><ele>17.5</ele><time>2026-04-29T18:31:24.058Z</time></trkpt><trkpt lat="43.109354211795626" lon="10.545646590123601"><ele>21.0</ele><time>2026-04-29T18:31:25.058Z</time></trkpt><trkpt lat="43.10963620913742" lon="10.545593811357694"><ele>26.5</ele><time>2026-04-29T18:31:26.058Z</time></trkpt><trkpt lat="43.10991940683305" lon="10.545538240906504"><ele>32.0</ele><time>2026-04-29T18:31:27.058Z</time></trkpt><trkpt lat="43.11019931959181" lon="10.54548431864812"><ele>32.0</ele><time>2026-04-29T18:31:28.058Z</time></trkpt><trkpt lat="43.110476269882916" lon="10.545438386965367"><ele>32.0</ele><time>2026-04-29T18:31:29.058Z</time></trkpt><trkpt lat="43.110751125761205" lon="10.545390494471818"><ele>27.0</ele><time>2026-04-29T18:31:30.058Z</time></trkpt><trkpt lat="43.111022060105704" lon="10.545352661488243"><ele>22.0</ele><time>2026-04-29T18:31:31.058Z</time></trkpt><trkpt lat="43.11130020027796" lon="10.545323445686982"><ele>20.5</ele><time>2026-04-29T18:31:32.058Z</time></trkpt><trkpt lat="43.11157850121884" lon="10.545295868485226"><ele>19.0</ele><time>2026-04-29T18:31:33.058Z</time></trkpt><trkpt lat="43.11186212170094" lon="10.545270056770336"><ele>19.0</ele><time>2026-04-29T18:31:34.058Z</time></trkpt><trkpt lat="43.11214551523226" lon="10.5452425724336"><ele>19.0</ele><time>2026-04-29T18:31:35.058Z</time></trkpt><trkpt lat="43.11242842905614" lon="10.545212543715667"><ele>17.5</ele><time>2026-04-29T18:31:36.058Z</time></trkpt><trkpt lat="43.11271248258302" lon="10.545179789230799"><ele>16.0</ele><time>2026-04-29T18:31:37.058Z</time></trkpt><trkpt lat="43.11299650702409" lon="10.545150493452864"><ele>14.5</ele><time>2026-04-29T18:31:38.058Z</time></trkpt><trkpt lat="43.113279213554925" lon="10.545116703234878"><ele>13.0</ele><time>2026-04-29T18:31:39.058Z</time></trkpt><trkpt lat="43.113562762704966" lon="10.545086891269085"><ele>13.0</ele><time>2026-04-29T18:31:40.058Z</time></trkpt><trkpt lat="43.113845261370464" lon="10.54505843062928"><ele>13.0</ele><time>2026-04-29T18:31:41.058Z</time></trkpt><trkpt lat="43.11412836975606" lon="10.545026569802818"><ele>13.5</ele><time>2026-04-29T18:31:42.058Z</time></trkpt><trkpt lat="43.114413322699164" lon="10.544995196617919"><ele>14.0</ele><time>2026-04-29T18:31:43.058Z</time></trkpt><trkpt lat="43.114696358803094" lon="10.544962476839078"><ele>13.0</ele><time>2026-04-29T18:31:44.058Z</time></trkpt><trkpt lat="43.114979194425004" lon="10.544932270748562"><ele>12.0</ele><time>2026-04-29T18:31:45.058Z</time></trkpt><trkpt lat="43.11526471000489" lon="10.544899658558265"><ele>12.0</ele><time>2026-04-29T18:31:46.058Z</time></trkpt><trkpt lat="43.11554744433162" lon="10.544866725070989"><ele>12.0</ele><time>2026-04-29T18:31:47.058Z</time></trkpt><trkpt lat="43.115830198376074" lon="10.544838451081123"><ele>12.0</ele><time>2026-04-29T18:31:48.058Z</time></trkpt><trkpt lat="43.11611374613844" lon="10.544808058405316"><ele>12.0</ele><time>2026-04-29T18:31:49.058Z</time></trkpt><trkpt lat="43.116396915481" lon="10.544777457791332"><ele>11.0</ele><time>2026-04-29T18:31:50.058Z</time></trkpt><trkpt lat="43.116678577540895" lon="10.54474461282663"><ele>10.0</ele><time>2026-04-29T18:31:51.058Z</time></trkpt><trkpt lat="43.11696046748418" lon="10.544717398574866"><ele>10.0</ele><time>2026-04-29T18:31:52.058Z</time></trkpt><trkpt lat="43.11724345078123" lon="10.544689025621519"><ele>10.0</ele><time>2026-04-29T18:31:53.058Z</time></trkpt><trkpt lat="43.11752653176063" lon="10.544657485195563"><ele>11.5</ele><time>2026-04-29T18:31:54.058Z</time></trkpt><trkpt lat="43.11780802005121" lon="10.544629964220032"><ele>13.0</ele><time>2026-04-29T18:31:55.058Z</time></trkpt><trkpt lat="43.1180889885689" lon="10.544610188534426"><ele>12.5</ele><time>2026-04-29T18:31:56.058Z</time></trkpt><trkpt lat="43.11837151238105" lon="10.544596431129213"><ele>12.0</ele><time>2026-04-29T18:31:57.058Z</time></trkpt><trkpt lat="43.11865601493793" lon="10.544584555368337"><ele>12.0</ele><time>2026-04-29T18:31:58.058Z</time></trkpt><trkpt lat="43.1189408008207" lon="10.544583139472353"><ele>12.0</ele><time>2026-04-29T18:31:59.058Z</time></trkpt><trkpt lat="43.119223889247365" lon="10.544591481311679"><ele>12.5</ele><time>2026-04-29T18:32:00.058Z</time></trkpt><trkpt lat="43.11951393859883" lon="10.544605626971231"><ele>13.0</ele><time>2026-04-29T18:32:01.058Z</time></trkpt><trkpt lat="43.119789258444285" lon="10.544621504969088"><ele>12.5</ele><time>2026-04-29T18:32:02.058Z</time></trkpt><trkpt lat="43.1200712925521" lon="10.544644844799157"><ele>12.0</ele><time>2026-04-29T18:32:03.058Z</time></trkpt><trkpt lat="43.12035217888678" lon="10.54467561097931"><ele>12.0</ele><time>2026-04-29T18:32:04.058Z</time></trkpt><trkpt lat="43.12063001329077" lon="10.544716718620087"><ele>12.0</ele><time>2026-04-29T18:32:05.058Z</time></trkpt><trkpt lat="43.12090825289103" lon="10.54477122136903"><ele>11.0</ele><time>2026-04-29T18:32:06.058Z</time></trkpt><trkpt lat="43.12118448714216" lon="10.544830569705336"><ele>10.0</ele><time>2026-04-29T18:32:07.058Z</time></trkpt><trkpt lat="43.12145686612996" lon="10.544895039482476"><ele>10.0</ele><time>2026-04-29T18:32:08.058Z</time></trkpt><trkpt lat="43.121729280524086" lon="10.544969432835737"><ele>10.0</ele><time>2026-04-29T18:32:09.058Z</time></trkpt><trkpt lat="43.1220014875847" lon="10.545052407713214"><ele>10.0</ele><time>2026-04-29T18:32:10.058Z</time></trkpt><trkpt lat="43.122271589230614" lon="10.545147234107127"><ele>10.0</ele><time>2026-04-29T18:32:11.058Z</time></trkpt><trkpt lat="43.12253973715418" lon="10.545244448543407"><ele>10.0</ele><time>2026-04-29T18:32:12.058Z</time></trkpt><trkpt lat="43.1228106890445" lon="10.545350367029183"><ele>10.0</ele><time>2026-04-29T18:32:13.058Z</time></trkpt><trkpt lat="43.123077513277636" lon="10.54545967063756"><ele>10.0</ele><time>2026-04-29T18:32:14.058Z</time></trkpt><trkpt lat="43.12334608528239" lon="10.545572027166834"><ele>10.0</ele><time>2026-04-29T18:32:15.058Z</time></trkpt><trkpt lat="43.12361390909027" lon="10.545687704017293"><ele>10.0</ele><time>2026-04-29T18:32:16.06Z</time></trkpt><trkpt lat="43.123884511398074" lon="10.545804107607221"><ele>10.0</ele><time>2026-04-29T18:32:17.059Z</time></trkpt><trkpt lat="43.12415641979988" lon="10.545918220637768"><ele>9.0</ele><time>2026-04-29T18:32:18.059Z</time></trkpt><trkpt lat="43.124427957584366" lon="10.54603144427795"><ele>8.0</ele><time>2026-04-29T18:32:19.06Z</time></trkpt><trkpt lat="43.12469942255469" lon="10.546145240301524"><ele>8.0</ele><time>2026-04-29T18:32:20.059Z</time></trkpt><trkpt lat="43.124971315647294" lon="10.546259421999164"><ele>8.0</ele><time>2026-04-29T18:32:21.059Z</time></trkpt><trkpt lat="43.1252466247312" lon="10.546372986513035"><ele>8.0</ele><time>2026-04-29T18:32:22.059Z</time></trkpt><trkpt lat="43.125520374640864" lon="10.546487498970109"><ele>8.0</ele><time>2026-04-29T18:32:23.06Z</time></trkpt><trkpt lat="43.125794529625445" lon="10.546602500316997"><ele>9.0</ele><time>2026-04-29T18:32:24.06Z</time></trkpt><trkpt lat="43.12607283088912" lon="10.546720293977957"><ele>10.0</ele><time>2026-04-29T18:32:25.06Z</time></trkpt><trkpt lat="43.12634711395213" lon="10.54683682077997"><ele>10.0</ele><time>2026-04-29T18:32:26.06Z</time></trkpt><trkpt lat="43.12662666513226" lon="10.546952838331537"><ele>10.0</ele><time>2026-04-29T18:32:27.06Z</time></trkpt><trkpt lat="43.1269063606762" lon="10.54706756125155"><ele>10.0</ele><time>2026-04-29T18:32:28.06Z</time></trkpt><trkpt lat="43.12718571699866" lon="10.547187270452373"><ele>10.0</ele><time>2026-04-29T18:32:29.059Z</time></trkpt><trkpt lat="43.12746615913608" lon="10.547303534699829"><ele>10.0</ele><time>2026-04-29T18:32:30.059Z</time></trkpt><trkpt lat="43.12774474794622" lon="10.547419832605735"><ele>10.0</ele><time>2026-04-29T18:32:31.059Z</time></trkpt><trkpt lat="43.128026752917926" lon="10.547537755471238"><ele>10.0</ele><time>2026-04-29T18:32:32.059Z</time></trkpt><trkpt lat="43.12830449638503" lon="10.547655876543013"><ele>10.0</ele><time>2026-04-29T18:32:33.059Z</time></trkpt><trkpt lat="43.12858460798983" lon="10.547775053251902"><ele>11.0</ele><time>2026-04-29T18:32:34.059Z</time></trkpt><trkpt lat="43.12886498345511" lon="10.547893232821135"><ele>12.0</ele><time>2026-04-29T18:32:35.059Z</time></trkpt><trkpt lat="43.129145320568256" lon="10.54800928423365"><ele>12.0</ele><time>2026-04-29T18:32:36.059Z</time></trkpt><trkpt lat="43.129424707046454" lon="10.54812295191186"><ele>12.0</ele><time>2026-04-29T18:32:37.059Z</time></trkpt><trkpt lat="43.129703374215474" lon="10.548232692847147"><ele>12.0</ele><time>2026-04-29T18:32:38.059Z</time></trkpt><trkpt lat="43.12998195572643" lon="10.548338276476738"><ele>12.0</ele><time>2026-04-29T18:32:39.059Z</time></trkpt><trkpt lat="43.13026016219952" lon="10.548438093339419"><ele>12.0</ele><time>2026-04-29T18:32:40.059Z</time></trkpt><trkpt lat="43.130540248298004" lon="10.548537753448587"><ele>12.0</ele><time>2026-04-29T18:32:41.059Z</time></trkpt><trkpt lat="43.130816565651806" lon="10.548638792138938"><ele>12.0</ele><time>2026-04-29T18:32:42.059Z</time></trkpt><trkpt lat="43.13109536237834" lon="10.548733353253356"><ele>12.0</ele><time>2026-04-29T18:32:43.059Z</time></trkpt><trkpt lat="43.131374377787864" lon="10.548823577240801"><ele>12.0</ele><time>2026-04-29T18:32:44.059Z</time></trkpt><trkpt lat="43.13165367032856" lon="10.548912256860605"><ele>12.0</ele><time>2026-04-29T18:32:45.059Z</time></trkpt><trkpt lat="43.13193540777572" lon="10.548999205636898"><ele>12.0</ele><time>2026-04-29T18:32:46.059Z</time></trkpt><trkpt lat="43.13221512859559" lon="10.549080572452176"><ele>12.0</ele><time>2026-04-29T18:32:47.059Z</time></trkpt><trkpt lat="43.1324945254652" lon="10.549160864245259"><ele>11.5</ele><time>2026-04-29T18:32:48.059Z</time></trkpt><trkpt lat="43.13277560975966" lon="10.549245578963127"><ele>11.0</ele><time>2026-04-29T18:32:49.059Z</time></trkpt><trkpt lat="43.13305515819313" lon="10.549329845739777"><ele>10.5</ele><time>2026-04-29T18:32:50.059Z</time></trkpt><trkpt lat="43.13333510743488" lon="10.549413753101046"><ele>10.0</ele><time>2026-04-29T18:32:51.059Z</time></trkpt><trkpt lat="43.133614587432376" lon="10.549498277417024"><ele>11.0</ele><time>2026-04-29T18:32:52.059Z</time></trkpt><trkpt lat="43.133895047964614" lon="10.549580590187718"><ele>12.0</ele><time>2026-04-29T18:32:53.059Z</time></trkpt><trkpt lat="43.13417461821299" lon="10.549666789631402"><ele>12.0</ele><time>2026-04-29T18:32:54.059Z</time></trkpt><trkpt lat="43.134455583576" lon="10.549750109590816"><ele>12.0</ele><time>2026-04-29T18:32:55.059Z</time></trkpt><trkpt lat="43.134735313503086" lon="10.549829730047358"><ele>11.5</ele><time>2026-04-29T18:32:56.059Z</time></trkpt><trkpt lat="43.13501548071814" lon="10.54991382093925"><ele>11.0</ele><time>2026-04-29T18:32:57.059Z</time></trkpt><trkpt lat="43.13529605414999" lon="10.549996419822003"><ele>11.0</ele><time>2026-04-29T18:32:58.059Z</time></trkpt><trkpt lat="43.13557687200271" lon="10.550077576261533"><ele>11.0</ele><time>2026-04-29T18:32:59.059Z</time></trkpt><trkpt lat="43.13585627708917" lon="10.55016130217199"><ele>11.0</ele><time>2026-04-29T18:33:00.059Z</time></trkpt><trkpt lat="43.136133747810305" lon="10.550245740508275"><ele>11.0</ele><time>2026-04-29T18:33:01.059Z</time></trkpt><trkpt lat="43.136411882876" lon="10.550329191348276"><ele>11.5</ele><time>2026-04-29T18:33:02.059Z</time></trkpt><trkpt lat="43.13668835467015" lon="10.550412357942772"><ele>12.0</ele><time>2026-04-29T18:33:03.059Z</time></trkpt><trkpt lat="43.136964972373335" lon="10.55049643559245"><ele>12.0</ele><time>2026-04-29T18:33:04.059Z</time></trkpt><trkpt lat="43.13724126658436" lon="10.550579400429067"><ele>12.0</ele><time>2026-04-29T18:33:05.059Z</time></trkpt><trkpt lat="43.13751642216538" lon="10.550658712166609"><ele>12.0</ele><time>2026-04-29T18:33:06.059Z</time></trkpt><trkpt lat="43.137791645791324" lon="10.550745039549192"><ele>12.0</ele><time>2026-04-29T18:33:07.059Z</time></trkpt><trkpt lat="43.13806439863475" lon="10.55083022532198"><ele>13.0</ele><time>2026-04-29T18:33:08.059Z</time></trkpt><trkpt lat="43.138339088347195" lon="10.550915367710992"><ele>14.0</ele><time>2026-04-29T18:33:09.059Z</time></trkpt><trkpt lat="43.13861363427286" lon="10.550995721022646"><ele>14.0</ele><time>2026-04-29T18:33:10.059Z</time></trkpt><trkpt lat="43.138887757708964" lon="10.55107742435165"><ele>14.0</ele><time>2026-04-29T18:33:11.059Z</time></trkpt><trkpt lat="43.139165480265575" lon="10.551158643771174"><ele>14.5</ele><time>2026-04-29T18:33:12.059Z</time></trkpt><trkpt lat="43.13943868839182" lon="10.551240919820893"><ele>15.0</ele><time>2026-04-29T18:33:13.059Z</time></trkpt><trkpt lat="43.13971160035369" lon="10.551335147097102"><ele>14.0</ele><time>2026-04-29T18:33:14.059Z</time></trkpt><trkpt lat="43.13998282818136" lon="10.551433381185596"><ele>13.0</ele><time>2026-04-29T18:33:15.059Z</time></trkpt><trkpt lat="43.140253660460125" lon="10.551531472542662"><ele>13.0</ele><time>2026-04-29T18:33:16.059Z</time></trkpt><trkpt lat="43.1405256353438" lon="10.551634237551243"><ele>13.0</ele><time>2026-04-29T18:33:17.059Z</time></trkpt><trkpt lat="43.140796884943576" lon="10.551737014101622"><ele>13.0</ele><time>2026-04-29T18:33:18.059Z</time></trkpt><trkpt lat="43.141067010629136" lon="10.551831480183509"><ele>13.0</ele><time>2026-04-29T18:33:19.059Z</time></trkpt><trkpt lat="43.1413418858235" lon="10.551939988880285"><ele>13.5</ele><time>2026-04-29T18:33:20.059Z</time></trkpt><trkpt lat="43.14161722338987" lon="10.552056136358672"><ele>14.0</ele><time>2026-04-29T18:33:21.059Z</time></trkpt><trkpt lat="43.14188571912709" lon="10.552174982937562"><ele>14.0</ele><time>2026-04-29T18:33:22.059Z</time></trkpt><trkpt lat="43.14215646508147" lon="10.552291684601443"><ele>14.0</ele><time>2026-04-29T18:33:23.059Z</time></trkpt><trkpt lat="43.142428460013555" lon="10.552414851022359"><ele>14.0</ele><time>2026-04-29T18:33:24.059Z</time></trkpt><trkpt lat="43.142700302667684" lon="10.552543002688285"><ele>14.0</ele><time>2026-04-29T18:33:25.059Z</time></trkpt><trkpt lat="43.142969626094185" lon="10.552671818621858"><ele>13.5</ele><time>2026-04-29T18:33:26.059Z</time></trkpt><trkpt lat="43.14323971660007" lon="10.552800760736464"><ele>13.0</ele><time>2026-04-29T18:33:27.059Z</time></trkpt><trkpt lat="43.14351276296011" lon="10.552925669624374"><ele>13.0</ele><time>2026-04-29T18:33:28.059Z</time></trkpt><trkpt lat="43.143782442725154" lon="10.553051781839068"><ele>13.0</ele><time>2026-04-29T18:33:29.059Z</time></trkpt><trkpt lat="43.14405307618244" lon="10.553176136349943"><ele>12.0</ele><time>2026-04-29T18:33:30.059Z</time></trkpt><trkpt lat="43.14432541184326" lon="10.553302586078651"><ele>11.0</ele><time>2026-04-29T18:33:31.059Z</time></trkpt><trkpt lat="43.14459839705842" lon="10.553427171821273"><ele>11.0</ele><time>2026-04-29T18:33:32.059Z</time></trkpt><trkpt lat="43.1448713522287" lon="10.55355134200899"><ele>11.0</ele><time>2026-04-29T18:33:33.059Z</time></trkpt><trkpt lat="43.14514508501562" lon="10.553685241707576"><ele>12.0</ele><time>2026-04-29T18:33:34.059Z</time></trkpt><trkpt lat="43.14541588114055" lon="10.553810450578029"><ele>13.0</ele><time>2026-04-29T18:33:35.059Z</time></trkpt><trkpt lat="43.14568488659502" lon="10.553938198643584"><ele>13.5</ele><time>2026-04-29T18:33:36.059Z</time></trkpt><trkpt lat="43.14595310128972" lon="10.55406401041029"><ele>14.0</ele><time>2026-04-29T18:33:37.059Z</time></trkpt><trkpt lat="43.146224890574864" lon="10.554193274886778"><ele>14.0</ele><time>2026-04-29T18:33:38.059Z</time></trkpt><trkpt lat="43.14649364972135" lon="10.55431321146958"><ele>14.0</ele><time>2026-04-29T18:33:39.059Z</time></trkpt><trkpt lat="43.14676094851091" lon="10.55442773697785"><ele>13.5</ele><time>2026-04-29T18:33:40.059Z</time></trkpt><trkpt lat="43.14702977339225" lon="10.554537063335884"><ele>13.0</ele><time>2026-04-29T18:33:41.059Z</time></trkpt><trkpt lat="43.14729740922128" lon="10.554643117048498"><ele>13.5</ele><time>2026-04-29T18:33:42.059Z</time></trkpt><trkpt lat="43.14756673150728" lon="10.554749773268155"><ele>14.0</ele><time>2026-04-29T18:33:43.059Z</time></trkpt><trkpt lat="43.14783617472041" lon="10.554851946291597"><ele>14.0</ele><time>2026-04-29T18:33:44.059Z</time></trkpt><trkpt lat="43.14811117575023" lon="10.55494859400547"><ele>14.0</ele><time>2026-04-29T18:33:45.059Z</time></trkpt><trkpt lat="43.14838548228843" lon="10.555050890332106"><ele>13.0</ele><time>2026-04-29T18:33:46.059Z</time></trkpt><trkpt lat="43.148662726215235" lon="10.55515166407671"><ele>12.0</ele><time>2026-04-29T18:33:47.059Z</time></trkpt><trkpt lat="43.14893960104138" lon="10.555249638008162"><ele>12.5</ele><time>2026-04-29T18:33:48.059Z</time></trkpt><trkpt lat="43.14921465490168" lon="10.555335167489904"><ele>13.0</ele><time>2026-04-29T18:33:49.059Z</time></trkpt><trkpt lat="43.149498110558234" lon="10.555433042895052"><ele>13.0</ele><time>2026-04-29T18:33:50.059Z</time></trkpt><trkpt lat="43.14977834688964" lon="10.555519296018499"><ele>13.0</ele><time>2026-04-29T18:33:51.059Z</time></trkpt><trkpt lat="43.15005915548475" lon="10.555607993613778"><ele>13.5</ele><time>2026-04-29T18:33:52.059Z</time></trkpt><trkpt lat="43.150339549142416" lon="10.555696456851907"><ele>14.0</ele><time>2026-04-29T18:33:53.059Z</time></trkpt><trkpt lat="43.150621646870796" lon="10.555789405296201"><ele>14.0</ele><time>2026-04-29T18:33:54.059Z</time></trkpt><trkpt lat="43.15090290374521" lon="10.555879835009435"><ele>14.0</ele><time>2026-04-29T18:33:55.059Z</time></trkpt><trkpt lat="43.15118455344146" lon="10.555971700507179"><ele>14.0</ele><time>2026-04-29T18:33:56.059Z</time></trkpt><trkpt lat="43.15146476899928" lon="10.556065654304582"><ele>14.0</ele><time>2026-04-29T18:33:57.059Z</time></trkpt><trkpt lat="43.1517414663264" lon="10.556154635923592"><ele>15.0</ele><time>2026-04-29T18:33:58.059Z</time></trkpt><trkpt lat="43.152019514431245" lon="10.556246019544805"><ele>16.0</ele><time>2026-04-29T18:33:59.059Z</time></trkpt><trkpt lat="43.152297482731846" lon="10.556337191734752"><ele>15.5</ele><time>2026-04-29T18:34:00.059Z</time></trkpt><trkpt lat="43.152579938562404" lon="10.55642711069725"><ele>15.0</ele><time>2026-04-29T18:34:01.059Z</time></trkpt><trkpt lat="43.152856875627435" lon="10.556518466509953"><ele>15.0</ele><time>2026-04-29T18:34:02.059Z</time></trkpt><trkpt lat="43.15313288838345" lon="10.55660665675384"><ele>15.0</ele><time>2026-04-29T18:34:03.059Z</time></trkpt><trkpt lat="43.153412823665086" lon="10.556702782231115"><ele>14.0</ele><time>2026-04-29T18:34:04.059Z</time></trkpt><trkpt lat="43.15369047370867" lon="10.556797417540208"><ele>13.0</ele><time>2026-04-29T18:34:05.059Z</time></trkpt><trkpt lat="43.15396858844631" lon="10.556887114501693"><ele>14.0</ele><time>2026-04-29T18:34:06.059Z</time></trkpt><trkpt lat="43.15424742454069" lon="10.55697822349058"><ele>15.0</ele><time>2026-04-29T18:34:07.059Z</time></trkpt><trkpt lat="43.15452581930076" lon="10.557065961761348"><ele>15.0</ele><time>2026-04-29T18:34:08.059Z</time></trkpt><trkpt lat="43.15480490970922" lon="10.55715873126659"><ele>15.0</ele><time>2026-04-29T18:34:09.059Z</time></trkpt><trkpt lat="43.15508214474398" lon="10.55724933773757"><ele>15.0</ele><time>2026-04-29T18:34:10.059Z</time></trkpt><trkpt lat="43.155362426034166" lon="10.5573471356926"><ele>15.0</ele><time>2026-04-29T18:34:11.059Z</time></trkpt><trkpt lat="43.15563716922268" lon="10.55743495194469"><ele>14.0</ele><time>2026-04-29T18:34:12.059Z</time></trkpt><trkpt lat="43.155909539687094" lon="10.557525030327824"><ele>13.0</ele><time>2026-04-29T18:34:13.059Z</time></trkpt><trkpt lat="43.156180487138066" lon="10.557619376215452"><ele>13.0</ele><time>2026-04-29T18:34:14.059Z</time></trkpt><trkpt lat="43.15645197372027" lon="10.55771866328432"><ele>13.0</ele><time>2026-04-29T18:34:15.059Z</time></trkpt><trkpt lat="43.15672281721136" lon="10.557822188208387"><ele>13.5</ele><time>2026-04-29T18:34:16.059Z</time></trkpt><trkpt lat="43.156993743306494" lon="10.557926758839344"><ele>14.0</ele><time>2026-04-29T18:34:17.059Z</time></trkpt><trkpt lat="43.15726293719178" lon="10.558034492978809"><ele>14.0</ele><time>2026-04-29T18:34:18.059Z</time></trkpt><trkpt lat="43.15753049439728" lon="10.558145425854041"><ele>14.0</ele><time>2026-04-29T18:34:19.059Z</time></trkpt><trkpt lat="43.15780028499844" lon="10.558258575510363"><ele>14.0</ele><time>2026-04-29T18:34:20.059Z</time></trkpt><trkpt lat="43.15806796546526" lon="10.558383836083344"><ele>14.0</ele><time>2026-04-29T18:34:21.059Z</time></trkpt><trkpt lat="43.158338437300536" lon="10.55851219598955"><ele>14.0</ele><time>2026-04-29T18:34:22.062Z</time></trkpt><trkpt lat="43.158604931179994" lon="10.558642521524568"><ele>14.0</ele><time>2026-04-29T18:34:23.062Z</time></trkpt><trkpt lat="43.15887405787695" lon="10.558776751776238"><ele>14.0</ele><time>2026-04-29T18:34:24.062Z</time></trkpt><trkpt lat="43.15914374734446" lon="10.558916025670781"><ele>14.0</ele><time>2026-04-29T18:34:25.062Z</time></trkpt><trkpt lat="43.15940967332884" lon="10.5590581048977"><ele>14.0</ele><time>2026-04-29T18:34:26.062Z</time></trkpt><trkpt lat="43.15967837214437" lon="10.559208973537705"><ele>14.0</ele><time>2026-04-29T18:34:27.062Z</time></trkpt><trkpt lat="43.15994104168155" lon="10.559360123704593"><ele>14.5</ele><time>2026-04-29T18:34:28.062Z</time></trkpt><trkpt lat="43.16020331566177" lon="10.559506994279944"><ele>15.0</ele><time>2026-04-29T18:34:29.062Z</time></trkpt><trkpt lat="43.16046820044463" lon="10.55965960706724"><ele>15.5</ele><time>2026-04-29T18:34:30.062Z</time></trkpt><trkpt lat="43.160732461985916" lon="10.559806991050849"><ele>16.0</ele><time>2026-04-29T18:34:31.062Z</time></trkpt><trkpt lat="43.16099570191022" lon="10.559956240069733"><ele>16.0</ele><time>2026-04-29T18:34:32.062Z</time></trkpt><trkpt lat="43.16125826135775" lon="10.560103805985808"><ele>16.0</ele><time>2026-04-29T18:34:33.062Z</time></trkpt><trkpt lat="43.161520935375414" lon="10.560253722982367"><ele>16.0</ele><time>2026-04-29T18:34:34.062Z</time></trkpt><trkpt lat="43.1617865560618" lon="10.56040210307652"><ele>16.0</ele><time>2026-04-29T18:34:35.062Z</time></trkpt><trkpt lat="43.16205202881644" lon="10.560550427315972"><ele>16.0</ele><time>2026-04-29T18:34:36.062Z</time></trkpt><trkpt lat="43.16231669161241" lon="10.560694617957658"><ele>16.0</ele><time>2026-04-29T18:34:37.062Z</time></trkpt><trkpt lat="43.16257961586564" lon="10.560843064830255"><ele>16.5</ele><time>2026-04-29T18:34:38.062Z</time></trkpt><trkpt lat="43.16284471994669" lon="10.560988052955313"><ele>17.0</ele><time>2026-04-29T18:34:39.062Z</time></trkpt><trkpt lat="43.163109113701466" lon="10.561129506641233"><ele>17.5</ele><time>2026-04-29T18:34:40.062Z</time></trkpt><trkpt lat="43.16337594444564" lon="10.561266719357812"><ele>18.0</ele><time>2026-04-29T18:34:41.062Z</time></trkpt><trkpt lat="43.16364511324684" lon="10.56139999991254"><ele>18.0</ele><time>2026-04-29T18:34:42.062Z</time></trkpt><trkpt lat="43.16391357975447" lon="10.56152731227652"><ele>18.0</ele><time>2026-04-29T18:34:43.062Z</time></trkpt><trkpt lat="43.164184935337836" lon="10.56165066847102"><ele>17.5</ele><time>2026-04-29T18:34:44.062Z</time></trkpt><trkpt lat="43.16445666499858" lon="10.561769329778283"><ele>17.0</ele><time>2026-04-29T18:34:45.062Z</time></trkpt><trkpt lat="43.16471926778225" lon="10.561877629253496"><ele>16.5</ele><time>2026-04-29T18:34:46.062Z</time></trkpt><trkpt lat="43.1649830400938" lon="10.561984700175554"><ele>16.0</ele><time>2026-04-29T18:34:47.062Z</time></trkpt><trkpt lat="43.165250193797554" lon="10.562086406421713"><ele>17.0</ele><time>2026-04-29T18:34:48.062Z</time></trkpt><trkpt lat="43.16551454411636" lon="10.562181013836714"><ele>18.0</ele><time>2026-04-29T18:34:49.062Z</time></trkpt><trkpt lat="43.165783177727214" lon="10.562273992063755"><ele>18.0</ele><time>2026-04-29T18:34:50.062Z</time></trkpt><trkpt lat="43.16605099984061" lon="10.562361231747753"><ele>18.0</ele><time>2026-04-29T18:34:51.062Z</time></trkpt><trkpt lat="43.166320526841375" lon="10.562442752959297"><ele>18.5</ele><time>2026-04-29T18:34:52.062Z</time></trkpt><trkpt lat="43.166590298509696" lon="10.562516796190748"><ele>19.0</ele><time>2026-04-29T18:34:53.062Z</time></trkpt><trkpt lat="43.16686243760009" lon="10.562586274915533"><ele>19.0</ele><time>2026-04-29T18:34:54.062Z</time></trkpt><trkpt lat="43.16713703151146" lon="10.562651950859893"><ele>19.0</ele><time>2026-04-29T18:34:55.062Z</time></trkpt><trkpt lat="43.16740988438887" lon="10.562713349223822"><ele>18.5</ele><time>2026-04-29T18:34:56.062Z</time></trkpt><trkpt lat="43.16768682417061" lon="10.562772950753958"><ele>18.0</ele><time>2026-04-29T18:34:57.062Z</time></trkpt><trkpt lat="43.167968050890536" lon="10.562830667022446"><ele>17.5</ele><time>2026-04-29T18:34:58.062Z</time></trkpt><trkpt lat="43.16824969750987" lon="10.562876899127424"><ele>17.0</ele><time>2026-04-29T18:34:59.062Z</time></trkpt><trkpt lat="43.16853243980295" lon="10.562916770351016"><ele>17.0</ele><time>2026-04-29T18:35:00.062Z</time></trkpt><trkpt lat="43.168821671492914" lon="10.562949484230879"><ele>17.0</ele><time>2026-04-29T18:35:01.062Z</time></trkpt><trkpt lat="43.16911090932912" lon="10.562982189843963"><ele>18.0</ele><time>2026-04-29T18:35:02.062Z</time></trkpt><trkpt lat="43.16940248357024" lon="10.563008304546026"><ele>19.0</ele><time>2026-04-29T18:35:03.062Z</time></trkpt><trkpt lat="43.16969440658674" lon="10.56303382199678"><ele>18.0</ele><time>2026-04-29T18:35:04.062Z</time></trkpt><trkpt lat="43.16998785164844" lon="10.56306103034421"><ele>17.0</ele><time>2026-04-29T18:35:05.062Z</time></trkpt><trkpt lat="43.17028515410648" lon="10.563089856763678"><ele>17.0</ele><time>2026-04-29T18:35:06.062Z</time></trkpt><trkpt lat="43.17058411100172" lon="10.563118755932887"><ele>17.0</ele><time>2026-04-29T18:35:07.062Z</time></trkpt><trkpt lat="43.170884169037485" lon="10.563146043707683"><ele>17.0</ele><time>2026-04-29T18:35:08.062Z</time></trkpt><trkpt lat="43.171184168256744" lon="10.563170804415194"><ele>17.0</ele><time>2026-04-29T18:35:09.062Z</time></trkpt><trkpt lat="43.171488763800376" lon="10.563197735403204"><ele>16.5</ele><time>2026-04-29T18:35:10.062Z</time></trkpt><trkpt lat="43.1717872375256" lon="10.563224436187083"><ele>16.0</ele><time>2026-04-29T18:35:11.062Z</time></trkpt><trkpt lat="43.17208816227861" lon="10.563250336703073"><ele>16.5</ele><time>2026-04-29T18:35:12.062Z</time></trkpt><trkpt lat="43.172388503880285" lon="10.563275584147037"><ele>17.0</ele><time>2026-04-29T18:35:13.062Z</time></trkpt><trkpt lat="43.17268723828669" lon="10.563302716891892"><ele>17.0</ele><time>2026-04-29T18:35:14.062Z</time></trkpt><trkpt lat="43.17298557403809" lon="10.563332320130597"><ele>17.0</ele><time>2026-04-29T18:35:15.062Z</time></trkpt><trkpt lat="43.173282891329364" lon="10.56337366591648"><ele>16.5</ele><time>2026-04-29T18:35:16.062Z</time></trkpt><trkpt lat="43.173581396022264" lon="10.563421324428075"><ele>16.0</ele><time>2026-04-29T18:35:17.062Z</time></trkpt><trkpt lat="43.17388081892273" lon="10.563467847507843"><ele>15.5</ele><time>2026-04-29T18:35:18.062Z</time></trkpt><trkpt lat="43.174179858568536" lon="10.563519794008768"><ele>15.0</ele><time>2026-04-29T18:35:19.062Z</time></trkpt><trkpt lat="43.174477920366904" lon="10.563578689690788"><ele>15.0</ele><time>2026-04-29T18:35:20.062Z</time></trkpt><trkpt lat="43.174775379154255" lon="10.56364260853328"><ele>15.0</ele><time>2026-04-29T18:35:21.062Z</time></trkpt><trkpt lat="43.17507222767291" lon="10.56370970728125"><ele>16.0</ele><time>2026-04-29T18:35:22.062Z</time></trkpt><trkpt lat="43.17537001101719" lon="10.56377564416804"><ele>17.0</ele><time>2026-04-29T18:35:23.062Z</time></trkpt><trkpt lat="43.17566579599913" lon="10.563845082819837"><ele>16.5</ele><time>2026-04-29T18:35:24.062Z</time></trkpt><trkpt lat="43.17595751305482" lon="10.563916811820771"><ele>16.0</ele><time>2026-04-29T18:35:25.062Z</time></trkpt><trkpt lat="43.17624873616442" lon="10.563995368787179"><ele>14.5</ele><time>2026-04-29T18:35:26.062Z</time></trkpt><trkpt lat="43.176540790802456" lon="10.56407004465599"><ele>13.0</ele><time>2026-04-29T18:35:27.062Z</time></trkpt><trkpt lat="43.176830475952926" lon="10.56414241493526"><ele>13.0</ele><time>2026-04-29T18:35:28.062Z</time></trkpt><trkpt lat="43.177120255172156" lon="10.56421370531005"><ele>13.0</ele><time>2026-04-29T18:35:29.062Z</time></trkpt><trkpt lat="43.17740549062644" lon="10.564278128404537"><ele>14.5</ele><time>2026-04-29T18:35:30.062Z</time></trkpt><trkpt lat="43.177691326480335" lon="10.564347306882974"><ele>16.0</ele><time>2026-04-29T18:35:31.062Z</time></trkpt><trkpt lat="43.177977415005735" lon="10.564419315792238"><ele>15.5</ele><time>2026-04-29T18:35:32.062Z</time></trkpt><trkpt lat="43.17826086546087" lon="10.564483585533024"><ele>15.0</ele><time>2026-04-29T18:35:33.062Z</time></trkpt><trkpt lat="43.17855153803551" lon="10.564556838251299"><ele>15.0</ele><time>2026-04-29T18:35:34.062Z</time></trkpt><trkpt lat="43.17883827773198" lon="10.564636462711498"><ele>15.0</ele><time>2026-04-29T18:35:35.062Z</time></trkpt><trkpt lat="43.17912319223634" lon="10.564718851384967"><ele>13.5</ele><time>2026-04-29T18:35:36.062Z</time></trkpt><trkpt lat="43.179412503515856" lon="10.56480230058343"><ele>12.0</ele><time>2026-04-29T18:35:37.062Z</time></trkpt><trkpt lat="43.1797025832037" lon="10.564880509083773"><ele>13.0</ele><time>2026-04-29T18:35:38.062Z</time></trkpt><trkpt lat="43.179989180973436" lon="10.564956969008167"><ele>14.0</ele><time>2026-04-29T18:35:39.062Z</time></trkpt><trkpt lat="43.180277046495135" lon="10.565033101128272"><ele>14.0</ele><time>2026-04-29T18:35:40.062Z</time></trkpt><trkpt lat="43.18055991288141" lon="10.565105249155833"><ele>14.0</ele><time>2026-04-29T18:35:41.062Z</time></trkpt><trkpt lat="43.18084127731133" lon="10.565174055420833"><ele>13.0</ele><time>2026-04-29T18:35:42.062Z</time></trkpt><trkpt lat="43.181121500539774" lon="10.565246056084236"><ele>12.0</ele><time>2026-04-29T18:35:43.062Z</time></trkpt><trkpt lat="43.18139889445065" lon="10.565317449955932"><ele>11.0</ele><time>2026-04-29T18:35:44.062Z</time></trkpt><trkpt lat="43.181674669316656" lon="10.565384232907224"><ele>10.0</ele><time>2026-04-29T18:35:45.062Z</time></trkpt><trkpt lat="43.18195020663432" lon="10.565452523675757"><ele>10.0</ele><time>2026-04-29T18:35:46.062Z</time></trkpt><trkpt lat="43.182226082380346" lon="10.565520252283935"><ele>10.0</ele><time>2026-04-29T18:35:47.062Z</time></trkpt><trkpt lat="43.18250016692135" lon="10.565586405233349"><ele>10.0</ele><time>2026-04-29T18:35:48.062Z</time></trkpt><trkpt lat="43.18277458834199" lon="10.565648359753572"><ele>10.0</ele><time>2026-04-29T18:35:49.062Z</time></trkpt><trkpt lat="43.183050780060725" lon="10.565705632379018"><ele>9.5</ele><time>2026-04-29T18:35:50.062Z</time></trkpt><trkpt lat="43.18332745716191" lon="10.56575910032311"><ele>9.0</ele><time>2026-04-29T18:35:51.062Z</time></trkpt><trkpt lat="43.18360717397404" lon="10.565807837137802"><ele>9.0</ele><time>2026-04-29T18:35:52.062Z</time></trkpt><trkpt lat="43.18388833380167" lon="10.56584483384472"><ele>9.0</ele><time>2026-04-29T18:35:53.062Z</time></trkpt><trkpt lat="43.18417167785785" lon="10.565875421066842"><ele>9.0</ele><time>2026-04-29T18:35:54.062Z</time></trkpt><trkpt lat="43.18445775919547" lon="10.565899097999917"><ele>9.0</ele><time>2026-04-29T18:35:55.062Z</time></trkpt><trkpt lat="43.18474644013966" lon="10.565912880768703"><ele>9.0</ele><time>2026-04-29T18:35:56.062Z</time></trkpt><trkpt lat="43.18503775217951" lon="10.565919331057252"><ele>9.0</ele><time>2026-04-29T18:35:57.062Z</time></trkpt><trkpt lat="43.18532816574511" lon="10.565918398669451"><ele>9.0</ele><time>2026-04-29T18:35:58.062Z</time></trkpt><trkpt lat="43.185623362658305" lon="10.56590807347272"><ele>9.0</ele><time>2026-04-29T18:35:59.062Z</time></trkpt><trkpt lat="43.185916892346306" lon="10.565888949808848"><ele>8.0</ele><time>2026-04-29T18:36:00.062Z</time></trkpt><trkpt lat="43.18621459909951" lon="10.565860570426931"><ele>7.0</ele><time>2026-04-29T18:36:01.062Z</time></trkpt><trkpt lat="43.1865110006081" lon="10.565828402597154"><ele>7.0</ele><time>2026-04-29T18:36:02.062Z</time></trkpt><trkpt lat="43.186806629281264" lon="10.565784475705462"><ele>7.0</ele><time>2026-04-29T18:36:03.062Z</time></trkpt><trkpt lat="43.18710428453313" lon="10.565733528299335"><ele>6.5</ele><time>2026-04-29T18:36:04.062Z</time></trkpt><trkpt lat="43.18739868790425" lon="10.56567628172366"><ele>6.0</ele><time>2026-04-29T18:36:05.062Z</time></trkpt><trkpt lat="43.187688087987965" lon="10.565616802642438"><ele>6.0</ele><time>2026-04-29T18:36:06.062Z</time></trkpt><trkpt lat="43.18798148095651" lon="10.565554891839907"><ele>6.0</ele><time>2026-04-29T18:36:07.062Z</time></trkpt><trkpt lat="43.18827373671215" lon="10.565494249925095"><ele>6.0</ele><time>2026-04-29T18:36:08.062Z</time></trkpt><trkpt lat="43.18856441755849" lon="10.565436533724203"><ele>6.0</ele><time>2026-04-29T18:36:09.062Z</time></trkpt><trkpt lat="43.18885630134926" lon="10.565374606193863"><ele>5.0</ele><time>2026-04-29T18:36:10.062Z</time></trkpt><trkpt lat="43.1891409254999" lon="10.565313079665495"><ele>4.0</ele><time>2026-04-29T18:36:11.062Z</time></trkpt><trkpt lat="43.18942325714684" lon="10.565252257950743"><ele>4.0</ele><time>2026-04-29T18:36:12.062Z</time></trkpt><trkpt lat="43.18970691786822" lon="10.56519391898994"><ele>4.0</ele><time>2026-04-29T18:36:13.062Z</time></trkpt><trkpt lat="43.189983919731866" lon="10.565136147103042"><ele>4.0</ele><time>2026-04-29T18:36:14.062Z</time></trkpt><trkpt lat="43.190261122959626" lon="10.565081290891845"><ele>4.0</ele><time>2026-04-29T18:36:15.062Z</time></trkpt><trkpt lat="43.19053449392436" lon="10.56503108138123"><ele>5.0</ele><time>2026-04-29T18:36:16.062Z</time></trkpt><trkpt lat="43.19080905204179" lon="10.564986639247234"><ele>6.0</ele><time>2026-04-29T18:36:17.062Z</time></trkpt><trkpt lat="43.19108080872357" lon="10.564943926136081"><ele>6.0</ele><time>2026-04-29T18:36:18.062Z</time></trkpt><trkpt lat="43.191351155278454" lon="10.56490606662305"><ele>6.0</ele><time>2026-04-29T18:36:19.062Z</time></trkpt><trkpt lat="43.19161674566997" lon="10.56486883146427"><ele>5.0</ele><time>2026-04-29T18:36:20.062Z</time></trkpt><trkpt lat="43.19188321605917" lon="10.564832918390248"><ele>4.0</ele><time>2026-04-29T18:36:21.062Z</time></trkpt><trkpt lat="43.1921506075679" lon="10.56480424814413"><ele>4.5</ele><time>2026-04-29T18:36:22.062Z</time></trkpt><trkpt lat="43.1924182330186" lon="10.564778206835259"><ele>5.0</ele><time>2026-04-29T18:36:23.062Z</time></trkpt><trkpt lat="43.192683095011766" lon="10.564751581986384"><ele>5.0</ele><time>2026-04-29T18:36:24.062Z</time></trkpt><trkpt lat="43.19294674285839" lon="10.564726549392569"><ele>5.0</ele><time>2026-04-29T18:36:25.062Z</time></trkpt><trkpt lat="43.19321279168403" lon="10.56469919124248"><ele>5.5</ele><time>2026-04-29T18:36:26.062Z</time></trkpt><trkpt lat="43.19347888310667" lon="10.564672194453577"><ele>6.0</ele><time>2026-04-29T18:36:27.062Z</time></trkpt><trkpt lat="43.19374457495705" lon="10.564643494720327"><ele>6.5</ele><time>2026-04-29T18:36:28.063Z</time></trkpt><trkpt lat="43.19401137662087" lon="10.564613639114969"><ele>7.0</ele><time>2026-04-29T18:36:29.063Z</time></trkpt><trkpt lat="43.19427729203592" lon="10.56458697524773"><ele>7.0</ele><time>2026-04-29T18:36:30.063Z</time></trkpt><trkpt lat="43.19454997249564" lon="10.564555354708107"><ele>7.0</ele><time>2026-04-29T18:36:31.063Z</time></trkpt><trkpt lat="43.194820074241235" lon="10.564527465176717"><ele>6.0</ele><time>2026-04-29T18:36:32.063Z</time></trkpt><trkpt lat="43.19509627833735" lon="10.56450057194363"><ele>5.0</ele><time>2026-04-29T18:36:33.063Z</time></trkpt><trkpt lat="43.19537663374649" lon="10.564474718194743"><ele>5.0</ele><time>2026-04-29T18:36:34.064Z</time></trkpt><trkpt lat="43.1956585554027" lon="10.564447506473671"><ele>5.0</ele><time>2026-04-29T18:36:35.063Z</time></trkpt><trkpt lat="43.195942379927715" lon="10.564420133750087"><ele>5.5</ele><time>2026-04-29T18:36:36.063Z</time></trkpt><trkpt lat="43.196227915451445" lon="10.564389471786441"><ele>6.0</ele><time>2026-04-29T18:36:37.064Z</time></trkpt><trkpt lat="43.196514731354384" lon="10.564360167226907"><ele>6.0</ele><time>2026-04-29T18:36:38.063Z</time></trkpt><trkpt lat="43.19679964471836" lon="10.564330279328312"><ele>6.0</ele><time>2026-04-29T18:36:39.063Z</time></trkpt><trkpt lat="43.19708866458734" lon="10.564302808063188"><ele>6.0</ele><time>2026-04-29T18:36:40.063Z</time></trkpt><trkpt lat="43.197377841910544" lon="10.564274782387324"><ele>6.0</ele><time>2026-04-29T18:36:41.063Z</time></trkpt><trkpt lat="43.19766421217816" lon="10.564250210867854"><ele>6.0</ele><time>2026-04-29T18:36:42.063Z</time></trkpt><trkpt lat="43.19795376510491" lon="10.564221555958078"><ele>6.0</ele><time>2026-04-29T18:36:43.063Z</time></trkpt><trkpt lat="43.19823901299593" lon="10.564190878392102"><ele>5.5</ele><time>2026-04-29T18:36:44.063Z</time></trkpt><trkpt lat="43.198525814474905" lon="10.564157375676752"><ele>5.0</ele><time>2026-04-29T18:36:45.063Z</time></trkpt><trkpt lat="43.19881527477611" lon="10.564128217040912"><ele>4.5</ele><time>2026-04-29T18:36:46.063Z</time></trkpt><trkpt lat="43.199105390343576" lon="10.564099969278896"><ele>4.0</ele><time>2026-04-29T18:36:47.063Z</time></trkpt><trkpt lat="43.19940042447801" lon="10.564072329253756"><ele>4.0</ele><time>2026-04-29T18:36:48.063Z</time></trkpt><trkpt lat="43.19970467109967" lon="10.564041585883524"><ele>4.0</ele><time>2026-04-29T18:36:49.063Z</time></trkpt><trkpt lat="43.200012482243345" lon="10.564008173384956"><ele>4.5</ele><time>2026-04-29T18:36:50.063Z</time></trkpt><trkpt lat="43.2003265926861" lon="10.563970606638673"><ele>5.0</ele><time>2026-04-29T18:36:51.063Z</time></trkpt><trkpt lat="43.20063580406247" lon="10.5639357200635"><ele>5.0</ele><time>2026-04-29T18:36:52.063Z</time></trkpt><trkpt lat="43.20094544811109" lon="10.56390211319356"><ele>5.0</ele><time>2026-04-29T18:36:53.063Z</time></trkpt><trkpt lat="43.20124873509528" lon="10.563875333001775"><ele>5.0</ele><time>2026-04-29T18:36:54.063Z</time></trkpt><trkpt lat="43.20155138859203" lon="10.563844498286505"><ele>5.0</ele><time>2026-04-29T18:36:55.063Z</time></trkpt><trkpt lat="43.20184948927625" lon="10.563817558921587"><ele>5.0</ele><time>2026-04-29T18:36:56.063Z</time></trkpt><trkpt lat="43.202144183951674" lon="10.56378883304449"><ele>5.0</ele><time>2026-04-29T18:36:57.063Z</time></trkpt><trkpt lat="43.202439761736755" lon="10.563752143790586"><ele>5.0</ele><time>2026-04-29T18:36:58.063Z</time></trkpt><trkpt lat="43.20274130360424" lon="10.56370921748598"><ele>5.0</ele><time>2026-04-29T18:36:59.063Z</time></trkpt><trkpt lat="43.203040918837395" lon="10.563674642487115"><ele>6.0</ele><time>2026-04-29T18:37:00.063Z</time></trkpt><trkpt lat="43.20334233970146" lon="10.563644284067912"><ele>7.0</ele><time>2026-04-29T18:37:01.063Z</time></trkpt><trkpt lat="43.20364619114191" lon="10.563608290366812"><ele>7.0</ele><time>2026-04-29T18:37:02.063Z</time></trkpt><trkpt lat="43.203950080771925" lon="10.56357739455578"><ele>7.0</ele><time>2026-04-29T18:37:03.063Z</time></trkpt><trkpt lat="43.20425539462284" lon="10.563546011122115"><ele>7.0</ele><time>2026-04-29T18:37:04.063Z</time></trkpt><trkpt lat="43.204557108787306" lon="10.563512140665122"><ele>7.0</ele><time>2026-04-29T18:37:05.063Z</time></trkpt><trkpt lat="43.20486171623701" lon="10.563482424729568"><ele>6.5</ele><time>2026-04-29T18:37:06.063Z</time></trkpt><trkpt lat="43.20515990963222" lon="10.563455567690308"><ele>6.0</ele><time>2026-04-29T18:37:07.063Z</time></trkpt><trkpt lat="43.20545805232608" lon="10.563420734431178"><ele>7.0</ele><time>2026-04-29T18:37:08.063Z</time></trkpt><trkpt lat="43.20574781384684" lon="10.563391871757602"><ele>8.0</ele><time>2026-04-29T18:37:09.063Z</time></trkpt><trkpt lat="43.20603211355326" lon="10.563362546198059"><ele>8.0</ele><time>2026-04-29T18:37:10.063Z</time></trkpt><trkpt lat="43.206312168535696" lon="10.56333223169204"><ele>8.0</ele><time>2026-04-29T18:37:11.063Z</time></trkpt><trkpt lat="43.206587048142524" lon="10.563307098392496"><ele>8.0</ele><time>2026-04-29T18:37:12.063Z</time></trkpt><trkpt lat="43.20686571155762" lon="10.563277103410172"><ele>8.0</ele><time>2026-04-29T18:37:13.063Z</time></trkpt><trkpt lat="43.20714665635255" lon="10.563250366084018"><ele>9.0</ele><time>2026-04-29T18:37:14.063Z</time></trkpt><trkpt lat="43.20742753831161" lon="10.563220861973264"><ele>10.0</ele><time>2026-04-29T18:37:15.063Z</time></trkpt><trkpt lat="43.20770795629462" lon="10.563185546046173"><ele>10.0</ele><time>2026-04-29T18:37:16.063Z</time></trkpt><trkpt lat="43.20798157229306" lon="10.563155637270103"><ele>10.0</ele><time>2026-04-29T18:37:17.063Z</time></trkpt><trkpt lat="43.20826345834594" lon="10.563122510893022"><ele>9.0</ele><time>2026-04-29T18:37:18.063Z</time></trkpt><trkpt lat="43.20854212276307" lon="10.563086751862615"><ele>8.0</ele><time>2026-04-29T18:37:19.063Z</time></trkpt><trkpt lat="43.208823235072856" lon="10.56304743739811"><ele>8.5</ele><time>2026-04-29T18:37:20.063Z</time></trkpt><trkpt lat="43.209106980628825" lon="10.563004675734495"><ele>9.0</ele><time>2026-04-29T18:37:21.063Z</time></trkpt><trkpt lat="43.20939288388024" lon="10.562963738250087"><ele>9.0</ele><time>2026-04-29T18:37:22.063Z</time></trkpt><trkpt lat="43.20967360541877" lon="10.562921654803715"><ele>9.0</ele><time>2026-04-29T18:37:23.063Z</time></trkpt><trkpt lat="43.209958425860414" lon="10.562878008337707"><ele>8.0</ele><time>2026-04-29T18:37:24.063Z</time></trkpt><trkpt lat="43.21025104029922" lon="10.562821908544668"><ele>7.0</ele><time>2026-04-29T18:37:25.063Z</time></trkpt><trkpt lat="43.210533575305845" lon="10.56278192223652"><ele>6.0</ele><time>2026-04-29T18:37:26.063Z</time></trkpt><trkpt lat="43.210818441156114" lon="10.562738331190143"><ele>5.0</ele><time>2026-04-29T18:37:27.063Z</time></trkpt><trkpt lat="43.21109782959677" lon="10.562690675076137"><ele>5.0</ele><time>2026-04-29T18:37:28.063Z</time></trkpt><trkpt lat="43.2113760165703" lon="10.562634518332834"><ele>5.0</ele><time>2026-04-29T18:37:29.063Z</time></trkpt><trkpt lat="43.21165464457632" lon="10.562581291320571"><ele>6.5</ele><time>2026-04-29T18:37:30.063Z</time></trkpt><trkpt lat="43.21193158980761" lon="10.56252616824612"><ele>8.0</ele><time>2026-04-29T18:37:31.063Z</time></trkpt><trkpt lat="43.212214876693494" lon="10.562474891548021"><ele>7.5</ele><time>2026-04-29T18:37:32.063Z</time></trkpt><trkpt lat="43.21250507179383" lon="10.562429559291207"><ele>7.0</ele><time>2026-04-29T18:37:33.063Z</time></trkpt><trkpt lat="43.212798921678285" lon="10.562369457395942"><ele>7.0</ele><time>2026-04-29T18:37:34.063Z</time></trkpt><trkpt lat="43.2130907323823" lon="10.562311968451455"><ele>7.0</ele><time>2026-04-29T18:37:35.063Z</time></trkpt><trkpt lat="43.21339087716227" lon="10.562251500494607"><ele>7.0</ele><time>2026-04-29T18:37:36.063Z</time></trkpt><trkpt lat="43.21368426461562" lon="10.562195821184087"><ele>7.0</ele><time>2026-04-29T18:37:37.063Z</time></trkpt><trkpt lat="43.21398306642097" lon="10.562138800533276"><ele>7.0</ele><time>2026-04-29T18:37:38.063Z</time></trkpt><trkpt lat="43.21428026720398" lon="10.562081972369919"><ele>7.0</ele><time>2026-04-29T18:37:39.063Z</time></trkpt><trkpt lat="43.21457845047119" lon="10.56202682260771"><ele>6.0</ele><time>2026-04-29T18:37:40.063Z</time></trkpt><trkpt lat="43.214871629991976" lon="10.561971902434665"><ele>5.0</ele><time>2026-04-29T18:37:41.063Z</time></trkpt><trkpt lat="43.21515715608064" lon="10.561917451074109"><ele>5.0</ele><time>2026-04-29T18:37:42.063Z</time></trkpt><trkpt lat="43.215443871615605" lon="10.561861001149756"><ele>5.0</ele><time>2026-04-29T18:37:43.063Z</time></trkpt><trkpt lat="43.215730616362855" lon="10.561810188010679"><ele>6.0</ele><time>2026-04-29T18:37:44.063Z</time></trkpt><trkpt lat="43.21601431643727" lon="10.561754832143997"><ele>7.0</ele><time>2026-04-29T18:37:45.063Z</time></trkpt><trkpt lat="43.216295579279006" lon="10.561699196886833"><ele>7.5</ele><time>2026-04-29T18:37:46.063Z</time></trkpt><trkpt lat="43.21657550488826" lon="10.56164736022486"><ele>8.0</ele><time>2026-04-29T18:37:47.063Z</time></trkpt><trkpt lat="43.2168540430524" lon="10.561602512459366"><ele>8.0</ele><time>2026-04-29T18:37:48.063Z</time></trkpt><trkpt lat="43.2171340197249" lon="10.561552929195305"><ele>8.0</ele><time>2026-04-29T18:37:49.063Z</time></trkpt><trkpt lat="43.21741115173968" lon="10.561510053807993"><ele>7.5</ele><time>2026-04-29T18:37:50.063Z</time></trkpt><trkpt lat="43.21769050055972" lon="10.561467695596887"><ele>7.0</ele><time>2026-04-29T18:37:51.063Z</time></trkpt><trkpt lat="43.21797269182127" lon="10.56142930958013"><ele>7.0</ele><time>2026-04-29T18:37:52.063Z</time></trkpt><trkpt lat="43.21826901619229" lon="10.561383087017694"><ele>7.0</ele><time>2026-04-29T18:37:53.063Z</time></trkpt><trkpt lat="43.218564339530076" lon="10.561327430553167"><ele>7.0</ele><time>2026-04-29T18:37:54.063Z</time></trkpt><trkpt lat="43.2188757122345" lon="10.561282419758113"><ele>7.0</ele><time>2026-04-29T18:37:55.063Z</time></trkpt><trkpt lat="43.219188300825536" lon="10.561228176922985"><ele>6.5</ele><time>2026-04-29T18:37:56.063Z</time></trkpt><trkpt lat="43.21950093870249" lon="10.561180294210073"><ele>6.0</ele><time>2026-04-29T18:37:57.063Z</time></trkpt><trkpt lat="43.219799485811144" lon="10.561140331277207"><ele>6.0</ele><time>2026-04-29T18:37:58.063Z</time></trkpt><trkpt lat="43.22008598593951" lon="10.561096127833133"><ele>6.0</ele><time>2026-04-29T18:37:59.063Z</time></trkpt><trkpt lat="43.22036819718121" lon="10.561053716811482"><ele>6.0</ele><time>2026-04-29T18:38:00.063Z</time></trkpt><trkpt lat="43.220639387150285" lon="10.561015046358206"><ele>6.0</ele><time>2026-04-29T18:38:01.063Z</time></trkpt><trkpt lat="43.220907976037786" lon="10.560971356172097"><ele>6.0</ele><time>2026-04-29T18:38:02.063Z</time></trkpt><trkpt lat="43.221176318154406" lon="10.56092666265674"><ele>6.0</ele><time>2026-04-29T18:38:03.063Z</time></trkpt><trkpt lat="43.2214446393691" lon="10.560879641254957"><ele>6.0</ele><time>2026-04-29T18:38:04.063Z</time></trkpt><trkpt lat="43.22171623488198" lon="10.560827111244134"><ele>6.0</ele><time>2026-04-29T18:38:05.063Z</time></trkpt><trkpt lat="43.22198689611135" lon="10.560764775342305"><ele>6.0</ele><time>2026-04-29T18:38:06.063Z</time></trkpt><trkpt lat="43.22225397419311" lon="10.56069310167734"><ele>6.0</ele><time>2026-04-29T18:38:07.063Z</time></trkpt><trkpt lat="43.22252675159477" lon="10.560612950663138"><ele>7.0</ele><time>2026-04-29T18:38:08.063Z</time></trkpt><trkpt lat="43.22279835223453" lon="10.560527295080137"><ele>8.0</ele><time>2026-04-29T18:38:09.063Z</time></trkpt><trkpt lat="43.22306918722544" lon="10.560434739217065"><ele>7.0</ele><time>2026-04-29T18:38:10.063Z</time></trkpt><trkpt lat="43.22333960764753" lon="10.560338154426473"><ele>6.0</ele><time>2026-04-29T18:38:11.063Z</time></trkpt><trkpt lat="43.22361110710063" lon="10.56024012368619"><ele>6.0</ele><time>2026-04-29T18:38:12.063Z</time></trkpt><trkpt lat="43.22388239223868" lon="10.560137342913867"><ele>6.0</ele><time>2026-04-29T18:38:13.063Z</time></trkpt><trkpt lat="43.224154075542366" lon="10.560026711452078"><ele>7.0</ele><time>2026-04-29T18:38:14.063Z</time></trkpt><trkpt lat="43.224424334827745" lon="10.559909959399407"><ele>8.0</ele><time>2026-04-29T18:38:15.063Z</time></trkpt><trkpt lat="43.22469580030988" lon="10.55979108188059"><ele>7.0</ele><time>2026-04-29T18:38:16.063Z</time></trkpt><trkpt lat="43.22497021599441" lon="10.559669573992776"><ele>6.0</ele><time>2026-04-29T18:38:17.063Z</time></trkpt><trkpt lat="43.22524050781648" lon="10.559553488734144"><ele>6.5</ele><time>2026-04-29T18:38:18.063Z</time></trkpt><trkpt lat="43.22551256184205" lon="10.5594380661677"><ele>7.0</ele><time>2026-04-29T18:38:19.063Z</time></trkpt><trkpt lat="43.22578545662837" lon="10.559326320714609"><ele>7.0</ele><time>2026-04-29T18:38:20.063Z</time></trkpt><trkpt lat="43.2260526208769" lon="10.559216963462253"><ele>7.0</ele><time>2026-04-29T18:38:21.063Z</time></trkpt><trkpt lat="43.22632201045394" lon="10.55910572555677"><ele>7.5</ele><time>2026-04-29T18:38:22.063Z</time></trkpt><trkpt lat="43.226587692239" lon="10.558995305205109"><ele>8.0</ele><time>2026-04-29T18:38:23.063Z</time></trkpt><trkpt lat="43.22685449649317" lon="10.558880739340806"><ele>8.0</ele><time>2026-04-29T18:38:24.063Z</time></trkpt><trkpt lat="43.22712180640037" lon="10.558766908578594"><ele>8.0</ele><time>2026-04-29T18:38:25.063Z</time></trkpt><trkpt lat="43.22738760632258" lon="10.558653262720448"><ele>7.0</ele><time>2026-04-29T18:38:26.063Z</time></trkpt><trkpt lat="43.227654111402614" lon="10.558537573297729"><ele>6.0</ele><time>2026-04-29T18:38:27.063Z</time></trkpt><trkpt lat="43.227921544261726" lon="10.558425221071667"><ele>6.0</ele><time>2026-04-29T18:38:28.063Z</time></trkpt><trkpt lat="43.22818930547706" lon="10.55831201941002"><ele>6.0</ele><time>2026-04-29T18:38:29.063Z</time></trkpt><trkpt lat="43.22845714583615" lon="10.558197099860282"><ele>6.0</ele><time>2026-04-29T18:38:30.063Z</time></trkpt><trkpt lat="43.228721735103925" lon="10.55808292161615"><ele>6.0</ele><time>2026-04-29T18:38:31.063Z</time></trkpt><trkpt lat="43.22898542741495" lon="10.55797401924989"><ele>6.5</ele><time>2026-04-29T18:38:32.063Z</time></trkpt><trkpt lat="43.22924913376401" lon="10.557863249204187"><ele>7.0</ele><time>2026-04-29T18:38:33.063Z</time></trkpt><trkpt lat="43.229514284067115" lon="10.55774808694625"><ele>7.0</ele><time>2026-04-29T18:38:34.065Z</time></trkpt><trkpt lat="43.2297770643495" lon="10.557638219057058"><ele>7.0</ele><time>2026-04-29T18:38:35.065Z</time></trkpt><trkpt lat="43.2300394609357" lon="10.557524995916692"><ele>7.0</ele><time>2026-04-29T18:38:36.065Z</time></trkpt><trkpt lat="43.23030224833907" lon="10.557416982335258"><ele>7.0</ele><time>2026-04-29T18:38:37.065Z</time></trkpt><trkpt lat="43.23056219324421" lon="10.557305485987671"><ele>7.5</ele><time>2026-04-29T18:38:38.065Z</time></trkpt><trkpt lat="43.230821768746516" lon="10.55719747035297"><ele>8.0</ele><time>2026-04-29T18:38:39.065Z</time></trkpt><trkpt lat="43.231086189120035" lon="10.557085386099098"><ele>8.0</ele><time>2026-04-29T18:38:40.066Z</time></trkpt><trkpt lat="43.2313441781372" lon="10.556976436843371"><ele>8.0</ele><time>2026-04-29T18:38:41.065Z</time></trkpt><trkpt lat="43.2316013129153" lon="10.556867575107468"><ele>8.5</ele><time>2026-04-29T18:38:42.065Z</time></trkpt><trkpt lat="43.23186323396618" lon="10.556760572278202"><ele>9.0</ele><time>2026-04-29T18:38:43.065Z</time></trkpt><trkpt lat="43.23212367826754" lon="10.556653448194806"><ele>8.5</ele><time>2026-04-29T18:38:44.066Z</time></trkpt><trkpt lat="43.23238245134793" lon="10.556544686109246"><ele>8.0</ele><time>2026-04-29T18:38:45.066Z</time></trkpt><trkpt lat="43.2326489536579" lon="10.556442329999776"><ele>8.0</ele><time>2026-04-29T18:38:46.065Z</time></trkpt><trkpt lat="43.2329150591891" lon="10.55635098158869"><ele>8.0</ele><time>2026-04-29T18:38:47.065Z</time></trkpt><trkpt lat="43.23318217548299" lon="10.556272717197984"><ele>7.5</ele><time>2026-04-29T18:38:48.065Z</time></trkpt><trkpt lat="43.233455146917024" lon="10.556207202819365"><ele>7.0</ele><time>2026-04-29T18:38:49.065Z</time></trkpt><trkpt lat="43.23372717972407" lon="10.556149491166432"><ele>7.5</ele><time>2026-04-29T18:38:50.065Z</time></trkpt><trkpt lat="43.23400411536923" lon="10.556103828799543"><ele>8.0</ele><time>2026-04-29T18:38:51.065Z</time></trkpt><trkpt lat="43.23428363077313" lon="10.556066185753979"><ele>8.0</ele><time>2026-04-29T18:38:52.065Z</time></trkpt><trkpt lat="43.23456466472808" lon="10.556040252926069"><ele>8.0</ele><time>2026-04-29T18:38:53.065Z</time></trkpt><trkpt lat="43.23484840539461" lon="10.556029896145311"><ele>7.0</ele><time>2026-04-29T18:38:54.065Z</time></trkpt><trkpt lat="43.235131236052844" lon="10.556028077623306"><ele>6.0</ele><time>2026-04-29T18:38:55.065Z</time></trkpt><trkpt lat="43.23541507304266" lon="10.556035347039149"><ele>7.5</ele><time>2026-04-29T18:38:56.065Z</time></trkpt><trkpt lat="43.23569857494672" lon="10.556045650981524"><ele>9.0</ele><time>2026-04-29T18:38:57.065Z</time></trkpt><trkpt lat="43.23598190801538" lon="10.556057420693577"><ele>9.0</ele><time>2026-04-29T18:38:58.065Z</time></trkpt><trkpt lat="43.236266399830505" lon="10.556065455511202"><ele>9.0</ele><time>2026-04-29T18:38:59.065Z</time></trkpt><trkpt lat="43.23655206963909" lon="10.556075340899492"><ele>8.0</ele><time>2026-04-29T18:39:00.065Z</time></trkpt><trkpt lat="43.236836128391914" lon="10.55608338296788"><ele>7.0</ele><time>2026-04-29T18:39:01.065Z</time></trkpt><trkpt lat="43.23712232879517" lon="10.55609352782201"><ele>7.0</ele><time>2026-04-29T18:39:02.065Z</time></trkpt><trkpt lat="43.237408239365365" lon="10.556103591624906"><ele>7.0</ele><time>2026-04-29T18:39:03.065Z</time></trkpt><trkpt lat="43.23769323678708" lon="10.556112120968509"><ele>7.0</ele><time>2026-04-29T18:39:04.065Z</time></trkpt><trkpt lat="43.23797825706348" lon="10.556121899272766"><ele>7.0</ele><time>2026-04-29T18:39:05.065Z</time></trkpt><trkpt lat="43.23826253830379" lon="10.556132262256446"><ele>8.0</ele><time>2026-04-29T18:39:06.065Z</time></trkpt><trkpt lat="43.238546100602974" lon="10.556143091537578"><ele>9.0</ele><time>2026-04-29T18:39:07.065Z</time></trkpt><trkpt lat="43.23883124825864" lon="10.556154436040998"><ele>7.5</ele><time>2026-04-29T18:39:08.065Z</time></trkpt><trkpt lat="43.2391138105212" lon="10.55616075254748"><ele>6.0</ele><time>2026-04-29T18:39:09.065Z</time></trkpt><trkpt lat="43.23939811449346" lon="10.556163558758403"><ele>6.0</ele><time>2026-04-29T18:39:10.065Z</time></trkpt><trkpt lat="43.2396755684584" lon="10.55615645588843"><ele>6.0</ele><time>2026-04-29T18:39:11.065Z</time></trkpt><trkpt lat="43.23995648433244" lon="10.556143607329766"><ele>6.5</ele><time>2026-04-29T18:39:12.065Z</time></trkpt><trkpt lat="43.2402350526623" lon="10.556121424521747"><ele>7.0</ele><time>2026-04-29T18:39:13.065Z</time></trkpt><trkpt lat="43.240513956094" lon="10.556093299613044"><ele>7.5</ele><time>2026-04-29T18:39:14.065Z</time></trkpt><trkpt lat="43.24079100362235" lon="10.556052659260745"><ele>8.0</ele><time>2026-04-29T18:39:15.065Z</time></trkpt><trkpt lat="43.24106612731387" lon="10.555999804182447"><ele>8.0</ele><time>2026-04-29T18:39:16.065Z</time></trkpt><trkpt lat="43.241340005498046" lon="10.555931464577798"><ele>8.0</ele><time>2026-04-29T18:39:17.065Z</time></trkpt><trkpt lat="43.241610487985454" lon="10.555852096144674"><ele>9.5</ele><time>2026-04-29T18:39:18.065Z</time></trkpt><trkpt lat="43.241880018677065" lon="10.555760940896144"><ele>11.0</ele><time>2026-04-29T18:39:19.065Z</time></trkpt><trkpt lat="43.24214455013624" lon="10.55566064188821"><ele>10.0</ele><time>2026-04-29T18:39:20.065Z</time></trkpt><trkpt lat="43.24241165646962" lon="10.555550004794371"><ele>9.0</ele><time>2026-04-29T18:39:21.065Z</time></trkpt><trkpt lat="43.24267732547632" lon="10.555430517100147"><ele>8.5</ele><time>2026-04-29T18:39:22.065Z</time></trkpt><trkpt lat="43.24293904752976" lon="10.55529570211789"><ele>8.0</ele><time>2026-04-29T18:39:23.065Z</time></trkpt><trkpt lat="43.24319842501481" lon="10.555151161539952"><ele>8.0</ele><time>2026-04-29T18:39:24.065Z</time></trkpt><trkpt lat="43.2434538181332" lon="10.554994381484747"><ele>8.0</ele><time>2026-04-29T18:39:25.065Z</time></trkpt><trkpt lat="43.24370557319527" lon="10.55482983806333"><ele>8.0</ele><time>2026-04-29T18:39:26.065Z</time></trkpt><trkpt lat="43.24395776559698" lon="10.554657151837649"><ele>8.0</ele><time>2026-04-29T18:39:27.065Z</time></trkpt><trkpt lat="43.24420786987913" lon="10.554472186489518"><ele>9.0</ele><time>2026-04-29T18:39:28.065Z</time></trkpt><trkpt lat="43.24445643910192" lon="10.55427908171559"><ele>10.0</ele><time>2026-04-29T18:39:29.065Z</time></trkpt><trkpt lat="43.2447029065008" lon="10.554081932589487"><ele>9.0</ele><time>2026-04-29T18:39:30.065Z</time></trkpt><trkpt lat="43.24494969437342" lon="10.55388065134404"><ele>8.0</ele><time>2026-04-29T18:39:31.065Z</time></trkpt><trkpt lat="43.24519820744513" lon="10.55367452150312"><ele>8.0</ele><time>2026-04-29T18:39:32.065Z</time></trkpt><trkpt lat="43.24544798372748" lon="10.553469882779773"><ele>8.0</ele><time>2026-04-29T18:39:33.065Z</time></trkpt><trkpt lat="43.24569629415698" lon="10.553263644605174"><ele>7.5</ele><time>2026-04-29T18:39:34.065Z</time></trkpt><trkpt lat="43.24594528720841" lon="10.553058149775515"><ele>7.0</ele><time>2026-04-29T18:39:35.065Z</time></trkpt><trkpt lat="43.24619319677434" lon="10.552849410243544"><ele>7.0</ele><time>2026-04-29T18:39:36.065Z</time></trkpt><trkpt lat="43.24643879973171" lon="10.55263316382508"><ele>7.0</ele><time>2026-04-29T18:39:37.065Z</time></trkpt><trkpt lat="43.246678562108535" lon="10.552400590183098"><ele>7.5</ele><time>2026-04-29T18:39:38.065Z</time></trkpt><trkpt lat="43.24690659064333" lon="10.552153275416854"><ele>8.0</ele><time>2026-04-29T18:39:39.065Z</time></trkpt><trkpt lat="43.24712464074006" lon="10.5518867305772"><ele>9.0</ele><time>2026-04-29T18:39:40.065Z</time></trkpt><trkpt lat="43.24733405049227" lon="10.551609333236536"><ele>10.0</ele><time>2026-04-29T18:39:41.065Z</time></trkpt><trkpt lat="43.24753494287555" lon="10.551320430734744"><ele>10.0</ele><time>2026-04-29T18:39:42.065Z</time></trkpt><trkpt lat="43.247733978017024" lon="10.551029738440501"><ele>10.0</ele><time>2026-04-29T18:39:43.065Z</time></trkpt><trkpt lat="43.24793377934293" lon="10.550740219394795"><ele>9.5</ele><time>2026-04-29T18:39:44.065Z</time></trkpt><trkpt lat="43.24813044571348" lon="10.550446910534392"><ele>9.0</ele><time>2026-04-29T18:39:45.065Z</time></trkpt><trkpt lat="43.24832863274307" lon="10.550146758897423"><ele>7.5</ele><time>2026-04-29T18:39:46.065Z</time></trkpt><trkpt lat="43.24854696869175" lon="10.549869618068076"><ele>6.0</ele><time>2026-04-29T18:39:47.065Z</time></trkpt><trkpt lat="43.248774104206596" lon="10.549616678278483"><ele>7.0</ele><time>2026-04-29T18:39:48.065Z</time></trkpt><trkpt lat="43.24901674679941" lon="10.54938453517939"><ele>8.0</ele><time>2026-04-29T18:39:49.065Z</time></trkpt><trkpt lat="43.249260158451186" lon="10.549168585669339"><ele>8.0</ele><time>2026-04-29T18:39:50.065Z</time></trkpt><trkpt lat="43.24951204713756" lon="10.548977464965699"><ele>8.0</ele><time>2026-04-29T18:39:51.065Z</time></trkpt><trkpt lat="43.249784413304226" lon="10.548821653334093"><ele>7.0</ele><time>2026-04-29T18:39:52.065Z</time></trkpt><trkpt lat="43.25005259030463" lon="10.54868113665778"><ele>6.0</ele><time>2026-04-29T18:39:53.065Z</time></trkpt><trkpt lat="43.25033354540507" lon="10.548564927920282"><ele>6.0</ele><time>2026-04-29T18:39:54.065Z</time></trkpt><trkpt lat="43.25060735079073" lon="10.548449923815909"><ele>6.0</ele><time>2026-04-29T18:39:55.065Z</time></trkpt><trkpt lat="43.250883702048185" lon="10.548336223303545"><ele>6.5</ele><time>2026-04-29T18:39:56.065Z</time></trkpt><trkpt lat="43.25115644993223" lon="10.548219353282429"><ele>7.0</ele><time>2026-04-29T18:39:57.065Z</time></trkpt><trkpt lat="43.25143018296359" lon="10.548095320499604"><ele>6.0</ele><time>2026-04-29T18:39:58.065Z</time></trkpt><trkpt lat="43.251702157728225" lon="10.547979693366448"><ele>5.0</ele><time>2026-04-29T18:39:59.065Z</time></trkpt><trkpt lat="43.25197711390324" lon="10.547860939064263"><ele>5.0</ele><time>2026-04-29T18:40:00.065Z</time></trkpt><trkpt lat="43.252256966850325" lon="10.547745746353716"><ele>5.0</ele><time>2026-04-29T18:40:01.065Z</time></trkpt><trkpt lat="43.25252926619247" lon="10.547629895033303"><ele>4.5</ele><time>2026-04-29T18:40:02.065Z</time></trkpt><trkpt lat="43.25280360831656" lon="10.547513923598215"><ele>4.0</ele><time>2026-04-29T18:40:03.065Z</time></trkpt><trkpt lat="43.25307971893243" lon="10.547399838280318"><ele>4.0</ele><time>2026-04-29T18:40:04.065Z</time></trkpt><trkpt lat="43.25335553146161" lon="10.547289902805298"><ele>4.0</ele><time>2026-04-29T18:40:05.065Z</time></trkpt><trkpt lat="43.25363260471036" lon="10.547167181789355"><ele>4.0</ele><time>2026-04-29T18:40:06.065Z</time></trkpt><trkpt lat="43.253909706303496" lon="10.547051725903167"><ele>4.0</ele><time>2026-04-29T18:40:07.065Z</time></trkpt><trkpt lat="43.254186956042744" lon="10.546939345222498"><ele>4.5</ele><time>2026-04-29T18:40:08.065Z</time></trkpt><trkpt lat="43.254459817785644" lon="10.546821138370456"><ele>5.0</ele><time>2026-04-29T18:40:09.065Z</time></trkpt><trkpt lat="43.25473368310173" lon="10.546703440388494"><ele>5.0</ele><time>2026-04-29T18:40:10.065Z</time></trkpt><trkpt lat="43.255008748476115" lon="10.546581824132176"><ele>5.0</ele><time>2026-04-29T18:40:11.065Z</time></trkpt><trkpt lat="43.25528478531788" lon="10.546467125545755"><ele>5.0</ele><time>2026-04-29T18:40:12.065Z</time></trkpt><trkpt lat="43.255556313588016" lon="10.546347427375146"><ele>5.0</ele><time>2026-04-29T18:40:13.065Z</time></trkpt><trkpt lat="43.25583162427539" lon="10.546229254150589"><ele>4.5</ele><time>2026-04-29T18:40:14.065Z</time></trkpt><trkpt lat="43.25610782040194" lon="10.546108101797717"><ele>4.0</ele><time>2026-04-29T18:40:15.065Z</time></trkpt><trkpt lat="43.25638417155289" lon="10.545988382167726"><ele>5.0</ele><time>2026-04-29T18:40:16.065Z</time></trkpt><trkpt lat="43.25666277424092" lon="10.545866534992784"><ele>6.0</ele><time>2026-04-29T18:40:17.065Z</time></trkpt><trkpt lat="43.2569438675485" lon="10.545745120983305"><ele>6.0</ele><time>2026-04-29T18:40:18.065Z</time></trkpt><trkpt lat="43.25722754858791" lon="10.545628552361428"><ele>6.0</ele><time>2026-04-29T18:40:19.065Z</time></trkpt><trkpt lat="43.25750879943791" lon="10.54550727998771"><ele>6.5</ele><time>2026-04-29T18:40:20.065Z</time></trkpt><trkpt lat="43.257794492619865" lon="10.54538688226142"><ele>7.0</ele><time>2026-04-29T18:40:21.065Z</time></trkpt><trkpt lat="43.25807888910872" lon="10.545266338057317"><ele>7.5</ele><time>2026-04-29T18:40:22.065Z</time></trkpt><trkpt lat="43.25836338375954" lon="10.545147134406502"><ele>8.0</ele><time>2026-04-29T18:40:23.065Z</time></trkpt><trkpt lat="43.258649221039235" lon="10.545022578278726"><ele>8.0</ele><time>2026-04-29T18:40:24.065Z</time></trkpt><trkpt lat="43.258941558740574" lon="10.544905989726855"><ele>8.0</ele><time>2026-04-29T18:40:25.065Z</time></trkpt><trkpt lat="43.259226731176824" lon="10.544775503076174"><ele>7.5</ele><time>2026-04-29T18:40:26.065Z</time></trkpt><trkpt lat="43.25951922058441" lon="10.544647326125284"><ele>7.0</ele><time>2026-04-29T18:40:27.065Z</time></trkpt><trkpt lat="43.25981211091823" lon="10.544522552847619"><ele>7.0</ele><time>2026-04-29T18:40:28.065Z</time></trkpt><trkpt lat="43.26010378543781" lon="10.544394956826908"><ele>7.0</ele><time>2026-04-29T18:40:29.065Z</time></trkpt><trkpt lat="43.26039371675448" lon="10.544271492478371"><ele>6.5</ele><time>2026-04-29T18:40:30.065Z</time></trkpt><trkpt lat="43.260684843580286" lon="10.544149791296354"><ele>6.0</ele><time>2026-04-29T18:40:31.065Z</time></trkpt><trkpt lat="43.26097636186874" lon="10.544026660010742"><ele>6.0</ele><time>2026-04-29T18:40:32.065Z</time></trkpt><trkpt lat="43.26126539882781" lon="10.543904100961138"><ele>6.0</ele><time>2026-04-29T18:40:33.065Z</time></trkpt><trkpt lat="43.26155412013723" lon="10.543782372064191"><ele>6.0</ele><time>2026-04-29T18:40:34.065Z</time></trkpt><trkpt lat="43.26183842604748" lon="10.543658937298277"><ele>6.0</ele><time>2026-04-29T18:40:35.065Z</time></trkpt><trkpt lat="43.26212074266527" lon="10.54353538345942"><ele>6.0</ele><time>2026-04-29T18:40:36.065Z</time></trkpt><trkpt lat="43.262402130101286" lon="10.543416504234312"><ele>6.0</ele><time>2026-04-29T18:40:37.065Z</time></trkpt><trkpt lat="43.26268227270687" lon="10.543300114971082"><ele>6.0</ele><time>2026-04-29T18:40:38.065Z</time></trkpt><trkpt lat="43.26295886159584" lon="10.543186854963478"><ele>6.0</ele><time>2026-04-29T18:40:39.065Z</time></trkpt><trkpt lat="43.2632342812585" lon="10.543077147307246"><ele>6.0</ele><time>2026-04-29T18:40:40.068Z</time></trkpt><trkpt lat="43.263507404583855" lon="10.542971156366908"><ele>6.0</ele><time>2026-04-29T18:40:41.066Z</time></trkpt><trkpt lat="43.263781327488864" lon="10.54286945246157"><ele>6.5</ele><time>2026-04-29T18:40:42.066Z</time></trkpt><trkpt lat="43.2640536878608" lon="10.542768365729465"><ele>7.0</ele><time>2026-04-29T18:40:43.067Z</time></trkpt><trkpt lat="43.264325911225775" lon="10.542669444191382"><ele>7.0</ele><time>2026-04-29T18:40:44.067Z</time></trkpt><trkpt lat="43.264594862976836" lon="10.542569601381995"><ele>7.0</ele><time>2026-04-29T18:40:45.067Z</time></trkpt><trkpt lat="43.26486385008822" lon="10.542471557241097"><ele>7.5</ele><time>2026-04-29T18:40:46.067Z</time></trkpt><trkpt lat="43.26513315219862" lon="10.54237259293776"><ele>8.0</ele><time>2026-04-29T18:40:47.067Z</time></trkpt><trkpt lat="43.26540080187316" lon="10.542275910185738"><ele>8.5</ele><time>2026-04-29T18:40:48.067Z</time></trkpt><trkpt lat="43.2656731209732" lon="10.542177004616017"><ele>9.0</ele><time>2026-04-29T18:40:49.063Z</time></trkpt><trkpt lat="43.26594171279147" lon="10.542076209326343"><ele>9.0</ele><time>2026-04-29T18:40:50.061Z</time></trkpt><trkpt lat="43.26621028700376" lon="10.541976863345361"><ele>9.0</ele><time>2026-04-29T18:40:51.058Z</time></trkpt><trkpt lat="43.2664803784256" lon="10.541878744705798"><ele>9.0</ele><time>2026-04-29T18:40:52.057Z</time></trkpt><trkpt lat="43.26675383668258" lon="10.541781720893923"><ele>9.0</ele><time>2026-04-29T18:40:53.055Z</time></trkpt><trkpt lat="43.26703110573646" lon="10.541680842721327"><ele>9.5</ele><time>2026-04-29T18:40:54.053Z</time></trkpt><trkpt lat="43.26730016826618" lon="10.541587217700796"><ele>10.0</ele><time>2026-04-29T18:40:55.051Z</time></trkpt><trkpt lat="43.26757644811939" lon="10.54148926478792"><ele>10.0</ele><time>2026-04-29T18:40:56.05Z</time></trkpt><trkpt lat="43.26785179797896" lon="10.541389336512495"><ele>10.0</ele><time>2026-04-29T18:40:57.048Z</time></trkpt><trkpt lat="43.26812994465114" lon="10.541293562017882"><ele>9.0</ele><time>2026-04-29T18:40:58.047Z</time></trkpt><trkpt lat="43.268405979333906" lon="10.541196883398205"><ele>8.0</ele><time>2026-04-29T18:40:59.045Z</time></trkpt><trkpt lat="43.26868530300696" lon="10.541095703940185"><ele>8.5</ele><time>2026-04-29T18:41:00.044Z</time></trkpt><trkpt lat="43.26896580079794" lon="10.540996905856467"><ele>9.0</ele><time>2026-04-29T18:41:01.043Z</time></trkpt><trkpt lat="43.269246060339185" lon="10.540895401664757"><ele>9.0</ele><time>2026-04-29T18:41:02.042Z</time></trkpt><trkpt lat="43.26952650650397" lon="10.540791724420716"><ele>9.0</ele><time>2026-04-29T18:41:03.041Z</time></trkpt><trkpt lat="43.26980580362188" lon="10.540687442916303"><ele>8.5</ele><time>2026-04-29T18:41:04.04Z</time></trkpt><trkpt lat="43.27008305226263" lon="10.540585992018505"><ele>8.0</ele><time>2026-04-29T18:41:05.039Z</time></trkpt><trkpt lat="43.27035720207096" lon="10.540481574925284"><ele>7.5</ele><time>2026-04-29T18:41:06.038Z</time></trkpt><trkpt lat="43.27063250441036" lon="10.540378937068342"><ele>7.0</ele><time>2026-04-29T18:41:07.037Z</time></trkpt><trkpt lat="43.27090839967492" lon="10.540272334339615"><ele>7.0</ele><time>2026-04-29T18:41:08.037Z</time></trkpt><trkpt lat="43.27118160533278" lon="10.54016966055351"><ele>7.0</ele><time>2026-04-29T18:41:09.036Z</time></trkpt><trkpt lat="43.271455329442226" lon="10.540067173529334"><ele>7.5</ele><time>2026-04-29T18:41:10.035Z</time></trkpt><trkpt lat="43.2717308231104" lon="10.53996629929049"><ele>8.0</ele><time>2026-04-29T18:41:11.035Z</time></trkpt><trkpt lat="43.272004928492336" lon="10.539869306267414"><ele>7.0</ele><time>2026-04-29T18:41:12.034Z</time></trkpt><trkpt lat="43.27227717625396" lon="10.53976579841919"><ele>6.0</ele><time>2026-04-29T18:41:13.034Z</time></trkpt><trkpt lat="43.27255070907673" lon="10.539661722796136"><ele>6.0</ele><time>2026-04-29T18:41:14.033Z</time></trkpt><trkpt lat="43.272824683326604" lon="10.53956000426371"><ele>6.0</ele><time>2026-04-29T18:41:15.033Z</time></trkpt><trkpt lat="43.2731015396891" lon="10.53945922296702"><ele>6.0</ele><time>2026-04-29T18:41:16.032Z</time></trkpt><trkpt lat="43.273376327158495" lon="10.53936066356952"><ele>6.0</ele><time>2026-04-29T18:41:17.032Z</time></trkpt><trkpt lat="43.273653586745276" lon="10.539276293326632"><ele>6.0</ele><time>2026-04-29T18:41:18.031Z</time></trkpt><trkpt lat="43.27393442469861" lon="10.539209333874348"><ele>6.0</ele><time>2026-04-29T18:41:19.031Z</time></trkpt><trkpt lat="43.27422088734706" lon="10.539161535801624"><ele>6.0</ele><time>2026-04-29T18:41:20.031Z</time></trkpt><trkpt lat="43.27450514460005" lon="10.539130131419208"><ele>6.0</ele><time>2026-04-29T18:41:21.03Z</time></trkpt><trkpt lat="43.27478548020559" lon="10.539108280478061"><ele>6.5</ele><time>2026-04-29T18:41:22.03Z</time></trkpt><trkpt lat="43.2750664229441" lon="10.53910092600626"><ele>7.0</ele><time>2026-04-29T18:41:23.03Z</time></trkpt><trkpt lat="43.2753482833856" lon="10.539104189083922"><ele>7.0</ele><time>2026-04-29T18:41:24.029Z</time></trkpt><trkpt lat="43.27563272386214" lon="10.539127996479733"><ele>7.0</ele><time>2026-04-29T18:41:25.029Z</time></trkpt><trkpt lat="43.2759108850966" lon="10.539163202319228"><ele>7.0</ele><time>2026-04-29T18:41:26.029Z</time></trkpt><trkpt lat="43.27618777187795" lon="10.539216863866399"><ele>7.0</ele><time>2026-04-29T18:41:27.029Z</time></trkpt><trkpt lat="43.27646144221766" lon="10.53927975300238"><ele>7.0</ele><time>2026-04-29T18:41:28.028Z</time></trkpt><trkpt lat="43.27673190429465" lon="10.539356528686158"><ele>7.0</ele><time>2026-04-29T18:41:29.028Z</time></trkpt><trkpt lat="43.27700087075825" lon="10.539448723058127"><ele>6.5</ele><time>2026-04-29T18:41:30.028Z</time></trkpt><trkpt lat="43.27726587288732" lon="10.539550625566578"><ele>6.0</ele><time>2026-04-29T18:41:31.028Z</time></trkpt><trkpt lat="43.27752825099649" lon="10.53965845498295"><ele>6.0</ele><time>2026-04-29T18:41:32.028Z</time></trkpt><trkpt lat="43.27779122436442" lon="10.539767391224654"><ele>6.0</ele><time>2026-04-29T18:41:33.027Z</time></trkpt><trkpt lat="43.278055036559294" lon="10.539876817109802"><ele>6.5</ele><time>2026-04-29T18:41:34.027Z</time></trkpt><trkpt lat="43.278319590163306" lon="10.539985356366085"><ele>7.0</ele><time>2026-04-29T18:41:35.027Z</time></trkpt><trkpt lat="43.278582329599416" lon="10.540091921769742"><ele>7.0</ele><time>2026-04-29T18:41:36.027Z</time></trkpt><trkpt lat="43.278845646438505" lon="10.540201776507521"><ele>7.0</ele><time>2026-04-29T18:41:37.027Z</time></trkpt><trkpt lat="43.279108969519456" lon="10.540308776280261"><ele>9.0</ele><time>2026-04-29T18:41:38.027Z</time></trkpt><trkpt lat="43.27937257234303" lon="10.54041515196533"><ele>11.0</ele><time>2026-04-29T18:41:39.027Z</time></trkpt><trkpt lat="43.27963735185393" lon="10.540527766702718"><ele>9.5</ele><time>2026-04-29T18:41:40.027Z</time></trkpt><trkpt lat="43.279902019101705" lon="10.540634269024244"><ele>8.0</ele><time>2026-04-29T18:41:41.026Z</time></trkpt><trkpt lat="43.28016666057826" lon="10.540742130729235"><ele>8.0</ele><time>2026-04-29T18:41:42.026Z</time></trkpt><trkpt lat="43.28043397452358" lon="10.540851928189051"><ele>8.0</ele><time>2026-04-29T18:41:43.026Z</time></trkpt><trkpt lat="43.280702241413735" lon="10.540959897040546"><ele>8.5</ele><time>2026-04-29T18:41:44.026Z</time></trkpt><trkpt lat="43.28096826157261" lon="10.541065530766007"><ele>9.0</ele><time>2026-04-29T18:41:45.026Z</time></trkpt><trkpt lat="43.28123754378372" lon="10.541178739429625"><ele>9.0</ele><time>2026-04-29T18:41:46.026Z</time></trkpt><trkpt lat="43.281503154393235" lon="10.541286962607698"><ele>9.0</ele><time>2026-04-29T18:41:47.026Z</time></trkpt><trkpt lat="43.28177267134749" lon="10.541397178369673"><ele>9.0</ele><time>2026-04-29T18:41:48.026Z</time></trkpt><trkpt lat="43.28204143605033" lon="10.541507179729352"><ele>9.0</ele><time>2026-04-29T18:41:49.026Z</time></trkpt><trkpt lat="43.2823099952378" lon="10.541611700081646"><ele>10.0</ele><time>2026-04-29T18:41:50.026Z</time></trkpt><trkpt lat="43.282581340910035" lon="10.541725043608658"><ele>11.0</ele><time>2026-04-29T18:41:51.026Z</time></trkpt><trkpt lat="43.282850405702646" lon="10.541835367336796"><ele>12.0</ele><time>2026-04-29T18:41:52.026Z</time></trkpt><trkpt lat="43.283122731437174" lon="10.541946124206413"><ele>13.0</ele><time>2026-04-29T18:41:53.026Z</time></trkpt><trkpt lat="43.28339304212533" lon="10.542059027314"><ele>13.0</ele><time>2026-04-29T18:41:54.026Z</time></trkpt><trkpt lat="43.28366577222235" lon="10.542169628430388"><ele>13.0</ele><time>2026-04-29T18:41:55.026Z</time></trkpt><trkpt lat="43.283937599825975" lon="10.542281893156604"><ele>13.0</ele><time>2026-04-29T18:41:56.026Z</time></trkpt><trkpt lat="43.28420921574965" lon="10.542393076761913"><ele>13.0</ele><time>2026-04-29T18:41:57.025Z</time></trkpt><trkpt lat="43.28448760636536" lon="10.542506420903864"><ele>13.0</ele><time>2026-04-29T18:41:58.025Z</time></trkpt><trkpt lat="43.284758941564796" lon="10.542606975154106"><ele>13.0</ele><time>2026-04-29T18:41:59.025Z</time></trkpt><trkpt lat="43.28503413503301" lon="10.542701172050998"><ele>12.0</ele><time>2026-04-29T18:42:00.025Z</time></trkpt><trkpt lat="43.28531077586325" lon="10.542785164274047"><ele>11.0</ele><time>2026-04-29T18:42:01.025Z</time></trkpt><trkpt lat="43.285591108320276" lon="10.542868455369627"><ele>11.0</ele><time>2026-04-29T18:42:02.025Z</time></trkpt><trkpt lat="43.28587297467012" lon="10.54294299656894"><ele>11.0</ele><time>2026-04-29T18:42:03.025Z</time></trkpt><trkpt lat="43.286157867564405" lon="10.543012545663053"><ele>11.5</ele><time>2026-04-29T18:42:04.025Z</time></trkpt><trkpt lat="43.28644188817874" lon="10.543077175788733"><ele>12.0</ele><time>2026-04-29T18:42:05.025Z</time></trkpt><trkpt lat="43.28672471133321" lon="10.543134058215491"><ele>12.0</ele><time>2026-04-29T18:42:06.025Z</time></trkpt><trkpt lat="43.287013496755534" lon="10.54318516942131"><ele>12.0</ele><time>2026-04-29T18:42:07.025Z</time></trkpt><trkpt lat="43.28729720691057" lon="10.543234010320685"><ele>12.0</ele><time>2026-04-29T18:42:08.025Z</time></trkpt><trkpt lat="43.28758162705979" lon="10.54328287129997"><ele>12.0</ele><time>2026-04-29T18:42:09.025Z</time></trkpt><trkpt lat="43.287868181115684" lon="10.543330562472798"><ele>12.0</ele><time>2026-04-29T18:42:10.025Z</time></trkpt><trkpt lat="43.288153143029795" lon="10.54337964909997"><ele>12.0</ele><time>2026-04-29T18:42:11.025Z</time></trkpt><trkpt lat="43.28843853054166" lon="10.543429715961828"><ele>12.0</ele><time>2026-04-29T18:42:12.025Z</time></trkpt><trkpt lat="43.28871970683265" lon="10.543479097065028"><ele>12.0</ele><time>2026-04-29T18:42:13.025Z</time></trkpt><trkpt lat="43.288998519932534" lon="10.543530821133757"><ele>12.0</ele><time>2026-04-29T18:42:14.025Z</time></trkpt><trkpt lat="43.28927386965258" lon="10.54358024258224"><ele>12.0</ele><time>2026-04-29T18:42:15.025Z</time></trkpt><trkpt lat="43.28955114184007" lon="10.543627420471335"><ele>13.0</ele><time>2026-04-29T18:42:16.025Z</time></trkpt><trkpt lat="43.28982451400132" lon="10.543674754932669"><ele>14.0</ele><time>2026-04-29T18:42:17.025Z</time></trkpt><trkpt lat="43.29009696211562" lon="10.543722523881824"><ele>14.0</ele><time>2026-04-29T18:42:18.025Z</time></trkpt><trkpt lat="43.290371458934615" lon="10.543771379300516"><ele>14.0</ele><time>2026-04-29T18:42:19.025Z</time></trkpt><trkpt lat="43.29063856468601" lon="10.543819766631662"><ele>16.0</ele><time>2026-04-29T18:42:20.025Z</time></trkpt><trkpt lat="43.29090693933779" lon="10.543870486128933"><ele>18.0</ele><time>2026-04-29T18:42:21.025Z</time></trkpt><trkpt lat="43.29117928488059" lon="10.543922448680366"><ele>18.0</ele><time>2026-04-29T18:42:22.025Z</time></trkpt><trkpt lat="43.29144687366777" lon="10.54397988864742"><ele>18.0</ele><time>2026-04-29T18:42:23.025Z</time></trkpt><trkpt lat="43.29171898673803" lon="10.54404345070652"><ele>18.0</ele><time>2026-04-29T18:42:24.025Z</time></trkpt><trkpt lat="43.291991261040295" lon="10.544110659638536"><ele>18.0</ele><time>2026-04-29T18:42:25.025Z</time></trkpt><trkpt lat="43.29226631263834" lon="10.544187694235966"><ele>18.5</ele><time>2026-04-29T18:42:26.025Z</time></trkpt><trkpt lat="43.2925419802133" lon="10.544271513132095"><ele>19.0</ele><time>2026-04-29T18:42:27.025Z</time></trkpt><trkpt lat="43.292814977330416" lon="10.544361942276387"><ele>19.0</ele><time>2026-04-29T18:42:28.025Z</time></trkpt><trkpt lat="43.293086126555146" lon="10.544456130367331"><ele>19.0</ele><time>2026-04-29T18:42:29.025Z</time></trkpt><trkpt lat="43.29335584664175" lon="10.544552125699102"><ele>18.5</ele><time>2026-04-29T18:42:30.025Z</time></trkpt><trkpt lat="43.2936271036096" lon="10.544655491528282"><ele>18.0</ele><time>2026-04-29T18:42:31.025Z</time></trkpt><trkpt lat="43.293895073596616" lon="10.544764898788324"><ele>18.0</ele><time>2026-04-29T18:42:32.025Z</time></trkpt><trkpt lat="43.294163350364535" lon="10.544884092197663"><ele>18.0</ele><time>2026-04-29T18:42:33.025Z</time></trkpt><trkpt lat="43.294433256138916" lon="10.545005688045402"><ele>18.0</ele><time>2026-04-29T18:42:34.025Z</time></trkpt><trkpt lat="43.294703404300485" lon="10.545127611465329"><ele>18.0</ele><time>2026-04-29T18:42:35.025Z</time></trkpt><trkpt lat="43.2949693722967" lon="10.545256147075504"><ele>20.0</ele><time>2026-04-29T18:42:36.025Z</time></trkpt><trkpt lat="43.295240077438564" lon="10.545382729668216"><ele>22.0</ele><time>2026-04-29T18:42:37.025Z</time></trkpt><trkpt lat="43.29551105031436" lon="10.545511785615618"><ele>23.0</ele><time>2026-04-29T18:42:38.025Z</time></trkpt><trkpt lat="43.295786010302876" lon="10.545640438328515"><ele>24.0</ele><time>2026-04-29T18:42:39.025Z</time></trkpt><trkpt lat="43.29605738135524" lon="10.545767192562556"><ele>24.0</ele><time>2026-04-29T18:42:40.025Z</time></trkpt><trkpt lat="43.296331986135996" lon="10.545897797402866"><ele>24.0</ele><time>2026-04-29T18:42:41.025Z</time></trkpt><trkpt lat="43.29659920583806" lon="10.546027285756203"><ele>25.0</ele><time>2026-04-29T18:42:42.025Z</time></trkpt><trkpt lat="43.29687217142253" lon="10.54614701487975"><ele>26.0</ele><time>2026-04-29T18:42:43.025Z</time></trkpt><trkpt lat="43.29714613928487" lon="10.546274979748384"><ele>26.0</ele><time>2026-04-29T18:42:44.025Z</time></trkpt><trkpt lat="43.29741669073125" lon="10.546400951271956"><ele>26.0</ele><time>2026-04-29T18:42:45.025Z</time></trkpt><trkpt lat="43.29769145559308" lon="10.546523724080506"><ele>26.0</ele><time>2026-04-29T18:42:46.026Z</time></trkpt><trkpt lat="43.29796794728617" lon="10.546651272792133"><ele>26.0</ele><time>2026-04-29T18:42:47.026Z</time></trkpt><trkpt lat="43.29824790277797" lon="10.54678118690779"><ele>25.0</ele><time>2026-04-29T18:42:48.026Z</time></trkpt><trkpt lat="43.29852493829256" lon="10.5469098205955"><ele>24.0</ele><time>2026-04-29T18:42:49.026Z</time></trkpt><trkpt lat="43.29880265732807" lon="10.54703853112664"><ele>26.0</ele><time>2026-04-29T18:42:50.026Z</time></trkpt><trkpt lat="43.299085269799" lon="10.547158673393175"><ele>28.0</ele><time>2026-04-29T18:42:51.026Z</time></trkpt><trkpt lat="43.29936616090686" lon="10.547249770268243"><ele>28.0</ele><time>2026-04-29T18:42:52.026Z</time></trkpt><trkpt lat="43.29964816677391" lon="10.547330834223072"><ele>28.0</ele><time>2026-04-29T18:42:53.026Z</time></trkpt><trkpt lat="43.299932125866235" lon="10.547401385927504"><ele>28.0</ele><time>2026-04-29T18:42:54.026Z</time></trkpt><trkpt lat="43.30021697690835" lon="10.547423936814555"><ele>28.0</ele><time>2026-04-29T18:42:55.026Z</time></trkpt><trkpt lat="43.30051192187832" lon="10.547427480115951"><ele>27.0</ele><time>2026-04-29T18:42:56.025Z</time></trkpt><trkpt lat="43.30080152269553" lon="10.547432519108037"><ele>26.0</ele><time>2026-04-29T18:42:57.025Z</time></trkpt><trkpt lat="43.30109294221241" lon="10.547417636283711"><ele>26.0</ele><time>2026-04-29T18:42:58.026Z</time></trkpt><trkpt lat="43.30138056033729" lon="10.547376689320442"><ele>26.0</ele><time>2026-04-29T18:42:59.026Z</time></trkpt><trkpt lat="43.3016713621121" lon="10.547332723802182"><ele>27.5</ele><time>2026-04-29T18:43:00.026Z</time></trkpt><trkpt lat="43.30196232770976" lon="10.547279044581373"><ele>29.0</ele><time>2026-04-29T18:43:01.026Z</time></trkpt><trkpt lat="43.30224999228146" lon="10.547214173951316"><ele>29.0</ele><time>2026-04-29T18:43:02.026Z</time></trkpt><trkpt lat="43.30253188658634" lon="10.54711143651416"><ele>29.0</ele><time>2026-04-29T18:43:03.026Z</time></trkpt><trkpt lat="43.30281548005355" lon="10.546987889957878"><ele>29.0</ele><time>2026-04-29T18:43:04.026Z</time></trkpt><trkpt lat="43.30309602472947" lon="10.546854547219375"><ele>29.0</ele><time>2026-04-29T18:43:05.026Z</time></trkpt><trkpt lat="43.303367372218176" lon="10.546703924200644"><ele>29.0</ele><time>2026-04-29T18:43:06.026Z</time></trkpt><trkpt lat="43.303637971017494" lon="10.54654429715052"><ele>29.0</ele><time>2026-04-29T18:43:07.026Z</time></trkpt><trkpt lat="43.30390497260882" lon="10.546366978114674"><ele>27.5</ele><time>2026-04-29T18:43:08.026Z</time></trkpt><trkpt lat="43.30416479282256" lon="10.546168691884478"><ele>26.0</ele><time>2026-04-29T18:43:09.026Z</time></trkpt><trkpt lat="43.30441489791784" lon="10.545948665596935"><ele>26.0</ele><time>2026-04-29T18:43:10.026Z</time></trkpt><trkpt lat="43.30465853593082" lon="10.545714174996993"><ele>26.0</ele><time>2026-04-29T18:43:11.026Z</time></trkpt><trkpt lat="43.30489876035867" lon="10.545463814807604"><ele>26.5</ele><time>2026-04-29T18:43:12.026Z</time></trkpt><trkpt lat="43.30513684710282" lon="10.545204782681596"><ele>27.0</ele><time>2026-04-29T18:43:13.026Z</time></trkpt><trkpt lat="43.30536854768715" lon="10.544934051001526"><ele>28.5</ele><time>2026-04-29T18:43:14.026Z</time></trkpt><trkpt lat="43.305600594748874" lon="10.544662091311718"><ele>30.0</ele><time>2026-04-29T18:43:15.026Z</time></trkpt><trkpt lat="43.30583614205878" lon="10.544393269806895"><ele>30.0</ele><time>2026-04-29T18:43:16.026Z</time></trkpt><trkpt lat="43.30607298301817" lon="10.544121657078712"><ele>30.0</ele><time>2026-04-29T18:43:17.026Z</time></trkpt><trkpt lat="43.306311752142555" lon="10.543854456523164"><ele>29.5</ele><time>2026-04-29T18:43:18.026Z</time></trkpt><trkpt lat="43.30655220949816" lon="10.543586781959828"><ele>29.0</ele><time>2026-04-29T18:43:19.026Z</time></trkpt><trkpt lat="43.3067852569092" lon="10.54331795430748"><ele>29.0</ele><time>2026-04-29T18:43:20.026Z</time></trkpt><trkpt lat="43.30702311953141" lon="10.54304937105135"><ele>29.0</ele><time>2026-04-29T18:43:21.026Z</time></trkpt><trkpt lat="43.30726039138623" lon="10.54278158218774"><ele>29.5</ele><time>2026-04-29T18:43:22.026Z</time></trkpt><trkpt lat="43.3074981908505" lon="10.54251442469351"><ele>30.0</ele><time>2026-04-29T18:43:23.025Z</time></trkpt><trkpt lat="43.30773428868327" lon="10.542248547579987"><ele>28.5</ele><time>2026-04-29T18:43:24.025Z</time></trkpt><trkpt lat="43.307971762987776" lon="10.541983445149901"><ele>27.0</ele><time>2026-04-29T18:43:25.025Z</time></trkpt><trkpt lat="43.30820829253474" lon="10.541721128809167"><ele>27.0</ele><time>2026-04-29T18:43:26.025Z</time></trkpt><trkpt lat="43.30843947512903" lon="10.541461718046351"><ele>27.0</ele><time>2026-04-29T18:43:27.025Z</time></trkpt><trkpt lat="43.30866748241948" lon="10.541195855332623"><ele>27.0</ele><time>2026-04-29T18:43:28.025Z</time></trkpt><trkpt lat="43.30889812121197" lon="10.540927285436707"><ele>27.0</ele><time>2026-04-29T18:43:29.025Z</time></trkpt><trkpt lat="43.309124464860105" lon="10.540656958191866"><ele>27.0</ele><time>2026-04-29T18:43:30.025Z</time></trkpt><trkpt lat="43.30935258624887" lon="10.54038718393032"><ele>27.0</ele><time>2026-04-29T18:43:31.025Z</time></trkpt><trkpt lat="43.309576079050764" lon="10.540119410619182"><ele>26.0</ele><time>2026-04-29T18:43:32.025Z</time></trkpt><trkpt lat="43.30980177891292" lon="10.539851526625883"><ele>25.0</ele><time>2026-04-29T18:43:33.025Z</time></trkpt><trkpt lat="43.31002896349012" lon="10.539586629884798"><ele>23.5</ele><time>2026-04-29T18:43:34.025Z</time></trkpt><trkpt lat="43.31025901605862" lon="10.539324899290092"><ele>22.0</ele><time>2026-04-29T18:43:35.025Z</time></trkpt><trkpt lat="43.310484382920684" lon="10.539070359570344"><ele>22.0</ele><time>2026-04-29T18:43:36.025Z</time></trkpt><trkpt lat="43.31071097220485" lon="10.538819147612976"><ele>22.0</ele><time>2026-04-29T18:43:37.025Z</time></trkpt><trkpt lat="43.31093071662115" lon="10.538570524079066"><ele>22.5</ele><time>2026-04-29T18:43:38.025Z</time></trkpt><trkpt lat="43.31115746381811" lon="10.53833124752196"><ele>23.0</ele><time>2026-04-29T18:43:39.025Z</time></trkpt><trkpt lat="43.31138613851974" lon="10.538097066601424"><ele>25.0</ele><time>2026-04-29T18:43:40.025Z</time></trkpt><trkpt lat="43.311612136578695" lon="10.537867988538205"><ele>27.0</ele><time>2026-04-29T18:43:41.025Z</time></trkpt><trkpt lat="43.31183902459518" lon="10.53764786698956"><ele>27.0</ele><time>2026-04-29T18:43:42.025Z</time></trkpt><trkpt lat="43.31207089872304" lon="10.537440107987038"><ele>27.0</ele><time>2026-04-29T18:43:43.025Z</time></trkpt><trkpt lat="43.31230630749612" lon="10.537243726570553"><ele>28.0</ele><time>2026-04-29T18:43:44.025Z</time></trkpt><trkpt lat="43.31254778648542" lon="10.537057925766911"><ele>29.0</ele><time>2026-04-29T18:43:45.025Z</time></trkpt><trkpt lat="43.312791942804786" lon="10.536873083580181"><ele>29.0</ele><time>2026-04-29T18:43:46.025Z</time></trkpt><trkpt lat="43.31303675626986" lon="10.536702071085674"><ele>29.0</ele><time>2026-04-29T18:43:47.025Z</time></trkpt><trkpt lat="43.31328351049301" lon="10.53652920634942"><ele>29.0</ele><time>2026-04-29T18:43:48.025Z</time></trkpt><trkpt lat="43.31353921174207" lon="10.536386542777237"><ele>29.0</ele><time>2026-04-29T18:43:49.025Z</time></trkpt><trkpt lat="43.31379230956766" lon="10.53624075012704"><ele>29.0</ele><time>2026-04-29T18:43:50.025Z</time></trkpt><trkpt lat="43.31405445705583" lon="10.536107858731707"><ele>29.0</ele><time>2026-04-29T18:43:51.025Z</time></trkpt><trkpt lat="43.31431486556448" lon="10.535969693061162"><ele>29.0</ele><time>2026-04-29T18:43:52.025Z</time></trkpt><trkpt lat="43.314574841199786" lon="10.53582924589339"><ele>29.0</ele><time>2026-04-29T18:43:53.025Z</time></trkpt><trkpt lat="43.31483743104019" lon="10.535680747040617"><ele>29.0</ele><time>2026-04-29T18:43:54.025Z</time></trkpt><trkpt lat="43.31510111698404" lon="10.535539049964438"><ele>29.0</ele><time>2026-04-29T18:43:55.025Z</time></trkpt><trkpt lat="43.315366660805466" lon="10.535395144867898"><ele>27.0</ele><time>2026-04-29T18:43:56.025Z</time></trkpt><trkpt lat="43.315635563520395" lon="10.535248263232933"><ele>25.0</ele><time>2026-04-29T18:43:57.025Z</time></trkpt><trkpt lat="43.31590653663124" lon="10.535099401051419"><ele>25.0</ele><time>2026-04-29T18:43:58.025Z</time></trkpt><trkpt lat="43.31617779926257" lon="10.534952072493036"><ele>25.0</ele><time>2026-04-29T18:43:59.025Z</time></trkpt><trkpt lat="43.3164484645685" lon="10.534804557324847"><ele>20.5</ele><time>2026-04-29T18:44:00.025Z</time></trkpt><trkpt lat="43.31671699208116" lon="10.534655684360748"><ele>16.0</ele><time>2026-04-29T18:44:01.025Z</time></trkpt><trkpt lat="43.316987271675444" lon="10.534505864388734"><ele>15.5</ele><time>2026-04-29T18:44:02.025Z</time></trkpt><trkpt lat="43.31725309110123" lon="10.53435787233803"><ele>15.0</ele><time>2026-04-29T18:44:03.025Z</time></trkpt><trkpt lat="43.317518945824325" lon="10.534212701854978"><ele>15.0</ele><time>2026-04-29T18:44:04.025Z</time></trkpt><trkpt lat="43.31778301517106" lon="10.534068288585"><ele>15.0</ele><time>2026-04-29T18:44:05.025Z</time></trkpt><trkpt lat="43.31804501070207" lon="10.533919695042787"><ele>15.5</ele><time>2026-04-29T18:44:06.025Z</time></trkpt><trkpt lat="43.31830529704975" lon="10.533775663181189"><ele>16.0</ele><time>2026-04-29T18:44:07.025Z</time></trkpt><trkpt lat="43.318562601967585" lon="10.53363767674804"><ele>16.0</ele><time>2026-04-29T18:44:08.025Z</time></trkpt><trkpt lat="43.31882009332308" lon="10.533500128920672"><ele>16.0</ele><time>2026-04-29T18:44:09.025Z</time></trkpt><trkpt lat="43.31907910466304" lon="10.53335553725405"><ele>15.5</ele><time>2026-04-29T18:44:10.025Z</time></trkpt><trkpt lat="43.31933455402311" lon="10.533211459256744"><ele>15.0</ele><time>2026-04-29T18:44:11.025Z</time></trkpt><trkpt lat="43.319591784426805" lon="10.533068784501399"><ele>12.5</ele><time>2026-04-29T18:44:12.025Z</time></trkpt><trkpt lat="43.31985110606285" lon="10.532924104854837"><ele>10.0</ele><time>2026-04-29T18:44:13.025Z</time></trkpt><trkpt lat="43.320109296095616" lon="10.532782250416208"><ele>10.0</ele><time>2026-04-29T18:44:14.025Z</time></trkpt><trkpt lat="43.32036704763001" lon="10.532635198287382"><ele>10.0</ele><time>2026-04-29T18:44:15.025Z</time></trkpt><trkpt lat="43.320627792582336" lon="10.532493112391437"><ele>10.0</ele><time>2026-04-29T18:44:16.025Z</time></trkpt><trkpt lat="43.320891846940754" lon="10.532353024624442"><ele>10.0</ele><time>2026-04-29T18:44:17.025Z</time></trkpt><trkpt lat="43.32115359556369" lon="10.532211093255379"><ele>9.5</ele><time>2026-04-29T18:44:18.025Z</time></trkpt><trkpt lat="43.32141919331984" lon="10.532063735652375"><ele>9.0</ele><time>2026-04-29T18:44:19.025Z</time></trkpt><trkpt lat="43.32168507432798" lon="10.531912584093384"><ele>8.0</ele><time>2026-04-29T18:44:20.025Z</time></trkpt><trkpt lat="43.32195474555511" lon="10.531760649620079"><ele>7.0</ele><time>2026-04-29T18:44:21.025Z</time></trkpt><trkpt lat="43.32222480030923" lon="10.531610255562265"><ele>6.0</ele><time>2026-04-29T18:44:22.025Z</time></trkpt><trkpt lat="43.322493784872755" lon="10.531459223498159"><ele>5.0</ele><time>2026-04-29T18:44:23.025Z</time></trkpt><trkpt lat="43.322766516280474" lon="10.531308480154015"><ele>5.5</ele><time>2026-04-29T18:44:24.025Z</time></trkpt><trkpt lat="43.32303685950172" lon="10.531155941477897"><ele>6.0</ele><time>2026-04-29T18:44:25.025Z</time></trkpt><trkpt lat="43.32331023967836" lon="10.531005260027476"><ele>5.0</ele><time>2026-04-29T18:44:26.025Z</time></trkpt><trkpt lat="43.323581980364885" lon="10.53085212978466"><ele>4.0</ele><time>2026-04-29T18:44:27.025Z</time></trkpt><trkpt lat="43.32385215332914" lon="10.530698815699807"><ele>4.5</ele><time>2026-04-29T18:44:28.025Z</time></trkpt><trkpt lat="43.32412096736887" lon="10.530545691832552"><ele>5.0</ele><time>2026-04-29T18:44:29.025Z</time></trkpt><trkpt lat="43.32438927762967" lon="10.530386912332588"><ele>5.0</ele><time>2026-04-29T18:44:30.025Z</time></trkpt><trkpt lat="43.3246567321164" lon="10.530226914192154"><ele>5.0</ele><time>2026-04-29T18:44:31.025Z</time></trkpt><trkpt lat="43.3249218764567" lon="10.530066014834718"><ele>5.5</ele><time>2026-04-29T18:44:32.025Z</time></trkpt><trkpt lat="43.325188068047915" lon="10.529908484649834"><ele>6.0</ele><time>2026-04-29T18:44:33.025Z</time></trkpt><trkpt lat="43.32544867274265" lon="10.529747907054197"><ele>6.5</ele><time>2026-04-29T18:44:34.025Z</time></trkpt><trkpt lat="43.32570924368624" lon="10.529590543737225"><ele>7.0</ele><time>2026-04-29T18:44:35.025Z</time></trkpt><trkpt lat="43.32596774944295" lon="10.529427961730013"><ele>7.0</ele><time>2026-04-29T18:44:36.025Z</time></trkpt><trkpt lat="43.32622575751806" lon="10.529267549200844"><ele>7.0</ele><time>2026-04-29T18:44:37.025Z</time></trkpt><trkpt lat="43.32647895380781" lon="10.529104346736641"><ele>7.5</ele><time>2026-04-29T18:44:38.025Z</time></trkpt><trkpt lat="43.326728580412805" lon="10.528941000694141"><ele>8.0</ele><time>2026-04-29T18:44:39.025Z</time></trkpt><trkpt lat="43.32697938087657" lon="10.5287821121424"><ele>8.0</ele><time>2026-04-29T18:44:40.025Z</time></trkpt><trkpt lat="43.32723005671796" lon="10.52861844363894"><ele>8.0</ele><time>2026-04-29T18:44:41.025Z</time></trkpt><trkpt lat="43.32748038542017" lon="10.528460659419133"><ele>8.0</ele><time>2026-04-29T18:44:42.025Z</time></trkpt><trkpt lat="43.32772898817782" lon="10.528300215372559"><ele>8.0</ele><time>2026-04-29T18:44:43.025Z</time></trkpt><trkpt lat="43.327973977322074" lon="10.528141812159623"><ele>8.0</ele><time>2026-04-29T18:44:44.025Z</time></trkpt><trkpt lat="43.3282214418339" lon="10.52798283551444"><ele>8.0</ele><time>2026-04-29T18:44:45.025Z</time></trkpt><trkpt lat="43.328469230030564" lon="10.527827287342136"><ele>8.0</ele><time>2026-04-29T18:44:46.025Z</time></trkpt><trkpt lat="43.328720577163224" lon="10.527674546589655"><ele>8.0</ele><time>2026-04-29T18:44:47.025Z</time></trkpt><trkpt lat="43.32897528325935" lon="10.527528316088027"><ele>9.0</ele><time>2026-04-29T18:44:48.025Z</time></trkpt><trkpt lat="43.329234225497" lon="10.527387762008717"><ele>10.0</ele><time>2026-04-29T18:44:49.025Z</time></trkpt><trkpt lat="43.32949353440991" lon="10.527249433847482"><ele>10.5</ele><time>2026-04-29T18:44:50.025Z</time></trkpt><trkpt lat="43.32975690039464" lon="10.52711382266643"><ele>11.0</ele><time>2026-04-29T18:44:51.025Z</time></trkpt><trkpt lat="43.330022503222295" lon="10.526981368857587"><ele>11.5</ele><time>2026-04-29T18:44:52.026Z</time></trkpt><trkpt lat="43.330287717470334" lon="10.526852176340602"><ele>12.0</ele><time>2026-04-29T18:44:53.027Z</time></trkpt><trkpt lat="43.33055910988531" lon="10.526734446214624"><ele>12.5</ele><time>2026-04-29T18:44:54.027Z</time></trkpt><trkpt lat="43.330830789046004" lon="10.526612544905017"><ele>13.0</ele><time>2026-04-29T18:44:55.026Z</time></trkpt><trkpt lat="43.3311029606356" lon="10.526499734631454"><ele>13.0</ele><time>2026-04-29T18:44:56.027Z</time></trkpt><trkpt lat="43.33137195374078" lon="10.526383748213224"><ele>13.0</ele><time>2026-04-29T18:44:57.027Z</time></trkpt><trkpt lat="43.33164162980111" lon="10.526263066255375"><ele>13.0</ele><time>2026-04-29T18:44:58.026Z</time></trkpt><trkpt lat="43.33190961043784" lon="10.526141593102539"><ele>13.0</ele><time>2026-04-29T18:44:59.026Z</time></trkpt><trkpt lat="43.33217565994795" lon="10.52602167670158"><ele>14.5</ele><time>2026-04-29T18:45:00.026Z</time></trkpt><trkpt lat="43.332443771808194" lon="10.525901717076762"><ele>16.0</ele><time>2026-04-29T18:45:01.026Z</time></trkpt><trkpt lat="43.332708721497184" lon="10.525778008154768"><ele>16.0</ele><time>2026-04-29T18:45:02.027Z</time></trkpt><trkpt lat="43.332980701949424" lon="10.52565993851387"><ele>16.0</ele><time>2026-04-29T18:45:03.027Z</time></trkpt><trkpt lat="43.333250309861036" lon="10.525535666279035"><ele>16.0</ele><time>2026-04-29T18:45:04.027Z</time></trkpt><trkpt lat="43.33351853260227" lon="10.525410715008608"><ele>16.0</ele><time>2026-04-29T18:45:05.026Z</time></trkpt><trkpt lat="43.33379125719658" lon="10.525280373315297"><ele>16.5</ele><time>2026-04-29T18:45:06.026Z</time></trkpt><trkpt lat="43.334066275440726" lon="10.525156902003276"><ele>17.0</ele><time>2026-04-29T18:45:07.026Z</time></trkpt><trkpt lat="43.33434024063788" lon="10.525037886711505"><ele>17.0</ele><time>2026-04-29T18:45:08.026Z</time></trkpt><trkpt lat="43.33461416965206" lon="10.524915639625549"><ele>17.0</ele><time>2026-04-29T18:45:09.026Z</time></trkpt><trkpt lat="43.33488541484519" lon="10.524798696626442"><ele>18.0</ele><time>2026-04-29T18:45:10.026Z</time></trkpt><trkpt lat="43.33515513481865" lon="10.524680601769894"><ele>19.0</ele><time>2026-04-29T18:45:11.026Z</time></trkpt><trkpt lat="43.33542131449243" lon="10.524559329736963"><ele>20.5</ele><time>2026-04-29T18:45:12.026Z</time></trkpt><trkpt lat="43.33568899173342" lon="10.524438662673282"><ele>22.0</ele><time>2026-04-29T18:45:13.026Z</time></trkpt><trkpt lat="43.335955117030714" lon="10.524319333806003"><ele>22.0</ele><time>2026-04-29T18:45:14.026Z</time></trkpt><trkpt lat="43.336221018680256" lon="10.5242001112349"><ele>22.0</ele><time>2026-04-29T18:45:15.026Z</time></trkpt><trkpt lat="43.336483364622296" lon="10.524076891337833"><ele>24.0</ele><time>2026-04-29T18:45:16.026Z</time></trkpt><trkpt lat="43.33674818592853" lon="10.523952844994227"><ele>26.0</ele><time>2026-04-29T18:45:17.026Z</time></trkpt><trkpt lat="43.33701161837044" lon="10.523825384657927"><ele>26.5</ele><time>2026-04-29T18:45:18.026Z</time></trkpt><trkpt lat="43.33727173672421" lon="10.523692283033352"><ele>27.0</ele><time>2026-04-29T18:45:19.026Z</time></trkpt><trkpt lat="43.33753185104271" lon="10.523556795398877"><ele>27.0</ele><time>2026-04-29T18:45:20.026Z</time></trkpt><trkpt lat="43.337790197015245" lon="10.52341743615051"><ele>27.0</ele><time>2026-04-29T18:45:21.026Z</time></trkpt><trkpt lat="43.33804626739823" lon="10.52327135335831"><ele>28.5</ele><time>2026-04-29T18:45:22.026Z</time></trkpt><trkpt lat="43.33830266913794" lon="10.523122509480979"><ele>30.0</ele><time>2026-04-29T18:45:23.026Z</time></trkpt><trkpt lat="43.33854918377585" lon="10.52295877759258"><ele>30.5</ele><time>2026-04-29T18:45:24.026Z</time></trkpt><trkpt lat="43.33880084619137" lon="10.522806232450865"><ele>31.0</ele><time>2026-04-29T18:45:25.026Z</time></trkpt><trkpt lat="43.33905105296794" lon="10.522652890494347"><ele>31.0</ele><time>2026-04-29T18:45:26.026Z</time></trkpt><trkpt lat="43.33929984205638" lon="10.522497462942898"><ele>31.0</ele><time>2026-04-29T18:45:27.026Z</time></trkpt><trkpt lat="43.33954997244023" lon="10.522344361449607"><ele>33.5</ele><time>2026-04-29T18:45:28.026Z</time></trkpt><trkpt lat="43.33980085849004" lon="10.522185485921156"><ele>36.0</ele><time>2026-04-29T18:45:29.026Z</time></trkpt><trkpt lat="43.340054519093876" lon="10.52202593580115"><ele>36.0</ele><time>2026-04-29T18:45:30.026Z</time></trkpt><trkpt lat="43.34030403659584" lon="10.521871575194881"><ele>36.0</ele><time>2026-04-29T18:45:31.026Z</time></trkpt><trkpt lat="43.3405474107549" lon="10.521713146644732"><ele>37.5</ele><time>2026-04-29T18:45:32.026Z</time></trkpt><trkpt lat="43.34079381595848" lon="10.521558432768888"><ele>39.0</ele><time>2026-04-29T18:45:33.026Z</time></trkpt><trkpt lat="43.34103931145695" lon="10.52140691673121"><ele>39.0</ele><time>2026-04-29T18:45:34.026Z</time></trkpt><trkpt lat="43.34128367743061" lon="10.521255787459205"><ele>39.0</ele><time>2026-04-29T18:45:35.026Z</time></trkpt><trkpt lat="43.34152986689614" lon="10.521111007290468"><ele>39.5</ele><time>2026-04-29T18:45:36.026Z</time></trkpt><trkpt lat="43.34177172618368" lon="10.520949646741096"><ele>40.0</ele><time>2026-04-29T18:45:37.026Z</time></trkpt><trkpt lat="43.342010653657724" lon="10.520803028576946"><ele>39.5</ele><time>2026-04-29T18:45:38.026Z</time></trkpt><trkpt lat="43.3422493961865" lon="10.520650421170826"><ele>39.0</ele><time>2026-04-29T18:45:39.026Z</time></trkpt><trkpt lat="43.34248880066853" lon="10.520493593100326"><ele>38.0</ele><time>2026-04-29T18:45:40.025Z</time></trkpt><trkpt lat="43.34272520463808" lon="10.520337577826727"><ele>37.0</ele><time>2026-04-29T18:45:41.025Z</time></trkpt><trkpt lat="43.34296801266002" lon="10.520173167817335"><ele>38.0</ele><time>2026-04-29T18:45:42.025Z</time></trkpt><trkpt lat="43.34320859395112" lon="10.520005615087781"><ele>39.0</ele><time>2026-04-29T18:45:43.025Z</time></trkpt><trkpt lat="43.343453282731204" lon="10.519833980824346"><ele>39.0</ele><time>2026-04-29T18:45:44.025Z</time></trkpt><trkpt lat="43.34369883391234" lon="10.519663288910877"><ele>39.0</ele><time>2026-04-29T18:45:45.025Z</time></trkpt><trkpt lat="43.34394264393897" lon="10.519490238859312"><ele>40.0</ele><time>2026-04-29T18:45:46.025Z</time></trkpt><trkpt lat="43.34418866851053" lon="10.519309321253424"><ele>41.0</ele><time>2026-04-29T18:45:47.025Z</time></trkpt><trkpt lat="43.34443329745482" lon="10.519125442533824"><ele>41.0</ele><time>2026-04-29T18:45:48.025Z</time></trkpt><trkpt lat="43.34467302578402" lon="10.518935047029544"><ele>41.0</ele><time>2026-04-29T18:45:49.025Z</time></trkpt><trkpt lat="43.34491763637012" lon="10.518739030902266"><ele>41.5</ele><time>2026-04-29T18:45:50.025Z</time></trkpt><trkpt lat="43.345161157860325" lon="10.518545713621922"><ele>42.0</ele><time>2026-04-29T18:45:51.025Z</time></trkpt><trkpt lat="43.34540415329328" lon="10.518352119860014"><ele>43.5</ele><time>2026-04-29T18:45:52.025Z</time></trkpt><trkpt lat="43.34564597202692" lon="10.51816083175777"><ele>45.0</ele><time>2026-04-29T18:45:53.025Z</time></trkpt><trkpt lat="43.34589033694999" lon="10.517970578433072"><ele>45.0</ele><time>2026-04-29T18:45:54.025Z</time></trkpt><trkpt lat="43.346133263425" lon="10.51777781810088"><ele>45.0</ele><time>2026-04-29T18:45:55.025Z</time></trkpt><trkpt lat="43.34637237160896" lon="10.517586180790433"><ele>45.5</ele><time>2026-04-29T18:45:56.025Z</time></trkpt><trkpt lat="43.346616820037596" lon="10.517395308151386"><ele>46.0</ele><time>2026-04-29T18:45:57.025Z</time></trkpt><trkpt lat="43.346862675364704" lon="10.517201673560963"><ele>45.5</ele><time>2026-04-29T18:45:58.025Z</time></trkpt><trkpt lat="43.34711148610554" lon="10.517007634420873"><ele>45.0</ele><time>2026-04-29T18:45:59.025Z</time></trkpt><trkpt lat="43.3473619505154" lon="10.516813047676608"><ele>45.0</ele><time>2026-04-29T18:46:00.025Z</time></trkpt><trkpt lat="43.34761828576908" lon="10.516620384376592"><ele>45.0</ele><time>2026-04-29T18:46:01.025Z</time></trkpt><trkpt lat="43.34787836860684" lon="10.516429198809515"><ele>46.0</ele><time>2026-04-29T18:46:02.025Z</time></trkpt><trkpt lat="43.348142450126204" lon="10.51624319532566"><ele>47.0</ele><time>2026-04-29T18:46:03.025Z</time></trkpt><trkpt lat="43.3484105837004" lon="10.51606337522752"><ele>47.0</ele><time>2026-04-29T18:46:04.025Z</time></trkpt><trkpt lat="43.34868429045251" lon="10.515891016441076"><ele>47.0</ele><time>2026-04-29T18:46:05.025Z</time></trkpt><trkpt lat="43.34896137647285" lon="10.515731622908449"><ele>47.0</ele><time>2026-04-29T18:46:06.025Z</time></trkpt><trkpt lat="43.349241313770975" lon="10.515582828339904"><ele>47.0</ele><time>2026-04-29T18:46:07.025Z</time></trkpt><trkpt lat="43.349528064524144" lon="10.515450775664684"><ele>46.0</ele><time>2026-04-29T18:46:08.025Z</time></trkpt><trkpt lat="43.34981632598765" lon="10.51532084869552"><ele>45.0</ele><time>2026-04-29T18:46:09.025Z</time></trkpt><trkpt lat="43.350106562436515" lon="10.515200696485659"><ele>45.0</ele><time>2026-04-29T18:46:10.025Z</time></trkpt><trkpt lat="43.350396653885554" lon="10.515083677767207"><ele>45.0</ele><time>2026-04-29T18:46:11.025Z</time></trkpt><trkpt lat="43.35069692747888" lon="10.514997528516094"><ele>46.5</ele><time>2026-04-29T18:46:12.025Z</time></trkpt><trkpt lat="43.35099909635581" lon="10.514910598834021"><ele>48.0</ele><time>2026-04-29T18:46:13.025Z</time></trkpt><trkpt lat="43.35129835090818" lon="10.514831491035144"><ele>47.5</ele><time>2026-04-29T18:46:14.025Z</time></trkpt><trkpt lat="43.35159945177706" lon="10.514752885123281"><ele>47.0</ele><time>2026-04-29T18:46:15.025Z</time></trkpt><trkpt lat="43.35189797089589" lon="10.51466879534465"><ele>47.0</ele><time>2026-04-29T18:46:16.025Z</time></trkpt><trkpt lat="43.352203818867466" lon="10.514585440644545"><ele>47.0</ele><time>2026-04-29T18:46:17.025Z</time></trkpt><trkpt lat="43.352512369983884" lon="10.514500827917368"><ele>47.0</ele><time>2026-04-29T18:46:18.025Z</time></trkpt><trkpt lat="43.352819462471885" lon="10.514411903530133"><ele>47.0</ele><time>2026-04-29T18:46:19.025Z</time></trkpt><trkpt lat="43.353125489684444" lon="10.51432745948025"><ele>47.0</ele><time>2026-04-29T18:46:20.025Z</time></trkpt><trkpt lat="43.353434859398675" lon="10.51424442687359"><ele>47.0</ele><time>2026-04-29T18:46:21.025Z</time></trkpt><trkpt lat="43.353741718510975" lon="10.514162611543657"><ele>47.0</ele><time>2026-04-29T18:46:22.025Z</time></trkpt><trkpt lat="43.35404960336334" lon="10.514080805115322"><ele>47.0</ele><time>2026-04-29T18:46:23.025Z</time></trkpt><trkpt lat="43.354350765636354" lon="10.513996688572773"><ele>47.0</ele><time>2026-04-29T18:46:24.025Z</time></trkpt><trkpt lat="43.35465149541715" lon="10.513907943667695"><ele>47.0</ele><time>2026-04-29T18:46:25.025Z</time></trkpt><trkpt lat="43.35494381130012" lon="10.513814170170633"><ele>47.5</ele><time>2026-04-29T18:46:26.025Z</time></trkpt><trkpt lat="43.35523670255432" lon="10.513705571816073"><ele>48.0</ele><time>2026-04-29T18:46:27.025Z</time></trkpt><trkpt lat="43.35552771912964" lon="10.513589925813248"><ele>49.5</ele><time>2026-04-29T18:46:28.025Z</time></trkpt><trkpt lat="43.355814558849836" lon="10.513458481552803"><ele>51.0</ele><time>2026-04-29T18:46:29.025Z</time></trkpt><trkpt lat="43.35609431464344" lon="10.513315336566638"><ele>51.0</ele><time>2026-04-29T18:46:30.025Z</time></trkpt><trkpt lat="43.35636942680158" lon="10.513161683220927"><ele>51.0</ele><time>2026-04-29T18:46:31.025Z</time></trkpt><trkpt lat="43.35664290506295" lon="10.513003766890735"><ele>49.0</ele><time>2026-04-29T18:46:32.025Z</time></trkpt><trkpt lat="43.3569099533959" lon="10.51283092637447"><ele>47.0</ele><time>2026-04-29T18:46:33.025Z</time></trkpt><trkpt lat="43.357172172270104" lon="10.512646582519553"><ele>48.5</ele><time>2026-04-29T18:46:34.025Z</time></trkpt><trkpt lat="43.35743382640715" lon="10.51245418084879"><ele>50.0</ele><time>2026-04-29T18:46:35.025Z</time></trkpt><trkpt lat="43.357689089118054" lon="10.5122485691299"><ele>50.0</ele><time>2026-04-29T18:46:36.025Z</time></trkpt><trkpt lat="43.357941087287564" lon="10.51203049387922"><ele>50.0</ele><time>2026-04-29T18:46:37.025Z</time></trkpt><trkpt lat="43.35819022451382" lon="10.511800900804513"><ele>50.0</ele><time>2026-04-29T18:46:38.025Z</time></trkpt><trkpt lat="43.35843107265002" lon="10.511560445488234"><ele>50.0</ele><time>2026-04-29T18:46:39.025Z</time></trkpt><trkpt lat="43.35867050220921" lon="10.511312898148594"><ele>47.0</ele><time>2026-04-29T18:46:40.025Z</time></trkpt><trkpt lat="43.35890672903866" lon="10.5110599881402"><ele>44.0</ele><time>2026-04-29T18:46:41.025Z</time></trkpt><trkpt lat="43.35914121749587" lon="10.510803705606108"><ele>44.0</ele><time>2026-04-29T18:46:42.025Z</time></trkpt><trkpt lat="43.359374023878246" lon="10.51054726475568"><ele>44.0</ele><time>2026-04-29T18:46:43.025Z</time></trkpt><trkpt lat="43.35960477142609" lon="10.510294263701486"><ele>46.5</ele><time>2026-04-29T18:46:44.025Z</time></trkpt><trkpt lat="43.35983498520684" lon="10.51004189930725"><ele>49.0</ele><time>2026-04-29T18:46:45.025Z</time></trkpt><trkpt lat="43.36006454114172" lon="10.50978898344369"><ele>47.5</ele><time>2026-04-29T18:46:46.025Z</time></trkpt><trkpt lat="43.36029832858253" lon="10.509547024142028"><ele>46.0</ele><time>2026-04-29T18:46:47.025Z</time></trkpt><trkpt lat="43.360521855482304" lon="10.50929529861111"><ele>46.5</ele><time>2026-04-29T18:46:48.025Z</time></trkpt><trkpt lat="43.36074917131646" lon="10.509048183238631"><ele>47.0</ele><time>2026-04-29T18:46:49.025Z</time></trkpt><trkpt lat="43.36097728192923" lon="10.508801053779797"><ele>46.0</ele><time>2026-04-29T18:46:50.025Z</time></trkpt><trkpt lat="43.36119898214182" lon="10.508552611978008"><ele>45.0</ele><time>2026-04-29T18:46:51.025Z</time></trkpt><trkpt lat="43.36142189133863" lon="10.508306043432443"><ele>45.0</ele><time>2026-04-29T18:46:52.025Z</time></trkpt><trkpt lat="43.36164077899875" lon="10.50806451952876"><ele>45.0</ele><time>2026-04-29T18:46:53.025Z</time></trkpt><trkpt lat="43.36185903050773" lon="10.507830845132396"><ele>45.0</ele><time>2026-04-29T18:46:54.025Z</time></trkpt><trkpt lat="43.36207603266113" lon="10.507609962741672"><ele>45.0</ele><time>2026-04-29T18:46:55.025Z</time></trkpt><trkpt lat="43.36230234737245" lon="10.507389731485189"><ele>45.5</ele><time>2026-04-29T18:46:56.025Z</time></trkpt><trkpt lat="43.36252753618825" lon="10.50717394208083"><ele>46.0</ele><time>2026-04-29T18:46:57.025Z</time></trkpt><trkpt lat="43.3627599926137" lon="10.506965558975415"><ele>46.0</ele><time>2026-04-29T18:46:58.027Z</time></trkpt><trkpt lat="43.36299502132998" lon="10.506763057099285"><ele>46.0</ele><time>2026-04-29T18:46:59.026Z</time></trkpt><trkpt lat="43.36323426817112" lon="10.506573638626694"><ele>46.5</ele><time>2026-04-29T18:47:00.026Z</time></trkpt><trkpt lat="43.36347285374688" lon="10.506396401967965"><ele>47.0</ele><time>2026-04-29T18:47:01.027Z</time></trkpt><trkpt lat="43.363716284386335" lon="10.506228435858972"><ele>47.0</ele><time>2026-04-29T18:47:02.027Z</time></trkpt><trkpt lat="43.3639615088567" lon="10.506071943849273"><ele>47.0</ele><time>2026-04-29T18:47:03.027Z</time></trkpt><trkpt lat="43.364209399166434" lon="10.505921583298115"><ele>47.0</ele><time>2026-04-29T18:47:04.027Z</time></trkpt><trkpt lat="43.364460286495074" lon="10.505789480481546"><ele>47.0</ele><time>2026-04-29T18:47:05.027Z</time></trkpt><trkpt lat="43.36471444439844" lon="10.505667512655242"><ele>47.0</ele><time>2026-04-29T18:47:06.027Z</time></trkpt><trkpt lat="43.36496779475503" lon="10.505560033391795"><ele>47.0</ele><time>2026-04-29T18:47:07.027Z</time></trkpt><trkpt lat="43.365222207656494" lon="10.50546353760232"><ele>47.5</ele><time>2026-04-29T18:47:08.027Z</time></trkpt><trkpt lat="43.36547284382799" lon="10.50537646553253"><ele>48.0</ele><time>2026-04-29T18:47:09.027Z</time></trkpt><trkpt lat="43.36572077860808" lon="10.50529501923426"><ele>48.0</ele><time>2026-04-29T18:47:10.027Z</time></trkpt><trkpt lat="43.36595521979137" lon="10.505223687755464"><ele>48.0</ele><time>2026-04-29T18:47:11.027Z</time></trkpt><trkpt lat="43.36619026947564" lon="10.505166557978525"><ele>47.5</ele><time>2026-04-29T18:47:12.027Z</time></trkpt><trkpt lat="43.366424452700244" lon="10.505112615511283"><ele>47.0</ele><time>2026-04-29T18:47:13.027Z</time></trkpt><trkpt lat="43.366648758433804" lon="10.505058583301162"><ele>47.0</ele><time>2026-04-29T18:47:14.027Z</time></trkpt><trkpt lat="43.36686123124846" lon="10.505008981558442"><ele>47.0</ele><time>2026-04-29T18:47:15.027Z</time></trkpt><trkpt lat="43.36706801239537" lon="10.504963361533116"><ele>47.0</ele><time>2026-04-29T18:47:16.027Z</time></trkpt><trkpt lat="43.367262039418776" lon="10.504919639862928"><ele>47.33333333333333</ele><time>2026-04-29T18:47:17.027Z</time></trkpt><trkpt lat="43.36745174212152" lon="10.504876384959195"><ele>47.666666666666664</ele><time>2026-04-29T18:47:18.027Z</time></trkpt><trkpt lat="43.367631558063586" lon="10.504832827955234"><ele>48.0</ele><time>2026-04-29T18:47:19.027Z</time></trkpt><trkpt lat="43.36780558928186" lon="10.504790472934648"><ele>48.0</ele><time>2026-04-29T18:47:20.027Z</time></trkpt><trkpt lat="43.367970969343325" lon="10.504752455570925"><ele>48.0</ele><time>2026-04-29T18:47:21.026Z</time></trkpt><trkpt lat="43.36812484659084" lon="10.504715073495515"><ele>48.0</ele><time>2026-04-29T18:47:22.026Z</time></trkpt><trkpt lat="43.36826845435583" lon="10.504679062255276"><ele>48.0</ele><time>2026-04-29T18:47:23.026Z</time></trkpt><trkpt lat="43.36839965182883" lon="10.504643433789546"><ele>48.0</ele><time>2026-04-29T18:47:24.026Z</time></trkpt><trkpt lat="43.36852109316351" lon="10.50461149089654"><ele>48.0</ele><time>2026-04-29T18:47:25.026Z</time></trkpt><trkpt lat="43.36863084102524" lon="10.504594430843156"><ele>48.0</ele><time>2026-04-29T18:47:26.026Z</time></trkpt><trkpt lat="43.36873195099421" lon="10.504591603857541"><ele>48.0</ele><time>2026-04-29T18:47:27.026Z</time></trkpt><trkpt lat="43.36882765210202" lon="10.50457544582295"><ele>48.0</ele><time>2026-04-29T18:47:28.026Z</time></trkpt><trkpt lat="43.36891217994906" lon="10.504560204070716"><ele>48.0</ele><time>2026-04-29T18:47:29.026Z</time></trkpt><trkpt lat="43.368989279770936" lon="10.504544646577788"><ele>48.0</ele><time>2026-04-29T18:47:30.026Z</time></trkpt><trkpt lat="43.369061446230866" lon="10.504529299699083"><ele>48.0</ele><time>2026-04-29T18:47:31.026Z</time></trkpt><trkpt lat="43.36912986378858" lon="10.504514181524465"><ele>48.0</ele><time>2026-04-29T18:47:32.026Z</time></trkpt><trkpt lat="43.36919954094145" lon="10.504498110122771"><ele>48.166666666666664</ele><time>2026-04-29T18:47:33.026Z</time></trkpt><trkpt lat="43.36926233477926" lon="10.504483626393494"><ele>48.33333333333333</ele><time>2026-04-29T18:47:34.026Z</time></trkpt><trkpt lat="43.36938438421357" lon="10.504455475080292"><ele>48.5</ele><time>2026-04-29T18:47:36.026Z</time></trkpt><trkpt lat="43.36944890586115" lon="10.504440557831385"><ele>48.666666666666664</ele><time>2026-04-29T18:47:37.026Z</time></trkpt><trkpt lat="43.3695135182958" lon="10.504425490986305"><ele>48.83333333333333</ele><time>2026-04-29T18:47:38.026Z</time></trkpt><trkpt lat="43.36960104048929" lon="10.504379439920555"><ele>49.0</ele><time>2026-04-29T18:47:39.026Z</time></trkpt><trkpt lat="43.36970548138341" lon="10.504358078842136"><ele>49.25</ele><time>2026-04-29T18:47:40.026Z</time></trkpt><trkpt lat="43.36981642552736" lon="10.504351076144923"><ele>49.5</ele><time>2026-04-29T18:47:41.026Z</time></trkpt><trkpt lat="43.3699383166763" lon="10.504320181609089"><ele>49.75</ele><time>2026-04-29T18:47:42.026Z</time></trkpt><trkpt lat="43.37006198051751" lon="10.504285870701164"><ele>50.0</ele><time>2026-04-29T18:47:43.026Z</time></trkpt><trkpt lat="43.370197615793984" lon="10.504259223387388"><ele>50.0</ele><time>2026-04-29T18:47:44.026Z</time></trkpt><trkpt lat="43.37034366172372" lon="10.504220424227999"><ele>50.0</ele><time>2026-04-29T18:47:45.026Z</time></trkpt><trkpt lat="43.37049690767531" lon="10.504181303000086"><ele>50.0</ele><time>2026-04-29T18:47:46.026Z</time></trkpt><trkpt lat="43.370661446262524" lon="10.504138236678747"><ele>49.66666666666667</ele><time>2026-04-29T18:47:47.026Z</time></trkpt><trkpt lat="43.37082851839762" lon="10.504094081228406"><ele>49.33333333333333</ele><time>2026-04-29T18:47:48.026Z</time></trkpt><trkpt lat="43.371005010279134" lon="10.504044595100371"><ele>49.0</ele><time>2026-04-29T18:47:49.026Z</time></trkpt><trkpt lat="43.371191198052685" lon="10.503990169209429"><ele>48.33333333333333</ele><time>2026-04-29T18:47:50.026Z</time></trkpt><trkpt lat="43.37137715708428" lon="10.50393169668482"><ele>47.666666666666664</ele><time>2026-04-29T18:47:51.026Z</time></trkpt><trkpt lat="43.37156883444926" lon="10.503863909303515"><ele>47.0</ele><time>2026-04-29T18:47:52.026Z</time></trkpt><trkpt lat="43.371762781426504" lon="10.503790410886783"><ele>46.666666666666664</ele><time>2026-04-29T18:47:53.026Z</time></trkpt><trkpt lat="43.37195882190513" lon="10.503713965182731"><ele>46.333333333333336</ele><time>2026-04-29T18:47:54.026Z</time></trkpt><trkpt lat="43.3721551295825" lon="10.503631553335195"><ele>46.0</ele><time>2026-04-29T18:47:55.026Z</time></trkpt><trkpt lat="43.37235433866368" lon="10.50353838322506"><ele>44.66666666666667</ele><time>2026-04-29T18:47:56.026Z</time></trkpt><trkpt lat="43.37255076150594" lon="10.503437156690794"><ele>43.333333333333336</ele><time>2026-04-29T18:47:57.026Z</time></trkpt><trkpt lat="43.3727489540583" lon="10.503326543793607"><ele>42.0</ele><time>2026-04-29T18:47:58.026Z</time></trkpt><trkpt lat="43.37294705208788" lon="10.503211075945737"><ele>42.666666666666664</ele><time>2026-04-29T18:47:59.026Z</time></trkpt><trkpt lat="43.37314697229032" lon="10.50308492057456"><ele>43.33333333333333</ele><time>2026-04-29T18:48:00.026Z</time></trkpt><trkpt lat="43.37334498240034" lon="10.502952499756569"><ele>44.0</ele><time>2026-04-29T18:48:01.026Z</time></trkpt><trkpt lat="43.37354182542594" lon="10.502807321335913"><ele>44.0</ele><time>2026-04-29T18:48:02.026Z</time></trkpt><trkpt lat="43.37373860608842" lon="10.502653697751771"><ele>44.0</ele><time>2026-04-29T18:48:03.026Z</time></trkpt><trkpt lat="43.373937708927116" lon="10.502488195416076"><ele>46.5</ele><time>2026-04-29T18:48:04.026Z</time></trkpt><trkpt lat="43.374134140986655" lon="10.502312323039689"><ele>49.0</ele><time>2026-04-29T18:48:05.026Z</time></trkpt><trkpt lat="43.37432947143765" lon="10.502120430352713"><ele>48.5</ele><time>2026-04-29T18:48:06.026Z</time></trkpt><trkpt lat="43.3745237833109" lon="10.501920253291178"><ele>48.0</ele><time>2026-04-29T18:48:07.026Z</time></trkpt><trkpt lat="43.3747139734315" lon="10.501705342307051"><ele>49.0</ele><time>2026-04-29T18:48:08.026Z</time></trkpt><trkpt lat="43.37490123267177" lon="10.501480396975355"><ele>50.0</ele><time>2026-04-29T18:48:09.026Z</time></trkpt><trkpt lat="43.37508639642438" lon="10.501247767332975"><ele>50.0</ele><time>2026-04-29T18:48:10.026Z</time></trkpt><trkpt lat="43.37526985795385" lon="10.501003186867603"><ele>50.0</ele><time>2026-04-29T18:48:11.026Z</time></trkpt><trkpt lat="43.37545149030693" lon="10.500751536160298"><ele>50.0</ele><time>2026-04-29T18:48:12.026Z</time></trkpt><trkpt lat="43.37563231486084" lon="10.500492906099447"><ele>50.0</ele><time>2026-04-29T18:48:13.026Z</time></trkpt><trkpt lat="43.37581024868075" lon="10.500231244233186"><ele>50.0</ele><time>2026-04-29T18:48:14.026Z</time></trkpt><trkpt lat="43.37598388588567" lon="10.499965618355128"><ele>50.0</ele><time>2026-04-29T18:48:15.026Z</time></trkpt><trkpt lat="43.37615904237374" lon="10.499700338201585"><ele>50.5</ele><time>2026-04-29T18:48:16.026Z</time></trkpt><trkpt lat="43.37633294916121" lon="10.499432361306198"><ele>51.0</ele><time>2026-04-29T18:48:17.026Z</time></trkpt><trkpt lat="43.37651125924163" lon="10.499166762626745"><ele>51.0</ele><time>2026-04-29T18:48:18.026Z</time></trkpt><trkpt lat="43.37669069421095" lon="10.498907851219025"><ele>51.0</ele><time>2026-04-29T18:48:19.026Z</time></trkpt><trkpt lat="43.37687296713626" lon="10.498648209747033"><ele>50.0</ele><time>2026-04-29T18:48:20.026Z</time></trkpt><trkpt lat="43.37705999707337" lon="10.498391582677337"><ele>49.0</ele><time>2026-04-29T18:48:21.026Z</time></trkpt><trkpt lat="43.37724902928614" lon="10.4981390984468"><ele>48.5</ele><time>2026-04-29T18:48:22.026Z</time></trkpt><trkpt lat="43.37743766913109" lon="10.497892521284768"><ele>48.0</ele><time>2026-04-29T18:48:23.026Z</time></trkpt><trkpt lat="43.37763082429119" lon="10.497646412903133"><ele>48.0</ele><time>2026-04-29T18:48:24.026Z</time></trkpt><trkpt lat="43.377827056665986" lon="10.497401563379972"><ele>48.0</ele><time>2026-04-29T18:48:25.026Z</time></trkpt><trkpt lat="43.37802223022431" lon="10.497163690789739"><ele>48.0</ele><time>2026-04-29T18:48:26.026Z</time></trkpt><trkpt lat="43.37821996765974" lon="10.496931805666172"><ele>48.0</ele><time>2026-04-29T18:48:27.026Z</time></trkpt><trkpt lat="43.37842176632265" lon="10.496705191882773"><ele>48.0</ele><time>2026-04-29T18:48:28.026Z</time></trkpt><trkpt lat="43.37862850511291" lon="10.496489658193376"><ele>48.0</ele><time>2026-04-29T18:48:29.026Z</time></trkpt><trkpt lat="43.37884111884838" lon="10.496275951946869"><ele>49.5</ele><time>2026-04-29T18:48:30.026Z</time></trkpt><trkpt lat="43.37905731332313" lon="10.496066350180746"><ele>51.0</ele><time>2026-04-29T18:48:31.026Z</time></trkpt><trkpt lat="43.37927685697568" lon="10.495864353474689"><ele>51.0</ele><time>2026-04-29T18:48:32.026Z</time></trkpt><trkpt lat="43.379502369675976" lon="10.495668567370855"><ele>51.0</ele><time>2026-04-29T18:48:33.026Z</time></trkpt><trkpt lat="43.37972966790976" lon="10.495478859551834"><ele>52.5</ele><time>2026-04-29T18:48:34.026Z</time></trkpt><trkpt lat="43.37996020051856" lon="10.495301167653345"><ele>54.0</ele><time>2026-04-29T18:48:35.026Z</time></trkpt><trkpt lat="43.38019603936917" lon="10.4951339166064"><ele>54.0</ele><time>2026-04-29T18:48:36.026Z</time></trkpt><trkpt lat="43.38043563656969" lon="10.49497281903751"><ele>54.0</ele><time>2026-04-29T18:48:37.026Z</time></trkpt><trkpt lat="43.38067889059874" lon="10.494821833707999"><ele>55.5</ele><time>2026-04-29T18:48:38.026Z</time></trkpt><trkpt lat="43.380930163662796" lon="10.494681524993036"><ele>57.0</ele><time>2026-04-29T18:48:39.026Z</time></trkpt><trkpt lat="43.381182649922806" lon="10.494548399488142"><ele>59.0</ele><time>2026-04-29T18:48:40.026Z</time></trkpt><trkpt lat="43.381438891815556" lon="10.494417190214472"><ele>61.0</ele><time>2026-04-29T18:48:41.026Z</time></trkpt><trkpt lat="43.3816847844089" lon="10.494278973409752"><ele>61.0</ele><time>2026-04-29T18:48:42.026Z</time></trkpt><trkpt lat="43.38194047832104" lon="10.494148833143942"><ele>61.0</ele><time>2026-04-29T18:48:43.026Z</time></trkpt><trkpt lat="43.38219093473124" lon="10.494014064931427"><ele>61.0</ele><time>2026-04-29T18:48:44.026Z</time></trkpt><trkpt lat="43.382439375204186" lon="10.493885110980754"><ele>61.0</ele><time>2026-04-29T18:48:45.026Z</time></trkpt><trkpt lat="43.38263728702299" lon="10.49368071294905"><ele>58.5</ele><time>2026-04-29T18:48:46.026Z</time></trkpt><trkpt lat="43.38288705336447" lon="10.493537529727043"><ele>56.0</ele><time>2026-04-29T18:48:47.026Z</time></trkpt><trkpt lat="43.38324882956059" lon="10.493771509862423"><ele>54.0</ele><time>2026-04-29T18:48:48.026Z</time></trkpt><trkpt lat="43.38359680334487" lon="10.493829327113435"><ele>52.0</ele><time>2026-04-29T18:48:49.026Z</time></trkpt><trkpt lat="43.38389173243255" lon="10.493838262906865"><ele>41.5</ele><time>2026-04-29T18:48:50.026Z</time></trkpt><trkpt lat="43.38416608557287" lon="10.49384569147613"><ele>31.0</ele><time>2026-04-29T18:48:51.026Z</time></trkpt><trkpt lat="43.38443797615179" lon="10.493851610093067"><ele>26.5</ele><time>2026-04-29T18:48:52.026Z</time></trkpt><trkpt lat="43.38471268708786" lon="10.493869665735481"><ele>22.0</ele><time>2026-04-29T18:48:53.026Z</time></trkpt><trkpt lat="43.38499104168401" lon="10.493898609421802"><ele>22.0</ele><time>2026-04-29T18:48:54.026Z</time></trkpt><trkpt lat="43.38526606345438" lon="10.493939218472967"><ele>22.0</ele><time>2026-04-29T18:48:55.026Z</time></trkpt><trkpt lat="43.38554204264208" lon="10.493985330934041"><ele>22.0</ele><time>2026-04-29T18:48:56.026Z</time></trkpt><trkpt lat="43.38582013626474" lon="10.494032007640259"><ele>22.0</ele><time>2026-04-29T18:48:57.026Z</time></trkpt><trkpt lat="43.38610211916439" lon="10.494088008547923"><ele>20.5</ele><time>2026-04-29T18:48:58.026Z</time></trkpt><trkpt lat="43.38638042349819" lon="10.494143899595032"><ele>19.0</ele><time>2026-04-29T18:48:59.026Z</time></trkpt><trkpt lat="43.38665939243613" lon="10.494200076571987"><ele>19.0</ele><time>2026-04-29T18:49:00.025Z</time></trkpt><trkpt lat="43.3869406688105" lon="10.494256241310095"><ele>19.0</ele><time>2026-04-29T18:49:01.025Z</time></trkpt><trkpt lat="43.387219525074734" lon="10.494307753451238"><ele>21.5</ele><time>2026-04-29T18:49:02.025Z</time></trkpt><trkpt lat="43.38750220465225" lon="10.49436138446693"><ele>24.0</ele><time>2026-04-29T18:49:03.025Z</time></trkpt><trkpt lat="43.38778591610621" lon="10.494415633817178"><ele>28.0</ele><time>2026-04-29T18:49:04.028Z</time></trkpt><trkpt lat="43.38806933736362" lon="10.494469402999401"><ele>32.0</ele><time>2026-04-29T18:49:05.027Z</time></trkpt><trkpt lat="43.388350770623155" lon="10.494520529903468"><ele>32.0</ele><time>2026-04-29T18:49:06.027Z</time></trkpt><trkpt lat="43.38863473090244" lon="10.49456930898299"><ele>32.0</ele><time>2026-04-29T18:49:07.027Z</time></trkpt><trkpt lat="43.388924320489615" lon="10.494615889095416"><ele>34.5</ele><time>2026-04-29T18:49:08.026Z</time></trkpt><trkpt lat="43.38921605649942" lon="10.494656118927882"><ele>37.0</ele><time>2026-04-29T18:49:09.026Z</time></trkpt><trkpt lat="43.389508228851945" lon="10.494688209937141"><ele>41.5</ele><time>2026-04-29T18:49:10.027Z</time></trkpt><trkpt lat="43.38980061768074" lon="10.49471262422016"><ele>46.0</ele><time>2026-04-29T18:49:11.027Z</time></trkpt><trkpt lat="43.39009414955577" lon="10.494728862249323"><ele>46.0</ele><time>2026-04-29T18:49:12.027Z</time></trkpt><trkpt lat="43.39039073976475" lon="10.494734737448422"><ele>46.0</ele><time>2026-04-29T18:49:13.027Z</time></trkpt><trkpt lat="43.3906929803522" lon="10.494739654329662"><ele>55.5</ele><time>2026-04-29T18:49:14.026Z</time></trkpt><trkpt lat="43.390988405679785" lon="10.494739260250963"><ele>65.0</ele><time>2026-04-29T18:49:15.026Z</time></trkpt><trkpt lat="43.39127968252975" lon="10.49473833403327"><ele>71.0</ele><time>2026-04-29T18:49:16.028Z</time></trkpt><trkpt lat="43.39156747702458" lon="10.494738493214903"><ele>77.0</ele><time>2026-04-29T18:49:17.027Z</time></trkpt><trkpt lat="43.39186263021657" lon="10.494738996878898"><ele>77.0</ele><time>2026-04-29T18:49:18.027Z</time></trkpt><trkpt lat="43.39215903782203" lon="10.494738801499597"><ele>77.0</ele><time>2026-04-29T18:49:19.027Z</time></trkpt><trkpt lat="43.39245458796643" lon="10.494737615325826"><ele>77.5</ele><time>2026-04-29T18:49:20.027Z</time></trkpt><trkpt lat="43.39274920335807" lon="10.494735921399274"><ele>78.0</ele><time>2026-04-29T18:49:21.027Z</time></trkpt><trkpt lat="43.39393025600202" lon="10.49438526266256"><ele>54.0</ele><time>2026-04-29T18:49:25.026Z</time></trkpt><trkpt lat="43.394229576052304" lon="10.494188724587167"><ele>30.0</ele><time>2026-04-29T18:49:26.026Z</time></trkpt><trkpt lat="43.39452686751224" lon="10.494082304491558"><ele>28.0</ele><time>2026-04-29T18:49:27.026Z</time></trkpt><trkpt lat="43.39481539466171" lon="10.493982613161718"><ele>26.0</ele><time>2026-04-29T18:49:28.026Z</time></trkpt><trkpt lat="43.39509474764846" lon="10.493873959566578"><ele>23.5</ele><time>2026-04-29T18:49:29.026Z</time></trkpt><trkpt lat="43.395373504070726" lon="10.493754213604332"><ele>21.0</ele><time>2026-04-29T18:49:30.026Z</time></trkpt><trkpt lat="43.39564880677909" lon="10.493630295352666"><ele>20.5</ele><time>2026-04-29T18:49:31.026Z</time></trkpt><trkpt lat="43.39592360549072" lon="10.493501851464424"><ele>20.0</ele><time>2026-04-29T18:49:32.026Z</time></trkpt><trkpt lat="43.39619810300171" lon="10.493372904305298"><ele>19.5</ele><time>2026-04-29T18:49:33.026Z</time></trkpt><trkpt lat="43.39647061348396" lon="10.493238088684173"><ele>19.0</ele><time>2026-04-29T18:49:34.026Z</time></trkpt><trkpt lat="43.396741811408454" lon="10.493094856550693"><ele>19.0</ele><time>2026-04-29T18:49:35.026Z</time></trkpt><trkpt lat="43.39700987867208" lon="10.492947222538389"><ele>19.0</ele><time>2026-04-29T18:49:36.026Z</time></trkpt><trkpt lat="43.39728109392007" lon="10.492790763480757"><ele>17.0</ele><time>2026-04-29T18:49:37.026Z</time></trkpt><trkpt lat="43.39755073907495" lon="10.492632324119954"><ele>15.0</ele><time>2026-04-29T18:49:38.026Z</time></trkpt><trkpt lat="43.397820367895775" lon="10.492470907020682"><ele>14.5</ele><time>2026-04-29T18:49:39.026Z</time></trkpt><trkpt lat="43.39808472602215" lon="10.49230947801908"><ele>14.0</ele><time>2026-04-29T18:49:40.026Z</time></trkpt><trkpt lat="43.39834459059293" lon="10.492146686860949"><ele>16.5</ele><time>2026-04-29T18:49:41.026Z</time></trkpt><trkpt lat="43.39860184640529" lon="10.491982745985872"><ele>19.0</ele><time>2026-04-29T18:49:42.026Z</time></trkpt><trkpt lat="43.39885497247572" lon="10.491820454414253"><ele>20.0</ele><time>2026-04-29T18:49:43.026Z</time></trkpt><trkpt lat="43.399105225111946" lon="10.491659833302053"><ele>21.0</ele><time>2026-04-29T18:49:44.026Z</time></trkpt><trkpt lat="43.39935619791562" lon="10.491494583255697"><ele>21.0</ele><time>2026-04-29T18:49:45.026Z</time></trkpt><trkpt lat="43.39960283729152" lon="10.491336616681037"><ele>21.0</ele><time>2026-04-29T18:49:46.026Z</time></trkpt><trkpt lat="43.39984913409812" lon="10.491184217158763"><ele>27.5</ele><time>2026-04-29T18:49:47.026Z</time></trkpt><trkpt lat="43.40009737185493" lon="10.491033728129288"><ele>34.0</ele><time>2026-04-29T18:49:48.026Z</time></trkpt><trkpt lat="43.40034942410399" lon="10.490890213746935"><ele>31.0</ele><time>2026-04-29T18:49:49.026Z</time></trkpt><trkpt lat="43.40060323956253" lon="10.49075493319639"><ele>28.0</ele><time>2026-04-29T18:49:50.026Z</time></trkpt><trkpt lat="43.40086086072224" lon="10.490630665032004"><ele>28.0</ele><time>2026-04-29T18:49:51.026Z</time></trkpt><trkpt lat="43.401120035859044" lon="10.49050848093861"><ele>28.0</ele><time>2026-04-29T18:49:52.026Z</time></trkpt><trkpt lat="43.40138257896955" lon="10.490392328223761"><ele>34.5</ele><time>2026-04-29T18:49:53.026Z</time></trkpt><trkpt lat="43.40165001255243" lon="10.490275340444846"><ele>41.0</ele><time>2026-04-29T18:49:54.026Z</time></trkpt><trkpt lat="43.40191877063278" lon="10.490180660910106"><ele>32.0</ele><time>2026-04-29T18:49:55.026Z</time></trkpt><trkpt lat="43.402196318705364" lon="10.49009766497195"><ele>23.0</ele><time>2026-04-29T18:49:56.026Z</time></trkpt><trkpt lat="43.40247825723898" lon="10.490027908165892"><ele>23.0</ele><time>2026-04-29T18:49:57.026Z</time></trkpt><trkpt lat="43.40276243195762" lon="10.489969308435338"><ele>23.0</ele><time>2026-04-29T18:49:58.026Z</time></trkpt><trkpt lat="43.40304329487523" lon="10.489928180813985"><ele>23.0</ele><time>2026-04-29T18:49:59.026Z</time></trkpt><trkpt lat="43.403326353332496" lon="10.489900771227488"><ele>23.0</ele><time>2026-04-29T18:50:00.026Z</time></trkpt><trkpt lat="43.40361211618493" lon="10.489881539687334"><ele>23.0</ele><time>2026-04-29T18:50:01.026Z</time></trkpt><trkpt lat="43.40389536540687" lon="10.489877852965297"><ele>23.0</ele><time>2026-04-29T18:50:02.026Z</time></trkpt><trkpt lat="43.40417780285623" lon="10.489885351354625"><ele>23.0</ele><time>2026-04-29T18:50:03.026Z</time></trkpt><trkpt lat="43.40446452781771" lon="10.489907774098576"><ele>23.0</ele><time>2026-04-29T18:50:04.026Z</time></trkpt><trkpt lat="43.40474173712213" lon="10.489945714418925"><ele>24.0</ele><time>2026-04-29T18:50:05.026Z</time></trkpt><trkpt lat="43.405022431092206" lon="10.489995950299182"><ele>25.0</ele><time>2026-04-29T18:50:06.026Z</time></trkpt><trkpt lat="43.40530212497416" lon="10.490053544257066"><ele>22.0</ele><time>2026-04-29T18:50:07.026Z</time></trkpt><trkpt lat="43.405582713022774" lon="10.490128504465186"><ele>19.0</ele><time>2026-04-29T18:50:08.026Z</time></trkpt><trkpt lat="43.40585921631712" lon="10.490217435130242"><ele>19.0</ele><time>2026-04-29T18:50:09.026Z</time></trkpt><trkpt lat="43.40613082181069" lon="10.490316883960476"><ele>19.0</ele><time>2026-04-29T18:50:10.026Z</time></trkpt><trkpt lat="43.40640212009425" lon="10.490424981175938"><ele>21.5</ele><time>2026-04-29T18:50:11.026Z</time></trkpt><trkpt lat="43.40666929921729" lon="10.490544119934215"><ele>24.0</ele><time>2026-04-29T18:50:12.026Z</time></trkpt><trkpt lat="43.40693640157882" lon="10.490673560747421"><ele>31.5</ele><time>2026-04-29T18:50:13.026Z</time></trkpt><trkpt lat="43.40720366605891" lon="10.490809923041933"><ele>39.0</ele><time>2026-04-29T18:50:14.026Z</time></trkpt><trkpt lat="43.407470108231465" lon="10.490949265449744"><ele>39.0</ele><time>2026-04-29T18:50:15.026Z</time></trkpt><trkpt lat="43.40773822211264" lon="10.491095450026739"><ele>39.0</ele><time>2026-04-29T18:50:16.026Z</time></trkpt><trkpt lat="43.40800861083895" lon="10.491246570092596"><ele>34.5</ele><time>2026-04-29T18:50:17.026Z</time></trkpt><trkpt lat="43.40827615193542" lon="10.491394968520781"><ele>30.0</ele><time>2026-04-29T18:50:18.026Z</time></trkpt><trkpt lat="43.40854200920714" lon="10.491545307616356"><ele>30.0</ele><time>2026-04-29T18:50:19.026Z</time></trkpt><trkpt lat="43.4088106445774" lon="10.491693734268104"><ele>30.0</ele><time>2026-04-29T18:50:20.026Z</time></trkpt><trkpt lat="43.409081663907116" lon="10.49184273087921"><ele>26.5</ele><time>2026-04-29T18:50:21.026Z</time></trkpt><trkpt lat="43.40935101827301" lon="10.491986758551668"><ele>23.0</ele><time>2026-04-29T18:50:22.026Z</time></trkpt><trkpt lat="43.409626807887165" lon="10.492132310409412"><ele>24.0</ele><time>2026-04-29T18:50:23.026Z</time></trkpt><trkpt lat="43.40990475440476" lon="10.492272697978645"><ele>25.0</ele><time>2026-04-29T18:50:24.026Z</time></trkpt><trkpt lat="43.41018277307665" lon="10.49240640187552"><ele>25.0</ele><time>2026-04-29T18:50:25.026Z</time></trkpt><trkpt lat="43.410463541633746" lon="10.492538361408794"><ele>25.0</ele><time>2026-04-29T18:50:26.026Z</time></trkpt><trkpt lat="43.4107468952422" lon="10.49266251257781"><ele>26.0</ele><time>2026-04-29T18:50:27.026Z</time></trkpt><trkpt lat="43.411029302593256" lon="10.4927800229741"><ele>27.0</ele><time>2026-04-29T18:50:28.026Z</time></trkpt><trkpt lat="43.411311394523125" lon="10.492887277985883"><ele>25.0</ele><time>2026-04-29T18:50:29.026Z</time></trkpt><trkpt lat="43.41159610131575" lon="10.492984053827508"><ele>23.0</ele><time>2026-04-29T18:50:30.026Z</time></trkpt><trkpt lat="43.41188034088678" lon="10.493069038930598"><ele>24.0</ele><time>2026-04-29T18:50:31.026Z</time></trkpt><trkpt lat="43.41216531096189" lon="10.493142381729161"><ele>25.0</ele><time>2026-04-29T18:50:32.026Z</time></trkpt><trkpt lat="43.412455846201205" lon="10.493208965186179"><ele>25.0</ele><time>2026-04-29T18:50:33.026Z</time></trkpt><trkpt lat="43.412745517132024" lon="10.49326367499942"><ele>25.0</ele><time>2026-04-29T18:50:34.026Z</time></trkpt><trkpt lat="43.41303446579013" lon="10.493306207691875"><ele>25.5</ele><time>2026-04-29T18:50:35.026Z</time></trkpt><trkpt lat="43.413325021403075" lon="10.493335192493602"><ele>26.0</ele><time>2026-04-29T18:50:36.026Z</time></trkpt><trkpt lat="43.413616638410915" lon="10.493348836161971"><ele>26.0</ele><time>2026-04-29T18:50:37.026Z</time></trkpt><trkpt lat="43.4139106441982" lon="10.493347166659506"><ele>26.0</ele><time>2026-04-29T18:50:38.026Z</time></trkpt><trkpt lat="43.414206749658426" lon="10.493332549007981"><ele>26.0</ele><time>2026-04-29T18:50:39.026Z</time></trkpt><trkpt lat="43.41450290825998" lon="10.493309510458303"><ele>26.0</ele><time>2026-04-29T18:50:40.026Z</time></trkpt><trkpt lat="43.41480263954055" lon="10.493270972359287"><ele>27.5</ele><time>2026-04-29T18:50:41.026Z</time></trkpt><trkpt lat="43.41509919888161" lon="10.493217907052756"><ele>29.0</ele><time>2026-04-29T18:50:42.026Z</time></trkpt><trkpt lat="43.41539414189046" lon="10.493148712283665"><ele>30.0</ele><time>2026-04-29T18:50:43.026Z</time></trkpt><trkpt lat="43.415683288427445" lon="10.493066912523233"><ele>31.0</ele><time>2026-04-29T18:50:44.026Z</time></trkpt><trkpt lat="43.41597054809281" lon="10.492971848562089"><ele>31.5</ele><time>2026-04-29T18:50:45.026Z</time></trkpt><trkpt lat="43.41625366270387" lon="10.492871073010443"><ele>32.0</ele><time>2026-04-29T18:50:46.026Z</time></trkpt><trkpt lat="43.416533068518305" lon="10.492766891084472"><ele>32.0</ele><time>2026-04-29T18:50:47.026Z</time></trkpt><trkpt lat="43.416812831822675" lon="10.492659148094557"><ele>32.0</ele><time>2026-04-29T18:50:48.026Z</time></trkpt><trkpt lat="43.417086380054975" lon="10.49254785595898"><ele>33.5</ele><time>2026-04-29T18:50:49.026Z</time></trkpt><trkpt lat="43.417360690381585" lon="10.492436898813837"><ele>35.0</ele><time>2026-04-29T18:50:50.026Z</time></trkpt><trkpt lat="43.41763359157478" lon="10.492323456398523"><ele>35.0</ele><time>2026-04-29T18:50:51.026Z</time></trkpt><trkpt lat="43.417904891263426" lon="10.492216971393637"><ele>35.0</ele><time>2026-04-29T18:50:52.026Z</time></trkpt><trkpt lat="43.41817832730504" lon="10.492110954140724"><ele>30.5</ele><time>2026-04-29T18:50:53.026Z</time></trkpt><trkpt lat="43.41844838498966" lon="10.492002808070781"><ele>26.0</ele><time>2026-04-29T18:50:54.026Z</time></trkpt><trkpt lat="43.418716206700005" lon="10.491897240719632"><ele>27.0</ele><time>2026-04-29T18:50:55.026Z</time></trkpt><trkpt lat="43.4189867551857" lon="10.491791657075396"><ele>28.0</ele><time>2026-04-29T18:50:56.026Z</time></trkpt><trkpt lat="43.4192582849018" lon="10.491687749435803"><ele>28.0</ele><time>2026-04-29T18:50:57.026Z</time></trkpt><trkpt lat="43.41952635583741" lon="10.491582825073186"><ele>28.0</ele><time>2026-04-29T18:50:58.026Z</time></trkpt><trkpt lat="43.419795377104116" lon="10.491475808471272"><ele>28.5</ele><time>2026-04-29T18:50:59.026Z</time></trkpt><trkpt lat="43.420065912376984" lon="10.491370359239202"><ele>29.0</ele><time>2026-04-29T18:51:00.026Z</time></trkpt><trkpt lat="43.42033188127651" lon="10.491262117607366"><ele>29.0</ele><time>2026-04-29T18:51:01.026Z</time></trkpt><trkpt lat="43.42059718604259" lon="10.491154953674432"><ele>29.0</ele><time>2026-04-29T18:51:02.026Z</time></trkpt><trkpt lat="43.420863718625206" lon="10.49104932528173"><ele>29.0</ele><time>2026-04-29T18:51:03.026Z</time></trkpt><trkpt lat="43.42113421938441" lon="10.490943216980032"><ele>29.0</ele><time>2026-04-29T18:51:04.025Z</time></trkpt><trkpt lat="43.42140582558549" lon="10.490836974584033"><ele>29.5</ele><time>2026-04-29T18:51:05.025Z</time></trkpt><trkpt lat="43.421677329658905" lon="10.490729618602916"><ele>30.0</ele><time>2026-04-29T18:51:06.025Z</time></trkpt><trkpt lat="43.42194770233478" lon="10.490625463440907"><ele>29.0</ele><time>2026-04-29T18:51:07.025Z</time></trkpt><trkpt lat="43.42221917799997" lon="10.490519851045557"><ele>28.0</ele><time>2026-04-29T18:51:08.025Z</time></trkpt><trkpt lat="43.42249024240456" lon="10.490413116032633"><ele>28.0</ele><time>2026-04-29T18:51:09.025Z</time></trkpt><trkpt lat="43.4227618754689" lon="10.490306251812735"><ele>28.0</ele><time>2026-04-29T18:51:10.027Z</time></trkpt><trkpt lat="43.42303012441869" lon="10.49019723512158"><ele>29.0</ele><time>2026-04-29T18:51:11.028Z</time></trkpt><trkpt lat="43.423300926286856" lon="10.490088474665049"><ele>30.0</ele><time>2026-04-29T18:51:12.028Z</time></trkpt><trkpt lat="43.42356971182341" lon="10.489980022381152"><ele>30.0</ele><time>2026-04-29T18:51:13.027Z</time></trkpt><trkpt lat="43.42384511590389" lon="10.489869683946957"><ele>30.0</ele><time>2026-04-29T18:51:14.028Z</time></trkpt><trkpt lat="43.42412012992604" lon="10.489759997844743"><ele>30.0</ele><time>2026-04-29T18:51:15.028Z</time></trkpt><trkpt lat="43.42438996954308" lon="10.48965291776527"><ele>30.0</ele><time>2026-04-29T18:51:16.028Z</time></trkpt><trkpt lat="43.424660997365564" lon="10.489543042230588"><ele>29.5</ele><time>2026-04-29T18:51:17.027Z</time></trkpt><trkpt lat="43.424931778356445" lon="10.48943634107427"><ele>29.0</ele><time>2026-04-29T18:51:18.027Z</time></trkpt><trkpt lat="43.42520443812922" lon="10.489329364359488"><ele>29.0</ele><time>2026-04-29T18:51:19.028Z</time></trkpt><trkpt lat="43.42547488144134" lon="10.48922131125382"><ele>29.0</ele><time>2026-04-29T18:51:20.027Z</time></trkpt><trkpt lat="43.42574593441393" lon="10.48911653028238"><ele>29.5</ele><time>2026-04-29T18:51:21.027Z</time></trkpt><trkpt lat="43.426013765622585" lon="10.489010995258084"><ele>30.0</ele><time>2026-04-29T18:51:22.028Z</time></trkpt><trkpt lat="43.426284080297265" lon="10.488907560966297"><ele>30.0</ele><time>2026-04-29T18:51:23.028Z</time></trkpt><trkpt lat="43.426550776494935" lon="10.488798465117766"><ele>30.0</ele><time>2026-04-29T18:51:24.028Z</time></trkpt><trkpt lat="43.42682073990575" lon="10.488689692860246"><ele>30.5</ele><time>2026-04-29T18:51:25.028Z</time></trkpt><trkpt lat="43.42708986033683" lon="10.488580910377225"><ele>31.0</ele><time>2026-04-29T18:51:26.028Z</time></trkpt><trkpt lat="43.42735847271444" lon="10.488474714516164"><ele>31.5</ele><time>2026-04-29T18:51:27.028Z</time></trkpt><trkpt lat="43.42762416140984" lon="10.488370144939239"><ele>32.0</ele><time>2026-04-29T18:51:28.028Z</time></trkpt><trkpt lat="43.42789415278144" lon="10.488265061347956"><ele>33.0</ele><time>2026-04-29T18:51:29.028Z</time></trkpt><trkpt lat="43.42816365522001" lon="10.488159876698857"><ele>34.0</ele><time>2026-04-29T18:51:30.028Z</time></trkpt><trkpt lat="43.428436708877655" lon="10.488053755781833"><ele>34.0</ele><time>2026-04-29T18:51:31.028Z</time></trkpt><trkpt lat="43.42870832974341" lon="10.487945617037873"><ele>34.0</ele><time>2026-04-29T18:51:32.028Z</time></trkpt><trkpt lat="43.42898101075038" lon="10.487836994639652"><ele>33.0</ele><time>2026-04-29T18:51:33.028Z</time></trkpt><trkpt lat="43.42925043304514" lon="10.487727975554233"><ele>32.0</ele><time>2026-04-29T18:51:34.028Z</time></trkpt><trkpt lat="43.42952073184681" lon="10.487621028548405"><ele>31.5</ele><time>2026-04-29T18:51:35.028Z</time></trkpt><trkpt lat="43.42979102352202" lon="10.487513949218078"><ele>31.0</ele><time>2026-04-29T18:51:36.028Z</time></trkpt><trkpt lat="43.43006447148051" lon="10.487408217008172"><ele>31.0</ele><time>2026-04-29T18:51:37.028Z</time></trkpt><trkpt lat="43.43033233215324" lon="10.487297190771399"><ele>31.0</ele><time>2026-04-29T18:51:38.028Z</time></trkpt><trkpt lat="43.43060200407343" lon="10.487190344794596"><ele>31.0</ele><time>2026-04-29T18:51:39.028Z</time></trkpt><trkpt lat="43.43087358237373" lon="10.487082530678256"><ele>31.0</ele><time>2026-04-29T18:51:40.028Z</time></trkpt><trkpt lat="43.431144930080954" lon="10.486974905012788"><ele>32.0</ele><time>2026-04-29T18:51:41.028Z</time></trkpt><trkpt lat="43.4314180312303" lon="10.486872226418106"><ele>33.0</ele><time>2026-04-29T18:51:42.028Z</time></trkpt><trkpt lat="43.4316894676191" lon="10.486772490424492"><ele>33.0</ele><time>2026-04-29T18:51:43.028Z</time></trkpt><trkpt lat="43.431963557345654" lon="10.48667523616399"><ele>33.0</ele><time>2026-04-29T18:51:44.028Z</time></trkpt><trkpt lat="43.43223735097402" lon="10.48658225926139"><ele>32.5</ele><time>2026-04-29T18:51:45.028Z</time></trkpt><trkpt lat="43.43251292719008" lon="10.486495846899997"><ele>32.0</ele><time>2026-04-29T18:51:46.028Z</time></trkpt><trkpt lat="43.43279008044347" lon="10.486417840426453"><ele>32.5</ele><time>2026-04-29T18:51:47.028Z</time></trkpt><trkpt lat="43.433067479688695" lon="10.486351606151457"><ele>33.0</ele><time>2026-04-29T18:51:48.028Z</time></trkpt><trkpt lat="43.43334733606384" lon="10.486298191957127"><ele>32.0</ele><time>2026-04-29T18:51:49.028Z</time></trkpt><trkpt lat="43.43363263801684" lon="10.486261430332858"><ele>31.0</ele><time>2026-04-29T18:51:50.028Z</time></trkpt><trkpt lat="43.433918377460884" lon="10.486236633140699"><ele>30.5</ele><time>2026-04-29T18:51:51.028Z</time></trkpt><trkpt lat="43.43420333147172" lon="10.486227007183418"><ele>30.0</ele><time>2026-04-29T18:51:52.028Z</time></trkpt><trkpt lat="43.43448747558187" lon="10.486228928584252"><ele>30.5</ele><time>2026-04-29T18:51:53.028Z</time></trkpt><trkpt lat="43.43477156681655" lon="10.486243531101826"><ele>31.0</ele><time>2026-04-29T18:51:54.028Z</time></trkpt><trkpt lat="43.435053435601155" lon="10.48626856201669"><ele>31.0</ele><time>2026-04-29T18:51:55.028Z</time></trkpt><trkpt lat="43.43533712069082" lon="10.486303888838773"><ele>31.0</ele><time>2026-04-29T18:51:56.028Z</time></trkpt><trkpt lat="43.435615874175035" lon="10.486351743939183"><ele>31.0</ele><time>2026-04-29T18:51:57.028Z</time></trkpt><trkpt lat="43.43589429027478" lon="10.486415162990468"><ele>31.0</ele><time>2026-04-29T18:51:58.027Z</time></trkpt><trkpt lat="43.43617065972235" lon="10.486490433247955"><ele>31.5</ele><time>2026-04-29T18:51:59.027Z</time></trkpt><trkpt lat="43.436443339473996" lon="10.486579788053515"><ele>32.0</ele><time>2026-04-29T18:52:00.027Z</time></trkpt><trkpt lat="43.436715470356226" lon="10.486682146969606"><ele>32.0</ele><time>2026-04-29T18:52:01.027Z</time></trkpt><trkpt lat="43.43698506426729" lon="10.486795835893558"><ele>32.0</ele><time>2026-04-29T18:52:02.027Z</time></trkpt><trkpt lat="43.437253682094415" lon="10.486920931583246"><ele>32.0</ele><time>2026-04-29T18:52:03.027Z</time></trkpt><trkpt lat="43.437517660931945" lon="10.487055922877884"><ele>32.0</ele><time>2026-04-29T18:52:04.027Z</time></trkpt><trkpt lat="43.43777715079084" lon="10.487207977252078"><ele>32.0</ele><time>2026-04-29T18:52:05.027Z</time></trkpt><trkpt lat="43.43803197710146" lon="10.487366473203094"><ele>32.0</ele><time>2026-04-29T18:52:06.027Z</time></trkpt><trkpt lat="43.43828342861071" lon="10.487536810221393"><ele>32.0</ele><time>2026-04-29T18:52:07.027Z</time></trkpt><trkpt lat="43.43853196122128" lon="10.48772202057742"><ele>32.0</ele><time>2026-04-29T18:52:08.027Z</time></trkpt><trkpt lat="43.43877458310814" lon="10.487914427450498"><ele>32.5</ele><time>2026-04-29T18:52:09.027Z</time></trkpt><trkpt lat="43.43901345614659" lon="10.488113494770824"><ele>33.0</ele><time>2026-04-29T18:52:10.027Z</time></trkpt><trkpt lat="43.43925206482759" lon="10.488323306655008"><ele>33.0</ele><time>2026-04-29T18:52:11.027Z</time></trkpt><trkpt lat="43.4394893497089" lon="10.488540427424468"><ele>33.0</ele><time>2026-04-29T18:52:12.027Z</time></trkpt><trkpt lat="43.439724969549225" lon="10.48876090852559"><ele>33.0</ele><time>2026-04-29T18:52:13.027Z</time></trkpt><trkpt lat="43.439956568175035" lon="10.488987720169613"><ele>33.0</ele><time>2026-04-29T18:52:14.027Z</time></trkpt><trkpt lat="43.440187235569056" lon="10.48922099537535"><ele>33.0</ele><time>2026-04-29T18:52:15.027Z</time></trkpt><trkpt lat="43.44040969418416" lon="10.48945082567023"><ele>33.0</ele><time>2026-04-29T18:52:16.027Z</time></trkpt><trkpt lat="43.440632662813115" lon="10.489683368240744"><ele>34.0</ele><time>2026-04-29T18:52:17.027Z</time></trkpt><trkpt lat="43.440854315742584" lon="10.489919432645998"><ele>35.0</ele><time>2026-04-29T18:52:18.027Z</time></trkpt><trkpt lat="43.441072261222594" lon="10.490157350728165"><ele>35.0</ele><time>2026-04-29T18:52:19.027Z</time></trkpt><trkpt lat="43.44128996903595" lon="10.490399914703737"><ele>35.0</ele><time>2026-04-29T18:52:20.027Z</time></trkpt><trkpt lat="43.44150731162588" lon="10.490642459561148"><ele>34.5</ele><time>2026-04-29T18:52:21.027Z</time></trkpt><trkpt lat="43.44172709031046" lon="10.49088625763931"><ele>34.0</ele><time>2026-04-29T18:52:22.027Z</time></trkpt><trkpt lat="43.441944474081104" lon="10.491124246199384"><ele>34.0</ele><time>2026-04-29T18:52:23.027Z</time></trkpt><trkpt lat="43.44216538182224" lon="10.49136643622514"><ele>34.0</ele><time>2026-04-29T18:52:24.027Z</time></trkpt><trkpt lat="43.44238756573493" lon="10.491601558016853"><ele>34.0</ele><time>2026-04-29T18:52:25.027Z</time></trkpt><trkpt lat="43.44261016098299" lon="10.491839527085961"><ele>34.0</ele><time>2026-04-29T18:52:26.027Z</time></trkpt><trkpt lat="43.44283694161062" lon="10.492072124051035"><ele>34.5</ele><time>2026-04-29T18:52:27.027Z</time></trkpt><trkpt lat="43.44306534319741" lon="10.49230303042184"><ele>35.0</ele><time>2026-04-29T18:52:28.027Z</time></trkpt><trkpt lat="43.44329774683032" lon="10.492532228522101"><ele>35.0</ele><time>2026-04-29T18:52:29.027Z</time></trkpt><trkpt lat="43.4435325466781" lon="10.492751332139564"><ele>35.0</ele><time>2026-04-29T18:52:30.027Z</time></trkpt><trkpt lat="43.44376904628471" lon="10.492967058777069"><ele>36.5</ele><time>2026-04-29T18:52:31.027Z</time></trkpt><trkpt lat="43.44400963994092" lon="10.493174972819785"><ele>38.0</ele><time>2026-04-29T18:52:32.027Z</time></trkpt><trkpt lat="43.4442520552424" lon="10.493376231691885"><ele>38.0</ele><time>2026-04-29T18:52:33.027Z</time></trkpt><trkpt lat="43.44449781408886" lon="10.493568813977385"><ele>38.0</ele><time>2026-04-29T18:52:34.027Z</time></trkpt><trkpt lat="43.4447465930184" lon="10.49375467553812"><ele>39.0</ele><time>2026-04-29T18:52:35.027Z</time></trkpt><trkpt lat="43.44499978435083" lon="10.493924030724244"><ele>40.0</ele><time>2026-04-29T18:52:36.027Z</time></trkpt><trkpt lat="43.445256340807134" lon="10.49408360669801"><ele>45.0</ele><time>2026-04-29T18:52:37.027Z</time></trkpt><trkpt lat="43.44551797757406" lon="10.494235550360955"><ele>50.0</ele><time>2026-04-29T18:52:38.027Z</time></trkpt><trkpt lat="43.44577799157728" lon="10.49437383343865"><ele>50.0</ele><time>2026-04-29T18:52:39.027Z</time></trkpt><trkpt lat="43.446044205178744" lon="10.494510446107215"><ele>50.0</ele><time>2026-04-29T18:52:40.027Z</time></trkpt><trkpt lat="43.44631632442529" lon="10.494642199181282"><ele>50.5</ele><time>2026-04-29T18:52:41.027Z</time></trkpt><trkpt lat="43.44659205608873" lon="10.494773469710113"><ele>51.0</ele><time>2026-04-29T18:52:42.027Z</time></trkpt><trkpt lat="43.44684415128775" lon="10.494893031156376"><ele>51.0</ele><time>2026-04-29T18:52:43.027Z</time></trkpt><trkpt lat="43.44710405687679" lon="10.495016876294898"><ele>51.0</ele><time>2026-04-29T18:52:44.027Z</time></trkpt><trkpt lat="43.44738216464217" lon="10.495046157680113"><ele>49.5</ele><time>2026-04-29T18:52:45.027Z</time></trkpt><trkpt lat="43.44768774957795" lon="10.495057998974929"><ele>48.0</ele><time>2026-04-29T18:52:46.027Z</time></trkpt><trkpt lat="43.447971345903966" lon="10.495095093724869"><ele>45.5</ele><time>2026-04-29T18:52:47.027Z</time></trkpt><trkpt lat="43.448254972853185" lon="10.495125701757276"><ele>43.0</ele><time>2026-04-29T18:52:48.027Z</time></trkpt><trkpt lat="43.448538210183465" lon="10.49514817667712"><ele>42.5</ele><time>2026-04-29T18:52:49.027Z</time></trkpt><trkpt lat="43.44882163119443" lon="10.495159998777764"><ele>42.0</ele><time>2026-04-29T18:52:50.027Z</time></trkpt><trkpt lat="43.44910358978767" lon="10.495158117638649"><ele>42.0</ele><time>2026-04-29T18:52:51.027Z</time></trkpt><trkpt lat="43.44938799789476" lon="10.49514137696639"><ele>42.0</ele><time>2026-04-29T18:52:52.027Z</time></trkpt><trkpt lat="43.44966850838516" lon="10.495116909921945"><ele>42.5</ele><time>2026-04-29T18:52:53.027Z</time></trkpt><trkpt lat="43.44995046200241" lon="10.49507838554262"><ele>43.0</ele><time>2026-04-29T18:52:54.027Z</time></trkpt><trkpt lat="43.450230088649484" lon="10.495038453792953"><ele>40.5</ele><time>2026-04-29T18:52:55.027Z</time></trkpt><trkpt lat="43.45050866709721" lon="10.494990848162907"><ele>38.0</ele><time>2026-04-29T18:52:56.027Z</time></trkpt><trkpt lat="43.45078768279651" lon="10.494940071867996"><ele>38.0</ele><time>2026-04-29T18:52:57.027Z</time></trkpt><trkpt lat="43.45106682895628" lon="10.49488380435845"><ele>38.0</ele><time>2026-04-29T18:52:58.027Z</time></trkpt><trkpt lat="43.45134442952513" lon="10.494823802770906"><ele>38.0</ele><time>2026-04-29T18:52:59.027Z</time></trkpt><trkpt lat="43.451621491066" lon="10.49476455206101"><ele>38.0</ele><time>2026-04-29T18:53:00.027Z</time></trkpt><trkpt lat="43.45190207845741" lon="10.494701458969962"><ele>37.5</ele><time>2026-04-29T18:53:01.027Z</time></trkpt><trkpt lat="43.452181034264825" lon="10.494639474904808"><ele>37.0</ele><time>2026-04-29T18:53:02.027Z</time></trkpt><trkpt lat="43.45246004918208" lon="10.494579444279019"><ele>38.0</ele><time>2026-04-29T18:53:03.027Z</time></trkpt><trkpt lat="43.45274063254344" lon="10.494521136636694"><ele>39.0</ele><time>2026-04-29T18:53:04.027Z</time></trkpt><trkpt lat="43.45302051844239" lon="10.494461233610563"><ele>39.5</ele><time>2026-04-29T18:53:05.027Z</time></trkpt><trkpt lat="43.45329783023635" lon="10.494398506763018"><ele>40.0</ele><time>2026-04-29T18:53:06.027Z</time></trkpt><trkpt lat="43.45357708267879" lon="10.494336781163254"><ele>39.5</ele><time>2026-04-29T18:53:07.027Z</time></trkpt><trkpt lat="43.453857022175825" lon="10.49427429261463"><ele>39.0</ele><time>2026-04-29T18:53:08.027Z</time></trkpt><trkpt lat="43.45413668988779" lon="10.494211283334717"><ele>39.0</ele><time>2026-04-29T18:53:09.027Z</time></trkpt><trkpt lat="43.454414044084544" lon="10.494150164578247"><ele>39.0</ele><time>2026-04-29T18:53:10.027Z</time></trkpt><trkpt lat="43.45469089588313" lon="10.49409133129833"><ele>39.0</ele><time>2026-04-29T18:53:11.027Z</time></trkpt><trkpt lat="43.45496955886072" lon="10.49403259592056"><ele>39.0</ele><time>2026-04-29T18:53:12.027Z</time></trkpt><trkpt lat="43.45524651198294" lon="10.49397146754208"><ele>38.5</ele><time>2026-04-29T18:53:13.027Z</time></trkpt><trkpt lat="43.4555232999817" lon="10.49391131141276"><ele>38.0</ele><time>2026-04-29T18:53:14.027Z</time></trkpt><trkpt lat="43.45580169110374" lon="10.493853053359572"><ele>38.0</ele><time>2026-04-29T18:53:15.027Z</time></trkpt><trkpt lat="43.456077622167506" lon="10.493792977270124"><ele>38.0</ele><time>2026-04-29T18:53:16.028Z</time></trkpt><trkpt lat="43.45635508112227" lon="10.493729899708713"><ele>39.5</ele><time>2026-04-29T18:53:17.027Z</time></trkpt><trkpt lat="43.45663286451719" lon="10.493667112042873"><ele>41.0</ele><time>2026-04-29T18:53:18.027Z</time></trkpt><trkpt lat="43.45690861131779" lon="10.493605777181036"><ele>40.0</ele><time>2026-04-29T18:53:19.028Z</time></trkpt><trkpt lat="43.45719225847315" lon="10.49354141172414"><ele>39.0</ele><time>2026-04-29T18:53:20.028Z</time></trkpt><trkpt lat="43.457469715914435" lon="10.493482706338837"><ele>39.0</ele><time>2026-04-29T18:53:21.028Z</time></trkpt><trkpt lat="43.457746664745976" lon="10.49342611972083"><ele>39.0</ele><time>2026-04-29T18:53:22.028Z</time></trkpt><trkpt lat="43.458025613863484" lon="10.493366847949586"><ele>40.0</ele><time>2026-04-29T18:53:23.027Z</time></trkpt><trkpt lat="43.45830435907803" lon="10.493305825016215"><ele>41.0</ele><time>2026-04-29T18:53:24.027Z</time></trkpt><trkpt lat="43.458581002621756" lon="10.493244249553898"><ele>41.0</ele><time>2026-04-29T18:53:25.027Z</time></trkpt><trkpt lat="43.45886070702574" lon="10.493182156763616"><ele>41.0</ele><time>2026-04-29T18:53:26.028Z</time></trkpt><trkpt lat="43.45914146119003" lon="10.49312210274748"><ele>41.0</ele><time>2026-04-29T18:53:27.028Z</time></trkpt><trkpt lat="43.459420353062036" lon="10.493059982282647"><ele>41.0</ele><time>2026-04-29T18:53:28.028Z</time></trkpt><trkpt lat="43.459697854999426" lon="10.492997071985585"><ele>41.0</ele><time>2026-04-29T18:53:29.028Z</time></trkpt><trkpt lat="43.459975448886844" lon="10.492937281730983"><ele>41.0</ele><time>2026-04-29T18:53:30.028Z</time></trkpt><trkpt lat="43.46025414114229" lon="10.492876842224065"><ele>41.5</ele><time>2026-04-29T18:53:31.028Z</time></trkpt><trkpt lat="43.460533580458055" lon="10.49281639947071"><ele>42.0</ele><time>2026-04-29T18:53:32.028Z</time></trkpt><trkpt lat="43.46081211740443" lon="10.492756028232428"><ele>42.0</ele><time>2026-04-29T18:53:33.028Z</time></trkpt><trkpt lat="43.46109172512446" lon="10.492696241003706"><ele>42.0</ele><time>2026-04-29T18:53:34.028Z</time></trkpt><trkpt lat="43.46137024903688" lon="10.492633055396928"><ele>42.0</ele><time>2026-04-29T18:53:35.028Z</time></trkpt><trkpt lat="43.46164783129591" lon="10.492569069718593"><ele>42.0</ele><time>2026-04-29T18:53:36.028Z</time></trkpt><trkpt lat="43.461926056941365" lon="10.492506726567639"><ele>42.0</ele><time>2026-04-29T18:53:37.028Z</time></trkpt><trkpt lat="43.46220527758558" lon="10.492447805057935"><ele>42.0</ele><time>2026-04-29T18:53:38.028Z</time></trkpt><trkpt lat="43.46248497024234" lon="10.492389329306421"><ele>42.0</ele><time>2026-04-29T18:53:39.028Z</time></trkpt><trkpt lat="43.46276362380219" lon="10.492330643149916"><ele>42.0</ele><time>2026-04-29T18:53:40.028Z</time></trkpt><trkpt lat="43.46304243751679" lon="10.49227120926851"><ele>42.0</ele><time>2026-04-29T18:53:41.028Z</time></trkpt><trkpt lat="43.46332380031966" lon="10.492206861333763"><ele>42.0</ele><time>2026-04-29T18:53:42.028Z</time></trkpt><trkpt lat="43.463603734777934" lon="10.492141466033797"><ele>43.5</ele><time>2026-04-29T18:53:43.028Z</time></trkpt><trkpt lat="43.463886002732" lon="10.492074912249311"><ele>45.0</ele><time>2026-04-29T18:53:44.028Z</time></trkpt><trkpt lat="43.46416840039669" lon="10.492008364799554"><ele>45.0</ele><time>2026-04-29T18:53:45.028Z</time></trkpt><trkpt lat="43.46445028703536" lon="10.491943456127125"><ele>45.0</ele><time>2026-04-29T18:53:46.028Z</time></trkpt><trkpt lat="43.4647314491993" lon="10.49187858043394"><ele>46.0</ele><time>2026-04-29T18:53:47.028Z</time></trkpt><trkpt lat="43.465009990401825" lon="10.491817543606798"><ele>47.0</ele><time>2026-04-29T18:53:48.028Z</time></trkpt><trkpt lat="43.465292303410024" lon="10.491753836850188"><ele>46.5</ele><time>2026-04-29T18:53:49.028Z</time></trkpt><trkpt lat="43.46557792154398" lon="10.491683994568763"><ele>46.0</ele><time>2026-04-29T18:53:50.028Z</time></trkpt><trkpt lat="43.465854858566516" lon="10.49162242072523"><ele>46.0</ele><time>2026-04-29T18:53:51.028Z</time></trkpt><trkpt lat="43.46613525073928" lon="10.49155958029115"><ele>46.0</ele><time>2026-04-29T18:53:52.028Z</time></trkpt><trkpt lat="43.46641598246522" lon="10.491495611498763"><ele>45.0</ele><time>2026-04-29T18:53:53.028Z</time></trkpt><trkpt lat="43.46669719429701" lon="10.491433323858791"><ele>44.0</ele><time>2026-04-29T18:53:54.028Z</time></trkpt><trkpt lat="43.4669772512132" lon="10.491367674486034"><ele>44.0</ele><time>2026-04-29T18:53:55.028Z</time></trkpt><trkpt lat="43.46725863533401" lon="10.49130017806229"><ele>44.0</ele><time>2026-04-29T18:53:56.028Z</time></trkpt><trkpt lat="43.467539742591775" lon="10.491228062663193"><ele>44.0</ele><time>2026-04-29T18:53:57.028Z</time></trkpt><trkpt lat="43.467819653742666" lon="10.491153276749618"><ele>44.0</ele><time>2026-04-29T18:53:58.028Z</time></trkpt><trkpt lat="43.46809968137358" lon="10.491076028930609"><ele>45.0</ele><time>2026-04-29T18:53:59.028Z</time></trkpt><trkpt lat="43.46837832026608" lon="10.490995980614109"><ele>46.0</ele><time>2026-04-29T18:54:00.028Z</time></trkpt><trkpt lat="43.468656918640676" lon="10.49091141359345"><ele>46.0</ele><time>2026-04-29T18:54:01.028Z</time></trkpt><trkpt lat="43.46893336280598" lon="10.490823000301356"><ele>46.0</ele><time>2026-04-29T18:54:02.028Z</time></trkpt><trkpt lat="43.46920711305688" lon="10.490731824866508"><ele>46.0</ele><time>2026-04-29T18:54:03.028Z</time></trkpt><trkpt lat="43.46948449940834" lon="10.490644453030981"><ele>46.0</ele><time>2026-04-29T18:54:04.028Z</time></trkpt><trkpt lat="43.46975909947114" lon="10.490551882327573"><ele>46.0</ele><time>2026-04-29T18:54:05.028Z</time></trkpt><trkpt lat="43.47003585250038" lon="10.490456400406833"><ele>46.0</ele><time>2026-04-29T18:54:06.028Z</time></trkpt><trkpt lat="43.470321960247624" lon="10.49036067311344"><ele>47.0</ele><time>2026-04-29T18:54:07.028Z</time></trkpt><trkpt lat="43.47058976341622" lon="10.490252000630631"><ele>48.0</ele><time>2026-04-29T18:54:08.028Z</time></trkpt><trkpt lat="43.47086021533797" lon="10.490139445829978"><ele>48.0</ele><time>2026-04-29T18:54:09.028Z</time></trkpt><trkpt lat="43.4711328311658" lon="10.49001607154349"><ele>48.0</ele><time>2026-04-29T18:54:10.028Z</time></trkpt><trkpt lat="43.47139963343892" lon="10.489887566018542"><ele>47.0</ele><time>2026-04-29T18:54:11.028Z</time></trkpt><trkpt lat="43.471667657597216" lon="10.48975438116908"><ele>46.0</ele><time>2026-04-29T18:54:12.028Z</time></trkpt><trkpt lat="43.471933894367645" lon="10.48961902341476"><ele>46.5</ele><time>2026-04-29T18:54:13.028Z</time></trkpt><trkpt lat="43.472199099415555" lon="10.489480412982498"><ele>47.0</ele><time>2026-04-29T18:54:14.028Z</time></trkpt><trkpt lat="43.47246484869136" lon="10.489339850489563"><ele>47.0</ele><time>2026-04-29T18:54:15.028Z</time></trkpt><trkpt lat="43.472731480345075" lon="10.489197437860833"><ele>47.0</ele><time>2026-04-29T18:54:16.028Z</time></trkpt><trkpt lat="43.47299862234096" lon="10.489054255240918"><ele>46.5</ele><time>2026-04-29T18:54:17.028Z</time></trkpt><trkpt lat="43.47326461965129" lon="10.488913203865687"><ele>46.0</ele><time>2026-04-29T18:54:18.028Z</time></trkpt><trkpt lat="43.473531449421706" lon="10.488771758507822"><ele>47.0</ele><time>2026-04-29T18:54:19.028Z</time></trkpt><trkpt lat="43.47379898000243" lon="10.488629875735153"><ele>48.0</ele><time>2026-04-29T18:54:20.028Z</time></trkpt><trkpt lat="43.47406372097359" lon="10.488488305932616"><ele>48.0</ele><time>2026-04-29T18:54:21.028Z</time></trkpt><trkpt lat="43.47433096338623" lon="10.488345050387816"><ele>48.0</ele><time>2026-04-29T18:54:22.028Z</time></trkpt><trkpt lat="43.474595645447344" lon="10.48820366496403"><ele>48.0</ele><time>2026-04-29T18:54:23.028Z</time></trkpt><trkpt lat="43.47485896608248" lon="10.488065024027865"><ele>48.0</ele><time>2026-04-29T18:54:24.028Z</time></trkpt><trkpt lat="43.47512852589702" lon="10.487929083295402"><ele>48.0</ele><time>2026-04-29T18:54:25.028Z</time></trkpt><trkpt lat="43.47539603216711" lon="10.487796605306015"><ele>48.0</ele><time>2026-04-29T18:54:26.028Z</time></trkpt><trkpt lat="43.47566390120872" lon="10.487665930145987"><ele>48.0</ele><time>2026-04-29T18:54:27.028Z</time></trkpt><trkpt lat="43.4759341517101" lon="10.48753658531113"><ele>48.0</ele><time>2026-04-29T18:54:28.028Z</time></trkpt><trkpt lat="43.476203375838935" lon="10.487411157091195"><ele>47.5</ele><time>2026-04-29T18:54:29.028Z</time></trkpt><trkpt lat="43.476473747433644" lon="10.487288253644763"><ele>47.0</ele><time>2026-04-29T18:54:30.028Z</time></trkpt><trkpt lat="43.476743253346726" lon="10.487170965546"><ele>47.5</ele><time>2026-04-29T18:54:31.028Z</time></trkpt><trkpt lat="43.4770154315161" lon="10.487058246193323"><ele>48.0</ele><time>2026-04-29T18:54:32.028Z</time></trkpt><trkpt lat="43.47729103975477" lon="10.486952854986932"><ele>49.0</ele><time>2026-04-29T18:54:33.028Z</time></trkpt><trkpt lat="43.47757017942479" lon="10.486852580861958"><ele>50.0</ele><time>2026-04-29T18:54:34.028Z</time></trkpt><trkpt lat="43.47784537030211" lon="10.48675860760853"><ele>50.5</ele><time>2026-04-29T18:54:35.028Z</time></trkpt><trkpt lat="43.47812073731159" lon="10.48666869681358"><ele>51.0</ele><time>2026-04-29T18:54:36.028Z</time></trkpt><trkpt lat="43.4783997908198" lon="10.486582454784648"><ele>51.0</ele><time>2026-04-29T18:54:37.028Z</time></trkpt><trkpt lat="43.47867653739723" lon="10.486501722668422"><ele>51.0</ele><time>2026-04-29T18:54:38.028Z</time></trkpt><trkpt lat="43.478955867872465" lon="10.486425744257545"><ele>50.5</ele><time>2026-04-29T18:54:39.028Z</time></trkpt><trkpt lat="43.47923606021759" lon="10.486353762483768"><ele>50.0</ele><time>2026-04-29T18:54:40.028Z</time></trkpt><trkpt lat="43.47951569563387" lon="10.486280710322283"><ele>51.0</ele><time>2026-04-29T18:54:41.028Z</time></trkpt><trkpt lat="43.47979643483073" lon="10.486213246898298"><ele>52.0</ele><time>2026-04-29T18:54:42.027Z</time></trkpt><trkpt lat="43.48007710381461" lon="10.486149853803214"><ele>52.0</ele><time>2026-04-29T18:54:43.027Z</time></trkpt><trkpt lat="43.480356910124875" lon="10.486087382445762"><ele>52.0</ele><time>2026-04-29T18:54:44.027Z</time></trkpt><trkpt lat="43.48063838241669" lon="10.486028685009813"><ele>51.5</ele><time>2026-04-29T18:54:45.027Z</time></trkpt><trkpt lat="43.48092189176108" lon="10.485969803122524"><ele>51.0</ele><time>2026-04-29T18:54:46.027Z</time></trkpt><trkpt lat="43.481203774060425" lon="10.485913147396765"><ele>51.0</ele><time>2026-04-29T18:54:47.027Z</time></trkpt><trkpt lat="43.48148360518611" lon="10.485857440920418"><ele>51.0</ele><time>2026-04-29T18:54:48.027Z</time></trkpt><trkpt lat="43.48176625886867" lon="10.485800320402136"><ele>51.0</ele><time>2026-04-29T18:54:49.027Z</time></trkpt><trkpt lat="43.482048686321875" lon="10.48574325009436"><ele>51.0</ele><time>2026-04-29T18:54:50.027Z</time></trkpt><trkpt lat="43.482329288835324" lon="10.48568529103198"><ele>50.5</ele><time>2026-04-29T18:54:51.027Z</time></trkpt><trkpt lat="43.48261086176104" lon="10.485621449258357"><ele>50.0</ele><time>2026-04-29T18:54:52.027Z</time></trkpt><trkpt lat="43.48289421254531" lon="10.485555427756976"><ele>50.5</ele><time>2026-04-29T18:54:53.027Z</time></trkpt><trkpt lat="43.483177395942725" lon="10.485479631900898"><ele>51.0</ele><time>2026-04-29T18:54:54.027Z</time></trkpt><trkpt lat="43.48345721276686" lon="10.485404356804423"><ele>51.0</ele><time>2026-04-29T18:54:55.027Z</time></trkpt><trkpt lat="43.48373480693539" lon="10.485320687080586"><ele>51.0</ele><time>2026-04-29T18:54:56.027Z</time></trkpt><trkpt lat="43.48401399931885" lon="10.485230118955922"><ele>52.0</ele><time>2026-04-29T18:54:57.027Z</time></trkpt><trkpt lat="43.48428930239723" lon="10.485133097669308"><ele>53.0</ele><time>2026-04-29T18:54:58.027Z</time></trkpt><trkpt lat="43.484566159986045" lon="10.485030516449378"><ele>53.5</ele><time>2026-04-29T18:54:59.027Z</time></trkpt><trkpt lat="43.48484047982093" lon="10.484921684631722"><ele>54.0</ele><time>2026-04-29T18:55:00.027Z</time></trkpt><trkpt lat="43.48511217400318" lon="10.48480598589084"><ele>54.0</ele><time>2026-04-29T18:55:01.027Z</time></trkpt><trkpt lat="43.48538078411194" lon="10.484683162492697"><ele>54.0</ele><time>2026-04-29T18:55:02.027Z</time></trkpt><trkpt lat="43.48564963711543" lon="10.48455119429208"><ele>54.5</ele><time>2026-04-29T18:55:03.027Z</time></trkpt><trkpt lat="43.48591875129527" lon="10.484410526670684"><ele>55.0</ele><time>2026-04-29T18:55:04.027Z</time></trkpt><trkpt lat="43.4861822634831" lon="10.484267847145357"><ele>54.5</ele><time>2026-04-29T18:55:05.027Z</time></trkpt><trkpt lat="43.4864429942247" lon="10.484118425508864"><ele>54.0</ele><time>2026-04-29T18:55:06.027Z</time></trkpt><trkpt lat="43.48670541683039" lon="10.483963214543014"><ele>54.0</ele><time>2026-04-29T18:55:07.027Z</time></trkpt><trkpt lat="43.48696556641782" lon="10.483802043851222"><ele>54.0</ele><time>2026-04-29T18:55:08.027Z</time></trkpt><trkpt lat="43.487222051831885" lon="10.483638040781635"><ele>55.5</ele><time>2026-04-29T18:55:09.027Z</time></trkpt><trkpt lat="43.48747835597363" lon="10.483469305901268"><ele>57.0</ele><time>2026-04-29T18:55:10.027Z</time></trkpt><trkpt lat="43.48773478690323" lon="10.483297442981865"><ele>57.0</ele><time>2026-04-29T18:55:11.027Z</time></trkpt><trkpt lat="43.48798984891934" lon="10.483124502724445"><ele>57.0</ele><time>2026-04-29T18:55:12.027Z</time></trkpt><trkpt lat="43.4882466675452" lon="10.482953445642597"><ele>57.0</ele><time>2026-04-29T18:55:13.027Z</time></trkpt><trkpt lat="43.488503149895" lon="10.482782159316983"><ele>57.0</ele><time>2026-04-29T18:55:14.027Z</time></trkpt><trkpt lat="43.4887596867952" lon="10.48261099907048"><ele>57.0</ele><time>2026-04-29T18:55:15.027Z</time></trkpt><trkpt lat="43.48901562662079" lon="10.482439533160589"><ele>57.0</ele><time>2026-04-29T18:55:16.027Z</time></trkpt><trkpt lat="43.48927369146033" lon="10.482269603530597"><ele>57.0</ele><time>2026-04-29T18:55:17.027Z</time></trkpt><trkpt lat="43.48952980469411" lon="10.482103841876828"><ele>57.0</ele><time>2026-04-29T18:55:18.027Z</time></trkpt><trkpt lat="43.489788586641836" lon="10.48193878337257"><ele>57.0</ele><time>2026-04-29T18:55:19.027Z</time></trkpt><trkpt lat="43.490046472746556" lon="10.481775381298467"><ele>57.0</ele><time>2026-04-29T18:55:20.027Z</time></trkpt><trkpt lat="43.49030441542873" lon="10.481615366783545"><ele>58.0</ele><time>2026-04-29T18:55:21.027Z</time></trkpt><trkpt lat="43.49056446065019" lon="10.48145811581182"><ele>59.0</ele><time>2026-04-29T18:55:22.028Z</time></trkpt><trkpt lat="43.490824764349725" lon="10.481305306577894"><ele>59.0</ele><time>2026-04-29T18:55:23.028Z</time></trkpt><trkpt lat="43.49108752028796" lon="10.481157564239512"><ele>59.0</ele><time>2026-04-29T18:55:24.028Z</time></trkpt><trkpt lat="43.49135031265001" lon="10.48101808954616"><ele>59.0</ele><time>2026-04-29T18:55:25.028Z</time></trkpt><trkpt lat="43.491613591424155" lon="10.4808773109422"><ele>59.0</ele><time>2026-04-29T18:55:26.028Z</time></trkpt><trkpt lat="43.49188022151865" lon="10.480737600059474"><ele>59.0</ele><time>2026-04-29T18:55:27.028Z</time></trkpt><trkpt lat="43.49214641687536" lon="10.480602606178872"><ele>59.0</ele><time>2026-04-29T18:55:28.028Z</time></trkpt><trkpt lat="43.492413489959084" lon="10.480471879258266"><ele>59.0</ele><time>2026-04-29T18:55:29.028Z</time></trkpt><trkpt lat="43.49268189176603" lon="10.480345574356319"><ele>59.0</ele><time>2026-04-29T18:55:30.028Z</time></trkpt><trkpt lat="43.49295340487625" lon="10.48022217846558"><ele>60.0</ele><time>2026-04-29T18:55:31.028Z</time></trkpt><trkpt lat="43.49322497540012" lon="10.480100134561578"><ele>61.0</ele><time>2026-04-29T18:55:32.028Z</time></trkpt><trkpt lat="43.49349683701047" lon="10.479982216125178"><ele>61.5</ele><time>2026-04-29T18:55:33.028Z</time></trkpt><trkpt lat="43.493768898079004" lon="10.479862940683411"><ele>62.0</ele><time>2026-04-29T18:55:34.028Z</time></trkpt><trkpt lat="43.49404357371947" lon="10.479749042205318"><ele>62.0</ele><time>2026-04-29T18:55:35.028Z</time></trkpt><trkpt lat="43.49431653764545" lon="10.47963639253375"><ele>62.0</ele><time>2026-04-29T18:55:36.028Z</time></trkpt><trkpt lat="43.49459190189453" lon="10.479525926748932"><ele>64.5</ele><time>2026-04-29T18:55:37.028Z</time></trkpt><trkpt lat="43.49486511411118" lon="10.47941606411535"><ele>67.0</ele><time>2026-04-29T18:55:38.028Z</time></trkpt><trkpt lat="43.49513930109968" lon="10.479308162814363"><ele>67.0</ele><time>2026-04-29T18:55:39.028Z</time></trkpt><trkpt lat="43.49541393287063" lon="10.479201492829484"><ele>67.0</ele><time>2026-04-29T18:55:40.028Z</time></trkpt><trkpt lat="43.49568498999065" lon="10.479094630584184"><ele>66.0</ele><time>2026-04-29T18:55:41.028Z</time></trkpt><trkpt lat="43.495961472984284" lon="10.478986401226583"><ele>65.0</ele><time>2026-04-29T18:55:42.028Z</time></trkpt><trkpt lat="43.49623379447886" lon="10.478870881192382"><ele>67.5</ele><time>2026-04-29T18:55:43.028Z</time></trkpt><trkpt lat="43.496504781086045" lon="10.478756762898264"><ele>70.0</ele><time>2026-04-29T18:55:44.028Z</time></trkpt><trkpt lat="43.49677608454239" lon="10.478638743073004"><ele>70.0</ele><time>2026-04-29T18:55:45.028Z</time></trkpt><trkpt lat="43.497047520268744" lon="10.478515646057023"><ele>70.0</ele><time>2026-04-29T18:55:46.028Z</time></trkpt><trkpt lat="43.49731896320823" lon="10.478390820827405"><ele>68.0</ele><time>2026-04-29T18:55:47.028Z</time></trkpt><trkpt lat="43.49758903844854" lon="10.478262753939745"><ele>66.0</ele><time>2026-04-29T18:55:48.028Z</time></trkpt><trkpt lat="43.49785928025718" lon="10.478130402406496"><ele>66.5</ele><time>2026-04-29T18:55:49.028Z</time></trkpt><trkpt lat="43.498126885449814" lon="10.477993782614302"><ele>67.0</ele><time>2026-04-29T18:55:50.028Z</time></trkpt><trkpt lat="43.49839351690613" lon="10.47785117984079"><ele>69.0</ele><time>2026-04-29T18:55:51.028Z</time></trkpt><trkpt lat="43.498657367050065" lon="10.477704815895166"><ele>71.0</ele><time>2026-04-29T18:55:52.028Z</time></trkpt><trkpt lat="43.49891981936236" lon="10.477549851407609"><ele>71.5</ele><time>2026-04-29T18:55:53.028Z</time></trkpt><trkpt lat="43.49917746771407" lon="10.477386686888385"><ele>72.0</ele><time>2026-04-29T18:55:54.028Z</time></trkpt><trkpt lat="43.499433949035385" lon="10.477215581145083"><ele>74.5</ele><time>2026-04-29T18:55:55.028Z</time></trkpt><trkpt lat="43.49969170733273" lon="10.477040809485091"><ele>77.0</ele><time>2026-04-29T18:55:56.028Z</time></trkpt><trkpt lat="43.499948324742356" lon="10.476863201584626"><ele>77.0</ele><time>2026-04-29T18:55:57.028Z</time></trkpt><trkpt lat="43.50020402629467" lon="10.476684203027885"><ele>77.0</ele><time>2026-04-29T18:55:58.028Z</time></trkpt><trkpt lat="43.50045859941623" lon="10.47650328354959"><ele>74.5</ele><time>2026-04-29T18:55:59.028Z</time></trkpt><trkpt lat="43.500710982877095" lon="10.476319605798109"><ele>72.0</ele><time>2026-04-29T18:56:00.028Z</time></trkpt><trkpt lat="43.500964497444755" lon="10.47613452031496"><ele>73.5</ele><time>2026-04-29T18:56:01.028Z</time></trkpt><trkpt lat="43.501216237029176" lon="10.475946295945445"><ele>75.0</ele><time>2026-04-29T18:56:02.028Z</time></trkpt><trkpt lat="43.501465584747" lon="10.475756590034472"><ele>75.0</ele><time>2026-04-29T18:56:03.028Z</time></trkpt><trkpt lat="43.50171763991948" lon="10.475567184737892"><ele>75.0</ele><time>2026-04-29T18:56:04.028Z</time></trkpt><trkpt lat="43.5019695879533" lon="10.475381967625623"><ele>78.0</ele><time>2026-04-29T18:56:05.028Z</time></trkpt><trkpt lat="43.502222427237726" lon="10.475198083096664"><ele>81.0</ele><time>2026-04-29T18:56:06.028Z</time></trkpt><trkpt lat="43.50247712173958" lon="10.475015892443587"><ele>81.0</ele><time>2026-04-29T18:56:07.028Z</time></trkpt><trkpt lat="43.50273180080986" lon="10.4748379939159"><ele>81.0</ele><time>2026-04-29T18:56:08.028Z</time></trkpt><trkpt lat="43.50298677922263" lon="10.474665769272002"><ele>85.0</ele><time>2026-04-29T18:56:09.028Z</time></trkpt><trkpt lat="43.50324617849449" lon="10.474494374359521"><ele>89.0</ele><time>2026-04-29T18:56:10.028Z</time></trkpt><trkpt lat="43.503505843288806" lon="10.474321957260843"><ele>81.5</ele><time>2026-04-29T18:56:11.028Z</time></trkpt><trkpt lat="43.503763650134275" lon="10.47414955857998"><ele>74.0</ele><time>2026-04-29T18:56:12.028Z</time></trkpt><trkpt lat="43.50403748974054" lon="10.474051900309734"><ele>74.0</ele><time>2026-04-29T18:56:13.028Z</time></trkpt><trkpt lat="43.504317610845085" lon="10.473952125951559"><ele>74.0</ele><time>2026-04-29T18:56:14.028Z</time></trkpt><trkpt lat="43.50458737440727" lon="10.47385191323307"><ele>70.0</ele><time>2026-04-29T18:56:15.028Z</time></trkpt><trkpt lat="43.50486478804422" lon="10.473761319101445"><ele>66.0</ele><time>2026-04-29T18:56:16.028Z</time></trkpt><trkpt lat="43.50514226384857" lon="10.47368518139093"><ele>66.0</ele><time>2026-04-29T18:56:17.028Z</time></trkpt><trkpt lat="43.50541902509298" lon="10.473617151154144"><ele>66.0</ele><time>2026-04-29T18:56:18.028Z</time></trkpt><trkpt lat="43.50569855932671" lon="10.47356191891625"><ele>66.0</ele><time>2026-04-29T18:56:19.028Z</time></trkpt><trkpt lat="43.505982403749215" lon="10.473521076754801"><ele>66.0</ele><time>2026-04-29T18:56:20.028Z</time></trkpt><trkpt lat="43.50626854417895" lon="10.473497722292535"><ele>67.5</ele><time>2026-04-29T18:56:21.028Z</time></trkpt><trkpt lat="43.50655522146138" lon="10.473490370701246"><ele>69.0</ele><time>2026-04-29T18:56:22.028Z</time></trkpt><trkpt lat="43.5068414551703" lon="10.473495315961118"><ele>68.5</ele><time>2026-04-29T18:56:23.028Z</time></trkpt><trkpt lat="43.50712478075393" lon="10.47350982650326"><ele>68.0</ele><time>2026-04-29T18:56:24.028Z</time></trkpt><trkpt lat="43.50741070616824" lon="10.473532601047499"><ele>68.0</ele><time>2026-04-29T18:56:25.028Z</time></trkpt><trkpt lat="43.50769375379315" lon="10.473559673688285"><ele>68.0</ele><time>2026-04-29T18:56:26.027Z</time></trkpt><trkpt lat="43.50797604800506" lon="10.473594975391546"><ele>65.5</ele><time>2026-04-29T18:56:27.027Z</time></trkpt><trkpt lat="43.508257551907114" lon="10.473637625175467"><ele>63.0</ele><time>2026-04-29T18:56:28.027Z</time></trkpt><trkpt lat="43.50853857084458" lon="10.47368311710995"><ele>62.0</ele><time>2026-04-29T18:56:29.027Z</time></trkpt><trkpt lat="43.508822731857215" lon="10.47373168682206"><ele>61.0</ele><time>2026-04-29T18:56:30.027Z</time></trkpt><trkpt lat="43.509104875877526" lon="10.473785439627818"><ele>60.0</ele><time>2026-04-29T18:56:31.027Z</time></trkpt><trkpt lat="43.509387025673654" lon="10.473842022307903"><ele>59.0</ele><time>2026-04-29T18:56:32.027Z</time></trkpt><trkpt lat="43.50967043051108" lon="10.473899980821166"><ele>59.0</ele><time>2026-04-29T18:56:33.027Z</time></trkpt><trkpt lat="43.50995327690127" lon="10.473955284912757"><ele>59.0</ele><time>2026-04-29T18:56:34.027Z</time></trkpt><trkpt lat="43.51023347702172" lon="10.474012175807806"><ele>58.5</ele><time>2026-04-29T18:56:35.027Z</time></trkpt><trkpt lat="43.51051473740998" lon="10.474067574958452"><ele>58.0</ele><time>2026-04-29T18:56:36.027Z</time></trkpt><trkpt lat="43.51079615526674" lon="10.474125116530153"><ele>58.0</ele><time>2026-04-29T18:56:37.027Z</time></trkpt><trkpt lat="43.51107914933143" lon="10.474181356644905"><ele>58.0</ele><time>2026-04-29T18:56:38.027Z</time></trkpt><trkpt lat="43.511360577620195" lon="10.4742331830394"><ele>58.5</ele><time>2026-04-29T18:56:39.027Z</time></trkpt><trkpt lat="43.51163917419461" lon="10.474285848271231"><ele>59.0</ele><time>2026-04-29T18:56:40.027Z</time></trkpt><trkpt lat="43.51192252093602" lon="10.474337972590224"><ele>58.0</ele><time>2026-04-29T18:56:41.027Z</time></trkpt><trkpt lat="43.51220514713839" lon="10.474382989282994"><ele>57.0</ele><time>2026-04-29T18:56:42.027Z</time></trkpt><trkpt lat="43.512486251045765" lon="10.474422967737128"><ele>57.0</ele><time>2026-04-29T18:56:43.027Z</time></trkpt><trkpt lat="43.51276789828758" lon="10.474458689766697"><ele>57.0</ele><time>2026-04-29T18:56:44.027Z</time></trkpt><trkpt lat="43.513049268693" lon="10.474486324814851"><ele>56.0</ele><time>2026-04-29T18:56:45.027Z</time></trkpt><trkpt lat="43.51333172688171" lon="10.474509507346008"><ele>55.0</ele><time>2026-04-29T18:56:46.027Z</time></trkpt><trkpt lat="43.51361248543316" lon="10.474522735433158"><ele>55.0</ele><time>2026-04-29T18:56:47.027Z</time></trkpt><trkpt lat="43.51389445681037" lon="10.474528571624035"><ele>55.0</ele><time>2026-04-29T18:56:48.027Z</time></trkpt><trkpt lat="43.514178278224584" lon="10.474522541678795"><ele>55.0</ele><time>2026-04-29T18:56:49.025Z</time></trkpt><trkpt lat="43.51446377591835" lon="10.47450245086818"><ele>55.0</ele><time>2026-04-29T18:56:50.024Z</time></trkpt><trkpt lat="43.51474579191806" lon="10.474471084219044"><ele>58.5</ele><time>2026-04-29T18:56:51.023Z</time></trkpt><trkpt lat="43.515026942172554" lon="10.474430623218069"><ele>62.0</ele><time>2026-04-29T18:56:52.022Z</time></trkpt><trkpt lat="43.51530898812687" lon="10.474376934235396"><ele>61.5</ele><time>2026-04-29T18:56:53.021Z</time></trkpt><trkpt lat="43.515588088375885" lon="10.474309194574307"><ele>61.0</ele><time>2026-04-29T18:56:54.021Z</time></trkpt><trkpt lat="43.51586796268016" lon="10.474232216555563"><ele>61.0</ele><time>2026-04-29T18:56:55.02Z</time></trkpt><trkpt lat="43.51614675132322" lon="10.474143331367426"><ele>61.0</ele><time>2026-04-29T18:56:56.019Z</time></trkpt><trkpt lat="43.5164229522385" lon="10.47404305108443"><ele>57.5</ele><time>2026-04-29T18:56:57.018Z</time></trkpt><trkpt lat="43.516698033956835" lon="10.473932860538254"><ele>54.0</ele><time>2026-04-29T18:56:58.018Z</time></trkpt><trkpt lat="43.51697150602752" lon="10.473814807827655"><ele>56.5</ele><time>2026-04-29T18:56:59.017Z</time></trkpt><trkpt lat="43.51724264956509" lon="10.473690408138099"><ele>59.0</ele><time>2026-04-29T18:57:00.016Z</time></trkpt><trkpt lat="43.517512157758894" lon="10.473557033914533"><ele>59.0</ele><time>2026-04-29T18:57:01.016Z</time></trkpt><trkpt lat="43.517779010925146" lon="10.473416131147834"><ele>59.0</ele><time>2026-04-29T18:57:02.015Z</time></trkpt><trkpt lat="43.518041239042816" lon="10.473263517377225"><ele>62.0</ele><time>2026-04-29T18:57:03.015Z</time></trkpt><trkpt lat="43.518299553688266" lon="10.473099329099815"><ele>65.0</ele><time>2026-04-29T18:57:04.014Z</time></trkpt><trkpt lat="43.51855750231468" lon="10.472924901196734"><ele>70.5</ele><time>2026-04-29T18:57:05.014Z</time></trkpt><trkpt lat="43.51880919059775" lon="10.472739278963177"><ele>76.0</ele><time>2026-04-29T18:57:06.014Z</time></trkpt><trkpt lat="43.51906847140043" lon="10.472561120636357"><ele>76.0</ele><time>2026-04-29T18:57:07.013Z</time></trkpt><trkpt lat="43.51932952582383" lon="10.472378716928212"><ele>76.0</ele><time>2026-04-29T18:57:08.013Z</time></trkpt><trkpt lat="43.51959000653101" lon="10.472198206141973"><ele>83.5</ele><time>2026-04-29T18:57:09.013Z</time></trkpt><trkpt lat="43.519850440069376" lon="10.47201874259871"><ele>91.0</ele><time>2026-04-29T18:57:10.012Z</time></trkpt><trkpt lat="43.52010815095595" lon="10.4718395315384"><ele>91.0</ele><time>2026-04-29T18:57:11.012Z</time></trkpt><trkpt lat="43.52036801699435" lon="10.471660026994005"><ele>91.0</ele><time>2026-04-29T18:57:12.012Z</time></trkpt><trkpt lat="43.52062381814899" lon="10.47147690537563"><ele>90.5</ele><time>2026-04-29T18:57:13.011Z</time></trkpt><trkpt lat="43.52092423585033" lon="10.471268818784273"><ele>90.0</ele><time>2026-04-29T18:57:14.157Z</time></trkpt><trkpt lat="43.52117731525995" lon="10.471087152819207"><ele>88.5</ele><time>2026-04-29T18:57:15.155Z</time></trkpt><trkpt lat="43.52143488274354" lon="10.470909908552153"><ele>87.0</ele><time>2026-04-29T18:57:16.151Z</time></trkpt><trkpt lat="43.521694375474496" lon="10.470731897307681"><ele>56.0</ele><time>2026-04-29T18:57:17.152Z</time></trkpt><trkpt lat="43.52675897184684" lon="10.468538175956946"><ele>56.0</ele><time>2026-04-29T18:57:36.008Z</time></trkpt><trkpt lat="43.52705833239314" lon="10.468478384373324"><ele>56.0</ele><time>2026-04-29T18:57:37.008Z</time></trkpt><trkpt lat="43.52732148858938" lon="10.468400524857326"><ele>58.5</ele><time>2026-04-29T18:57:38.008Z</time></trkpt><trkpt lat="43.52759192990807" lon="10.468355360902164"><ele>61.0</ele><time>2026-04-29T18:57:39.008Z</time></trkpt><trkpt lat="43.52786933848662" lon="10.46830060362502"><ele>58.5</ele><time>2026-04-29T18:57:40.008Z</time></trkpt><trkpt lat="43.528144450594716" lon="10.4682497299467"><ele>56.0</ele><time>2026-04-29T18:57:41.008Z</time></trkpt><trkpt lat="43.52842341468452" lon="10.468203718118689"><ele>56.0</ele><time>2026-04-29T18:57:42.009Z</time></trkpt><trkpt lat="43.528705014327834" lon="10.46815909135198"><ele>56.0</ele><time>2026-04-29T18:57:43.009Z</time></trkpt><trkpt lat="43.52898352535916" lon="10.468119315336885"><ele>54.5</ele><time>2026-04-29T18:57:44.009Z</time></trkpt><trkpt lat="43.529264298232434" lon="10.468076988523157"><ele>53.0</ele><time>2026-04-29T18:57:45.009Z</time></trkpt><trkpt lat="43.52954423440694" lon="10.468035115161785"><ele>52.5</ele><time>2026-04-29T18:57:46.009Z</time></trkpt><trkpt lat="43.52982765319592" lon="10.467983475909568"><ele>52.0</ele><time>2026-04-29T18:57:47.009Z</time></trkpt><trkpt lat="43.53010836978801" lon="10.467928540435924"><ele>52.0</ele><time>2026-04-29T18:57:48.01Z</time></trkpt><trkpt lat="43.53039046328248" lon="10.46786588112157"><ele>52.0</ele><time>2026-04-29T18:57:49.009Z</time></trkpt><trkpt lat="43.53067212593977" lon="10.467802525917222"><ele>52.5</ele><time>2026-04-29T18:57:50.009Z</time></trkpt><trkpt lat="43.530956533683444" lon="10.46772689296652"><ele>53.0</ele><time>2026-04-29T18:57:51.009Z</time></trkpt><trkpt lat="43.531237385936244" lon="10.467644593018736"><ele>52.0</ele><time>2026-04-29T18:57:52.009Z</time></trkpt><trkpt lat="43.531519184757634" lon="10.467554745244295"><ele>51.0</ele><time>2026-04-29T18:57:53.009Z</time></trkpt><trkpt lat="43.53179616193257" lon="10.467459213475792"><ele>49.5</ele><time>2026-04-29T18:57:54.01Z</time></trkpt><trkpt lat="43.5320737094552" lon="10.467360038941711"><ele>48.0</ele><time>2026-04-29T18:57:55.009Z</time></trkpt><trkpt lat="43.53234935994229" lon="10.467257554345332"><ele>48.0</ele><time>2026-04-29T18:57:56.009Z</time></trkpt><trkpt lat="43.532623969441445" lon="10.467149969624177"><ele>48.0</ele><time>2026-04-29T18:57:57.009Z</time></trkpt><trkpt lat="43.53289903826951" lon="10.467043955794908"><ele>46.5</ele><time>2026-04-29T18:57:58.009Z</time></trkpt><trkpt lat="43.53317591812254" lon="10.466932849163118"><ele>45.0</ele><time>2026-04-29T18:57:59.009Z</time></trkpt><trkpt lat="43.5334521441881" lon="10.466822724943109"><ele>46.0</ele><time>2026-04-29T18:58:00.009Z</time></trkpt><trkpt lat="43.53372745757574" lon="10.46671499145264"><ele>47.0</ele><time>2026-04-29T18:58:01.009Z</time></trkpt><trkpt lat="43.53400222774132" lon="10.466611642110285"><ele>47.0</ele><time>2026-04-29T18:58:02.009Z</time></trkpt><trkpt lat="43.53427753756721" lon="10.466510839416765"><ele>47.0</ele><time>2026-04-29T18:58:03.009Z</time></trkpt><trkpt lat="43.534553551916424" lon="10.46642268081778"><ele>46.0</ele><time>2026-04-29T18:58:04.009Z</time></trkpt><trkpt lat="43.53483219389518" lon="10.466337174113319"><ele>45.0</ele><time>2026-04-29T18:58:05.009Z</time></trkpt><trkpt lat="43.53511179516401" lon="10.466261621630903"><ele>42.0</ele><time>2026-04-29T18:58:06.009Z</time></trkpt><trkpt lat="43.535392938397834" lon="10.466195737433813"><ele>39.0</ele><time>2026-04-29T18:58:07.009Z</time></trkpt><trkpt lat="43.535677005904965" lon="10.466140487463367"><ele>39.0</ele><time>2026-04-29T18:58:08.009Z</time></trkpt><trkpt lat="43.53596240917029" lon="10.466096689268563"><ele>39.0</ele><time>2026-04-29T18:58:09.009Z</time></trkpt><trkpt lat="43.53624855970803" lon="10.466067773170323"><ele>39.5</ele><time>2026-04-29T18:58:10.009Z</time></trkpt><trkpt lat="43.536535834684294" lon="10.466053006251558"><ele>40.0</ele><time>2026-04-29T18:58:11.009Z</time></trkpt><trkpt lat="43.536821822829666" lon="10.466053028966055"><ele>39.0</ele><time>2026-04-29T18:58:12.009Z</time></trkpt><trkpt lat="43.53711012764534" lon="10.466062798604533"><ele>38.0</ele><time>2026-04-29T18:58:13.009Z</time></trkpt><trkpt lat="43.53739900999792" lon="10.466084277304072"><ele>38.0</ele><time>2026-04-29T18:58:14.008Z</time></trkpt><trkpt lat="43.537686490091275" lon="10.466122378196875"><ele>38.0</ele><time>2026-04-29T18:58:15.008Z</time></trkpt><trkpt lat="43.53797257795847" lon="10.466172529256282"><ele>38.0</ele><time>2026-04-29T18:58:16.008Z</time></trkpt><trkpt lat="43.53825806657467" lon="10.466230701703516"><ele>38.0</ele><time>2026-04-29T18:58:17.008Z</time></trkpt><trkpt lat="43.5385423395396" lon="10.46630328349161"><ele>41.5</ele><time>2026-04-29T18:58:18.008Z</time></trkpt><trkpt lat="43.53882164529065" lon="10.466387583656543"><ele>45.0</ele><time>2026-04-29T18:58:19.008Z</time></trkpt><trkpt lat="43.53909834195098" lon="10.466483934275859"><ele>45.0</ele><time>2026-04-29T18:58:20.008Z</time></trkpt><trkpt lat="43.53937089010165" lon="10.466589507470996"><ele>45.0</ele><time>2026-04-29T18:58:21.008Z</time></trkpt><trkpt lat="43.53964215147473" lon="10.466713828577255"><ele>43.5</ele><time>2026-04-29T18:58:22.008Z</time></trkpt><trkpt lat="43.53991523203336" lon="10.4668501718458"><ele>42.0</ele><time>2026-04-29T18:58:23.008Z</time></trkpt><trkpt lat="43.54018162575339" lon="10.466997019105554"><ele>41.5</ele><time>2026-04-29T18:58:24.008Z</time></trkpt><trkpt lat="43.54043947923752" lon="10.467149778484456"><ele>41.0</ele><time>2026-04-29T18:58:25.008Z</time></trkpt><trkpt lat="43.54070097032382" lon="10.46731485749748"><ele>41.0</ele><time>2026-04-29T18:58:26.008Z</time></trkpt><trkpt lat="43.54095795364191" lon="10.467489577613122"><ele>41.0</ele><time>2026-04-29T18:58:27.008Z</time></trkpt><trkpt lat="43.54121200510459" lon="10.467664958811536"><ele>42.5</ele><time>2026-04-29T18:58:28.008Z</time></trkpt><trkpt lat="43.54146342871889" lon="10.467851883628661"><ele>44.0</ele><time>2026-04-29T18:58:29.008Z</time></trkpt><trkpt lat="43.5417176371896" lon="10.468035626932657"><ele>44.5</ele><time>2026-04-29T18:58:30.008Z</time></trkpt><trkpt lat="43.541967156157604" lon="10.468226738278377"><ele>45.0</ele><time>2026-04-29T18:58:31.008Z</time></trkpt><trkpt lat="43.542214881872475" lon="10.468424415159014"><ele>45.5</ele><time>2026-04-29T18:58:32.008Z</time></trkpt><trkpt lat="43.54246273249216" lon="10.468626942476238"><ele>46.0</ele><time>2026-04-29T18:58:33.008Z</time></trkpt><trkpt lat="43.54270981639396" lon="10.468825748281128"><ele>44.0</ele><time>2026-04-29T18:58:34.008Z</time></trkpt><trkpt lat="43.54295736719859" lon="10.469020820092316"><ele>42.0</ele><time>2026-04-29T18:58:35.008Z</time></trkpt><trkpt lat="43.54320917246435" lon="10.469213331193256"><ele>42.0</ele><time>2026-04-29T18:58:36.008Z</time></trkpt><trkpt lat="43.543461199792176" lon="10.469404786024993"><ele>42.0</ele><time>2026-04-29T18:58:37.008Z</time></trkpt><trkpt lat="43.54371291098263" lon="10.469595779189296"><ele>40.5</ele><time>2026-04-29T18:58:38.008Z</time></trkpt><trkpt lat="43.54396666840074" lon="10.469782438475685"><ele>39.0</ele><time>2026-04-29T18:58:39.008Z</time></trkpt><trkpt lat="43.544219822589305" lon="10.469970830356267"><ele>39.0</ele><time>2026-04-29T18:58:40.008Z</time></trkpt><trkpt lat="43.544475251396804" lon="10.470156484975936"><ele>39.0</ele><time>2026-04-29T18:58:41.008Z</time></trkpt><trkpt lat="43.54473130325626" lon="10.470335195375135"><ele>37.5</ele><time>2026-04-29T18:58:42.008Z</time></trkpt><trkpt lat="43.54498950913689" lon="10.470509416628559"><ele>36.0</ele><time>2026-04-29T18:58:43.008Z</time></trkpt><trkpt lat="43.54525080320095" lon="10.470677906409186"><ele>34.0</ele><time>2026-04-29T18:58:44.008Z</time></trkpt><trkpt lat="43.54551173087214" lon="10.470838917556128"><ele>32.0</ele><time>2026-04-29T18:58:45.008Z</time></trkpt><trkpt lat="43.54577614402541" lon="10.470995774619698"><ele>32.0</ele><time>2026-04-29T18:58:46.008Z</time></trkpt><trkpt lat="43.54604261774929" lon="10.471147979373548"><ele>32.0</ele><time>2026-04-29T18:58:47.008Z</time></trkpt><trkpt lat="43.546308770519346" lon="10.471296563822929"><ele>33.0</ele><time>2026-04-29T18:58:48.008Z</time></trkpt><trkpt lat="43.54657890476794" lon="10.471440479162323"><ele>34.0</ele><time>2026-04-29T18:58:49.008Z</time></trkpt><trkpt lat="43.54684991358079" lon="10.471581650331649"><ele>33.0</ele><time>2026-04-29T18:58:50.008Z</time></trkpt><trkpt lat="43.5471234912738" lon="10.471719204870427"><ele>32.0</ele><time>2026-04-29T18:58:51.008Z</time></trkpt><trkpt lat="43.547399487385206" lon="10.471852871015404"><ele>32.0</ele><time>2026-04-29T18:58:52.008Z</time></trkpt><trkpt lat="43.54767857464864" lon="10.471985255289201"><ele>32.0</ele><time>2026-04-29T18:58:53.008Z</time></trkpt><trkpt lat="43.54795855195579" lon="10.472114901243096"><ele>32.0</ele><time>2026-04-29T18:58:54.008Z</time></trkpt><trkpt lat="43.548237769883414" lon="10.472245681533446"><ele>32.0</ele><time>2026-04-29T18:58:55.008Z</time></trkpt><trkpt lat="43.548519487340066" lon="10.472375600423762"><ele>31.0</ele><time>2026-04-29T18:58:56.008Z</time></trkpt><trkpt lat="43.54880203887738" lon="10.472504578911503"><ele>30.0</ele><time>2026-04-29T18:58:57.008Z</time></trkpt><trkpt lat="43.549087235193944" lon="10.472633098047368"><ele>30.0</ele><time>2026-04-29T18:58:58.008Z</time></trkpt><trkpt lat="43.54937203240805" lon="10.472758544569578"><ele>30.0</ele><time>2026-04-29T18:58:59.008Z</time></trkpt><trkpt lat="43.54965674719056" lon="10.472882098698529"><ele>29.0</ele><time>2026-04-29T18:59:00.008Z</time></trkpt><trkpt lat="43.54994141122231" lon="10.473004070444148"><ele>28.0</ele><time>2026-04-29T18:59:01.008Z</time></trkpt><trkpt lat="43.550227792435514" lon="10.47312755185798"><ele>27.5</ele><time>2026-04-29T18:59:02.008Z</time></trkpt><trkpt lat="43.5505120845773" lon="10.473246649459165"><ele>27.0</ele><time>2026-04-29T18:59:03.008Z</time></trkpt><trkpt lat="43.55079969283707" lon="10.473364735923175"><ele>27.0</ele><time>2026-04-29T18:59:04.008Z</time></trkpt><trkpt lat="43.551085942032856" lon="10.473483576499682"><ele>27.0</ele><time>2026-04-29T18:59:05.008Z</time></trkpt><trkpt lat="43.55137181678834" lon="10.47360164242601"><ele>27.5</ele><time>2026-04-29T18:59:06.008Z</time></trkpt><trkpt lat="43.5516591092282" lon="10.473718361260355"><ele>28.0</ele><time>2026-04-29T18:59:07.008Z</time></trkpt><trkpt lat="43.55194628097782" lon="10.473833325946927"><ele>26.5</ele><time>2026-04-29T18:59:08.008Z</time></trkpt><trkpt lat="43.55223011179971" lon="10.473944210290634"><ele>25.0</ele><time>2026-04-29T18:59:09.008Z</time></trkpt><trkpt lat="43.55251350972077" lon="10.474056577673316"><ele>25.0</ele><time>2026-04-29T18:59:10.008Z</time></trkpt><trkpt lat="43.552798633890646" lon="10.474169273235365"><ele>25.0</ele><time>2026-04-29T18:59:11.008Z</time></trkpt><trkpt lat="43.5530831576682" lon="10.474278283560125"><ele>26.5</ele><time>2026-04-29T18:59:12.008Z</time></trkpt><trkpt lat="43.553366928162" lon="10.474383691864938"><ele>28.0</ele><time>2026-04-29T18:59:13.008Z</time></trkpt><trkpt lat="43.553651156728996" lon="10.47448561182913"><ele>28.5</ele><time>2026-04-29T18:59:14.008Z</time></trkpt><trkpt lat="43.55393379626614" lon="10.474584754025233"><ele>29.0</ele><time>2026-04-29T18:59:15.008Z</time></trkpt><trkpt lat="43.55421762303251" lon="10.474684948416057"><ele>27.0</ele><time>2026-04-29T18:59:16.007Z</time></trkpt><trkpt lat="43.554498941057524" lon="10.474782869780594"><ele>25.0</ele><time>2026-04-29T18:59:17.007Z</time></trkpt><trkpt lat="43.55478270527957" lon="10.474881156988411"><ele>25.0</ele><time>2026-04-29T18:59:18.007Z</time></trkpt><trkpt lat="43.55506772487012" lon="10.47497532036879"><ele>25.0</ele><time>2026-04-29T18:59:19.007Z</time></trkpt><trkpt lat="43.555351944194726" lon="10.475070371429394"><ele>27.0</ele><time>2026-04-29T18:59:20.007Z</time></trkpt><trkpt lat="43.55563858461041" lon="10.475165361167978"><ele>29.0</ele><time>2026-04-29T18:59:21.007Z</time></trkpt><trkpt lat="43.55592631896126" lon="10.475261332460855"><ele>28.0</ele><time>2026-04-29T18:59:22.007Z</time></trkpt><trkpt lat="43.556214495453105" lon="10.475354478189042"><ele>27.0</ele><time>2026-04-29T18:59:23.007Z</time></trkpt><trkpt lat="43.55650179022117" lon="10.475446174150862"><ele>27.0</ele><time>2026-04-29T18:59:24.007Z</time></trkpt><trkpt lat="43.55679139009671" lon="10.47554068704912"><ele>27.0</ele><time>2026-04-29T18:59:25.007Z</time></trkpt><trkpt lat="43.55708926939999" lon="10.475631536652289"><ele>29.5</ele><time>2026-04-29T18:59:26.007Z</time></trkpt><trkpt lat="43.55738693904342" lon="10.475718938926944"><ele>32.0</ele><time>2026-04-29T18:59:27.007Z</time></trkpt><trkpt lat="43.557686394734105" lon="10.475805652632328"><ele>32.0</ele><time>2026-04-29T18:59:28.007Z</time></trkpt><trkpt lat="43.557984739923384" lon="10.47589559721652"><ele>32.0</ele><time>2026-04-29T18:59:29.007Z</time></trkpt><trkpt lat="43.55828377938183" lon="10.475985669570994"><ele>32.0</ele><time>2026-04-29T18:59:30.007Z</time></trkpt><trkpt lat="43.558583923281915" lon="10.476076388346648"><ele>32.0</ele><time>2026-04-29T18:59:31.007Z</time></trkpt><trkpt lat="43.55888443762013" lon="10.476168251135414"><ele>33.5</ele><time>2026-04-29T18:59:32.007Z</time></trkpt><trkpt lat="43.559178298613496" lon="10.476265751749127"><ele>35.0</ele><time>2026-04-29T18:59:33.007Z</time></trkpt><trkpt lat="43.55948074068632" lon="10.476315982987494"><ele>29.0</ele><time>2026-04-29T18:59:34.007Z</time></trkpt><trkpt lat="43.559800530544834" lon="10.476294834525405"><ele>23.0</ele><time>2026-04-29T18:59:35.007Z</time></trkpt><trkpt lat="43.56011463181704" lon="10.476295202927396"><ele>22.0</ele><time>2026-04-29T18:59:36.007Z</time></trkpt><trkpt lat="43.56042267317603" lon="10.476300604594261"><ele>21.0</ele><time>2026-04-29T18:59:37.007Z</time></trkpt><trkpt lat="43.5607240271013" lon="10.476288629634956"><ele>21.5</ele><time>2026-04-29T18:59:38.007Z</time></trkpt><trkpt lat="43.561025987178205" lon="10.476267716989417"><ele>22.0</ele><time>2026-04-29T18:59:39.007Z</time></trkpt><trkpt lat="43.5613243261784" lon="10.476235228125564"><ele>22.0</ele><time>2026-04-29T18:59:40.007Z</time></trkpt><trkpt lat="43.56161611820162" lon="10.476188771838084"><ele>22.0</ele><time>2026-04-29T18:59:41.007Z</time></trkpt><trkpt lat="43.56190513672698" lon="10.476127538992028"><ele>21.0</ele><time>2026-04-29T18:59:42.007Z</time></trkpt><trkpt lat="43.56219181819901" lon="10.476053962987429"><ele>20.0</ele><time>2026-04-29T18:59:43.007Z</time></trkpt><trkpt lat="43.562477273291634" lon="10.475971283958746"><ele>20.0</ele><time>2026-04-29T18:59:44.007Z</time></trkpt><trkpt lat="43.56275912601812" lon="10.475880783562928"><ele>20.0</ele><time>2026-04-29T18:59:45.007Z</time></trkpt><trkpt lat="43.56303833824316" lon="10.475785742423316"><ele>20.5</ele><time>2026-04-29T18:59:46.007Z</time></trkpt><trkpt lat="43.563309688174655" lon="10.475678377626446"><ele>21.0</ele><time>2026-04-29T18:59:47.007Z</time></trkpt><trkpt lat="43.56358093407434" lon="10.475557052108257"><ele>21.0</ele><time>2026-04-29T18:59:48.009Z</time></trkpt><trkpt lat="43.56384841016948" lon="10.475429068908928"><ele>21.0</ele><time>2026-04-29T18:59:49.009Z</time></trkpt><trkpt lat="43.56411700564428" lon="10.475285779640817"><ele>21.0</ele><time>2026-04-29T18:59:50.009Z</time></trkpt><trkpt lat="43.564372423812095" lon="10.475140531686394"><ele>21.0</ele><time>2026-04-29T18:59:51.009Z</time></trkpt><trkpt lat="43.564628176328405" lon="10.47498296640316"><ele>20.5</ele><time>2026-04-29T18:59:52.009Z</time></trkpt><trkpt lat="43.56488107124685" lon="10.474816993401635"><ele>20.0</ele><time>2026-04-29T18:59:53.009Z</time></trkpt><trkpt lat="43.56513716606642" lon="10.474639352222619"><ele>20.0</ele><time>2026-04-29T18:59:54.009Z</time></trkpt><trkpt lat="43.565386658425815" lon="10.47445683807147"><ele>20.0</ele><time>2026-04-29T18:59:55.008Z</time></trkpt><trkpt lat="43.565634590526244" lon="10.474263805057484"><ele>20.0</ele><time>2026-04-29T18:59:56.008Z</time></trkpt><trkpt lat="43.56588155119744" lon="10.474063339584086"><ele>20.0</ele><time>2026-04-29T18:59:57.009Z</time></trkpt><trkpt lat="43.56612382667103" lon="10.473855492776886"><ele>20.0</ele><time>2026-04-29T18:59:58.009Z</time></trkpt><trkpt lat="43.566368172156245" lon="10.473642458368166"><ele>20.0</ele><time>2026-04-29T18:59:59.009Z</time></trkpt><trkpt lat="43.56661147954169" lon="10.473424614742491"><ele>20.0</ele><time>2026-04-29T19:00:00.009Z</time></trkpt><trkpt lat="43.56685178657312" lon="10.473202998531338"><ele>20.0</ele><time>2026-04-29T19:00:01.009Z</time></trkpt><trkpt lat="43.56709131183173" lon="10.472977503227941"><ele>19.0</ele><time>2026-04-29T19:00:02.009Z</time></trkpt><trkpt lat="43.56732809349528" lon="10.472751235348108"><ele>18.0</ele><time>2026-04-29T19:00:03.009Z</time></trkpt><trkpt lat="43.56756812286875" lon="10.4725297184844"><ele>18.0</ele><time>2026-04-29T19:00:04.009Z</time></trkpt><trkpt lat="43.567809542306115" lon="10.472305980162037"><ele>18.0</ele><time>2026-04-29T19:00:05.009Z</time></trkpt><trkpt lat="43.56804816067844" lon="10.47208291949769"><ele>17.5</ele><time>2026-04-29T19:00:06.008Z</time></trkpt><trkpt lat="43.56828763812165" lon="10.471864197872568"><ele>17.0</ele><time>2026-04-29T19:00:07.008Z</time></trkpt><trkpt lat="43.56852928051747" lon="10.471648877619764"><ele>17.5</ele><time>2026-04-29T19:00:08.008Z</time></trkpt><trkpt lat="43.568772720747" lon="10.471437891754258"><ele>18.0</ele><time>2026-04-29T19:00:09.008Z</time></trkpt><trkpt lat="43.569017068854194" lon="10.471228656017798"><ele>18.0</ele><time>2026-04-29T19:00:10.008Z</time></trkpt><trkpt lat="43.569261653608876" lon="10.471023096797826"><ele>18.0</ele><time>2026-04-29T19:00:11.008Z</time></trkpt><trkpt lat="43.569510597451725" lon="10.470823768380331"><ele>18.0</ele><time>2026-04-29T19:00:12.008Z</time></trkpt><trkpt lat="43.569762149826474" lon="10.470629180800472"><ele>18.0</ele><time>2026-04-29T19:00:13.008Z</time></trkpt><trkpt lat="43.570010317580476" lon="10.470430658553237"><ele>18.0</ele><time>2026-04-29T19:00:14.008Z</time></trkpt><trkpt lat="43.570258980024676" lon="10.470249964575315"><ele>18.0</ele><time>2026-04-29T19:00:15.008Z</time></trkpt><trkpt lat="43.570516468402445" lon="10.47006881546037"><ele>18.0</ele><time>2026-04-29T19:00:16.008Z</time></trkpt><trkpt lat="43.57077298723318" lon="10.469897830115492"><ele>18.0</ele><time>2026-04-29T19:00:17.008Z</time></trkpt><trkpt lat="43.57103157088609" lon="10.469730993276627"><ele>18.0</ele><time>2026-04-29T19:00:18.008Z</time></trkpt><trkpt lat="43.571291817141926" lon="10.46957372377835"><ele>18.0</ele><time>2026-04-29T19:00:19.008Z</time></trkpt><trkpt lat="43.571556911372376" lon="10.469423211929737"><ele>18.0</ele><time>2026-04-29T19:00:20.008Z</time></trkpt><trkpt lat="43.571823925404956" lon="10.46927814821996"><ele>18.0</ele><time>2026-04-29T19:00:21.008Z</time></trkpt><trkpt lat="43.57208968082063" lon="10.469137272349485"><ele>18.0</ele><time>2026-04-29T19:00:22.008Z</time></trkpt><trkpt lat="43.57235964291264" lon="10.469000872566536"><ele>18.0</ele><time>2026-04-29T19:00:23.008Z</time></trkpt><trkpt lat="43.57262987752006" lon="10.468863735095502"><ele>17.0</ele><time>2026-04-29T19:00:24.008Z</time></trkpt><trkpt lat="43.57289979263473" lon="10.468731978686336"><ele>16.0</ele><time>2026-04-29T19:00:25.008Z</time></trkpt><trkpt lat="43.57317210441444" lon="10.468600791278057"><ele>16.0</ele><time>2026-04-29T19:00:26.008Z</time></trkpt><trkpt lat="43.57344284804348" lon="10.468469957185766"><ele>16.0</ele><time>2026-04-29T19:00:27.008Z</time></trkpt><trkpt lat="43.573711353164015" lon="10.468339543625405"><ele>16.0</ele><time>2026-04-29T19:00:28.008Z</time></trkpt><trkpt lat="43.573983228206934" lon="10.468209507548385"><ele>16.0</ele><time>2026-04-29T19:00:29.008Z</time></trkpt><trkpt lat="43.57425449300415" lon="10.468079021600541"><ele>16.0</ele><time>2026-04-29T19:00:30.008Z</time></trkpt><trkpt lat="43.57452391949359" lon="10.467944786698567"><ele>16.0</ele><time>2026-04-29T19:00:31.008Z</time></trkpt><trkpt lat="43.574795237963514" lon="10.46781176448394"><ele>17.5</ele><time>2026-04-29T19:00:32.008Z</time></trkpt><trkpt lat="43.57506568468873" lon="10.467674624662703"><ele>19.0</ele><time>2026-04-29T19:00:33.008Z</time></trkpt><trkpt lat="43.57533709385119" lon="10.467537886707778"><ele>18.0</ele><time>2026-04-29T19:00:34.008Z</time></trkpt><trkpt lat="43.57560823447053" lon="10.467397838347832"><ele>17.0</ele><time>2026-04-29T19:00:35.008Z</time></trkpt><trkpt lat="43.57587816857838" lon="10.46725721168879"><ele>17.0</ele><time>2026-04-29T19:00:36.008Z</time></trkpt><trkpt lat="43.576146394081285" lon="10.467114661478877"><ele>17.0</ele><time>2026-04-29T19:00:37.008Z</time></trkpt><trkpt lat="43.57641443875996" lon="10.466973685505332"><ele>20.0</ele><time>2026-04-29T19:00:38.008Z</time></trkpt><trkpt lat="43.576683230544354" lon="10.466830103386775"><ele>23.0</ele><time>2026-04-29T19:00:39.008Z</time></trkpt><trkpt lat="43.57695002411055" lon="10.46668177053225"><ele>20.0</ele><time>2026-04-29T19:00:40.008Z</time></trkpt><trkpt lat="43.5772142016981" lon="10.466526165102854"><ele>17.0</ele><time>2026-04-29T19:00:41.008Z</time></trkpt><trkpt lat="43.57747530191949" lon="10.466367019763476"><ele>16.0</ele><time>2026-04-29T19:00:42.008Z</time></trkpt><trkpt lat="43.577734553436564" lon="10.466200230559547"><ele>15.0</ele><time>2026-04-29T19:00:43.008Z</time></trkpt><trkpt lat="43.577993569231595" lon="10.46602651113187"><ele>15.0</ele><time>2026-04-29T19:00:44.008Z</time></trkpt><trkpt lat="43.578252145161564" lon="10.465853663713391"><ele>15.0</ele><time>2026-04-29T19:00:45.008Z</time></trkpt><trkpt lat="43.578509933462556" lon="10.4656748224976"><ele>14.5</ele><time>2026-04-29T19:00:46.008Z</time></trkpt><trkpt lat="43.57876225849617" lon="10.465494184215832"><ele>14.0</ele><time>2026-04-29T19:00:47.008Z</time></trkpt><trkpt lat="43.57901751551463" lon="10.465313693888332"><ele>14.5</ele><time>2026-04-29T19:00:48.008Z</time></trkpt><trkpt lat="43.57927107813322" lon="10.46512776608434"><ele>15.0</ele><time>2026-04-29T19:00:49.008Z</time></trkpt><trkpt lat="43.57952210966662" lon="10.464937218299"><ele>15.0</ele><time>2026-04-29T19:00:50.008Z</time></trkpt><trkpt lat="43.57977349127571" lon="10.464740718449539"><ele>15.0</ele><time>2026-04-29T19:00:51.008Z</time></trkpt><trkpt lat="43.580017513341545" lon="10.464538974127978"><ele>15.0</ele><time>2026-04-29T19:00:52.008Z</time></trkpt><trkpt lat="43.58026463443412" lon="10.464334723016526"><ele>15.0</ele><time>2026-04-29T19:00:53.008Z</time></trkpt><trkpt lat="43.580506831187364" lon="10.464124612471515"><ele>15.0</ele><time>2026-04-29T19:00:54.008Z</time></trkpt><trkpt lat="43.58074697817105" lon="10.463913319391338"><ele>15.0</ele><time>2026-04-29T19:00:55.008Z</time></trkpt><trkpt lat="43.58099013088235" lon="10.4636982160214"><ele>17.5</ele><time>2026-04-29T19:00:56.008Z</time></trkpt><trkpt lat="43.581228489958576" lon="10.463481279582092"><ele>20.0</ele><time>2026-04-29T19:00:57.008Z</time></trkpt><trkpt lat="43.58147126606905" lon="10.463258006429108"><ele>20.0</ele><time>2026-04-29T19:00:58.008Z</time></trkpt><trkpt lat="43.581707800220144" lon="10.46302979567342"><ele>20.0</ele><time>2026-04-29T19:00:59.008Z</time></trkpt><trkpt lat="43.58194904422789" lon="10.46280353168652"><ele>29.0</ele><time>2026-04-29T19:01:00.008Z</time></trkpt><trkpt lat="43.58218727116968" lon="10.462575230628667"><ele>38.0</ele><time>2026-04-29T19:01:01.008Z</time></trkpt><trkpt lat="43.58242640094921" lon="10.462346861717913"><ele>38.0</ele><time>2026-04-29T19:01:02.008Z</time></trkpt><trkpt lat="43.582663155929914" lon="10.462119589772136"><ele>38.0</ele><time>2026-04-29T19:01:03.008Z</time></trkpt><trkpt lat="43.58289821969245" lon="10.461892527262096"><ele>41.0</ele><time>2026-04-29T19:01:04.008Z</time></trkpt><trkpt lat="43.58313317843259" lon="10.461665158468486"><ele>44.0</ele><time>2026-04-29T19:01:05.008Z</time></trkpt><trkpt lat="43.5833610445799" lon="10.4614360832744"><ele>45.0</ele><time>2026-04-29T19:01:06.008Z</time></trkpt><trkpt lat="43.58362484764958" lon="10.461173324062187"><ele>46.0</ele><time>2026-04-29T19:01:07.146Z</time></trkpt><trkpt lat="43.58386169768077" lon="10.460942025702716"><ele>25.0</ele><time>2026-04-29T19:01:08.151Z</time></trkpt><trkpt lat="43.585431302698574" lon="10.459211102445527"><ele>25.0</ele><time>2026-04-29T19:01:15.007Z</time></trkpt><trkpt lat="43.585586001591146" lon="10.458900059217642"><ele>25.0</ele><time>2026-04-29T19:01:16.007Z</time></trkpt><trkpt lat="43.58578556273162" lon="10.458636926279796"><ele>21.5</ele><time>2026-04-29T19:01:17.007Z</time></trkpt><trkpt lat="43.58600157994249" lon="10.45838911403232"><ele>18.0</ele><time>2026-04-29T19:01:18.007Z</time></trkpt><trkpt lat="43.58622745276729" lon="10.458149537338336"><ele>15.0</ele><time>2026-04-29T19:01:19.007Z</time></trkpt><trkpt lat="43.586453282651796" lon="10.457914039359629"><ele>12.0</ele><time>2026-04-29T19:01:20.007Z</time></trkpt><trkpt lat="43.58668413257868" lon="10.457679640042242"><ele>12.0</ele><time>2026-04-29T19:01:21.007Z</time></trkpt><trkpt lat="43.58691683120849" lon="10.457448662770297"><ele>12.0</ele><time>2026-04-29T19:01:22.007Z</time></trkpt><trkpt lat="43.587149502213656" lon="10.457220818300526"><ele>11.0</ele><time>2026-04-29T19:01:23.007Z</time></trkpt><trkpt lat="43.58738423443438" lon="10.456996763040562"><ele>10.0</ele><time>2026-04-29T19:01:24.007Z</time></trkpt><trkpt lat="43.58762255128216" lon="10.456778124122412"><ele>10.5</ele><time>2026-04-29T19:01:25.007Z</time></trkpt><trkpt lat="43.58786559368368" lon="10.456565669732145"><ele>11.0</ele><time>2026-04-29T19:01:26.007Z</time></trkpt><trkpt lat="43.588109985449584" lon="10.456354903322033"><ele>11.5</ele><time>2026-04-29T19:01:27.007Z</time></trkpt><trkpt lat="43.588354504746206" lon="10.456149674968582"><ele>12.0</ele><time>2026-04-29T19:01:28.007Z</time></trkpt><trkpt lat="43.588602170192175" lon="10.455950075317665"><ele>11.5</ele><time>2026-04-29T19:01:29.007Z</time></trkpt><trkpt lat="43.588855097179994" lon="10.455760011062765"><ele>11.0</ele><time>2026-04-29T19:01:30.007Z</time></trkpt><trkpt lat="43.58910722906376" lon="10.455571729081"><ele>10.5</ele><time>2026-04-29T19:01:31.007Z</time></trkpt><trkpt lat="43.58936026112407" lon="10.455385559614633"><ele>10.0</ele><time>2026-04-29T19:01:32.007Z</time></trkpt><trkpt lat="43.5896168530662" lon="10.45520524252882"><ele>10.0</ele><time>2026-04-29T19:01:33.007Z</time></trkpt><trkpt lat="43.58987489905777" lon="10.45502711155661"><ele>10.0</ele><time>2026-04-29T19:01:34.007Z</time></trkpt><trkpt lat="43.59013384726205" lon="10.45485402314941"><ele>10.0</ele><time>2026-04-29T19:01:35.007Z</time></trkpt><trkpt lat="43.59039125438921" lon="10.454682743748773"><ele>10.0</ele><time>2026-04-29T19:01:36.007Z</time></trkpt><trkpt lat="43.59065122402111" lon="10.454516346491733"><ele>10.0</ele><time>2026-04-29T19:01:37.007Z</time></trkpt><trkpt lat="43.59091529364866" lon="10.454355102323273"><ele>10.0</ele><time>2026-04-29T19:01:38.007Z</time></trkpt><trkpt lat="43.5911779053762" lon="10.454196215589157"><ele>9.0</ele><time>2026-04-29T19:01:39.007Z</time></trkpt><trkpt lat="43.591441146945165" lon="10.454038621860885"><ele>8.0</ele><time>2026-04-29T19:01:40.007Z</time></trkpt><trkpt lat="43.59170388436765" lon="10.453883902749455"><ele>7.5</ele><time>2026-04-29T19:01:41.007Z</time></trkpt><trkpt lat="43.59196855567749" lon="10.45373291360461"><ele>7.0</ele><time>2026-04-29T19:01:42.007Z</time></trkpt><trkpt lat="43.59223368070565" lon="10.453585089634595"><ele>7.0</ele><time>2026-04-29T19:01:43.007Z</time></trkpt><trkpt lat="43.59249826436315" lon="10.453439131270637"><ele>7.0</ele><time>2026-04-29T19:01:44.007Z</time></trkpt><trkpt lat="43.592768210233736" lon="10.453296495248503"><ele>7.0</ele><time>2026-04-29T19:01:45.007Z</time></trkpt><trkpt lat="43.593037082347855" lon="10.453156134278768"><ele>7.0</ele><time>2026-04-29T19:01:46.007Z</time></trkpt><trkpt lat="43.593302856621676" lon="10.453013456522374"><ele>7.5</ele><time>2026-04-29T19:01:47.007Z</time></trkpt><trkpt lat="43.593571244427565" lon="10.45287342177372"><ele>8.0</ele><time>2026-04-29T19:01:48.007Z</time></trkpt><trkpt lat="43.59383998421033" lon="10.452735653365337"><ele>8.0</ele><time>2026-04-29T19:01:49.007Z</time></trkpt><trkpt lat="43.594107197870564" lon="10.45259616170137"><ele>8.0</ele><time>2026-04-29T19:01:50.007Z</time></trkpt><trkpt lat="43.59437988734583" lon="10.452459600750197"><ele>8.0</ele><time>2026-04-29T19:01:51.007Z</time></trkpt><trkpt lat="43.5946495765621" lon="10.452323280227178"><ele>8.0</ele><time>2026-04-29T19:01:52.007Z</time></trkpt><trkpt lat="43.59491852939281" lon="10.45218650439332"><ele>7.5</ele><time>2026-04-29T19:01:53.007Z</time></trkpt><trkpt lat="43.59518818206109" lon="10.452049271401012"><ele>7.0</ele><time>2026-04-29T19:01:54.008Z</time></trkpt><trkpt lat="43.5954565751331" lon="10.451914542133824"><ele>7.0</ele><time>2026-04-29T19:01:55.008Z</time></trkpt><trkpt lat="43.595722763568304" lon="10.45177599576174"><ele>7.0</ele><time>2026-04-29T19:01:56.008Z</time></trkpt><trkpt lat="43.59599115656475" lon="10.451639116236414"><ele>6.5</ele><time>2026-04-29T19:01:57.009Z</time></trkpt><trkpt lat="43.596261865343294" lon="10.451504304534494"><ele>6.0</ele><time>2026-04-29T19:01:58.008Z</time></trkpt><trkpt lat="43.59653158477025" lon="10.451369066152555"><ele>6.0</ele><time>2026-04-29T19:01:59.008Z</time></trkpt><trkpt lat="43.59680110988853" lon="10.45123238962382"><ele>6.0</ele><time>2026-04-29T19:02:00.009Z</time></trkpt><trkpt lat="43.59706886356285" lon="10.451093806689078"><ele>6.0</ele><time>2026-04-29T19:02:01.008Z</time></trkpt><trkpt lat="43.5973379225435" lon="10.45095509878234"><ele>6.0</ele><time>2026-04-29T19:02:02.008Z</time></trkpt><trkpt lat="43.5976091351283" lon="10.450818312220912"><ele>6.5</ele><time>2026-04-29T19:02:03.008Z</time></trkpt><trkpt lat="43.59788077365999" lon="10.450682103340899"><ele>7.0</ele><time>2026-04-29T19:02:04.008Z</time></trkpt><trkpt lat="43.5981523699126" lon="10.450546075912724"><ele>7.0</ele><time>2026-04-29T19:02:05.008Z</time></trkpt><trkpt lat="43.59842251699945" lon="10.45040744765393"><ele>7.0</ele><time>2026-04-29T19:02:06.008Z</time></trkpt><trkpt lat="43.59869074062717" lon="10.450270134156005"><ele>7.0</ele><time>2026-04-29T19:02:07.008Z</time></trkpt><trkpt lat="43.59896115445206" lon="10.450133049517639"><ele>7.0</ele><time>2026-04-29T19:02:08.008Z</time></trkpt><trkpt lat="43.59923253140265" lon="10.449998527246116"><ele>7.0</ele><time>2026-04-29T19:02:09.008Z</time></trkpt><trkpt lat="43.599501720883595" lon="10.449863318314698"><ele>7.0</ele><time>2026-04-29T19:02:10.008Z</time></trkpt><trkpt lat="43.5997694320155" lon="10.449726658825321"><ele>7.5</ele><time>2026-04-29T19:02:11.008Z</time></trkpt><trkpt lat="43.60003842365647" lon="10.449590570458524"><ele>8.0</ele><time>2026-04-29T19:02:12.008Z</time></trkpt><trkpt lat="43.60030747487353" lon="10.449455018925747"><ele>8.5</ele><time>2026-04-29T19:02:13.008Z</time></trkpt><trkpt lat="43.60057619328265" lon="10.449319893503406"><ele>9.0</ele><time>2026-04-29T19:02:14.008Z</time></trkpt><trkpt lat="43.60084782956382" lon="10.449186359495274"><ele>9.0</ele><time>2026-04-29T19:02:15.008Z</time></trkpt><trkpt lat="43.60111837841417" lon="10.449052316450604"><ele>9.0</ele><time>2026-04-29T19:02:16.008Z</time></trkpt><trkpt lat="43.60138506165006" lon="10.448913346186602"><ele>8.0</ele><time>2026-04-29T19:02:17.008Z</time></trkpt><trkpt lat="43.60165320686748" lon="10.448775710577012"><ele>7.0</ele><time>2026-04-29T19:02:18.008Z</time></trkpt><trkpt lat="43.601921709288995" lon="10.448637329213227"><ele>6.5</ele><time>2026-04-29T19:02:19.008Z</time></trkpt><trkpt lat="43.60219114431793" lon="10.448500339840653"><ele>6.0</ele><time>2026-04-29T19:02:20.008Z</time></trkpt><trkpt lat="43.602459261650814" lon="10.448360703035599"><ele>6.0</ele><time>2026-04-29T19:02:21.008Z</time></trkpt><trkpt lat="43.60272804734252" lon="10.448220947414221"><ele>6.0</ele><time>2026-04-29T19:02:22.008Z</time></trkpt><trkpt lat="43.6029975291403" lon="10.448077822623038"><ele>6.5</ele><time>2026-04-29T19:02:23.008Z</time></trkpt><trkpt lat="43.60326687025717" lon="10.447935802894879"><ele>7.0</ele><time>2026-04-29T19:02:24.008Z</time></trkpt><trkpt lat="43.60353608632652" lon="10.447793437766766"><ele>6.5</ele><time>2026-04-29T19:02:25.008Z</time></trkpt><trkpt lat="43.60380355354677" lon="10.447648612699252"><ele>6.0</ele><time>2026-04-29T19:02:26.008Z</time></trkpt><trkpt lat="43.60407072632731" lon="10.447500836187617"><ele>6.0</ele><time>2026-04-29T19:02:27.008Z</time></trkpt><trkpt lat="43.604336476353716" lon="10.447348886524027"><ele>6.0</ele><time>2026-04-29T19:02:28.008Z</time></trkpt><trkpt lat="43.60460061796944" lon="10.447195716942865"><ele>6.0</ele><time>2026-04-29T19:02:29.008Z</time></trkpt><trkpt lat="43.60486694001518" lon="10.447041082391367"><ele>6.0</ele><time>2026-04-29T19:02:30.008Z</time></trkpt><trkpt lat="43.605129679202015" lon="10.446886371380767"><ele>6.5</ele><time>2026-04-29T19:02:31.008Z</time></trkpt><trkpt lat="43.605396856601594" lon="10.44672936830064"><ele>7.0</ele><time>2026-04-29T19:02:32.008Z</time></trkpt><trkpt lat="43.60565933357551" lon="10.446566565682035"><ele>7.0</ele><time>2026-04-29T19:02:33.008Z</time></trkpt><trkpt lat="43.60591877924309" lon="10.446400237017215"><ele>7.0</ele><time>2026-04-29T19:02:34.008Z</time></trkpt><trkpt lat="43.606176857554985" lon="10.446230483432515"><ele>6.0</ele><time>2026-04-29T19:02:35.008Z</time></trkpt><trkpt lat="43.60643451941836" lon="10.44605837224423"><ele>5.0</ele><time>2026-04-29T19:02:36.008Z</time></trkpt><trkpt lat="43.606694805931596" lon="10.445885566707899"><ele>5.0</ele><time>2026-04-29T19:02:37.008Z</time></trkpt><trkpt lat="43.60695419136892" lon="10.445709577363115"><ele>5.0</ele><time>2026-04-29T19:02:38.008Z</time></trkpt><trkpt lat="43.607206003814426" lon="10.44553112499011"><ele>5.0</ele><time>2026-04-29T19:02:39.008Z</time></trkpt><trkpt lat="43.607453874884186" lon="10.445355615972783"><ele>5.0</ele><time>2026-04-29T19:02:40.008Z</time></trkpt><trkpt lat="43.607690830761754" lon="10.445183992696013"><ele>4.5</ele><time>2026-04-29T19:02:41.008Z</time></trkpt><trkpt lat="43.607914789476" lon="10.4450184135513"><ele>4.0</ele><time>2026-04-29T19:02:42.008Z</time></trkpt><trkpt lat="43.60812396596032" lon="10.4448611683295"><ele>4.0</ele><time>2026-04-29T19:02:43.008Z</time></trkpt><trkpt lat="43.60833508637433" lon="10.444704554303554"><ele>4.0</ele><time>2026-04-29T19:02:44.008Z</time></trkpt><trkpt lat="43.60853013437065" lon="10.44454797862172"><ele>4.666666666666666</ele><time>2026-04-29T19:02:45.008Z</time></trkpt><trkpt lat="43.6087242219677" lon="10.444394226089466"><ele>5.333333333333333</ele><time>2026-04-29T19:02:46.008Z</time></trkpt><trkpt lat="43.60891068268489" lon="10.444243241983818"><ele>6.0</ele><time>2026-04-29T19:02:47.008Z</time></trkpt><trkpt lat="43.609088016839955" lon="10.444099675211616"><ele>6.0</ele><time>2026-04-29T19:02:48.008Z</time></trkpt><trkpt lat="43.60925523059038" lon="10.44396524944367"><ele>6.0</ele><time>2026-04-29T19:02:49.008Z</time></trkpt><trkpt lat="43.609418013002916" lon="10.443832654863789"><ele>6.0</ele><time>2026-04-29T19:02:50.008Z</time></trkpt><trkpt lat="43.609573259532176" lon="10.443701998306063"><ele>5.666666666666667</ele><time>2026-04-29T19:02:51.008Z</time></trkpt><trkpt lat="43.609719896102334" lon="10.443578240787396"><ele>5.333333333333334</ele><time>2026-04-29T19:02:52.008Z</time></trkpt><trkpt lat="43.60986612393055" lon="10.44345484222947"><ele>5.0</ele><time>2026-04-29T19:02:53.008Z</time></trkpt><trkpt lat="43.610018255810765" lon="10.443326538633375"><ele>5.0</ele><time>2026-04-29T19:02:54.008Z</time></trkpt><trkpt lat="43.610169002609496" lon="10.443202363855178"><ele>5.0</ele><time>2026-04-29T19:02:55.008Z</time></trkpt><trkpt lat="43.610318097438146" lon="10.443076947684581"><ele>5.0</ele><time>2026-04-29T19:02:56.008Z</time></trkpt><trkpt lat="43.61046756569894" lon="10.442950666028523"><ele>4.666666666666667</ele><time>2026-04-29T19:02:57.008Z</time></trkpt><trkpt lat="43.61061251845976" lon="10.44282576434369"><ele>4.333333333333333</ele><time>2026-04-29T19:02:58.008Z</time></trkpt><trkpt lat="43.61075540246206" lon="10.442702753893359"><ele>4.0</ele><time>2026-04-29T19:02:59.008Z</time></trkpt><trkpt lat="43.61090064440642" lon="10.442579743492292"><ele>4.0</ele><time>2026-04-29T19:03:00.008Z</time></trkpt><trkpt lat="43.6110522964198" lon="10.442456031207824"><ele>4.0</ele><time>2026-04-29T19:03:01.007Z</time></trkpt><trkpt lat="43.611205155718764" lon="10.442336235043834"><ele>4.0</ele><time>2026-04-29T19:03:02.007Z</time></trkpt><trkpt lat="43.61135343747163" lon="10.442225739041513"><ele>4.0</ele><time>2026-04-29T19:03:03.007Z</time></trkpt><trkpt lat="43.61149954839513" lon="10.442135290065778"><ele>4.0</ele><time>2026-04-29T19:03:04.007Z</time></trkpt><trkpt lat="43.61163822330196" lon="10.44205667715173"><ele>4.0</ele><time>2026-04-29T19:03:05.007Z</time></trkpt><trkpt lat="43.611779563237725" lon="10.441990612122815"><ele>3.6666666666666665</ele><time>2026-04-29T19:03:06.007Z</time></trkpt><trkpt lat="43.61192394288681" lon="10.441940595379354"><ele>3.333333333333333</ele><time>2026-04-29T19:03:07.007Z</time></trkpt><trkpt lat="43.612073554799" lon="10.441907681222293"><ele>3.0</ele><time>2026-04-29T19:03:08.007Z</time></trkpt><trkpt lat="43.61222726077789" lon="10.441893470868958"><ele>3.0</ele><time>2026-04-29T19:03:09.007Z</time></trkpt><trkpt lat="43.61238463037497" lon="10.441911812151417"><ele>3.0</ele><time>2026-04-29T19:03:10.007Z</time></trkpt><trkpt lat="43.61254142535891" lon="10.441956633592605"><ele>3.0</ele><time>2026-04-29T19:03:11.007Z</time></trkpt><trkpt lat="43.61269523837212" lon="10.442025044064117"><ele>2.6666666666666665</ele><time>2026-04-29T19:03:12.007Z</time></trkpt><trkpt lat="43.612840454746966" lon="10.442122432450686"><ele>2.333333333333333</ele><time>2026-04-29T19:03:13.007Z</time></trkpt><trkpt lat="43.61297941268537" lon="10.442238176040414"><ele>2.0</ele><time>2026-04-29T19:03:14.007Z</time></trkpt><trkpt lat="43.613112518772645" lon="10.442371060001925"><ele>2.0</ele><time>2026-04-29T19:03:15.007Z</time></trkpt><trkpt lat="43.61323945371205" lon="10.4425253496346"><ele>2.0</ele><time>2026-04-29T19:03:16.007Z</time></trkpt><trkpt lat="43.61335536440093" lon="10.44268933110069"><ele>2.0</ele><time>2026-04-29T19:03:17.007Z</time></trkpt><trkpt lat="43.613462352244106" lon="10.44285611956482"><ele>2.0</ele><time>2026-04-29T19:03:18.007Z</time></trkpt><trkpt lat="43.61356503135069" lon="10.443030437411439"><ele>2.0</ele><time>2026-04-29T19:03:19.007Z</time></trkpt><trkpt lat="43.61366605923208" lon="10.443207985844062"><ele>2.0</ele><time>2026-04-29T19:03:20.007Z</time></trkpt><trkpt lat="43.61376703550219" lon="10.443390115644782"><ele>2.0</ele><time>2026-04-29T19:03:21.007Z</time></trkpt><trkpt lat="43.61386680590424" lon="10.44356203037204"><ele>2.0</ele><time>2026-04-29T19:03:22.007Z</time></trkpt><trkpt lat="43.61396105095946" lon="10.443729022210947"><ele>2.0</ele><time>2026-04-29T19:03:23.007Z</time></trkpt><trkpt lat="43.61404526441352" lon="10.443890881478751"><ele>2.2</ele><time>2026-04-29T19:03:24.007Z</time></trkpt><trkpt lat="43.61411847002053" lon="10.444045143330635"><ele>2.4000000000000004</ele><time>2026-04-29T19:03:25.007Z</time></trkpt><trkpt lat="43.614179541404816" lon="10.444189101863161"><ele>2.5999999999999996</ele><time>2026-04-29T19:03:26.007Z</time></trkpt><trkpt lat="43.61422480402145" lon="10.444310969885906"><ele>2.8</ele><time>2026-04-29T19:03:27.007Z</time></trkpt><trkpt lat="43.61426324001291" lon="10.444420099904187"><ele>3.0</ele><time>2026-04-29T19:03:28.007Z</time></trkpt><trkpt lat="43.6142946646025" lon="10.444510822219865"><ele>3.0</ele><time>2026-04-29T19:03:29.007Z</time></trkpt><trkpt lat="43.614347039794914" lon="10.444649819005395"><ele>3.0</ele><time>2026-04-29T19:03:31.007Z</time></trkpt><trkpt lat="43.614397958850134" lon="10.44476355368256"><ele>3.0</ele><time>2026-04-29T19:03:33.007Z</time></trkpt><trkpt lat="43.61443272374945" lon="10.444839851864856"><ele>3.0</ele><time>2026-04-29T19:03:35.007Z</time></trkpt><trkpt lat="43.614479417321974" lon="10.444926646424133"><ele>3.0</ele><time>2026-04-29T19:03:39.007Z</time></trkpt><trkpt lat="43.61452207198364" lon="10.445009853639627"><ele>3.0</ele><time>2026-04-29T19:03:43.007Z</time></trkpt><trkpt lat="43.614565766230385" lon="10.445083105548331"><ele>3.75</ele><time>2026-04-29T19:03:55.007Z</time></trkpt><trkpt lat="43.61471749621832" lon="10.445069727167763"><ele>4.5</ele><time>2026-04-29T19:03:59.007Z</time></trkpt><trkpt lat="43.61477918549345" lon="10.445168698750111"><ele>5.25</ele><time>2026-04-29T19:04:01.008Z</time></trkpt><trkpt lat="43.61485588143902" lon="10.4452918130527"><ele>6.0</ele><time>2026-04-29T19:04:03.008Z</time></trkpt><trkpt lat="43.614936678499674" lon="10.445422390915018"><ele>5.833333333333333</ele><time>2026-04-29T19:04:05.008Z</time></trkpt><trkpt lat="43.61498636082629" lon="10.445502754744206"><ele>5.666666666666667</ele><time>2026-04-29T19:04:06.008Z</time></trkpt><trkpt lat="43.61504510382919" lon="10.445598070634244"><ele>5.5</ele><time>2026-04-29T19:04:07.007Z</time></trkpt><trkpt lat="43.6151015489291" lon="10.44568965797537"><ele>5.333333333333334</ele><time>2026-04-29T19:04:08.007Z</time></trkpt><trkpt lat="43.6151567199606" lon="10.445778316607417"><ele>5.166666666666667</ele><time>2026-04-29T19:04:09.007Z</time></trkpt><trkpt lat="43.61521124264137" lon="10.445865253690176"><ele>5.0</ele><time>2026-04-29T19:04:10.008Z</time></trkpt><trkpt lat="43.6152648386057" lon="10.4459507131092"><ele>5.0</ele><time>2026-04-29T19:04:11.008Z</time></trkpt><trkpt lat="43.615319160240055" lon="10.446037329614688"><ele>5.0</ele><time>2026-04-29T19:04:12.007Z</time></trkpt><trkpt lat="43.615370731341265" lon="10.446119560367714"><ele>5.0</ele><time>2026-04-29T19:04:13.008Z</time></trkpt><trkpt lat="43.61541325608258" lon="10.446187366592834"><ele>5.0</ele><time>2026-04-29T19:04:14.008Z</time></trkpt><trkpt lat="43.615468271734144" lon="10.446278183103402"><ele>5.0</ele><time>2026-04-29T19:04:16.008Z</time></trkpt><trkpt lat="43.615511739457325" lon="10.44635542155406"><ele>5.0</ele><time>2026-04-29T19:06:00.006Z</time></trkpt><trkpt lat="43.61555486418665" lon="10.446452509087289"><ele>4.666666666666667</ele><time>2026-04-29T19:06:03.006Z</time></trkpt><trkpt lat="43.61563165878211" lon="10.446550967313694"><ele>4.333333333333334</ele><time>2026-04-29T19:06:05.006Z</time></trkpt><trkpt lat="43.615678304645286" lon="10.446617468517758"><ele>4.0</ele><time>2026-04-29T19:06:06.007Z</time></trkpt><trkpt lat="43.615730149295395" lon="10.44670038815128"><ele>3.666666666666667</ele><time>2026-04-29T19:06:07.007Z</time></trkpt><trkpt lat="43.61578402627286" lon="10.446793291372595"><ele>3.3333333333333335</ele><time>2026-04-29T19:06:08.007Z</time></trkpt><trkpt lat="43.61583978915" lon="10.44689143748727"><ele>3.0</ele><time>2026-04-29T19:06:09.007Z</time></trkpt><trkpt lat="43.61590022890184" lon="10.446995975259826"><ele>3.0</ele><time>2026-04-29T19:06:10.008Z</time></trkpt><trkpt lat="43.61596423227375" lon="10.447105054207274"><ele>3.0</ele><time>2026-04-29T19:06:11.008Z</time></trkpt><trkpt lat="43.61603346358009" lon="10.447228780498344"><ele>3.0</ele><time>2026-04-29T19:06:12.008Z</time></trkpt><trkpt lat="43.61610876760101" lon="10.447358605344968"><ele>3.0</ele><time>2026-04-29T19:06:13.008Z</time></trkpt><trkpt lat="43.61618997128059" lon="10.44749559158812"><ele>3.0</ele><time>2026-04-29T19:06:14.008Z</time></trkpt><trkpt lat="43.61627856087632" lon="10.447645773034862"><ele>3.0</ele><time>2026-04-29T19:06:15.008Z</time></trkpt><trkpt lat="43.61637371855346" lon="10.447801230477255"><ele>3.0</ele><time>2026-04-29T19:06:16.008Z</time></trkpt><trkpt lat="43.616474096772905" lon="10.447954225588248"><ele>3.0</ele><time>2026-04-29T19:06:17.008Z</time></trkpt><trkpt lat="43.61657408330316" lon="10.448086060563588"><ele>3.0</ele><time>2026-04-29T19:06:18.008Z</time></trkpt><trkpt lat="43.6166653602697" lon="10.44818894370813"><ele>3.0</ele><time>2026-04-29T19:06:19.008Z</time></trkpt><trkpt lat="43.61674547856482" lon="10.448261893189672"><ele>3.0</ele><time>2026-04-29T19:06:20.007Z</time></trkpt><trkpt lat="43.61682449539848" lon="10.448311921753824"><ele>3.0</ele><time>2026-04-29T19:06:21.007Z</time></trkpt><trkpt lat="43.616906558656936" lon="10.448351349353183"><ele>3.0</ele><time>2026-04-29T19:06:22.007Z</time></trkpt><trkpt lat="43.61699947441564" lon="10.448381406665296"><ele>2.75</ele><time>2026-04-29T19:06:23.007Z</time></trkpt><trkpt lat="43.6171024039954" lon="10.448403532250987"><ele>2.5</ele><time>2026-04-29T19:06:24.007Z</time></trkpt><trkpt lat="43.61721339175412" lon="10.4484161292366"><ele>2.25</ele><time>2026-04-29T19:06:25.007Z</time></trkpt><trkpt lat="43.61733380927504" lon="10.448420257221716"><ele>2.0</ele><time>2026-04-29T19:06:26.007Z</time></trkpt><trkpt lat="43.617461193969625" lon="10.448416209437443"><ele>2.0</ele><time>2026-04-29T19:06:27.007Z</time></trkpt><trkpt lat="43.61759014281167" lon="10.448402437834888"><ele>2.0</ele><time>2026-04-29T19:06:28.007Z</time></trkpt><trkpt lat="43.61772179951523" lon="10.448366933195596"><ele>2.0</ele><time>2026-04-29T19:06:29.007Z</time></trkpt><trkpt lat="43.61785574979478" lon="10.448320201047347"><ele>2.0</ele><time>2026-04-29T19:06:30.007Z</time></trkpt><trkpt lat="43.61798839304084" lon="10.4482630616011"><ele>2.25</ele><time>2026-04-29T19:06:31.007Z</time></trkpt><trkpt lat="43.61811969093082" lon="10.448197222714652"><ele>2.5</ele><time>2026-04-29T19:06:32.007Z</time></trkpt><trkpt lat="43.61824647311537" lon="10.448123120595382"><ele>2.75</ele><time>2026-04-29T19:06:33.007Z</time></trkpt><trkpt lat="43.618373003853165" lon="10.44804107085716"><ele>3.0</ele><time>2026-04-29T19:06:34.007Z</time></trkpt><trkpt lat="43.61849443893637" lon="10.447947454322795"><ele>3.25</ele><time>2026-04-29T19:06:35.007Z</time></trkpt><trkpt lat="43.61862039550041" lon="10.447843923820182"><ele>3.5</ele><time>2026-04-29T19:06:36.007Z</time></trkpt><trkpt lat="43.61874385249127" lon="10.447729807483785"><ele>3.75</ele><time>2026-04-29T19:06:37.007Z</time></trkpt><trkpt lat="43.61886518849134" lon="10.447604258449102"><ele>4.0</ele><time>2026-04-29T19:06:38.007Z</time></trkpt><trkpt lat="43.61899228471927" lon="10.447459082120535"><ele>4.333333333333333</ele><time>2026-04-29T19:06:39.007Z</time></trkpt><trkpt lat="43.619112708983515" lon="10.44730008010503"><ele>4.666666666666667</ele><time>2026-04-29T19:06:40.007Z</time></trkpt><trkpt lat="43.619225427258364" lon="10.447126762661412"><ele>5.0</ele><time>2026-04-29T19:06:41.007Z</time></trkpt><trkpt lat="43.61932772881558" lon="10.446948496826327"><ele>4.0</ele><time>2026-04-29T19:06:42.007Z</time></trkpt><trkpt lat="43.61942569025498" lon="10.446763373662069"><ele>3.0</ele><time>2026-04-29T19:06:43.007Z</time></trkpt><trkpt lat="43.61951465274871" lon="10.446565605533076"><ele>2.0</ele><time>2026-04-29T19:06:44.007Z</time></trkpt><trkpt lat="43.61959120655488" lon="10.446363618433828"><ele>2.0</ele><time>2026-04-29T19:06:45.007Z</time></trkpt><trkpt lat="43.61965476864595" lon="10.446165842312658"><ele>2.0</ele><time>2026-04-29T19:06:46.007Z</time></trkpt><trkpt lat="43.61969750561919" lon="10.445964514819265"><ele>2.0</ele><time>2026-04-29T19:06:47.007Z</time></trkpt><trkpt lat="43.61971358982031" lon="10.445763293339136"><ele>2.0</ele><time>2026-04-29T19:06:48.007Z</time></trkpt><trkpt lat="43.61970550686614" lon="10.445565509785036"><ele>2.0</ele><time>2026-04-29T19:06:49.007Z</time></trkpt><trkpt lat="43.61966704361265" lon="10.445388780835993"><ele>2.0</ele><time>2026-04-29T19:06:50.007Z</time></trkpt><trkpt lat="43.61960481004226" lon="10.445236738395307"><ele>2.0</ele><time>2026-04-29T19:06:51.007Z</time></trkpt><trkpt lat="43.61951489871639" lon="10.445109447283599"><ele>1.75</ele><time>2026-04-29T19:06:52.007Z</time></trkpt><trkpt lat="43.619400490373565" lon="10.445009800677505"><ele>1.5</ele><time>2026-04-29T19:06:53.007Z</time></trkpt><trkpt lat="43.619277983822236" lon="10.444944503126882"><ele>1.25</ele><time>2026-04-29T19:06:54.007Z</time></trkpt><trkpt lat="43.61914444887134" lon="10.444912941337028"><ele>1.0</ele><time>2026-04-29T19:06:55.007Z</time></trkpt><trkpt lat="43.61900472871598" lon="10.444898571995822"><ele>1.0</ele><time>2026-04-29T19:06:56.007Z</time></trkpt><trkpt lat="43.618861501119746" lon="10.44488719380986"><ele>1.0</ele><time>2026-04-29T19:06:57.007Z</time></trkpt><trkpt lat="43.618713636010064" lon="10.444871077079796"><ele>1.0</ele><time>2026-04-29T19:06:58.007Z</time></trkpt><trkpt lat="43.61856814248239" lon="10.444836362252117"><ele>1.0</ele><time>2026-04-29T19:06:59.007Z</time></trkpt><trkpt lat="43.61841923823203" lon="10.444781991706462"><ele>0.6666666666666666</ele><time>2026-04-29T19:07:00.007Z</time></trkpt><trkpt lat="43.61827076550894" lon="10.444706063126073"><ele>0.3333333333333333</ele><time>2026-04-29T19:07:01.007Z</time></trkpt><trkpt lat="43.61813059588833" lon="10.444601856243937"><ele>0.0</ele><time>2026-04-29T19:07:02.007Z</time></trkpt><trkpt lat="43.61799777161182" lon="10.44447641295695"><ele>0.0</ele><time>2026-04-29T19:07:03.007Z</time></trkpt><trkpt lat="43.61787270920608" lon="10.444323023733057"><ele>0.0</ele><time>2026-04-29T19:07:04.007Z</time></trkpt><trkpt lat="43.61775583277294" lon="10.44415163349192"><ele>0.0</ele><time>2026-04-29T19:07:05.007Z</time></trkpt><trkpt lat="43.61765324691271" lon="10.443962090704987"><ele>0.0</ele><time>2026-04-29T19:07:06.007Z</time></trkpt><trkpt lat="43.617557777806724" lon="10.443754782422388"><ele>0.0</ele><time>2026-04-29T19:07:07.007Z</time></trkpt><trkpt lat="43.61748072707306" lon="10.443545553908324"><ele>0.0</ele><time>2026-04-29T19:07:08.007Z</time></trkpt><trkpt lat="43.61738999591857" lon="10.443334135747278"><ele>0.0</ele><time>2026-04-29T19:07:09.007Z</time></trkpt><trkpt lat="43.617338407407644" lon="10.443082338499627"><ele>0.0</ele><time>2026-04-29T19:07:10.007Z</time></trkpt><trkpt lat="43.617272395424635" lon="10.442853340904351"><ele>0.0</ele><time>2026-04-29T19:07:11.007Z</time></trkpt><trkpt lat="43.61721212709381" lon="10.442626741354879"><ele>0.3333333333333333</ele><time>2026-04-29T19:07:12.007Z</time></trkpt><trkpt lat="43.61715310526868" lon="10.442408011759197"><ele>0.6666666666666666</ele><time>2026-04-29T19:07:13.007Z</time></trkpt><trkpt lat="43.61709574711291" lon="10.442185133639368"><ele>1.0</ele><time>2026-04-29T19:07:14.007Z</time></trkpt><trkpt lat="43.617040048146" lon="10.441958135739055"><ele>1.0</ele><time>2026-04-29T19:07:15.007Z</time></trkpt><trkpt lat="43.61698698512288" lon="10.441731264622783"><ele>1.0</ele><time>2026-04-29T19:07:16.007Z</time></trkpt><trkpt lat="43.61693605121157" lon="10.44150797037186"><ele>1.0</ele><time>2026-04-29T19:07:17.007Z</time></trkpt><trkpt lat="43.616888101834085" lon="10.441286493266428"><ele>0.6666666666666666</ele><time>2026-04-29T19:07:18.007Z</time></trkpt><trkpt lat="43.61685113376558" lon="10.441072256870429"><ele>0.3333333333333333</ele><time>2026-04-29T19:07:19.007Z</time></trkpt><trkpt lat="43.61681916989093" lon="10.440867874804905"><ele>0.0</ele><time>2026-04-29T19:07:20.007Z</time></trkpt><trkpt lat="43.61679166428703" lon="10.440674718836691"><ele>0.0</ele><time>2026-04-29T19:07:21.007Z</time></trkpt><trkpt lat="43.61676994094961" lon="10.44049109468199"><ele>0.0</ele><time>2026-04-29T19:07:22.007Z</time></trkpt><trkpt lat="43.61675292695867" lon="10.44032035308666"><ele>0.0</ele><time>2026-04-29T19:07:23.007Z</time></trkpt><trkpt lat="43.61673542678394" lon="10.44015548071946"><ele>0.0</ele><time>2026-04-29T19:07:24.007Z</time></trkpt><trkpt lat="43.61671374953997" lon="10.43999117179293"><ele>0.2</ele><time>2026-04-29T19:07:25.007Z</time></trkpt><trkpt lat="43.61669149355536" lon="10.439837677637213"><ele>0.4</ele><time>2026-04-29T19:07:26.007Z</time></trkpt><trkpt lat="43.616671409554655" lon="10.439689759644141"><ele>0.6000000000000001</ele><time>2026-04-29T19:07:27.007Z</time></trkpt><trkpt lat="43.61665885993053" lon="10.439550604814054"><ele>0.8</ele><time>2026-04-29T19:07:28.006Z</time></trkpt><trkpt lat="43.616634034832074" lon="10.43943266857452"><ele>1.0</ele><time>2026-04-29T19:07:29.006Z</time></trkpt><trkpt lat="43.61665696072361" lon="10.439314092014294"><ele>1.1666666666666665</ele><time>2026-04-29T19:07:30.006Z</time></trkpt><trkpt lat="43.61666283483718" lon="10.439215847348185"><ele>1.3333333333333333</ele><time>2026-04-29T19:07:31.006Z</time></trkpt><trkpt lat="43.616670943847566" lon="10.43912842342112"><ele>1.5</ele><time>2026-04-29T19:07:32.006Z</time></trkpt><trkpt lat="43.61666488574115" lon="10.438982436390807"><ele>1.6666666666666665</ele><time>2026-04-29T19:07:34.006Z</time></trkpt><trkpt lat="43.616661869198374" lon="10.438874759226746"><ele>1.8333333333333333</ele><time>2026-04-29T19:07:36.006Z</time></trkpt><trkpt lat="43.616658097757245" lon="10.438755262166065"><ele>2.0</ele><time>2026-04-29T19:07:39.006Z</time></trkpt><trkpt lat="43.61657624702795" lon="10.438695138280051"><ele>2.2</ele><time>2026-04-29T19:07:42.006Z</time></trkpt><trkpt lat="43.61653433816822" lon="10.43858140938024"><ele>2.4000000000000004</ele><time>2026-04-29T19:08:25.007Z</time></trkpt><trkpt lat="43.61648796049827" lon="10.438417869782302"><ele>2.5999999999999996</ele><time>2026-04-29T19:08:27.007Z</time></trkpt><trkpt lat="43.616487443648936" lon="10.438303756795447"><ele>2.8</ele><time>2026-04-29T19:08:28.007Z</time></trkpt><trkpt lat="43.61646310085417" lon="10.438178799800273"><ele>3.0</ele><time>2026-04-29T19:08:29.007Z</time></trkpt><trkpt lat="43.616435657680256" lon="10.438026263082225"><ele>2.5</ele><time>2026-04-29T19:08:30.007Z</time></trkpt><trkpt lat="43.61640688176065" lon="10.437851715356896"><ele>2.0</ele><time>2026-04-29T19:08:31.007Z</time></trkpt><trkpt lat="43.61637483271253" lon="10.437662532505204"><ele>1.5</ele><time>2026-04-29T19:08:32.007Z</time></trkpt><trkpt lat="43.61633777404376" lon="10.437456107680845"><ele>1.0</ele><time>2026-04-29T19:08:33.007Z</time></trkpt><trkpt lat="43.61629698790862" lon="10.437225653625854"><ele>1.3333333333333333</ele><time>2026-04-29T19:08:34.007Z</time></trkpt><trkpt lat="43.616254424653405" lon="10.436979102485338"><ele>1.6666666666666665</ele><time>2026-04-29T19:08:35.007Z</time></trkpt><trkpt lat="43.61621218024793" lon="10.436710600479012"><ele>2.0</ele><time>2026-04-29T19:08:36.007Z</time></trkpt><trkpt lat="43.61617008989289" lon="10.43642458226319"><ele>3.5</ele><time>2026-04-29T19:08:37.007Z</time></trkpt><trkpt lat="43.616123551943524" lon="10.43611365297594"><ele>5.0</ele><time>2026-04-29T19:08:38.007Z</time></trkpt><trkpt lat="43.61607224589155" lon="10.435794868573668"><ele>5.0</ele><time>2026-04-29T19:08:39.007Z</time></trkpt><trkpt lat="43.616021980286504" lon="10.435473517819581"><ele>5.0</ele><time>2026-04-29T19:08:40.007Z</time></trkpt><trkpt lat="43.6159770544472" lon="10.435145156635555"><ele>4.5</ele><time>2026-04-29T19:08:41.007Z</time></trkpt><trkpt lat="43.6159218963561" lon="10.434811537646198"><ele>4.0</ele><time>2026-04-29T19:08:42.007Z</time></trkpt><trkpt lat="43.61586772238842" lon="10.43446988416098"><ele>2.5</ele><time>2026-04-29T19:08:43.007Z</time></trkpt><trkpt lat="43.615813070248535" lon="10.43411237591352"><ele>1.0</ele><time>2026-04-29T19:08:44.007Z</time></trkpt><trkpt lat="43.615748432140094" lon="10.43374214717438"><ele>0.0</ele><time>2026-04-29T19:08:45.007Z</time></trkpt><trkpt lat="43.615679099870384" lon="10.433379698770251"><ele>-1.0</ele><time>2026-04-29T19:08:46.007Z</time></trkpt><trkpt lat="43.61560722981609" lon="10.433011588857429"><ele>-1.0</ele><time>2026-04-29T19:08:47.007Z</time></trkpt><trkpt lat="43.61552809018294" lon="10.43264511042064"><ele>-1.0</ele><time>2026-04-29T19:08:48.007Z</time></trkpt><trkpt lat="43.61544535557477" lon="10.43228353895351"><ele>-1.0</ele><time>2026-04-29T19:08:49.007Z</time></trkpt><trkpt lat="43.61536065573457" lon="10.431921470472087"><ele>-1.0</ele><time>2026-04-29T19:08:50.007Z</time></trkpt><trkpt lat="43.615268702919884" lon="10.431559959851562"><ele>-0.5</ele><time>2026-04-29T19:08:51.007Z</time></trkpt><trkpt lat="43.6151699734022" lon="10.431198673141248"><ele>0.0</ele><time>2026-04-29T19:08:52.007Z</time></trkpt><trkpt lat="43.615062851899864" lon="10.430840225132926"><ele>0.0</ele><time>2026-04-29T19:08:53.007Z</time></trkpt><trkpt lat="43.61495182495339" lon="10.430481693666284"><ele>0.0</ele><time>2026-04-29T19:08:54.007Z</time></trkpt><trkpt lat="43.61483368141207" lon="10.430121845484555"><ele>0.0</ele><time>2026-04-29T19:08:55.007Z</time></trkpt><trkpt lat="43.614707617828245" lon="10.42976752110323"><ele>0.0</ele><time>2026-04-29T19:08:56.007Z</time></trkpt><trkpt lat="43.6145744472886" lon="10.429412404113863"><ele>0.0</ele><time>2026-04-29T19:08:57.007Z</time></trkpt><trkpt lat="43.61443565138909" lon="10.429061637645313"><ele>0.0</ele><time>2026-04-29T19:08:58.007Z</time></trkpt><trkpt lat="43.6142922398789" lon="10.428713584739617"><ele>0.0</ele><time>2026-04-29T19:08:59.007Z</time></trkpt><trkpt lat="43.61414737828377" lon="10.428368324710553"><ele>0.0</ele><time>2026-04-29T19:09:00.007Z</time></trkpt><trkpt lat="43.613993443479295" lon="10.428024402890713"><ele>-1.0</ele><time>2026-04-29T19:09:01.007Z</time></trkpt><trkpt lat="43.613837484749205" lon="10.427683646960006"><ele>-2.0</ele><time>2026-04-29T19:09:02.007Z</time></trkpt><trkpt lat="43.61367784460503" lon="10.427345842821858"><ele>-1.0</ele><time>2026-04-29T19:09:03.007Z</time></trkpt><trkpt lat="43.613516629456065" lon="10.42701174782822"><ele>0.0</ele><time>2026-04-29T19:09:04.007Z</time></trkpt><trkpt lat="43.61335314326474" lon="10.426677809828643"><ele>0.0</ele><time>2026-04-29T19:09:05.007Z</time></trkpt><trkpt lat="43.613190267508905" lon="10.426347321213955"><ele>0.0</ele><time>2026-04-29T19:09:06.007Z</time></trkpt><trkpt lat="43.613025199541624" lon="10.426015103147366"><ele>0.0</ele><time>2026-04-29T19:09:07.007Z</time></trkpt><trkpt lat="43.61286104372954" lon="10.425682274854672"><ele>0.0</ele><time>2026-04-29T19:09:08.006Z</time></trkpt><trkpt lat="43.61269637826755" lon="10.425346569890202"><ele>0.5</ele><time>2026-04-29T19:09:09.006Z</time></trkpt><trkpt lat="43.61253207049107" lon="10.425009654485997"><ele>1.0</ele><time>2026-04-29T19:09:10.006Z</time></trkpt><trkpt lat="43.61237313599324" lon="10.424670166689268"><ele>0.5</ele><time>2026-04-29T19:09:11.006Z</time></trkpt><trkpt lat="43.61221746131423" lon="10.424325627317113"><ele>0.0</ele><time>2026-04-29T19:09:12.006Z</time></trkpt><trkpt lat="43.612063129642706" lon="10.423978796166839"><ele>0.0</ele><time>2026-04-29T19:09:13.006Z</time></trkpt><trkpt lat="43.61191444744681" lon="10.423630331450417"><ele>0.0</ele><time>2026-04-29T19:09:14.006Z</time></trkpt><trkpt lat="43.61177088051821" lon="10.423273781037967"><ele>0.0</ele><time>2026-04-29T19:09:15.006Z</time></trkpt><trkpt lat="43.61163017557636" lon="10.422915004168443"><ele>0.0</ele><time>2026-04-29T19:09:16.006Z</time></trkpt><trkpt lat="43.6114971360528" lon="10.422552409028228"><ele>0.0</ele><time>2026-04-29T19:09:17.006Z</time></trkpt><trkpt lat="43.61136666793393" lon="10.422177777381476"><ele>0.0</ele><time>2026-04-29T19:09:18.006Z</time></trkpt><trkpt lat="43.61124491408965" lon="10.42180558840719"><ele>0.0</ele><time>2026-04-29T19:09:19.006Z</time></trkpt><trkpt lat="43.61112843350473" lon="10.421434949149486"><ele>0.0</ele><time>2026-04-29T19:09:20.006Z</time></trkpt><trkpt lat="43.61101100343196" lon="10.421057891278453"><ele>0.0</ele><time>2026-04-29T19:09:21.006Z</time></trkpt><trkpt lat="43.61089739672994" lon="10.420683954917767"><ele>0.0</ele><time>2026-04-29T19:09:22.006Z</time></trkpt><trkpt lat="43.6107975251205" lon="10.420305767970856"><ele>-0.5</ele><time>2026-04-29T19:09:23.006Z</time></trkpt><trkpt lat="43.61070598799854" lon="10.419921004349254"><ele>-1.0</ele><time>2026-04-29T19:09:24.006Z</time></trkpt><trkpt lat="43.610619465809" lon="10.419541462553783"><ele>-1.5</ele><time>2026-04-29T19:09:25.006Z</time></trkpt><trkpt lat="43.6105368081173" lon="10.419159312044034"><ele>-2.0</ele><time>2026-04-29T19:09:26.006Z</time></trkpt><trkpt lat="43.61045952686551" lon="10.418776247109385"><ele>-2.0</ele><time>2026-04-29T19:09:27.006Z</time></trkpt><trkpt lat="43.610387882848485" lon="10.41838894877472"><ele>-2.0</ele><time>2026-04-29T19:09:28.006Z</time></trkpt><trkpt lat="43.61031955466417" lon="10.41800250173028"><ele>-1.5</ele><time>2026-04-29T19:09:29.006Z</time></trkpt><trkpt lat="43.61025426882663" lon="10.417611469952908"><ele>-1.0</ele><time>2026-04-29T19:09:30.006Z</time></trkpt><trkpt lat="43.610192564016685" lon="10.417219045967387"><ele>-1.5</ele><time>2026-04-29T19:09:31.006Z</time></trkpt><trkpt lat="43.61013619334354" lon="10.416824438771679"><ele>-2.0</ele><time>2026-04-29T19:09:32.006Z</time></trkpt><trkpt lat="43.61008503570398" lon="10.416429949136647"><ele>-2.5</ele><time>2026-04-29T19:09:33.006Z</time></trkpt><trkpt lat="43.61003823649739" lon="10.416028119944059"><ele>-3.0</ele><time>2026-04-29T19:09:34.006Z</time></trkpt><trkpt lat="43.609999454270124" lon="10.415626644172937"><ele>-2.0</ele><time>2026-04-29T19:09:35.006Z</time></trkpt><trkpt lat="43.60996655430361" lon="10.41523505662184"><ele>-1.0</ele><time>2026-04-29T19:09:36.006Z</time></trkpt><trkpt lat="43.60993786801188" lon="10.41487651727549"><ele>-1.0</ele><time>2026-04-29T19:09:37.006Z</time></trkpt><trkpt lat="43.60991583077996" lon="10.414538583818354"><ele>-1.0</ele><time>2026-04-29T19:09:38.006Z</time></trkpt><trkpt lat="43.609897401707514" lon="10.414207328958286"><ele>-1.0</ele><time>2026-04-29T19:09:39.006Z</time></trkpt><trkpt lat="43.60988314788521" lon="10.413882617913101"><ele>-1.0</ele><time>2026-04-29T19:09:40.006Z</time></trkpt><trkpt lat="43.60987016514325" lon="10.413555288261206"><ele>-1.5</ele><time>2026-04-29T19:09:41.006Z</time></trkpt><trkpt lat="43.60985725051148" lon="10.413223770245748"><ele>-2.0</ele><time>2026-04-29T19:09:42.006Z</time></trkpt><trkpt lat="43.60984425371858" lon="10.412895404441981"><ele>-1.3333333333333333</ele><time>2026-04-29T19:09:43.006Z</time></trkpt><trkpt lat="43.6098352467279" lon="10.41257979595585"><ele>-0.6666666666666666</ele><time>2026-04-29T19:09:44.006Z</time></trkpt><trkpt lat="43.609828731241016" lon="10.412282960865488"><ele>0.0</ele><time>2026-04-29T19:09:45.006Z</time></trkpt><trkpt lat="43.6098244096571" lon="10.411995727107726"><ele>0.3333333333333333</ele><time>2026-04-29T19:09:46.006Z</time></trkpt><trkpt lat="43.6098199559199" lon="10.41171169564445"><ele>0.6666666666666666</ele><time>2026-04-29T19:09:47.006Z</time></trkpt><trkpt lat="43.60981426022262" lon="10.411423680723026"><ele>1.0</ele><time>2026-04-29T19:09:48.006Z</time></trkpt><trkpt lat="43.60980823451129" lon="10.411136103460677"><ele>1.0</ele><time>2026-04-29T19:09:49.006Z</time></trkpt><trkpt lat="43.609806074378675" lon="10.410862014316791"><ele>1.0</ele><time>2026-04-29T19:09:50.006Z</time></trkpt><trkpt lat="43.60980503322782" lon="10.410597783179012"><ele>1.0</ele><time>2026-04-29T19:09:51.006Z</time></trkpt><trkpt lat="43.60980938436483" lon="10.410346697790203"><ele>0.0</ele><time>2026-04-29T19:09:52.006Z</time></trkpt><trkpt lat="43.609810124646174" lon="10.410108612798558"><ele>-1.0</ele><time>2026-04-29T19:09:53.006Z</time></trkpt><trkpt lat="43.60980688752902" lon="10.409881392598866"><ele>-2.0</ele><time>2026-04-29T19:09:54.006Z</time></trkpt><trkpt lat="43.609805839304585" lon="10.40968040395508"><ele>-1.75</ele><time>2026-04-29T19:09:55.006Z</time></trkpt><trkpt lat="43.609811242614576" lon="10.409496428581331"><ele>-1.5</ele><time>2026-04-29T19:09:56.006Z</time></trkpt><trkpt lat="43.60983513237722" lon="10.409322711193768"><ele>-1.25</ele><time>2026-04-29T19:09:57.006Z</time></trkpt><trkpt lat="43.60988112953808" lon="10.409171107145474"><ele>-1.0</ele><time>2026-04-29T19:09:58.006Z</time></trkpt><trkpt lat="43.60994339619196" lon="10.409036271221257"><ele>-1.0</ele><time>2026-04-29T19:09:59.006Z</time></trkpt><trkpt lat="43.610027895885175" lon="10.408927781125877"><ele>-1.0</ele><time>2026-04-29T19:10:00.006Z</time></trkpt><trkpt lat="43.61012877245943" lon="10.408848666324204"><ele>-1.0</ele><time>2026-04-29T19:10:01.006Z</time></trkpt><trkpt lat="43.61024373112653" lon="10.408796568728423"><ele>-1.0</ele><time>2026-04-29T19:10:02.006Z</time></trkpt><trkpt lat="43.61035891667458" lon="10.408787568302635"><ele>-0.8</ele><time>2026-04-29T19:10:03.006Z</time></trkpt><trkpt lat="43.6104703261748" lon="10.40878793642905"><ele>-0.6000000000000001</ele><time>2026-04-29T19:10:04.006Z</time></trkpt><trkpt lat="43.61057326574236" lon="10.408747095426383"><ele>-0.4</ele><time>2026-04-29T19:10:05.006Z</time></trkpt><trkpt lat="43.61066182307779" lon="10.40866560926401"><ele>-0.2</ele><time>2026-04-29T19:10:06.006Z</time></trkpt><trkpt lat="43.610738560008535" lon="10.408552226440404"><ele>0.0</ele><time>2026-04-29T19:10:07.006Z</time></trkpt><trkpt lat="43.61079713459615" lon="10.4084109041453"><ele>0.0</ele><time>2026-04-29T19:10:08.006Z</time></trkpt><trkpt lat="43.6108304062717" lon="10.408250862514524"><ele>0.0</ele><time>2026-04-29T19:10:09.006Z</time></trkpt><trkpt lat="43.61082960912017" lon="10.40807948977601"><ele>0.0</ele><time>2026-04-29T19:10:10.006Z</time></trkpt><trkpt lat="43.610801362161645" lon="10.407904442154322"><ele>0.0</ele><time>2026-04-29T19:10:11.006Z</time></trkpt><trkpt lat="43.610739359822674" lon="10.407743675216533"><ele>-0.25</ele><time>2026-04-29T19:10:12.006Z</time></trkpt><trkpt lat="43.61064904275638" lon="10.407617293684918"><ele>-0.5</ele><time>2026-04-29T19:10:13.006Z</time></trkpt><trkpt lat="43.61052371602621" lon="10.407529030812539"><ele>-0.75</ele><time>2026-04-29T19:10:14.006Z</time></trkpt><trkpt lat="43.610388780284644" lon="10.407475281222249"><ele>-1.0</ele><time>2026-04-29T19:10:15.005Z</time></trkpt><trkpt lat="43.61024090022965" lon="10.40745961771648"><ele>-1.0</ele><time>2026-04-29T19:10:16.005Z</time></trkpt><trkpt lat="43.61008430365398" lon="10.407464784670017"><ele>-1.0</ele><time>2026-04-29T19:10:17.005Z</time></trkpt><trkpt lat="43.609916732731264" lon="10.407477701718543"><ele>-1.0</ele><time>2026-04-29T19:10:18.008Z</time></trkpt><trkpt lat="43.60973316693158" lon="10.407493162722693"><ele>-1.0</ele><time>2026-04-29T19:10:19.007Z</time></trkpt><trkpt lat="43.609535843296065" lon="10.407510896119051"><ele>-1.0</ele><time>2026-04-29T19:10:20.007Z</time></trkpt><trkpt lat="43.60933228270829" lon="10.407527556921897"><ele>-1.0</ele><time>2026-04-29T19:10:21.007Z</time></trkpt><trkpt lat="43.60912296141953" lon="10.407544233661199"><ele>-1.0</ele><time>2026-04-29T19:10:22.007Z</time></trkpt><trkpt lat="43.60892113653067" lon="10.407554170256367"><ele>-1.0</ele><time>2026-04-29T19:10:23.007Z</time></trkpt><trkpt lat="43.60875385164094" lon="10.40756288056199"><ele>-1.0</ele><time>2026-04-29T19:10:24.007Z</time></trkpt><trkpt lat="43.60862327284055" lon="10.407567101118444"><ele>-0.75</ele><time>2026-04-29T19:10:25.008Z</time></trkpt><trkpt lat="43.60850696722439" lon="10.40757279341605"><ele>-0.5</ele><time>2026-04-29T19:10:26.008Z</time></trkpt><trkpt lat="43.60839114498322" lon="10.40757911672179"><ele>-0.25</ele><time>2026-04-29T19:10:27.007Z</time></trkpt><trkpt lat="43.608264356512464" lon="10.407590303243616"><ele>0.0</ele><time>2026-04-29T19:10:28.007Z</time></trkpt><trkpt lat="43.60812292810955" lon="10.407596668335744"><ele>0.0</ele><time>2026-04-29T19:10:29.007Z</time></trkpt><trkpt lat="43.607978007112706" lon="10.407602598585157"><ele>0.0</ele><time>2026-04-29T19:10:30.007Z</time></trkpt><trkpt lat="43.607839310513526" lon="10.407610387875897"><ele>0.0</ele><time>2026-04-29T19:10:31.007Z</time></trkpt><trkpt lat="43.60771696927695" lon="10.407618453965785"><ele>0.0</ele><time>2026-04-29T19:10:32.007Z</time></trkpt><trkpt lat="43.60760645984492" lon="10.407624778881342"><ele>0.0</ele><time>2026-04-29T19:10:33.007Z</time></trkpt><trkpt lat="43.607506978049706" lon="10.407622686945823"><ele>0.0</ele><time>2026-04-29T19:10:34.007Z</time></trkpt><trkpt lat="43.60742088934712" lon="10.407605988146774"><ele>0.0</ele><time>2026-04-29T19:10:35.007Z</time></trkpt><trkpt lat="43.60734765991991" lon="10.407561317367202"><ele>0.0</ele><time>2026-04-29T19:10:36.007Z</time></trkpt><trkpt lat="43.6072855986038" lon="10.407491320274245"><ele>0.0</ele><time>2026-04-29T19:10:37.007Z</time></trkpt><trkpt lat="43.60722963404391" lon="10.40740238829004"><ele>0.0</ele><time>2026-04-29T19:10:38.007Z</time></trkpt><trkpt lat="43.60717107440554" lon="10.407307770640458"><ele>0.0</ele><time>2026-04-29T19:10:39.007Z</time></trkpt><trkpt lat="43.607097768692896" lon="10.407222349932306"><ele>0.0</ele><time>2026-04-29T19:10:40.007Z</time></trkpt><trkpt lat="43.60701177104427" lon="10.407156313466292"><ele>0.0</ele><time>2026-04-29T19:10:41.007Z</time></trkpt><trkpt lat="43.60691392303053" lon="10.407117790179402"><ele>0.0</ele><time>2026-04-29T19:10:42.007Z</time></trkpt><trkpt lat="43.60680814927932" lon="10.407123031955438"><ele>0.0</ele><time>2026-04-29T19:10:43.007Z</time></trkpt><trkpt lat="43.60670254104851" lon="10.40717230122245"><ele>0.0</ele><time>2026-04-29T19:10:44.007Z</time></trkpt><trkpt lat="43.60659949156527" lon="10.407262764926895"><ele>0.0</ele><time>2026-04-29T19:10:45.007Z</time></trkpt><trkpt lat="43.60650731057368" lon="10.407381776109988"><ele>0.0</ele><time>2026-04-29T19:10:46.007Z</time></trkpt><trkpt lat="43.60642568443134" lon="10.407516298527847"><ele>0.0</ele><time>2026-04-29T19:10:47.007Z</time></trkpt><trkpt lat="43.60639865487834" lon="10.407667937324254"><ele>0.0</ele><time>2026-04-29T19:10:48.007Z</time></trkpt><trkpt lat="43.60639131235233" lon="10.407769342303514"><ele>0.0</ele><time>2026-04-29T19:10:49.007Z</time></trkpt><trkpt lat="43.60612996688417" lon="10.407749395677234"><ele>0.0</ele><time>2026-04-29T19:10:50.007Z</time></trkpt><trkpt lat="43.60599857774734" lon="10.407755657286152"><ele>0.25</ele><time>2026-04-29T19:10:51.007Z</time></trkpt><trkpt lat="43.605853265349076" lon="10.407753683615713"><ele>0.5</ele><time>2026-04-29T19:10:52.007Z</time></trkpt><trkpt lat="43.60570376809522" lon="10.407752465625004"><ele>0.75</ele><time>2026-04-29T19:10:53.007Z</time></trkpt><trkpt lat="43.60555598426579" lon="10.407757591907753"><ele>1.0</ele><time>2026-04-29T19:10:54.007Z</time></trkpt><trkpt lat="43.60541731985929" lon="10.407757573736504"><ele>0.75</ele><time>2026-04-29T19:10:55.007Z</time></trkpt><trkpt lat="43.60527829923314" lon="10.407755111230228"><ele>0.5</ele><time>2026-04-29T19:10:56.007Z</time></trkpt><trkpt lat="43.6051350881412" lon="10.407733470989884"><ele>0.25</ele><time>2026-04-29T19:10:57.007Z</time></trkpt><trkpt lat="43.60499303600128" lon="10.407680111408645"><ele>0.0</ele><time>2026-04-29T19:10:58.007Z</time></trkpt><trkpt lat="43.60486631941065" lon="10.407601337611176"><ele>0.0</ele><time>2026-04-29T19:10:59.007Z</time></trkpt><trkpt lat="43.60474720248766" lon="10.407492554072332"><ele>0.0</ele><time>2026-04-29T19:11:00.007Z</time></trkpt><trkpt lat="43.60463797256299" lon="10.40735678903952"><ele>0.0</ele><time>2026-04-29T19:11:01.007Z</time></trkpt><trkpt lat="43.60454633758732" lon="10.40719518847348"><ele>0.0</ele><time>2026-04-29T19:11:02.007Z</time></trkpt><trkpt lat="43.60447915479701" lon="10.407013480336792"><ele>-0.3333333333333333</ele><time>2026-04-29T19:11:03.007Z</time></trkpt><trkpt lat="43.604428988674556" lon="10.40681551607172"><ele>-0.6666666666666666</ele><time>2026-04-29T19:11:04.007Z</time></trkpt><trkpt lat="43.60438828064925" lon="10.406606524441866"><ele>-1.0</ele><time>2026-04-29T19:11:05.007Z</time></trkpt><trkpt lat="43.6043500993666" lon="10.406391816843195"><ele>-1.3333333333333333</ele><time>2026-04-29T19:11:06.007Z</time></trkpt><trkpt lat="43.6043075455846" lon="10.406171398898437"><ele>-1.6666666666666665</ele><time>2026-04-29T19:11:07.007Z</time></trkpt><trkpt lat="43.60425899264277" lon="10.405946005546713"><ele>-2.0</ele><time>2026-04-29T19:11:08.007Z</time></trkpt><trkpt lat="43.60421012546629" lon="10.405719969178497"><ele>-2.0</ele><time>2026-04-29T19:11:09.007Z</time></trkpt><trkpt lat="43.60415960812428" lon="10.405489207019361"><ele>-2.0</ele><time>2026-04-29T19:11:10.007Z</time></trkpt><trkpt lat="43.6041002930658" lon="10.405263328079924"><ele>-2.0</ele><time>2026-04-29T19:11:11.007Z</time></trkpt><trkpt lat="43.60403148173373" lon="10.405038113754706"><ele>-2.0</ele><time>2026-04-29T19:11:12.007Z</time></trkpt><trkpt lat="43.60394818111327" lon="10.404810618937494"><ele>-2.0</ele><time>2026-04-29T19:11:13.007Z</time></trkpt><trkpt lat="43.60384953844168" lon="10.404587539321899"><ele>-2.0</ele><time>2026-04-29T19:11:14.007Z</time></trkpt><trkpt lat="43.603741472307995" lon="10.404372086586001"><ele>-1.3333333333333333</ele><time>2026-04-29T19:11:15.007Z</time></trkpt><trkpt lat="43.603623668305325" lon="10.404162008866678"><ele>-0.6666666666666666</ele><time>2026-04-29T19:11:16.007Z</time></trkpt><trkpt lat="43.603493046615" lon="10.403964942441759"><ele>0.0</ele><time>2026-04-29T19:11:17.007Z</time></trkpt><trkpt lat="43.60335155962094" lon="10.40378167706022"><ele>0.3333333333333333</ele><time>2026-04-29T19:11:18.007Z</time></trkpt><trkpt lat="43.60320451343348" lon="10.403604048442917"><ele>0.6666666666666666</ele><time>2026-04-29T19:11:19.007Z</time></trkpt><trkpt lat="43.60304910053213" lon="10.40343754155171"><ele>1.0</ele><time>2026-04-29T19:11:20.007Z</time></trkpt><trkpt lat="43.60288875098586" lon="10.403275948415102"><ele>1.0</ele><time>2026-04-29T19:11:21.007Z</time></trkpt><trkpt lat="43.602726422912916" lon="10.40312317726865"><ele>1.0</ele><time>2026-04-29T19:11:22.007Z</time></trkpt><trkpt lat="43.60256195174792" lon="10.402969221251212"><ele>1.0</ele><time>2026-04-29T19:11:23.007Z</time></trkpt><trkpt lat="43.60239697252228" lon="10.402818415832222"><ele>0.6666666666666666</ele><time>2026-04-29T19:11:24.007Z</time></trkpt><trkpt lat="43.60222755374114" lon="10.40265562673467"><ele>0.3333333333333333</ele><time>2026-04-29T19:11:25.007Z</time></trkpt><trkpt lat="43.602057409354074" lon="10.40249012493561"><ele>0.0</ele><time>2026-04-29T19:11:26.007Z</time></trkpt><trkpt lat="43.60189003227048" lon="10.402326601762018"><ele>0.3333333333333333</ele><time>2026-04-29T19:11:27.007Z</time></trkpt><trkpt lat="43.60171738864404" lon="10.402162598767445"><ele>0.6666666666666666</ele><time>2026-04-29T19:11:28.007Z</time></trkpt><trkpt lat="43.601547015737225" lon="10.40199738256131"><ele>1.0</ele><time>2026-04-29T19:11:29.007Z</time></trkpt><trkpt lat="43.601372085167036" lon="10.401836944201445"><ele>1.0</ele><time>2026-04-29T19:11:30.007Z</time></trkpt><trkpt lat="43.60119888031324" lon="10.401670108228505"><ele>1.0</ele><time>2026-04-29T19:11:31.006Z</time></trkpt><trkpt lat="43.60102183994176" lon="10.401498981040254"><ele>1.0</ele><time>2026-04-29T19:11:32.006Z</time></trkpt><trkpt lat="43.60085640656759" lon="10.401333472201163"><ele>0.3333333333333333</ele><time>2026-04-29T19:11:33.006Z</time></trkpt><trkpt lat="43.60069409455829" lon="10.401185276558012"><ele>-0.3333333333333333</ele><time>2026-04-29T19:11:34.006Z</time></trkpt><trkpt lat="43.60053061286665" lon="10.40105447985904"><ele>-1.0</ele><time>2026-04-29T19:11:35.006Z</time></trkpt><trkpt lat="43.60035737435549" lon="10.40094856470438"><ele>-1.0</ele><time>2026-04-29T19:11:36.006Z</time></trkpt><trkpt lat="43.60017457324503" lon="10.400869549524334"><ele>-1.0</ele><time>2026-04-29T19:11:37.006Z</time></trkpt><trkpt lat="43.59997780252257" lon="10.400810440055889"><ele>-1.0</ele><time>2026-04-29T19:11:38.006Z</time></trkpt><trkpt lat="43.59977640718487" lon="10.400769464662398"><ele>-1.0</ele><time>2026-04-29T19:11:39.006Z</time></trkpt><trkpt lat="43.599568821367505" lon="10.400745842759896"><ele>-1.0</ele><time>2026-04-29T19:11:40.006Z</time></trkpt><trkpt lat="43.599351818166596" lon="10.400746780289515"><ele>-1.0</ele><time>2026-04-29T19:11:41.006Z</time></trkpt><trkpt lat="43.5991334505656" lon="10.400758741926314"><ele>-1.0</ele><time>2026-04-29T19:11:42.006Z</time></trkpt><trkpt lat="43.59890871209884" lon="10.400773954063816"><ele>-1.0</ele><time>2026-04-29T19:11:43.006Z</time></trkpt><trkpt lat="43.59868631038319" lon="10.400786514923697"><ele>-1.0</ele><time>2026-04-29T19:11:44.006Z</time></trkpt><trkpt lat="43.59848003571713" lon="10.400797375471832"><ele>-0.6666666666666666</ele><time>2026-04-29T19:11:45.006Z</time></trkpt><trkpt lat="43.598296519009956" lon="10.400801138377938"><ele>-0.3333333333333333</ele><time>2026-04-29T19:11:46.006Z</time></trkpt><trkpt lat="43.59814212722382" lon="10.400807630588236"><ele>0.0</ele><time>2026-04-29T19:11:47.006Z</time></trkpt><trkpt lat="43.59800310584314" lon="10.400808197162062"><ele>0.0</ele><time>2026-04-29T19:11:48.006Z</time></trkpt><trkpt lat="43.597876060701985" lon="10.40081546230119"><ele>0.0</ele><time>2026-04-29T19:11:49.006Z</time></trkpt><trkpt lat="43.597763993260585" lon="10.40081328352527"><ele>0.0</ele><time>2026-04-29T19:11:50.006Z</time></trkpt><trkpt lat="43.59767046219975" lon="10.400795126030259"><ele>0.0</ele><time>2026-04-29T19:11:51.006Z</time></trkpt><trkpt lat="43.597591364511246" lon="10.400812405204634"><ele>0.0</ele><time>2026-04-29T19:11:52.006Z</time></trkpt><trkpt lat="43.597497732809565" lon="10.400672524570345"><ele>-0.2</ele><time>2026-04-29T19:11:53.006Z</time></trkpt><trkpt lat="43.59740576742878" lon="10.400569046301138"><ele>-0.4</ele><time>2026-04-29T19:11:54.006Z</time></trkpt><trkpt lat="43.597315792514294" lon="10.400462526563592"><ele>-0.6000000000000001</ele><time>2026-04-29T19:11:55.006Z</time></trkpt><trkpt lat="43.59722420311704" lon="10.400389396822844"><ele>-0.8</ele><time>2026-04-29T19:11:56.006Z</time></trkpt><trkpt lat="43.597139812437355" lon="10.400332570488112"><ele>-1.0</ele><time>2026-04-29T19:11:57.006Z</time></trkpt><trkpt lat="43.59714032370852" lon="10.400064206546544"><ele>-1.0</ele><time>2026-04-29T19:11:58.006Z</time></trkpt><trkpt lat="43.59712313823163" lon="10.39987707405115"><ele>-1.0</ele><time>2026-04-29T19:11:59.006Z</time></trkpt><trkpt lat="43.5971162215939" lon="10.399657985885742"><ele>-1.0</ele><time>2026-04-29T19:12:00.006Z</time></trkpt><trkpt lat="43.59711399525648" lon="10.399425899216757"><ele>-1.0</ele><time>2026-04-29T19:12:01.006Z</time></trkpt><trkpt lat="43.59711259469813" lon="10.399178924583865"><ele>-1.0</ele><time>2026-04-29T19:12:02.006Z</time></trkpt><trkpt lat="43.59710661201552" lon="10.398923406830834"><ele>-1.0</ele><time>2026-04-29T19:12:03.006Z</time></trkpt><trkpt lat="43.59710163209788" lon="10.398652631379502"><ele>-1.0</ele><time>2026-04-29T19:12:04.006Z</time></trkpt><trkpt lat="43.59709527952763" lon="10.398370367931193"><ele>-1.0</ele><time>2026-04-29T19:12:05.006Z</time></trkpt><trkpt lat="43.59708644829775" lon="10.398079944101717"><ele>-1.0</ele><time>2026-04-29T19:12:06.006Z</time></trkpt><trkpt lat="43.597078866974954" lon="10.397787394042071"><ele>-0.6666666666666666</ele><time>2026-04-29T19:12:07.006Z</time></trkpt><trkpt lat="43.59707049787735" lon="10.39748473468823"><ele>-0.3333333333333333</ele><time>2026-04-29T19:12:08.006Z</time></trkpt><trkpt lat="43.59706629925733" lon="10.397181928382922"><ele>0.0</ele><time>2026-04-29T19:12:09.006Z</time></trkpt><trkpt lat="43.597061962448485" lon="10.396872762671874"><ele>0.0</ele><time>2026-04-29T19:12:10.006Z</time></trkpt><trkpt lat="43.59705372853422" lon="10.396565815578983"><ele>0.0</ele><time>2026-04-29T19:12:11.006Z</time></trkpt><trkpt lat="43.59704619880607" lon="10.396260441489348"><ele>0.0</ele><time>2026-04-29T19:12:12.006Z</time></trkpt><trkpt lat="43.597036467890916" lon="10.395953931242973"><ele>0.0</ele><time>2026-04-29T19:12:13.006Z</time></trkpt><trkpt lat="43.59703015088811" lon="10.395642182516328"><ele>0.0</ele><time>2026-04-29T19:12:14.006Z</time></trkpt><trkpt lat="43.59702277570672" lon="10.395329430954035"><ele>0.0</ele><time>2026-04-29T19:12:15.006Z</time></trkpt><trkpt lat="43.597014490208515" lon="10.395015959216215"><ele>0.0</ele><time>2026-04-29T19:12:16.006Z</time></trkpt><trkpt lat="43.59700344988413" lon="10.394697662464223"><ele>0.0</ele><time>2026-04-29T19:12:17.006Z</time></trkpt><trkpt lat="43.59699298582124" lon="10.394378361603914"><ele>0.0</ele><time>2026-04-29T19:12:18.006Z</time></trkpt><trkpt lat="43.5969845536694" lon="10.394059567122873"><ele>0.5</ele><time>2026-04-29T19:12:19.006Z</time></trkpt><trkpt lat="43.596977403479364" lon="10.393736408913671"><ele>1.0</ele><time>2026-04-29T19:12:20.006Z</time></trkpt><trkpt lat="43.596970296998194" lon="10.393411734852021"><ele>1.0</ele><time>2026-04-29T19:12:21.006Z</time></trkpt><trkpt lat="43.596964512680074" lon="10.393093348261125"><ele>1.0</ele><time>2026-04-29T19:12:22.006Z</time></trkpt><trkpt lat="43.59695745069312" lon="10.392779617999842"><ele>0.5</ele><time>2026-04-29T19:12:23.006Z</time></trkpt><trkpt lat="43.59695370764234" lon="10.392466953597204"><ele>0.0</ele><time>2026-04-29T19:12:24.007Z</time></trkpt><trkpt lat="43.596950114846884" lon="10.39215648879391"><ele>0.0</ele><time>2026-04-29T19:12:25.007Z</time></trkpt><trkpt lat="43.59694993672663" lon="10.391842327969954"><ele>0.0</ele><time>2026-04-29T19:12:26.007Z</time></trkpt><trkpt lat="43.59694774620282" lon="10.391531508387658"><ele>0.0</ele><time>2026-04-29T19:12:27.007Z</time></trkpt><trkpt lat="43.596941889889756" lon="10.391217425518152"><ele>0.0</ele><time>2026-04-29T19:12:28.006Z</time></trkpt><trkpt lat="43.596934999012106" lon="10.390903701769625"><ele>0.0</ele><time>2026-04-29T19:12:29.006Z</time></trkpt><trkpt lat="43.596929729225" lon="10.39058142934455"><ele>0.0</ele><time>2026-04-29T19:12:30.007Z</time></trkpt><trkpt lat="43.59692107268301" lon="10.390256518266462"><ele>0.0</ele><time>2026-04-29T19:12:31.007Z</time></trkpt><trkpt lat="43.59691085379804" lon="10.389927394940955"><ele>0.0</ele><time>2026-04-29T19:12:32.007Z</time></trkpt><trkpt lat="43.59690317430383" lon="10.389596539029911"><ele>0.0</ele><time>2026-04-29T19:12:33.007Z</time></trkpt><trkpt lat="43.59689602499572" lon="10.389261807990907"><ele>0.0</ele><time>2026-04-29T19:12:34.007Z</time></trkpt><trkpt lat="43.59688726522256" lon="10.388927837936096"><ele>-0.5</ele><time>2026-04-29T19:12:35.007Z</time></trkpt><trkpt lat="43.59687815989927" lon="10.388590446761928"><ele>-1.0</ele><time>2026-04-29T19:12:36.006Z</time></trkpt><trkpt lat="43.59687081928422" lon="10.388252097113762"><ele>-2.0</ele><time>2026-04-29T19:12:37.007Z</time></trkpt><trkpt lat="43.596860603252225" lon="10.38791311230063"><ele>-3.0</ele><time>2026-04-29T19:12:38.007Z</time></trkpt><trkpt lat="43.59684999096367" lon="10.38757117613137"><ele>-3.0</ele><time>2026-04-29T19:12:39.007Z</time></trkpt><trkpt lat="43.59684026158887" lon="10.387226131099627"><ele>-3.0</ele><time>2026-04-29T19:12:40.007Z</time></trkpt><trkpt lat="43.596829900016374" lon="10.386879924139272"><ele>-3.0</ele><time>2026-04-29T19:12:41.007Z</time></trkpt><trkpt lat="43.59681866008103" lon="10.386533748661973"><ele>-3.0</ele><time>2026-04-29T19:12:42.007Z</time></trkpt><trkpt lat="43.59680837823264" lon="10.3861868438919"><ele>-1.5</ele><time>2026-04-29T19:12:43.007Z</time></trkpt><trkpt lat="43.59680019562772" lon="10.385836889394787"><ele>0.0</ele><time>2026-04-29T19:12:44.007Z</time></trkpt><trkpt lat="43.596791669238314" lon="10.385484172737709"><ele>0.0</ele><time>2026-04-29T19:12:45.007Z</time></trkpt><trkpt lat="43.596782012310165" lon="10.385131341708071"><ele>0.0</ele><time>2026-04-29T19:12:46.007Z</time></trkpt><trkpt lat="43.59677442212663" lon="10.38477559140863"><ele>0.0</ele><time>2026-04-29T19:12:47.007Z</time></trkpt><trkpt lat="43.59676593303966" lon="10.384417883316083"><ele>0.0</ele><time>2026-04-29T19:12:48.006Z</time></trkpt><trkpt lat="43.59675555771652" lon="10.384059432072627"><ele>0.5</ele><time>2026-04-29T19:12:49.006Z</time></trkpt><trkpt lat="43.59674548879516" lon="10.383702288899208"><ele>1.0</ele><time>2026-04-29T19:12:50.005Z</time></trkpt><trkpt lat="43.596733685408815" lon="10.383346573478134"><ele>0.5</ele><time>2026-04-29T19:12:51.004Z</time></trkpt><trkpt lat="43.59672213071226" lon="10.382994693011353"><ele>0.0</ele><time>2026-04-29T19:12:52.004Z</time></trkpt><trkpt lat="43.59670987766444" lon="10.382651826382288"><ele>0.0</ele><time>2026-04-29T19:12:53.003Z</time></trkpt><trkpt lat="43.596699003215406" lon="10.382308507841692"><ele>0.0</ele><time>2026-04-29T19:12:54.003Z</time></trkpt><trkpt lat="43.59669140982067" lon="10.381975605266236"><ele>-0.5</ele><time>2026-04-29T19:12:55.002Z</time></trkpt><trkpt lat="43.596687130801755" lon="10.381647923213947"><ele>-1.0</ele><time>2026-04-29T19:12:56.002Z</time></trkpt><trkpt lat="43.596684999980646" lon="10.381326034715503"><ele>-1.0</ele><time>2026-04-29T19:12:57.001Z</time></trkpt><trkpt lat="43.59668713986417" lon="10.381009827180584"><ele>-1.0</ele><time>2026-04-29T19:12:58.001Z</time></trkpt><trkpt lat="43.59669733712381" lon="10.38070789179904"><ele>-1.0</ele><time>2026-04-29T19:12:59Z</time></trkpt><trkpt lat="43.59672258511792" lon="10.38041638871955"><ele>-1.0</ele><time>2026-04-29T19:13:00Z</time></trkpt><trkpt lat="43.59676363200544" lon="10.380139224758254"><ele>-1.0</ele><time>2026-04-29T19:13:01Z</time></trkpt><trkpt lat="43.5968031735735" lon="10.379868029703136"><ele>-1.0</ele><time>2026-04-29T19:13:01.999Z</time></trkpt><trkpt lat="43.59683986897676" lon="10.379594597236494"><ele>-1.0</ele><time>2026-04-29T19:13:02.999Z</time></trkpt><trkpt lat="43.59687749615832" lon="10.379319695180703"><ele>-1.0</ele><time>2026-04-29T19:13:03.999Z</time></trkpt><trkpt lat="43.59691630322776" lon="10.379039136598378"><ele>-1.0</ele><time>2026-04-29T19:13:04.999Z</time></trkpt><trkpt lat="43.596951634136225" lon="10.378751268537007"><ele>-1.0</ele><time>2026-04-29T19:13:05.998Z</time></trkpt><trkpt lat="43.5969725122548" lon="10.37846246176555"><ele>-1.0</ele><time>2026-04-29T19:13:06.998Z</time></trkpt><trkpt lat="43.59698250387661" lon="10.378174583292086"><ele>-1.0</ele><time>2026-04-29T19:13:07.998Z</time></trkpt><trkpt lat="43.59698470878995" lon="10.377886133756167"><ele>-1.0</ele><time>2026-04-29T19:13:08.998Z</time></trkpt><trkpt lat="43.596980835166" lon="10.377593388393153"><ele>-1.0</ele><time>2026-04-29T19:13:09.997Z</time></trkpt><trkpt lat="43.59697949949102" lon="10.37730502253803"><ele>-1.0</ele><time>2026-04-29T19:13:10.997Z</time></trkpt><trkpt lat="43.59697991592506" lon="10.377015294867325"><ele>-1.0</ele><time>2026-04-29T19:13:11.997Z</time></trkpt><trkpt lat="43.59698089810056" lon="10.376724774089148"><ele>-1.0</ele><time>2026-04-29T19:13:12.997Z</time></trkpt><trkpt lat="43.59698026767406" lon="10.376432185981859"><ele>-1.0</ele><time>2026-04-29T19:13:13.997Z</time></trkpt><trkpt lat="43.59698266672513" lon="10.376137138698004"><ele>-0.3333333333333333</ele><time>2026-04-29T19:13:14.997Z</time></trkpt><trkpt lat="43.59698029553291" lon="10.375842976195353"><ele>0.3333333333333333</ele><time>2026-04-29T19:13:15.996Z</time></trkpt><trkpt lat="43.59698111286081" lon="10.375540724915512"><ele>1.0</ele><time>2026-04-29T19:13:16.996Z</time></trkpt><trkpt lat="43.59698256684947" lon="10.375240679217583"><ele>1.0</ele><time>2026-04-29T19:13:17.996Z</time></trkpt><trkpt lat="43.59698322553176" lon="10.374943692418237"><ele>1.0</ele><time>2026-04-29T19:13:18.996Z</time></trkpt><trkpt lat="43.59698568654124" lon="10.374635832965703"><ele>1.0</ele><time>2026-04-29T19:13:19.996Z</time></trkpt><trkpt lat="43.5969878426493" lon="10.374331030380228"><ele>0.3333333333333333</ele><time>2026-04-29T19:13:20.996Z</time></trkpt><trkpt lat="43.596987737940864" lon="10.374023960367971"><ele>-0.3333333333333333</ele><time>2026-04-29T19:13:21.996Z</time></trkpt><trkpt lat="43.59698748671836" lon="10.373715303203356"><ele>-1.0</ele><time>2026-04-29T19:13:22.996Z</time></trkpt><trkpt lat="43.59698821868784" lon="10.373404687468764"><ele>-1.0</ele><time>2026-04-29T19:13:23.995Z</time></trkpt><trkpt lat="43.59698814650932" lon="10.373093727030266"><ele>-1.0</ele><time>2026-04-29T19:13:24.995Z</time></trkpt><trkpt lat="43.59698885670153" lon="10.372781919059436"><ele>-1.0</ele><time>2026-04-29T19:13:25.995Z</time></trkpt><trkpt lat="43.59698939460302" lon="10.372465359344831"><ele>-1.0</ele><time>2026-04-29T19:13:26.995Z</time></trkpt><trkpt lat="43.59699035605856" lon="10.372148100625767"><ele>-2.0</ele><time>2026-04-29T19:13:27.995Z</time></trkpt><trkpt lat="43.5969928311299" lon="10.371826782181246"><ele>-3.0</ele><time>2026-04-29T19:13:28.995Z</time></trkpt><trkpt lat="43.59699125767153" lon="10.37149654369727"><ele>-2.0</ele><time>2026-04-29T19:13:29.995Z</time></trkpt><trkpt lat="43.59698960687342" lon="10.371168277552236"><ele>-1.0</ele><time>2026-04-29T19:13:30.995Z</time></trkpt><trkpt lat="43.596989330085194" lon="10.370839920103153"><ele>-0.5</ele><time>2026-04-29T19:13:31.995Z</time></trkpt><trkpt lat="43.59698952777489" lon="10.370500302344805"><ele>0.0</ele><time>2026-04-29T19:13:32.995Z</time></trkpt><trkpt lat="43.59699253417017" lon="10.370156571541436"><ele>0.0</ele><time>2026-04-29T19:13:33.995Z</time></trkpt><trkpt lat="43.59699360742755" lon="10.369810790191258"><ele>0.0</ele><time>2026-04-29T19:13:34.995Z</time></trkpt><trkpt lat="43.596993782636865" lon="10.369467565515267"><ele>-0.5</ele><time>2026-04-29T19:13:35.995Z</time></trkpt><trkpt lat="43.59699412062012" lon="10.369132779241042"><ele>-1.0</ele><time>2026-04-29T19:13:36.995Z</time></trkpt><trkpt lat="43.596995657512" lon="10.368811507734005"><ele>-1.3333333333333333</ele><time>2026-04-29T19:13:37.995Z</time></trkpt><trkpt lat="43.59699703151687" lon="10.368504737190928"><ele>-1.6666666666666665</ele><time>2026-04-29T19:13:38.995Z</time></trkpt><trkpt lat="43.59699770148153" lon="10.368217137438814"><ele>-2.0</ele><time>2026-04-29T19:13:39.994Z</time></trkpt><trkpt lat="43.59699876204976" lon="10.367931068929543"><ele>-2.0</ele><time>2026-04-29T19:13:40.994Z</time></trkpt><trkpt lat="43.59700283480945" lon="10.367640638899926"><ele>-2.0</ele><time>2026-04-29T19:13:41.994Z</time></trkpt><trkpt lat="43.597004220416665" lon="10.367357916706869"><ele>-2.0</ele><time>2026-04-29T19:13:42.994Z</time></trkpt><trkpt lat="43.597003507122466" lon="10.367069584449988"><ele>-2.0</ele><time>2026-04-29T19:13:43.994Z</time></trkpt><trkpt lat="43.59700445552908" lon="10.366790346193913"><ele>-2.0</ele><time>2026-04-29T19:13:44.994Z</time></trkpt><trkpt lat="43.597004801900795" lon="10.366521505132797"><ele>-2.0</ele><time>2026-04-29T19:13:45.994Z</time></trkpt><trkpt lat="43.59700528513706" lon="10.366274319567202"><ele>-1.6666666666666665</ele><time>2026-04-29T19:13:46.994Z</time></trkpt><trkpt lat="43.597007955851794" lon="10.366027497902362"><ele>-1.3333333333333333</ele><time>2026-04-29T19:13:47.994Z</time></trkpt><trkpt lat="43.59700924883204" lon="10.365774255113054"><ele>-1.0</ele><time>2026-04-29T19:13:48.994Z</time></trkpt><trkpt lat="43.59701214496524" lon="10.365505481754635"><ele>-1.0</ele><time>2026-04-29T19:13:49.994Z</time></trkpt><trkpt lat="43.597010045540735" lon="10.365238513391146"><ele>-1.0</ele><time>2026-04-29T19:13:50.994Z</time></trkpt><trkpt lat="43.59700940208193" lon="10.364962448602318"><ele>-1.0</ele><time>2026-04-29T19:13:51.994Z</time></trkpt><trkpt lat="43.597008593617" lon="10.364683237011057"><ele>-1.3333333333333333</ele><time>2026-04-29T19:13:52.994Z</time></trkpt><trkpt lat="43.59700819757389" lon="10.364401464383322"><ele>-1.6666666666666665</ele><time>2026-04-29T19:13:53.994Z</time></trkpt><trkpt lat="43.59700995076789" lon="10.36411456220663"><ele>-2.0</ele><time>2026-04-29T19:13:54.994Z</time></trkpt><trkpt lat="43.597011036374994" lon="10.363822122686601"><ele>-2.333333333333333</ele><time>2026-04-29T19:13:55.994Z</time></trkpt><trkpt lat="43.597011602666846" lon="10.363526084304874"><ele>-2.6666666666666665</ele><time>2026-04-29T19:13:56.994Z</time></trkpt><trkpt lat="43.59700977311491" lon="10.363228253066827"><ele>-3.0</ele><time>2026-04-29T19:13:57.994Z</time></trkpt><trkpt lat="43.59700727020344" lon="10.362931126886131"><ele>-3.333333333333333</ele><time>2026-04-29T19:13:58.994Z</time></trkpt><trkpt lat="43.597009998626454" lon="10.362642141440574"><ele>-3.6666666666666665</ele><time>2026-04-29T19:13:59.994Z</time></trkpt><trkpt lat="43.59701466563101" lon="10.362354282735593"><ele>-4.0</ele><time>2026-04-29T19:14:00.994Z</time></trkpt><trkpt lat="43.597018636625684" lon="10.362061970093112"><ele>-3.0</ele><time>2026-04-29T19:14:01.994Z</time></trkpt><trkpt lat="43.59701963335408" lon="10.361770668555204"><ele>-2.0</ele><time>2026-04-29T19:14:02.994Z</time></trkpt><trkpt lat="43.597018859356616" lon="10.361480415143829"><ele>-1.0</ele><time>2026-04-29T19:14:03.994Z</time></trkpt><trkpt lat="43.597015404250726" lon="10.361194066099754"><ele>-1.0</ele><time>2026-04-29T19:14:04.994Z</time></trkpt><trkpt lat="43.59700682889949" lon="10.360910538665925"><ele>-1.0</ele><time>2026-04-29T19:14:05.994Z</time></trkpt><trkpt lat="43.5969905941685" lon="10.360639422672815"><ele>-1.0</ele><time>2026-04-29T19:14:06.994Z</time></trkpt><trkpt lat="43.59696393243024" lon="10.360366325122811"><ele>-1.0</ele><time>2026-04-29T19:14:07.994Z</time></trkpt><trkpt lat="43.59692576720647" lon="10.360108184051166"><ele>-1.0</ele><time>2026-04-29T19:14:08.994Z</time></trkpt><trkpt lat="43.59688168331754" lon="10.359850716592472"><ele>-1.0</ele><time>2026-04-29T19:14:09.994Z</time></trkpt><trkpt lat="43.59683419581695" lon="10.359598467963147"><ele>-0.3333333333333333</ele><time>2026-04-29T19:14:10.994Z</time></trkpt><trkpt lat="43.59678486670396" lon="10.35935087677203"><ele>0.3333333333333333</ele><time>2026-04-29T19:14:11.994Z</time></trkpt><trkpt lat="43.59673629202223" lon="10.359092591361033"><ele>1.0</ele><time>2026-04-29T19:14:12.994Z</time></trkpt><trkpt lat="43.596689935222415" lon="10.358834150741577"><ele>1.0</ele><time>2026-04-29T19:14:13.994Z</time></trkpt><trkpt lat="43.59664154514734" lon="10.358576010848385"><ele>1.0</ele><time>2026-04-29T19:14:14.994Z</time></trkpt><trkpt lat="43.5965932399301" lon="10.358310862240616"><ele>1.0</ele><time>2026-04-29T19:14:15.994Z</time></trkpt><trkpt lat="43.59654576480638" lon="10.358041304550785"><ele>1.0</ele><time>2026-04-29T19:14:16.993Z</time></trkpt><trkpt lat="43.59649767075348" lon="10.357776914800658"><ele>1.0</ele><time>2026-04-29T19:14:17.993Z</time></trkpt><trkpt lat="43.59644907999028" lon="10.357517230948474"><ele>1.0</ele><time>2026-04-29T19:14:18.993Z</time></trkpt><trkpt lat="43.59640035684215" lon="10.3572483431139"><ele>1.0</ele><time>2026-04-29T19:14:19.993Z</time></trkpt><trkpt lat="43.59635562229979" lon="10.356997703486021"><ele>1.0</ele><time>2026-04-29T19:14:20.993Z</time></trkpt><trkpt lat="43.59631914178917" lon="10.356776336532501"><ele>1.0</ele><time>2026-04-29T19:14:21.993Z</time></trkpt><trkpt lat="43.596284780494514" lon="10.35657273745344"><ele>1.0</ele><time>2026-04-29T19:14:22.993Z</time></trkpt><trkpt lat="43.5962467314524" lon="10.356380729345775"><ele>1.0</ele><time>2026-04-29T19:14:23.993Z</time></trkpt><trkpt lat="43.596213492018485" lon="10.356200309256987"><ele>1.0</ele><time>2026-04-29T19:14:24.993Z</time></trkpt><trkpt lat="43.596186050114135" lon="10.356036576783227"><ele>1.0</ele><time>2026-04-29T19:14:25.993Z</time></trkpt><trkpt lat="43.59615335092506" lon="10.3558839068943"><ele>1.0</ele><time>2026-04-29T19:14:26.993Z</time></trkpt><trkpt lat="43.59613080161472" lon="10.355729416308952"><ele>1.0</ele><time>2026-04-29T19:14:27.993Z</time></trkpt><trkpt lat="43.59610265464344" lon="10.355586833460054"><ele>1.0</ele><time>2026-04-29T19:14:28.993Z</time></trkpt><trkpt lat="43.59607631709268" lon="10.355445671342821"><ele>1.0</ele><time>2026-04-29T19:14:29.994Z</time></trkpt><trkpt lat="43.596050816433205" lon="10.35530098509536"><ele>1.0</ele><time>2026-04-29T19:14:30.995Z</time></trkpt><trkpt lat="43.59602649412068" lon="10.355161425517597"><ele>0.9999999999999999</ele><time>2026-04-29T19:14:31.995Z</time></trkpt><trkpt lat="43.596008160968644" lon="10.355027701403218"><ele>1.0</ele><time>2026-04-29T19:14:32.995Z</time></trkpt><trkpt lat="43.595990961459016" lon="10.354911232171217"><ele>1.0</ele><time>2026-04-29T19:14:33.994Z</time></trkpt><trkpt lat="43.5959723866167" lon="10.354806796951062"><ele>1.0</ele><time>2026-04-29T19:14:34.994Z</time></trkpt><trkpt lat="43.59595338984907" lon="10.354715687900464"><ele>0.9999999999999999</ele><time>2026-04-29T19:14:35.995Z</time></trkpt><trkpt lat="43.59593270469431" lon="10.354621424203277"><ele>1.0</ele><time>2026-04-29T19:14:36.995Z</time></trkpt><trkpt lat="43.595913220270546" lon="10.354520125730543"><ele>1.1666666666666665</ele><time>2026-04-29T19:14:37.995Z</time></trkpt><trkpt lat="43.595891784438386" lon="10.354413967333212"><ele>1.3333333333333333</ele><time>2026-04-29T19:14:38.994Z</time></trkpt><trkpt lat="43.59587335254035" lon="10.354304960296954"><ele>1.5</ele><time>2026-04-29T19:14:39.995Z</time></trkpt><trkpt lat="43.59585875249003" lon="10.354194804521917"><ele>1.6666666666666665</ele><time>2026-04-29T19:14:40.995Z</time></trkpt><trkpt lat="43.59584299949412" lon="10.354080240417362"><ele>1.8333333333333333</ele><time>2026-04-29T19:14:41.994Z</time></trkpt><trkpt lat="43.5958258440854" lon="10.353971659470863"><ele>2.0</ele><time>2026-04-29T19:14:42.994Z</time></trkpt><trkpt lat="43.59580792899276" lon="10.353862872626266"><ele>1.9999999999999998</ele><time>2026-04-29T19:14:43.994Z</time></trkpt><trkpt lat="43.59578675148635" lon="10.353757660630878"><ele>2.0</ele><time>2026-04-29T19:14:44.994Z</time></trkpt><trkpt lat="43.59576289018547" lon="10.35364866104268"><ele>2.0</ele><time>2026-04-29T19:14:45.994Z</time></trkpt><trkpt lat="43.59574226854692" lon="10.353543689887239"><ele>2.0</ele><time>2026-04-29T19:14:46.994Z</time></trkpt><trkpt lat="43.595731581357676" lon="10.353438404343457"><ele>1.9999999999999998</ele><time>2026-04-29T19:14:47.994Z</time></trkpt><trkpt lat="43.595710187331214" lon="10.353338365956372"><ele>2.0</ele><time>2026-04-29T19:14:48.994Z</time></trkpt><trkpt lat="43.5956912583353" lon="10.35323748927586"><ele>1.9999999999999998</ele><time>2026-04-29T19:14:49.994Z</time></trkpt><trkpt lat="43.595670994696675" lon="10.353133881111862"><ele>2.0</ele><time>2026-04-29T19:14:50.994Z</time></trkpt><trkpt lat="43.59565154570586" lon="10.353031601672207"><ele>2.0</ele><time>2026-04-29T19:14:51.994Z</time></trkpt><trkpt lat="43.59563161186506" lon="10.352926039216154"><ele>2.0</ele><time>2026-04-29T19:14:52.994Z</time></trkpt><trkpt lat="43.59560990338656" lon="10.352817162783632"><ele>1.9999999999999998</ele><time>2026-04-29T19:14:53.994Z</time></trkpt><trkpt lat="43.5955944081828" lon="10.352703091587644"><ele>2.0</ele><time>2026-04-29T19:14:54.994Z</time></trkpt><trkpt lat="43.59558004326617" lon="10.352591523797324"><ele>1.6</ele><time>2026-04-29T19:14:55.994Z</time></trkpt><trkpt lat="43.595560465651005" lon="10.352469575857171"><ele>1.2000000000000002</ele><time>2026-04-29T19:14:56.994Z</time></trkpt><trkpt lat="43.59553413954238" lon="10.352338377452844"><ele>0.8</ele><time>2026-04-29T19:14:57.994Z</time></trkpt><trkpt lat="43.595508700085794" lon="10.352199637723462"><ele>0.4</ele><time>2026-04-29T19:14:58.994Z</time></trkpt><trkpt lat="43.595483977921745" lon="10.352055311015228"><ele>0.0</ele><time>2026-04-29T19:14:59.994Z</time></trkpt><trkpt lat="43.595459443539696" lon="10.351907286890727"><ele>0.2</ele><time>2026-04-29T19:15:00.994Z</time></trkpt><trkpt lat="43.59543593736847" lon="10.351761935441687"><ele>0.4</ele><time>2026-04-29T19:15:01.994Z</time></trkpt><trkpt lat="43.595409839262686" lon="10.351618705122732"><ele>0.6000000000000001</ele><time>2026-04-29T19:15:02.994Z</time></trkpt><trkpt lat="43.59538501469822" lon="10.351479258981414"><ele>0.8</ele><time>2026-04-29T19:15:03.994Z</time></trkpt><trkpt lat="43.59535554067914" lon="10.351337106622484"><ele>1.0</ele><time>2026-04-29T19:15:04.994Z</time></trkpt><trkpt lat="43.595291682035096" lon="10.351201796843128"><ele>1.0</ele><time>2026-04-29T19:15:05.994Z</time></trkpt><trkpt lat="43.595271521639695" lon="10.35106181912648"><ele>1.0</ele><time>2026-04-29T19:15:06.994Z</time></trkpt><trkpt lat="43.59524373623238" lon="10.35092095036912"><ele>1.0</ele><time>2026-04-29T19:15:07.994Z</time></trkpt><trkpt lat="43.595217550207735" lon="10.35077982319802"><ele>1.0</ele><time>2026-04-29T19:15:08.994Z</time></trkpt><trkpt lat="43.59519417570402" lon="10.35063370560143"><ele>1.0</ele><time>2026-04-29T19:15:09.994Z</time></trkpt><trkpt lat="43.59516341843222" lon="10.35049451415905"><ele>2.25</ele><time>2026-04-29T19:15:10.994Z</time></trkpt><trkpt lat="43.595127823814586" lon="10.350336413646222"><ele>3.5</ele><time>2026-04-29T19:15:11.994Z</time></trkpt><trkpt lat="43.595086435761075" lon="10.3501696847113"><ele>4.75</ele><time>2026-04-29T19:15:12.994Z</time></trkpt><trkpt lat="43.59504361935491" lon="10.349992136197656"><ele>6.0</ele><time>2026-04-29T19:15:13.994Z</time></trkpt><trkpt lat="43.59499501856745" lon="10.349812401635454"><ele>5.75</ele><time>2026-04-29T19:15:14.994Z</time></trkpt><trkpt lat="43.59494909146334" lon="10.349621067262953"><ele>5.5</ele><time>2026-04-29T19:15:15.994Z</time></trkpt><trkpt lat="43.59491074147045" lon="10.349430525525209"><ele>5.25</ele><time>2026-04-29T19:15:16.994Z</time></trkpt><trkpt lat="43.594883134233925" lon="10.34922694919358"><ele>5.0</ele><time>2026-04-29T19:15:17.994Z</time></trkpt><trkpt lat="43.59488391573623" lon="10.349040737787899"><ele>4.6</ele><time>2026-04-29T19:15:18.994Z</time></trkpt><trkpt lat="43.59492431157181" lon="10.348874998842813"><ele>4.2</ele><time>2026-04-29T19:15:19.994Z</time></trkpt><trkpt lat="43.59499656864345" lon="10.348762293152962"><ele>3.8</ele><time>2026-04-29T19:15:20.994Z</time></trkpt><trkpt lat="43.595064358318986" lon="10.348687461907783"><ele>3.4</ele><time>2026-04-29T19:15:21.994Z</time></trkpt><trkpt lat="43.59515010483846" lon="10.34865368996663"><ele>3.0</ele><time>2026-04-29T19:15:22.994Z</time></trkpt><trkpt lat="43.595253207393554" lon="10.348629199691185"><ele>2.6</ele><time>2026-04-29T19:15:23.994Z</time></trkpt><trkpt lat="43.595357318899666" lon="10.348647611549424"><ele>2.1999999999999997</ele><time>2026-04-29T19:15:24.994Z</time></trkpt><trkpt lat="43.59545500694327" lon="10.348703331394265"><ele>1.8</ele><time>2026-04-29T19:15:25.993Z</time></trkpt><trkpt lat="43.59552668124349" lon="10.34881692197468"><ele>1.4</ele><time>2026-04-29T19:15:26.993Z</time></trkpt><trkpt lat="43.59558657401929" lon="10.348938995241433"><ele>1.0</ele><time>2026-04-29T19:15:27.993Z</time></trkpt><trkpt lat="43.59561246145826" lon="10.349073729384608"><ele>1.0</ele><time>2026-04-29T19:15:28.993Z</time></trkpt><trkpt lat="43.59561517397862" lon="10.349214579223924"><ele>1.0</ele><time>2026-04-29T19:15:29.993Z</time></trkpt><trkpt lat="43.59560383906999" lon="10.349365540260278"><ele>1.0</ele><time>2026-04-29T19:15:30.993Z</time></trkpt><trkpt lat="43.59554131402447" lon="10.349490919274452"><ele>1.0</ele><time>2026-04-29T19:15:31.993Z</time></trkpt><trkpt lat="43.5954550766816" lon="10.34959155898723"><ele>1.0</ele><time>2026-04-29T19:15:32.993Z</time></trkpt><trkpt lat="43.595352249639994" lon="10.349653376383973"><ele>2.0</ele><time>2026-04-29T19:15:33.993Z</time></trkpt><trkpt lat="43.59524092019892" lon="10.349675927244173"><ele>3.0</ele><time>2026-04-29T19:15:34.993Z</time></trkpt><trkpt lat="43.59512355596596" lon="10.349656913754512"><ele>4.0</ele><time>2026-04-29T19:15:35.993Z</time></trkpt><trkpt lat="43.59499913080876" lon="10.349608903907283"><ele>5.0</ele><time>2026-04-29T19:15:36.993Z</time></trkpt><trkpt lat="43.594859032533165" lon="10.349546932626133"><ele>5.0</ele><time>2026-04-29T19:15:37.993Z</time></trkpt><trkpt lat="43.594697855834774" lon="10.349506727743162"><ele>5.0</ele><time>2026-04-29T19:15:38.993Z</time></trkpt><trkpt lat="43.594522732407434" lon="10.349419125475045"><ele>5.0</ele><time>2026-04-29T19:15:39.993Z</time></trkpt><trkpt lat="43.594317772599894" lon="10.34934693629713"><ele>5.0</ele><time>2026-04-29T19:15:40.993Z</time></trkpt><trkpt lat="43.59410497857716" lon="10.349283223601391"><ele>5.0</ele><time>2026-04-29T19:15:41.993Z</time></trkpt><trkpt lat="43.59389030036261" lon="10.349224978021022"><ele>5.0</ele><time>2026-04-29T19:15:42.993Z</time></trkpt><trkpt lat="43.59368383226749" lon="10.349174640164023"><ele>4.333333333333334</ele><time>2026-04-29T19:15:43.993Z</time></trkpt><trkpt lat="43.593475606090465" lon="10.34911874239398"><ele>3.666666666666667</ele><time>2026-04-29T19:15:44.993Z</time></trkpt><trkpt lat="43.593267244228045" lon="10.349053431573678"><ele>3.0</ele><time>2026-04-29T19:15:45.993Z</time></trkpt><trkpt lat="43.59305786743519" lon="10.348980630843952"><ele>3.0</ele><time>2026-04-29T19:15:46.993Z</time></trkpt><trkpt lat="43.592850586433975" lon="10.348898022175403"><ele>3.0</ele><time>2026-04-29T19:15:47.993Z</time></trkpt><trkpt lat="43.59263539493669" lon="10.348809320816441"><ele>3.0</ele><time>2026-04-29T19:15:48.993Z</time></trkpt><trkpt lat="43.59242115795913" lon="10.348715376922677"><ele>3.0</ele><time>2026-04-29T19:15:49.993Z</time></trkpt><trkpt lat="43.59220620247402" lon="10.34862195580219"><ele>3.0</ele><time>2026-04-29T19:15:50.993Z</time></trkpt><trkpt lat="43.59199830351402" lon="10.34852409223962"><ele>3.0</ele><time>2026-04-29T19:15:51.993Z</time></trkpt><trkpt lat="43.59179280198001" lon="10.348430184728205"><ele>2.6666666666666665</ele><time>2026-04-29T19:15:52.993Z</time></trkpt><trkpt lat="43.591594989591975" lon="10.348339928102469"><ele>2.333333333333333</ele><time>2026-04-29T19:15:53.993Z</time></trkpt><trkpt lat="43.59140874594935" lon="10.348249171192998"><ele>2.0</ele><time>2026-04-29T19:15:54.993Z</time></trkpt><trkpt lat="43.59122499316269" lon="10.34816218326713"><ele>2.333333333333333</ele><time>2026-04-29T19:15:55.993Z</time></trkpt><trkpt lat="43.59104375508924" lon="10.348075628032223"><ele>2.6666666666666665</ele><time>2026-04-29T19:15:56.993Z</time></trkpt><trkpt lat="43.59086566435394" lon="10.347992752204616"><ele>3.0</ele><time>2026-04-29T19:15:57.993Z</time></trkpt><trkpt lat="43.59069628845625" lon="10.34791097400647"><ele>3.0</ele><time>2026-04-29T19:15:58.993Z</time></trkpt><trkpt lat="43.590527229508645" lon="10.347829837645886"><ele>3.0</ele><time>2026-04-29T19:15:59.993Z</time></trkpt><trkpt lat="43.59036455021412" lon="10.347752887111106"><ele>3.0</ele><time>2026-04-29T19:16:00.993Z</time></trkpt><trkpt lat="43.59019098029455" lon="10.347669469797612"><ele>3.0</ele><time>2026-04-29T19:16:01.993Z</time></trkpt><trkpt lat="43.5900192751009" lon="10.347584246904548"><ele>3.0</ele><time>2026-04-29T19:16:02.993Z</time></trkpt><trkpt lat="43.58984655698512" lon="10.347499617846077"><ele>3.0</ele><time>2026-04-29T19:16:03.993Z</time></trkpt><trkpt lat="43.5896759255742" lon="10.347415439343003"><ele>2.6666666666666665</ele><time>2026-04-29T19:16:04.993Z</time></trkpt><trkpt lat="43.589505917436156" lon="10.347329386279423"><ele>2.333333333333333</ele><time>2026-04-29T19:16:05.993Z</time></trkpt><trkpt lat="43.589339687706136" lon="10.347239256697803"><ele>2.0</ele><time>2026-04-29T19:16:06.993Z</time></trkpt><trkpt lat="43.58917764331813" lon="10.347158333416846"><ele>2.0</ele><time>2026-04-29T19:16:07.993Z</time></trkpt><trkpt lat="43.5890189512353" lon="10.347077806357904"><ele>2.0</ele><time>2026-04-29T19:16:08.993Z</time></trkpt><trkpt lat="43.588864894139014" lon="10.34700629263938"><ele>2.0</ele><time>2026-04-29T19:16:09.993Z</time></trkpt><trkpt lat="43.58870824183689" lon="10.34692631032671"><ele>2.0</ele><time>2026-04-29T19:16:10.993Z</time></trkpt><trkpt lat="43.588558443558675" lon="10.346845385445514"><ele>2.0</ele><time>2026-04-29T19:16:11.993Z</time></trkpt><trkpt lat="43.588402906078784" lon="10.346769171589282"><ele>2.0</ele><time>2026-04-29T19:16:12.993Z</time></trkpt><trkpt lat="43.58824190144487" lon="10.346687567675618"><ele>2.0</ele><time>2026-04-29T19:16:13.993Z</time></trkpt><trkpt lat="43.58807730765313" lon="10.346602824276435"><ele>2.0</ele><time>2026-04-29T19:16:14.993Z</time></trkpt><trkpt lat="43.58790736740736" lon="10.34651915976654"><ele>2.0</ele><time>2026-04-29T19:16:15.993Z</time></trkpt><trkpt lat="43.5877283446062" lon="10.346431544685322"><ele>2.0</ele><time>2026-04-29T19:16:16.993Z</time></trkpt><trkpt lat="43.587548372623324" lon="10.346340542056053"><ele>2.0</ele><time>2026-04-29T19:16:17.993Z</time></trkpt><trkpt lat="43.58736285807525" lon="10.346252405778728"><ele>2.0</ele><time>2026-04-29T19:16:18.993Z</time></trkpt><trkpt lat="43.58718034027542" lon="10.34615769982892"><ele>2.333333333333333</ele><time>2026-04-29T19:16:19.993Z</time></trkpt><trkpt lat="43.58699627503682" lon="10.346070677207631"><ele>2.6666666666666665</ele><time>2026-04-29T19:16:20.993Z</time></trkpt><trkpt lat="43.586819771132056" lon="10.345992224028118"><ele>3.0</ele><time>2026-04-29T19:16:21.993Z</time></trkpt><trkpt lat="43.5866525556543" lon="10.345909919622363"><ele>3.0</ele><time>2026-04-29T19:16:22.993Z</time></trkpt><trkpt lat="43.58649303569691" lon="10.34583062406756"><ele>3.0</ele><time>2026-04-29T19:16:23.992Z</time></trkpt><trkpt lat="43.5863480511758" lon="10.345761716234733"><ele>3.0</ele><time>2026-04-29T19:16:24.992Z</time></trkpt><trkpt lat="43.58621158196485" lon="10.345694111915364"><ele>2.75</ele><time>2026-04-29T19:16:25.992Z</time></trkpt><trkpt lat="43.58607672875086" lon="10.345645226567367"><ele>2.5</ele><time>2026-04-29T19:16:26.992Z</time></trkpt><trkpt lat="43.58595420570264" lon="10.345621402205449"><ele>2.25</ele><time>2026-04-29T19:16:27.992Z</time></trkpt><trkpt lat="43.585835781647106" lon="10.345603462324666"><ele>2.0</ele><time>2026-04-29T19:16:28.992Z</time></trkpt><trkpt lat="43.58572034403942" lon="10.345580831575807"><ele>2.0</ele><time>2026-04-29T19:16:29.992Z</time></trkpt><trkpt lat="43.58561531443989" lon="10.345543200529919"><ele>2.0</ele><time>2026-04-29T19:16:30.992Z</time></trkpt><trkpt lat="43.585521726046075" lon="10.3454796301941"><ele>2.0</ele><time>2026-04-29T19:16:31.992Z</time></trkpt><trkpt lat="43.58543930758942" lon="10.34541859157553"><ele>2.0</ele><time>2026-04-29T19:16:32.992Z</time></trkpt><trkpt lat="43.58536640520239" lon="10.345376481214434"><ele>2.0</ele><time>2026-04-29T19:16:33.992Z</time></trkpt><trkpt lat="43.5852852013557" lon="10.345349984622247"><ele>2.2</ele><time>2026-04-29T19:16:34.992Z</time></trkpt><trkpt lat="43.58519198020756" lon="10.345323030867965"><ele>2.4000000000000004</ele><time>2026-04-29T19:16:35.994Z</time></trkpt><trkpt lat="43.58509844292801" lon="10.345271350456477"><ele>2.5999999999999996</ele><time>2026-04-29T19:16:36.993Z</time></trkpt><trkpt lat="43.585002706958676" lon="10.3451988411166"><ele>2.8</ele><time>2026-04-29T19:16:37.993Z</time></trkpt><trkpt lat="43.58490568197469" lon="10.345121945552808"><ele>3.0</ele><time>2026-04-29T19:16:38.994Z</time></trkpt><trkpt lat="43.58480067068201" lon="10.345054059961418"><ele>3.0</ele><time>2026-04-29T19:16:39.994Z</time></trkpt><trkpt lat="43.58468424589842" lon="10.344992252735189"><ele>3.0</ele><time>2026-04-29T19:16:40.994Z</time></trkpt><trkpt lat="43.58455117888986" lon="10.34493193423088"><ele>3.0</ele><time>2026-04-29T19:16:41.994Z</time></trkpt><trkpt lat="43.584408617563" lon="10.344870227293033"><ele>3.0</ele><time>2026-04-29T19:16:42.994Z</time></trkpt><trkpt lat="43.58426352171217" lon="10.344806379432752"><ele>3.333333333333333</ele><time>2026-04-29T19:16:43.993Z</time></trkpt><trkpt lat="43.58411292168513" lon="10.344735669383272"><ele>3.6666666666666665</ele><time>2026-04-29T19:16:44.994Z</time></trkpt><trkpt lat="43.583955635455254" lon="10.344663225264147"><ele>4.0</ele><time>2026-04-29T19:16:45.993Z</time></trkpt><trkpt lat="43.58380325297774" lon="10.344593919540053"><ele>3.6666666666666665</ele><time>2026-04-29T19:16:46.993Z</time></trkpt><trkpt lat="43.583656059478045" lon="10.344522320482437"><ele>3.333333333333333</ele><time>2026-04-29T19:16:47.993Z</time></trkpt><trkpt lat="43.58351604588473" lon="10.34444891179518"><ele>3.0</ele><time>2026-04-29T19:16:48.993Z</time></trkpt><trkpt lat="43.58337860203843" lon="10.344375072165178"><ele>3.0</ele><time>2026-04-29T19:16:49.993Z</time></trkpt><trkpt lat="43.58323636619161" lon="10.344305426747736"><ele>3.0</ele><time>2026-04-29T19:16:50.993Z</time></trkpt><trkpt lat="43.58308807547062" lon="10.344238054513871"><ele>3.0</ele><time>2026-04-29T19:16:51.993Z</time></trkpt><trkpt lat="43.58293415498655" lon="10.344167120216719"><ele>3.666666666666667</ele><time>2026-04-29T19:16:52.993Z</time></trkpt><trkpt lat="43.582779533531344" lon="10.344100993608945"><ele>4.333333333333334</ele><time>2026-04-29T19:16:53.993Z</time></trkpt><trkpt lat="43.582620441647855" lon="10.344027424116188"><ele>5.0</ele><time>2026-04-29T19:16:54.993Z</time></trkpt><trkpt lat="43.58246025435606" lon="10.343944897977135"><ele>3.666666666666667</ele><time>2026-04-29T19:16:55.993Z</time></trkpt><trkpt lat="43.582299056132626" lon="10.343871696848565"><ele>2.3333333333333335</ele><time>2026-04-29T19:16:56.993Z</time></trkpt><trkpt lat="43.582133367547726" lon="10.34379509371012"><ele>1.0</ele><time>2026-04-29T19:16:57.993Z</time></trkpt><trkpt lat="43.581968132408385" lon="10.343696220099547"><ele>1.0</ele><time>2026-04-29T19:16:58.993Z</time></trkpt><trkpt lat="43.581802711146814" lon="10.343615350151447"><ele>1.0</ele><time>2026-04-29T19:16:59.993Z</time></trkpt><trkpt lat="43.58164893529489" lon="10.343535223837552"><ele>1.0</ele><time>2026-04-29T19:17:00.993Z</time></trkpt><trkpt lat="43.581490753393005" lon="10.34346207817282"><ele>1.0</ele><time>2026-04-29T19:17:01.993Z</time></trkpt><trkpt lat="43.581341076755876" lon="10.343385004535044"><ele>1.0</ele><time>2026-04-29T19:17:02.993Z</time></trkpt><trkpt lat="43.58119018310742" lon="10.343309032758388"><ele>1.0</ele><time>2026-04-29T19:17:03.993Z</time></trkpt><trkpt lat="43.58103712468922" lon="10.343225956010361"><ele>0.6666666666666666</ele><time>2026-04-29T19:17:04.993Z</time></trkpt><trkpt lat="43.580883281978814" lon="10.343145005329923"><ele>0.3333333333333333</ele><time>2026-04-29T19:17:05.993Z</time></trkpt><trkpt lat="43.580731785762474" lon="10.343058148033936"><ele>0.0</ele><time>2026-04-29T19:17:06.993Z</time></trkpt><trkpt lat="43.58057677030658" lon="10.342977452474184"><ele>-0.3333333333333333</ele><time>2026-04-29T19:17:07.993Z</time></trkpt><trkpt lat="43.58042662794908" lon="10.342885743018781"><ele>-0.6666666666666666</ele><time>2026-04-29T19:17:08.993Z</time></trkpt><trkpt lat="43.58028081803687" lon="10.342786848113441"><ele>-1.0</ele><time>2026-04-29T19:17:09.993Z</time></trkpt><trkpt lat="43.58012622044031" lon="10.342689278920965"><ele>-1.0</ele><time>2026-04-29T19:17:10.993Z</time></trkpt><trkpt lat="43.57998109509208" lon="10.342579708012357"><ele>-1.0</ele><time>2026-04-29T19:17:11.993Z</time></trkpt><trkpt lat="43.57984384954109" lon="10.342462200470742"><ele>-1.0</ele><time>2026-04-29T19:17:12.993Z</time></trkpt><trkpt lat="43.5797181223126" lon="10.342336755006116"><ele>-0.6666666666666666</ele><time>2026-04-29T19:17:13.993Z</time></trkpt><trkpt lat="43.579597668626626" lon="10.342205493926308"><ele>-0.3333333333333333</ele><time>2026-04-29T19:17:14.993Z</time></trkpt><trkpt lat="43.579475329116775" lon="10.34206302723667"><ele>0.0</ele><time>2026-04-29T19:17:15.993Z</time></trkpt><trkpt lat="43.579358974677696" lon="10.341913263499396"><ele>1.0</ele><time>2026-04-29T19:17:16.993Z</time></trkpt><trkpt lat="43.57924988262194" lon="10.341758334902213"><ele>2.0</ele><time>2026-04-29T19:17:17.993Z</time></trkpt><trkpt lat="43.5791433250613" lon="10.341597596133088"><ele>3.0</ele><time>2026-04-29T19:17:18.993Z</time></trkpt><trkpt lat="43.579032555777886" lon="10.341432685011199"><ele>2.6666666666666665</ele><time>2026-04-29T19:17:19.993Z</time></trkpt><trkpt lat="43.578921845409226" lon="10.341262309371798"><ele>2.333333333333333</ele><time>2026-04-29T19:17:20.993Z</time></trkpt><trkpt lat="43.57880901795497" lon="10.341094807132936"><ele>2.0</ele><time>2026-04-29T19:17:21.993Z</time></trkpt><trkpt lat="43.578696454347615" lon="10.340926255192215"><ele>2.0</ele><time>2026-04-29T19:17:22.993Z</time></trkpt><trkpt lat="43.578582648762605" lon="10.340756255290911"><ele>2.0</ele><time>2026-04-29T19:17:23.993Z</time></trkpt><trkpt lat="43.57846839676899" lon="10.340582388928835"><ele>2.0</ele><time>2026-04-29T19:17:24.993Z</time></trkpt><trkpt lat="43.57835526354568" lon="10.340406435829548"><ele>2.0</ele><time>2026-04-29T19:17:25.993Z</time></trkpt><trkpt lat="43.57823908677629" lon="10.34023019243477"><ele>2.0</ele><time>2026-04-29T19:17:26.993Z</time></trkpt><trkpt lat="43.57812560002919" lon="10.340059406949512"><ele>2.0</ele><time>2026-04-29T19:17:27.993Z</time></trkpt><trkpt lat="43.57801269890828" lon="10.33988681002846"><ele>2.0</ele><time>2026-04-29T19:17:28.993Z</time></trkpt><trkpt lat="43.577909959335834" lon="10.339729008239756"><ele>2.0</ele><time>2026-04-29T19:17:29.993Z</time></trkpt><trkpt lat="43.57781568669129" lon="10.339584022423582"><ele>2.0</ele><time>2026-04-29T19:17:30.993Z</time></trkpt><trkpt lat="43.57773402418627" lon="10.339451258463075"><ele>2.0</ele><time>2026-04-29T19:17:31.993Z</time></trkpt><trkpt lat="43.57766283672341" lon="10.339327342570343"><ele>1.8</ele><time>2026-04-29T19:17:32.993Z</time></trkpt><trkpt lat="43.57761189088516" lon="10.33919005375874"><ele>1.6</ele><time>2026-04-29T19:17:33.993Z</time></trkpt><trkpt lat="43.57757744225424" lon="10.3390458451109"><ele>1.4000000000000001</ele><time>2026-04-29T19:17:34.993Z</time></trkpt><trkpt lat="43.57754393541359" lon="10.338933597661047"><ele>1.2000000000000002</ele><time>2026-04-29T19:17:35.993Z</time></trkpt><trkpt lat="43.57747946985405" lon="10.338848310132404"><ele>1.0</ele><time>2026-04-29T19:17:36.993Z</time></trkpt><trkpt lat="43.577403019065706" lon="10.338789932344405"><ele>1.0</ele><time>2026-04-29T19:17:37.993Z</time></trkpt><trkpt lat="43.57727948166481" lon="10.338772471745715"><ele>1.0</ele><time>2026-04-29T19:17:38.993Z</time></trkpt><trkpt lat="43.577192211385636" lon="10.338647578142986"><ele>1.0</ele><time>2026-04-29T19:17:39.993Z</time></trkpt><trkpt lat="43.57710557076713" lon="10.338524299755179"><ele>1.0</ele><time>2026-04-29T19:17:40.993Z</time></trkpt><trkpt lat="43.57701196111715" lon="10.338383011273807"><ele>1.0</ele><time>2026-04-29T19:17:41.993Z</time></trkpt><trkpt lat="43.57690820773012" lon="10.338230412036928"><ele>1.0</ele><time>2026-04-29T19:17:42.993Z</time></trkpt><trkpt lat="43.57679866852292" lon="10.33807067089114"><ele>1.0</ele><time>2026-04-29T19:17:43.993Z</time></trkpt><trkpt lat="43.576682841709875" lon="10.337904678598722"><ele>1.3333333333333333</ele><time>2026-04-29T19:17:44.992Z</time></trkpt><trkpt lat="43.57656687568727" lon="10.337735442750082"><ele>1.6666666666666665</ele><time>2026-04-29T19:17:45.992Z</time></trkpt><trkpt lat="43.57645455323099" lon="10.337568414198996"><ele>2.0</ele><time>2026-04-29T19:17:46.992Z</time></trkpt><trkpt lat="43.57634061185607" lon="10.33740461167664"><ele>2.0</ele><time>2026-04-29T19:17:47.992Z</time></trkpt><trkpt lat="43.57623345174692" lon="10.337246599446745"><ele>2.0</ele><time>2026-04-29T19:17:48.992Z</time></trkpt><trkpt lat="43.57612606648901" lon="10.337098956053424"><ele>2.0</ele><time>2026-04-29T19:17:49.992Z</time></trkpt><trkpt lat="43.57602576141496" lon="10.336945394689675"><ele>2.0</ele><time>2026-04-29T19:17:50.992Z</time></trkpt><trkpt lat="43.57592898052478" lon="10.336794159407468"><ele>2.0</ele><time>2026-04-29T19:17:51.992Z</time></trkpt><trkpt lat="43.575831894662905" lon="10.336652172171023"><ele>2.0</ele><time>2026-04-29T19:17:52.992Z</time></trkpt><trkpt lat="43.57573038171525" lon="10.336512129326781"><ele>2.0</ele><time>2026-04-29T19:17:53.992Z</time></trkpt><trkpt lat="43.57563210306489" lon="10.336370104336451"><ele>2.0</ele><time>2026-04-29T19:17:54.992Z</time></trkpt><trkpt lat="43.57553194786489" lon="10.336224184713002"><ele>2.0</ele><time>2026-04-29T19:17:55.992Z</time></trkpt><trkpt lat="43.575433834543674" lon="10.336086802898562"><ele>2.0</ele><time>2026-04-29T19:17:56.992Z</time></trkpt><trkpt lat="43.575341803886346" lon="10.335953771236492"><ele>2.0</ele><time>2026-04-29T19:17:57.992Z</time></trkpt><trkpt lat="43.57525302242884" lon="10.335827042687162"><ele>2.2</ele><time>2026-04-29T19:17:58.992Z</time></trkpt><trkpt lat="43.57517287435873" lon="10.335722564407932"><ele>2.4000000000000004</ele><time>2026-04-29T19:17:59.992Z</time></trkpt><trkpt lat="43.57510335234357" lon="10.335633762171458"><ele>2.5999999999999996</ele><time>2026-04-29T19:18:00.992Z</time></trkpt><trkpt lat="43.57504294943447" lon="10.335551718573866"><ele>2.8</ele><time>2026-04-29T19:18:01.992Z</time></trkpt><trkpt lat="43.574988665966096" lon="10.335472150673379"><ele>3.0</ele><time>2026-04-29T19:18:02.992Z</time></trkpt><trkpt lat="43.57492560708533" lon="10.33538355658389"><ele>2.5</ele><time>2026-04-29T19:18:03.992Z</time></trkpt><trkpt lat="43.57485095299653" lon="10.335280279538495"><ele>2.0</ele><time>2026-04-29T19:18:04.992Z</time></trkpt><trkpt lat="43.574760174583815" lon="10.335164047298786"><ele>1.5</ele><time>2026-04-29T19:18:05.992Z</time></trkpt><trkpt lat="43.57466852310323" lon="10.335036183824702"><ele>1.0</ele><time>2026-04-29T19:18:06.992Z</time></trkpt><trkpt lat="43.574570619480696" lon="10.334900892514165"><ele>1.25</ele><time>2026-04-29T19:18:07.992Z</time></trkpt><trkpt lat="43.57447132313828" lon="10.334759625421267"><ele>1.5</ele><time>2026-04-29T19:18:08.992Z</time></trkpt><trkpt lat="43.57436934954033" lon="10.334615272265234"><ele>1.75</ele><time>2026-04-29T19:18:09.992Z</time></trkpt><trkpt lat="43.574263168460696" lon="10.334459572679283"><ele>2.0</ele><time>2026-04-29T19:18:10.992Z</time></trkpt><trkpt lat="43.574153988419035" lon="10.334298047858402"><ele>2.0</ele><time>2026-04-29T19:18:11.992Z</time></trkpt><trkpt lat="43.574042379352434" lon="10.334133338872844"><ele>2.0</ele><time>2026-04-29T19:18:12.992Z</time></trkpt><trkpt lat="43.57392575244512" lon="10.333962316801305"><ele>2.0</ele><time>2026-04-29T19:18:13.992Z</time></trkpt><trkpt lat="43.57380801314748" lon="10.333789796666833"><ele>2.0</ele><time>2026-04-29T19:18:14.992Z</time></trkpt><trkpt lat="43.57368860610223" lon="10.333614175560864"><ele>2.0</ele><time>2026-04-29T19:18:15.992Z</time></trkpt><trkpt lat="43.57356805314165" lon="10.33343806731914"><ele>2.0</ele><time>2026-04-29T19:18:16.992Z</time></trkpt><trkpt lat="43.57344287000919" lon="10.333252448292097"><ele>1.0</ele><time>2026-04-29T19:18:17.992Z</time></trkpt><trkpt lat="43.57331977154456" lon="10.333068039760986"><ele>0.0</ele><time>2026-04-29T19:18:18.992Z</time></trkpt><trkpt lat="43.57320386123482" lon="10.33287177350274"><ele>-1.0</ele><time>2026-04-29T19:18:19.992Z</time></trkpt><trkpt lat="43.57309103491839" lon="10.33267040647025"><ele>-1.0</ele><time>2026-04-29T19:18:20.992Z</time></trkpt><trkpt lat="43.57298874285794" lon="10.332462774544814"><ele>-1.0</ele><time>2026-04-29T19:18:21.992Z</time></trkpt><trkpt lat="43.57289057970267" lon="10.332242415490555"><ele>-1.0</ele><time>2026-04-29T19:18:22.992Z</time></trkpt><trkpt lat="43.57280104496077" lon="10.332018956338077"><ele>-1.0</ele><time>2026-04-29T19:18:23.992Z</time></trkpt><trkpt lat="43.57272418431981" lon="10.33178846389652"><ele>-1.0</ele><time>2026-04-29T19:18:24.992Z</time></trkpt><trkpt lat="43.5726619432714" lon="10.331551305753933"><ele>-1.0</ele><time>2026-04-29T19:18:25.992Z</time></trkpt><trkpt lat="43.57261734333753" lon="10.331318102066675"><ele>-1.3333333333333333</ele><time>2026-04-29T19:18:26.992Z</time></trkpt><trkpt lat="43.572585764663245" lon="10.331076619815432"><ele>-1.6666666666666665</ele><time>2026-04-29T19:18:27.992Z</time></trkpt><trkpt lat="43.57256919411638" lon="10.330847238859898"><ele>-2.0</ele><time>2026-04-29T19:18:28.992Z</time></trkpt><trkpt lat="43.572553549738146" lon="10.330618159259533"><ele>-1.0</ele><time>2026-04-29T19:18:29.992Z</time></trkpt><trkpt lat="43.572530749856085" lon="10.330394632610481"><ele>0.0</ele><time>2026-04-29T19:18:30.992Z</time></trkpt><trkpt lat="43.572507845941225" lon="10.33016895435006"><ele>1.0</ele><time>2026-04-29T19:18:31.992Z</time></trkpt><trkpt lat="43.57248441934619" lon="10.329935529790177"><ele>1.0</ele><time>2026-04-29T19:18:32.992Z</time></trkpt><trkpt lat="43.572460929967406" lon="10.329707805073047"><ele>1.0</ele><time>2026-04-29T19:18:33.992Z</time></trkpt><trkpt lat="43.572439433564824" lon="10.3294890328598"><ele>1.0</ele><time>2026-04-29T19:18:34.992Z</time></trkpt><trkpt lat="43.57241410549148" lon="10.329279126282175"><ele>1.0</ele><time>2026-04-29T19:18:35.992Z</time></trkpt><trkpt lat="43.57238679668245" lon="10.329069709926607"><ele>1.0</ele><time>2026-04-29T19:18:36.992Z</time></trkpt><trkpt lat="43.57235079471872" lon="10.328865478714116"><ele>1.0</ele><time>2026-04-29T19:18:37.992Z</time></trkpt><trkpt lat="43.572310903877906" lon="10.328649865648412"><ele>0.3333333333333333</ele><time>2026-04-29T19:18:38.992Z</time></trkpt><trkpt lat="43.57226500025182" lon="10.328413880013978"><ele>-0.3333333333333333</ele><time>2026-04-29T19:18:39.992Z</time></trkpt><trkpt lat="43.572212729858386" lon="10.328183478174456"><ele>-1.0</ele><time>2026-04-29T19:18:40.992Z</time></trkpt><trkpt lat="43.57217011379277" lon="10.327946195904156"><ele>-1.3333333333333333</ele><time>2026-04-29T19:18:41.994Z</time></trkpt><trkpt lat="43.57212296164462" lon="10.327704352179442"><ele>-1.6666666666666665</ele><time>2026-04-29T19:18:42.993Z</time></trkpt><trkpt lat="43.57207565738448" lon="10.327463481745623"><ele>-2.0</ele><time>2026-04-29T19:18:43.993Z</time></trkpt><trkpt lat="43.57202582406021" lon="10.327223427108677"><ele>-0.33333333333333326</ele><time>2026-04-29T19:18:44.993Z</time></trkpt><trkpt lat="43.571982214758606" lon="10.326971488511884"><ele>1.3333333333333335</ele><time>2026-04-29T19:18:45.993Z</time></trkpt><trkpt lat="43.57193694844684" lon="10.326720251768267"><ele>3.0</ele><time>2026-04-29T19:18:46.993Z</time></trkpt><trkpt lat="43.57189352272625" lon="10.32646344500529"><ele>2.6666666666666665</ele><time>2026-04-29T19:18:47.993Z</time></trkpt><trkpt lat="43.57185260109548" lon="10.326210349953891"><ele>2.333333333333333</ele><time>2026-04-29T19:18:48.993Z</time></trkpt><trkpt lat="43.571808517274874" lon="10.325975236309139"><ele>2.0</ele><time>2026-04-29T19:18:49.993Z</time></trkpt><trkpt lat="43.57176424816321" lon="10.325757836241792"><ele>2.333333333333333</ele><time>2026-04-29T19:18:50.993Z</time></trkpt><trkpt lat="43.57170242917811" lon="10.325533537579641"><ele>2.6666666666666665</ele><time>2026-04-29T19:18:51.993Z</time></trkpt><trkpt lat="43.57162942620009" lon="10.325306449103019"><ele>3.0</ele><time>2026-04-29T19:18:52.993Z</time></trkpt><trkpt lat="43.57154104369421" lon="10.32508469502704"><ele>3.0</ele><time>2026-04-29T19:18:53.994Z</time></trkpt><trkpt lat="43.57144450571403" lon="10.32487057036342"><ele>3.0</ele><time>2026-04-29T19:18:54.993Z</time></trkpt><trkpt lat="43.571338050669056" lon="10.324664297630715"><ele>3.0</ele><time>2026-04-29T19:18:55.993Z</time></trkpt><trkpt lat="43.57121333996029" lon="10.324463186998406"><ele>1.3333333333333335</ele><time>2026-04-29T19:18:56.993Z</time></trkpt><trkpt lat="43.57108165110578" lon="10.324270726727246"><ele>-0.33333333333333326</ele><time>2026-04-29T19:18:57.993Z</time></trkpt><trkpt lat="43.570940850190006" lon="10.324090457395611"><ele>-2.0</ele><time>2026-04-29T19:18:58.993Z</time></trkpt><trkpt lat="43.570796041254695" lon="10.32391898883818"><ele>-1.6666666666666665</ele><time>2026-04-29T19:18:59.993Z</time></trkpt><trkpt lat="43.5706400823512" lon="10.323772430930944"><ele>-1.3333333333333333</ele><time>2026-04-29T19:19:00.993Z</time></trkpt><trkpt lat="43.57048836489077" lon="10.323646305741935"><ele>-1.0</ele><time>2026-04-29T19:19:01.993Z</time></trkpt><trkpt lat="43.57034413567309" lon="10.323538321826193"><ele>-0.25</ele><time>2026-04-29T19:19:02.993Z</time></trkpt><trkpt lat="43.57021503117561" lon="10.323439798327474"><ele>0.5</ele><time>2026-04-29T19:19:03.993Z</time></trkpt><trkpt lat="43.570095428575776" lon="10.323348004681616"><ele>1.25</ele><time>2026-04-29T19:19:04.993Z</time></trkpt><trkpt lat="43.569978819696345" lon="10.323257576208547"><ele>2.0</ele><time>2026-04-29T19:19:05.993Z</time></trkpt><trkpt lat="43.56987238977127" lon="10.323170455081645"><ele>2.0</ele><time>2026-04-29T19:19:06.993Z</time></trkpt><trkpt lat="43.56980060719945" lon="10.323097275280455"><ele>2.0</ele><time>2026-04-29T19:19:07.993Z</time></trkpt><trkpt lat="43.569766873276706" lon="10.323007517246385"><ele>2.0</ele><time>2026-04-29T19:19:08.993Z</time></trkpt><trkpt lat="43.56975613883383" lon="10.322804362138882"><ele>2.0</ele><time>2026-04-29T19:19:10.993Z</time></trkpt><trkpt lat="43.56976919745528" lon="10.322667909986757"><ele>2.0</ele><time>2026-04-29T19:19:11.993Z</time></trkpt><trkpt lat="43.56984141991985" lon="10.322509297911452"><ele>2.6666666666666665</ele><time>2026-04-29T19:19:12.993Z</time></trkpt><trkpt lat="43.56989378959557" lon="10.32233113750535"><ele>3.333333333333333</ele><time>2026-04-29T19:19:13.993Z</time></trkpt><trkpt lat="43.56995165104465" lon="10.322131575641722"><ele>4.0</ele><time>2026-04-29T19:19:14.992Z</time></trkpt><trkpt lat="43.570013190947655" lon="10.321911297271598"><ele>4.333333333333333</ele><time>2026-04-29T19:19:15.992Z</time></trkpt><trkpt lat="43.57007371063502" lon="10.321687916842068"><ele>4.666666666666667</ele><time>2026-04-29T19:19:16.992Z</time></trkpt><trkpt lat="43.57012245943635" lon="10.321479006304019"><ele>5.0</ele><time>2026-04-29T19:19:17.992Z</time></trkpt><trkpt lat="43.570170025046565" lon="10.321301287668701"><ele>5.0</ele><time>2026-04-29T19:19:18.992Z</time></trkpt><trkpt lat="43.57021360872952" lon="10.321131374409665"><ele>5.0</ele><time>2026-04-29T19:19:19.992Z</time></trkpt><trkpt lat="43.57025979157078" lon="10.320966216727049"><ele>5.0</ele><time>2026-04-29T19:19:20.992Z</time></trkpt><trkpt lat="43.570303907007904" lon="10.320806837920818"><ele>5.0</ele><time>2026-04-29T19:19:21.992Z</time></trkpt><trkpt lat="43.57034912250805" lon="10.320653731528958"><ele>4.2</ele><time>2026-04-29T19:19:22.992Z</time></trkpt><trkpt lat="43.57039341641042" lon="10.320507092114154"><ele>3.4</ele><time>2026-04-29T19:19:23.992Z</time></trkpt><trkpt lat="43.570435590550424" lon="10.320367872260107"><ele>2.6</ele><time>2026-04-29T19:19:24.992Z</time></trkpt><trkpt lat="43.57047302146057" lon="10.320229716489086"><ele>1.8</ele><time>2026-04-29T19:19:25.992Z</time></trkpt><trkpt lat="43.57051299689249" lon="10.320084330992733"><ele>1.0</ele><time>2026-04-29T19:19:26.992Z</time></trkpt><trkpt lat="43.570553543382694" lon="10.319937672229479"><ele>1.0</ele><time>2026-04-29T19:19:27.992Z</time></trkpt><trkpt lat="43.570597664836185" lon="10.3197885210096"><ele>1.0</ele><time>2026-04-29T19:19:28.992Z</time></trkpt><trkpt lat="43.570638200687526" lon="10.319639607066177"><ele>1.0</ele><time>2026-04-29T19:19:29.992Z</time></trkpt><trkpt lat="43.57067727255708" lon="10.319498168952357"><ele>1.0</ele><time>2026-04-29T19:19:30.992Z</time></trkpt><trkpt lat="43.570718219987704" lon="10.319363364217407"><ele>1.0</ele><time>2026-04-29T19:19:31.992Z</time></trkpt><trkpt lat="43.570758197593435" lon="10.319226814303848"><ele>1.4</ele><time>2026-04-29T19:19:32.992Z</time></trkpt><trkpt lat="43.570797378861066" lon="10.319084855481835"><ele>1.8</ele><time>2026-04-29T19:19:33.992Z</time></trkpt><trkpt lat="43.57083628407034" lon="10.318937227214262"><ele>2.1999999999999997</ele><time>2026-04-29T19:19:34.992Z</time></trkpt><trkpt lat="43.57088086238891" lon="10.31879007458509"><ele>2.6</ele><time>2026-04-29T19:19:35.992Z</time></trkpt><trkpt lat="43.57092156490923" lon="10.318653474429054"><ele>3.0</ele><time>2026-04-29T19:19:36.992Z</time></trkpt><trkpt lat="43.57095916710663" lon="10.318518245800052"><ele>3.0</ele><time>2026-04-29T19:19:37.992Z</time></trkpt><trkpt lat="43.570992384682775" lon="10.318380316281885"><ele>3.0</ele><time>2026-04-29T19:19:38.992Z</time></trkpt><trkpt lat="43.571026750594456" lon="10.31824502886512"><ele>3.0</ele><time>2026-04-29T19:19:39.992Z</time></trkpt><trkpt lat="43.57106646268633" lon="10.318106520010982"><ele>3.0</ele><time>2026-04-29T19:19:40.992Z</time></trkpt><trkpt lat="43.57110351341071" lon="10.31797848458888"><ele>3.0</ele><time>2026-04-29T19:19:41.992Z</time></trkpt><trkpt lat="43.57113947969415" lon="10.317849631392564"><ele>3.0</ele><time>2026-04-29T19:19:42.992Z</time></trkpt><trkpt lat="43.57118256517812" lon="10.317728058265939"><ele>3.0</ele><time>2026-04-29T19:19:43.992Z</time></trkpt><trkpt lat="43.5712233691576" lon="10.317611797847317"><ele>3.0</ele><time>2026-04-29T19:19:44.992Z</time></trkpt><trkpt lat="43.57125524554087" lon="10.317505461986098"><ele>3.0</ele><time>2026-04-29T19:19:45.992Z</time></trkpt><trkpt lat="43.571284941114975" lon="10.317403231068408"><ele>3.0</ele><time>2026-04-29T19:19:46.992Z</time></trkpt><trkpt lat="43.57131609950317" lon="10.317314777997398"><ele>3.0</ele><time>2026-04-29T19:19:47.992Z</time></trkpt><trkpt lat="43.57133907157804" lon="10.317232720728372"><ele>2.8571428571428568</ele><time>2026-04-29T19:19:48.992Z</time></trkpt><trkpt lat="43.571367502091505" lon="10.31714523901065"><ele>2.7142857142857144</ele><time>2026-04-29T19:19:49.992Z</time></trkpt><trkpt lat="43.57140963778378" lon="10.31706727076383"><ele>2.571428571428571</ele><time>2026-04-29T19:19:50.992Z</time></trkpt><trkpt lat="43.57145829660477" lon="10.31699892209199"><ele>2.4285714285714284</ele><time>2026-04-29T19:19:51.992Z</time></trkpt><trkpt lat="43.571520815701895" lon="10.316946769418726"><ele>2.2857142857142856</ele><time>2026-04-29T19:19:52.992Z</time></trkpt><trkpt lat="43.571587126724616" lon="10.316923661216997"><ele>2.142857142857143</ele><time>2026-04-29T19:19:53.992Z</time></trkpt><trkpt lat="43.57165802083331" lon="10.31688881265388"><ele>2.0</ele><time>2026-04-29T19:19:54.992Z</time></trkpt><trkpt lat="43.57172130411768" lon="10.316842571087133"><ele>1.9999999999999998</ele><time>2026-04-29T19:19:55.992Z</time></trkpt><trkpt lat="43.5717743539141" lon="10.31677601326322"><ele>2.0</ele><time>2026-04-29T19:19:56.992Z</time></trkpt><trkpt lat="43.57181515657676" lon="10.316685346115323"><ele>2.0</ele><time>2026-04-29T19:19:57.992Z</time></trkpt><trkpt lat="43.571830969740624" lon="10.316582867002015"><ele>2.0</ele><time>2026-04-29T19:19:58.992Z</time></trkpt><trkpt lat="43.57182656355259" lon="10.316483809200465"><ele>1.9999999999999998</ele><time>2026-04-29T19:19:59.992Z</time></trkpt><trkpt lat="43.57179560474629" lon="10.31639533090416"><ele>2.0</ele><time>2026-04-29T19:20:00.992Z</time></trkpt><trkpt lat="43.571740970284864" lon="10.31631076727478"><ele>2.0</ele><time>2026-04-29T19:20:01.992Z</time></trkpt><trkpt lat="43.57166902812123" lon="10.316227868725226"><ele>2.0</ele><time>2026-04-29T19:20:02.992Z</time></trkpt><trkpt lat="43.57156727023787" lon="10.316150852879776"><ele>2.0</ele><time>2026-04-29T19:20:03.992Z</time></trkpt><trkpt lat="43.57146273389193" lon="10.316061461388744"><ele>2.0</ele><time>2026-04-29T19:20:04.992Z</time></trkpt><trkpt lat="43.571347035480706" lon="10.315966886213365"><ele>2.0</ele><time>2026-04-29T19:20:05.992Z</time></trkpt><trkpt lat="43.57122570011324" lon="10.315864661868545"><ele>2.0</ele><time>2026-04-29T19:20:06.992Z</time></trkpt><trkpt lat="43.57110513472818" lon="10.315764993600444"><ele>2.0</ele><time>2026-04-29T19:20:07.992Z</time></trkpt><trkpt lat="43.570976983950175" lon="10.315662855876685"><ele>2.0</ele><time>2026-04-29T19:20:08.992Z</time></trkpt><trkpt lat="43.57084251826486" lon="10.315560025454852"><ele>1.3333333333333333</ele><time>2026-04-29T19:20:09.992Z</time></trkpt><trkpt lat="43.57071615191456" lon="10.315450915355116"><ele>0.6666666666666666</ele><time>2026-04-29T19:20:10.992Z</time></trkpt><trkpt lat="43.570579306393974" lon="10.315348133654876"><ele>0.0</ele><time>2026-04-29T19:20:11.991Z</time></trkpt><trkpt lat="43.570437800181914" lon="10.315238540966725"><ele>0.6666666666666666</ele><time>2026-04-29T19:20:12.991Z</time></trkpt><trkpt lat="43.5702885598271" lon="10.315126408740307"><ele>1.3333333333333333</ele><time>2026-04-29T19:20:13.991Z</time></trkpt><trkpt lat="43.57013267392054" lon="10.315013745657378"><ele>2.0</ele><time>2026-04-29T19:20:14.991Z</time></trkpt><trkpt lat="43.569977659516894" lon="10.314886725683866"><ele>2.0</ele><time>2026-04-29T19:20:15.991Z</time></trkpt><trkpt lat="43.569799806093386" lon="10.314783409530923"><ele>2.0</ele><time>2026-04-29T19:20:16.991Z</time></trkpt><trkpt lat="43.56963299909751" lon="10.314659600964495"><ele>2.0</ele><time>2026-04-29T19:20:17.991Z</time></trkpt><trkpt lat="43.569461019035444" lon="10.314541652564744"><ele>2.333333333333333</ele><time>2026-04-29T19:20:18.991Z</time></trkpt><trkpt lat="43.5692854866735" lon="10.314413597526546"><ele>2.6666666666666665</ele><time>2026-04-29T19:20:19.991Z</time></trkpt><trkpt lat="43.569105461444586" lon="10.314296071352361"><ele>3.0</ele><time>2026-04-29T19:20:20.991Z</time></trkpt><trkpt lat="43.568928105285" lon="10.314175719914573"><ele>3.0</ele><time>2026-04-29T19:20:21.991Z</time></trkpt><trkpt lat="43.56874513096599" lon="10.31406144959313"><ele>3.0</ele><time>2026-04-29T19:20:22.991Z</time></trkpt><trkpt lat="43.56856965765856" lon="10.313951784212998"><ele>3.0</ele><time>2026-04-29T19:20:23.991Z</time></trkpt><trkpt lat="43.56841134776247" lon="10.3138617643568"><ele>3.333333333333333</ele><time>2026-04-29T19:20:24.991Z</time></trkpt><trkpt lat="43.56826132022445" lon="10.313786224611905"><ele>3.6666666666666665</ele><time>2026-04-29T19:20:25.991Z</time></trkpt><trkpt lat="43.568120745353134" lon="10.31371225797355"><ele>4.0</ele><time>2026-04-29T19:20:26.991Z</time></trkpt><trkpt lat="43.56798692602797" lon="10.313641547393045"><ele>3.5</ele><time>2026-04-29T19:20:27.991Z</time></trkpt><trkpt lat="43.567859227370434" lon="10.313578318179893"><ele>3.0</ele><time>2026-04-29T19:20:28.991Z</time></trkpt><trkpt lat="43.56773825829747" lon="10.31351647056037"><ele>2.5</ele><time>2026-04-29T19:20:29.991Z</time></trkpt><trkpt lat="43.56762010210069" lon="10.313479259901413"><ele>2.0</ele><time>2026-04-29T19:20:30.991Z</time></trkpt><trkpt lat="43.56752597006202" lon="10.313432687407833"><ele>1.9999999999999998</ele><time>2026-04-29T19:20:31.991Z</time></trkpt><trkpt lat="43.56744820757906" lon="10.313388449418179"><ele>2.0</ele><time>2026-04-29T19:20:32.991Z</time></trkpt><trkpt lat="43.56738550723239" lon="10.313377275725927"><ele>2.0</ele><time>2026-04-29T19:20:33.991Z</time></trkpt><trkpt lat="43.56736277683083" lon="10.313195681656332"><ele>2.0</ele><time>2026-04-29T19:20:35.991Z</time></trkpt><trkpt lat="43.56738813470787" lon="10.313097788729449"><ele>1.9999999999999998</ele><time>2026-04-29T19:20:36.991Z</time></trkpt><trkpt lat="43.56743797229855" lon="10.3130058761953"><ele>2.0</ele><time>2026-04-29T19:20:37.991Z</time></trkpt><trkpt lat="43.56746271062834" lon="10.312887835349091"><ele>1.8333333333333333</ele><time>2026-04-29T19:20:38.991Z</time></trkpt><trkpt lat="43.56750026131601" lon="10.312781811694494"><ele>1.6666666666666665</ele><time>2026-04-29T19:20:39.991Z</time></trkpt><trkpt lat="43.5675342468526" lon="10.312675842693146"><ele>1.5</ele><time>2026-04-29T19:20:40.991Z</time></trkpt><trkpt lat="43.56756491209131" lon="10.312583417633"><ele>1.3333333333333333</ele><time>2026-04-29T19:20:41.991Z</time></trkpt><trkpt lat="43.56759067067117" lon="10.312503681102827"><ele>1.1666666666666665</ele><time>2026-04-29T19:20:42.991Z</time></trkpt><trkpt lat="43.56760662167163" lon="10.312412305956032"><ele>1.0</ele><time>2026-04-29T19:20:44.991Z</time></trkpt><trkpt lat="43.56754446369173" lon="10.312278965855691"><ele>2.75</ele><time>2026-04-29T19:20:47.993Z</time></trkpt><trkpt lat="43.56744488372674" lon="10.312227920763018"><ele>4.5</ele><time>2026-04-29T19:20:48.993Z</time></trkpt><trkpt lat="43.567348340608696" lon="10.312170473298533"><ele>6.25</ele><time>2026-04-29T19:20:49.993Z</time></trkpt><trkpt lat="43.567234359083365" lon="10.31210234845802"><ele>8.0</ele><time>2026-04-29T19:20:50.993Z</time></trkpt><trkpt lat="43.567099505976664" lon="10.3120318503731"><ele>6.666666666666666</ele><time>2026-04-29T19:20:51.992Z</time></trkpt><trkpt lat="43.56695143791017" lon="10.311946706779258"><ele>5.333333333333333</ele><time>2026-04-29T19:20:52.992Z</time></trkpt><trkpt lat="43.56679852433899" lon="10.31185163466243"><ele>4.0</ele><time>2026-04-29T19:20:53.993Z</time></trkpt><trkpt lat="43.56663273794231" lon="10.311751039809343"><ele>4.0</ele><time>2026-04-29T19:20:54.992Z</time></trkpt><trkpt lat="43.56646928951999" lon="10.311652132266973"><ele>4.0</ele><time>2026-04-29T19:20:55.992Z</time></trkpt><trkpt lat="43.566311651143046" lon="10.311551482301187"><ele>4.0</ele><time>2026-04-29T19:20:56.993Z</time></trkpt><trkpt lat="43.56615615794708" lon="10.311450001845486"><ele>3.333333333333333</ele><time>2026-04-29T19:20:57.993Z</time></trkpt><trkpt lat="43.566004214839054" lon="10.31135560508972"><ele>2.6666666666666665</ele><time>2026-04-29T19:20:58.993Z</time></trkpt><trkpt lat="43.56585355145814" lon="10.311266211405167"><ele>2.0</ele><time>2026-04-29T19:20:59.992Z</time></trkpt><trkpt lat="43.56570671407084" lon="10.311175953459916"><ele>2.0</ele><time>2026-04-29T19:21:00.992Z</time></trkpt><trkpt lat="43.56555001527287" lon="10.311089880746378"><ele>2.0</ele><time>2026-04-29T19:21:01.992Z</time></trkpt><trkpt lat="43.56539869226729" lon="10.310998501534577"><ele>2.0</ele><time>2026-04-29T19:21:02.992Z</time></trkpt><trkpt lat="43.5652476813826" lon="10.31091233725215"><ele>2.333333333333333</ele><time>2026-04-29T19:21:03.992Z</time></trkpt><trkpt lat="43.565095706243525" lon="10.310822945320503"><ele>2.6666666666666665</ele><time>2026-04-29T19:21:04.992Z</time></trkpt><trkpt lat="43.56494377815332" lon="10.310735433642916"><ele>3.0</ele><time>2026-04-29T19:21:05.992Z</time></trkpt><trkpt lat="43.564790119819754" lon="10.310644804199827"><ele>3.333333333333333</ele><time>2026-04-29T19:21:06.992Z</time></trkpt><trkpt lat="43.56463929300294" lon="10.310559105009807"><ele>3.6666666666666665</ele><time>2026-04-29T19:21:07.992Z</time></trkpt><trkpt lat="43.56448719914839" lon="10.310470344277054"><ele>4.0</ele><time>2026-04-29T19:21:08.992Z</time></trkpt><trkpt lat="43.56432958503948" lon="10.310380289251574"><ele>4.0</ele><time>2026-04-29T19:21:09.992Z</time></trkpt><trkpt lat="43.56417771385011" lon="10.310288680817866"><ele>4.0</ele><time>2026-04-29T19:21:10.992Z</time></trkpt><trkpt lat="43.56402492008036" lon="10.310199059245258"><ele>4.0</ele><time>2026-04-29T19:21:11.992Z</time></trkpt><trkpt lat="43.563877639868345" lon="10.310122050257966"><ele>4.0</ele><time>2026-04-29T19:21:12.992Z</time></trkpt><trkpt lat="43.56374561696737" lon="10.310050692924294"><ele>4.0</ele><time>2026-04-29T19:21:13.992Z</time></trkpt><trkpt lat="43.56362387273597" lon="10.309982601429626"><ele>4.0</ele><time>2026-04-29T19:21:14.992Z</time></trkpt><trkpt lat="43.56351321875565" lon="10.309915028660274"><ele>4.0</ele><time>2026-04-29T19:21:15.992Z</time></trkpt><trkpt lat="43.5634034013466" lon="10.309845457080444"><ele>4.0</ele><time>2026-04-29T19:21:16.992Z</time></trkpt><trkpt lat="43.56328540180159" lon="10.30977654920628"><ele>4.0</ele><time>2026-04-29T19:21:17.992Z</time></trkpt><trkpt lat="43.56315601230348" lon="10.309707153083771"><ele>4.0</ele><time>2026-04-29T19:21:18.992Z</time></trkpt><trkpt lat="43.56301989365328" lon="10.309633894019896"><ele>4.0</ele><time>2026-04-29T19:21:19.992Z</time></trkpt><trkpt lat="43.56287791427577" lon="10.309555549796862"><ele>4.666666666666666</ele><time>2026-04-29T19:21:20.992Z</time></trkpt><trkpt lat="43.56273075038566" lon="10.309473933997614"><ele>5.333333333333333</ele><time>2026-04-29T19:21:21.992Z</time></trkpt><trkpt lat="43.56257437355268" lon="10.309394022687174"><ele>6.0</ele><time>2026-04-29T19:21:22.992Z</time></trkpt><trkpt lat="43.562411189916325" lon="10.30931167573724"><ele>6.0</ele><time>2026-04-29T19:21:23.992Z</time></trkpt><trkpt lat="43.562230412732994" lon="10.309234609159471"><ele>6.0</ele><time>2026-04-29T19:21:24.992Z</time></trkpt><trkpt lat="43.562019527681365" lon="10.309166762675364"><ele>6.0</ele><time>2026-04-29T19:21:25.992Z</time></trkpt><trkpt lat="43.561780989369886" lon="10.309120676047943"><ele>6.0</ele><time>2026-04-29T19:21:26.992Z</time></trkpt><trkpt lat="43.561551874856846" lon="10.309102951054244"><ele>6.0</ele><time>2026-04-29T19:21:27.992Z</time></trkpt><trkpt lat="43.56133204709901" lon="10.309122685884052"><ele>4.666666666666667</ele><time>2026-04-29T19:21:28.992Z</time></trkpt><trkpt lat="43.56112037135675" lon="10.309159751787819"><ele>3.333333333333333</ele><time>2026-04-29T19:21:29.992Z</time></trkpt><trkpt lat="43.56092639265171" lon="10.309201271321985"><ele>2.0</ele><time>2026-04-29T19:21:30.992Z</time></trkpt><trkpt lat="43.56074274119829" lon="10.309250435803108"><ele>2.0</ele><time>2026-04-29T19:21:31.992Z</time></trkpt><trkpt lat="43.56056632759494" lon="10.309295790880848"><ele>2.0</ele><time>2026-04-29T19:21:32.992Z</time></trkpt><trkpt lat="43.56041425562631" lon="10.309329304013776"><ele>2.0</ele><time>2026-04-29T19:21:33.992Z</time></trkpt><trkpt lat="43.56027332970639" lon="10.309361917531957"><ele>2.25</ele><time>2026-04-29T19:21:34.992Z</time></trkpt><trkpt lat="43.560140554509545" lon="10.309388961920536"><ele>2.5</ele><time>2026-04-29T19:21:35.992Z</time></trkpt><trkpt lat="43.56000892367408" lon="10.309415567891678"><ele>2.75</ele><time>2026-04-29T19:21:36.992Z</time></trkpt><trkpt lat="43.559890835459974" lon="10.309451015021073"><ele>3.0</ele><time>2026-04-29T19:21:37.992Z</time></trkpt><trkpt lat="43.55978863191011" lon="10.30948956059961"><ele>3.0</ele><time>2026-04-29T19:21:38.992Z</time></trkpt><trkpt lat="43.559706653519534" lon="10.309517415543883"><ele>3.0</ele><time>2026-04-29T19:21:39.992Z</time></trkpt><trkpt lat="43.55961031317811" lon="10.309547595294676"><ele>3.0</ele><time>2026-04-29T19:21:41.992Z</time></trkpt><trkpt lat="43.55951218543749" lon="10.309588938573231"><ele>3.0</ele><time>2026-04-29T19:21:43.992Z</time></trkpt><trkpt lat="43.559447912951825" lon="10.309617099672067"><ele>3.0</ele><time>2026-04-29T19:21:44.992Z</time></trkpt><trkpt lat="43.55938406515731" lon="10.309644935778044"><ele>3.0</ele><time>2026-04-29T19:21:45.992Z</time></trkpt><trkpt lat="43.559301708650075" lon="10.309646083360029"><ele>3.4</ele><time>2026-04-29T19:21:47.992Z</time></trkpt><trkpt lat="43.55923970808968" lon="10.309525726107768"><ele>3.8</ele><time>2026-04-29T19:21:49.991Z</time></trkpt><trkpt lat="43.55921931920697" lon="10.309430862872572"><ele>4.2</ele><time>2026-04-29T19:21:50.991Z</time></trkpt><trkpt lat="43.55919461094669" lon="10.309283632893493"><ele>4.6</ele><time>2026-04-29T19:21:51.991Z</time></trkpt><trkpt lat="43.55915748567739" lon="10.309123966655688"><ele>5.0</ele><time>2026-04-29T19:21:52.991Z</time></trkpt><trkpt lat="43.559121755568746" lon="10.30893678477068"><ele>4.25</ele><time>2026-04-29T19:21:53.991Z</time></trkpt><trkpt lat="43.55908462122523" lon="10.308756346454055"><ele>3.5</ele><time>2026-04-29T19:21:54.991Z</time></trkpt><trkpt lat="43.55904671214567" lon="10.308599761574468"><ele>2.75</ele><time>2026-04-29T19:21:55.991Z</time></trkpt><trkpt lat="43.559002172634585" lon="10.308472927934845"><ele>2.0</ele><time>2026-04-29T19:21:56.991Z</time></trkpt><trkpt lat="43.55893373586815" lon="10.308379552350344"><ele>2.0</ele><time>2026-04-29T19:21:57.991Z</time></trkpt><trkpt lat="43.55883797288563" lon="10.308296435905604"><ele>2.0</ele><time>2026-04-29T19:21:58.991Z</time></trkpt><trkpt lat="43.558722228723255" lon="10.30819408491273"><ele>2.0</ele><time>2026-04-29T19:21:59.991Z</time></trkpt><trkpt lat="43.55859736680843" lon="10.308086410840247"><ele>2.0</ele><time>2026-04-29T19:22:00.991Z</time></trkpt><trkpt lat="43.55846585883327" lon="10.307978637902643"><ele>2.0</ele><time>2026-04-29T19:22:01.991Z</time></trkpt><trkpt lat="43.558334229640124" lon="10.307868808843363"><ele>2.0</ele><time>2026-04-29T19:22:02.991Z</time></trkpt><trkpt lat="43.558206084342736" lon="10.30775801898279"><ele>2.0</ele><time>2026-04-29T19:22:03.991Z</time></trkpt><trkpt lat="43.55807908145248" lon="10.307646424373257"><ele>2.0</ele><time>2026-04-29T19:22:04.991Z</time></trkpt><trkpt lat="43.55794830024635" lon="10.307533378975837"><ele>2.0</ele><time>2026-04-29T19:22:05.991Z</time></trkpt><trkpt lat="43.55781489063297" lon="10.307419994374312"><ele>2.0</ele><time>2026-04-29T19:22:06.991Z</time></trkpt><trkpt lat="43.55768971635777" lon="10.307312708135981"><ele>2.0</ele><time>2026-04-29T19:22:07.991Z</time></trkpt><trkpt lat="43.55757182163314" lon="10.307212291171172"><ele>2.0</ele><time>2026-04-29T19:22:08.991Z</time></trkpt><trkpt lat="43.557456613136296" lon="10.30711313889749"><ele>2.0</ele><time>2026-04-29T19:22:09.991Z</time></trkpt><trkpt lat="43.5573393221002" lon="10.307011127118155"><ele>2.0</ele><time>2026-04-29T19:22:10.991Z</time></trkpt><trkpt lat="43.55722092387617" lon="10.306909708975347"><ele>2.0</ele><time>2026-04-29T19:22:11.991Z</time></trkpt><trkpt lat="43.55710030092038" lon="10.306802247435895"><ele>2.0</ele><time>2026-04-29T19:22:12.991Z</time></trkpt><trkpt lat="43.55697967511404" lon="10.306692629981475"><ele>2.0</ele><time>2026-04-29T19:22:13.991Z</time></trkpt><trkpt lat="43.55686153548522" lon="10.306577454453617"><ele>2.0</ele><time>2026-04-29T19:22:14.991Z</time></trkpt><trkpt lat="43.55673867159243" lon="10.306468763291969"><ele>1.75</ele><time>2026-04-29T19:22:15.991Z</time></trkpt><trkpt lat="43.55661569551196" lon="10.306364412550824"><ele>1.5</ele><time>2026-04-29T19:22:16.991Z</time></trkpt><trkpt lat="43.5564933917493" lon="10.306261102859244"><ele>1.25</ele><time>2026-04-29T19:22:17.991Z</time></trkpt><trkpt lat="43.556369491905535" lon="10.306155641756563"><ele>1.0</ele><time>2026-04-29T19:22:18.991Z</time></trkpt><trkpt lat="43.55624616148815" lon="10.30604860196191"><ele>1.25</ele><time>2026-04-29T19:22:19.991Z</time></trkpt><trkpt lat="43.5561212577334" lon="10.305941527500433"><ele>1.5</ele><time>2026-04-29T19:22:20.991Z</time></trkpt><trkpt lat="43.55600037404884" lon="10.305835695321266"><ele>1.75</ele><time>2026-04-29T19:22:21.991Z</time></trkpt><trkpt lat="43.55587423762549" lon="10.30572943031069"><ele>2.0</ele><time>2026-04-29T19:22:22.991Z</time></trkpt><trkpt lat="43.55575235598915" lon="10.305623361573932"><ele>2.0</ele><time>2026-04-29T19:22:23.991Z</time></trkpt><trkpt lat="43.55562743905412" lon="10.305523310098518"><ele>2.0</ele><time>2026-04-29T19:22:24.991Z</time></trkpt><trkpt lat="43.55551010620295" lon="10.305420790385995"><ele>2.0</ele><time>2026-04-29T19:22:25.991Z</time></trkpt><trkpt lat="43.55539827467063" lon="10.305320819341597"><ele>2.0</ele><time>2026-04-29T19:22:26.991Z</time></trkpt><trkpt lat="43.55528678304922" lon="10.305224256302422"><ele>2.0</ele><time>2026-04-29T19:22:27.991Z</time></trkpt><trkpt lat="43.55517244173781" lon="10.305129285769372"><ele>2.0</ele><time>2026-04-29T19:22:28.991Z</time></trkpt><trkpt lat="43.55506138457616" lon="10.305035070046156"><ele>2.0</ele><time>2026-04-29T19:22:29.991Z</time></trkpt><trkpt lat="43.554948805767744" lon="10.304945296028402"><ele>2.0</ele><time>2026-04-29T19:22:30.991Z</time></trkpt><trkpt lat="43.554837933866516" lon="10.304855070056206"><ele>2.0</ele><time>2026-04-29T19:22:31.991Z</time></trkpt><trkpt lat="43.55472991326406" lon="10.304767579306676"><ele>2.0</ele><time>2026-04-29T19:22:32.991Z</time></trkpt><trkpt lat="43.55462457667183" lon="10.304673560528334"><ele>2.0</ele><time>2026-04-29T19:22:33.991Z</time></trkpt><trkpt lat="43.55452455267386" lon="10.304561696008033"><ele>2.0</ele><time>2026-04-29T19:22:34.991Z</time></trkpt><trkpt lat="43.55443964103896" lon="10.30443515857391"><ele>2.25</ele><time>2026-04-29T19:22:35.991Z</time></trkpt><trkpt lat="43.554355193586325" lon="10.304316832749716"><ele>2.5</ele><time>2026-04-29T19:22:36.991Z</time></trkpt><trkpt lat="43.55427329772319" lon="10.304202553334951"><ele>2.75</ele><time>2026-04-29T19:22:37.991Z</time></trkpt><trkpt lat="43.554182747994886" lon="10.30410937670161"><ele>3.0</ele><time>2026-04-29T19:22:38.991Z</time></trkpt><trkpt lat="43.55411567130988" lon="10.303980553821848"><ele>3.0</ele><time>2026-04-29T19:22:39.991Z</time></trkpt><trkpt lat="43.55403738773717" lon="10.303875902777802"><ele>3.0</ele><time>2026-04-29T19:22:40.991Z</time></trkpt><trkpt lat="43.55396103839902" lon="10.303786404566049"><ele>3.0</ele><time>2026-04-29T19:22:41.991Z</time></trkpt><trkpt lat="43.553872149674646" lon="10.303730284338984"><ele>3.0</ele><time>2026-04-29T19:22:42.991Z</time></trkpt><trkpt lat="43.553769818734374" lon="10.30370351542615"><ele>3.0</ele><time>2026-04-29T19:22:43.99Z</time></trkpt><trkpt lat="43.55365496067213" lon="10.30371714501672"><ele>3.0</ele><time>2026-04-29T19:22:44.99Z</time></trkpt><trkpt lat="43.55352677899723" lon="10.303768190170212"><ele>3.0</ele><time>2026-04-29T19:22:45.99Z</time></trkpt><trkpt lat="43.55340577998615" lon="10.303826649670377"><ele>3.0</ele><time>2026-04-29T19:22:46.99Z</time></trkpt><trkpt lat="43.55328338606322" lon="10.303876985198915"><ele>3.0</ele><time>2026-04-29T19:22:47.99Z</time></trkpt><trkpt lat="43.553168597990286" lon="10.303918920396507"><ele>3.0</ele><time>2026-04-29T19:22:48.99Z</time></trkpt><trkpt lat="43.55306099261479" lon="10.303951660294713"><ele>3.0</ele><time>2026-04-29T19:22:49.99Z</time></trkpt><trkpt lat="43.55294874833941" lon="10.303978622228207"><ele>3.0</ele><time>2026-04-29T19:22:50.99Z</time></trkpt><trkpt lat="43.552829097466855" lon="10.30400401255734"><ele>3.0</ele><time>2026-04-29T19:22:51.99Z</time></trkpt><trkpt lat="43.55270113887225" lon="10.304030394195342"><ele>4.0</ele><time>2026-04-29T19:22:52.99Z</time></trkpt><trkpt lat="43.55256731331829" lon="10.304052686799626"><ele>5.0</ele><time>2026-04-29T19:22:53.992Z</time></trkpt><trkpt lat="43.552439796792825" lon="10.304065974429445"><ele>6.0</ele><time>2026-04-29T19:22:54.992Z</time></trkpt><trkpt lat="43.552322042642444" lon="10.304071296363118"><ele>7.0</ele><time>2026-04-29T19:22:55.992Z</time></trkpt><trkpt lat="43.55221268717356" lon="10.304071912821698"><ele>7.000000000000001</ele><time>2026-04-29T19:22:56.993Z</time></trkpt><trkpt lat="43.55211076071419" lon="10.304073734676658"><ele>7.0</ele><time>2026-04-29T19:22:57.992Z</time></trkpt><trkpt lat="43.5520217817408" lon="10.304073017952778"><ele>7.0</ele><time>2026-04-29T19:22:58.992Z</time></trkpt><trkpt lat="43.55194462995821" lon="10.304069738855667"><ele>7.0</ele><time>2026-04-29T19:22:59.992Z</time></trkpt><trkpt lat="43.551853412033076" lon="10.30406606246308"><ele>7.000000000000001</ele><time>2026-04-29T19:23:01.992Z</time></trkpt><trkpt lat="43.55177599620756" lon="10.304067121997665"><ele>7.0</ele><time>2026-04-29T19:23:05.991Z</time></trkpt><trkpt lat="43.55170115335583" lon="10.304073661474286"><ele>6.6</ele><time>2026-04-29T19:23:07.992Z</time></trkpt><trkpt lat="43.551635811639585" lon="10.304061218374336"><ele>6.199999999999999</ele><time>2026-04-29T19:23:09.992Z</time></trkpt><trkpt lat="43.55155532456585" lon="10.304059900598839"><ele>5.8</ele><time>2026-04-29T19:23:11.992Z</time></trkpt><trkpt lat="43.55144980658123" lon="10.30411154967632"><ele>5.4</ele><time>2026-04-29T19:23:13.992Z</time></trkpt><trkpt lat="43.5514107362617" lon="10.304257178943852"><ele>5.0</ele><time>2026-04-29T19:23:15.992Z</time></trkpt><trkpt lat="43.55147038820233" lon="10.304369197536978"><ele>5.0</ele><time>2026-04-29T19:23:16.992Z</time></trkpt><trkpt lat="43.551512133636436" lon="10.304505777829169"><ele>5.0</ele><time>2026-04-29T19:23:18.991Z</time></trkpt><trkpt lat="43.551526796156246" lon="10.304626348547421"><ele>5.0</ele><time>2026-04-29T19:23:20.991Z</time></trkpt><trkpt lat="43.5515448262676" lon="10.304752236015629"><ele>5.0</ele><time>2026-04-29T19:23:23.991Z</time></trkpt><trkpt lat="43.551539366995115" lon="10.304858389550219"><ele>5.0</ele><time>2026-04-29T19:23:26.991Z</time></trkpt><trkpt lat="43.55154805154163" lon="10.30496253430998"><ele>5.0</ele><time>2026-04-29T19:23:29.991Z</time></trkpt><trkpt lat="43.551746807463424" lon="10.30494465549576"><ele>5.0</ele><time>2026-04-29T19:36:40.984Z</time></trkpt><trkpt lat="43.5516826369541" lon="10.304952160882198"><ele>5.0</ele><time>2026-04-29T19:37:07.983Z</time></trkpt><trkpt lat="43.55164346179937" lon="10.30485845035241"><ele>5.0</ele><time>2026-04-29T19:37:50.984Z</time></trkpt><trkpt lat="43.55164845783253" lon="10.304727339154505"><ele>5.0</ele><time>2026-04-29T19:37:52.984Z</time></trkpt><trkpt lat="43.55166012148566" lon="10.304576289334806"><ele>5.0</ele><time>2026-04-29T19:37:54.984Z</time></trkpt><trkpt lat="43.551594262434826" lon="10.304442755771205"><ele>5.0</ele><time>2026-04-29T19:37:56.984Z</time></trkpt><trkpt lat="43.55166479388108" lon="10.304339506239979"><ele>5.0</ele><time>2026-04-29T19:37:59.984Z</time></trkpt><trkpt lat="43.55169737167557" lon="10.304240628311051"><ele>5.0</ele><time>2026-04-29T19:38:01.984Z</time></trkpt><trkpt lat="43.5517864080261" lon="10.304176581470264"><ele>5.0</ele><time>2026-04-29T19:38:03.984Z</time></trkpt><trkpt lat="43.551856682837624" lon="10.304157065673246"><ele>5.0</ele><time>2026-04-29T19:38:04.984Z</time></trkpt><trkpt lat="43.55194405125104" lon="10.304148553425069"><ele>5.0</ele><time>2026-04-29T19:38:05.984Z</time></trkpt><trkpt lat="43.55203503939286" lon="10.304138568198765"><ele>5.4</ele><time>2026-04-29T19:38:06.984Z</time></trkpt><trkpt lat="43.55213735926542" lon="10.304140190200489"><ele>5.8</ele><time>2026-04-29T19:38:07.984Z</time></trkpt><trkpt lat="43.55224044590937" lon="10.304140487247542"><ele>6.199999999999999</ele><time>2026-04-29T19:38:08.984Z</time></trkpt><trkpt lat="43.55234661128708" lon="10.30412980675885"><ele>6.6</ele><time>2026-04-29T19:38:09.984Z</time></trkpt><trkpt lat="43.552455170047054" lon="10.3041193185822"><ele>7.0</ele><time>2026-04-29T19:38:10.984Z</time></trkpt><trkpt lat="43.55255792469632" lon="10.304108338339331"><ele>7.0</ele><time>2026-04-29T19:38:11.984Z</time></trkpt><trkpt lat="43.5526621926868" lon="10.30409202963365"><ele>6.999999999999999</ele><time>2026-04-29T19:38:12.984Z</time></trkpt><trkpt lat="43.552770476483595" lon="10.30407439136572"><ele>6.999999999999999</ele><time>2026-04-29T19:38:13.984Z</time></trkpt><trkpt lat="43.552877788128356" lon="10.30405304851834"><ele>7.0</ele><time>2026-04-29T19:38:14.984Z</time></trkpt><trkpt lat="43.5529905667712" lon="10.304022702241761"><ele>7.0</ele><time>2026-04-29T19:38:15.984Z</time></trkpt><trkpt lat="43.553105840813934" lon="10.303988268658003"><ele>6.199999999999999</ele><time>2026-04-29T19:38:16.984Z</time></trkpt><trkpt lat="43.55322316880374" lon="10.303951440654966"><ele>5.3999999999999995</ele><time>2026-04-29T19:38:17.984Z</time></trkpt><trkpt lat="43.55333706186913" lon="10.303911735670608"><ele>4.6</ele><time>2026-04-29T19:38:18.984Z</time></trkpt><trkpt lat="43.553441729517516" lon="10.303868806364596"><ele>3.8</ele><time>2026-04-29T19:38:19.984Z</time></trkpt><trkpt lat="43.55353551686169" lon="10.3038318855597"><ele>3.0</ele><time>2026-04-29T19:38:20.984Z</time></trkpt><trkpt lat="43.55362789469199" lon="10.303798219609526"><ele>3.0</ele><time>2026-04-29T19:38:21.984Z</time></trkpt><trkpt lat="43.553721092538" lon="10.30377404316683"><ele>3.0</ele><time>2026-04-29T19:38:22.984Z</time></trkpt><trkpt lat="43.553820555591535" lon="10.303776725120159"><ele>3.0</ele><time>2026-04-29T19:38:23.984Z</time></trkpt><trkpt lat="43.5539171354581" lon="10.30381115059325"><ele>3.0</ele><time>2026-04-29T19:38:24.984Z</time></trkpt><trkpt lat="43.55400595051914" lon="10.303883031856707"><ele>3.0</ele><time>2026-04-29T19:38:25.984Z</time></trkpt><trkpt lat="43.55408615701137" lon="10.303994876697326"><ele>3.0</ele><time>2026-04-29T19:38:26.984Z</time></trkpt><trkpt lat="43.55415623491323" lon="10.304113596273384"><ele>3.0</ele><time>2026-04-29T19:38:27.984Z</time></trkpt><trkpt lat="43.55421666651109" lon="10.304217108385993"><ele>3.0</ele><time>2026-04-29T19:38:28.984Z</time></trkpt><trkpt lat="43.55427326535653" lon="10.304314215425787"><ele>3.0</ele><time>2026-04-29T19:38:29.984Z</time></trkpt><trkpt lat="43.554330793516094" lon="10.304415564898772"><ele>3.0</ele><time>2026-04-29T19:38:30.984Z</time></trkpt><trkpt lat="43.554394365303956" lon="10.304517711713896"><ele>3.0</ele><time>2026-04-29T19:38:31.984Z</time></trkpt><trkpt lat="43.554462283009784" lon="10.304625050436726"><ele>3.0</ele><time>2026-04-29T19:38:32.984Z</time></trkpt><trkpt lat="43.5545324682219" lon="10.304729325151516"><ele>3.0</ele><time>2026-04-29T19:38:33.984Z</time></trkpt><trkpt lat="43.55459852903395" lon="10.304834770370325"><ele>3.0</ele><time>2026-04-29T19:38:34.984Z</time></trkpt><trkpt lat="43.55466584796297" lon="10.304937147994567"><ele>3.0</ele><time>2026-04-29T19:38:35.984Z</time></trkpt><trkpt lat="43.55473601524725" lon="10.305038716273593"><ele>2.8</ele><time>2026-04-29T19:38:36.983Z</time></trkpt><trkpt lat="43.55480864226059" lon="10.30514368736123"><ele>2.5999999999999996</ele><time>2026-04-29T19:38:37.983Z</time></trkpt><trkpt lat="43.55488342596469" lon="10.305253621158979"><ele>2.4000000000000004</ele><time>2026-04-29T19:38:38.983Z</time></trkpt><trkpt lat="43.55495179262278" lon="10.305364362586744"><ele>2.2</ele><time>2026-04-29T19:38:39.983Z</time></trkpt><trkpt lat="43.55502354569791" lon="10.305461602697866"><ele>2.0</ele><time>2026-04-29T19:38:40.983Z</time></trkpt><trkpt lat="43.55509869037678" lon="10.305557656048736"><ele>2.0</ele><time>2026-04-29T19:38:41.983Z</time></trkpt><trkpt lat="43.55517611958179" lon="10.305652863544235"><ele>2.0</ele><time>2026-04-29T19:38:42.983Z</time></trkpt><trkpt lat="43.55526957662187" lon="10.305714830756182"><ele>2.0</ele><time>2026-04-29T19:38:43.983Z</time></trkpt><trkpt lat="43.555384959769746" lon="10.305726638638598"><ele>2.0</ele><time>2026-04-29T19:38:44.983Z</time></trkpt><trkpt lat="43.55549988726765" lon="10.305711102786658"><ele>2.0</ele><time>2026-04-29T19:38:45.983Z</time></trkpt><trkpt lat="43.5555884236767" lon="10.3056749256355"><ele>2.0</ele><time>2026-04-29T19:38:46.983Z</time></trkpt><trkpt lat="43.555647407958915" lon="10.305638850746773"><ele>2.0</ele><time>2026-04-29T19:38:47.983Z</time></trkpt><trkpt lat="43.55576982363791" lon="10.305759525077013"><ele>2.0</ele><time>2026-04-29T19:38:49.983Z</time></trkpt><trkpt lat="43.55582424583316" lon="10.305818369255674"><ele>2.0</ele><time>2026-04-29T19:38:50.983Z</time></trkpt><trkpt lat="43.5558889211789" lon="10.305886789029366"><ele>2.0</ele><time>2026-04-29T19:38:51.983Z</time></trkpt><trkpt lat="43.55596697751985" lon="10.30596050158137"><ele>2.0</ele><time>2026-04-29T19:38:52.983Z</time></trkpt><trkpt lat="43.55605706915919" lon="10.306026028880375"><ele>2.0</ele><time>2026-04-29T19:38:53.983Z</time></trkpt><trkpt lat="43.55614926764423" lon="10.306095668792976"><ele>2.0</ele><time>2026-04-29T19:38:54.983Z</time></trkpt><trkpt lat="43.55625480595116" lon="10.306185156108258"><ele>2.0</ele><time>2026-04-29T19:38:55.983Z</time></trkpt><trkpt lat="43.556361751677834" lon="10.306282058366971"><ele>1.75</ele><time>2026-04-29T19:38:56.983Z</time></trkpt><trkpt lat="43.55647653215473" lon="10.30637674936614"><ele>1.5</ele><time>2026-04-29T19:38:57.983Z</time></trkpt><trkpt lat="43.55659838510944" lon="10.306480155458077"><ele>1.25</ele><time>2026-04-29T19:38:58.983Z</time></trkpt><trkpt lat="43.55673084025599" lon="10.306593493057667"><ele>1.0</ele><time>2026-04-29T19:38:59.983Z</time></trkpt><trkpt lat="43.55685826711041" lon="10.306707920148158"><ele>1.25</ele><time>2026-04-29T19:39:00.983Z</time></trkpt><trkpt lat="43.55697484042071" lon="10.306818599680657"><ele>1.5</ele><time>2026-04-29T19:39:01.983Z</time></trkpt><trkpt lat="43.55708391167281" lon="10.306915452823654"><ele>1.75</ele><time>2026-04-29T19:39:02.983Z</time></trkpt><trkpt lat="43.557190921797726" lon="10.3070032878947"><ele>2.0</ele><time>2026-04-29T19:39:03.983Z</time></trkpt><trkpt lat="43.557295876226405" lon="10.307093537705772"><ele>2.0</ele><time>2026-04-29T19:39:04.983Z</time></trkpt><trkpt lat="43.55740592999341" lon="10.30718527224039"><ele>2.0</ele><time>2026-04-29T19:39:05.983Z</time></trkpt><trkpt lat="43.557519466405886" lon="10.307277540318239"><ele>2.0</ele><time>2026-04-29T19:39:06.983Z</time></trkpt><trkpt lat="43.557635906433354" lon="10.307378050803548"><ele>2.0</ele><time>2026-04-29T19:39:07.983Z</time></trkpt><trkpt lat="43.55775895232814" lon="10.307481617876155"><ele>2.0</ele><time>2026-04-29T19:39:08.983Z</time></trkpt><trkpt lat="43.557887653959924" lon="10.307597295148941"><ele>2.0</ele><time>2026-04-29T19:39:09.983Z</time></trkpt><trkpt lat="43.55801537206162" lon="10.307714112601367"><ele>2.0</ele><time>2026-04-29T19:39:10.983Z</time></trkpt><trkpt lat="43.558142232099144" lon="10.307828902710503"><ele>2.0</ele><time>2026-04-29T19:39:11.983Z</time></trkpt><trkpt lat="43.55827299302281" lon="10.30794325530668"><ele>2.0</ele><time>2026-04-29T19:39:12.983Z</time></trkpt><trkpt lat="43.5583992911348" lon="10.308055899409174"><ele>2.0</ele><time>2026-04-29T19:39:13.983Z</time></trkpt><trkpt lat="43.558516966613155" lon="10.308161061045736"><ele>2.0</ele><time>2026-04-29T19:39:14.983Z</time></trkpt><trkpt lat="43.55862674383341" lon="10.308257251293124"><ele>2.0</ele><time>2026-04-29T19:39:15.983Z</time></trkpt><trkpt lat="43.55873089322545" lon="10.308348049871412"><ele>2.0</ele><time>2026-04-29T19:39:16.983Z</time></trkpt><trkpt lat="43.55882614549873" lon="10.308433418831749"><ele>2.0</ele><time>2026-04-29T19:39:17.983Z</time></trkpt><trkpt lat="43.55891335959976" lon="10.308513063476493"><ele>2.0</ele><time>2026-04-29T19:39:18.983Z</time></trkpt><trkpt lat="43.5589803145458" lon="10.308587341236576"><ele>2.0</ele><time>2026-04-29T19:39:19.983Z</time></trkpt><trkpt lat="43.55903179629459" lon="10.308660220909694"><ele>2.0</ele><time>2026-04-29T19:39:20.983Z</time></trkpt><trkpt lat="43.55904734241728" lon="10.308787853804882"><ele>2.0</ele><time>2026-04-29T19:39:21.983Z</time></trkpt><trkpt lat="43.55905295034732" lon="10.308919147982536"><ele>2.0</ele><time>2026-04-29T19:39:22.983Z</time></trkpt><trkpt lat="43.55907438719001" lon="10.309042855872931"><ele>2.0</ele><time>2026-04-29T19:39:23.983Z</time></trkpt><trkpt lat="43.55910165189053" lon="10.30916298620481"><ele>2.0</ele><time>2026-04-29T19:39:24.983Z</time></trkpt><trkpt lat="43.559127072489886" lon="10.309270893720699"><ele>2.1666666666666665</ele><time>2026-04-29T19:39:25.983Z</time></trkpt><trkpt lat="43.55914915178148" lon="10.309361077344326"><ele>2.333333333333333</ele><time>2026-04-29T19:39:26.983Z</time></trkpt><trkpt lat="43.55917295176453" lon="10.309470075883297"><ele>2.5</ele><time>2026-04-29T19:39:28.983Z</time></trkpt><trkpt lat="43.55919852958332" lon="10.30955895867819"><ele>2.6666666666666665</ele><time>2026-04-29T19:39:30.982Z</time></trkpt><trkpt lat="43.559239341955" lon="10.30971243142346"><ele>2.8333333333333335</ele><time>2026-04-29T19:39:32.982Z</time></trkpt><trkpt lat="43.55926735851247" lon="10.30981361896847"><ele>3.0</ele><time>2026-04-29T19:39:33.982Z</time></trkpt><trkpt lat="43.559296862304045" lon="10.309929427892703"><ele>3.0</ele><time>2026-04-29T19:39:34.982Z</time></trkpt><trkpt lat="43.55933064176568" lon="10.310057532370102"><ele>3.0</ele><time>2026-04-29T19:39:35.982Z</time></trkpt><trkpt lat="43.5593626433709" lon="10.31021253840378"><ele>3.0</ele><time>2026-04-29T19:39:36.982Z</time></trkpt><trkpt lat="43.55939507569845" lon="10.31036616041527"><ele>3.0</ele><time>2026-04-29T19:39:37.982Z</time></trkpt><trkpt lat="43.55943369916102" lon="10.310545955224907"><ele>3.0</ele><time>2026-04-29T19:39:38.982Z</time></trkpt><trkpt lat="43.559476899651955" lon="10.310729329428044"><ele>3.0</ele><time>2026-04-29T19:39:39.982Z</time></trkpt><trkpt lat="43.55952437847006" lon="10.310923282679429"><ele>3.0</ele><time>2026-04-29T19:39:40.982Z</time></trkpt><trkpt lat="43.559571423850876" lon="10.31112109656417"><ele>3.0</ele><time>2026-04-29T19:39:41.984Z</time></trkpt><trkpt lat="43.55961183949527" lon="10.311311628776263"><ele>3.25</ele><time>2026-04-29T19:39:42.984Z</time></trkpt><trkpt lat="43.55965779228508" lon="10.311501677660456"><ele>3.5</ele><time>2026-04-29T19:39:43.984Z</time></trkpt><trkpt lat="43.55969899054819" lon="10.311697891457337"><ele>3.75</ele><time>2026-04-29T19:39:44.984Z</time></trkpt><trkpt lat="43.559739219454244" lon="10.311877242718678"><ele>4.0</ele><time>2026-04-29T19:39:45.984Z</time></trkpt><trkpt lat="43.55977621706602" lon="10.312047478052513"><ele>4.0</ele><time>2026-04-29T19:39:46.984Z</time></trkpt><trkpt lat="43.55980924248645" lon="10.312201004554618"><ele>4.0</ele><time>2026-04-29T19:39:47.984Z</time></trkpt><trkpt lat="43.55983818057803" lon="10.312316882982559"><ele>4.0</ele><time>2026-04-29T19:39:48.983Z</time></trkpt><trkpt lat="43.55986593150071" lon="10.312446423762756"><ele>4.0</ele><time>2026-04-29T19:39:50.984Z</time></trkpt><trkpt lat="43.560007528510894" lon="10.312453760442631"><ele>4.0</ele><time>2026-04-29T19:39:52.983Z</time></trkpt><trkpt lat="43.560088150167545" lon="10.312436405550853"><ele>4.0</ele><time>2026-04-29T19:39:53.983Z</time></trkpt><trkpt lat="43.560183435736505" lon="10.312421448340013"><ele>4.0</ele><time>2026-04-29T19:39:54.983Z</time></trkpt><trkpt lat="43.56028644802828" lon="10.312429262291582"><ele>4.0</ele><time>2026-04-29T19:39:55.983Z</time></trkpt><trkpt lat="43.56038609846419" lon="10.312431655009878"><ele>4.0</ele><time>2026-04-29T19:39:56.983Z</time></trkpt><trkpt lat="43.56049275651461" lon="10.31243305530241"><ele>4.0</ele><time>2026-04-29T19:39:57.983Z</time></trkpt><trkpt lat="43.56059366846948" lon="10.312438650306865"><ele>3.9999999999999996</ele><time>2026-04-29T19:39:58.983Z</time></trkpt><trkpt lat="43.56069333553583" lon="10.312441072020833"><ele>4.0</ele><time>2026-04-29T19:39:59.983Z</time></trkpt><trkpt lat="43.560783502136765" lon="10.312441939160063"><ele>4.0</ele><time>2026-04-29T19:40:00.983Z</time></trkpt><trkpt lat="43.560863361848945" lon="10.312434083508913"><ele>4.0</ele><time>2026-04-29T19:40:01.983Z</time></trkpt><trkpt lat="43.560945455445946" lon="10.31244357164091"><ele>3.9999999999999996</ele><time>2026-04-29T19:40:02.983Z</time></trkpt><trkpt lat="43.56102849900269" lon="10.312436265072327"><ele>4.0</ele><time>2026-04-29T19:40:03.983Z</time></trkpt><trkpt lat="43.56112064314679" lon="10.312448250211315"><ele>3.4000000000000004</ele><time>2026-04-29T19:40:04.983Z</time></trkpt><trkpt lat="43.561214774928345" lon="10.312449693837745"><ele>2.8000000000000003</ele><time>2026-04-29T19:40:05.983Z</time></trkpt><trkpt lat="43.56130805765033" lon="10.312445932166725"><ele>2.2</ele><time>2026-04-29T19:40:06.983Z</time></trkpt><trkpt lat="43.56141419293071" lon="10.31245298184657"><ele>1.6</ele><time>2026-04-29T19:40:07.983Z</time></trkpt><trkpt lat="43.56152179497724" lon="10.312481443152928"><ele>1.0</ele><time>2026-04-29T19:40:08.983Z</time></trkpt><trkpt lat="43.561645477815816" lon="10.312493837258941"><ele>1.0</ele><time>2026-04-29T19:40:09.983Z</time></trkpt><trkpt lat="43.561766276386436" lon="10.31250594233209"><ele>1.0</ele><time>2026-04-29T19:40:10.983Z</time></trkpt><trkpt lat="43.56188438018749" lon="10.31249759989739"><ele>1.0</ele><time>2026-04-29T19:40:11.983Z</time></trkpt><trkpt lat="43.561995885813566" lon="10.312509120168757"><ele>1.0</ele><time>2026-04-29T19:40:12.983Z</time></trkpt><trkpt lat="43.56210006420702" lon="10.312519749970852"><ele>1.2000000000000002</ele><time>2026-04-29T19:40:13.983Z</time></trkpt><trkpt lat="43.56219755042101" lon="10.31252830909675"><ele>1.4000000000000001</ele><time>2026-04-29T19:40:14.983Z</time></trkpt><trkpt lat="43.562288375120914" lon="10.31255770886143"><ele>1.6</ele><time>2026-04-29T19:40:15.983Z</time></trkpt><trkpt lat="43.56238641314246" lon="10.312563011908304"><ele>1.8</ele><time>2026-04-29T19:40:16.983Z</time></trkpt><trkpt lat="43.56248643121022" lon="10.312565361420662"><ele>2.0</ele><time>2026-04-29T19:40:17.983Z</time></trkpt><trkpt lat="43.562568073619005" lon="10.312565517545378"><ele>2.0</ele><time>2026-04-29T19:40:18.983Z</time></trkpt><trkpt lat="43.56263610978404" lon="10.312582006945892"><ele>2.0</ele><time>2026-04-29T19:40:19.983Z</time></trkpt><trkpt lat="43.562756362593696" lon="10.312588222905605"><ele>2.0</ele><time>2026-04-29T19:40:21.983Z</time></trkpt><trkpt lat="43.5628387536663" lon="10.312596159751713"><ele>2.0</ele><time>2026-04-29T19:40:22.983Z</time></trkpt><trkpt lat="43.56293852372665" lon="10.312606714269164"><ele>2.0</ele><time>2026-04-29T19:40:23.983Z</time></trkpt><trkpt lat="43.563055262323324" lon="10.31262282589423"><ele>2.0</ele><time>2026-04-29T19:40:24.983Z</time></trkpt><trkpt lat="43.56318643481311" lon="10.312643988899165"><ele>2.0</ele><time>2026-04-29T19:40:25.983Z</time></trkpt><trkpt lat="43.56332868248552" lon="10.312667429856333"><ele>2.0</ele><time>2026-04-29T19:40:26.983Z</time></trkpt><trkpt lat="43.56348258040631" lon="10.312654516900105"><ele>2.0</ele><time>2026-04-29T19:40:27.983Z</time></trkpt><trkpt lat="43.56364751738305" lon="10.312673529738165"><ele>1.6666666666666665</ele><time>2026-04-29T19:40:28.983Z</time></trkpt><trkpt lat="43.56381762042874" lon="10.312697185241547"><ele>1.3333333333333333</ele><time>2026-04-29T19:40:29.983Z</time></trkpt><trkpt lat="43.563985540537836" lon="10.312717385637521"><ele>1.0</ele><time>2026-04-29T19:40:30.983Z</time></trkpt><trkpt lat="43.56415927768333" lon="10.312743088866227"><ele>1.0</ele><time>2026-04-29T19:40:31.983Z</time></trkpt><trkpt lat="43.56434005004881" lon="10.31278156542059"><ele>1.0</ele><time>2026-04-29T19:40:32.982Z</time></trkpt><trkpt lat="43.564522162091826" lon="10.312809075571977"><ele>1.0</ele><time>2026-04-29T19:40:33.982Z</time></trkpt><trkpt lat="43.5647010814413" lon="10.312831952985904"><ele>2.3333333333333335</ele><time>2026-04-29T19:40:34.982Z</time></trkpt><trkpt lat="43.564873551060465" lon="10.312855725445013"><ele>3.666666666666667</ele><time>2026-04-29T19:40:35.982Z</time></trkpt><trkpt lat="43.56504615839627" lon="10.312882699872569"><ele>5.0</ele><time>2026-04-29T19:40:36.982Z</time></trkpt><trkpt lat="43.56521220209063" lon="10.312906967214621"><ele>4.666666666666667</ele><time>2026-04-29T19:40:37.982Z</time></trkpt><trkpt lat="43.56537806720082" lon="10.312931542396724"><ele>4.333333333333333</ele><time>2026-04-29T19:40:38.982Z</time></trkpt><trkpt lat="43.56554293126254" lon="10.312961110067528"><ele>4.0</ele><time>2026-04-29T19:40:39.982Z</time></trkpt><trkpt lat="43.56570901634006" lon="10.312990737228965"><ele>4.0</ele><time>2026-04-29T19:40:40.982Z</time></trkpt><trkpt lat="43.56587437767882" lon="10.31301905775104"><ele>4.0</ele><time>2026-04-29T19:40:41.982Z</time></trkpt><trkpt lat="43.56604147673155" lon="10.31304898715324"><ele>4.0</ele><time>2026-04-29T19:40:42.982Z</time></trkpt><trkpt lat="43.56621294064621" lon="10.313085710850702"><ele>3.333333333333333</ele><time>2026-04-29T19:40:43.982Z</time></trkpt><trkpt lat="43.566383650887516" lon="10.313122999944204"><ele>2.6666666666666665</ele><time>2026-04-29T19:40:44.982Z</time></trkpt><trkpt lat="43.5665585657394" lon="10.313179351758164"><ele>2.0</ele><time>2026-04-29T19:40:45.982Z</time></trkpt><trkpt lat="43.56673337297594" lon="10.313252693934109"><ele>2.0</ele><time>2026-04-29T19:40:46.982Z</time></trkpt><trkpt lat="43.56690665330973" lon="10.313338265138905"><ele>2.0</ele><time>2026-04-29T19:40:47.982Z</time></trkpt><trkpt lat="43.567086322643895" lon="10.313419405549528"><ele>2.0</ele><time>2026-04-29T19:40:48.982Z</time></trkpt><trkpt lat="43.567267432339555" lon="10.313499369544676"><ele>2.0</ele><time>2026-04-29T19:40:49.982Z</time></trkpt><trkpt lat="43.56745058449347" lon="10.313579333042972"><ele>2.0</ele><time>2026-04-29T19:40:50.982Z</time></trkpt><trkpt lat="43.56763378570772" lon="10.313664917305415"><ele>2.0</ele><time>2026-04-29T19:40:51.982Z</time></trkpt><trkpt lat="43.567821680111" lon="10.31375051636991"><ele>2.6666666666666665</ele><time>2026-04-29T19:40:52.982Z</time></trkpt><trkpt lat="43.568011236269264" lon="10.313837670815929"><ele>3.333333333333333</ele><time>2026-04-29T19:40:53.982Z</time></trkpt><trkpt lat="43.568199470026926" lon="10.31392814512687"><ele>4.0</ele><time>2026-04-29T19:40:54.982Z</time></trkpt><trkpt lat="43.56838736180162" lon="10.31402540792969"><ele>4.0</ele><time>2026-04-29T19:40:55.982Z</time></trkpt><trkpt lat="43.56857417286981" lon="10.31412799039373"><ele>4.0</ele><time>2026-04-29T19:40:56.982Z</time></trkpt><trkpt lat="43.5687633856595" lon="10.314237778310444"><ele>4.0</ele><time>2026-04-29T19:40:57.982Z</time></trkpt><trkpt lat="43.568954906795874" lon="10.314352535661554"><ele>3.6666666666666665</ele><time>2026-04-29T19:40:58.982Z</time></trkpt><trkpt lat="43.56914707929143" lon="10.314468347652522"><ele>3.333333333333333</ele><time>2026-04-29T19:40:59.982Z</time></trkpt><trkpt lat="43.5693324588248" lon="10.314586771875645"><ele>3.0</ele><time>2026-04-29T19:41:00.982Z</time></trkpt><trkpt lat="43.569509100615086" lon="10.314710934722779"><ele>2.6666666666666665</ele><time>2026-04-29T19:41:01.982Z</time></trkpt><trkpt lat="43.56968361528523" lon="10.314836222048633"><ele>2.333333333333333</ele><time>2026-04-29T19:41:02.982Z</time></trkpt><trkpt lat="43.56984128764735" lon="10.31495302400945"><ele>2.0</ele><time>2026-04-29T19:41:03.982Z</time></trkpt><trkpt lat="43.56997921812633" lon="10.31506260502047"><ele>2.0</ele><time>2026-04-29T19:41:04.982Z</time></trkpt><trkpt lat="43.57009548801724" lon="10.315170537704326"><ele>2.0</ele><time>2026-04-29T19:41:05.982Z</time></trkpt><trkpt lat="43.57019174879465" lon="10.315275960305835"><ele>2.0</ele><time>2026-04-29T19:41:06.982Z</time></trkpt><trkpt lat="43.570245084534406" lon="10.315426252610326"><ele>2.0</ele><time>2026-04-29T19:41:07.982Z</time></trkpt><trkpt lat="43.57027313722923" lon="10.315593852863195"><ele>2.2</ele><time>2026-04-29T19:41:08.982Z</time></trkpt><trkpt lat="43.57030208153256" lon="10.315738462020356"><ele>2.4000000000000004</ele><time>2026-04-29T19:41:09.982Z</time></trkpt><trkpt lat="43.57033956681862" lon="10.315869087527043"><ele>2.5999999999999996</ele><time>2026-04-29T19:41:10.982Z</time></trkpt><trkpt lat="43.57039893760381" lon="10.31598847090633"><ele>2.8</ele><time>2026-04-29T19:41:11.982Z</time></trkpt><trkpt lat="43.570475412824614" lon="10.31609051492298"><ele>3.0</ele><time>2026-04-29T19:41:12.982Z</time></trkpt><trkpt lat="43.570564734837994" lon="10.31618431662345"><ele>2.8</ele><time>2026-04-29T19:41:13.982Z</time></trkpt><trkpt lat="43.57066201847217" lon="10.316270826891923"><ele>2.5999999999999996</ele><time>2026-04-29T19:41:14.982Z</time></trkpt><trkpt lat="43.570760372505426" lon="10.316343956619868"><ele>2.4000000000000004</ele><time>2026-04-29T19:41:15.982Z</time></trkpt><trkpt lat="43.57085995901775" lon="10.316411620048273"><ele>2.2</ele><time>2026-04-29T19:41:16.982Z</time></trkpt><trkpt lat="43.570952996090696" lon="10.316474841912568"><ele>2.0</ele><time>2026-04-29T19:41:17.982Z</time></trkpt><trkpt lat="43.57103150990248" lon="10.316530601180167"><ele>1.9999999999999998</ele><time>2026-04-29T19:41:18.982Z</time></trkpt><trkpt lat="43.57110381224504" lon="10.316578953352982"><ele>2.0</ele><time>2026-04-29T19:41:19.982Z</time></trkpt><trkpt lat="43.57117159206853" lon="10.316628342178774"><ele>2.0</ele><time>2026-04-29T19:41:20.982Z</time></trkpt><trkpt lat="43.571238410680294" lon="10.31667716870106"><ele>2.0</ele><time>2026-04-29T19:41:21.982Z</time></trkpt><trkpt lat="43.57130541474351" lon="10.316726885199694"><ele>1.9999999999999998</ele><time>2026-04-29T19:41:22.982Z</time></trkpt><trkpt lat="43.571376424355215" lon="10.31677477113356"><ele>2.0</ele><time>2026-04-29T19:41:23.982Z</time></trkpt><trkpt lat="43.57145408155512" lon="10.316823499013628"><ele>1.9999999999999998</ele><time>2026-04-29T19:41:24.982Z</time></trkpt><trkpt lat="43.57153118313534" lon="10.316874065460484"><ele>2.0</ele><time>2026-04-29T19:41:25.982Z</time></trkpt><trkpt lat="43.57160943916567" lon="10.316929595327805"><ele>2.0</ele><time>2026-04-29T19:41:26.981Z</time></trkpt><trkpt lat="43.57167960681094" lon="10.316991918309458"><ele>2.0</ele><time>2026-04-29T19:41:27.981Z</time></trkpt><trkpt lat="43.57174343707577" lon="10.317067486962985"><ele>1.9999999999999998</ele><time>2026-04-29T19:41:28.981Z</time></trkpt><trkpt lat="43.571798237371155" lon="10.317164798337718"><ele>2.0</ele><time>2026-04-29T19:41:29.981Z</time></trkpt><trkpt lat="43.57183193935473" lon="10.317290020171619"><ele>2.25</ele><time>2026-04-29T19:41:30.981Z</time></trkpt><trkpt lat="43.57185115248115" lon="10.317430471726412"><ele>2.5</ele><time>2026-04-29T19:41:31.981Z</time></trkpt><trkpt lat="43.571858921399226" lon="10.31758731132754"><ele>2.75</ele><time>2026-04-29T19:41:32.981Z</time></trkpt><trkpt lat="43.571849145880876" lon="10.31774414001867"><ele>3.0</ele><time>2026-04-29T19:41:33.981Z</time></trkpt><trkpt lat="43.57183491652755" lon="10.317912687813418"><ele>2.25</ele><time>2026-04-29T19:41:34.981Z</time></trkpt><trkpt lat="43.57182772007253" lon="10.318071883476911"><ele>1.5</ele><time>2026-04-29T19:41:35.981Z</time></trkpt><trkpt lat="43.57182749325174" lon="10.318229538078844"><ele>0.75</ele><time>2026-04-29T19:41:36.981Z</time></trkpt><trkpt lat="43.57184242813776" lon="10.318393303234455"><ele>0.0</ele><time>2026-04-29T19:41:37.981Z</time></trkpt><trkpt lat="43.571875344317625" lon="10.31855319656325"><ele>0.0</ele><time>2026-04-29T19:41:38.981Z</time></trkpt><trkpt lat="43.57192838368826" lon="10.318701638552195"><ele>0.0</ele><time>2026-04-29T19:41:39.981Z</time></trkpt><trkpt lat="43.57200358012986" lon="10.318815978912657"><ele>0.0</ele><time>2026-04-29T19:41:40.981Z</time></trkpt><trkpt lat="43.572093053366196" lon="10.318901030952073"><ele>0.0</ele><time>2026-04-29T19:41:41.981Z</time></trkpt><trkpt lat="43.57219847829625" lon="10.31895248608669"><ele>1.5</ele><time>2026-04-29T19:41:42.981Z</time></trkpt><trkpt lat="43.5723123572705" lon="10.318995222044762"><ele>3.0</ele><time>2026-04-29T19:41:43.981Z</time></trkpt><trkpt lat="43.572429656134275" lon="10.3190545270656"><ele>4.5</ele><time>2026-04-29T19:41:44.981Z</time></trkpt><trkpt lat="43.57254603612052" lon="10.319125869568373"><ele>6.0</ele><time>2026-04-29T19:41:45.981Z</time></trkpt><trkpt lat="43.57266941522394" lon="10.319185319616471"><ele>6.0</ele><time>2026-04-29T19:41:46.983Z</time></trkpt><trkpt lat="43.57280201977519" lon="10.319261524050987"><ele>6.0</ele><time>2026-04-29T19:41:47.983Z</time></trkpt><trkpt lat="43.57293017570457" lon="10.31933640982751"><ele>6.0</ele><time>2026-04-29T19:41:48.983Z</time></trkpt><trkpt lat="43.573062704361796" lon="10.319411644468358"><ele>6.0</ele><time>2026-04-29T19:41:49.983Z</time></trkpt><trkpt lat="43.57320014107968" lon="10.319483639863215"><ele>5.0</ele><time>2026-04-29T19:41:50.983Z</time></trkpt><trkpt lat="43.57332908165182" lon="10.319560453721428"><ele>4.0</ele><time>2026-04-29T19:41:51.983Z</time></trkpt><trkpt lat="43.57346651063301" lon="10.319633567621713"><ele>3.0</ele><time>2026-04-29T19:41:52.983Z</time></trkpt><trkpt lat="43.57360839798678" lon="10.319707435314742"><ele>2.0</ele><time>2026-04-29T19:41:53.982Z</time></trkpt><trkpt lat="43.57375286305318" lon="10.319781616073445"><ele>1.3333333333333333</ele><time>2026-04-29T19:41:54.982Z</time></trkpt><trkpt lat="43.573893282279045" lon="10.319859911912733"><ele>0.6666666666666666</ele><time>2026-04-29T19:41:55.983Z</time></trkpt><trkpt lat="43.57403655984065" lon="10.31993933188331"><ele>0.0</ele><time>2026-04-29T19:41:56.983Z</time></trkpt><trkpt lat="43.57418126250354" lon="10.320019274388196"><ele>0.0</ele><time>2026-04-29T19:41:57.983Z</time></trkpt><trkpt lat="43.57432865069536" lon="10.320100498568282"><ele>0.0</ele><time>2026-04-29T19:41:58.983Z</time></trkpt><trkpt lat="43.57448188484815" lon="10.320188956967305"><ele>0.0</ele><time>2026-04-29T19:41:59.983Z</time></trkpt><trkpt lat="43.57463637298577" lon="10.320274072511987"><ele>1.6666666666666667</ele><time>2026-04-29T19:42:00.983Z</time></trkpt><trkpt lat="43.57479661778075" lon="10.320362268721453"><ele>3.3333333333333335</ele><time>2026-04-29T19:42:01.983Z</time></trkpt><trkpt lat="43.57495852022091" lon="10.32045197087961"><ele>5.0</ele><time>2026-04-29T19:42:02.983Z</time></trkpt><trkpt lat="43.57511691866964" lon="10.320533995176412"><ele>3.666666666666667</ele><time>2026-04-29T19:42:03.983Z</time></trkpt><trkpt lat="43.57528077972883" lon="10.320624221119479"><ele>2.3333333333333335</ele><time>2026-04-29T19:42:04.983Z</time></trkpt><trkpt lat="43.575444906353106" lon="10.320714227244864"><ele>1.0</ele><time>2026-04-29T19:42:05.983Z</time></trkpt><trkpt lat="43.575605710195724" lon="10.320801636042834"><ele>1.0</ele><time>2026-04-29T19:42:06.983Z</time></trkpt><trkpt lat="43.57575675585374" lon="10.320890999008554"><ele>1.0</ele><time>2026-04-29T19:42:07.983Z</time></trkpt><trkpt lat="43.57590698035764" lon="10.32097705950712"><ele>1.0</ele><time>2026-04-29T19:42:08.983Z</time></trkpt><trkpt lat="43.5760558655373" lon="10.321059136533284"><ele>0.6666666666666666</ele><time>2026-04-29T19:42:09.983Z</time></trkpt><trkpt lat="43.57620681437073" lon="10.321139310524913"><ele>0.3333333333333333</ele><time>2026-04-29T19:42:10.982Z</time></trkpt><trkpt lat="43.576360269671845" lon="10.321208582706545"><ele>0.0</ele><time>2026-04-29T19:42:11.982Z</time></trkpt><trkpt lat="43.576519581572605" lon="10.321267476610918"><ele>0.0</ele><time>2026-04-29T19:42:12.982Z</time></trkpt><trkpt lat="43.576682710047834" lon="10.321314652898732"><ele>0.0</ele><time>2026-04-29T19:42:13.982Z</time></trkpt><trkpt lat="43.576847783457666" lon="10.321358358680332"><ele>0.0</ele><time>2026-04-29T19:42:14.982Z</time></trkpt><trkpt lat="43.5770117744995" lon="10.321403799959013"><ele>0.0</ele><time>2026-04-29T19:42:15.982Z</time></trkpt><trkpt lat="43.57717688918486" lon="10.32145827986066"><ele>0.0</ele><time>2026-04-29T19:42:16.982Z</time></trkpt><trkpt lat="43.57734359580154" lon="10.321517054925273"><ele>0.0</ele><time>2026-04-29T19:42:17.982Z</time></trkpt><trkpt lat="43.57750831623844" lon="10.321586548922319"><ele>0.0</ele><time>2026-04-29T19:42:18.982Z</time></trkpt><trkpt lat="43.57766928528576" lon="10.321666105872566"><ele>0.0</ele><time>2026-04-29T19:42:19.982Z</time></trkpt><trkpt lat="43.5778266876844" lon="10.321750816468121"><ele>0.0</ele><time>2026-04-29T19:42:20.982Z</time></trkpt><trkpt lat="43.57798218908469" lon="10.321837568903806"><ele>1.0</ele><time>2026-04-29T19:42:21.982Z</time></trkpt><trkpt lat="43.5781351601839" lon="10.321925491791436"><ele>2.0</ele><time>2026-04-29T19:42:22.982Z</time></trkpt><trkpt lat="43.578287827694204" lon="10.32201258009424"><ele>3.0</ele><time>2026-04-29T19:42:23.982Z</time></trkpt><trkpt lat="43.57843135118658" lon="10.322095270463278"><ele>3.0</ele><time>2026-04-29T19:42:24.982Z</time></trkpt><trkpt lat="43.57857807676935" lon="10.322172810221762"><ele>3.0</ele><time>2026-04-29T19:42:25.982Z</time></trkpt><trkpt lat="43.578722473550954" lon="10.322253500908232"><ele>3.0</ele><time>2026-04-29T19:42:26.982Z</time></trkpt><trkpt lat="43.57886558917433" lon="10.322334074375407"><ele>2.75</ele><time>2026-04-29T19:42:27.982Z</time></trkpt><trkpt lat="43.5790091513853" lon="10.322408138845029"><ele>2.5</ele><time>2026-04-29T19:42:28.982Z</time></trkpt><trkpt lat="43.579151057829826" lon="10.322478940938073"><ele>2.25</ele><time>2026-04-29T19:42:29.982Z</time></trkpt><trkpt lat="43.57928422470224" lon="10.322550164269233"><ele>2.0</ele><time>2026-04-29T19:42:30.982Z</time></trkpt><trkpt lat="43.579406649162955" lon="10.322617918839986"><ele>2.0</ele><time>2026-04-29T19:42:31.982Z</time></trkpt><trkpt lat="43.5795331154456" lon="10.322687085309992"><ele>2.0</ele><time>2026-04-29T19:42:32.982Z</time></trkpt><trkpt lat="43.579662545246975" lon="10.322752822821268"><ele>2.0</ele><time>2026-04-29T19:42:33.982Z</time></trkpt><trkpt lat="43.57979301111573" lon="10.322819590318142"><ele>2.0</ele><time>2026-04-29T19:42:34.982Z</time></trkpt><trkpt lat="43.579920929470134" lon="10.322889686980435"><ele>2.0</ele><time>2026-04-29T19:42:35.982Z</time></trkpt><trkpt lat="43.58004807071262" lon="10.32295815447541"><ele>2.0</ele><time>2026-04-29T19:42:36.982Z</time></trkpt><trkpt lat="43.58017886229478" lon="10.32302541376578"><ele>2.0</ele><time>2026-04-29T19:42:37.982Z</time></trkpt><trkpt lat="43.5803094320012" lon="10.323093760940575"><ele>2.0</ele><time>2026-04-29T19:42:38.982Z</time></trkpt><trkpt lat="43.580440805672175" lon="10.323163019340848"><ele>2.25</ele><time>2026-04-29T19:42:39.982Z</time></trkpt><trkpt lat="43.58057285866105" lon="10.323234295946326"><ele>2.5</ele><time>2026-04-29T19:42:40.982Z</time></trkpt><trkpt lat="43.58070392490773" lon="10.323305899135073"><ele>2.75</ele><time>2026-04-29T19:42:41.982Z</time></trkpt><trkpt lat="43.58082859300832" lon="10.32339746713862"><ele>3.0</ele><time>2026-04-29T19:42:42.982Z</time></trkpt><trkpt lat="43.58097020899381" lon="10.323471173891758"><ele>3.0</ele><time>2026-04-29T19:42:43.982Z</time></trkpt><trkpt lat="43.58111017653113" lon="10.323547647178161"><ele>3.0</ele><time>2026-04-29T19:42:44.982Z</time></trkpt><trkpt lat="43.581253846041086" lon="10.323631210515538"><ele>3.0</ele><time>2026-04-29T19:42:45.982Z</time></trkpt><trkpt lat="43.58139650185395" lon="10.323711922738458"><ele>2.3333333333333335</ele><time>2026-04-29T19:42:46.982Z</time></trkpt><trkpt lat="43.58153966811596" lon="10.323789162874109"><ele>1.6666666666666665</ele><time>2026-04-29T19:42:47.982Z</time></trkpt><trkpt lat="43.58168034210378" lon="10.323866418212708"><ele>1.0</ele><time>2026-04-29T19:42:48.982Z</time></trkpt><trkpt lat="43.58182036532531" lon="10.323942973506632"><ele>1.25</ele><time>2026-04-29T19:42:49.982Z</time></trkpt><trkpt lat="43.58195505453027" lon="10.324019005392994"><ele>1.5</ele><time>2026-04-29T19:42:50.982Z</time></trkpt><trkpt lat="43.582084502598924" lon="10.3240916961482"><ele>1.75</ele><time>2026-04-29T19:42:51.982Z</time></trkpt><trkpt lat="43.58221526918627" lon="10.324159117613776"><ele>2.0</ele><time>2026-04-29T19:42:52.982Z</time></trkpt><trkpt lat="43.58234665063616" lon="10.324228522897734"><ele>2.0</ele><time>2026-04-29T19:42:53.982Z</time></trkpt><trkpt lat="43.582483439021075" lon="10.324305968497681"><ele>2.0</ele><time>2026-04-29T19:42:54.982Z</time></trkpt><trkpt lat="43.582630849096205" lon="10.324387265429761"><ele>2.0</ele><time>2026-04-29T19:42:55.982Z</time></trkpt><trkpt lat="43.582779929593755" lon="10.324467418890444"><ele>1.6666666666666665</ele><time>2026-04-29T19:42:56.982Z</time></trkpt><trkpt lat="43.58293060058001" lon="10.324548642791669"><ele>1.3333333333333333</ele><time>2026-04-29T19:42:57.982Z</time></trkpt><trkpt lat="43.58307658961255" lon="10.324628936570921"><ele>1.0</ele><time>2026-04-29T19:42:58.982Z</time></trkpt><trkpt lat="43.58321798201727" lon="10.324703919373302"><ele>0.75</ele><time>2026-04-29T19:42:59.982Z</time></trkpt><trkpt lat="43.58335237845182" lon="10.32476722197502"><ele>0.5</ele><time>2026-04-29T19:43:00.982Z</time></trkpt><trkpt lat="43.58348471788763" lon="10.324821153957037"><ele>0.25</ele><time>2026-04-29T19:43:01.982Z</time></trkpt><trkpt lat="43.5836049761851" lon="10.324878432296176"><ele>0.0</ele><time>2026-04-29T19:43:02.982Z</time></trkpt><trkpt lat="43.583730708100205" lon="10.324901121407505"><ele>0.5</ele><time>2026-04-29T19:43:03.982Z</time></trkpt><trkpt lat="43.58385276942449" lon="10.324910523786363"><ele>1.0</ele><time>2026-04-29T19:43:04.981Z</time></trkpt><trkpt lat="43.58397883036228" lon="10.324912297506286"><ele>1.5</ele><time>2026-04-29T19:43:05.981Z</time></trkpt><trkpt lat="43.5841037003262" lon="10.324905268283635"><ele>2.0</ele><time>2026-04-29T19:43:06.981Z</time></trkpt><trkpt lat="43.58422547111532" lon="10.324893834879985"><ele>2.0</ele><time>2026-04-29T19:43:07.981Z</time></trkpt><trkpt lat="43.58434942403945" lon="10.324872428631862"><ele>2.0</ele><time>2026-04-29T19:43:08.981Z</time></trkpt><trkpt lat="43.58448486385108" lon="10.32483973526716"><ele>2.0</ele><time>2026-04-29T19:43:09.981Z</time></trkpt><trkpt lat="43.5846188518893" lon="10.324796456882197"><ele>2.0</ele><time>2026-04-29T19:43:10.981Z</time></trkpt><trkpt lat="43.584758469102745" lon="10.324738781556078"><ele>1.3333333333333333</ele><time>2026-04-29T19:43:11.981Z</time></trkpt><trkpt lat="43.584901180412885" lon="10.324679161615466"><ele>0.6666666666666666</ele><time>2026-04-29T19:43:12.981Z</time></trkpt><trkpt lat="43.58505051351804" lon="10.32461177374185"><ele>0.0</ele><time>2026-04-29T19:43:13.981Z</time></trkpt><trkpt lat="43.58520265178864" lon="10.324542675471045"><ele>-0.3333333333333333</ele><time>2026-04-29T19:43:14.981Z</time></trkpt><trkpt lat="43.585352603311314" lon="10.324472980082547"><ele>-0.6666666666666666</ele><time>2026-04-29T19:43:15.981Z</time></trkpt><trkpt lat="43.585508973245226" lon="10.324408050130366"><ele>-1.0</ele><time>2026-04-29T19:43:16.981Z</time></trkpt><trkpt lat="43.5856625143046" lon="10.324333252983516"><ele>-1.0</ele><time>2026-04-29T19:43:17.981Z</time></trkpt><trkpt lat="43.585821409551755" lon="10.324261230440099"><ele>-1.0</ele><time>2026-04-29T19:43:18.981Z</time></trkpt><trkpt lat="43.585982798169354" lon="10.32418734383308"><ele>-1.0</ele><time>2026-04-29T19:43:19.981Z</time></trkpt><trkpt lat="43.58614774888487" lon="10.32411190319817"><ele>-0.6666666666666666</ele><time>2026-04-29T19:43:20.981Z</time></trkpt><trkpt lat="43.58630992755803" lon="10.324034512246817"><ele>-0.3333333333333333</ele><time>2026-04-29T19:43:21.981Z</time></trkpt><trkpt lat="43.58646995084354" lon="10.32395796663854"><ele>0.0</ele><time>2026-04-29T19:43:22.981Z</time></trkpt><trkpt lat="43.58662090545296" lon="10.323882304276486"><ele>0.5</ele><time>2026-04-29T19:43:23.981Z</time></trkpt><trkpt lat="43.586755832159895" lon="10.323805281338808"><ele>1.0</ele><time>2026-04-29T19:43:24.981Z</time></trkpt><trkpt lat="43.58688299918236" lon="10.32372582587549"><ele>1.5</ele><time>2026-04-29T19:43:25.981Z</time></trkpt><trkpt lat="43.58701569048688" lon="10.323626983367518"><ele>2.0</ele><time>2026-04-29T19:43:26.981Z</time></trkpt><trkpt lat="43.587153193867245" lon="10.323511686490042"><ele>2.0</ele><time>2026-04-29T19:43:27.981Z</time></trkpt><trkpt lat="43.58729509247466" lon="10.323383971845491"><ele>2.0</ele><time>2026-04-29T19:43:28.981Z</time></trkpt><trkpt lat="43.58743826441346" lon="10.323244913116355"><ele>2.0</ele><time>2026-04-29T19:43:29.981Z</time></trkpt><trkpt lat="43.58757442921933" lon="10.323087365407703"><ele>1.3333333333333333</ele><time>2026-04-29T19:43:30.981Z</time></trkpt><trkpt lat="43.58770627158502" lon="10.322924980730521"><ele>0.6666666666666666</ele><time>2026-04-29T19:43:31.981Z</time></trkpt><trkpt lat="43.58782974838725" lon="10.32276103710457"><ele>0.0</ele><time>2026-04-29T19:43:32.981Z</time></trkpt><trkpt lat="43.58795417658748" lon="10.322626811281657"><ele>0.0</ele><time>2026-04-29T19:43:33.981Z</time></trkpt><trkpt lat="43.58807972425449" lon="10.322509035193617"><ele>0.0</ele><time>2026-04-29T19:43:34.981Z</time></trkpt><trkpt lat="43.58821295898602" lon="10.3224107348081"><ele>0.0</ele><time>2026-04-29T19:43:35.981Z</time></trkpt><trkpt lat="43.588356056279395" lon="10.322328515074398"><ele>0.0</ele><time>2026-04-29T19:43:36.981Z</time></trkpt><trkpt lat="43.588498108239634" lon="10.322264507479487"><ele>0.0</ele><time>2026-04-29T19:43:37.981Z</time></trkpt><trkpt lat="43.58863466193255" lon="10.322219989393396"><ele>0.0</ele><time>2026-04-29T19:43:38.981Z</time></trkpt><trkpt lat="43.58877007545848" lon="10.322195428052812"><ele>0.0</ele><time>2026-04-29T19:43:39.981Z</time></trkpt><trkpt lat="43.58889147538265" lon="10.322192059943946"><ele>0.0</ele><time>2026-04-29T19:43:40.981Z</time></trkpt><trkpt lat="43.5890001954853" lon="10.322216749977747"><ele>0.0</ele><time>2026-04-29T19:43:41.981Z</time></trkpt><trkpt lat="43.5890926484113" lon="10.322280939530796"><ele>0.0</ele><time>2026-04-29T19:43:42.981Z</time></trkpt><trkpt lat="43.58916142529963" lon="10.322382896463383"><ele>0.0</ele><time>2026-04-29T19:43:43.981Z</time></trkpt><trkpt lat="43.58921209084649" lon="10.322521424825855"><ele>0.0</ele><time>2026-04-29T19:43:44.981Z</time></trkpt><trkpt lat="43.5892426956115" lon="10.322673095795373"><ele>0.25</ele><time>2026-04-29T19:43:45.981Z</time></trkpt><trkpt lat="43.589234797326476" lon="10.322834445262895"><ele>0.5</ele><time>2026-04-29T19:43:46.981Z</time></trkpt><trkpt lat="43.58918965496664" lon="10.322981186950816"><ele>0.75</ele><time>2026-04-29T19:43:47.981Z</time></trkpt><trkpt lat="43.58911670736278" lon="10.323100332243373"><ele>1.0</ele><time>2026-04-29T19:43:48.981Z</time></trkpt><trkpt lat="43.58902408220211" lon="10.323199565129372"><ele>1.25</ele><time>2026-04-29T19:43:49.981Z</time></trkpt><trkpt lat="43.58891297012568" lon="10.32325190357392"><ele>1.5</ele><time>2026-04-29T19:43:50.981Z</time></trkpt><trkpt lat="43.58879421271977" lon="10.323266381065727"><ele>1.75</ele><time>2026-04-29T19:43:51.981Z</time></trkpt><trkpt lat="43.588672027030256" lon="10.3232476644836"><ele>2.0</ele><time>2026-04-29T19:43:52.983Z</time></trkpt><trkpt lat="43.58855223714313" lon="10.323188846063458"><ele>1.5</ele><time>2026-04-29T19:43:53.982Z</time></trkpt><trkpt lat="43.58844874833847" lon="10.323078201251063"><ele>1.0</ele><time>2026-04-29T19:43:54.982Z</time></trkpt><trkpt lat="43.588381419428856" lon="10.322937937698025"><ele>0.5</ele><time>2026-04-29T19:43:55.982Z</time></trkpt><trkpt lat="43.58833916217078" lon="10.322790047819879"><ele>0.0</ele><time>2026-04-29T19:43:56.982Z</time></trkpt><trkpt lat="43.58829980543296" lon="10.322642216932165"><ele>0.0</ele><time>2026-04-29T19:43:57.982Z</time></trkpt><trkpt lat="43.58823218023475" lon="10.322501145227294"><ele>0.0</ele><time>2026-04-29T19:43:58.982Z</time></trkpt><trkpt lat="43.5881768238253" lon="10.322336817204647"><ele>0.0</ele><time>2026-04-29T19:43:59.982Z</time></trkpt><trkpt lat="43.588092409551834" lon="10.322175728642978"><ele>0.0</ele><time>2026-04-29T19:44:00.982Z</time></trkpt><trkpt lat="43.58803334034825" lon="10.321990807734718"><ele>0.6666666666666666</ele><time>2026-04-29T19:44:01.983Z</time></trkpt><trkpt lat="43.58796868241636" lon="10.321784073831619"><ele>1.3333333333333333</ele><time>2026-04-29T19:44:02.982Z</time></trkpt><trkpt lat="43.58790370232938" lon="10.321580535080678"><ele>2.0</ele><time>2026-04-29T19:44:03.982Z</time></trkpt><trkpt lat="43.5878404874812" lon="10.321382667245324"><ele>2.0</ele><time>2026-04-29T19:44:04.982Z</time></trkpt><trkpt lat="43.58778092649504" lon="10.321182616970875"><ele>2.0</ele><time>2026-04-29T19:44:05.983Z</time></trkpt><trkpt lat="43.58772264606667" lon="10.320978902968818"><ele>2.0</ele><time>2026-04-29T19:44:06.983Z</time></trkpt><trkpt lat="43.58766351896077" lon="10.320777938513888"><ele>2.0</ele><time>2026-04-29T19:44:07.983Z</time></trkpt><trkpt lat="43.587604629549865" lon="10.320580421167433"><ele>2.0</ele><time>2026-04-29T19:44:08.982Z</time></trkpt><trkpt lat="43.587547664862086" lon="10.320387071396489"><ele>2.0</ele><time>2026-04-29T19:44:09.982Z</time></trkpt><trkpt lat="43.58749592512094" lon="10.320203047576536"><ele>2.0</ele><time>2026-04-29T19:44:10.982Z</time></trkpt><trkpt lat="43.58744652154059" lon="10.320023950703273"><ele>1.75</ele><time>2026-04-29T19:44:11.982Z</time></trkpt><trkpt lat="43.5873952614802" lon="10.319841273837964"><ele>1.5</ele><time>2026-04-29T19:44:12.982Z</time></trkpt><trkpt lat="43.587340307021805" lon="10.319651060497897"><ele>1.25</ele><time>2026-04-29T19:44:13.982Z</time></trkpt><trkpt lat="43.5872853089269" lon="10.319457307708863"><ele>1.0</ele><time>2026-04-29T19:44:14.982Z</time></trkpt><trkpt lat="43.58722666278984" lon="10.319263442411913"><ele>1.0</ele><time>2026-04-29T19:44:15.982Z</time></trkpt><trkpt lat="43.58716424382135" lon="10.319076145259158"><ele>1.0</ele><time>2026-04-29T19:44:16.982Z</time></trkpt><trkpt lat="43.587100257979984" lon="10.318884266424408"><ele>1.0</ele><time>2026-04-29T19:44:17.982Z</time></trkpt><trkpt lat="43.58704020693728" lon="10.318698878045115"><ele>1.0</ele><time>2026-04-29T19:44:18.982Z</time></trkpt><trkpt lat="43.58699035818986" lon="10.318523567904586"><ele>0.8</ele><time>2026-04-29T19:44:19.982Z</time></trkpt><trkpt lat="43.586946642000335" lon="10.318360839769758"><ele>0.6000000000000001</ele><time>2026-04-29T19:44:20.982Z</time></trkpt><trkpt lat="43.58690180163967" lon="10.318228060406785"><ele>0.4</ele><time>2026-04-29T19:44:21.982Z</time></trkpt><trkpt lat="43.58686160523852" lon="10.318120673651118"><ele>0.2</ele><time>2026-04-29T19:44:22.982Z</time></trkpt><trkpt lat="43.58682389671893" lon="10.318030860146376"><ele>0.0</ele><time>2026-04-29T19:44:23.982Z</time></trkpt><trkpt lat="43.58679166156351" lon="10.317950846911637"><ele>0.0</ele><time>2026-04-29T19:44:24.982Z</time></trkpt><trkpt lat="43.586756431368066" lon="10.31786742452272"><ele>0.0</ele><time>2026-04-29T19:44:25.982Z</time></trkpt><trkpt lat="43.58671341116741" lon="10.317757548106345"><ele>0.0</ele><time>2026-04-29T19:44:26.982Z</time></trkpt><trkpt lat="43.58666392747369" lon="10.317636311616814"><ele>0.0</ele><time>2026-04-29T19:44:27.982Z</time></trkpt><trkpt lat="43.58660760417411" lon="10.317483761998009"><ele>0.0</ele><time>2026-04-29T19:44:28.982Z</time></trkpt><trkpt lat="43.58654789498194" lon="10.317315331049034"><ele>-0.3333333333333333</ele><time>2026-04-29T19:44:29.982Z</time></trkpt><trkpt lat="43.58648483672267" lon="10.317140474250397"><ele>-0.6666666666666666</ele><time>2026-04-29T19:44:30.982Z</time></trkpt><trkpt lat="43.586414070217764" lon="10.316948966665677"><ele>-1.0</ele><time>2026-04-29T19:44:31.982Z</time></trkpt><trkpt lat="43.58634034971227" lon="10.31675069021685"><ele>-1.0</ele><time>2026-04-29T19:44:32.982Z</time></trkpt><trkpt lat="43.586264290258825" lon="10.316545202033334"><ele>-1.0</ele><time>2026-04-29T19:44:33.982Z</time></trkpt><trkpt lat="43.58618985403296" lon="10.316344940881944"><ele>-1.0</ele><time>2026-04-29T19:44:34.982Z</time></trkpt><trkpt lat="43.586120303696674" lon="10.316148791865125"><ele>-1.0</ele><time>2026-04-29T19:44:35.982Z</time></trkpt><trkpt lat="43.58605300634877" lon="10.315957677807667"><ele>-1.0</ele><time>2026-04-29T19:44:36.982Z</time></trkpt><trkpt lat="43.585987675097684" lon="10.315772989757296"><ele>-1.0</ele><time>2026-04-29T19:44:37.982Z</time></trkpt><trkpt lat="43.585926146784544" lon="10.31558353054143"><ele>-1.0</ele><time>2026-04-29T19:44:38.982Z</time></trkpt><trkpt lat="43.58586595420833" lon="10.31539492004733"><ele>-1.0</ele><time>2026-04-29T19:44:39.982Z</time></trkpt><trkpt lat="43.58580978825208" lon="10.315203607552752"><ele>-1.0</ele><time>2026-04-29T19:44:40.982Z</time></trkpt><trkpt lat="43.585753035014115" lon="10.315012901950409"><ele>-1.0</ele><time>2026-04-29T19:44:41.982Z</time></trkpt><trkpt lat="43.58569968944254" lon="10.31481968896985"><ele>-0.6666666666666666</ele><time>2026-04-29T19:44:42.982Z</time></trkpt><trkpt lat="43.58565025612164" lon="10.314618035156121"><ele>-0.3333333333333333</ele><time>2026-04-29T19:44:43.982Z</time></trkpt><trkpt lat="43.58560147576268" lon="10.314407195483716"><ele>0.0</ele><time>2026-04-29T19:44:44.982Z</time></trkpt><trkpt lat="43.585554790026464" lon="10.314188760358617"><ele>0.0</ele><time>2026-04-29T19:44:45.982Z</time></trkpt><trkpt lat="43.58551118982633" lon="10.31396051023361"><ele>0.0</ele><time>2026-04-29T19:44:46.982Z</time></trkpt><trkpt lat="43.58546374342467" lon="10.313724970644872"><ele>0.0</ele><time>2026-04-29T19:44:47.982Z</time></trkpt><trkpt lat="43.58541626011367" lon="10.313484305667618"><ele>0.0</ele><time>2026-04-29T19:44:48.982Z</time></trkpt><trkpt lat="43.585368037685896" lon="10.313235972714084"><ele>0.0</ele><time>2026-04-29T19:44:49.982Z</time></trkpt><trkpt lat="43.58531757592306" lon="10.312985455771296"><ele>0.0</ele><time>2026-04-29T19:44:50.982Z</time></trkpt><trkpt lat="43.58526971878172" lon="10.312735192704867"><ele>0.0</ele><time>2026-04-29T19:44:51.982Z</time></trkpt><trkpt lat="43.58521896172187" lon="10.312478793729035"><ele>0.0</ele><time>2026-04-29T19:44:52.982Z</time></trkpt><trkpt lat="43.58516743966219" lon="10.312220052004465"><ele>0.0</ele><time>2026-04-29T19:44:53.982Z</time></trkpt><trkpt lat="43.58506535830887" lon="10.311708232360303"><ele>0.0</ele><time>2026-04-29T19:44:55.982Z</time></trkpt><trkpt lat="43.585022326620205" lon="10.311460411358023"><ele>0.0</ele><time>2026-04-29T19:44:56.982Z</time></trkpt><trkpt lat="43.58497843335283" lon="10.311216413250902"><ele>0.0</ele><time>2026-04-29T19:44:57.982Z</time></trkpt><trkpt lat="43.584934048818205" lon="10.310981086701519"><ele>0.0</ele><time>2026-04-29T19:44:58.982Z</time></trkpt><trkpt lat="43.584890858883064" lon="10.31075077353887"><ele>0.0</ele><time>2026-04-29T19:44:59.982Z</time></trkpt><trkpt lat="43.58484754615769" lon="10.310518615491409"><ele>0.0</ele><time>2026-04-29T19:45:00.982Z</time></trkpt><trkpt lat="43.58480372836843" lon="10.310291065861634"><ele>0.0</ele><time>2026-04-29T19:45:01.982Z</time></trkpt><trkpt lat="43.5847617211417" lon="10.310069752190682"><ele>0.0</ele><time>2026-04-29T19:45:02.981Z</time></trkpt><trkpt lat="43.58471841348788" lon="10.309847200778355"><ele>0.0</ele><time>2026-04-29T19:45:03.981Z</time></trkpt><trkpt lat="43.58467107791522" lon="10.309622811105344"><ele>0.0</ele><time>2026-04-29T19:45:04.981Z</time></trkpt><trkpt lat="43.584626497951106" lon="10.309400658579067"><ele>0.0</ele><time>2026-04-29T19:45:05.981Z</time></trkpt><trkpt lat="43.584583766288134" lon="10.309178947749492"><ele>0.0</ele><time>2026-04-29T19:45:06.981Z</time></trkpt><trkpt lat="43.58453530919691" lon="10.30896089528959"><ele>0.0</ele><time>2026-04-29T19:45:07.981Z</time></trkpt><trkpt lat="43.58447928842821" lon="10.308745299877781"><ele>0.0</ele><time>2026-04-29T19:45:08.981Z</time></trkpt><trkpt lat="43.58441958483171" lon="10.308542158927365"><ele>0.0</ele><time>2026-04-29T19:45:09.981Z</time></trkpt><trkpt lat="43.584348741333244" lon="10.308341983871792"><ele>0.0</ele><time>2026-04-29T19:45:10.981Z</time></trkpt><trkpt lat="43.58427023102287" lon="10.308153475272288"><ele>0.0</ele><time>2026-04-29T19:45:11.981Z</time></trkpt><trkpt lat="43.58418638216108" lon="10.307964002477396"><ele>0.0</ele><time>2026-04-29T19:45:12.981Z</time></trkpt><trkpt lat="43.584108971507014" lon="10.307802532510848"><ele>0.25</ele><time>2026-04-29T19:45:13.981Z</time></trkpt><trkpt lat="43.58403345641826" lon="10.307655794628568"><ele>0.5</ele><time>2026-04-29T19:45:14.981Z</time></trkpt><trkpt lat="43.58396245393535" lon="10.30751873271322"><ele>0.75</ele><time>2026-04-29T19:45:15.981Z</time></trkpt><trkpt lat="43.583890460022914" lon="10.307386728325609"><ele>1.0</ele><time>2026-04-29T19:45:16.981Z</time></trkpt><trkpt lat="43.583811886837104" lon="10.307261107923864"><ele>0.75</ele><time>2026-04-29T19:45:17.981Z</time></trkpt><trkpt lat="43.583718470291934" lon="10.307134961337635"><ele>0.5</ele><time>2026-04-29T19:45:18.981Z</time></trkpt><trkpt lat="43.58362984386927" lon="10.307005006011686"><ele>0.25</ele><time>2026-04-29T19:45:19.981Z</time></trkpt><trkpt lat="43.583531222836456" lon="10.306861817683671"><ele>0.0</ele><time>2026-04-29T19:45:20.981Z</time></trkpt><trkpt lat="43.58343241727893" lon="10.306718731509267"><ele>-0.25</ele><time>2026-04-29T19:45:21.981Z</time></trkpt><trkpt lat="43.583335964831214" lon="10.306571505786742"><ele>-0.5</ele><time>2026-04-29T19:45:22.981Z</time></trkpt><trkpt lat="43.583253296011485" lon="10.306424667330162"><ele>-0.75</ele><time>2026-04-29T19:45:23.981Z</time></trkpt><trkpt lat="43.58318047774906" lon="10.306275233833983"><ele>-1.0</ele><time>2026-04-29T19:45:24.981Z</time></trkpt><trkpt lat="43.58312913297751" lon="10.306135661678177"><ele>-1.4</ele><time>2026-04-29T19:45:25.981Z</time></trkpt><trkpt lat="43.58308455109976" lon="10.306017959408235"><ele>-1.8</ele><time>2026-04-29T19:45:26.981Z</time></trkpt><trkpt lat="43.583031101436404" lon="10.305912464148987"><ele>-2.1999999999999997</ele><time>2026-04-29T19:45:27.981Z</time></trkpt><trkpt lat="43.58297638253684" lon="10.305819843247368"><ele>-2.6</ele><time>2026-04-29T19:45:28.981Z</time></trkpt><trkpt lat="43.58292722520485" lon="10.305737437070329"><ele>-3.0</ele><time>2026-04-29T19:45:29.981Z</time></trkpt><trkpt lat="43.58284630196394" lon="10.305592750278562"><ele>-2.8571428571428568</ele><time>2026-04-29T19:45:31.981Z</time></trkpt><trkpt lat="43.58286372157709" lon="10.305487020608815"><ele>-2.7142857142857144</ele><time>2026-04-29T19:45:32.981Z</time></trkpt><trkpt lat="43.58285961632343" lon="10.305391204659438"><ele>-2.571428571428571</ele><time>2026-04-29T19:45:33.981Z</time></trkpt><trkpt lat="43.58285397112582" lon="10.305297405607037"><ele>-2.4285714285714284</ele><time>2026-04-29T19:45:34.981Z</time></trkpt><trkpt lat="43.58284801986871" lon="10.305197805674098"><ele>-2.2857142857142856</ele><time>2026-04-29T19:45:35.981Z</time></trkpt><trkpt lat="43.58283944711105" lon="10.305093119362422"><ele>-2.142857142857143</ele><time>2026-04-29T19:45:36.981Z</time></trkpt><trkpt lat="43.58283252763363" lon="10.304987981949449"><ele>-2.0</ele><time>2026-04-29T19:45:37.981Z</time></trkpt><trkpt lat="43.58282492220576" lon="10.304890898388017"><ele>-1.857142857142857</ele><time>2026-04-29T19:45:38.981Z</time></trkpt><trkpt lat="43.582818025410276" lon="10.30479981710054"><ele>-1.714285714285714</ele><time>2026-04-29T19:45:39.981Z</time></trkpt><trkpt lat="43.58281214464312" lon="10.30470759838454"><ele>-1.5714285714285714</ele><time>2026-04-29T19:45:40.981Z</time></trkpt><trkpt lat="43.58281085925257" lon="10.304615735033176"><ele>-1.4285714285714284</ele><time>2026-04-29T19:45:41.981Z</time></trkpt><trkpt lat="43.58280995323888" lon="10.304522457393062"><ele>-1.2857142857142856</ele><time>2026-04-29T19:45:42.981Z</time></trkpt><trkpt lat="43.58280827498574" lon="10.304422946968078"><ele>-1.1428571428571428</ele><time>2026-04-29T19:45:43.981Z</time></trkpt><trkpt lat="43.58280903318591" lon="10.304317168105436"><ele>-1.0</ele><time>2026-04-29T19:45:44.981Z</time></trkpt><trkpt lat="43.582812406085495" lon="10.304205938301655"><ele>-0.8333333333333333</ele><time>2026-04-29T19:45:45.981Z</time></trkpt><trkpt lat="43.582819292877645" lon="10.304092877004779"><ele>-0.6666666666666666</ele><time>2026-04-29T19:45:46.981Z</time></trkpt><trkpt lat="43.58282947207676" lon="10.303968894783504"><ele>-0.5</ele><time>2026-04-29T19:45:47.981Z</time></trkpt><trkpt lat="43.58283473982271" lon="10.303848091638608"><ele>-0.3333333333333333</ele><time>2026-04-29T19:45:48.981Z</time></trkpt><trkpt lat="43.582839287453275" lon="10.303724702469689"><ele>-0.16666666666666666</ele><time>2026-04-29T19:45:49.981Z</time></trkpt><trkpt lat="43.58284574039234" lon="10.303604483935167"><ele>0.0</ele><time>2026-04-29T19:45:50.981Z</time></trkpt><trkpt lat="43.58284297472959" lon="10.303482700778606"><ele>0.2</ele><time>2026-04-29T19:45:51.981Z</time></trkpt><trkpt lat="43.58282802457295" lon="10.303355666229965"><ele>0.4</ele><time>2026-04-29T19:45:52.981Z</time></trkpt><trkpt lat="43.58280790581258" lon="10.303234331699212"><ele>0.6000000000000001</ele><time>2026-04-29T19:45:53.981Z</time></trkpt><trkpt lat="43.58278234095553" lon="10.303110464110226"><ele>0.8</ele><time>2026-04-29T19:45:54.981Z</time></trkpt><trkpt lat="43.5827480181725" lon="10.302988718791081"><ele>1.0</ele><time>2026-04-29T19:45:55.981Z</time></trkpt><trkpt lat="43.58271169275924" lon="10.302870531736042"><ele>0.9999999999999999</ele><time>2026-04-29T19:45:56.981Z</time></trkpt><trkpt lat="43.58266790846929" lon="10.302762572596482"><ele>1.0</ele><time>2026-04-29T19:45:57.981Z</time></trkpt><trkpt lat="43.58262088956178" lon="10.302650167969588"><ele>1.0</ele><time>2026-04-29T19:45:58.982Z</time></trkpt><trkpt lat="43.58256199974868" lon="10.302546144182209"><ele>1.0</ele><time>2026-04-29T19:45:59.982Z</time></trkpt><trkpt lat="43.582505557245064" lon="10.302447920955348"><ele>0.9999999999999999</ele><time>2026-04-29T19:46:00.982Z</time></trkpt><trkpt lat="43.582464341760044" lon="10.302363727843492"><ele>1.0</ele><time>2026-04-29T19:46:01.982Z</time></trkpt><trkpt lat="43.58245081928136" lon="10.302263360710288"><ele>1.0</ele><time>2026-04-29T19:46:03.982Z</time></trkpt><trkpt lat="43.58241087145031" lon="10.302349175064704"><ele>1.0</ele><time>2026-04-29T19:46:09.982Z</time></trkpt><trkpt lat="43.58248690195016" lon="10.302496969953797"><ele>1.0</ele><time>2026-04-29T19:46:11.981Z</time></trkpt><trkpt lat="43.582557027009436" lon="10.302608656533936"><ele>1.0</ele><time>2026-04-29T19:46:13.981Z</time></trkpt><trkpt lat="43.58260043663052" lon="10.302694440252164"><ele>1.0</ele><time>2026-04-29T19:46:15.981Z</time></trkpt><trkpt lat="43.58264094676979" lon="10.302787420068077"><ele>1.0</ele><time>2026-04-29T19:46:47.981Z</time></trkpt><trkpt lat="43.58267067254528" lon="10.302876925653885"><ele>0.9999999999999999</ele><time>2026-04-29T19:46:51.981Z</time></trkpt><trkpt lat="43.582702772341555" lon="10.302979553800952"><ele>1.0</ele><time>2026-04-29T19:46:56.981Z</time></trkpt><trkpt lat="43.58272710085893" lon="10.303069018620342"><ele>1.0</ele><time>2026-04-29T19:47:00.98Z</time></trkpt><trkpt lat="43.58275782057857" lon="10.3031481288994"><ele>0.9999999999999999</ele><time>2026-04-29T19:47:44.98Z</time></trkpt><trkpt lat="43.58277433910464" lon="10.303234570097246"><ele>1.0</ele><time>2026-04-29T19:48:04.981Z</time></trkpt><trkpt lat="43.58278922183083" lon="10.303326701569022"><ele>1.0</ele><time>2026-04-29T19:48:07.981Z</time></trkpt><trkpt lat="43.58280201641271" lon="10.303413538537958"><ele>1.1428571428571428</ele><time>2026-04-29T19:48:11.981Z</time></trkpt><trkpt lat="43.58280927667328" lon="10.30350669317372"><ele>1.2857142857142856</ele><time>2026-04-29T19:48:16.981Z</time></trkpt><trkpt lat="43.58281386531081" lon="10.303593854036139"><ele>1.4285714285714284</ele><time>2026-04-29T19:48:31.98Z</time></trkpt><trkpt lat="43.58280407637774" lon="10.303693638534165"><ele>1.5714285714285714</ele><time>2026-04-29T19:49:03.979Z</time></trkpt><trkpt lat="43.58279266784396" lon="10.303794100202037"><ele>1.714285714285714</ele><time>2026-04-29T19:49:08.979Z</time></trkpt><trkpt lat="43.58278257147228" lon="10.303883988870837"><ele>1.857142857142857</ele><time>2026-04-29T19:49:14.979Z</time></trkpt><trkpt lat="43.582766320889505" lon="10.303988143775383"><ele>2.0</ele><time>2026-04-29T19:49:42.979Z</time></trkpt><trkpt lat="43.58277638567642" lon="10.304090140306617"><ele>1.6</ele><time>2026-04-29T19:50:26.981Z</time></trkpt><trkpt lat="43.58276487273342" lon="10.304186995018894"><ele>1.2000000000000002</ele><time>2026-04-29T19:50:29.98Z</time></trkpt><trkpt lat="43.582712318689296" lon="10.304235290463755"><ele>0.8</ele><time>2026-04-29T19:51:21.98Z</time></trkpt><trkpt lat="43.58268876371347" lon="10.30432052267237"><ele>0.4</ele><time>2026-04-29T19:51:30.979Z</time></trkpt><trkpt lat="43.58269205715235" lon="10.304226235394589"><ele>0.0</ele><time>2026-04-29T19:53:08.979Z</time></trkpt><trkpt lat="43.582496746846" lon="10.304161950471414"><ele>0.0</ele><time>2026-04-29T19:53:09.979Z</time></trkpt><trkpt lat="43.582443885757336" lon="10.304095484416978"><ele>0.0</ele><time>2026-04-29T19:53:11.979Z</time></trkpt><trkpt lat="43.58240491213325" lon="10.304010131413682"><ele>0.0</ele><time>2026-04-29T19:53:13.979Z</time></trkpt><trkpt lat="43.58238709059939" lon="10.303896992945823"><ele>0.0</ele><time>2026-04-29T19:53:15.979Z</time></trkpt><trkpt lat="43.582370980091106" lon="10.303791927660704"><ele>0.0</ele><time>2026-04-29T19:53:17.979Z</time></trkpt><trkpt lat="43.58235222876727" lon="10.303682843339843"><ele>0.0</ele><time>2026-04-29T19:53:19.978Z</time></trkpt><trkpt lat="43.582325770441" lon="10.303563501615463"><ele>0.16666666666666666</ele><time>2026-04-29T19:53:21.978Z</time></trkpt><trkpt lat="43.58230172419675" lon="10.303454405630037"><ele>0.3333333333333333</ele><time>2026-04-29T19:53:23.978Z</time></trkpt><trkpt lat="43.58227176193873" lon="10.303343768500762"><ele>0.5</ele><time>2026-04-29T19:53:25.978Z</time></trkpt><trkpt lat="43.58224824857807" lon="10.303257276795877"><ele>0.6666666666666666</ele><time>2026-04-29T19:53:27.978Z</time></trkpt><trkpt lat="43.58221139473488" lon="10.303175766631947"><ele>0.8333333333333333</ele><time>2026-04-29T19:53:30.978Z</time></trkpt><trkpt lat="43.582172223403475" lon="10.303086512973335"><ele>1.0</ele><time>2026-04-29T19:53:46.978Z</time></trkpt><trkpt lat="43.58212583652722" lon="10.30299921621945"><ele>1.0</ele><time>2026-04-29T19:53:55.978Z</time></trkpt><trkpt lat="43.58209220066763" lon="10.30292016064814"><ele>0.9999999999999999</ele><time>2026-04-29T19:53:58.978Z</time></trkpt><trkpt lat="43.5820514242081" lon="10.302848467732614"><ele>1.0</ele><time>2026-04-29T19:54:01.978Z</time></trkpt><trkpt lat="43.58202677337358" lon="10.30276515740814"><ele>1.0</ele><time>2026-04-29T19:54:04.978Z</time></trkpt><trkpt lat="43.58196353340048" lon="10.302727978156234"><ele>0.9999999999999999</ele><time>2026-04-29T19:54:08.978Z</time></trkpt><trkpt lat="43.581903107884614" lon="10.302694519947227"><ele>1.0</ele><time>2026-04-29T20:08:51.904Z</time></trkpt><trkpt lat="43.58183905797578" lon="10.302669865582164"><ele>1.0</ele><time>2026-04-29T20:08:54.904Z</time></trkpt><trkpt lat="43.58177092429931" lon="10.302653502547154"><ele>0.6666666666666666</ele><time>2026-04-29T20:08:58.904Z</time></trkpt><trkpt lat="43.58170439324157" lon="10.30266264431242"><ele>0.3333333333333333</ele><time>2026-04-29T20:09:01.904Z</time></trkpt><trkpt lat="43.5816146100317" lon="10.302678461464774"><ele>0.0</ele><time>2026-04-29T20:09:04.905Z</time></trkpt><trkpt lat="43.581523154907046" lon="10.302698774642371"><ele>-0.3333333333333333</ele><time>2026-04-29T20:09:07.905Z</time></trkpt><trkpt lat="43.58145802859068" lon="10.302704781175528"><ele>-0.6666666666666666</ele><time>2026-04-29T20:09:09.905Z</time></trkpt><trkpt lat="43.581386045913725" lon="10.302715612567908"><ele>-1.0</ele><time>2026-04-29T20:09:11.905Z</time></trkpt><trkpt lat="43.58131544405996" lon="10.302722291173435"><ele>-1.0</ele><time>2026-04-29T20:09:13.905Z</time></trkpt><trkpt lat="43.58124239499874" lon="10.302738074103758"><ele>-0.9999999999999999</ele><time>2026-04-29T20:09:15.905Z</time></trkpt><trkpt lat="43.58117515336671" lon="10.30275091292158"><ele>-1.0</ele><time>2026-04-29T20:09:17.905Z</time></trkpt><trkpt lat="43.5811014369694" lon="10.302769131215118"><ele>-1.0</ele><time>2026-04-29T20:09:20.904Z</time></trkpt><trkpt lat="43.58104762523002" lon="10.302834595780551"><ele>-0.9999999999999999</ele><time>2026-04-29T20:09:24.904Z</time></trkpt><trkpt lat="43.58101488975505" lon="10.302935325883835"><ele>-1.0</ele><time>2026-04-29T20:09:48.904Z</time></trkpt><trkpt lat="43.581006959831754" lon="10.303032834170958"><ele>-1.0</ele><time>2026-04-29T20:09:55.903Z</time></trkpt><trkpt lat="43.58097344698316" lon="10.30312248491923"><ele>-0.8333333333333333</ele><time>2026-04-29T20:09:58.903Z</time></trkpt><trkpt lat="43.58092561482301" lon="10.303181699959058"><ele>-0.6666666666666666</ele><time>2026-04-29T20:10:00.903Z</time></trkpt><trkpt lat="43.58085602738759" lon="10.30320754080639"><ele>-0.5</ele><time>2026-04-29T20:10:03.903Z</time></trkpt><trkpt lat="43.58077811485869" lon="10.303224593767089"><ele>-0.3333333333333333</ele><time>2026-04-29T20:11:05.901Z</time></trkpt><trkpt lat="43.5807040037243" lon="10.30328127122375"><ele>-0.16666666666666666</ele><time>2026-04-29T20:11:07.901Z</time></trkpt><trkpt lat="43.58061284413538" lon="10.303323812772614"><ele>0.0</ele><time>2026-04-29T20:11:09.903Z</time></trkpt><trkpt lat="43.580509420075906" lon="10.303356777781577"><ele>0.0</ele><time>2026-04-29T20:11:11.902Z</time></trkpt><trkpt lat="43.58043773950363" lon="10.303374259327125"><ele>0.0</ele><time>2026-04-29T20:11:13.903Z</time></trkpt><trkpt lat="43.579574542619795" lon="10.303537630633638"><ele>0.0</ele><time>2026-04-29T20:13:27.044Z</time></trkpt><trkpt lat="43.57948641155889" lon="10.303550537578252"><ele>0.0</ele><time>2026-04-29T20:13:30.04Z</time></trkpt><trkpt lat="43.5794212295917" lon="10.303560126841369"><ele>0.0</ele><time>2026-04-29T20:13:31.044Z</time></trkpt><trkpt lat="43.57948743408099" lon="10.303751172363674"><ele>0.0</ele><time>2026-04-29T20:13:32.039Z</time></trkpt><trkpt lat="43.579547507908515" lon="10.303512377594586"><ele>0.0</ele><time>2026-04-29T20:13:33.04Z</time></trkpt><trkpt lat="43.57980462903498" lon="10.303209747712904"><ele>0.0</ele><time>2026-04-29T20:13:34.044Z</time></trkpt><trkpt lat="43.580132324232636" lon="10.303215926636312"><ele>0.0</ele><time>2026-04-29T20:13:47.897Z</time></trkpt><trkpt lat="43.57996038500786" lon="10.303278627301442"><ele>0.0</ele><time>2026-04-29T20:13:56.9Z</time></trkpt><trkpt lat="43.58001945840323" lon="10.303311646156295"><ele>0.0</ele><time>2026-04-29T20:15:01.897Z</time></trkpt><trkpt lat="43.58023608507033" lon="10.303311530462476"><ele>0.0</ele><time>2026-04-29T20:16:14.896Z</time></trkpt><trkpt lat="43.58039818840589" lon="10.30330297115177"><ele>0.0</ele><time>2026-04-29T20:16:15.896Z</time></trkpt><trkpt lat="43.58057863485699" lon="10.303293230501124"><ele>0.0</ele><time>2026-04-29T20:16:16.896Z</time></trkpt><trkpt lat="43.58078710665978" lon="10.303281919803855"><ele>0.0</ele><time>2026-04-29T20:16:17.896Z</time></trkpt><trkpt lat="43.5809493293395" lon="10.303273085259757"><ele>0.0</ele><time>2026-04-29T20:16:18.896Z</time></trkpt><trkpt lat="43.58100464448831" lon="10.30340917820069"><ele>0.0</ele><time>2026-04-29T20:17:53.893Z</time></trkpt><trkpt lat="43.58053303994013" lon="10.303650431690002"><ele>0.0</ele><time>2026-04-29T20:19:00.035Z</time></trkpt><trkpt lat="43.58046501914974" lon="10.303711950976792"><ele>0.0</ele><time>2026-04-29T20:20:21.892Z</time></trkpt><trkpt lat="43.58035001550967" lon="10.303618107559272"><ele>0.0</ele><time>2026-04-29T20:20:31.892Z</time></trkpt><trkpt lat="43.57946350304883" lon="10.303590022635191"><ele>0.0</ele><time>2026-04-29T20:31:17.997Z</time></trkpt><trkpt lat="43.57940433955463" lon="10.303549914275742"><ele>0.0</ele><time>2026-04-29T20:31:20.994Z</time></trkpt><trkpt lat="43.579317224181366" lon="10.303548694703506"><ele>0.0</ele><time>2026-04-29T20:32:08.996Z</time></trkpt><trkpt lat="43.57933711486484" lon="10.303432683435203"><ele>0.0</ele><time>2026-04-29T20:32:10.998Z</time></trkpt><trkpt lat="43.57935449815163" lon="10.303286726982705"><ele>0.0</ele><time>2026-04-29T20:32:12.996Z</time></trkpt><trkpt lat="43.57936427121435" lon="10.303178388603802"><ele>0.0</ele><time>2026-04-29T20:32:14.996Z</time></trkpt><trkpt lat="43.57936249466968" lon="10.303064938219443"><ele>0.0</ele><time>2026-04-29T20:32:16.996Z</time></trkpt><trkpt lat="43.579364184428755" lon="10.302976200083014"><ele>0.0</ele><time>2026-04-29T20:32:18.995Z</time></trkpt><trkpt lat="43.57932811095609" lon="10.302849408807663"><ele>0.0</ele><time>2026-04-29T20:32:22.842Z</time></trkpt><trkpt lat="43.57934950957294" lon="10.302966038348451"><ele>0.0</ele><time>2026-04-29T20:32:27.852Z</time></trkpt><trkpt lat="43.57926134745319" lon="10.303197936535978"><ele>0.0</ele><time>2026-04-29T20:33:37.993Z</time></trkpt><trkpt lat="43.57931644947415" lon="10.303245916137692"><ele>0.16666666666666666</ele><time>2026-04-29T20:34:46.989Z</time></trkpt><trkpt lat="43.57933941496039" lon="10.303381741660056"><ele>0.3333333333333333</ele><time>2026-04-29T20:38:51.841Z</time></trkpt><trkpt lat="43.579350439307355" lon="10.303467900057665"><ele>0.5</ele><time>2026-04-29T20:39:45.839Z</time></trkpt><trkpt lat="43.579355068521835" lon="10.303586826124706"><ele>0.6666666666666666</ele><time>2026-04-29T20:40:51.838Z</time></trkpt><trkpt lat="43.57934499407691" lon="10.303673877058825"><ele>0.8333333333333333</ele><time>2026-04-29T20:40:55.838Z</time></trkpt><trkpt lat="43.579344582313695" lon="10.303797783082906"><ele>1.0</ele><time>2026-04-29T20:41:02.837Z</time></trkpt><trkpt lat="43.579360307762556" lon="10.303701155286358"><ele>1.0</ele><time>2026-04-29T20:41:26.837Z</time></trkpt><trkpt lat="43.579343680885046" lon="10.30360791512137"><ele>1.0</ele><time>2026-04-29T20:41:39.836Z</time></trkpt><trkpt lat="43.579361221217326" lon="10.303496738099248"><ele>1.0</ele><time>2026-04-29T20:41:49.836Z</time></trkpt><trkpt lat="43.57936864112792" lon="10.303401583739165"><ele>1.0</ele><time>2026-04-29T20:42:03.835Z</time></trkpt><trkpt lat="43.579369105622305" lon="10.303313506131882"><ele>1.0</ele><time>2026-04-29T20:42:07.835Z</time></trkpt><trkpt lat="43.579407518191495" lon="10.303388434162642"><ele>1.0</ele><time>2026-04-29T20:43:00.834Z</time></trkpt><trkpt lat="43.579410644375585" lon="10.303483082691333"><ele>1.0</ele><time>2026-04-29T20:43:20.834Z</time></trkpt></trkseg></trk></gpx>